<?xml version='1.0' encoding='UTF-8'?><gpx version="1.1" creator="JPX - https://github.com/jenetics/jpx" xmlns="http://www.topografix.com/GPX/1/1"><trk><trkseg><trkpt lat="46.1200197" lon="13.5242345"><ele>155.0</ele><time>2026-05-02T07:33:39.469Z</time></trkpt><trkpt lat="46.1200708" lon="13.5241498"><ele>155.0</ele><time>2026-05-02T07:34:14.469Z</time></trkpt><trkpt lat="46.1201745" lon="13.5242622"><ele>155.0</ele><time>2026-05-02T07:34:21.47Z</time></trkpt><trkpt lat="46.1202018" lon="13.5244228"><ele>155.0</ele><time>2026-05-02T07:38:00.478Z</time></trkpt><trkpt lat="46.1201982" lon="13.5247688"><ele>155.0</ele><time>2026-05-02T07:38:02.474Z</time></trkpt><trkpt lat="46.120209" lon="13.5249773"><ele>155.0</ele><time>2026-05-02T07:38:03.479Z</time></trkpt><trkpt lat="46.1202242" lon="13.5251915"><ele>155.0</ele><time>2026-05-02T07:38:04.48Z</time></trkpt><trkpt lat="46.1202407" lon="13.5253962"><ele>155.0</ele><time>2026-05-02T07:38:05.479Z</time></trkpt><trkpt lat="46.1202602" lon="13.5255828"><ele>155.5</ele><time>2026-05-02T07:38:06.478Z</time></trkpt><trkpt lat="46.1202862" lon="13.5257598"><ele>156.0</ele><time>2026-05-02T07:38:07.477Z</time></trkpt><trkpt lat="46.1203292" lon="13.5259182"><ele>156.5</ele><time>2026-05-02T07:38:08.481Z</time></trkpt><trkpt lat="46.1203912" lon="13.5260562"><ele>157.0</ele><time>2026-05-02T07:38:09.482Z</time></trkpt><trkpt lat="46.1204572" lon="13.526182"><ele>157.8</ele><time>2026-05-02T07:38:10.481Z</time></trkpt><trkpt lat="46.1205072" lon="13.5262978"><ele>158.6</ele><time>2026-05-02T07:38:11.477Z</time></trkpt><trkpt lat="46.12053" lon="13.5264175"><ele>159.4</ele><time>2026-05-02T07:38:12.483Z</time></trkpt><trkpt lat="46.1205258" lon="13.5265563"><ele>160.20000000000002</ele><time>2026-05-02T07:38:13.481Z</time></trkpt><trkpt lat="46.1205035" lon="13.526711"><ele>161.0</ele><time>2026-05-02T07:38:14.478Z</time></trkpt><trkpt lat="46.120472" lon="13.526877"><ele>161.0</ele><time>2026-05-02T07:38:15.479Z</time></trkpt><trkpt lat="46.1204298" lon="13.5270553"><ele>161.0</ele><time>2026-05-02T07:38:16.479Z</time></trkpt><trkpt lat="46.1203893" lon="13.5272475"><ele>161.0</ele><time>2026-05-02T07:38:17.479Z</time></trkpt><trkpt lat="46.120361" lon="13.5274535"><ele>161.0</ele><time>2026-05-02T07:38:18.48Z</time></trkpt><trkpt lat="46.1203435" lon="13.527656"><ele>161.0</ele><time>2026-05-02T07:38:19.48Z</time></trkpt><trkpt lat="46.120335" lon="13.5278613"><ele>161.0</ele><time>2026-05-02T07:38:20.477Z</time></trkpt><trkpt lat="46.1203378" lon="13.5280688"><ele>161.0</ele><time>2026-05-02T07:38:21.478Z</time></trkpt><trkpt lat="46.120369" lon="13.528441"><ele>161.16666666666666</ele><time>2026-05-02T07:38:23.472Z</time></trkpt><trkpt lat="46.12039" lon="13.5285995"><ele>161.33333333333331</ele><time>2026-05-02T07:38:24.471Z</time></trkpt><trkpt lat="46.1204063" lon="13.5287393"><ele>161.5</ele><time>2026-05-02T07:38:25.468Z</time></trkpt><trkpt lat="46.1204048" lon="13.5288565"><ele>161.66666666666666</ele><time>2026-05-02T07:38:26.469Z</time></trkpt><trkpt lat="46.1203772" lon="13.5289565"><ele>161.83333333333334</ele><time>2026-05-02T07:38:27.47Z</time></trkpt><trkpt lat="46.120329" lon="13.5290385"><ele>162.0</ele><time>2026-05-02T07:38:28.472Z</time></trkpt><trkpt lat="46.1202685" lon="13.5291143"><ele>162.16666666666666</ele><time>2026-05-02T07:38:29.47Z</time></trkpt><trkpt lat="46.1202147" lon="13.5291862"><ele>162.33333333333334</ele><time>2026-05-02T07:38:30.47Z</time></trkpt><trkpt lat="46.120172" lon="13.5292578"><ele>162.5</ele><time>2026-05-02T07:38:31.469Z</time></trkpt><trkpt lat="46.120142" lon="13.5293477"><ele>162.66666666666669</ele><time>2026-05-02T07:38:32.471Z</time></trkpt><trkpt lat="46.1201237" lon="13.5294647"><ele>162.83333333333334</ele><time>2026-05-02T07:38:33.473Z</time></trkpt><trkpt lat="46.1200967" lon="13.5296037"><ele>163.0</ele><time>2026-05-02T07:38:34.474Z</time></trkpt><trkpt lat="46.1200517" lon="13.5297483"><ele>163.0</ele><time>2026-05-02T07:38:35.469Z</time></trkpt><trkpt lat="46.119985" lon="13.529884"><ele>163.0</ele><time>2026-05-02T07:38:36.472Z</time></trkpt><trkpt lat="46.1198978" lon="13.5299977"><ele>163.0</ele><time>2026-05-02T07:38:37.473Z</time></trkpt><trkpt lat="46.1197987" lon="13.530075"><ele>163.0</ele><time>2026-05-02T07:38:38.472Z</time></trkpt><trkpt lat="46.1196927" lon="13.530117"><ele>164.0</ele><time>2026-05-02T07:38:39.471Z</time></trkpt><trkpt lat="46.1195888" lon="13.5301245"><ele>165.0</ele><time>2026-05-02T07:38:40.47Z</time></trkpt><trkpt lat="46.1194903" lon="13.5301238"><ele>166.0</ele><time>2026-05-02T07:38:41.469Z</time></trkpt><trkpt lat="46.1193885" lon="13.5301393"><ele>167.0</ele><time>2026-05-02T07:38:42.474Z</time></trkpt><trkpt lat="46.119174" lon="13.5302072"><ele>167.0</ele><time>2026-05-02T07:38:44.473Z</time></trkpt><trkpt lat="46.119082" lon="13.530237"><ele>167.0</ele><time>2026-05-02T07:38:45.472Z</time></trkpt><trkpt lat="46.1190157" lon="13.5302722"><ele>167.0</ele><time>2026-05-02T07:38:46.47Z</time></trkpt><trkpt lat="46.1189645" lon="13.5303307"><ele>167.0</ele><time>2026-05-02T07:38:47.47Z</time></trkpt><trkpt lat="46.118918" lon="13.530421"><ele>167.0</ele><time>2026-05-02T07:38:48.468Z</time></trkpt><trkpt lat="46.118879" lon="13.5305342"><ele>167.0</ele><time>2026-05-02T07:38:49.467Z</time></trkpt><trkpt lat="46.1188353" lon="13.5306477"><ele>167.33333333333331</ele><time>2026-05-02T07:38:50.467Z</time></trkpt><trkpt lat="46.1187935" lon="13.530753"><ele>167.66666666666666</ele><time>2026-05-02T07:38:51.467Z</time></trkpt><trkpt lat="46.1187538" lon="13.5308393"><ele>168.0</ele><time>2026-05-02T07:38:52.468Z</time></trkpt><trkpt lat="46.1186825" lon="13.5309488"><ele>168.33333333333334</ele><time>2026-05-02T07:38:54.472Z</time></trkpt><trkpt lat="46.1186193" lon="13.5309857"><ele>168.66666666666669</ele><time>2026-05-02T07:38:56.472Z</time></trkpt><trkpt lat="46.1185623" lon="13.530887"><ele>169.0</ele><time>2026-05-02T07:39:00.472Z</time></trkpt><trkpt lat="46.1185217" lon="13.5308103"><ele>169.0</ele><time>2026-05-02T07:39:02.468Z</time></trkpt><trkpt lat="46.1185652" lon="13.5309033"><ele>169.0</ele><time>2026-05-02T07:39:13.469Z</time></trkpt><trkpt lat="46.1187015" lon="13.530962"><ele>169.0</ele><time>2026-05-02T07:39:18.469Z</time></trkpt><trkpt lat="46.1187508" lon="13.5310815"><ele>169.0</ele><time>2026-05-02T07:39:21.475Z</time></trkpt><trkpt lat="46.1187515" lon="13.5312108"><ele>169.0</ele><time>2026-05-02T07:39:23.469Z</time></trkpt><trkpt lat="46.1187487" lon="13.531313"><ele>169.2</ele><time>2026-05-02T07:39:25.469Z</time></trkpt><trkpt lat="46.1187315" lon="13.5314142"><ele>169.39999999999998</ele><time>2026-05-02T07:39:28.471Z</time></trkpt><trkpt lat="46.1187123" lon="13.5315438"><ele>169.6</ele><time>2026-05-02T07:39:32.471Z</time></trkpt><trkpt lat="46.1186968" lon="13.5316687"><ele>169.8</ele><time>2026-05-02T07:39:34.472Z</time></trkpt><trkpt lat="46.1186738" lon="13.5318792"><ele>170.0</ele><time>2026-05-02T07:39:38.47Z</time></trkpt><trkpt lat="46.1186937" lon="13.5317892"><ele>170.0</ele><time>2026-05-02T07:39:50.468Z</time></trkpt><trkpt lat="46.1187032" lon="13.5316573"><ele>170.0</ele><time>2026-05-02T07:39:52.468Z</time></trkpt><trkpt lat="46.1187023" lon="13.5315517"><ele>170.0</ele><time>2026-05-02T07:39:54.471Z</time></trkpt><trkpt lat="46.118639" lon="13.5315038"><ele>170.0</ele><time>2026-05-02T07:39:56.471Z</time></trkpt><trkpt lat="46.1184527" lon="13.5315097"><ele>170.0</ele><time>2026-05-02T07:39:59.471Z</time></trkpt><trkpt lat="46.1183647" lon="13.5315235"><ele>170.0</ele><time>2026-05-02T07:40:00.471Z</time></trkpt><trkpt lat="46.1182647" lon="13.5315438"><ele>170.0</ele><time>2026-05-02T07:40:01.471Z</time></trkpt><trkpt lat="46.1181515" lon="13.5315775"><ele>170.0</ele><time>2026-05-02T07:40:02.467Z</time></trkpt><trkpt lat="46.118031" lon="13.5316277"><ele>170.0</ele><time>2026-05-02T07:40:03.467Z</time></trkpt><trkpt lat="46.1179118" lon="13.5316895"><ele>170.0</ele><time>2026-05-02T07:40:04.469Z</time></trkpt><trkpt lat="46.117802" lon="13.5317648"><ele>170.0</ele><time>2026-05-02T07:40:05.47Z</time></trkpt><trkpt lat="46.1177033" lon="13.5318543"><ele>170.0</ele><time>2026-05-02T07:40:06.472Z</time></trkpt><trkpt lat="46.117614" lon="13.5319523"><ele>170.0</ele><time>2026-05-02T07:40:07.471Z</time></trkpt><trkpt lat="46.1175205" lon="13.5320393"><ele>171.25</ele><time>2026-05-02T07:40:08.473Z</time></trkpt><trkpt lat="46.1174177" lon="13.5321018"><ele>172.5</ele><time>2026-05-02T07:40:09.476Z</time></trkpt><trkpt lat="46.1173003" lon="13.5321333"><ele>173.75</ele><time>2026-05-02T07:40:10.472Z</time></trkpt><trkpt lat="46.1171728" lon="13.532137"><ele>175.0</ele><time>2026-05-02T07:40:11.471Z</time></trkpt><trkpt lat="46.1170378" lon="13.532125"><ele>175.0</ele><time>2026-05-02T07:40:12.469Z</time></trkpt><trkpt lat="46.1169087" lon="13.5321115"><ele>175.0</ele><time>2026-05-02T07:40:13.47Z</time></trkpt><trkpt lat="46.116803" lon="13.5321075"><ele>175.0</ele><time>2026-05-02T07:40:14.472Z</time></trkpt><trkpt lat="46.1167088" lon="13.532123"><ele>175.0</ele><time>2026-05-02T07:40:15.472Z</time></trkpt><trkpt lat="46.1166207" lon="13.5321922"><ele>175.0</ele><time>2026-05-02T07:40:16.471Z</time></trkpt><trkpt lat="46.1165388" lon="13.5323095"><ele>176.33333333333334</ele><time>2026-05-02T07:40:17.468Z</time></trkpt><trkpt lat="46.1163968" lon="13.532589"><ele>177.66666666666666</ele><time>2026-05-02T07:40:19.469Z</time></trkpt><trkpt lat="46.1163105" lon="13.5327123"><ele>179.0</ele><time>2026-05-02T07:40:20.47Z</time></trkpt><trkpt lat="46.11621" lon="13.5328097"><ele>179.0</ele><time>2026-05-02T07:40:21.469Z</time></trkpt><trkpt lat="46.1160945" lon="13.5328778"><ele>179.0</ele><time>2026-05-02T07:40:22.469Z</time></trkpt><trkpt lat="46.115964" lon="13.5329232"><ele>179.0</ele><time>2026-05-02T07:40:23.468Z</time></trkpt><trkpt lat="46.1158272" lon="13.532969"><ele>179.0</ele><time>2026-05-02T07:40:24.469Z</time></trkpt><trkpt lat="46.1156863" lon="13.5330265"><ele>182.0</ele><time>2026-05-02T07:40:25.47Z</time></trkpt><trkpt lat="46.1155435" lon="13.5331025"><ele>185.0</ele><time>2026-05-02T07:40:26.467Z</time></trkpt><trkpt lat="46.1154043" lon="13.5332022"><ele>188.0</ele><time>2026-05-02T07:40:27.466Z</time></trkpt><trkpt lat="46.115272" lon="13.5333303"><ele>188.0</ele><time>2026-05-02T07:40:28.469Z</time></trkpt><trkpt lat="46.1151418" lon="13.5334783"><ele>188.0</ele><time>2026-05-02T07:40:29.468Z</time></trkpt><trkpt lat="46.1150125" lon="13.5336272"><ele>188.0</ele><time>2026-05-02T07:40:30.471Z</time></trkpt><trkpt lat="46.1148855" lon="13.5337758"><ele>191.66666666666666</ele><time>2026-05-02T07:40:31.47Z</time></trkpt><trkpt lat="46.1147583" lon="13.5339202"><ele>195.33333333333331</ele><time>2026-05-02T07:40:32.469Z</time></trkpt><trkpt lat="46.1146333" lon="13.5340677"><ele>199.0</ele><time>2026-05-02T07:40:33.471Z</time></trkpt><trkpt lat="46.1145078" lon="13.5342167"><ele>199.0</ele><time>2026-05-02T07:40:34.471Z</time></trkpt><trkpt lat="46.1143835" lon="13.5343678"><ele>199.0</ele><time>2026-05-02T07:40:35.472Z</time></trkpt><trkpt lat="46.1142652" lon="13.5345217"><ele>199.0</ele><time>2026-05-02T07:40:36.471Z</time></trkpt><trkpt lat="46.1141515" lon="13.5346635"><ele>201.0</ele><time>2026-05-02T07:40:37.47Z</time></trkpt><trkpt lat="46.1140587" lon="13.534792"><ele>203.0</ele><time>2026-05-02T07:40:38.472Z</time></trkpt><trkpt lat="46.113925" lon="13.5349728"><ele>205.0</ele><time>2026-05-02T07:40:40.469Z</time></trkpt><trkpt lat="46.113903" lon="13.5351135"><ele>207.0</ele><time>2026-05-02T07:40:42.468Z</time></trkpt><trkpt lat="46.1139862" lon="13.5351543"><ele>207.0</ele><time>2026-05-02T07:40:44.47Z</time></trkpt><trkpt lat="46.1140652" lon="13.535142"><ele>207.0</ele><time>2026-05-02T07:40:45.469Z</time></trkpt><trkpt lat="46.1141688" lon="13.5350898"><ele>207.0</ele><time>2026-05-02T07:40:46.469Z</time></trkpt><trkpt lat="46.1142853" lon="13.535033"><ele>207.0</ele><time>2026-05-02T07:40:47.466Z</time></trkpt><trkpt lat="46.1144127" lon="13.534985"><ele>207.0</ele><time>2026-05-02T07:40:48.469Z</time></trkpt><trkpt lat="46.1145565" lon="13.5349528"><ele>206.5</ele><time>2026-05-02T07:40:49.467Z</time></trkpt><trkpt lat="46.1147028" lon="13.5349168"><ele>206.0</ele><time>2026-05-02T07:40:50.467Z</time></trkpt><trkpt lat="46.114849" lon="13.5348827"><ele>205.5</ele><time>2026-05-02T07:40:51.465Z</time></trkpt><trkpt lat="46.1149887" lon="13.5348517"><ele>205.0</ele><time>2026-05-02T07:40:52.466Z</time></trkpt><trkpt lat="46.1151178" lon="13.5348282"><ele>205.8</ele><time>2026-05-02T07:40:53.465Z</time></trkpt><trkpt lat="46.115239" lon="13.5348268"><ele>206.6</ele><time>2026-05-02T07:40:54.466Z</time></trkpt><trkpt lat="46.1153483" lon="13.5348527"><ele>207.39999999999998</ele><time>2026-05-02T07:40:55.468Z</time></trkpt><trkpt lat="46.1154362" lon="13.5349025"><ele>208.2</ele><time>2026-05-02T07:40:56.468Z</time></trkpt><trkpt lat="46.1154967" lon="13.534988"><ele>209.0</ele><time>2026-05-02T07:40:57.467Z</time></trkpt><trkpt lat="46.1155327" lon="13.5351043"><ele>209.0</ele><time>2026-05-02T07:40:58.466Z</time></trkpt><trkpt lat="46.1155612" lon="13.535222"><ele>209.0</ele><time>2026-05-02T07:40:59.467Z</time></trkpt><trkpt lat="46.1156748" lon="13.5353785"><ele>209.0</ele><time>2026-05-02T07:41:01.47Z</time></trkpt><trkpt lat="46.115759" lon="13.535394"><ele>209.0</ele><time>2026-05-02T07:41:02.469Z</time></trkpt><trkpt lat="46.1158698" lon="13.5353755"><ele>209.0</ele><time>2026-05-02T07:41:03.469Z</time></trkpt><trkpt lat="46.1159935" lon="13.535345"><ele>210.25</ele><time>2026-05-02T07:41:04.467Z</time></trkpt><trkpt lat="46.1161207" lon="13.5352977"><ele>211.5</ele><time>2026-05-02T07:41:05.466Z</time></trkpt><trkpt lat="46.1162508" lon="13.5352372"><ele>212.75</ele><time>2026-05-02T07:41:06.469Z</time></trkpt><trkpt lat="46.1163727" lon="13.5351333"><ele>214.0</ele><time>2026-05-02T07:41:07.469Z</time></trkpt><trkpt lat="46.1164992" lon="13.5350337"><ele>217.25</ele><time>2026-05-02T07:41:08.47Z</time></trkpt><trkpt lat="46.116627" lon="13.5349693"><ele>220.5</ele><time>2026-05-02T07:41:09.47Z</time></trkpt><trkpt lat="46.1167622" lon="13.5349477"><ele>223.75</ele><time>2026-05-02T07:41:10.47Z</time></trkpt><trkpt lat="46.1169028" lon="13.5349563"><ele>227.0</ele><time>2026-05-02T07:41:11.47Z</time></trkpt><trkpt lat="46.117044" lon="13.5349783"><ele>227.0</ele><time>2026-05-02T07:41:12.47Z</time></trkpt><trkpt lat="46.1171845" lon="13.5349937"><ele>227.0</ele><time>2026-05-02T07:41:13.469Z</time></trkpt><trkpt lat="46.1173128" lon="13.5349815"><ele>227.0</ele><time>2026-05-02T07:41:14.467Z</time></trkpt><trkpt lat="46.1174237" lon="13.534947"><ele>227.0</ele><time>2026-05-02T07:41:15.466Z</time></trkpt><trkpt lat="46.1175168" lon="13.5349205"><ele>228.8</ele><time>2026-05-02T07:41:16.467Z</time></trkpt><trkpt lat="46.117593" lon="13.5349357"><ele>230.6</ele><time>2026-05-02T07:41:17.469Z</time></trkpt><trkpt lat="46.1176565" lon="13.5350062"><ele>232.40000000000003</ele><time>2026-05-02T07:41:18.47Z</time></trkpt><trkpt lat="46.1176952" lon="13.5351157"><ele>234.20000000000002</ele><time>2026-05-02T07:41:19.47Z</time></trkpt><trkpt lat="46.1177088" lon="13.5352543"><ele>236.0</ele><time>2026-05-02T07:41:20.469Z</time></trkpt><trkpt lat="46.1177338" lon="13.5356067"><ele>239.0</ele><time>2026-05-02T07:41:22.471Z</time></trkpt><trkpt lat="46.1177603" lon="13.535803"><ele>242.0</ele><time>2026-05-02T07:41:23.47Z</time></trkpt><trkpt lat="46.1177703" lon="13.5360105"><ele>245.0</ele><time>2026-05-02T07:41:24.471Z</time></trkpt><trkpt lat="46.1177733" lon="13.5362245"><ele>248.0</ele><time>2026-05-02T07:41:25.468Z</time></trkpt><trkpt lat="46.1177795" lon="13.5364285"><ele>250.2</ele><time>2026-05-02T07:41:26.469Z</time></trkpt><trkpt lat="46.1177982" lon="13.536603"><ele>252.4</ele><time>2026-05-02T07:41:27.47Z</time></trkpt><trkpt lat="46.1178202" lon="13.5367375"><ele>254.59999999999997</ele><time>2026-05-02T07:41:28.469Z</time></trkpt><trkpt lat="46.1178277" lon="13.5368325"><ele>256.8</ele><time>2026-05-02T07:41:29.469Z</time></trkpt><trkpt lat="46.1177768" lon="13.5369573"><ele>259.0</ele><time>2026-05-02T07:41:31.471Z</time></trkpt><trkpt lat="46.1176762" lon="13.5368938"><ele>259.0</ele><time>2026-05-02T07:41:33.472Z</time></trkpt><trkpt lat="46.1176053" lon="13.536799"><ele>259.0</ele><time>2026-05-02T07:41:34.47Z</time></trkpt><trkpt lat="46.1175253" lon="13.5366982"><ele>259.0</ele><time>2026-05-02T07:41:35.469Z</time></trkpt><trkpt lat="46.1174352" lon="13.5366333"><ele>259.0</ele><time>2026-05-02T07:41:36.472Z</time></trkpt><trkpt lat="46.1173378" lon="13.536606"><ele>259.0</ele><time>2026-05-02T07:41:37.472Z</time></trkpt><trkpt lat="46.1172333" lon="13.5366192"><ele>260.0</ele><time>2026-05-02T07:41:38.471Z</time></trkpt><trkpt lat="46.1171228" lon="13.5366747"><ele>261.0</ele><time>2026-05-02T07:41:39.468Z</time></trkpt><trkpt lat="46.1170085" lon="13.536757"><ele>262.0</ele><time>2026-05-02T07:41:40.469Z</time></trkpt><trkpt lat="46.1168928" lon="13.5368412"><ele>263.0</ele><time>2026-05-02T07:41:41.47Z</time></trkpt><trkpt lat="46.1166653" lon="13.5369678"><ele>264.2</ele><time>2026-05-02T07:41:43.468Z</time></trkpt><trkpt lat="46.1165683" lon="13.5369887"><ele>265.4</ele><time>2026-05-02T07:41:44.47Z</time></trkpt><trkpt lat="46.1165058" lon="13.5370273"><ele>266.59999999999997</ele><time>2026-05-02T07:41:45.471Z</time></trkpt><trkpt lat="46.116475" lon="13.5371772"><ele>267.8</ele><time>2026-05-02T07:41:47.474Z</time></trkpt><trkpt lat="46.1165273" lon="13.5372632"><ele>269.0</ele><time>2026-05-02T07:41:48.469Z</time></trkpt><trkpt lat="46.1166135" lon="13.5373407"><ele>271.4</ele><time>2026-05-02T07:41:49.471Z</time></trkpt><trkpt lat="46.1167252" lon="13.5374042"><ele>273.79999999999995</ele><time>2026-05-02T07:41:50.471Z</time></trkpt><trkpt lat="46.1168372" lon="13.5374515"><ele>276.20000000000005</ele><time>2026-05-02T07:41:51.47Z</time></trkpt><trkpt lat="46.1169218" lon="13.5375042"><ele>278.6</ele><time>2026-05-02T07:41:52.469Z</time></trkpt><trkpt lat="46.116969" lon="13.5375738"><ele>281.0</ele><time>2026-05-02T07:41:53.47Z</time></trkpt><trkpt lat="46.1169803" lon="13.5376672"><ele>281.0</ele><time>2026-05-02T07:41:54.47Z</time></trkpt><trkpt lat="46.1169537" lon="13.5377543"><ele>281.0</ele><time>2026-05-02T07:41:55.469Z</time></trkpt><trkpt lat="46.1169007" lon="13.5378358"><ele>281.0</ele><time>2026-05-02T07:41:56.469Z</time></trkpt><trkpt lat="46.1168273" lon="13.5379122"><ele>281.0</ele><time>2026-05-02T07:41:57.469Z</time></trkpt><trkpt lat="46.1167515" lon="13.5379655"><ele>281.0</ele><time>2026-05-02T07:41:58.469Z</time></trkpt><trkpt lat="46.116661" lon="13.5379723"><ele>281.0</ele><time>2026-05-02T07:41:59.468Z</time></trkpt><trkpt lat="46.1165602" lon="13.5379303"><ele>286.6666666666667</ele><time>2026-05-02T07:42:00.472Z</time></trkpt><trkpt lat="46.116459" lon="13.5378502"><ele>292.3333333333333</ele><time>2026-05-02T07:42:01.471Z</time></trkpt><trkpt lat="46.1163662" lon="13.5377482"><ele>298.0</ele><time>2026-05-02T07:42:02.472Z</time></trkpt><trkpt lat="46.1161847" lon="13.5375542"><ele>298.0</ele><time>2026-05-02T07:42:04.468Z</time></trkpt><trkpt lat="46.1161197" lon="13.5375143"><ele>298.0</ele><time>2026-05-02T07:42:05.469Z</time></trkpt><trkpt lat="46.1160257" lon="13.5375818"><ele>298.0</ele><time>2026-05-02T07:42:07.469Z</time></trkpt><trkpt lat="46.1160642" lon="13.5377445"><ele>298.0</ele><time>2026-05-02T07:42:09.472Z</time></trkpt><trkpt lat="46.1161248" lon="13.5378357"><ele>298.0</ele><time>2026-05-02T07:42:10.471Z</time></trkpt><trkpt lat="46.1161872" lon="13.5379523"><ele>302.75</ele><time>2026-05-02T07:42:11.472Z</time></trkpt><trkpt lat="46.1162468" lon="13.538115"><ele>307.5</ele><time>2026-05-02T07:42:12.471Z</time></trkpt><trkpt lat="46.1163047" lon="13.5383022"><ele>312.25</ele><time>2026-05-02T07:42:13.471Z</time></trkpt><trkpt lat="46.1163543" lon="13.538465"><ele>317.0</ele><time>2026-05-02T07:42:14.472Z</time></trkpt><trkpt lat="46.1163803" lon="13.5385817"><ele>321.5</ele><time>2026-05-02T07:42:15.471Z</time></trkpt><trkpt lat="46.1163915" lon="13.5387213"><ele>326.0</ele><time>2026-05-02T07:42:17.468Z</time></trkpt><trkpt lat="46.1163597" lon="13.5388182"><ele>330.5</ele><time>2026-05-02T07:42:32.469Z</time></trkpt><trkpt lat="46.116407" lon="13.539122"><ele>335.0</ele><time>2026-05-02T07:42:36.472Z</time></trkpt><trkpt lat="46.1164262" lon="13.5392262"><ele>335.0</ele><time>2026-05-02T07:42:37.475Z</time></trkpt><trkpt lat="46.1164363" lon="13.5393512"><ele>335.0</ele><time>2026-05-02T07:42:38.471Z</time></trkpt><trkpt lat="46.1164612" lon="13.5394782"><ele>335.0</ele><time>2026-05-02T07:42:39.468Z</time></trkpt><trkpt lat="46.1164788" lon="13.5396243"><ele>335.0</ele><time>2026-05-02T07:42:40.47Z</time></trkpt><trkpt lat="46.1164975" lon="13.5397717"><ele>335.0</ele><time>2026-05-02T07:42:41.47Z</time></trkpt><trkpt lat="46.1165105" lon="13.539915"><ele>336.6666666666667</ele><time>2026-05-02T07:42:42.471Z</time></trkpt><trkpt lat="46.116517" lon="13.5400507"><ele>338.33333333333337</ele><time>2026-05-02T07:42:43.469Z</time></trkpt><trkpt lat="46.1165215" lon="13.5401805"><ele>340.0</ele><time>2026-05-02T07:42:44.471Z</time></trkpt><trkpt lat="46.1165213" lon="13.5403023"><ele>341.6666666666667</ele><time>2026-05-02T07:42:45.472Z</time></trkpt><trkpt lat="46.1165103" lon="13.5404297"><ele>343.3333333333333</ele><time>2026-05-02T07:42:46.471Z</time></trkpt><trkpt lat="46.1164978" lon="13.5405552"><ele>345.0</ele><time>2026-05-02T07:42:47.468Z</time></trkpt><trkpt lat="46.1164763" lon="13.54068"><ele>346.6</ele><time>2026-05-02T07:42:48.469Z</time></trkpt><trkpt lat="46.1164657" lon="13.5408202"><ele>348.2</ele><time>2026-05-02T07:42:49.468Z</time></trkpt><trkpt lat="46.1164397" lon="13.540976"><ele>349.79999999999995</ele><time>2026-05-02T07:42:50.471Z</time></trkpt><trkpt lat="46.1164275" lon="13.5411303"><ele>351.4</ele><time>2026-05-02T07:42:51.47Z</time></trkpt><trkpt lat="46.1164198" lon="13.5412618"><ele>353.0</ele><time>2026-05-02T07:42:52.47Z</time></trkpt><trkpt lat="46.1164085" lon="13.5413962"><ele>354.0</ele><time>2026-05-02T07:42:53.466Z</time></trkpt><trkpt lat="46.11636" lon="13.5416658"><ele>355.0</ele><time>2026-05-02T07:42:55.466Z</time></trkpt><trkpt lat="46.1163262" lon="13.5418062"><ele>356.0</ele><time>2026-05-02T07:42:56.467Z</time></trkpt><trkpt lat="46.1163017" lon="13.541944"><ele>357.0</ele><time>2026-05-02T07:42:57.471Z</time></trkpt><trkpt lat="46.1162727" lon="13.5420788"><ele>355.40000000000003</ele><time>2026-05-02T07:42:58.469Z</time></trkpt><trkpt lat="46.1162305" lon="13.5422157"><ele>353.8</ele><time>2026-05-02T07:42:59.468Z</time></trkpt><trkpt lat="46.1161878" lon="13.5423545"><ele>352.2</ele><time>2026-05-02T07:43:00.471Z</time></trkpt><trkpt lat="46.1161388" lon="13.542487"><ele>350.6</ele><time>2026-05-02T07:43:01.471Z</time></trkpt><trkpt lat="46.116076" lon="13.5426195"><ele>349.0</ele><time>2026-05-02T07:43:02.471Z</time></trkpt><trkpt lat="46.1160375" lon="13.542745"><ele>346.4</ele><time>2026-05-02T07:43:03.471Z</time></trkpt><trkpt lat="46.1159848" lon="13.5428857"><ele>343.79999999999995</ele><time>2026-05-02T07:43:04.471Z</time></trkpt><trkpt lat="46.1159402" lon="13.5430262"><ele>341.20000000000005</ele><time>2026-05-02T07:43:05.472Z</time></trkpt><trkpt lat="46.1158973" lon="13.5431535"><ele>338.6</ele><time>2026-05-02T07:43:06.471Z</time></trkpt><trkpt lat="46.1158618" lon="13.5432832"><ele>336.0</ele><time>2026-05-02T07:43:07.472Z</time></trkpt><trkpt lat="46.1158275" lon="13.5434042"><ele>336.0</ele><time>2026-05-02T07:43:08.472Z</time></trkpt><trkpt lat="46.115792" lon="13.5435037"><ele>336.0</ele><time>2026-05-02T07:43:09.471Z</time></trkpt><trkpt lat="46.1157417" lon="13.5436505"><ele>336.0</ele><time>2026-05-02T07:43:11.468Z</time></trkpt><trkpt lat="46.1157238" lon="13.543744"><ele>336.0</ele><time>2026-05-02T07:43:13.467Z</time></trkpt><trkpt lat="46.1157733" lon="13.5438315"><ele>336.0</ele><time>2026-05-02T07:43:15.467Z</time></trkpt><trkpt lat="46.1158952" lon="13.5439232"><ele>335.6666666666667</ele><time>2026-05-02T07:43:17.469Z</time></trkpt><trkpt lat="46.1159702" lon="13.5439605"><ele>335.3333333333333</ele><time>2026-05-02T07:43:18.469Z</time></trkpt><trkpt lat="46.1160458" lon="13.5439865"><ele>335.0</ele><time>2026-05-02T07:43:19.468Z</time></trkpt><trkpt lat="46.1161248" lon="13.5440105"><ele>334.66666666666663</ele><time>2026-05-02T07:43:20.467Z</time></trkpt><trkpt lat="46.1162112" lon="13.5440385"><ele>334.3333333333333</ele><time>2026-05-02T07:43:21.465Z</time></trkpt><trkpt lat="46.116296" lon="13.5440557"><ele>334.0</ele><time>2026-05-02T07:43:22.468Z</time></trkpt><trkpt lat="46.116382" lon="13.544091"><ele>334.0</ele><time>2026-05-02T07:43:23.467Z</time></trkpt><trkpt lat="46.1164587" lon="13.5441117"><ele>334.0</ele><time>2026-05-02T07:43:24.468Z</time></trkpt><trkpt lat="46.1165282" lon="13.544131"><ele>334.0</ele><time>2026-05-02T07:43:25.468Z</time></trkpt><trkpt lat="46.116588" lon="13.5441747"><ele>334.0</ele><time>2026-05-02T07:43:26.469Z</time></trkpt><trkpt lat="46.1166343" lon="13.5442437"><ele>334.0</ele><time>2026-05-02T07:43:27.469Z</time></trkpt><trkpt lat="46.1166778" lon="13.5443178"><ele>334.0</ele><time>2026-05-02T07:43:28.469Z</time></trkpt><trkpt lat="46.1167152" lon="13.5443923"><ele>334.0</ele><time>2026-05-02T07:43:29.469Z</time></trkpt><trkpt lat="46.1167505" lon="13.544507"><ele>334.0</ele><time>2026-05-02T07:43:30.468Z</time></trkpt><trkpt lat="46.1167902" lon="13.5446382"><ele>334.0</ele><time>2026-05-02T07:43:31.469Z</time></trkpt><trkpt lat="46.1168265" lon="13.5447855"><ele>334.0</ele><time>2026-05-02T07:43:32.469Z</time></trkpt><trkpt lat="46.1168655" lon="13.5449297"><ele>334.0</ele><time>2026-05-02T07:43:33.47Z</time></trkpt><trkpt lat="46.116904" lon="13.5450745"><ele>334.0</ele><time>2026-05-02T07:43:34.467Z</time></trkpt><trkpt lat="46.116954" lon="13.5452288"><ele>342.0</ele><time>2026-05-02T07:43:35.466Z</time></trkpt><trkpt lat="46.1170123" lon="13.5453827"><ele>350.0</ele><time>2026-05-02T07:43:36.468Z</time></trkpt><trkpt lat="46.1171365" lon="13.5456677"><ele>358.0</ele><time>2026-05-02T07:43:38.468Z</time></trkpt><trkpt lat="46.1172005" lon="13.5458098"><ele>358.0</ele><time>2026-05-02T07:43:39.467Z</time></trkpt><trkpt lat="46.117273" lon="13.5459532"><ele>358.0</ele><time>2026-05-02T07:43:40.469Z</time></trkpt><trkpt lat="46.1173393" lon="13.5460778"><ele>358.0</ele><time>2026-05-02T07:43:41.47Z</time></trkpt><trkpt lat="46.1173983" lon="13.5461902"><ele>358.0</ele><time>2026-05-02T07:43:42.469Z</time></trkpt><trkpt lat="46.1174498" lon="13.5463015"><ele>358.0</ele><time>2026-05-02T07:43:43.468Z</time></trkpt><trkpt lat="46.1174925" lon="13.546414"><ele>354.2</ele><time>2026-05-02T07:43:44.465Z</time></trkpt><trkpt lat="46.1175133" lon="13.5465132"><ele>350.4</ele><time>2026-05-02T07:43:45.469Z</time></trkpt><trkpt lat="46.1175432" lon="13.546652"><ele>346.59999999999997</ele><time>2026-05-02T07:43:46.47Z</time></trkpt><trkpt lat="46.1175622" lon="13.546801"><ele>342.79999999999995</ele><time>2026-05-02T07:43:47.47Z</time></trkpt><trkpt lat="46.1175755" lon="13.546944"><ele>339.0</ele><time>2026-05-02T07:43:48.467Z</time></trkpt><trkpt lat="46.1175837" lon="13.547064"><ele>339.0</ele><time>2026-05-02T07:43:49.47Z</time></trkpt><trkpt lat="46.117594" lon="13.547161"><ele>339.0</ele><time>2026-05-02T07:43:50.47Z</time></trkpt><trkpt lat="46.1176023" lon="13.5472597"><ele>339.0</ele><time>2026-05-02T07:43:51.47Z</time></trkpt><trkpt lat="46.1176115" lon="13.5473695"><ele>339.0</ele><time>2026-05-02T07:43:52.467Z</time></trkpt><trkpt lat="46.1176165" lon="13.5475005"><ele>339.0</ele><time>2026-05-02T07:43:53.469Z</time></trkpt><trkpt lat="46.117608" lon="13.5476385"><ele>339.0</ele><time>2026-05-02T07:43:54.467Z</time></trkpt><trkpt lat="46.1175903" lon="13.5477773"><ele>337.5</ele><time>2026-05-02T07:43:55.469Z</time></trkpt><trkpt lat="46.1175822" lon="13.5479127"><ele>336.0</ele><time>2026-05-02T07:43:56.467Z</time></trkpt><trkpt lat="46.1175735" lon="13.548059"><ele>334.5</ele><time>2026-05-02T07:43:57.469Z</time></trkpt><trkpt lat="46.1175233" lon="13.5483158"><ele>333.0</ele><time>2026-05-02T07:43:59.471Z</time></trkpt><trkpt lat="46.1174785" lon="13.5484432"><ele>333.0</ele><time>2026-05-02T07:44:00.471Z</time></trkpt><trkpt lat="46.117426" lon="13.548562"><ele>333.0</ele><time>2026-05-02T07:44:01.468Z</time></trkpt><trkpt lat="46.117376" lon="13.5486798"><ele>333.0</ele><time>2026-05-02T07:44:02.47Z</time></trkpt><trkpt lat="46.1173222" lon="13.5488087"><ele>333.0</ele><time>2026-05-02T07:44:03.47Z</time></trkpt><trkpt lat="46.117281" lon="13.5489313"><ele>333.0</ele><time>2026-05-02T07:44:04.469Z</time></trkpt><trkpt lat="46.1172273" lon="13.5490513"><ele>340.0</ele><time>2026-05-02T07:44:05.468Z</time></trkpt><trkpt lat="46.1171988" lon="13.5491743"><ele>347.0</ele><time>2026-05-02T07:44:06.468Z</time></trkpt><trkpt lat="46.1171767" lon="13.5492975"><ele>354.0</ele><time>2026-05-02T07:44:07.466Z</time></trkpt><trkpt lat="46.1171532" lon="13.5494203"><ele>361.0</ele><time>2026-05-02T07:44:08.467Z</time></trkpt><trkpt lat="46.1171408" lon="13.5495502"><ele>368.0</ele><time>2026-05-02T07:44:09.467Z</time></trkpt><trkpt lat="46.117122" lon="13.5496852"><ele>368.0</ele><time>2026-05-02T07:44:10.466Z</time></trkpt><trkpt lat="46.1170938" lon="13.5498168"><ele>368.0</ele><time>2026-05-02T07:44:11.466Z</time></trkpt><trkpt lat="46.117061" lon="13.5499467"><ele>368.0</ele><time>2026-05-02T07:44:12.466Z</time></trkpt><trkpt lat="46.1170273" lon="13.5500585"><ele>368.0</ele><time>2026-05-02T07:44:13.466Z</time></trkpt><trkpt lat="46.1170028" lon="13.5501762"><ele>368.0</ele><time>2026-05-02T07:44:14.465Z</time></trkpt><trkpt lat="46.1169653" lon="13.5502927"><ele>365.4</ele><time>2026-05-02T07:44:15.469Z</time></trkpt><trkpt lat="46.1169135" lon="13.550404"><ele>362.79999999999995</ele><time>2026-05-02T07:44:16.468Z</time></trkpt><trkpt lat="46.1168598" lon="13.5505095"><ele>360.2</ele><time>2026-05-02T07:44:17.469Z</time></trkpt><trkpt lat="46.116817" lon="13.5506055"><ele>357.6</ele><time>2026-05-02T07:44:18.467Z</time></trkpt><trkpt lat="46.1167302" lon="13.5507838"><ele>355.0</ele><time>2026-05-02T07:44:20.467Z</time></trkpt><trkpt lat="46.1167142" lon="13.5509128"><ele>355.0</ele><time>2026-05-02T07:44:22.468Z</time></trkpt><trkpt lat="46.1167797" lon="13.5509713"><ele>355.0</ele><time>2026-05-02T07:44:24.469Z</time></trkpt><trkpt lat="46.11688" lon="13.5509397"><ele>355.0</ele><time>2026-05-02T07:44:26.466Z</time></trkpt><trkpt lat="46.1169835" lon="13.550833"><ele>355.0</ele><time>2026-05-02T07:44:28.47Z</time></trkpt><trkpt lat="46.1170375" lon="13.5507622"><ele>355.0</ele><time>2026-05-02T07:44:29.47Z</time></trkpt><trkpt lat="46.1170993" lon="13.550696"><ele>355.0</ele><time>2026-05-02T07:44:30.47Z</time></trkpt><trkpt lat="46.1171755" lon="13.550642"><ele>355.0</ele><time>2026-05-02T07:44:31.469Z</time></trkpt><trkpt lat="46.1172503" lon="13.5505895"><ele>355.0</ele><time>2026-05-02T07:44:32.468Z</time></trkpt><trkpt lat="46.1173283" lon="13.5505395"><ele>355.0</ele><time>2026-05-02T07:44:33.468Z</time></trkpt><trkpt lat="46.1173925" lon="13.5504858"><ele>355.0</ele><time>2026-05-02T07:44:34.467Z</time></trkpt><trkpt lat="46.117452" lon="13.5504265"><ele>355.0</ele><time>2026-05-02T07:44:35.467Z</time></trkpt><trkpt lat="46.1175033" lon="13.5503627"><ele>347.0</ele><time>2026-05-02T07:44:36.468Z</time></trkpt><trkpt lat="46.1175788" lon="13.5502575"><ele>339.0</ele><time>2026-05-02T07:44:38.47Z</time></trkpt><trkpt lat="46.1176938" lon="13.5502167"><ele>331.0</ele><time>2026-05-02T07:44:40.468Z</time></trkpt><trkpt lat="46.117831" lon="13.5502133"><ele>323.0</ele><time>2026-05-02T07:44:42.468Z</time></trkpt><trkpt lat="46.1179145" lon="13.5502278"><ele>315.0</ele><time>2026-05-02T07:44:43.468Z</time></trkpt><trkpt lat="46.1179952" lon="13.55023"><ele>315.0</ele><time>2026-05-02T07:44:44.468Z</time></trkpt><trkpt lat="46.1180773" lon="13.5502312"><ele>315.0</ele><time>2026-05-02T07:44:45.466Z</time></trkpt><trkpt lat="46.1181575" lon="13.5502233"><ele>315.0</ele><time>2026-05-02T07:44:46.468Z</time></trkpt><trkpt lat="46.1182395" lon="13.5502197"><ele>315.0</ele><time>2026-05-02T07:44:47.47Z</time></trkpt><trkpt lat="46.1183138" lon="13.5502245"><ele>315.0</ele><time>2026-05-02T07:44:48.469Z</time></trkpt><trkpt lat="46.1184022" lon="13.5502362"><ele>315.0</ele><time>2026-05-02T07:44:49.469Z</time></trkpt><trkpt lat="46.1184843" lon="13.5502348"><ele>313.0</ele><time>2026-05-02T07:44:50.469Z</time></trkpt><trkpt lat="46.1185605" lon="13.5502175"><ele>311.0</ele><time>2026-05-02T07:44:51.47Z</time></trkpt><trkpt lat="46.1186315" lon="13.5501962"><ele>309.0</ele><time>2026-05-02T07:44:52.47Z</time></trkpt><trkpt lat="46.1187043" lon="13.5502077"><ele>307.0</ele><time>2026-05-02T07:44:53.469Z</time></trkpt><trkpt lat="46.118808" lon="13.5502372"><ele>305.0</ele><time>2026-05-02T07:44:55.466Z</time></trkpt><trkpt lat="46.1189117" lon="13.5503348"><ele>308.4</ele><time>2026-05-02T07:44:57.469Z</time></trkpt><trkpt lat="46.1189707" lon="13.5503985"><ele>311.8</ele><time>2026-05-02T07:44:58.468Z</time></trkpt><trkpt lat="46.1190388" lon="13.5504653"><ele>315.20000000000005</ele><time>2026-05-02T07:44:59.469Z</time></trkpt><trkpt lat="46.1191023" lon="13.550531"><ele>318.6</ele><time>2026-05-02T07:45:00.469Z</time></trkpt><trkpt lat="46.1191717" lon="13.5505943"><ele>322.0</ele><time>2026-05-02T07:45:01.467Z</time></trkpt><trkpt lat="46.1193013" lon="13.5506755"><ele>322.0</ele><time>2026-05-02T07:45:03.468Z</time></trkpt><trkpt lat="46.1193703" lon="13.5507437"><ele>322.0</ele><time>2026-05-02T07:45:04.47Z</time></trkpt><trkpt lat="46.1194447" lon="13.5508058"><ele>322.0</ele><time>2026-05-02T07:45:05.469Z</time></trkpt><trkpt lat="46.1195208" lon="13.5508747"><ele>322.0</ele><time>2026-05-02T07:45:06.47Z</time></trkpt><trkpt lat="46.1195902" lon="13.5509387"><ele>322.0</ele><time>2026-05-02T07:45:07.469Z</time></trkpt><trkpt lat="46.1196503" lon="13.5510015"><ele>322.0</ele><time>2026-05-02T07:45:08.467Z</time></trkpt><trkpt lat="46.1197568" lon="13.551075"><ele>322.0</ele><time>2026-05-02T07:45:10.47Z</time></trkpt><trkpt lat="46.1198793" lon="13.5510775"><ele>322.0</ele><time>2026-05-02T07:45:12.468Z</time></trkpt><trkpt lat="46.1199555" lon="13.5510917"><ele>322.0</ele><time>2026-05-02T07:45:13.469Z</time></trkpt><trkpt lat="46.120035" lon="13.5510792"><ele>322.0</ele><time>2026-05-02T07:45:14.468Z</time></trkpt><trkpt lat="46.1201168" lon="13.5510703"><ele>322.0</ele><time>2026-05-02T07:45:15.469Z</time></trkpt><trkpt lat="46.1201902" lon="13.5510855"><ele>322.0</ele><time>2026-05-02T07:45:16.469Z</time></trkpt><trkpt lat="46.1202555" lon="13.551114"><ele>323.0</ele><time>2026-05-02T07:45:17.47Z</time></trkpt><trkpt lat="46.1203148" lon="13.5511545"><ele>324.0</ele><time>2026-05-02T07:45:18.469Z</time></trkpt><trkpt lat="46.120376" lon="13.5512152"><ele>325.0</ele><time>2026-05-02T07:45:19.471Z</time></trkpt><trkpt lat="46.1204373" lon="13.5512993"><ele>326.0</ele><time>2026-05-02T07:45:20.468Z</time></trkpt><trkpt lat="46.1204923" lon="13.5513812"><ele>327.0</ele><time>2026-05-02T07:45:21.468Z</time></trkpt><trkpt lat="46.120546" lon="13.5514677"><ele>328.0</ele><time>2026-05-02T07:45:22.468Z</time></trkpt><trkpt lat="46.1206253" lon="13.5516355"><ele>328.0</ele><time>2026-05-02T07:45:24.467Z</time></trkpt><trkpt lat="46.1206577" lon="13.5518028"><ele>328.0</ele><time>2026-05-02T07:45:26.469Z</time></trkpt><trkpt lat="46.120664" lon="13.5519173"><ele>328.0</ele><time>2026-05-02T07:45:27.471Z</time></trkpt><trkpt lat="46.1206653" lon="13.5520463"><ele>328.0</ele><time>2026-05-02T07:45:28.469Z</time></trkpt><trkpt lat="46.1206625" lon="13.5521742"><ele>328.0</ele><time>2026-05-02T07:45:29.467Z</time></trkpt><trkpt lat="46.1206767" lon="13.5523222"><ele>333.0</ele><time>2026-05-02T07:45:30.467Z</time></trkpt><trkpt lat="46.1206988" lon="13.5524793"><ele>338.0</ele><time>2026-05-02T07:45:31.468Z</time></trkpt><trkpt lat="46.1207067" lon="13.5526357"><ele>343.0</ele><time>2026-05-02T07:45:32.468Z</time></trkpt><trkpt lat="46.1207185" lon="13.5527808"><ele>348.0</ele><time>2026-05-02T07:45:33.469Z</time></trkpt><trkpt lat="46.1207242" lon="13.5529072"><ele>353.0</ele><time>2026-05-02T07:45:34.468Z</time></trkpt><trkpt lat="46.120731" lon="13.553026"><ele>346.0</ele><time>2026-05-02T07:45:35.469Z</time></trkpt><trkpt lat="46.1207355" lon="13.5531315"><ele>339.0</ele><time>2026-05-02T07:45:36.471Z</time></trkpt><trkpt lat="46.1207532" lon="13.5532298"><ele>332.0</ele><time>2026-05-02T07:45:37.47Z</time></trkpt><trkpt lat="46.1208173" lon="13.553388"><ele>325.0</ele><time>2026-05-02T07:45:39.468Z</time></trkpt><trkpt lat="46.1209018" lon="13.5535353"><ele>318.0</ele><time>2026-05-02T07:45:41.471Z</time></trkpt><trkpt lat="46.1209243" lon="13.5537012"><ele>317.6</ele><time>2026-05-02T07:45:43.47Z</time></trkpt><trkpt lat="46.1209097" lon="13.5539097"><ele>317.20000000000005</ele><time>2026-05-02T07:45:45.466Z</time></trkpt><trkpt lat="46.1208905" lon="13.5540222"><ele>316.8</ele><time>2026-05-02T07:45:46.467Z</time></trkpt><trkpt lat="46.1208525" lon="13.55414"><ele>316.40000000000003</ele><time>2026-05-02T07:45:47.466Z</time></trkpt><trkpt lat="46.1208197" lon="13.5542582"><ele>316.0</ele><time>2026-05-02T07:45:48.466Z</time></trkpt><trkpt lat="46.1207927" lon="13.5543802"><ele>316.0</ele><time>2026-05-02T07:45:49.467Z</time></trkpt><trkpt lat="46.1207667" lon="13.5545237"><ele>316.0</ele><time>2026-05-02T07:45:50.467Z</time></trkpt><trkpt lat="46.1207412" lon="13.5546768"><ele>316.0</ele><time>2026-05-02T07:45:51.468Z</time></trkpt><trkpt lat="46.1207198" lon="13.5548215"><ele>316.0</ele><time>2026-05-02T07:45:52.467Z</time></trkpt><trkpt lat="46.12069" lon="13.5549625"><ele>316.0</ele><time>2026-05-02T07:45:53.469Z</time></trkpt><trkpt lat="46.1206607" lon="13.5551008"><ele>316.5</ele><time>2026-05-02T07:45:54.469Z</time></trkpt><trkpt lat="46.1206405" lon="13.5552295"><ele>317.0</ele><time>2026-05-02T07:45:55.47Z</time></trkpt><trkpt lat="46.120613" lon="13.5553423"><ele>317.5</ele><time>2026-05-02T07:45:56.468Z</time></trkpt><trkpt lat="46.1205735" lon="13.555451"><ele>318.0</ele><time>2026-05-02T07:45:57.467Z</time></trkpt><trkpt lat="46.1205295" lon="13.5555585"><ele>318.5</ele><time>2026-05-02T07:45:58.468Z</time></trkpt><trkpt lat="46.1204813" lon="13.5556787"><ele>319.0</ele><time>2026-05-02T07:45:59.469Z</time></trkpt><trkpt lat="46.120438" lon="13.555798"><ele>319.0</ele><time>2026-05-02T07:46:00.469Z</time></trkpt><trkpt lat="46.1203967" lon="13.5559062"><ele>319.0</ele><time>2026-05-02T07:46:01.47Z</time></trkpt><trkpt lat="46.1203583" lon="13.5560187"><ele>319.0</ele><time>2026-05-02T07:46:02.468Z</time></trkpt><trkpt lat="46.1203253" lon="13.5561282"><ele>319.0</ele><time>2026-05-02T07:46:03.468Z</time></trkpt><trkpt lat="46.1202962" lon="13.5562218"><ele>319.0</ele><time>2026-05-02T07:46:04.468Z</time></trkpt><trkpt lat="46.1202325" lon="13.5564232"><ele>321.3333333333333</ele><time>2026-05-02T07:46:08.471Z</time></trkpt><trkpt lat="46.1201975" lon="13.5565292"><ele>323.66666666666663</ele><time>2026-05-02T07:46:10.469Z</time></trkpt><trkpt lat="46.1201402" lon="13.5566432"><ele>326.0</ele><time>2026-05-02T07:46:12.467Z</time></trkpt><trkpt lat="46.1200638" lon="13.5567552"><ele>328.3333333333333</ele><time>2026-05-02T07:46:14.471Z</time></trkpt><trkpt lat="46.1200127" lon="13.5568312"><ele>330.6666666666667</ele><time>2026-05-02T07:46:15.471Z</time></trkpt><trkpt lat="46.1199515" lon="13.556909"><ele>333.0</ele><time>2026-05-02T07:46:16.469Z</time></trkpt><trkpt lat="46.1198885" lon="13.5569962"><ele>330.5</ele><time>2026-05-02T07:46:17.47Z</time></trkpt><trkpt lat="46.119832" lon="13.5570698"><ele>328.0</ele><time>2026-05-02T07:46:18.471Z</time></trkpt><trkpt lat="46.1197758" lon="13.5571368"><ele>325.5</ele><time>2026-05-02T07:46:19.471Z</time></trkpt><trkpt lat="46.119727" lon="13.5571955"><ele>323.0</ele><time>2026-05-02T07:46:20.47Z</time></trkpt><trkpt lat="46.119653" lon="13.557323"><ele>320.5</ele><time>2026-05-02T07:46:22.47Z</time></trkpt><trkpt lat="46.1195983" lon="13.5574533"><ele>318.0</ele><time>2026-05-02T07:46:24.471Z</time></trkpt><trkpt lat="46.1195548" lon="13.5575967"><ele>318.0</ele><time>2026-05-02T07:46:26.466Z</time></trkpt><trkpt lat="46.1195752" lon="13.5578382"><ele>318.0</ele><time>2026-05-02T07:46:30.469Z</time></trkpt><trkpt lat="46.1196802" lon="13.5578952"><ele>318.0</ele><time>2026-05-02T07:46:32.466Z</time></trkpt><trkpt lat="46.119801" lon="13.5579058"><ele>318.0</ele><time>2026-05-02T07:46:34.465Z</time></trkpt><trkpt lat="46.1199197" lon="13.5579005"><ele>313.4</ele><time>2026-05-02T07:46:36.466Z</time></trkpt><trkpt lat="46.1200367" lon="13.5579145"><ele>308.8</ele><time>2026-05-02T07:46:38.468Z</time></trkpt><trkpt lat="46.1201553" lon="13.5579605"><ele>304.2</ele><time>2026-05-02T07:46:40.467Z</time></trkpt><trkpt lat="46.1202127" lon="13.5579983"><ele>299.6</ele><time>2026-05-02T07:46:41.467Z</time></trkpt><trkpt lat="46.1203202" lon="13.5581017"><ele>295.0</ele><time>2026-05-02T07:46:43.471Z</time></trkpt><trkpt lat="46.1203755" lon="13.558164"><ele>295.0</ele><time>2026-05-02T07:46:44.47Z</time></trkpt><trkpt lat="46.1204292" lon="13.558219"><ele>295.0</ele><time>2026-05-02T07:46:45.47Z</time></trkpt><trkpt lat="46.1204773" lon="13.5582777"><ele>295.0</ele><time>2026-05-02T07:46:46.47Z</time></trkpt><trkpt lat="46.1205407" lon="13.5583832"><ele>295.0</ele><time>2026-05-02T07:46:48.47Z</time></trkpt><trkpt lat="46.1206523" lon="13.5585747"><ele>295.0</ele><time>2026-05-02T07:46:52.467Z</time></trkpt><trkpt lat="46.1207497" lon="13.558553"><ele>292.00000000000006</ele><time>2026-05-02T07:46:54.469Z</time></trkpt><trkpt lat="46.120815" lon="13.5585373"><ele>289.0</ele><time>2026-05-02T07:46:55.469Z</time></trkpt><trkpt lat="46.1208818" lon="13.5585325"><ele>286.0</ele><time>2026-05-02T07:46:56.47Z</time></trkpt><trkpt lat="46.120948" lon="13.558534"><ele>283.0</ele><time>2026-05-02T07:46:57.47Z</time></trkpt><trkpt lat="46.1210253" lon="13.5585558"><ele>280.0</ele><time>2026-05-02T07:46:58.465Z</time></trkpt><trkpt lat="46.1211048" lon="13.5585717"><ele>277.00000000000006</ele><time>2026-05-02T07:46:59.465Z</time></trkpt><trkpt lat="46.121181" lon="13.5585725"><ele>274.0</ele><time>2026-05-02T07:47:00.466Z</time></trkpt><trkpt lat="46.1212617" lon="13.5585818"><ele>274.0</ele><time>2026-05-02T07:47:01.468Z</time></trkpt><trkpt lat="46.121338" lon="13.5586058"><ele>274.0</ele><time>2026-05-02T07:47:02.469Z</time></trkpt><trkpt lat="46.1214128" lon="13.5586362"><ele>274.0</ele><time>2026-05-02T07:47:03.47Z</time></trkpt><trkpt lat="46.121477" lon="13.5586753"><ele>274.0</ele><time>2026-05-02T07:47:04.468Z</time></trkpt><trkpt lat="46.1215513" lon="13.5587575"><ele>274.0</ele><time>2026-05-02T07:47:06.468Z</time></trkpt><trkpt lat="46.1216023" lon="13.5589142"><ele>274.0</ele><time>2026-05-02T07:47:08.471Z</time></trkpt><trkpt lat="46.121632" lon="13.5590282"><ele>277.4</ele><time>2026-05-02T07:47:09.471Z</time></trkpt><trkpt lat="46.1216857" lon="13.5592708"><ele>280.79999999999995</ele><time>2026-05-02T07:47:11.471Z</time></trkpt><trkpt lat="46.1217002" lon="13.5594105"><ele>284.20000000000005</ele><time>2026-05-02T07:47:12.469Z</time></trkpt><trkpt lat="46.1217137" lon="13.5595427"><ele>287.6</ele><time>2026-05-02T07:47:13.469Z</time></trkpt><trkpt lat="46.121725" lon="13.5596525"><ele>291.0</ele><time>2026-05-02T07:47:14.469Z</time></trkpt><trkpt lat="46.1217418" lon="13.5597642"><ele>293.6</ele><time>2026-05-02T07:47:15.469Z</time></trkpt><trkpt lat="46.121769" lon="13.5598793"><ele>296.20000000000005</ele><time>2026-05-02T07:47:16.469Z</time></trkpt><trkpt lat="46.1218033" lon="13.5600007"><ele>298.79999999999995</ele><time>2026-05-02T07:47:17.469Z</time></trkpt><trkpt lat="46.1218347" lon="13.5601062"><ele>301.4</ele><time>2026-05-02T07:47:18.472Z</time></trkpt><trkpt lat="46.12186" lon="13.5601965"><ele>304.0</ele><time>2026-05-02T07:47:19.471Z</time></trkpt><trkpt lat="46.1219398" lon="13.5603475"><ele>306.16666666666663</ele><time>2026-05-02T07:47:21.471Z</time></trkpt><trkpt lat="46.1219923" lon="13.5604298"><ele>308.3333333333333</ele><time>2026-05-02T07:47:22.47Z</time></trkpt><trkpt lat="46.1220395" lon="13.5605222"><ele>310.5</ele><time>2026-05-02T07:47:23.469Z</time></trkpt><trkpt lat="46.1220742" lon="13.5606137"><ele>312.6666666666667</ele><time>2026-05-02T07:47:24.469Z</time></trkpt><trkpt lat="46.1221025" lon="13.5607073"><ele>314.83333333333337</ele><time>2026-05-02T07:47:25.47Z</time></trkpt><trkpt lat="46.1221177" lon="13.5608183"><ele>317.0</ele><time>2026-05-02T07:47:26.468Z</time></trkpt><trkpt lat="46.1221237" lon="13.5609383"><ele>317.0</ele><time>2026-05-02T07:47:27.469Z</time></trkpt><trkpt lat="46.1221282" lon="13.561061"><ele>317.0</ele><time>2026-05-02T07:47:28.469Z</time></trkpt><trkpt lat="46.1221465" lon="13.5611768"><ele>317.0</ele><time>2026-05-02T07:47:29.47Z</time></trkpt><trkpt lat="46.1221695" lon="13.5612812"><ele>317.0</ele><time>2026-05-02T07:47:30.47Z</time></trkpt><trkpt lat="46.122223" lon="13.5614717"><ele>317.0</ele><time>2026-05-02T07:47:32.471Z</time></trkpt><trkpt lat="46.1222627" lon="13.5615612"><ele>314.83333333333337</ele><time>2026-05-02T07:47:33.47Z</time></trkpt><trkpt lat="46.12231" lon="13.5616522"><ele>312.6666666666667</ele><time>2026-05-02T07:47:34.47Z</time></trkpt><trkpt lat="46.1223547" lon="13.5617245"><ele>310.5</ele><time>2026-05-02T07:47:35.47Z</time></trkpt><trkpt lat="46.1224098" lon="13.5618108"><ele>308.3333333333333</ele><time>2026-05-02T07:47:36.469Z</time></trkpt><trkpt lat="46.122461" lon="13.5618873"><ele>306.16666666666663</ele><time>2026-05-02T07:47:37.469Z</time></trkpt><trkpt lat="46.1225118" lon="13.5619547"><ele>304.0</ele><time>2026-05-02T07:47:38.469Z</time></trkpt><trkpt lat="46.122582" lon="13.5620592"><ele>304.0</ele><time>2026-05-02T07:47:40.471Z</time></trkpt><trkpt lat="46.122657" lon="13.562162"><ele>304.0</ele><time>2026-05-02T07:47:42.472Z</time></trkpt><trkpt lat="46.1227318" lon="13.5623028"><ele>304.0</ele><time>2026-05-02T07:47:44.47Z</time></trkpt><trkpt lat="46.1227678" lon="13.5623952"><ele>304.0</ele><time>2026-05-02T07:47:45.47Z</time></trkpt><trkpt lat="46.1228077" lon="13.5624887"><ele>304.0</ele><time>2026-05-02T07:47:46.469Z</time></trkpt><trkpt lat="46.1228535" lon="13.5625753"><ele>304.0</ele><time>2026-05-02T07:47:47.469Z</time></trkpt><trkpt lat="46.1229138" lon="13.562636"><ele>304.0</ele><time>2026-05-02T07:47:48.467Z</time></trkpt><trkpt lat="46.1229843" lon="13.5626908"><ele>304.0</ele><time>2026-05-02T07:47:49.47Z</time></trkpt><trkpt lat="46.1230607" lon="13.5627288"><ele>304.0</ele><time>2026-05-02T07:47:50.47Z</time></trkpt><trkpt lat="46.1231458" lon="13.5627563"><ele>304.0</ele><time>2026-05-02T07:47:51.471Z</time></trkpt><trkpt lat="46.1233177" lon="13.5627697"><ele>303.0</ele><time>2026-05-02T07:47:53.475Z</time></trkpt><trkpt lat="46.1233868" lon="13.5627675"><ele>302.0</ele><time>2026-05-02T07:47:54.472Z</time></trkpt><trkpt lat="46.1234575" lon="13.5627742"><ele>301.0</ele><time>2026-05-02T07:47:55.472Z</time></trkpt><trkpt lat="46.123527" lon="13.5627927"><ele>300.0</ele><time>2026-05-02T07:47:56.47Z</time></trkpt><trkpt lat="46.1236423" lon="13.5628588"><ele>299.0</ele><time>2026-05-02T07:47:58.467Z</time></trkpt><trkpt lat="46.1237078" lon="13.5629307"><ele>298.0</ele><time>2026-05-02T07:47:59.471Z</time></trkpt><trkpt lat="46.1237632" lon="13.5629972"><ele>298.0</ele><time>2026-05-02T07:48:00.47Z</time></trkpt><trkpt lat="46.1238235" lon="13.5631"><ele>298.0</ele><time>2026-05-02T07:48:02.471Z</time></trkpt><trkpt lat="46.1238777" lon="13.5631932"><ele>298.0</ele><time>2026-05-02T07:48:04.47Z</time></trkpt><trkpt lat="46.1239483" lon="13.563341"><ele>298.0</ele><time>2026-05-02T07:48:06.469Z</time></trkpt><trkpt lat="46.1239948" lon="13.5634303"><ele>298.0</ele><time>2026-05-02T07:48:07.468Z</time></trkpt><trkpt lat="46.124036" lon="13.5635252"><ele>297.2</ele><time>2026-05-02T07:48:08.467Z</time></trkpt><trkpt lat="46.1240723" lon="13.5636218"><ele>296.4</ele><time>2026-05-02T07:48:09.468Z</time></trkpt><trkpt lat="46.1240962" lon="13.5637258"><ele>295.59999999999997</ele><time>2026-05-02T07:48:10.47Z</time></trkpt><trkpt lat="46.1241132" lon="13.5638395"><ele>294.8</ele><time>2026-05-02T07:48:11.468Z</time></trkpt><trkpt lat="46.1241243" lon="13.5639525"><ele>294.0</ele><time>2026-05-02T07:48:12.468Z</time></trkpt><trkpt lat="46.1241338" lon="13.5641665"><ele>294.0</ele><time>2026-05-02T07:48:14.467Z</time></trkpt><trkpt lat="46.1241693" lon="13.5643365"><ele>294.0</ele><time>2026-05-02T07:48:16.468Z</time></trkpt><trkpt lat="46.1241855" lon="13.5644528"><ele>294.0</ele><time>2026-05-02T07:48:17.468Z</time></trkpt><trkpt lat="46.1242058" lon="13.5645917"><ele>294.0</ele><time>2026-05-02T07:48:18.469Z</time></trkpt><trkpt lat="46.1242145" lon="13.5647347"><ele>294.0</ele><time>2026-05-02T07:48:19.47Z</time></trkpt><trkpt lat="46.1242165" lon="13.564896"><ele>293.8</ele><time>2026-05-02T07:48:20.47Z</time></trkpt><trkpt lat="46.12422" lon="13.5650437"><ele>293.59999999999997</ele><time>2026-05-02T07:48:21.47Z</time></trkpt><trkpt lat="46.1242153" lon="13.5651992"><ele>293.4</ele><time>2026-05-02T07:48:22.468Z</time></trkpt><trkpt lat="46.1242133" lon="13.5653555"><ele>293.2</ele><time>2026-05-02T07:48:23.467Z</time></trkpt><trkpt lat="46.1241892" lon="13.5655208"><ele>293.0</ele><time>2026-05-02T07:48:24.469Z</time></trkpt><trkpt lat="46.1241625" lon="13.565686"><ele>292.8</ele><time>2026-05-02T07:48:25.47Z</time></trkpt><trkpt lat="46.124139" lon="13.5658393"><ele>292.6</ele><time>2026-05-02T07:48:26.469Z</time></trkpt><trkpt lat="46.1241185" lon="13.5659723"><ele>292.4</ele><time>2026-05-02T07:48:27.469Z</time></trkpt><trkpt lat="46.1240973" lon="13.566121"><ele>292.2</ele><time>2026-05-02T07:48:28.467Z</time></trkpt><trkpt lat="46.1240878" lon="13.5662495"><ele>292.0</ele><time>2026-05-02T07:48:29.469Z</time></trkpt><trkpt lat="46.1240962" lon="13.5663797"><ele>291.25</ele><time>2026-05-02T07:48:30.471Z</time></trkpt><trkpt lat="46.1241025" lon="13.5665095"><ele>290.5</ele><time>2026-05-02T07:48:31.471Z</time></trkpt><trkpt lat="46.1240985" lon="13.5666448"><ele>289.75</ele><time>2026-05-02T07:48:32.471Z</time></trkpt><trkpt lat="46.1240895" lon="13.5667848"><ele>289.0</ele><time>2026-05-02T07:48:33.468Z</time></trkpt><trkpt lat="46.1240505" lon="13.5670582"><ele>292.3333333333333</ele><time>2026-05-02T07:48:35.47Z</time></trkpt><trkpt lat="46.1240295" lon="13.5671708"><ele>295.66666666666663</ele><time>2026-05-02T07:48:36.469Z</time></trkpt><trkpt lat="46.1239988" lon="13.5672767"><ele>299.0</ele><time>2026-05-02T07:48:37.468Z</time></trkpt><trkpt lat="46.1239573" lon="13.567385"><ele>302.3333333333333</ele><time>2026-05-02T07:48:38.468Z</time></trkpt><trkpt lat="46.1239122" lon="13.5674625"><ele>305.6666666666667</ele><time>2026-05-02T07:48:39.466Z</time></trkpt><trkpt lat="46.1238372" lon="13.5675625"><ele>309.0</ele><time>2026-05-02T07:48:41.467Z</time></trkpt><trkpt lat="46.1238858" lon="13.5676698"><ele>309.0</ele><time>2026-05-02T07:48:44.468Z</time></trkpt><trkpt lat="46.1239558" lon="13.5676343"><ele>309.0</ele><time>2026-05-02T07:48:46.471Z</time></trkpt><trkpt lat="46.1240605" lon="13.5675247"><ele>309.0</ele><time>2026-05-02T07:48:48.468Z</time></trkpt><trkpt lat="46.1241092" lon="13.5674647"><ele>309.0</ele><time>2026-05-02T07:48:49.468Z</time></trkpt><trkpt lat="46.1241593" lon="13.5673902"><ele>309.0</ele><time>2026-05-02T07:48:50.469Z</time></trkpt><trkpt lat="46.1242038" lon="13.5673078"><ele>309.0</ele><time>2026-05-02T07:48:51.47Z</time></trkpt><trkpt lat="46.124253" lon="13.5672057"><ele>305.6666666666667</ele><time>2026-05-02T07:48:52.469Z</time></trkpt><trkpt lat="46.1242835" lon="13.5671138"><ele>302.3333333333333</ele><time>2026-05-02T07:48:53.468Z</time></trkpt><trkpt lat="46.1243132" lon="13.5670255"><ele>299.0</ele><time>2026-05-02T07:48:54.468Z</time></trkpt><trkpt lat="46.1243608" lon="13.5668348"><ele>295.66666666666663</ele><time>2026-05-02T07:48:56.47Z</time></trkpt><trkpt lat="46.1243775" lon="13.566731"><ele>292.3333333333333</ele><time>2026-05-02T07:48:57.47Z</time></trkpt><trkpt lat="46.1243863" lon="13.5666217"><ele>289.0</ele><time>2026-05-02T07:48:58.471Z</time></trkpt><trkpt lat="46.1243925" lon="13.5665068"><ele>289.0</ele><time>2026-05-02T07:48:59.469Z</time></trkpt><trkpt lat="46.1244038" lon="13.5663902"><ele>289.0</ele><time>2026-05-02T07:49:00.47Z</time></trkpt><trkpt lat="46.1244248" lon="13.5662788"><ele>289.0</ele><time>2026-05-02T07:49:01.468Z</time></trkpt><trkpt lat="46.1244513" lon="13.5661693"><ele>289.0</ele><time>2026-05-02T07:49:02.469Z</time></trkpt><trkpt lat="46.1244873" lon="13.5660617"><ele>289.0</ele><time>2026-05-02T07:49:03.468Z</time></trkpt><trkpt lat="46.1245187" lon="13.5659502"><ele>289.0</ele><time>2026-05-02T07:49:04.466Z</time></trkpt><trkpt lat="46.1245502" lon="13.565838"><ele>289.5</ele><time>2026-05-02T07:49:05.468Z</time></trkpt><trkpt lat="46.1245918" lon="13.5657218"><ele>290.0</ele><time>2026-05-02T07:49:06.471Z</time></trkpt><trkpt lat="46.124626" lon="13.5656058"><ele>290.5</ele><time>2026-05-02T07:49:07.47Z</time></trkpt><trkpt lat="46.1246612" lon="13.5654908"><ele>291.0</ele><time>2026-05-02T07:49:08.471Z</time></trkpt><trkpt lat="46.124692" lon="13.5653828"><ele>291.5</ele><time>2026-05-02T07:49:09.468Z</time></trkpt><trkpt lat="46.124722" lon="13.5652832"><ele>292.0</ele><time>2026-05-02T07:49:10.467Z</time></trkpt><trkpt lat="46.124757" lon="13.5651682"><ele>292.16666666666663</ele><time>2026-05-02T07:49:11.467Z</time></trkpt><trkpt lat="46.1247767" lon="13.5650517"><ele>292.3333333333333</ele><time>2026-05-02T07:49:12.467Z</time></trkpt><trkpt lat="46.1247932" lon="13.5649423"><ele>292.5</ele><time>2026-05-02T07:49:13.47Z</time></trkpt><trkpt lat="46.124824" lon="13.5648372"><ele>292.6666666666667</ele><time>2026-05-02T07:49:14.47Z</time></trkpt><trkpt lat="46.1248485" lon="13.5647403"><ele>292.83333333333337</ele><time>2026-05-02T07:49:15.469Z</time></trkpt><trkpt lat="46.1248928" lon="13.5645557"><ele>293.0</ele><time>2026-05-02T07:49:17.47Z</time></trkpt><trkpt lat="46.1249215" lon="13.5644548"><ele>285.0</ele><time>2026-05-02T07:49:18.47Z</time></trkpt><trkpt lat="46.1249512" lon="13.5643627"><ele>277.0</ele><time>2026-05-02T07:49:19.469Z</time></trkpt><trkpt lat="46.1249752" lon="13.5642663"><ele>269.0</ele><time>2026-05-02T07:49:20.467Z</time></trkpt><trkpt lat="46.1249983" lon="13.5641528"><ele>261.0</ele><time>2026-05-02T07:49:21.467Z</time></trkpt><trkpt lat="46.1250098" lon="13.5640385"><ele>253.00000000000003</ele><time>2026-05-02T07:49:22.467Z</time></trkpt><trkpt lat="46.1250093" lon="13.5639267"><ele>245.0</ele><time>2026-05-02T07:49:23.468Z</time></trkpt><trkpt lat="46.1250058" lon="13.563812"><ele>245.00000000000003</ele><time>2026-05-02T07:49:24.469Z</time></trkpt><trkpt lat="46.1250045" lon="13.563698"><ele>245.0</ele><time>2026-05-02T07:49:25.467Z</time></trkpt><trkpt lat="46.125009" lon="13.5635842"><ele>245.0</ele><time>2026-05-02T07:49:26.467Z</time></trkpt><trkpt lat="46.125019" lon="13.5634675"><ele>245.0</ele><time>2026-05-02T07:49:27.466Z</time></trkpt><trkpt lat="46.1250265" lon="13.563363"><ele>245.00000000000003</ele><time>2026-05-02T07:49:28.466Z</time></trkpt><trkpt lat="46.1250348" lon="13.5632697"><ele>245.0</ele><time>2026-05-02T07:49:29.467Z</time></trkpt><trkpt lat="46.1250353" lon="13.5631637"><ele>243.85714285714286</ele><time>2026-05-02T07:49:30.467Z</time></trkpt><trkpt lat="46.1250373" lon="13.5630603"><ele>242.71428571428572</ele><time>2026-05-02T07:49:31.467Z</time></trkpt><trkpt lat="46.1250388" lon="13.5629548"><ele>241.57142857142856</ele><time>2026-05-02T07:49:32.471Z</time></trkpt><trkpt lat="46.1250503" lon="13.5628463"><ele>240.42857142857142</ele><time>2026-05-02T07:49:33.47Z</time></trkpt><trkpt lat="46.125059" lon="13.5627453"><ele>239.28571428571428</ele><time>2026-05-02T07:49:34.469Z</time></trkpt><trkpt lat="46.1250595" lon="13.5626507"><ele>238.1428571428571</ele><time>2026-05-02T07:49:35.47Z</time></trkpt><trkpt lat="46.1250477" lon="13.56256"><ele>236.99999999999997</ele><time>2026-05-02T07:49:36.469Z</time></trkpt><trkpt lat="46.1250418" lon="13.562346"><ele>236.83333333333334</ele><time>2026-05-02T07:49:38.469Z</time></trkpt><trkpt lat="46.1250468" lon="13.5622343"><ele>236.66666666666669</ele><time>2026-05-02T07:49:39.471Z</time></trkpt><trkpt lat="46.125047" lon="13.562127"><ele>236.5</ele><time>2026-05-02T07:49:40.471Z</time></trkpt><trkpt lat="46.1250438" lon="13.5620262"><ele>236.33333333333334</ele><time>2026-05-02T07:49:41.471Z</time></trkpt><trkpt lat="46.1250297" lon="13.5619112"><ele>236.16666666666669</ele><time>2026-05-02T07:49:42.471Z</time></trkpt><trkpt lat="46.1250203" lon="13.5617943"><ele>236.0</ele><time>2026-05-02T07:49:43.469Z</time></trkpt><trkpt lat="46.1250098" lon="13.5616823"><ele>234.83333333333334</ele><time>2026-05-02T07:49:44.473Z</time></trkpt><trkpt lat="46.124983" lon="13.5615927"><ele>233.66666666666669</ele><time>2026-05-02T07:49:45.471Z</time></trkpt><trkpt lat="46.1249345" lon="13.5614383"><ele>232.5</ele><time>2026-05-02T07:49:47.468Z</time></trkpt><trkpt lat="46.1249057" lon="13.5613362"><ele>231.33333333333331</ele><time>2026-05-02T07:49:48.468Z</time></trkpt><trkpt lat="46.1248773" lon="13.5612447"><ele>230.16666666666666</ele><time>2026-05-02T07:49:49.468Z</time></trkpt><trkpt lat="46.1248318" lon="13.5611783"><ele>229.0</ele><time>2026-05-02T07:49:50.469Z</time></trkpt><trkpt lat="46.124757" lon="13.5611233"><ele>228.99999999999997</ele><time>2026-05-02T07:49:51.469Z</time></trkpt><trkpt lat="46.1246923" lon="13.561051"><ele>229.0</ele><time>2026-05-02T07:49:52.468Z</time></trkpt><trkpt lat="46.1246392" lon="13.5609638"><ele>229.0</ele><time>2026-05-02T07:49:53.468Z</time></trkpt><trkpt lat="46.1245878" lon="13.560867"><ele>229.0</ele><time>2026-05-02T07:49:54.467Z</time></trkpt><trkpt lat="46.1245327" lon="13.560753"><ele>228.99999999999997</ele><time>2026-05-02T07:49:55.468Z</time></trkpt><trkpt lat="46.124484" lon="13.5606447"><ele>229.0</ele><time>2026-05-02T07:49:56.47Z</time></trkpt><trkpt lat="46.1244342" lon="13.5605395"><ele>229.0</ele><time>2026-05-02T07:49:57.47Z</time></trkpt><trkpt lat="46.1243575" lon="13.5603773"><ele>228.99999999999997</ele><time>2026-05-02T07:49:59.47Z</time></trkpt><trkpt lat="46.1243083" lon="13.5603083"><ele>228.99999999999997</ele><time>2026-05-02T07:50:00.468Z</time></trkpt><trkpt lat="46.1242652" lon="13.5602387"><ele>229.0</ele><time>2026-05-02T07:50:01.468Z</time></trkpt><trkpt lat="46.124188" lon="13.5600622"><ele>229.0</ele><time>2026-05-02T07:50:03.469Z</time></trkpt><trkpt lat="46.124143" lon="13.5599572"><ele>229.79999999999998</ele><time>2026-05-02T07:50:04.468Z</time></trkpt><trkpt lat="46.1240988" lon="13.5598783"><ele>230.59999999999997</ele><time>2026-05-02T07:50:05.467Z</time></trkpt><trkpt lat="46.1240453" lon="13.5597487"><ele>231.4</ele><time>2026-05-02T07:50:07.468Z</time></trkpt><trkpt lat="46.124057" lon="13.5595587"><ele>232.2</ele><time>2026-05-02T07:50:09.471Z</time></trkpt><trkpt lat="46.1240368" lon="13.55945"><ele>233.0</ele><time>2026-05-02T07:50:10.474Z</time></trkpt><trkpt lat="46.1240003" lon="13.5593402"><ele>233.0</ele><time>2026-05-02T07:50:11.474Z</time></trkpt><trkpt lat="46.1239685" lon="13.5592437"><ele>233.0</ele><time>2026-05-02T07:50:12.473Z</time></trkpt><trkpt lat="46.1239665" lon="13.559106"><ele>233.0</ele><time>2026-05-02T07:50:14.468Z</time></trkpt><trkpt lat="46.124002" lon="13.5590013"><ele>233.0</ele><time>2026-05-02T07:50:16.47Z</time></trkpt><trkpt lat="46.1240237" lon="13.5588905"><ele>233.0</ele><time>2026-05-02T07:50:19.472Z</time></trkpt><trkpt lat="46.1239403" lon="13.558678"><ele>230.4</ele><time>2026-05-02T07:50:22.469Z</time></trkpt><trkpt lat="46.123886" lon="13.5585807"><ele>227.8</ele><time>2026-05-02T07:50:23.469Z</time></trkpt><trkpt lat="46.1238262" lon="13.5584735"><ele>225.2</ele><time>2026-05-02T07:50:24.471Z</time></trkpt><trkpt lat="46.1237602" lon="13.5583513"><ele>222.6</ele><time>2026-05-02T07:50:25.471Z</time></trkpt><trkpt lat="46.1236888" lon="13.5582162"><ele>220.0</ele><time>2026-05-02T07:50:26.471Z</time></trkpt><trkpt lat="46.1236203" lon="13.5580637"><ele>220.0</ele><time>2026-05-02T07:50:27.472Z</time></trkpt><trkpt lat="46.1235545" lon="13.557891"><ele>220.0</ele><time>2026-05-02T07:50:28.474Z</time></trkpt><trkpt lat="46.123491" lon="13.5576988"><ele>220.0</ele><time>2026-05-02T07:50:29.471Z</time></trkpt><trkpt lat="46.1234345" lon="13.5574882"><ele>220.0</ele><time>2026-05-02T07:50:30.472Z</time></trkpt><trkpt lat="46.123387" lon="13.557261"><ele>214.0</ele><time>2026-05-02T07:50:31.469Z</time></trkpt><trkpt lat="46.1233508" lon="13.557022"><ele>208.0</ele><time>2026-05-02T07:50:32.471Z</time></trkpt><trkpt lat="46.1233282" lon="13.5567712"><ele>202.0</ele><time>2026-05-02T07:50:33.469Z</time></trkpt><trkpt lat="46.1233163" lon="13.5565115"><ele>202.0</ele><time>2026-05-02T07:50:34.469Z</time></trkpt><trkpt lat="46.1233075" lon="13.5562448"><ele>202.0</ele><time>2026-05-02T07:50:35.47Z</time></trkpt><trkpt lat="46.123298" lon="13.5559717"><ele>202.0</ele><time>2026-05-02T07:50:36.468Z</time></trkpt><trkpt lat="46.1232887" lon="13.5556962"><ele>201.33333333333331</ele><time>2026-05-02T07:50:37.469Z</time></trkpt><trkpt lat="46.1232807" lon="13.5554233"><ele>200.66666666666669</ele><time>2026-05-02T07:50:38.468Z</time></trkpt><trkpt lat="46.1232718" lon="13.5551538"><ele>200.0</ele><time>2026-05-02T07:50:39.468Z</time></trkpt><trkpt lat="46.1232623" lon="13.5548877"><ele>196.5</ele><time>2026-05-02T07:50:40.468Z</time></trkpt><trkpt lat="46.1232457" lon="13.5543603"><ele>193.0</ele><time>2026-05-02T07:50:42.469Z</time></trkpt><trkpt lat="46.1232368" lon="13.5541063"><ele>199.0</ele><time>2026-05-02T07:50:43.471Z</time></trkpt><trkpt lat="46.1232227" lon="13.5538565"><ele>205.0</ele><time>2026-05-02T07:50:44.468Z</time></trkpt><trkpt lat="46.123198" lon="13.553607"><ele>211.0</ele><time>2026-05-02T07:50:45.468Z</time></trkpt><trkpt lat="46.123163" lon="13.5533585"><ele>211.0</ele><time>2026-05-02T07:50:46.469Z</time></trkpt><trkpt lat="46.1231093" lon="13.553116"><ele>211.0</ele><time>2026-05-02T07:50:47.469Z</time></trkpt><trkpt lat="46.1230478" lon="13.552878"><ele>211.0</ele><time>2026-05-02T07:50:48.469Z</time></trkpt><trkpt lat="46.1229893" lon="13.5526388"><ele>208.0</ele><time>2026-05-02T07:50:49.469Z</time></trkpt><trkpt lat="46.1229295" lon="13.5524003"><ele>205.0</ele><time>2026-05-02T07:50:50.472Z</time></trkpt><trkpt lat="46.122869" lon="13.5521637"><ele>202.0</ele><time>2026-05-02T07:50:51.471Z</time></trkpt><trkpt lat="46.122811" lon="13.5519233"><ele>199.66666666666666</ele><time>2026-05-02T07:50:52.471Z</time></trkpt><trkpt lat="46.1227615" lon="13.5516743"><ele>197.33333333333331</ele><time>2026-05-02T07:50:53.468Z</time></trkpt><trkpt lat="46.12272" lon="13.551421"><ele>195.0</ele><time>2026-05-02T07:50:54.473Z</time></trkpt><trkpt lat="46.1226808" lon="13.5511633"><ele>193.33333333333334</ele><time>2026-05-02T07:50:55.471Z</time></trkpt><trkpt lat="46.1226403" lon="13.5509028"><ele>191.66666666666669</ele><time>2026-05-02T07:50:56.472Z</time></trkpt><trkpt lat="46.1226007" lon="13.5506382"><ele>190.0</ele><time>2026-05-02T07:50:57.472Z</time></trkpt><trkpt lat="46.122562" lon="13.5503697"><ele>189.66666666666669</ele><time>2026-05-02T07:50:58.469Z</time></trkpt><trkpt lat="46.1225228" lon="13.550098"><ele>189.33333333333334</ele><time>2026-05-02T07:50:59.472Z</time></trkpt><trkpt lat="46.1224813" lon="13.5498237"><ele>189.0</ele><time>2026-05-02T07:51:00.473Z</time></trkpt><trkpt lat="46.1224398" lon="13.549547"><ele>203.5</ele><time>2026-05-02T07:51:01.471Z</time></trkpt><trkpt lat="46.1223673" lon="13.5489815"><ele>218.0</ele><time>2026-05-02T07:51:03.468Z</time></trkpt><trkpt lat="46.1223385" lon="13.5486937"><ele>218.0</ele><time>2026-05-02T07:51:04.467Z</time></trkpt><trkpt lat="46.122315" lon="13.548403"><ele>218.0</ele><time>2026-05-02T07:51:05.467Z</time></trkpt><trkpt lat="46.122294" lon="13.548111"><ele>218.0</ele><time>2026-05-02T07:51:06.472Z</time></trkpt><trkpt lat="46.1222742" lon="13.5478178"><ele>213.66666666666669</ele><time>2026-05-02T07:51:07.473Z</time></trkpt><trkpt lat="46.1222537" lon="13.547522"><ele>209.33333333333331</ele><time>2026-05-02T07:51:08.472Z</time></trkpt><trkpt lat="46.1222318" lon="13.5472248"><ele>205.0</ele><time>2026-05-02T07:51:09.468Z</time></trkpt><trkpt lat="46.1222083" lon="13.5469297"><ele>200.33333333333331</ele><time>2026-05-02T07:51:10.47Z</time></trkpt><trkpt lat="46.1221855" lon="13.5466355"><ele>195.66666666666666</ele><time>2026-05-02T07:51:11.47Z</time></trkpt><trkpt lat="46.122164" lon="13.5463408"><ele>191.0</ele><time>2026-05-02T07:51:12.47Z</time></trkpt><trkpt lat="46.1221427" lon="13.5460473"><ele>188.33333333333331</ele><time>2026-05-02T07:51:13.469Z</time></trkpt><trkpt lat="46.1221212" lon="13.5457535"><ele>185.66666666666666</ele><time>2026-05-02T07:51:14.469Z</time></trkpt><trkpt lat="46.1221003" lon="13.5454592"><ele>183.0</ele><time>2026-05-02T07:51:15.469Z</time></trkpt><trkpt lat="46.1220795" lon="13.545164"><ele>183.0</ele><time>2026-05-02T07:51:16.469Z</time></trkpt><trkpt lat="46.1220592" lon="13.5448682"><ele>183.0</ele><time>2026-05-02T07:51:17.472Z</time></trkpt><trkpt lat="46.1220398" lon="13.5445712"><ele>183.0</ele><time>2026-05-02T07:51:18.472Z</time></trkpt><trkpt lat="46.1220187" lon="13.5442748"><ele>183.0</ele><time>2026-05-02T07:51:19.472Z</time></trkpt><trkpt lat="46.1219977" lon="13.543979"><ele>183.0</ele><time>2026-05-02T07:51:20.471Z</time></trkpt><trkpt lat="46.121975" lon="13.5436872"><ele>183.0</ele><time>2026-05-02T07:51:21.47Z</time></trkpt><trkpt lat="46.1219502" lon="13.5433995"><ele>189.5</ele><time>2026-05-02T07:51:22.476Z</time></trkpt><trkpt lat="46.1218772" lon="13.5428272"><ele>196.0</ele><time>2026-05-02T07:51:24.471Z</time></trkpt><trkpt lat="46.121825" lon="13.5425403"><ele>196.0</ele><time>2026-05-02T07:51:25.47Z</time></trkpt><trkpt lat="46.1217635" lon="13.5422528"><ele>196.0</ele><time>2026-05-02T07:51:26.469Z</time></trkpt><trkpt lat="46.121692" lon="13.5419692"><ele>196.0</ele><time>2026-05-02T07:51:27.469Z</time></trkpt><trkpt lat="46.1216193" lon="13.5416832"><ele>190.0</ele><time>2026-05-02T07:51:28.469Z</time></trkpt><trkpt lat="46.1215475" lon="13.5413958"><ele>184.0</ele><time>2026-05-02T07:51:29.469Z</time></trkpt><trkpt lat="46.121476" lon="13.5411085"><ele>178.0</ele><time>2026-05-02T07:51:30.47Z</time></trkpt><trkpt lat="46.1214037" lon="13.5408218"><ele>178.0</ele><time>2026-05-02T07:51:31.467Z</time></trkpt><trkpt lat="46.1213312" lon="13.540535"><ele>178.0</ele><time>2026-05-02T07:51:32.472Z</time></trkpt><trkpt lat="46.1212557" lon="13.54025"><ele>178.0</ele><time>2026-05-02T07:51:33.471Z</time></trkpt><trkpt lat="46.121177" lon="13.5399667"><ele>178.0</ele><time>2026-05-02T07:51:34.472Z</time></trkpt><trkpt lat="46.121095" lon="13.5396865"><ele>178.0</ele><time>2026-05-02T07:51:35.472Z</time></trkpt><trkpt lat="46.1210095" lon="13.5394072"><ele>178.0</ele><time>2026-05-02T07:51:36.469Z</time></trkpt><trkpt lat="46.1209247" lon="13.5391268"><ele>178.0</ele><time>2026-05-02T07:51:37.468Z</time></trkpt><trkpt lat="46.1208405" lon="13.5388472"><ele>178.0</ele><time>2026-05-02T07:51:38.473Z</time></trkpt><trkpt lat="46.1207565" lon="13.5385732"><ele>178.0</ele><time>2026-05-02T07:51:39.473Z</time></trkpt><trkpt lat="46.1206773" lon="13.5383113"><ele>177.0</ele><time>2026-05-02T07:51:40.472Z</time></trkpt><trkpt lat="46.1206065" lon="13.5380543"><ele>176.0</ele><time>2026-05-02T07:51:41.473Z</time></trkpt><trkpt lat="46.1205478" lon="13.5377942"><ele>175.0</ele><time>2026-05-02T07:51:42.471Z</time></trkpt><trkpt lat="46.1205042" lon="13.5375247"><ele>173.0</ele><time>2026-05-02T07:51:43.471Z</time></trkpt><trkpt lat="46.1204458" lon="13.5369623"><ele>171.0</ele><time>2026-05-02T07:51:45.471Z</time></trkpt><trkpt lat="46.1204262" lon="13.5366812"><ele>171.0</ele><time>2026-05-02T07:51:46.47Z</time></trkpt><trkpt lat="46.1204112" lon="13.5364088"><ele>171.0</ele><time>2026-05-02T07:51:47.47Z</time></trkpt><trkpt lat="46.1204077" lon="13.5361442"><ele>171.0</ele><time>2026-05-02T07:51:48.471Z</time></trkpt><trkpt lat="46.1204242" lon="13.5358847"><ele>171.66666666666666</ele><time>2026-05-02T07:51:49.47Z</time></trkpt><trkpt lat="46.1204623" lon="13.535626"><ele>172.33333333333331</ele><time>2026-05-02T07:51:50.473Z</time></trkpt><trkpt lat="46.120521" lon="13.5353695"><ele>173.0</ele><time>2026-05-02T07:51:51.471Z</time></trkpt><trkpt lat="46.1205983" lon="13.5351178"><ele>173.66666666666666</ele><time>2026-05-02T07:51:52.471Z</time></trkpt><trkpt lat="46.1206907" lon="13.5348732"><ele>174.33333333333334</ele><time>2026-05-02T07:51:53.469Z</time></trkpt><trkpt lat="46.1207908" lon="13.5346308"><ele>175.0</ele><time>2026-05-02T07:51:54.47Z</time></trkpt><trkpt lat="46.1208857" lon="13.5343947"><ele>172.33333333333334</ele><time>2026-05-02T07:51:55.471Z</time></trkpt><trkpt lat="46.120968" lon="13.534167"><ele>169.66666666666666</ele><time>2026-05-02T07:51:56.473Z</time></trkpt><trkpt lat="46.1210373" lon="13.5339382"><ele>167.0</ele><time>2026-05-02T07:51:57.473Z</time></trkpt><trkpt lat="46.1210942" lon="13.5337035"><ele>166.0</ele><time>2026-05-02T07:51:58.472Z</time></trkpt><trkpt lat="46.1211322" lon="13.5334537"><ele>165.0</ele><time>2026-05-02T07:51:59.472Z</time></trkpt><trkpt lat="46.1211595" lon="13.5331942"><ele>164.0</ele><time>2026-05-02T07:52:00.472Z</time></trkpt><trkpt lat="46.1211798" lon="13.5329295"><ele>164.0</ele><time>2026-05-02T07:52:01.473Z</time></trkpt><trkpt lat="46.1211977" lon="13.5326649"><ele>164.0</ele><time>2026-05-02T07:52:02.473Z</time></trkpt><trkpt lat="46.1212149" lon="13.5324024"><ele>164.0</ele><time>2026-05-02T07:52:03.471Z</time></trkpt><trkpt lat="46.1212324" lon="13.5321426"><ele>163.5</ele><time>2026-05-02T07:52:04.472Z</time></trkpt><trkpt lat="46.1212699" lon="13.5316507"><ele>163.0</ele><time>2026-05-02T07:52:06.473Z</time></trkpt><trkpt lat="46.1212892" lon="13.5314189"><ele>163.0</ele><time>2026-05-02T07:52:07.47Z</time></trkpt><trkpt lat="46.1213111" lon="13.5311926"><ele>163.0</ele><time>2026-05-02T07:52:08.471Z</time></trkpt><trkpt lat="46.1213361" lon="13.5309737"><ele>163.0</ele><time>2026-05-02T07:52:09.473Z</time></trkpt><trkpt lat="46.1213632" lon="13.5307641"><ele>163.0</ele><time>2026-05-02T07:52:10.472Z</time></trkpt><trkpt lat="46.121393" lon="13.5305652"><ele>163.0</ele><time>2026-05-02T07:52:11.473Z</time></trkpt><trkpt lat="46.1214238" lon="13.5303814"><ele>163.0</ele><time>2026-05-02T07:52:12.471Z</time></trkpt><trkpt lat="46.1214565" lon="13.5302001"><ele>163.0</ele><time>2026-05-02T07:52:13.474Z</time></trkpt><trkpt lat="46.1214898" lon="13.5300121"><ele>163.0</ele><time>2026-05-02T07:52:14.473Z</time></trkpt><trkpt lat="46.1215227" lon="13.5298143"><ele>163.0</ele><time>2026-05-02T07:52:15.47Z</time></trkpt><trkpt lat="46.1215525" lon="13.5296148"><ele>163.0</ele><time>2026-05-02T07:52:16.469Z</time></trkpt><trkpt lat="46.12158" lon="13.5294247"><ele>163.0</ele><time>2026-05-02T07:52:17.47Z</time></trkpt><trkpt lat="46.1216058" lon="13.5292463"><ele>164.4</ele><time>2026-05-02T07:52:18.471Z</time></trkpt><trkpt lat="46.1216312" lon="13.5290743"><ele>165.8</ele><time>2026-05-02T07:52:19.47Z</time></trkpt><trkpt lat="46.121654" lon="13.5289089"><ele>167.2</ele><time>2026-05-02T07:52:20.467Z</time></trkpt><trkpt lat="46.121675" lon="13.5287563"><ele>168.6</ele><time>2026-05-02T07:52:21.469Z</time></trkpt><trkpt lat="46.1216944" lon="13.5286185"><ele>170.0</ele><time>2026-05-02T07:52:22.471Z</time></trkpt><trkpt lat="46.1217075" lon="13.5285029"><ele>170.0</ele><time>2026-05-02T07:52:23.472Z</time></trkpt><trkpt lat="46.121723" lon="13.5284083"><ele>170.0</ele><time>2026-05-02T07:52:24.471Z</time></trkpt><trkpt lat="46.1217502" lon="13.5283204"><ele>170.0</ele><time>2026-05-02T07:52:26.469Z</time></trkpt><trkpt lat="46.1218414" lon="13.5285142"><ele>170.0</ele><time>2026-05-02T07:52:31.469Z</time></trkpt><trkpt lat="46.1219283" lon="13.5286162"><ele>170.0</ele><time>2026-05-02T07:52:33.471Z</time></trkpt><trkpt lat="46.121995" lon="13.5286407"><ele>170.0</ele><time>2026-05-02T07:52:34.471Z</time></trkpt><trkpt lat="46.1220708" lon="13.5286592"><ele>170.0</ele><time>2026-05-02T07:52:35.469Z</time></trkpt><trkpt lat="46.1221453" lon="13.5286928"><ele>170.0</ele><time>2026-05-02T07:52:36.469Z</time></trkpt><trkpt lat="46.1222092" lon="13.5287597"><ele>170.0</ele><time>2026-05-02T07:52:37.472Z</time></trkpt><trkpt lat="46.1222553" lon="13.5288592"><ele>170.0</ele><time>2026-05-02T07:52:38.473Z</time></trkpt><trkpt lat="46.1222807" lon="13.5289817"><ele>170.0</ele><time>2026-05-02T07:52:39.472Z</time></trkpt><trkpt lat="46.1222782" lon="13.5291173"><ele>170.5</ele><time>2026-05-02T07:52:40.471Z</time></trkpt><trkpt lat="46.1222477" lon="13.5292567"><ele>171.0</ele><time>2026-05-02T07:52:41.47Z</time></trkpt><trkpt lat="46.1222002" lon="13.5294022"><ele>171.5</ele><time>2026-05-02T07:52:42.469Z</time></trkpt><trkpt lat="46.1221507" lon="13.5295537"><ele>172.0</ele><time>2026-05-02T07:52:43.469Z</time></trkpt><trkpt lat="46.1220995" lon="13.5297113"><ele>173.25</ele><time>2026-05-02T07:52:44.47Z</time></trkpt><trkpt lat="46.1220502" lon="13.529874"><ele>174.5</ele><time>2026-05-02T07:52:45.468Z</time></trkpt><trkpt lat="46.1220057" lon="13.530036"><ele>175.75</ele><time>2026-05-02T07:52:46.468Z</time></trkpt><trkpt lat="46.1219718" lon="13.5302"><ele>177.0</ele><time>2026-05-02T07:52:47.469Z</time></trkpt><trkpt lat="46.1219707" lon="13.5305415"><ele>178.5</ele><time>2026-05-02T07:52:49.471Z</time></trkpt><trkpt lat="46.121993" lon="13.5307122"><ele>180.0</ele><time>2026-05-02T07:52:50.471Z</time></trkpt><trkpt lat="46.1220377" lon="13.5308745"><ele>181.5</ele><time>2026-05-02T07:52:51.472Z</time></trkpt><trkpt lat="46.1221005" lon="13.5310245"><ele>183.0</ele><time>2026-05-02T07:52:52.468Z</time></trkpt><trkpt lat="46.1221757" lon="13.5311545"><ele>182.0</ele><time>2026-05-02T07:52:53.471Z</time></trkpt><trkpt lat="46.1222632" lon="13.5312537"><ele>181.0</ele><time>2026-05-02T07:52:54.472Z</time></trkpt><trkpt lat="46.1223508" lon="13.5313187"><ele>180.0</ele><time>2026-05-02T07:52:55.471Z</time></trkpt><trkpt lat="46.1224345" lon="13.5313497"><ele>179.0</ele><time>2026-05-02T07:52:56.471Z</time></trkpt><trkpt lat="46.1225187" lon="13.5313995"><ele>178.0</ele><time>2026-05-02T07:52:57.468Z</time></trkpt><trkpt lat="46.1225908" lon="13.5314715"><ele>182.83333333333334</ele><time>2026-05-02T07:52:58.469Z</time></trkpt><trkpt lat="46.1226385" lon="13.5315667"><ele>187.66666666666669</ele><time>2026-05-02T07:52:59.467Z</time></trkpt><trkpt lat="46.122654" lon="13.5316767"><ele>192.5</ele><time>2026-05-02T07:53:00.469Z</time></trkpt><trkpt lat="46.1226392" lon="13.5317915"><ele>197.33333333333334</ele><time>2026-05-02T07:53:01.469Z</time></trkpt><trkpt lat="46.122589" lon="13.5318907"><ele>202.16666666666666</ele><time>2026-05-02T07:53:02.469Z</time></trkpt><trkpt lat="46.1225238" lon="13.5319847"><ele>207.0</ele><time>2026-05-02T07:53:03.47Z</time></trkpt><trkpt lat="46.1224535" lon="13.5320827"><ele>209.6</ele><time>2026-05-02T07:53:04.469Z</time></trkpt><trkpt lat="46.1223967" lon="13.5321925"><ele>212.2</ele><time>2026-05-02T07:53:05.468Z</time></trkpt><trkpt lat="46.1223693" lon="13.5323228"><ele>214.8</ele><time>2026-05-02T07:53:06.469Z</time></trkpt><trkpt lat="46.1223682" lon="13.5324753"><ele>217.4</ele><time>2026-05-02T07:53:07.469Z</time></trkpt><trkpt lat="46.1223932" lon="13.5326583"><ele>220.0</ele><time>2026-05-02T07:53:08.469Z</time></trkpt><trkpt lat="46.1224712" lon="13.5330833"><ele>220.0</ele><time>2026-05-02T07:53:10.468Z</time></trkpt><trkpt lat="46.1225067" lon="13.5333162"><ele>220.0</ele><time>2026-05-02T07:53:11.471Z</time></trkpt><trkpt lat="46.1225465" lon="13.5335497"><ele>220.0</ele><time>2026-05-02T07:53:12.472Z</time></trkpt><trkpt lat="46.1225965" lon="13.5337895"><ele>218.33333333333331</ele><time>2026-05-02T07:53:13.471Z</time></trkpt><trkpt lat="46.1226643" lon="13.534025"><ele>216.66666666666669</ele><time>2026-05-02T07:53:14.468Z</time></trkpt><trkpt lat="46.1227453" lon="13.5342585"><ele>215.0</ele><time>2026-05-02T07:53:15.468Z</time></trkpt><trkpt lat="46.122832" lon="13.5344873"><ele>213.25</ele><time>2026-05-02T07:53:16.469Z</time></trkpt><trkpt lat="46.1229013" lon="13.5346985"><ele>211.5</ele><time>2026-05-02T07:53:17.471Z</time></trkpt><trkpt lat="46.122947" lon="13.5348867"><ele>209.75</ele><time>2026-05-02T07:53:18.471Z</time></trkpt><trkpt lat="46.1229887" lon="13.535058"><ele>208.0</ele><time>2026-05-02T07:53:19.472Z</time></trkpt><trkpt lat="46.1230432" lon="13.5352242"><ele>208.0</ele><time>2026-05-02T07:53:20.471Z</time></trkpt><trkpt lat="46.1231177" lon="13.5353848"><ele>208.0</ele><time>2026-05-02T07:53:21.471Z</time></trkpt><trkpt lat="46.1232025" lon="13.535546"><ele>208.0</ele><time>2026-05-02T07:53:22.471Z</time></trkpt><trkpt lat="46.1232928" lon="13.5357117"><ele>208.0</ele><time>2026-05-02T07:53:23.472Z</time></trkpt><trkpt lat="46.123389" lon="13.5358812"><ele>215.25</ele><time>2026-05-02T07:53:24.47Z</time></trkpt><trkpt lat="46.123477" lon="13.5360293"><ele>222.5</ele><time>2026-05-02T07:53:25.469Z</time></trkpt><trkpt lat="46.1235642" lon="13.5361555"><ele>229.75</ele><time>2026-05-02T07:53:26.469Z</time></trkpt><trkpt lat="46.1236503" lon="13.5362713"><ele>237.0</ele><time>2026-05-02T07:53:27.471Z</time></trkpt><trkpt lat="46.123728" lon="13.5363767"><ele>237.2</ele><time>2026-05-02T07:53:28.467Z</time></trkpt><trkpt lat="46.1237812" lon="13.5364818"><ele>237.39999999999998</ele><time>2026-05-02T07:53:29.467Z</time></trkpt><trkpt lat="46.1237913" lon="13.5366918"><ele>237.60000000000002</ele><time>2026-05-02T07:53:31.467Z</time></trkpt><trkpt lat="46.1237458" lon="13.5367912"><ele>237.8</ele><time>2026-05-02T07:53:32.468Z</time></trkpt><trkpt lat="46.1236862" lon="13.5368897"><ele>238.0</ele><time>2026-05-02T07:53:33.468Z</time></trkpt><trkpt lat="46.123627" lon="13.536991"><ele>238.0</ele><time>2026-05-02T07:53:34.471Z</time></trkpt><trkpt lat="46.123584" lon="13.5370735"><ele>238.0</ele><time>2026-05-02T07:53:35.472Z</time></trkpt><trkpt lat="46.123579" lon="13.537176"><ele>238.0</ele><time>2026-05-02T07:53:37.469Z</time></trkpt><trkpt lat="46.1236643" lon="13.5371372"><ele>238.0</ele><time>2026-05-02T07:53:40.473Z</time></trkpt><trkpt lat="46.1237498" lon="13.5369963"><ele>238.0</ele><time>2026-05-02T07:53:42.472Z</time></trkpt><trkpt lat="46.123813" lon="13.536894"><ele>237.99999999999997</ele><time>2026-05-02T07:53:43.473Z</time></trkpt><trkpt lat="46.1238747" lon="13.5367898"><ele>238.0</ele><time>2026-05-02T07:53:44.471Z</time></trkpt><trkpt lat="46.1239267" lon="13.5366973"><ele>238.0</ele><time>2026-05-02T07:53:45.468Z</time></trkpt><trkpt lat="46.1239578" lon="13.5365532"><ele>238.0</ele><time>2026-05-02T07:53:47.468Z</time></trkpt><trkpt lat="46.1239095" lon="13.5364555"><ele>237.99999999999997</ele><time>2026-05-02T07:53:49.47Z</time></trkpt><trkpt lat="46.1238667" lon="13.5363853"><ele>238.0</ele><time>2026-05-02T07:53:50.471Z</time></trkpt><trkpt lat="46.123755" lon="13.536202"><ele>237.8</ele><time>2026-05-02T07:53:52.47Z</time></trkpt><trkpt lat="46.1237147" lon="13.5360878"><ele>237.60000000000002</ele><time>2026-05-02T07:53:53.469Z</time></trkpt><trkpt lat="46.1236823" lon="13.535968"><ele>237.39999999999998</ele><time>2026-05-02T07:53:54.469Z</time></trkpt><trkpt lat="46.1236742" lon="13.5358385"><ele>237.2</ele><time>2026-05-02T07:53:55.467Z</time></trkpt><trkpt lat="46.1236633" lon="13.535696"><ele>237.0</ele><time>2026-05-02T07:53:56.467Z</time></trkpt><trkpt lat="46.123665" lon="13.5355448"><ele>238.6</ele><time>2026-05-02T07:53:57.467Z</time></trkpt><trkpt lat="46.1236638" lon="13.5353818"><ele>240.2</ele><time>2026-05-02T07:53:58.467Z</time></trkpt><trkpt lat="46.1236783" lon="13.5352227"><ele>241.8</ele><time>2026-05-02T07:53:59.471Z</time></trkpt><trkpt lat="46.1237053" lon="13.5350705"><ele>243.4</ele><time>2026-05-02T07:54:00.471Z</time></trkpt><trkpt lat="46.1237375" lon="13.5349273"><ele>245.0</ele><time>2026-05-02T07:54:01.472Z</time></trkpt><trkpt lat="46.1237505" lon="13.534795"><ele>245.0</ele><time>2026-05-02T07:54:02.472Z</time></trkpt><trkpt lat="46.1237482" lon="13.5346518"><ele>245.0</ele><time>2026-05-02T07:54:03.469Z</time></trkpt><trkpt lat="46.1237413" lon="13.5344898"><ele>245.0</ele><time>2026-05-02T07:54:04.472Z</time></trkpt><trkpt lat="46.123732" lon="13.5343073"><ele>245.0</ele><time>2026-05-02T07:54:05.472Z</time></trkpt><trkpt lat="46.1237197" lon="13.5341127"><ele>246.2</ele><time>2026-05-02T07:54:06.473Z</time></trkpt><trkpt lat="46.1237123" lon="13.5339437"><ele>247.4</ele><time>2026-05-02T07:54:07.469Z</time></trkpt><trkpt lat="46.123717" lon="13.5337942"><ele>248.60000000000002</ele><time>2026-05-02T07:54:08.468Z</time></trkpt><trkpt lat="46.1237378" lon="13.53364"><ele>249.8</ele><time>2026-05-02T07:54:09.47Z</time></trkpt><trkpt lat="46.1237683" lon="13.533479"><ele>251.0</ele><time>2026-05-02T07:54:10.472Z</time></trkpt><trkpt lat="46.1238053" lon="13.533323"><ele>251.25</ele><time>2026-05-02T07:54:11.472Z</time></trkpt><trkpt lat="46.1239048" lon="13.5330695"><ele>251.5</ele><time>2026-05-02T07:54:13.469Z</time></trkpt><trkpt lat="46.1239622" lon="13.5329782"><ele>251.75</ele><time>2026-05-02T07:54:14.472Z</time></trkpt><trkpt lat="46.1240322" lon="13.5329017"><ele>252.0</ele><time>2026-05-02T07:54:15.472Z</time></trkpt><trkpt lat="46.1241078" lon="13.5328422"><ele>254.0</ele><time>2026-05-02T07:54:16.469Z</time></trkpt><trkpt lat="46.12417" lon="13.532818"><ele>256.0</ele><time>2026-05-02T07:54:17.469Z</time></trkpt><trkpt lat="46.1242842" lon="13.5328463"><ele>258.0</ele><time>2026-05-02T07:54:19.468Z</time></trkpt><trkpt lat="46.1243472" lon="13.5328947"><ele>260.0</ele><time>2026-05-02T07:54:20.469Z</time></trkpt><trkpt lat="46.124418" lon="13.5329712"><ele>262.0</ele><time>2026-05-02T07:54:21.468Z</time></trkpt><trkpt lat="46.1245068" lon="13.5330618"><ele>264.0</ele><time>2026-05-02T07:54:22.467Z</time></trkpt><trkpt lat="46.1246043" lon="13.533163"><ele>265.0</ele><time>2026-05-02T07:54:23.471Z</time></trkpt><trkpt lat="46.1247063" lon="13.5332685"><ele>266.0</ele><time>2026-05-02T07:54:24.471Z</time></trkpt><trkpt lat="46.1248158" lon="13.5333825"><ele>267.0</ele><time>2026-05-02T07:54:25.471Z</time></trkpt><trkpt lat="46.1249205" lon="13.5334975"><ele>268.0</ele><time>2026-05-02T07:54:26.473Z</time></trkpt><trkpt lat="46.1250202" lon="13.5335905"><ele>268.0</ele><time>2026-05-02T07:54:27.471Z</time></trkpt><trkpt lat="46.1251147" lon="13.5336808"><ele>268.0</ele><time>2026-05-02T07:54:28.469Z</time></trkpt><trkpt lat="46.1252028" lon="13.5337805"><ele>268.0</ele><time>2026-05-02T07:54:29.472Z</time></trkpt><trkpt lat="46.125276" lon="13.5338847"><ele>268.0</ele><time>2026-05-02T07:54:30.471Z</time></trkpt><trkpt lat="46.1253435" lon="13.5340113"><ele>268.0</ele><time>2026-05-02T07:54:31.472Z</time></trkpt><trkpt lat="46.125397" lon="13.5341388"><ele>273.0</ele><time>2026-05-02T07:54:32.469Z</time></trkpt><trkpt lat="46.1254653" lon="13.534409"><ele>278.0</ele><time>2026-05-02T07:54:34.468Z</time></trkpt><trkpt lat="46.1254978" lon="13.5345742"><ele>283.0</ele><time>2026-05-02T07:54:35.468Z</time></trkpt><trkpt lat="46.1255298" lon="13.5347483"><ele>288.0</ele><time>2026-05-02T07:54:36.468Z</time></trkpt><trkpt lat="46.1255595" lon="13.5348968"><ele>288.6666666666667</ele><time>2026-05-02T07:54:37.467Z</time></trkpt><trkpt lat="46.1255822" lon="13.5350263"><ele>289.3333333333333</ele><time>2026-05-02T07:54:38.471Z</time></trkpt><trkpt lat="46.1255957" lon="13.5351375"><ele>290.0</ele><time>2026-05-02T07:54:39.47Z</time></trkpt><trkpt lat="46.1255837" lon="13.5352403"><ele>290.66666666666663</ele><time>2026-05-02T07:54:40.469Z</time></trkpt><trkpt lat="46.125561" lon="13.5353412"><ele>291.3333333333333</ele><time>2026-05-02T07:54:41.468Z</time></trkpt><trkpt lat="46.1255295" lon="13.535438"><ele>292.0</ele><time>2026-05-02T07:54:42.471Z</time></trkpt><trkpt lat="46.1254413" lon="13.5355632"><ele>292.0</ele><time>2026-05-02T07:54:44.468Z</time></trkpt><trkpt lat="46.1253088" lon="13.5356293"><ele>292.0</ele><time>2026-05-02T07:54:46.466Z</time></trkpt><trkpt lat="46.1252327" lon="13.5356593"><ele>292.0</ele><time>2026-05-02T07:54:47.467Z</time></trkpt><trkpt lat="46.1251385" lon="13.535703"><ele>292.0</ele><time>2026-05-02T07:54:48.468Z</time></trkpt><trkpt lat="46.1250642" lon="13.5357472"><ele>292.0</ele><time>2026-05-02T07:54:49.468Z</time></trkpt><trkpt lat="46.124983" lon="13.5358358"><ele>292.0</ele><time>2026-05-02T07:54:51.468Z</time></trkpt><trkpt lat="46.1249513" lon="13.535991"><ele>292.0</ele><time>2026-05-02T07:54:53.469Z</time></trkpt><trkpt lat="46.1249727" lon="13.536238"><ele>292.0</ele><time>2026-05-02T07:54:55.471Z</time></trkpt><trkpt lat="46.12498" lon="13.53641"><ele>292.0</ele><time>2026-05-02T07:54:56.471Z</time></trkpt><trkpt lat="46.1249958" lon="13.5365993"><ele>293.5</ele><time>2026-05-02T07:54:57.471Z</time></trkpt><trkpt lat="46.1250148" lon="13.536794"><ele>295.0</ele><time>2026-05-02T07:54:58.469Z</time></trkpt><trkpt lat="46.1250525" lon="13.5369845"><ele>296.5</ele><time>2026-05-02T07:54:59.47Z</time></trkpt><trkpt lat="46.1250877" lon="13.5371478"><ele>298.0</ele><time>2026-05-02T07:55:00.473Z</time></trkpt><trkpt lat="46.1251298" lon="13.5372977"><ele>299.16666666666663</ele><time>2026-05-02T07:55:01.471Z</time></trkpt><trkpt lat="46.1251775" lon="13.5374328"><ele>300.3333333333333</ele><time>2026-05-02T07:55:02.471Z</time></trkpt><trkpt lat="46.1252345" lon="13.5375308"><ele>301.5</ele><time>2026-05-02T07:55:03.468Z</time></trkpt><trkpt lat="46.125291" lon="13.5376007"><ele>302.6666666666667</ele><time>2026-05-02T07:55:04.471Z</time></trkpt><trkpt lat="46.1253528" lon="13.5376782"><ele>303.83333333333337</ele><time>2026-05-02T07:55:05.471Z</time></trkpt><trkpt lat="46.1254068" lon="13.5377573"><ele>305.0</ele><time>2026-05-02T07:55:06.472Z</time></trkpt><trkpt lat="46.1254605" lon="13.5378452"><ele>306.8</ele><time>2026-05-02T07:55:07.468Z</time></trkpt><trkpt lat="46.125515" lon="13.537932"><ele>308.6</ele><time>2026-05-02T07:55:08.467Z</time></trkpt><trkpt lat="46.125576" lon="13.5380242"><ele>310.4</ele><time>2026-05-02T07:55:09.467Z</time></trkpt><trkpt lat="46.1256398" lon="13.5381158"><ele>312.2</ele><time>2026-05-02T07:55:10.467Z</time></trkpt><trkpt lat="46.1257082" lon="13.5382245"><ele>314.0</ele><time>2026-05-02T07:55:11.468Z</time></trkpt><trkpt lat="46.1257833" lon="13.5383225"><ele>315.25</ele><time>2026-05-02T07:55:12.47Z</time></trkpt><trkpt lat="46.1258633" lon="13.5384105"><ele>316.5</ele><time>2026-05-02T07:55:13.471Z</time></trkpt><trkpt lat="46.1259402" lon="13.5384787"><ele>317.75</ele><time>2026-05-02T07:55:14.468Z</time></trkpt><trkpt lat="46.1260863" lon="13.5386032"><ele>319.0</ele><time>2026-05-02T07:55:16.469Z</time></trkpt><trkpt lat="46.1261917" lon="13.5387385"><ele>320.16666666666663</ele><time>2026-05-02T07:55:18.469Z</time></trkpt><trkpt lat="46.126237" lon="13.538858"><ele>321.3333333333333</ele><time>2026-05-02T07:55:19.468Z</time></trkpt><trkpt lat="46.1262722" lon="13.5389775"><ele>322.5</ele><time>2026-05-02T07:55:20.469Z</time></trkpt><trkpt lat="46.1262943" lon="13.5390672"><ele>323.6666666666667</ele><time>2026-05-02T07:55:21.471Z</time></trkpt><trkpt lat="46.1263575" lon="13.5391458"><ele>324.83333333333337</ele><time>2026-05-02T07:55:23.472Z</time></trkpt><trkpt lat="46.126473" lon="13.539155"><ele>326.0</ele><time>2026-05-02T07:55:25.469Z</time></trkpt><trkpt lat="46.1265667" lon="13.5391797"><ele>326.0</ele><time>2026-05-02T07:55:26.471Z</time></trkpt><trkpt lat="46.126671" lon="13.5392268"><ele>326.0</ele><time>2026-05-02T07:55:27.472Z</time></trkpt><trkpt lat="46.1267758" lon="13.5392852"><ele>326.0</ele><time>2026-05-02T07:55:28.471Z</time></trkpt><trkpt lat="46.126873" lon="13.539349"><ele>326.0</ele><time>2026-05-02T07:55:29.47Z</time></trkpt><trkpt lat="46.126974" lon="13.5394292"><ele>326.0</ele><time>2026-05-02T07:55:30.468Z</time></trkpt><trkpt lat="46.1270748" lon="13.5394728"><ele>326.0</ele><time>2026-05-02T07:55:31.468Z</time></trkpt><trkpt lat="46.1271647" lon="13.5395133"><ele>326.0</ele><time>2026-05-02T07:55:32.469Z</time></trkpt><trkpt lat="46.127244" lon="13.5395602"><ele>326.0</ele><time>2026-05-02T07:55:33.469Z</time></trkpt><trkpt lat="46.1273053" lon="13.5396013"><ele>326.0</ele><time>2026-05-02T07:55:34.468Z</time></trkpt><trkpt lat="46.1273693" lon="13.5396687"><ele>326.0</ele><time>2026-05-02T07:55:35.469Z</time></trkpt><trkpt lat="46.1274633" lon="13.5398383"><ele>327.0</ele><time>2026-05-02T07:55:37.468Z</time></trkpt><trkpt lat="46.1274973" lon="13.5399247"><ele>328.0</ele><time>2026-05-02T07:55:38.47Z</time></trkpt><trkpt lat="46.1275277" lon="13.5400253"><ele>329.0</ele><time>2026-05-02T07:55:39.472Z</time></trkpt><trkpt lat="46.1275378" lon="13.540128"><ele>330.0</ele><time>2026-05-02T07:55:40.471Z</time></trkpt><trkpt lat="46.1275413" lon="13.5402425"><ele>331.0</ele><time>2026-05-02T07:55:41.47Z</time></trkpt><trkpt lat="46.1275192" lon="13.540376"><ele>332.0</ele><time>2026-05-02T07:55:42.468Z</time></trkpt><trkpt lat="46.127494" lon="13.5405368"><ele>334.20000000000005</ele><time>2026-05-02T07:55:43.469Z</time></trkpt><trkpt lat="46.1274788" lon="13.5407262"><ele>336.4</ele><time>2026-05-02T07:55:44.47Z</time></trkpt><trkpt lat="46.127452" lon="13.5408755"><ele>338.6</ele><time>2026-05-02T07:55:45.47Z</time></trkpt><trkpt lat="46.1274202" lon="13.5409793"><ele>340.79999999999995</ele><time>2026-05-02T07:55:46.469Z</time></trkpt><trkpt lat="46.127398" lon="13.5410817"><ele>343.0</ele><time>2026-05-02T07:55:47.469Z</time></trkpt><trkpt lat="46.1274067" lon="13.541222"><ele>344.59999999999997</ele><time>2026-05-02T07:55:49.471Z</time></trkpt><trkpt lat="46.1274677" lon="13.5412712"><ele>346.2</ele><time>2026-05-02T07:55:51.473Z</time></trkpt><trkpt lat="46.1275585" lon="13.5412468"><ele>347.8</ele><time>2026-05-02T07:55:53.47Z</time></trkpt><trkpt lat="46.1276668" lon="13.5412745"><ele>349.4</ele><time>2026-05-02T07:55:55.472Z</time></trkpt><trkpt lat="46.1277337" lon="13.541305"><ele>351.0</ele><time>2026-05-02T07:55:56.471Z</time></trkpt><trkpt lat="46.1279085" lon="13.5414013"><ele>351.0</ele><time>2026-05-02T07:55:58.466Z</time></trkpt><trkpt lat="46.1280085" lon="13.5414603"><ele>351.0</ele><time>2026-05-02T07:55:59.472Z</time></trkpt><trkpt lat="46.1281123" lon="13.541524"><ele>351.0</ele><time>2026-05-02T07:56:00.469Z</time></trkpt><trkpt lat="46.1282133" lon="13.5415688"><ele>351.0</ele><time>2026-05-02T07:56:01.471Z</time></trkpt><trkpt lat="46.1283193" lon="13.5416043"><ele>351.0</ele><time>2026-05-02T07:56:02.468Z</time></trkpt><trkpt lat="46.1284217" lon="13.5416375"><ele>348.4</ele><time>2026-05-02T07:56:03.468Z</time></trkpt><trkpt lat="46.1285073" lon="13.5416553"><ele>345.8</ele><time>2026-05-02T07:56:04.469Z</time></trkpt><trkpt lat="46.1285775" lon="13.5416877"><ele>343.2</ele><time>2026-05-02T07:56:05.471Z</time></trkpt><trkpt lat="46.1286487" lon="13.5417468"><ele>340.59999999999997</ele><time>2026-05-02T07:56:06.471Z</time></trkpt><trkpt lat="46.1287335" lon="13.5418373"><ele>338.0</ele><time>2026-05-02T07:56:07.471Z</time></trkpt><trkpt lat="46.1288303" lon="13.5419227"><ele>338.0</ele><time>2026-05-02T07:56:08.471Z</time></trkpt><trkpt lat="46.128921" lon="13.5419935"><ele>338.0</ele><time>2026-05-02T07:56:09.469Z</time></trkpt><trkpt lat="46.1290137" lon="13.5420405"><ele>338.0</ele><time>2026-05-02T07:56:10.468Z</time></trkpt><trkpt lat="46.1291033" lon="13.5420525"><ele>338.0</ele><time>2026-05-02T07:56:11.469Z</time></trkpt><trkpt lat="46.129205" lon="13.5420628"><ele>338.0</ele><time>2026-05-02T07:56:12.469Z</time></trkpt><trkpt lat="46.1292915" lon="13.5420725"><ele>342.59999999999997</ele><time>2026-05-02T07:56:13.469Z</time></trkpt><trkpt lat="46.1293737" lon="13.542104"><ele>347.2</ele><time>2026-05-02T07:56:14.471Z</time></trkpt><trkpt lat="46.1294465" lon="13.5421637"><ele>351.8</ele><time>2026-05-02T07:56:15.468Z</time></trkpt><trkpt lat="46.129498" lon="13.5422348"><ele>356.4</ele><time>2026-05-02T07:56:16.468Z</time></trkpt><trkpt lat="46.1295422" lon="13.5423237"><ele>361.0</ele><time>2026-05-02T07:56:17.469Z</time></trkpt><trkpt lat="46.1296083" lon="13.5425528"><ele>361.0</ele><time>2026-05-02T07:56:19.471Z</time></trkpt><trkpt lat="46.1296337" lon="13.5426515"><ele>361.0</ele><time>2026-05-02T07:56:20.471Z</time></trkpt><trkpt lat="46.1297113" lon="13.5427403"><ele>361.0</ele><time>2026-05-02T07:56:22.467Z</time></trkpt><trkpt lat="46.1297793" lon="13.542747"><ele>361.0</ele><time>2026-05-02T07:56:23.468Z</time></trkpt><trkpt lat="46.129858" lon="13.542742"><ele>361.0</ele><time>2026-05-02T07:56:24.47Z</time></trkpt><trkpt lat="46.1299647" lon="13.542751"><ele>361.0</ele><time>2026-05-02T07:56:25.47Z</time></trkpt><trkpt lat="46.1300628" lon="13.5427725"><ele>361.8</ele><time>2026-05-02T07:56:26.471Z</time></trkpt><trkpt lat="46.1301412" lon="13.5428122"><ele>362.6</ele><time>2026-05-02T07:56:27.469Z</time></trkpt><trkpt lat="46.1302185" lon="13.5428713"><ele>363.4</ele><time>2026-05-02T07:56:28.468Z</time></trkpt><trkpt lat="46.1302948" lon="13.5429562"><ele>364.2</ele><time>2026-05-02T07:56:29.47Z</time></trkpt><trkpt lat="46.1303717" lon="13.543045"><ele>365.0</ele><time>2026-05-02T07:56:30.471Z</time></trkpt><trkpt lat="46.1304543" lon="13.5431465"><ele>365.0</ele><time>2026-05-02T07:56:31.471Z</time></trkpt><trkpt lat="46.1305488" lon="13.5432762"><ele>365.0</ele><time>2026-05-02T07:56:32.471Z</time></trkpt><trkpt lat="46.1306408" lon="13.5434025"><ele>365.0</ele><time>2026-05-02T07:56:33.47Z</time></trkpt><trkpt lat="46.1307398" lon="13.5434948"><ele>365.0</ele><time>2026-05-02T07:56:34.472Z</time></trkpt><trkpt lat="46.1308425" lon="13.5435985"><ele>362.5</ele><time>2026-05-02T07:56:35.47Z</time></trkpt><trkpt lat="46.1309447" lon="13.5437013"><ele>360.0</ele><time>2026-05-02T07:56:36.471Z</time></trkpt><trkpt lat="46.1310292" lon="13.5437838"><ele>357.5</ele><time>2026-05-02T07:56:37.47Z</time></trkpt><trkpt lat="46.1311118" lon="13.5438543"><ele>355.0</ele><time>2026-05-02T07:56:38.47Z</time></trkpt><trkpt lat="46.1312642" lon="13.5439668"><ele>355.8</ele><time>2026-05-02T07:56:40.469Z</time></trkpt><trkpt lat="46.1313473" lon="13.544037"><ele>356.6</ele><time>2026-05-02T07:56:41.472Z</time></trkpt><trkpt lat="46.1314215" lon="13.5441243"><ele>357.4</ele><time>2026-05-02T07:56:42.472Z</time></trkpt><trkpt lat="46.1315072" lon="13.5442067"><ele>358.2</ele><time>2026-05-02T07:56:43.471Z</time></trkpt><trkpt lat="46.1316093" lon="13.5442417"><ele>359.0</ele><time>2026-05-02T07:56:44.471Z</time></trkpt><trkpt lat="46.1317055" lon="13.5442438"><ele>359.0</ele><time>2026-05-02T07:56:45.472Z</time></trkpt><trkpt lat="46.1318112" lon="13.5442672"><ele>359.0</ele><time>2026-05-02T07:56:46.469Z</time></trkpt><trkpt lat="46.1319213" lon="13.5443338"><ele>359.0</ele><time>2026-05-02T07:56:47.468Z</time></trkpt><trkpt lat="46.1320208" lon="13.5444167"><ele>359.0</ele><time>2026-05-02T07:56:48.468Z</time></trkpt><trkpt lat="46.1321168" lon="13.5444913"><ele>360.83333333333337</ele><time>2026-05-02T07:56:49.465Z</time></trkpt><trkpt lat="46.1322118" lon="13.5445532"><ele>362.6666666666667</ele><time>2026-05-02T07:56:50.467Z</time></trkpt><trkpt lat="46.1323082" lon="13.5446045"><ele>364.5</ele><time>2026-05-02T07:56:51.468Z</time></trkpt><trkpt lat="46.1323912" lon="13.5446125"><ele>366.3333333333333</ele><time>2026-05-02T07:56:52.468Z</time></trkpt><trkpt lat="46.1324658" lon="13.5446338"><ele>368.16666666666663</ele><time>2026-05-02T07:56:53.468Z</time></trkpt><trkpt lat="46.1325398" lon="13.5446563"><ele>370.0</ele><time>2026-05-02T07:56:54.47Z</time></trkpt><trkpt lat="46.132618" lon="13.5446932"><ele>370.0</ele><time>2026-05-02T07:56:55.47Z</time></trkpt><trkpt lat="46.1327118" lon="13.544716"><ele>370.0</ele><time>2026-05-02T07:56:56.47Z</time></trkpt><trkpt lat="46.1327948" lon="13.5447368"><ele>370.0</ele><time>2026-05-02T07:56:57.467Z</time></trkpt><trkpt lat="46.1328663" lon="13.5447735"><ele>370.0</ele><time>2026-05-02T07:56:58.467Z</time></trkpt><trkpt lat="46.1329722" lon="13.5448525"><ele>370.0</ele><time>2026-05-02T07:57:00.47Z</time></trkpt><trkpt lat="46.1331762" lon="13.5448323"><ele>368.0</ele><time>2026-05-02T07:57:04.468Z</time></trkpt><trkpt lat="46.13324" lon="13.5447615"><ele>366.0</ele><time>2026-05-02T07:57:05.468Z</time></trkpt><trkpt lat="46.1333172" lon="13.5446865"><ele>364.0</ele><time>2026-05-02T07:57:06.469Z</time></trkpt><trkpt lat="46.1334017" lon="13.5446462"><ele>362.0</ele><time>2026-05-02T07:57:07.468Z</time></trkpt><trkpt lat="46.1334912" lon="13.544615"><ele>360.0</ele><time>2026-05-02T07:57:08.467Z</time></trkpt><trkpt lat="46.1335888" lon="13.5445953"><ele>360.0</ele><time>2026-05-02T07:57:09.468Z</time></trkpt><trkpt lat="46.1336763" lon="13.5445905"><ele>360.0</ele><time>2026-05-02T07:57:10.469Z</time></trkpt><trkpt lat="46.1337515" lon="13.544615"><ele>360.0</ele><time>2026-05-02T07:57:11.467Z</time></trkpt><trkpt lat="46.1338248" lon="13.5446605"><ele>360.0</ele><time>2026-05-02T07:57:12.466Z</time></trkpt><trkpt lat="46.1339025" lon="13.54472"><ele>360.0</ele><time>2026-05-02T07:57:13.465Z</time></trkpt><trkpt lat="46.1339983" lon="13.5448"><ele>360.0</ele><time>2026-05-02T07:57:14.464Z</time></trkpt><trkpt lat="46.1340803" lon="13.5448465"><ele>360.5</ele><time>2026-05-02T07:57:15.469Z</time></trkpt><trkpt lat="46.1341672" lon="13.5448772"><ele>361.0</ele><time>2026-05-02T07:57:16.467Z</time></trkpt><trkpt lat="46.1342355" lon="13.5449052"><ele>361.5</ele><time>2026-05-02T07:57:17.468Z</time></trkpt><trkpt lat="46.1342958" lon="13.544945"><ele>362.0</ele><time>2026-05-02T07:57:18.467Z</time></trkpt><trkpt lat="46.1343945" lon="13.5450678"><ele>362.5</ele><time>2026-05-02T07:57:20.467Z</time></trkpt><trkpt lat="46.1344453" lon="13.5451722"><ele>363.0</ele><time>2026-05-02T07:57:21.467Z</time></trkpt><trkpt lat="46.1345788" lon="13.5455172"><ele>368.0</ele><time>2026-05-02T07:57:23.47Z</time></trkpt><trkpt lat="46.1346508" lon="13.5457158"><ele>373.0</ele><time>2026-05-02T07:57:24.47Z</time></trkpt><trkpt lat="46.1347118" lon="13.5459103"><ele>378.0</ele><time>2026-05-02T07:57:25.468Z</time></trkpt><trkpt lat="46.1347668" lon="13.546081"><ele>383.0</ele><time>2026-05-02T07:57:26.468Z</time></trkpt><trkpt lat="46.134818" lon="13.5462377"><ele>382.59999999999997</ele><time>2026-05-02T07:57:27.467Z</time></trkpt><trkpt lat="46.134867" lon="13.5463482"><ele>382.2</ele><time>2026-05-02T07:57:28.47Z</time></trkpt><trkpt lat="46.1349387" lon="13.546453"><ele>381.8</ele><time>2026-05-02T07:57:29.468Z</time></trkpt><trkpt lat="46.1350187" lon="13.54656"><ele>381.4</ele><time>2026-05-02T07:57:30.471Z</time></trkpt><trkpt lat="46.1351022" lon="13.546665"><ele>381.0</ele><time>2026-05-02T07:57:31.471Z</time></trkpt><trkpt lat="46.1351838" lon="13.5467527"><ele>381.0</ele><time>2026-05-02T07:57:32.471Z</time></trkpt><trkpt lat="46.1352687" lon="13.5468585"><ele>381.0</ele><time>2026-05-02T07:57:33.468Z</time></trkpt><trkpt lat="46.1353613" lon="13.5469827"><ele>381.0</ele><time>2026-05-02T07:57:34.469Z</time></trkpt><trkpt lat="46.135453" lon="13.5471058"><ele>381.0</ele><time>2026-05-02T07:57:35.471Z</time></trkpt><trkpt lat="46.1355473" lon="13.547179"><ele>380.8</ele><time>2026-05-02T07:57:36.467Z</time></trkpt><trkpt lat="46.1356463" lon="13.5472278"><ele>380.6</ele><time>2026-05-02T07:57:37.466Z</time></trkpt><trkpt lat="46.1357508" lon="13.547282"><ele>380.4</ele><time>2026-05-02T07:57:38.466Z</time></trkpt><trkpt lat="46.13584" lon="13.5473247"><ele>380.2</ele><time>2026-05-02T07:57:39.468Z</time></trkpt><trkpt lat="46.1359143" lon="13.5473677"><ele>380.0</ele><time>2026-05-02T07:57:40.468Z</time></trkpt><trkpt lat="46.1359742" lon="13.5474242"><ele>380.0</ele><time>2026-05-02T07:57:41.471Z</time></trkpt><trkpt lat="46.1360138" lon="13.5475035"><ele>380.0</ele><time>2026-05-02T07:57:42.472Z</time></trkpt><trkpt lat="46.1360663" lon="13.5477253"><ele>380.0</ele><time>2026-05-02T07:57:44.472Z</time></trkpt><trkpt lat="46.1360875" lon="13.5478517"><ele>380.0</ele><time>2026-05-02T07:57:45.468Z</time></trkpt><trkpt lat="46.1361155" lon="13.5479637"><ele>380.0</ele><time>2026-05-02T07:57:46.469Z</time></trkpt><trkpt lat="46.1361553" lon="13.5480543"><ele>379.1666666666667</ele><time>2026-05-02T07:57:47.469Z</time></trkpt><trkpt lat="46.1362213" lon="13.5481142"><ele>378.33333333333337</ele><time>2026-05-02T07:57:48.469Z</time></trkpt><trkpt lat="46.1362988" lon="13.548158"><ele>377.5</ele><time>2026-05-02T07:57:49.472Z</time></trkpt><trkpt lat="46.1363783" lon="13.5482005"><ele>376.6666666666667</ele><time>2026-05-02T07:57:50.472Z</time></trkpt><trkpt lat="46.1364485" lon="13.5482448"><ele>375.8333333333333</ele><time>2026-05-02T07:57:51.471Z</time></trkpt><trkpt lat="46.1365187" lon="13.5483133"><ele>375.0</ele><time>2026-05-02T07:57:52.472Z</time></trkpt><trkpt lat="46.1365865" lon="13.5484152"><ele>375.0</ele><time>2026-05-02T07:57:53.467Z</time></trkpt><trkpt lat="46.1366573" lon="13.5485322"><ele>375.0</ele><time>2026-05-02T07:57:54.467Z</time></trkpt><trkpt lat="46.1367333" lon="13.5486755"><ele>375.0</ele><time>2026-05-02T07:57:55.467Z</time></trkpt><trkpt lat="46.1368113" lon="13.5488163"><ele>375.0</ele><time>2026-05-02T07:57:56.469Z</time></trkpt><trkpt lat="46.1368938" lon="13.5489462"><ele>378.6</ele><time>2026-05-02T07:57:57.471Z</time></trkpt><trkpt lat="46.1369762" lon="13.5490985"><ele>382.2</ele><time>2026-05-02T07:57:58.472Z</time></trkpt><trkpt lat="46.1370513" lon="13.5492232"><ele>385.79999999999995</ele><time>2026-05-02T07:57:59.468Z</time></trkpt><trkpt lat="46.1371105" lon="13.549337"><ele>389.4</ele><time>2026-05-02T07:58:00.465Z</time></trkpt><trkpt lat="46.137151" lon="13.5494418"><ele>393.0</ele><time>2026-05-02T07:58:01.466Z</time></trkpt><trkpt lat="46.1371775" lon="13.5495543"><ele>396.0</ele><time>2026-05-02T07:58:02.468Z</time></trkpt><trkpt lat="46.1371998" lon="13.5496798"><ele>399.0</ele><time>2026-05-02T07:58:03.469Z</time></trkpt><trkpt lat="46.1372445" lon="13.5499467"><ele>402.0</ele><time>2026-05-02T07:58:05.468Z</time></trkpt><trkpt lat="46.1372682" lon="13.5500578"><ele>405.0</ele><time>2026-05-02T07:58:06.468Z</time></trkpt><trkpt lat="46.1372855" lon="13.5501567"><ele>408.0</ele><time>2026-05-02T07:58:07.468Z</time></trkpt><trkpt lat="46.1372855" lon="13.5502725"><ele>409.8333333333333</ele><time>2026-05-02T07:58:08.468Z</time></trkpt><trkpt lat="46.1372682" lon="13.5503783"><ele>411.66666666666663</ele><time>2026-05-02T07:58:09.468Z</time></trkpt><trkpt lat="46.1372615" lon="13.5504688"><ele>413.5</ele><time>2026-05-02T07:58:10.468Z</time></trkpt><trkpt lat="46.1372608" lon="13.5505617"><ele>415.3333333333333</ele><time>2026-05-02T07:58:11.469Z</time></trkpt><trkpt lat="46.137284" lon="13.550682"><ele>417.16666666666663</ele><time>2026-05-02T07:58:12.47Z</time></trkpt><trkpt lat="46.1373087" lon="13.5508112"><ele>419.0</ele><time>2026-05-02T07:58:13.47Z</time></trkpt><trkpt lat="46.1373255" lon="13.5509357"><ele>419.0</ele><time>2026-05-02T07:58:14.469Z</time></trkpt><trkpt lat="46.1373285" lon="13.5510577"><ele>419.0</ele><time>2026-05-02T07:58:15.468Z</time></trkpt><trkpt lat="46.137301" lon="13.5511933"><ele>419.0</ele><time>2026-05-02T07:58:16.468Z</time></trkpt><trkpt lat="46.137264" lon="13.5513155"><ele>419.0</ele><time>2026-05-02T07:58:17.469Z</time></trkpt><trkpt lat="46.137223" lon="13.5514302"><ele>419.0</ele><time>2026-05-02T07:58:18.472Z</time></trkpt><trkpt lat="46.1371802" lon="13.5515515"><ele>419.8333333333333</ele><time>2026-05-02T07:58:19.471Z</time></trkpt><trkpt lat="46.1371565" lon="13.5516648"><ele>420.66666666666663</ele><time>2026-05-02T07:58:20.475Z</time></trkpt><trkpt lat="46.1371377" lon="13.5517857"><ele>421.5</ele><time>2026-05-02T07:58:21.472Z</time></trkpt><trkpt lat="46.1371307" lon="13.5519132"><ele>422.33333333333337</ele><time>2026-05-02T07:58:22.469Z</time></trkpt><trkpt lat="46.1371188" lon="13.5520323"><ele>423.1666666666667</ele><time>2026-05-02T07:58:23.469Z</time></trkpt><trkpt lat="46.1371252" lon="13.5521802"><ele>424.0</ele><time>2026-05-02T07:58:24.466Z</time></trkpt><trkpt lat="46.1371705" lon="13.5524638"><ele>424.6</ele><time>2026-05-02T07:58:26.468Z</time></trkpt><trkpt lat="46.1371913" lon="13.5525802"><ele>425.2</ele><time>2026-05-02T07:58:27.468Z</time></trkpt><trkpt lat="46.1372202" lon="13.5526698"><ele>425.80000000000007</ele><time>2026-05-02T07:58:28.467Z</time></trkpt><trkpt lat="46.1373027" lon="13.5527622"><ele>426.40000000000003</ele><time>2026-05-02T07:58:30.466Z</time></trkpt><trkpt lat="46.1373735" lon="13.5527693"><ele>427.0</ele><time>2026-05-02T07:58:31.466Z</time></trkpt><trkpt lat="46.137501" lon="13.552716"><ele>418.6</ele><time>2026-05-02T07:58:33.467Z</time></trkpt><trkpt lat="46.1375765" lon="13.5526988"><ele>410.20000000000005</ele><time>2026-05-02T07:58:34.468Z</time></trkpt><trkpt lat="46.1376467" lon="13.552703"><ele>401.8</ele><time>2026-05-02T07:58:35.468Z</time></trkpt><trkpt lat="46.1377432" lon="13.5527377"><ele>393.4</ele><time>2026-05-02T07:58:36.469Z</time></trkpt><trkpt lat="46.1378578" lon="13.5527678"><ele>385.0</ele><time>2026-05-02T07:58:37.468Z</time></trkpt><trkpt lat="46.1379853" lon="13.5527923"><ele>385.0</ele><time>2026-05-02T07:58:38.465Z</time></trkpt><trkpt lat="46.1380902" lon="13.5527775"><ele>385.0</ele><time>2026-05-02T07:58:39.466Z</time></trkpt><trkpt lat="46.1381875" lon="13.5527635"><ele>385.0</ele><time>2026-05-02T07:58:40.466Z</time></trkpt><trkpt lat="46.1382895" lon="13.5527733"><ele>385.0</ele><time>2026-05-02T07:58:41.468Z</time></trkpt><trkpt lat="46.1383832" lon="13.5527798"><ele>385.0</ele><time>2026-05-02T07:58:42.467Z</time></trkpt><trkpt lat="46.1384825" lon="13.5527903"><ele>377.5</ele><time>2026-05-02T07:58:43.467Z</time></trkpt><trkpt lat="46.1385827" lon="13.5527893"><ele>370.0</ele><time>2026-05-02T07:58:44.468Z</time></trkpt><trkpt lat="46.1386877" lon="13.5527918"><ele>362.5</ele><time>2026-05-02T07:58:45.466Z</time></trkpt><trkpt lat="46.1388815" lon="13.5527813"><ele>355.0</ele><time>2026-05-02T07:58:47.467Z</time></trkpt><trkpt lat="46.1389727" lon="13.5527437"><ele>355.4</ele><time>2026-05-02T07:58:48.467Z</time></trkpt><trkpt lat="46.1390635" lon="13.5526857"><ele>355.8</ele><time>2026-05-02T07:58:49.465Z</time></trkpt><trkpt lat="46.1391597" lon="13.5526447"><ele>356.20000000000005</ele><time>2026-05-02T07:58:50.464Z</time></trkpt><trkpt lat="46.1392662" lon="13.552621"><ele>356.6</ele><time>2026-05-02T07:58:51.465Z</time></trkpt><trkpt lat="46.1393615" lon="13.5525967"><ele>357.0</ele><time>2026-05-02T07:58:52.465Z</time></trkpt><trkpt lat="46.1394427" lon="13.5525843"><ele>357.0</ele><time>2026-05-02T07:58:53.466Z</time></trkpt><trkpt lat="46.1395107" lon="13.552581"><ele>357.0</ele><time>2026-05-02T07:58:54.467Z</time></trkpt><trkpt lat="46.139634" lon="13.552642"><ele>357.0</ele><time>2026-05-02T07:58:56.469Z</time></trkpt><trkpt lat="46.1396872" lon="13.5526915"><ele>357.0</ele><time>2026-05-02T07:58:57.471Z</time></trkpt><trkpt lat="46.1397508" lon="13.5528408"><ele>357.0</ele><time>2026-05-02T07:58:59.468Z</time></trkpt><trkpt lat="46.1397795" lon="13.5529652"><ele>365.5</ele><time>2026-05-02T07:59:00.476Z</time></trkpt><trkpt lat="46.1397927" lon="13.553118"><ele>374.0</ele><time>2026-05-02T07:59:01.472Z</time></trkpt><trkpt lat="46.1398135" lon="13.5533207"><ele>382.5</ele><time>2026-05-02T07:59:02.472Z</time></trkpt><trkpt lat="46.139839" lon="13.5535312"><ele>391.0</ele><time>2026-05-02T07:59:03.471Z</time></trkpt><trkpt lat="46.1398648" lon="13.5537245"><ele>390.25</ele><time>2026-05-02T07:59:04.469Z</time></trkpt><trkpt lat="46.1398873" lon="13.5538792"><ele>389.5</ele><time>2026-05-02T07:59:05.471Z</time></trkpt><trkpt lat="46.1399018" lon="13.5540142"><ele>388.75</ele><time>2026-05-02T07:59:06.472Z</time></trkpt><trkpt lat="46.1398993" lon="13.554246"><ele>388.0</ele><time>2026-05-02T07:59:08.469Z</time></trkpt><trkpt lat="46.1398705" lon="13.5543743"><ele>394.79999999999995</ele><time>2026-05-02T07:59:09.469Z</time></trkpt><trkpt lat="46.139846" lon="13.554509"><ele>401.6</ele><time>2026-05-02T07:59:10.467Z</time></trkpt><trkpt lat="46.1398098" lon="13.5546673"><ele>408.4</ele><time>2026-05-02T07:59:11.469Z</time></trkpt><trkpt lat="46.1397693" lon="13.554821"><ele>415.20000000000005</ele><time>2026-05-02T07:59:12.468Z</time></trkpt><trkpt lat="46.1397143" lon="13.5549643"><ele>422.0</ele><time>2026-05-02T07:59:13.469Z</time></trkpt><trkpt lat="46.1396668" lon="13.5551087"><ele>422.8</ele><time>2026-05-02T07:59:14.468Z</time></trkpt><trkpt lat="46.1396295" lon="13.5552537"><ele>423.6</ele><time>2026-05-02T07:59:15.469Z</time></trkpt><trkpt lat="46.139579" lon="13.555386"><ele>424.40000000000003</ele><time>2026-05-02T07:59:16.468Z</time></trkpt><trkpt lat="46.1395283" lon="13.5555258"><ele>425.20000000000005</ele><time>2026-05-02T07:59:17.468Z</time></trkpt><trkpt lat="46.1394865" lon="13.5556702"><ele>426.0</ele><time>2026-05-02T07:59:18.468Z</time></trkpt><trkpt lat="46.1394605" lon="13.5558068"><ele>422.8333333333333</ele><time>2026-05-02T07:59:19.468Z</time></trkpt><trkpt lat="46.1394387" lon="13.5559385"><ele>419.66666666666663</ele><time>2026-05-02T07:59:20.469Z</time></trkpt><trkpt lat="46.1394203" lon="13.556051"><ele>416.5</ele><time>2026-05-02T07:59:21.469Z</time></trkpt><trkpt lat="46.1393918" lon="13.5561487"><ele>413.3333333333333</ele><time>2026-05-02T07:59:22.471Z</time></trkpt><trkpt lat="46.1393533" lon="13.5562402"><ele>410.16666666666663</ele><time>2026-05-02T07:59:23.469Z</time></trkpt><trkpt lat="46.1392968" lon="13.5563247"><ele>407.0</ele><time>2026-05-02T07:59:24.471Z</time></trkpt><trkpt lat="46.1392405" lon="13.5564067"><ele>404.49999999999994</ele><time>2026-05-02T07:59:25.472Z</time></trkpt><trkpt lat="46.1391985" lon="13.556491"><ele>402.0</ele><time>2026-05-02T07:59:26.473Z</time></trkpt><trkpt lat="46.1391682" lon="13.5565867"><ele>399.5</ele><time>2026-05-02T07:59:27.472Z</time></trkpt><trkpt lat="46.1391297" lon="13.5568098"><ele>397.0</ele><time>2026-05-02T07:59:29.469Z</time></trkpt><trkpt lat="46.1391062" lon="13.556904"><ele>394.49999999999994</ele><time>2026-05-02T07:59:30.47Z</time></trkpt><trkpt lat="46.1390805" lon="13.5569877"><ele>392.0</ele><time>2026-05-02T07:59:31.472Z</time></trkpt><trkpt lat="46.139061" lon="13.5571358"><ele>392.0</ele><time>2026-05-02T07:59:33.472Z</time></trkpt><trkpt lat="46.1391647" lon="13.5572538"><ele>392.0</ele><time>2026-05-02T07:59:35.471Z</time></trkpt><trkpt lat="46.1392285" lon="13.5573108"><ele>392.0</ele><time>2026-05-02T07:59:36.472Z</time></trkpt><trkpt lat="46.1393065" lon="13.5573527"><ele>392.0</ele><time>2026-05-02T07:59:37.471Z</time></trkpt><trkpt lat="46.1394012" lon="13.5573713"><ele>392.0</ele><time>2026-05-02T07:59:38.468Z</time></trkpt><trkpt lat="46.1395042" lon="13.5573768"><ele>391.99999999999994</ele><time>2026-05-02T07:59:39.469Z</time></trkpt><trkpt lat="46.1396042" lon="13.5573488"><ele>392.0</ele><time>2026-05-02T07:59:40.468Z</time></trkpt><trkpt lat="46.1396825" lon="13.5573307"><ele>392.0</ele><time>2026-05-02T07:59:41.467Z</time></trkpt><trkpt lat="46.1397583" lon="13.5573222"><ele>392.0</ele><time>2026-05-02T07:59:42.469Z</time></trkpt><trkpt lat="46.1398277" lon="13.5573385"><ele>391.99999999999994</ele><time>2026-05-02T07:59:43.47Z</time></trkpt><trkpt lat="46.139894" lon="13.5573762"><ele>392.0</ele><time>2026-05-02T07:59:44.468Z</time></trkpt><trkpt lat="46.139972" lon="13.5574763"><ele>387.75</ele><time>2026-05-02T07:59:46.471Z</time></trkpt><trkpt lat="46.1399892" lon="13.5576592"><ele>383.5</ele><time>2026-05-02T07:59:48.472Z</time></trkpt><trkpt lat="46.1399482" lon="13.5579085"><ele>379.25</ele><time>2026-05-02T07:59:50.468Z</time></trkpt><trkpt lat="46.1399197" lon="13.5580693"><ele>375.0</ele><time>2026-05-02T07:59:51.469Z</time></trkpt><trkpt lat="46.1398845" lon="13.5582383"><ele>386.5</ele><time>2026-05-02T07:59:52.469Z</time></trkpt><trkpt lat="46.1398608" lon="13.5584125"><ele>398.0</ele><time>2026-05-02T07:59:53.469Z</time></trkpt><trkpt lat="46.1398428" lon="13.5585858"><ele>409.5</ele><time>2026-05-02T07:59:54.467Z</time></trkpt><trkpt lat="46.1398318" lon="13.5587673"><ele>421.0</ele><time>2026-05-02T07:59:55.468Z</time></trkpt><trkpt lat="46.1398298" lon="13.5589247"><ele>422.00000000000006</ele><time>2026-05-02T07:59:56.467Z</time></trkpt><trkpt lat="46.1398177" lon="13.559062"><ele>423.0</ele><time>2026-05-02T07:59:57.468Z</time></trkpt><trkpt lat="46.1398118" lon="13.559181"><ele>424.0</ele><time>2026-05-02T07:59:58.468Z</time></trkpt><trkpt lat="46.1397942" lon="13.5592732"><ele>425.0</ele><time>2026-05-02T07:59:59.468Z</time></trkpt><trkpt lat="46.1397917" lon="13.5594315"><ele>426.00000000000006</ele><time>2026-05-02T08:00:01.465Z</time></trkpt><trkpt lat="46.1398655" lon="13.5595013"><ele>427.0</ele><time>2026-05-02T08:00:03.465Z</time></trkpt><trkpt lat="46.1399835" lon="13.5594822"><ele>417.0</ele><time>2026-05-02T08:00:05.465Z</time></trkpt><trkpt lat="46.1400665" lon="13.5594542"><ele>407.00000000000006</ele><time>2026-05-02T08:00:06.468Z</time></trkpt><trkpt lat="46.1401687" lon="13.5594172"><ele>397.0</ele><time>2026-05-02T08:00:07.466Z</time></trkpt><trkpt lat="46.140287" lon="13.559373"><ele>387.0</ele><time>2026-05-02T08:00:08.467Z</time></trkpt><trkpt lat="46.1404085" lon="13.559331"><ele>377.0</ele><time>2026-05-02T08:00:09.466Z</time></trkpt><trkpt lat="46.140606" lon="13.5592708"><ele>377.0</ele><time>2026-05-02T08:00:11.468Z</time></trkpt><trkpt lat="46.1406815" lon="13.5592193"><ele>377.0</ele><time>2026-05-02T08:00:12.467Z</time></trkpt><trkpt lat="46.140756" lon="13.5591488"><ele>377.0</ele><time>2026-05-02T08:00:13.467Z</time></trkpt><trkpt lat="46.1408167" lon="13.559084"><ele>377.0</ele><time>2026-05-02T08:00:14.467Z</time></trkpt><trkpt lat="46.140888" lon="13.5590572"><ele>377.0</ele><time>2026-05-02T08:00:15.466Z</time></trkpt><trkpt lat="46.1409643" lon="13.5590367"><ele>377.0</ele><time>2026-05-02T08:00:16.466Z</time></trkpt><trkpt lat="46.1410495" lon="13.5590283"><ele>375.0</ele><time>2026-05-02T08:00:17.469Z</time></trkpt><trkpt lat="46.1411257" lon="13.559009"><ele>373.0</ele><time>2026-05-02T08:00:18.469Z</time></trkpt><trkpt lat="46.1412033" lon="13.5589707"><ele>371.0</ele><time>2026-05-02T08:00:19.469Z</time></trkpt><trkpt lat="46.1412813" lon="13.558898"><ele>369.0</ele><time>2026-05-02T08:00:20.47Z</time></trkpt><trkpt lat="46.141364" lon="13.5588047"><ele>367.0</ele><time>2026-05-02T08:00:21.467Z</time></trkpt><trkpt lat="46.14145" lon="13.5587018"><ele>366.8</ele><time>2026-05-02T08:00:22.467Z</time></trkpt><trkpt lat="46.141538" lon="13.5586073"><ele>366.6</ele><time>2026-05-02T08:00:23.469Z</time></trkpt><trkpt lat="46.1416252" lon="13.5585352"><ele>366.40000000000003</ele><time>2026-05-02T08:00:24.468Z</time></trkpt><trkpt lat="46.1417197" lon="13.5584677"><ele>366.20000000000005</ele><time>2026-05-02T08:00:25.467Z</time></trkpt><trkpt lat="46.1418258" lon="13.558401"><ele>366.0</ele><time>2026-05-02T08:00:26.466Z</time></trkpt><trkpt lat="46.141935" lon="13.5583323"><ele>366.0</ele><time>2026-05-02T08:00:27.467Z</time></trkpt><trkpt lat="46.142038" lon="13.5582623"><ele>366.0</ele><time>2026-05-02T08:00:28.468Z</time></trkpt><trkpt lat="46.1421265" lon="13.5582015"><ele>366.0</ele><time>2026-05-02T08:00:29.469Z</time></trkpt><trkpt lat="46.1421988" lon="13.5581528"><ele>366.0</ele><time>2026-05-02T08:00:30.467Z</time></trkpt><trkpt lat="46.1423498" lon="13.5581138"><ele>366.0</ele><time>2026-05-02T08:00:33.468Z</time></trkpt><trkpt lat="46.1423978" lon="13.5582055"><ele>366.0</ele><time>2026-05-02T08:00:35.472Z</time></trkpt><trkpt lat="46.142381" lon="13.558367"><ele>366.0</ele><time>2026-05-02T08:00:37.471Z</time></trkpt><trkpt lat="46.1423683" lon="13.5584972"><ele>366.0</ele><time>2026-05-02T08:00:38.468Z</time></trkpt><trkpt lat="46.1423627" lon="13.558638"><ele>366.0</ele><time>2026-05-02T08:00:39.469Z</time></trkpt><trkpt lat="46.142367" lon="13.5588133"><ele>366.0</ele><time>2026-05-02T08:00:40.468Z</time></trkpt><trkpt lat="46.1423812" lon="13.5589915"><ele>369.5</ele><time>2026-05-02T08:00:41.469Z</time></trkpt><trkpt lat="46.1424007" lon="13.5591345"><ele>373.0</ele><time>2026-05-02T08:00:42.468Z</time></trkpt><trkpt lat="46.1424217" lon="13.55925"><ele>376.5</ele><time>2026-05-02T08:00:43.467Z</time></trkpt><trkpt lat="46.1424618" lon="13.5593753"><ele>380.0</ele><time>2026-05-02T08:00:45.471Z</time></trkpt><trkpt lat="46.1424395" lon="13.5594972"><ele>383.5</ele><time>2026-05-02T08:00:47.472Z</time></trkpt><trkpt lat="46.1423663" lon="13.5594622"><ele>387.0</ele><time>2026-05-02T08:00:50.468Z</time></trkpt><trkpt lat="46.1423167" lon="13.559405"><ele>387.0</ele><time>2026-05-02T08:00:51.467Z</time></trkpt><trkpt lat="46.1421355" lon="13.5592892"><ele>387.0</ele><time>2026-05-02T08:00:54.466Z</time></trkpt><trkpt lat="46.1420662" lon="13.5592905"><ele>387.0</ele><time>2026-05-02T08:00:55.467Z</time></trkpt><trkpt lat="46.1420022" lon="13.5593272"><ele>387.0</ele><time>2026-05-02T08:00:56.468Z</time></trkpt><trkpt lat="46.1419457" lon="13.5593808"><ele>387.0</ele><time>2026-05-02T08:00:57.469Z</time></trkpt><trkpt lat="46.1418857" lon="13.559485"><ele>391.8</ele><time>2026-05-02T08:00:59.469Z</time></trkpt><trkpt lat="46.141922" lon="13.5595783"><ele>396.6</ele><time>2026-05-02T08:01:02.47Z</time></trkpt><trkpt lat="46.1420145" lon="13.5595893"><ele>401.40000000000003</ele><time>2026-05-02T08:01:04.47Z</time></trkpt><trkpt lat="46.142113" lon="13.5596343"><ele>406.20000000000005</ele><time>2026-05-02T08:01:06.472Z</time></trkpt><trkpt lat="46.1422043" lon="13.559778"><ele>411.0</ele><time>2026-05-02T08:01:08.473Z</time></trkpt><trkpt lat="46.1422562" lon="13.5598533"><ele>411.0</ele><time>2026-05-02T08:01:09.474Z</time></trkpt><trkpt lat="46.1422942" lon="13.5599293"><ele>411.0</ele><time>2026-05-02T08:01:10.475Z</time></trkpt><trkpt lat="46.1423248" lon="13.5600157"><ele>411.0</ele><time>2026-05-02T08:01:11.473Z</time></trkpt><trkpt lat="46.1423457" lon="13.560111"><ele>411.0</ele><time>2026-05-02T08:01:12.471Z</time></trkpt><trkpt lat="46.1423583" lon="13.5603533"><ele>411.0</ele><time>2026-05-02T08:01:14.47Z</time></trkpt><trkpt lat="46.1423613" lon="13.5604865"><ele>416.4</ele><time>2026-05-02T08:01:15.469Z</time></trkpt><trkpt lat="46.1423602" lon="13.5606303"><ele>421.8</ele><time>2026-05-02T08:01:16.468Z</time></trkpt><trkpt lat="46.142355" lon="13.5607572"><ele>427.19999999999993</ele><time>2026-05-02T08:01:17.47Z</time></trkpt><trkpt lat="46.1423473" lon="13.5608655"><ele>432.59999999999997</ele><time>2026-05-02T08:01:18.47Z</time></trkpt><trkpt lat="46.1423352" lon="13.5610303"><ele>438.0</ele><time>2026-05-02T08:01:20.473Z</time></trkpt><trkpt lat="46.1423248" lon="13.5611637"><ele>441.5</ele><time>2026-05-02T08:01:22.469Z</time></trkpt><trkpt lat="46.1423127" lon="13.5612743"><ele>445.0</ele><time>2026-05-02T08:01:24.471Z</time></trkpt><trkpt lat="46.1423045" lon="13.5613695"><ele>448.5</ele><time>2026-05-02T08:01:27.473Z</time></trkpt><trkpt lat="46.1422985" lon="13.5615187"><ele>452.0</ele><time>2026-05-02T08:01:34.469Z</time></trkpt><trkpt lat="46.1422227" lon="13.5618388"><ele>451.99999999999994</ele><time>2026-05-02T08:01:38.472Z</time></trkpt><trkpt lat="46.142174" lon="13.561918"><ele>452.0</ele><time>2026-05-02T08:01:39.47Z</time></trkpt><trkpt lat="46.1421297" lon="13.562007"><ele>452.0</ele><time>2026-05-02T08:01:40.468Z</time></trkpt><trkpt lat="46.1420813" lon="13.5621143"><ele>452.0</ele><time>2026-05-02T08:01:41.468Z</time></trkpt><trkpt lat="46.1420317" lon="13.562225"><ele>451.99999999999994</ele><time>2026-05-02T08:01:42.468Z</time></trkpt><trkpt lat="46.1419827" lon="13.5623325"><ele>452.0</ele><time>2026-05-02T08:01:43.469Z</time></trkpt><trkpt lat="46.1419327" lon="13.5624437"><ele>450.99999999999994</ele><time>2026-05-02T08:01:44.469Z</time></trkpt><trkpt lat="46.1418917" lon="13.5625502"><ele>450.0</ele><time>2026-05-02T08:01:45.471Z</time></trkpt><trkpt lat="46.1418698" lon="13.5626395"><ele>449.0</ele><time>2026-05-02T08:01:46.471Z</time></trkpt><trkpt lat="46.1418448" lon="13.5627737"><ele>448.0</ele><time>2026-05-02T08:01:48.472Z</time></trkpt><trkpt lat="46.1418678" lon="13.5629265"><ele>446.99999999999994</ele><time>2026-05-02T08:01:50.468Z</time></trkpt><trkpt lat="46.1418868" lon="13.5630552"><ele>446.0</ele><time>2026-05-02T08:01:52.468Z</time></trkpt><trkpt lat="46.141942" lon="13.5631065"><ele>446.0</ele><time>2026-05-02T08:01:54.469Z</time></trkpt><trkpt lat="46.1420197" lon="13.5630892"><ele>446.0</ele><time>2026-05-02T08:01:56.468Z</time></trkpt><trkpt lat="46.1422305" lon="13.5630213"><ele>446.0</ele><time>2026-05-02T08:02:00.47Z</time></trkpt><trkpt lat="46.1422948" lon="13.5630942"><ele>446.0</ele><time>2026-05-02T08:02:02.469Z</time></trkpt><trkpt lat="46.1423658" lon="13.5631745"><ele>442.4</ele><time>2026-05-02T08:02:04.471Z</time></trkpt><trkpt lat="46.1424617" lon="13.5631977"><ele>438.8</ele><time>2026-05-02T08:02:06.47Z</time></trkpt><trkpt lat="46.142574" lon="13.5631942"><ele>435.19999999999993</ele><time>2026-05-02T08:02:08.47Z</time></trkpt><trkpt lat="46.1426755" lon="13.5632095"><ele>431.59999999999997</ele><time>2026-05-02T08:02:10.472Z</time></trkpt><trkpt lat="46.142742" lon="13.56324"><ele>428.0</ele><time>2026-05-02T08:02:11.47Z</time></trkpt><trkpt lat="46.14281" lon="13.5632638"><ele>428.0</ele><time>2026-05-02T08:02:12.469Z</time></trkpt><trkpt lat="46.142898" lon="13.5633227"><ele>427.99999999999994</ele><time>2026-05-02T08:02:14.471Z</time></trkpt><trkpt lat="46.1429378" lon="13.5633958"><ele>427.99999999999994</ele><time>2026-05-02T08:02:15.473Z</time></trkpt><trkpt lat="46.1429792" lon="13.563546"><ele>428.0</ele><time>2026-05-02T08:02:17.472Z</time></trkpt><trkpt lat="46.1429037" lon="13.563746"><ele>428.0</ele><time>2026-05-02T08:02:22.471Z</time></trkpt><trkpt lat="46.142835" lon="13.5637207"><ele>428.0</ele><time>2026-05-02T08:02:24.47Z</time></trkpt><trkpt lat="46.1427288" lon="13.5636807"><ele>427.99999999999994</ele><time>2026-05-02T08:02:26.467Z</time></trkpt><trkpt lat="46.142622" lon="13.5636977"><ele>427.99999999999994</ele><time>2026-05-02T08:02:28.472Z</time></trkpt><trkpt lat="46.1424992" lon="13.5637445"><ele>428.0</ele><time>2026-05-02T08:02:30.468Z</time></trkpt><trkpt lat="46.1424377" lon="13.5637683"><ele>428.0</ele><time>2026-05-02T08:02:31.466Z</time></trkpt><trkpt lat="46.1423653" lon="13.5637823"><ele>436.59999999999997</ele><time>2026-05-02T08:02:32.468Z</time></trkpt><trkpt lat="46.14226" lon="13.5638042"><ele>445.19999999999993</ele><time>2026-05-02T08:02:34.468Z</time></trkpt><trkpt lat="46.142193" lon="13.5637992"><ele>453.8</ele><time>2026-05-02T08:02:35.471Z</time></trkpt><trkpt lat="46.1420898" lon="13.5638235"><ele>462.4</ele><time>2026-05-02T08:02:37.47Z</time></trkpt><trkpt lat="46.1420295" lon="13.5638588"><ele>471.0</ele><time>2026-05-02T08:02:38.472Z</time></trkpt><trkpt lat="46.141903" lon="13.5639413"><ele>471.0</ele><time>2026-05-02T08:02:40.468Z</time></trkpt><trkpt lat="46.141789" lon="13.5639788"><ele>471.0</ele><time>2026-05-02T08:02:42.47Z</time></trkpt><trkpt lat="46.1416948" lon="13.5639392"><ele>471.0</ele><time>2026-05-02T08:02:44.469Z</time></trkpt><trkpt lat="46.141608" lon="13.5638315"><ele>471.0</ele><time>2026-05-02T08:02:46.467Z</time></trkpt><trkpt lat="46.1415553" lon="13.5637227"><ele>471.0</ele><time>2026-05-02T08:02:48.47Z</time></trkpt><trkpt lat="46.1414715" lon="13.5636438"><ele>474.8</ele><time>2026-05-02T08:02:50.468Z</time></trkpt><trkpt lat="46.1413822" lon="13.5635718"><ele>478.6</ele><time>2026-05-02T08:02:52.467Z</time></trkpt><trkpt lat="46.1413318" lon="13.5634747"><ele>482.4</ele><time>2026-05-02T08:02:54.467Z</time></trkpt><trkpt lat="46.1412948" lon="13.5633183"><ele>486.2</ele><time>2026-05-02T08:02:56.465Z</time></trkpt><trkpt lat="46.1412678" lon="13.5631548"><ele>490.0</ele><time>2026-05-02T08:02:58.467Z</time></trkpt><trkpt lat="46.1412527" lon="13.563065"><ele>490.00000000000006</ele><time>2026-05-02T08:02:59.468Z</time></trkpt><trkpt lat="46.1412457" lon="13.5628675"><ele>490.0</ele><time>2026-05-02T08:03:01.47Z</time></trkpt><trkpt lat="46.1412513" lon="13.5627602"><ele>490.0</ele><time>2026-05-02T08:03:02.47Z</time></trkpt><trkpt lat="46.1412652" lon="13.5626577"><ele>490.0</ele><time>2026-05-02T08:03:03.468Z</time></trkpt><trkpt lat="46.1412825" lon="13.5625482"><ele>490.00000000000006</ele><time>2026-05-02T08:03:04.469Z</time></trkpt><trkpt lat="46.1413112" lon="13.5624343"><ele>490.0</ele><time>2026-05-02T08:03:05.469Z</time></trkpt><trkpt lat="46.1413463" lon="13.562333"><ele>489.6666666666667</ele><time>2026-05-02T08:03:06.469Z</time></trkpt><trkpt lat="46.14138" lon="13.5622228"><ele>489.33333333333337</ele><time>2026-05-02T08:03:07.47Z</time></trkpt><trkpt lat="46.1414253" lon="13.5621038"><ele>489.0</ele><time>2026-05-02T08:03:08.469Z</time></trkpt><trkpt lat="46.1414602" lon="13.5619913"><ele>488.66666666666663</ele><time>2026-05-02T08:03:09.47Z</time></trkpt><trkpt lat="46.1414922" lon="13.5618845"><ele>488.3333333333333</ele><time>2026-05-02T08:03:10.472Z</time></trkpt><trkpt lat="46.1415028" lon="13.5617887"><ele>488.0</ele><time>2026-05-02T08:03:11.472Z</time></trkpt><trkpt lat="46.1414867" lon="13.561657"><ele>484.59999999999997</ele><time>2026-05-02T08:03:13.471Z</time></trkpt><trkpt lat="46.1414092" lon="13.5616013"><ele>481.19999999999993</ele><time>2026-05-02T08:03:15.47Z</time></trkpt><trkpt lat="46.1412903" lon="13.561636"><ele>477.8</ele><time>2026-05-02T08:03:17.472Z</time></trkpt><trkpt lat="46.1412112" lon="13.5616747"><ele>474.4</ele><time>2026-05-02T08:03:18.47Z</time></trkpt><trkpt lat="46.1411205" lon="13.5617215"><ele>471.0</ele><time>2026-05-02T08:03:19.469Z</time></trkpt><trkpt lat="46.1410213" lon="13.5617597"><ele>471.0</ele><time>2026-05-02T08:03:20.467Z</time></trkpt><trkpt lat="46.1408407" lon="13.561819"><ele>471.0</ele><time>2026-05-02T08:03:22.468Z</time></trkpt><trkpt lat="46.1407578" lon="13.5618285"><ele>471.0</ele><time>2026-05-02T08:03:23.472Z</time></trkpt><trkpt lat="46.1406685" lon="13.5618465"><ele>471.0</ele><time>2026-05-02T08:03:24.473Z</time></trkpt><trkpt lat="46.140587" lon="13.5618703"><ele>471.0</ele><time>2026-05-02T08:03:25.472Z</time></trkpt><trkpt lat="46.1405118" lon="13.5619013"><ele>468.6666666666667</ele><time>2026-05-02T08:03:26.47Z</time></trkpt><trkpt lat="46.1404337" lon="13.5619345"><ele>466.33333333333337</ele><time>2026-05-02T08:03:27.472Z</time></trkpt><trkpt lat="46.1403503" lon="13.5619613"><ele>464.0</ele><time>2026-05-02T08:03:28.472Z</time></trkpt><trkpt lat="46.1402692" lon="13.5619942"><ele>461.6666666666667</ele><time>2026-05-02T08:03:29.472Z</time></trkpt><trkpt lat="46.1401982" lon="13.5620182"><ele>459.33333333333337</ele><time>2026-05-02T08:03:30.47Z</time></trkpt><trkpt lat="46.1401323" lon="13.5620275"><ele>457.0</ele><time>2026-05-02T08:03:31.47Z</time></trkpt><trkpt lat="46.1400322" lon="13.562082"><ele>461.0</ele><time>2026-05-02T08:03:33.471Z</time></trkpt><trkpt lat="46.1399327" lon="13.562187"><ele>465.00000000000006</ele><time>2026-05-02T08:03:35.468Z</time></trkpt><trkpt lat="46.1398743" lon="13.5622447"><ele>469.00000000000006</ele><time>2026-05-02T08:03:36.469Z</time></trkpt><trkpt lat="46.139813" lon="13.5622837"><ele>473.0</ele><time>2026-05-02T08:03:37.471Z</time></trkpt><trkpt lat="46.1397042" lon="13.562354"><ele>477.0</ele><time>2026-05-02T08:03:39.472Z</time></trkpt><trkpt lat="46.1396373" lon="13.5624042"><ele>477.0</ele><time>2026-05-02T08:03:40.472Z</time></trkpt><trkpt lat="46.1395685" lon="13.5624748"><ele>477.00000000000006</ele><time>2026-05-02T08:03:41.469Z</time></trkpt><trkpt lat="46.1394162" lon="13.562609"><ele>477.00000000000006</ele><time>2026-05-02T08:03:43.469Z</time></trkpt><trkpt lat="46.1393503" lon="13.562669"><ele>477.0</ele><time>2026-05-02T08:03:44.469Z</time></trkpt><trkpt lat="46.1392942" lon="13.5627302"><ele>477.0</ele><time>2026-05-02T08:03:45.469Z</time></trkpt><trkpt lat="46.1392335" lon="13.5628008"><ele>482.0</ele><time>2026-05-02T08:03:46.467Z</time></trkpt><trkpt lat="46.1391767" lon="13.5628715"><ele>487.0</ele><time>2026-05-02T08:03:47.471Z</time></trkpt><trkpt lat="46.1391238" lon="13.5629302"><ele>492.0</ele><time>2026-05-02T08:03:48.473Z</time></trkpt><trkpt lat="46.1390343" lon="13.5630298"><ele>497.0</ele><time>2026-05-02T08:03:50.471Z</time></trkpt><trkpt lat="46.1389695" lon="13.5630518"><ele>502.0</ele><time>2026-05-02T08:03:52.468Z</time></trkpt><trkpt lat="46.138911" lon="13.5629905"><ele>507.0</ele><time>2026-05-02T08:03:54.468Z</time></trkpt><trkpt lat="46.1388173" lon="13.5628733"><ele>504.1666666666667</ele><time>2026-05-02T08:03:56.468Z</time></trkpt><trkpt lat="46.1387452" lon="13.5628195"><ele>501.33333333333337</ele><time>2026-05-02T08:03:57.469Z</time></trkpt><trkpt lat="46.1386718" lon="13.562774"><ele>498.5</ele><time>2026-05-02T08:03:58.47Z</time></trkpt><trkpt lat="46.1386023" lon="13.5627405"><ele>495.6666666666667</ele><time>2026-05-02T08:03:59.471Z</time></trkpt><trkpt lat="46.1385282" lon="13.5627255"><ele>492.83333333333337</ele><time>2026-05-02T08:04:00.473Z</time></trkpt><trkpt lat="46.1384525" lon="13.5627137"><ele>490.0</ele><time>2026-05-02T08:04:01.473Z</time></trkpt><trkpt lat="46.138374" lon="13.5627037"><ele>501.5</ele><time>2026-05-02T08:04:02.472Z</time></trkpt><trkpt lat="46.1382178" lon="13.5626542"><ele>513.0</ele><time>2026-05-02T08:04:05.471Z</time></trkpt><trkpt lat="46.1381647" lon="13.5625677"><ele>524.5</ele><time>2026-05-02T08:04:07.467Z</time></trkpt><trkpt lat="46.1381303" lon="13.5623862"><ele>536.0</ele><time>2026-05-02T08:04:09.466Z</time></trkpt><trkpt lat="46.138119" lon="13.5622613"><ele>536.0</ele><time>2026-05-02T08:04:10.467Z</time></trkpt><trkpt lat="46.1381097" lon="13.562145"><ele>536.0</ele><time>2026-05-02T08:04:11.468Z</time></trkpt><trkpt lat="46.1381015" lon="13.5620447"><ele>536.0</ele><time>2026-05-02T08:04:12.468Z</time></trkpt><trkpt lat="46.1380932" lon="13.561943"><ele>536.0</ele><time>2026-05-02T08:04:13.474Z</time></trkpt><trkpt lat="46.1380847" lon="13.5618485"><ele>536.0</ele><time>2026-05-02T08:04:14.472Z</time></trkpt><trkpt lat="46.1380753" lon="13.5617498"><ele>536.0</ele><time>2026-05-02T08:04:15.472Z</time></trkpt><trkpt lat="46.1380592" lon="13.561661"><ele>536.0</ele><time>2026-05-02T08:04:16.471Z</time></trkpt><trkpt lat="46.1380177" lon="13.5615652"><ele>536.5714285714286</ele><time>2026-05-02T08:04:17.469Z</time></trkpt><trkpt lat="46.1379818" lon="13.5614687"><ele>537.1428571428571</ele><time>2026-05-02T08:04:18.472Z</time></trkpt><trkpt lat="46.1379477" lon="13.5613657"><ele>537.7142857142857</ele><time>2026-05-02T08:04:19.471Z</time></trkpt><trkpt lat="46.1379187" lon="13.561275"><ele>538.2857142857142</ele><time>2026-05-02T08:04:20.472Z</time></trkpt><trkpt lat="46.1378887" lon="13.5611805"><ele>538.8571428571428</ele><time>2026-05-02T08:04:21.469Z</time></trkpt><trkpt lat="46.1378678" lon="13.56109"><ele>539.4285714285714</ele><time>2026-05-02T08:04:22.467Z</time></trkpt><trkpt lat="46.1378837" lon="13.5609937"><ele>540.0</ele><time>2026-05-02T08:04:23.468Z</time></trkpt><trkpt lat="46.1378797" lon="13.5607865"><ele>540.2857142857142</ele><time>2026-05-02T08:04:25.469Z</time></trkpt><trkpt lat="46.13789" lon="13.5606923"><ele>540.5714285714286</ele><time>2026-05-02T08:04:26.471Z</time></trkpt><trkpt lat="46.1379183" lon="13.5606073"><ele>540.8571428571429</ele><time>2026-05-02T08:04:27.472Z</time></trkpt><trkpt lat="46.1379463" lon="13.560523"><ele>541.1428571428571</ele><time>2026-05-02T08:04:28.472Z</time></trkpt><trkpt lat="46.137984" lon="13.5604382"><ele>541.4285714285714</ele><time>2026-05-02T08:04:29.473Z</time></trkpt><trkpt lat="46.1380322" lon="13.5603503"><ele>541.7142857142857</ele><time>2026-05-02T08:04:30.469Z</time></trkpt><trkpt lat="46.13807" lon="13.5602507"><ele>542.0</ele><time>2026-05-02T08:04:31.468Z</time></trkpt><trkpt lat="46.1380933" lon="13.5601545"><ele>541.3333333333333</ele><time>2026-05-02T08:04:32.468Z</time></trkpt><trkpt lat="46.1380978" lon="13.5599827"><ele>540.6666666666666</ele><time>2026-05-02T08:04:34.468Z</time></trkpt><trkpt lat="46.1380575" lon="13.5598853"><ele>540.0</ele><time>2026-05-02T08:04:35.469Z</time></trkpt><trkpt lat="46.1380185" lon="13.5597858"><ele>539.3333333333334</ele><time>2026-05-02T08:04:36.469Z</time></trkpt><trkpt lat="46.1379693" lon="13.5596928"><ele>538.6666666666667</ele><time>2026-05-02T08:04:37.471Z</time></trkpt><trkpt lat="46.1379185" lon="13.5596105"><ele>538.0</ele><time>2026-05-02T08:04:38.47Z</time></trkpt><trkpt lat="46.1378547" lon="13.5595448"><ele>541.6</ele><time>2026-05-02T08:04:39.474Z</time></trkpt><trkpt lat="46.137791" lon="13.5594902"><ele>545.1999999999999</ele><time>2026-05-02T08:04:40.471Z</time></trkpt><trkpt lat="46.1377185" lon="13.559427"><ele>548.8</ele><time>2026-05-02T08:04:41.47Z</time></trkpt><trkpt lat="46.1376463" lon="13.5593717"><ele>552.4</ele><time>2026-05-02T08:04:42.47Z</time></trkpt><trkpt lat="46.1375175" lon="13.5593387"><ele>556.0</ele><time>2026-05-02T08:04:44.473Z</time></trkpt><trkpt lat="46.137356" lon="13.5592698"><ele>556.0</ele><time>2026-05-02T08:04:47.469Z</time></trkpt><trkpt lat="46.1373085" lon="13.5591435"><ele>556.0</ele><time>2026-05-02T08:04:49.471Z</time></trkpt><trkpt lat="46.1372842" lon="13.5590435"><ele>556.0</ele><time>2026-05-02T08:04:50.472Z</time></trkpt><trkpt lat="46.1372595" lon="13.5589208"><ele>556.0</ele><time>2026-05-02T08:04:51.472Z</time></trkpt><trkpt lat="46.1372393" lon="13.5587963"><ele>556.0</ele><time>2026-05-02T08:04:52.471Z</time></trkpt><trkpt lat="46.1372205" lon="13.5586692"><ele>556.0</ele><time>2026-05-02T08:04:53.469Z</time></trkpt><trkpt lat="46.1372032" lon="13.5585417"><ele>555.5</ele><time>2026-05-02T08:04:54.47Z</time></trkpt><trkpt lat="46.1371897" lon="13.5584222"><ele>555.0</ele><time>2026-05-02T08:04:55.47Z</time></trkpt><trkpt lat="46.1371623" lon="13.5583113"><ele>554.5</ele><time>2026-05-02T08:04:56.467Z</time></trkpt><trkpt lat="46.1371473" lon="13.5582023"><ele>554.0</ele><time>2026-05-02T08:04:57.469Z</time></trkpt><trkpt lat="46.137138" lon="13.5580822"><ele>553.5</ele><time>2026-05-02T08:04:58.469Z</time></trkpt><trkpt lat="46.1371347" lon="13.5579642"><ele>553.0</ele><time>2026-05-02T08:04:59.47Z</time></trkpt><trkpt lat="46.1371397" lon="13.5578357"><ele>552.4</ele><time>2026-05-02T08:05:00.473Z</time></trkpt><trkpt lat="46.1371402" lon="13.5577115"><ele>551.8</ele><time>2026-05-02T08:05:01.47Z</time></trkpt><trkpt lat="46.1371253" lon="13.5575802"><ele>551.2</ele><time>2026-05-02T08:05:02.472Z</time></trkpt><trkpt lat="46.1371053" lon="13.5574473"><ele>550.6</ele><time>2026-05-02T08:05:03.473Z</time></trkpt><trkpt lat="46.1370748" lon="13.557313"><ele>550.0</ele><time>2026-05-02T08:05:04.469Z</time></trkpt><trkpt lat="46.1370543" lon="13.557178"><ele>546.6</ele><time>2026-05-02T08:05:05.471Z</time></trkpt><trkpt lat="46.1370188" lon="13.556896"><ele>543.2</ele><time>2026-05-02T08:05:07.471Z</time></trkpt><trkpt lat="46.1370028" lon="13.5567563"><ele>539.8</ele><time>2026-05-02T08:05:08.471Z</time></trkpt><trkpt lat="46.1369823" lon="13.5566455"><ele>536.4</ele><time>2026-05-02T08:05:09.469Z</time></trkpt><trkpt lat="46.1369547" lon="13.5565567"><ele>533.0</ele><time>2026-05-02T08:05:10.472Z</time></trkpt><trkpt lat="46.1368675" lon="13.5564215"><ele>533.0</ele><time>2026-05-02T08:05:12.473Z</time></trkpt><trkpt lat="46.136802" lon="13.5563635"><ele>533.0</ele><time>2026-05-02T08:05:13.472Z</time></trkpt><trkpt lat="46.1367315" lon="13.556328"><ele>533.0</ele><time>2026-05-02T08:05:14.469Z</time></trkpt><trkpt lat="46.1366668" lon="13.5563237"><ele>533.0</ele><time>2026-05-02T08:05:15.472Z</time></trkpt><trkpt lat="46.1366005" lon="13.5563522"><ele>533.0</ele><time>2026-05-02T08:05:16.472Z</time></trkpt><trkpt lat="46.1365338" lon="13.556398"><ele>533.0</ele><time>2026-05-02T08:05:17.473Z</time></trkpt><trkpt lat="46.1364715" lon="13.5564447"><ele>533.0</ele><time>2026-05-02T08:05:18.47Z</time></trkpt><trkpt lat="46.13641" lon="13.5564953"><ele>533.5</ele><time>2026-05-02T08:05:19.473Z</time></trkpt><trkpt lat="46.1363487" lon="13.5565425"><ele>534.0</ele><time>2026-05-02T08:05:20.473Z</time></trkpt><trkpt lat="46.1362307" lon="13.556575"><ele>534.5</ele><time>2026-05-02T08:05:22.47Z</time></trkpt><trkpt lat="46.1361635" lon="13.5565625"><ele>535.0</ele><time>2026-05-02T08:05:23.469Z</time></trkpt><trkpt lat="46.136084" lon="13.556547"><ele>535.5</ele><time>2026-05-02T08:05:24.468Z</time></trkpt><trkpt lat="46.1360067" lon="13.5565372"><ele>536.0</ele><time>2026-05-02T08:05:25.469Z</time></trkpt><trkpt lat="46.1359177" lon="13.5565433"><ele>536.0</ele><time>2026-05-02T08:05:26.469Z</time></trkpt><trkpt lat="46.1357522" lon="13.55656"><ele>536.0</ele><time>2026-05-02T08:05:28.473Z</time></trkpt><trkpt lat="46.135678" lon="13.5565423"><ele>536.0</ele><time>2026-05-02T08:05:29.472Z</time></trkpt><trkpt lat="46.1356083" lon="13.5565093"><ele>536.0</ele><time>2026-05-02T08:05:30.47Z</time></trkpt><trkpt lat="46.1355368" lon="13.5564668"><ele>536.0</ele><time>2026-05-02T08:05:31.468Z</time></trkpt><trkpt lat="46.1354615" lon="13.556421"><ele>535.0</ele><time>2026-05-02T08:05:32.471Z</time></trkpt><trkpt lat="46.135384" lon="13.556386"><ele>534.0</ele><time>2026-05-02T08:05:33.471Z</time></trkpt><trkpt lat="46.1353185" lon="13.5563402"><ele>533.0</ele><time>2026-05-02T08:05:34.471Z</time></trkpt><trkpt lat="46.1352635" lon="13.5562802"><ele>532.0</ele><time>2026-05-02T08:05:35.471Z</time></trkpt><trkpt lat="46.1351778" lon="13.5561873"><ele>531.0</ele><time>2026-05-02T08:05:37.47Z</time></trkpt><trkpt lat="46.1350972" lon="13.5562147"><ele>530.0</ele><time>2026-05-02T08:05:40.474Z</time></trkpt><trkpt lat="46.1350452" lon="13.556328"><ele>530.0</ele><time>2026-05-02T08:05:42.474Z</time></trkpt><trkpt lat="46.135019" lon="13.5564127"><ele>530.0</ele><time>2026-05-02T08:05:43.473Z</time></trkpt><trkpt lat="46.1349917" lon="13.5564998"><ele>530.0</ele><time>2026-05-02T08:05:44.471Z</time></trkpt><trkpt lat="46.1349728" lon="13.5565875"><ele>530.0</ele><time>2026-05-02T08:05:45.472Z</time></trkpt><trkpt lat="46.134949" lon="13.5567657"><ele>530.0</ele><time>2026-05-02T08:05:47.47Z</time></trkpt><trkpt lat="46.1349337" lon="13.5569787"><ele>530.5</ele><time>2026-05-02T08:05:49.469Z</time></trkpt><trkpt lat="46.1349427" lon="13.5570877"><ele>531.0</ele><time>2026-05-02T08:05:50.47Z</time></trkpt><trkpt lat="46.134956" lon="13.5571933"><ele>531.5</ele><time>2026-05-02T08:05:51.472Z</time></trkpt><trkpt lat="46.1349647" lon="13.5573035"><ele>532.0</ele><time>2026-05-02T08:05:52.47Z</time></trkpt><trkpt lat="46.1349643" lon="13.5574152"><ele>532.5</ele><time>2026-05-02T08:05:53.47Z</time></trkpt><trkpt lat="46.134964" lon="13.557531"><ele>533.0</ele><time>2026-05-02T08:05:54.47Z</time></trkpt><trkpt lat="46.1349647" lon="13.5576505"><ele>533.0</ele><time>2026-05-02T08:05:55.47Z</time></trkpt><trkpt lat="46.1349652" lon="13.5577678"><ele>533.0</ele><time>2026-05-02T08:05:56.473Z</time></trkpt><trkpt lat="46.1349628" lon="13.557883"><ele>533.0</ele><time>2026-05-02T08:05:57.474Z</time></trkpt><trkpt lat="46.134955" lon="13.558"><ele>533.0</ele><time>2026-05-02T08:05:58.473Z</time></trkpt><trkpt lat="46.1349392" lon="13.5581205"><ele>533.0</ele><time>2026-05-02T08:05:59.475Z</time></trkpt><trkpt lat="46.1349153" lon="13.5582458"><ele>533.0</ele><time>2026-05-02T08:06:00.47Z</time></trkpt><trkpt lat="46.1348897" lon="13.558368"><ele>529.5</ele><time>2026-05-02T08:06:01.469Z</time></trkpt><trkpt lat="46.1348632" lon="13.5584745"><ele>526.0</ele><time>2026-05-02T08:06:02.473Z</time></trkpt><trkpt lat="46.1348308" lon="13.5585732"><ele>522.5</ele><time>2026-05-02T08:06:03.471Z</time></trkpt><trkpt lat="46.1347867" lon="13.558667"><ele>519.0</ele><time>2026-05-02T08:06:04.472Z</time></trkpt><trkpt lat="46.1347282" lon="13.5587623"><ele>515.5</ele><time>2026-05-02T08:06:05.468Z</time></trkpt><trkpt lat="46.1346638" lon="13.5588638"><ele>512.0</ele><time>2026-05-02T08:06:06.47Z</time></trkpt><trkpt lat="46.134614" lon="13.5589657"><ele>511.99999999999994</ele><time>2026-05-02T08:06:07.468Z</time></trkpt><trkpt lat="46.1345732" lon="13.559056"><ele>512.0</ele><time>2026-05-02T08:06:08.468Z</time></trkpt><trkpt lat="46.1345438" lon="13.5592575"><ele>512.0</ele><time>2026-05-02T08:06:10.468Z</time></trkpt><trkpt lat="46.1345422" lon="13.5593632"><ele>512.0</ele><time>2026-05-02T08:06:11.467Z</time></trkpt><trkpt lat="46.134555" lon="13.559484"><ele>511.99999999999994</ele><time>2026-05-02T08:06:12.467Z</time></trkpt><trkpt lat="46.1345828" lon="13.5595795"><ele>512.0</ele><time>2026-05-02T08:06:13.47Z</time></trkpt><trkpt lat="46.1346198" lon="13.5596715"><ele>511.49999999999994</ele><time>2026-05-02T08:06:14.473Z</time></trkpt><trkpt lat="46.1346625" lon="13.5597563"><ele>511.0</ele><time>2026-05-02T08:06:15.473Z</time></trkpt><trkpt lat="46.1347175" lon="13.5598457"><ele>510.5</ele><time>2026-05-02T08:06:16.473Z</time></trkpt><trkpt lat="46.1347807" lon="13.559929"><ele>510.0</ele><time>2026-05-02T08:06:17.472Z</time></trkpt><trkpt lat="46.1348453" lon="13.5600127"><ele>509.49999999999994</ele><time>2026-05-02T08:06:18.47Z</time></trkpt><trkpt lat="46.1349053" lon="13.5601047"><ele>509.0</ele><time>2026-05-02T08:06:19.473Z</time></trkpt><trkpt lat="46.1349582" lon="13.560175"><ele>512.1666666666666</ele><time>2026-05-02T08:06:20.473Z</time></trkpt><trkpt lat="46.1350588" lon="13.560243"><ele>515.3333333333333</ele><time>2026-05-02T08:06:22.472Z</time></trkpt><trkpt lat="46.1351283" lon="13.5602665"><ele>518.5</ele><time>2026-05-02T08:06:23.47Z</time></trkpt><trkpt lat="46.1351963" lon="13.560297"><ele>521.6666666666666</ele><time>2026-05-02T08:06:24.47Z</time></trkpt><trkpt lat="46.135267" lon="13.560344"><ele>524.8333333333334</ele><time>2026-05-02T08:06:25.469Z</time></trkpt><trkpt lat="46.1353443" lon="13.5604137"><ele>528.0</ele><time>2026-05-02T08:06:26.468Z</time></trkpt><trkpt lat="46.135402" lon="13.5604702"><ele>528.0</ele><time>2026-05-02T08:06:27.469Z</time></trkpt><trkpt lat="46.1354737" lon="13.5605243"><ele>528.0</ele><time>2026-05-02T08:06:28.472Z</time></trkpt><trkpt lat="46.1356013" lon="13.5605763"><ele>528.0</ele><time>2026-05-02T08:06:30.472Z</time></trkpt><trkpt lat="46.1357637" lon="13.5605887"><ele>528.0</ele><time>2026-05-02T08:06:32.471Z</time></trkpt><trkpt lat="46.1358472" lon="13.5605925"><ele>531.8</ele><time>2026-05-02T08:06:33.473Z</time></trkpt><trkpt lat="46.135924" lon="13.5606035"><ele>535.5999999999999</ele><time>2026-05-02T08:06:34.469Z</time></trkpt><trkpt lat="46.136044" lon="13.5606913"><ele>539.4000000000001</ele><time>2026-05-02T08:06:36.467Z</time></trkpt><trkpt lat="46.1361007" lon="13.560768"><ele>543.2</ele><time>2026-05-02T08:06:37.467Z</time></trkpt><trkpt lat="46.1361673" lon="13.5608802"><ele>547.0</ele><time>2026-05-02T08:06:38.469Z</time></trkpt><trkpt lat="46.1362388" lon="13.5610033"><ele>547.0</ele><time>2026-05-02T08:06:39.47Z</time></trkpt><trkpt lat="46.136307" lon="13.5611203"><ele>547.0</ele><time>2026-05-02T08:06:40.469Z</time></trkpt><trkpt lat="46.136383" lon="13.5612332"><ele>547.0</ele><time>2026-05-02T08:06:41.468Z</time></trkpt><trkpt lat="46.136466" lon="13.5613257"><ele>547.0</ele><time>2026-05-02T08:06:42.469Z</time></trkpt><trkpt lat="46.1365517" lon="13.5614195"><ele>547.0</ele><time>2026-05-02T08:06:43.469Z</time></trkpt><trkpt lat="46.1366367" lon="13.5615083"><ele>546.6</ele><time>2026-05-02T08:06:44.472Z</time></trkpt><trkpt lat="46.1367203" lon="13.5616065"><ele>546.2</ele><time>2026-05-02T08:06:45.472Z</time></trkpt><trkpt lat="46.1368015" lon="13.5617183"><ele>545.8</ele><time>2026-05-02T08:06:46.472Z</time></trkpt><trkpt lat="46.1368655" lon="13.5618283"><ele>545.4</ele><time>2026-05-02T08:06:47.47Z</time></trkpt><trkpt lat="46.1369222" lon="13.5619373"><ele>545.0</ele><time>2026-05-02T08:06:48.469Z</time></trkpt><trkpt lat="46.1369673" lon="13.5620722"><ele>541.75</ele><time>2026-05-02T08:06:49.471Z</time></trkpt><trkpt lat="46.137009" lon="13.5622062"><ele>538.5</ele><time>2026-05-02T08:06:50.474Z</time></trkpt><trkpt lat="46.1370423" lon="13.562318"><ele>535.25</ele><time>2026-05-02T08:06:51.472Z</time></trkpt><trkpt lat="46.1370437" lon="13.5626657"><ele>532.0</ele><time>2026-05-02T08:06:55.472Z</time></trkpt><trkpt lat="46.1370417" lon="13.5627608"><ele>531.3333333333334</ele><time>2026-05-02T08:06:56.473Z</time></trkpt><trkpt lat="46.1370807" lon="13.562924"><ele>530.6666666666667</ele><time>2026-05-02T08:06:58.469Z</time></trkpt><trkpt lat="46.1371113" lon="13.5630107"><ele>530.0</ele><time>2026-05-02T08:06:59.468Z</time></trkpt><trkpt lat="46.1371535" lon="13.5631043"><ele>529.3333333333334</ele><time>2026-05-02T08:07:00.47Z</time></trkpt><trkpt lat="46.1372065" lon="13.5631937"><ele>528.6666666666666</ele><time>2026-05-02T08:07:01.47Z</time></trkpt><trkpt lat="46.137264" lon="13.56325"><ele>528.0</ele><time>2026-05-02T08:07:02.47Z</time></trkpt><trkpt lat="46.137392" lon="13.5633063"><ele>531.0</ele><time>2026-05-02T08:07:04.47Z</time></trkpt><trkpt lat="46.1374777" lon="13.5633353"><ele>534.0</ele><time>2026-05-02T08:07:05.47Z</time></trkpt><trkpt lat="46.1375733" lon="13.5633683"><ele>537.0</ele><time>2026-05-02T08:07:06.469Z</time></trkpt><trkpt lat="46.137663" lon="13.5634147"><ele>540.0</ele><time>2026-05-02T08:07:07.469Z</time></trkpt><trkpt lat="46.1377457" lon="13.563475"><ele>543.0</ele><time>2026-05-02T08:07:08.468Z</time></trkpt><trkpt lat="46.1378207" lon="13.563514"><ele>543.0</ele><time>2026-05-02T08:07:09.469Z</time></trkpt><trkpt lat="46.1378952" lon="13.5635292"><ele>543.0</ele><time>2026-05-02T08:07:10.468Z</time></trkpt><trkpt lat="46.1379648" lon="13.5635133"><ele>543.0</ele><time>2026-05-02T08:07:11.469Z</time></trkpt><trkpt lat="46.1380787" lon="13.5635187"><ele>543.0</ele><time>2026-05-02T08:07:13.475Z</time></trkpt><trkpt lat="46.1382148" lon="13.5636895"><ele>543.0</ele><time>2026-05-02T08:07:16.469Z</time></trkpt><trkpt lat="46.1382672" lon="13.563748"><ele>544.5714285714286</ele><time>2026-05-02T08:07:17.469Z</time></trkpt><trkpt lat="46.1383372" lon="13.5637682"><ele>546.1428571428571</ele><time>2026-05-02T08:07:18.472Z</time></trkpt><trkpt lat="46.138418" lon="13.563786"><ele>547.7142857142857</ele><time>2026-05-02T08:07:19.47Z</time></trkpt><trkpt lat="46.1384905" lon="13.5638133"><ele>549.2857142857142</ele><time>2026-05-02T08:07:20.47Z</time></trkpt><trkpt lat="46.1385632" lon="13.5638167"><ele>550.8571428571428</ele><time>2026-05-02T08:07:21.471Z</time></trkpt><trkpt lat="46.1386322" lon="13.5638033"><ele>552.4285714285714</ele><time>2026-05-02T08:07:22.468Z</time></trkpt><trkpt lat="46.1387013" lon="13.5637928"><ele>554.0</ele><time>2026-05-02T08:07:23.468Z</time></trkpt><trkpt lat="46.1387778" lon="13.563797"><ele>554.0</ele><time>2026-05-02T08:07:24.467Z</time></trkpt><trkpt lat="46.138858" lon="13.5638058"><ele>554.0</ele><time>2026-05-02T08:07:25.466Z</time></trkpt><trkpt lat="46.138948" lon="13.5638358"><ele>554.0</ele><time>2026-05-02T08:07:26.465Z</time></trkpt><trkpt lat="46.1390353" lon="13.5638645"><ele>554.0</ele><time>2026-05-02T08:07:27.467Z</time></trkpt><trkpt lat="46.1391135" lon="13.5638828"><ele>554.0</ele><time>2026-05-02T08:07:28.469Z</time></trkpt><trkpt lat="46.139177" lon="13.5638855"><ele>554.0</ele><time>2026-05-02T08:07:29.469Z</time></trkpt><trkpt lat="46.139247" lon="13.5638673"><ele>550.8</ele><time>2026-05-02T08:07:30.47Z</time></trkpt><trkpt lat="46.1393137" lon="13.5638237"><ele>547.5999999999999</ele><time>2026-05-02T08:07:31.47Z</time></trkpt><trkpt lat="46.1393772" lon="13.5637747"><ele>544.4</ele><time>2026-05-02T08:07:32.468Z</time></trkpt><trkpt lat="46.1394338" lon="13.5637313"><ele>541.1999999999999</ele><time>2026-05-02T08:07:33.47Z</time></trkpt><trkpt lat="46.139536" lon="13.5636677"><ele>538.0</ele><time>2026-05-02T08:07:35.471Z</time></trkpt><trkpt lat="46.1397152" lon="13.5639145"><ele>538.0</ele><time>2026-05-02T08:07:39.469Z</time></trkpt><trkpt lat="46.1397613" lon="13.564016"><ele>538.0</ele><time>2026-05-02T08:07:40.467Z</time></trkpt><trkpt lat="46.1398135" lon="13.5641452"><ele>538.0</ele><time>2026-05-02T08:07:41.468Z</time></trkpt><trkpt lat="46.1398622" lon="13.564248"><ele>538.0</ele><time>2026-05-02T08:07:42.47Z</time></trkpt><trkpt lat="46.1399248" lon="13.5643475"><ele>538.0</ele><time>2026-05-02T08:07:43.469Z</time></trkpt><trkpt lat="46.1399902" lon="13.5644058"><ele>538.0</ele><time>2026-05-02T08:07:44.47Z</time></trkpt><trkpt lat="46.1400588" lon="13.5644577"><ele>537.0</ele><time>2026-05-02T08:07:45.472Z</time></trkpt><trkpt lat="46.1401175" lon="13.5645115"><ele>536.0</ele><time>2026-05-02T08:07:46.467Z</time></trkpt><trkpt lat="46.1401683" lon="13.5645698"><ele>535.0</ele><time>2026-05-02T08:07:47.467Z</time></trkpt><trkpt lat="46.1402243" lon="13.5646443"><ele>534.0</ele><time>2026-05-02T08:07:48.467Z</time></trkpt><trkpt lat="46.1402853" lon="13.5647222"><ele>533.0</ele><time>2026-05-02T08:07:49.468Z</time></trkpt><trkpt lat="46.1403503" lon="13.5647837"><ele>532.0</ele><time>2026-05-02T08:07:50.468Z</time></trkpt><trkpt lat="46.1404107" lon="13.5648127"><ele>531.0</ele><time>2026-05-02T08:07:51.469Z</time></trkpt><trkpt lat="46.140508" lon="13.5649022"><ele>529.0</ele><time>2026-05-02T08:07:53.468Z</time></trkpt><trkpt lat="46.1405882" lon="13.565065"><ele>527.0</ele><time>2026-05-02T08:07:55.469Z</time></trkpt><trkpt lat="46.140648" lon="13.56514"><ele>525.0</ele><time>2026-05-02T08:07:56.471Z</time></trkpt><trkpt lat="46.1407758" lon="13.565261"><ele>523.0</ele><time>2026-05-02T08:07:58.471Z</time></trkpt><trkpt lat="46.1408418" lon="13.5653027"><ele>521.0</ele><time>2026-05-02T08:07:59.468Z</time></trkpt><trkpt lat="46.1409577" lon="13.5653327"><ele>526.8</ele><time>2026-05-02T08:08:01.471Z</time></trkpt><trkpt lat="46.1410398" lon="13.5654073"><ele>532.6</ele><time>2026-05-02T08:08:03.468Z</time></trkpt><trkpt lat="46.1410677" lon="13.5655698"><ele>538.4</ele><time>2026-05-02T08:08:05.468Z</time></trkpt><trkpt lat="46.1410637" lon="13.5656702"><ele>544.2</ele><time>2026-05-02T08:08:06.47Z</time></trkpt><trkpt lat="46.1410827" lon="13.5658477"><ele>550.0</ele><time>2026-05-02T08:08:07.471Z</time></trkpt><trkpt lat="46.1411017" lon="13.5659883"><ele>550.0</ele><time>2026-05-02T08:08:08.468Z</time></trkpt><trkpt lat="46.1411197" lon="13.5660957"><ele>550.0</ele><time>2026-05-02T08:08:09.469Z</time></trkpt><trkpt lat="46.1411242" lon="13.5662008"><ele>550.0</ele><time>2026-05-02T08:08:10.468Z</time></trkpt><trkpt lat="46.1411107" lon="13.566304"><ele>550.0</ele><time>2026-05-02T08:08:11.468Z</time></trkpt><trkpt lat="46.141094" lon="13.5664173"><ele>550.0</ele><time>2026-05-02T08:08:12.467Z</time></trkpt><trkpt lat="46.1410722" lon="13.5665405"><ele>550.0</ele><time>2026-05-02T08:08:13.469Z</time></trkpt><trkpt lat="46.1410612" lon="13.5666772"><ele>552.8</ele><time>2026-05-02T08:08:14.468Z</time></trkpt><trkpt lat="46.1410622" lon="13.5668097"><ele>555.6</ele><time>2026-05-02T08:08:15.47Z</time></trkpt><trkpt lat="46.1410553" lon="13.566919"><ele>558.4</ele><time>2026-05-02T08:08:16.469Z</time></trkpt><trkpt lat="46.1410738" lon="13.5670347"><ele>561.2</ele><time>2026-05-02T08:08:17.468Z</time></trkpt><trkpt lat="46.141127" lon="13.5672762"><ele>564.0</ele><time>2026-05-02T08:08:19.472Z</time></trkpt><trkpt lat="46.1411478" lon="13.5674047"><ele>564.8</ele><time>2026-05-02T08:08:20.472Z</time></trkpt><trkpt lat="46.1411627" lon="13.5675593"><ele>565.5999999999999</ele><time>2026-05-02T08:08:21.473Z</time></trkpt><trkpt lat="46.1411698" lon="13.5677175"><ele>566.4</ele><time>2026-05-02T08:08:22.47Z</time></trkpt><trkpt lat="46.1411723" lon="13.5678698"><ele>567.1999999999999</ele><time>2026-05-02T08:08:23.469Z</time></trkpt><trkpt lat="46.1411695" lon="13.5680253"><ele>568.0</ele><time>2026-05-02T08:08:24.469Z</time></trkpt><trkpt lat="46.1411635" lon="13.5681763"><ele>568.8</ele><time>2026-05-02T08:08:25.47Z</time></trkpt><trkpt lat="46.141163" lon="13.5683233"><ele>569.5999999999999</ele><time>2026-05-02T08:08:26.473Z</time></trkpt><trkpt lat="46.1411598" lon="13.5684598"><ele>570.4000000000001</ele><time>2026-05-02T08:08:27.472Z</time></trkpt><trkpt lat="46.141148" lon="13.5685947"><ele>571.2</ele><time>2026-05-02T08:08:28.472Z</time></trkpt><trkpt lat="46.1411522" lon="13.5687453"><ele>572.0</ele><time>2026-05-02T08:08:29.473Z</time></trkpt><trkpt lat="46.1411513" lon="13.5688945"><ele>572.5</ele><time>2026-05-02T08:08:30.47Z</time></trkpt><trkpt lat="46.1411517" lon="13.5690387"><ele>573.0</ele><time>2026-05-02T08:08:31.472Z</time></trkpt><trkpt lat="46.141148" lon="13.569165"><ele>573.5</ele><time>2026-05-02T08:08:32.472Z</time></trkpt><trkpt lat="46.1411632" lon="13.5692853"><ele>574.0</ele><time>2026-05-02T08:08:33.473Z</time></trkpt><trkpt lat="46.1411622" lon="13.5694"><ele>574.5</ele><time>2026-05-02T08:08:34.469Z</time></trkpt><trkpt lat="46.1411588" lon="13.5695037"><ele>575.0</ele><time>2026-05-02T08:08:35.47Z</time></trkpt><trkpt lat="46.1411568" lon="13.569604"><ele>575.0</ele><time>2026-05-02T08:08:36.469Z</time></trkpt><trkpt lat="46.1411462" lon="13.5696937"><ele>575.0</ele><time>2026-05-02T08:08:37.468Z</time></trkpt><trkpt lat="46.1411535" lon="13.5698453"><ele>575.0</ele><time>2026-05-02T08:08:39.468Z</time></trkpt><trkpt lat="46.1412852" lon="13.5699682"><ele>575.0</ele><time>2026-05-02T08:08:42.47Z</time></trkpt><trkpt lat="46.1413483" lon="13.5700003"><ele>575.0</ele><time>2026-05-02T08:08:43.472Z</time></trkpt><trkpt lat="46.14142" lon="13.5700203"><ele>575.0</ele><time>2026-05-02T08:08:44.472Z</time></trkpt><trkpt lat="46.1414975" lon="13.5700145"><ele>575.0</ele><time>2026-05-02T08:08:45.472Z</time></trkpt><trkpt lat="46.141583" lon="13.5700127"><ele>575.0</ele><time>2026-05-02T08:08:46.469Z</time></trkpt><trkpt lat="46.1416563" lon="13.5700057"><ele>575.0</ele><time>2026-05-02T08:08:47.469Z</time></trkpt><trkpt lat="46.1417353" lon="13.570012"><ele>575.0</ele><time>2026-05-02T08:08:48.472Z</time></trkpt><trkpt lat="46.141806" lon="13.5700198"><ele>575.0</ele><time>2026-05-02T08:08:49.471Z</time></trkpt><trkpt lat="46.1418792" lon="13.5700432"><ele>567.8571428571429</ele><time>2026-05-02T08:08:50.471Z</time></trkpt><trkpt lat="46.141956" lon="13.5700587"><ele>560.7142857142857</ele><time>2026-05-02T08:08:51.47Z</time></trkpt><trkpt lat="46.142036" lon="13.5700727"><ele>553.5714285714286</ele><time>2026-05-02T08:08:52.468Z</time></trkpt><trkpt lat="46.142112" lon="13.5700942"><ele>546.4285714285714</ele><time>2026-05-02T08:08:53.468Z</time></trkpt><trkpt lat="46.1421823" lon="13.57011"><ele>539.2857142857142</ele><time>2026-05-02T08:08:54.47Z</time></trkpt><trkpt lat="46.1422503" lon="13.5701138"><ele>532.1428571428571</ele><time>2026-05-02T08:08:55.468Z</time></trkpt><trkpt lat="46.1423237" lon="13.5701072"><ele>525.0</ele><time>2026-05-02T08:08:56.468Z</time></trkpt><trkpt lat="46.1424232" lon="13.5700913"><ele>526.0</ele><time>2026-05-02T08:08:58.468Z</time></trkpt><trkpt lat="46.1424978" lon="13.5701455"><ele>527.0</ele><time>2026-05-02T08:09:00.472Z</time></trkpt><trkpt lat="46.1425157" lon="13.5704367"><ele>528.0</ele><time>2026-05-02T08:09:04.468Z</time></trkpt><trkpt lat="46.1424887" lon="13.5705277"><ele>529.0</ele><time>2026-05-02T08:09:05.472Z</time></trkpt><trkpt lat="46.142473" lon="13.5706358"><ele>530.0</ele><time>2026-05-02T08:09:06.471Z</time></trkpt><trkpt lat="46.1424648" lon="13.5707563"><ele>530.0</ele><time>2026-05-02T08:09:07.469Z</time></trkpt><trkpt lat="46.1424473" lon="13.570867"><ele>530.0</ele><time>2026-05-02T08:09:08.47Z</time></trkpt><trkpt lat="46.1424362" lon="13.5709657"><ele>530.0</ele><time>2026-05-02T08:09:09.469Z</time></trkpt><trkpt lat="46.1424583" lon="13.5711218"><ele>530.0</ele><time>2026-05-02T08:09:11.471Z</time></trkpt><trkpt lat="46.1425295" lon="13.5712207"><ele>530.0</ele><time>2026-05-02T08:09:13.469Z</time></trkpt><trkpt lat="46.1426428" lon="13.5712535"><ele>532.2</ele><time>2026-05-02T08:09:15.472Z</time></trkpt><trkpt lat="46.142759" lon="13.5712375"><ele>534.4</ele><time>2026-05-02T08:09:17.469Z</time></trkpt><trkpt lat="46.142879" lon="13.5711943"><ele>536.6</ele><time>2026-05-02T08:09:19.476Z</time></trkpt><trkpt lat="46.1429432" lon="13.5712007"><ele>538.8</ele><time>2026-05-02T08:09:20.472Z</time></trkpt><trkpt lat="46.143006" lon="13.5712158"><ele>541.0</ele><time>2026-05-02T08:09:21.473Z</time></trkpt><trkpt lat="46.1431935" lon="13.5712498"><ele>538.6666666666667</ele><time>2026-05-02T08:09:24.469Z</time></trkpt><trkpt lat="46.1433153" lon="13.5712052"><ele>536.3333333333334</ele><time>2026-05-02T08:09:26.47Z</time></trkpt><trkpt lat="46.14338" lon="13.5711603"><ele>534.0</ele><time>2026-05-02T08:09:27.469Z</time></trkpt><trkpt lat="46.1434452" lon="13.5711123"><ele>531.6666666666666</ele><time>2026-05-02T08:09:28.469Z</time></trkpt><trkpt lat="46.143521" lon="13.571074"><ele>529.3333333333333</ele><time>2026-05-02T08:09:29.467Z</time></trkpt><trkpt lat="46.143605" lon="13.5710447"><ele>527.0</ele><time>2026-05-02T08:09:30.469Z</time></trkpt><trkpt lat="46.143703" lon="13.5710345"><ele>524.5</ele><time>2026-05-02T08:09:31.469Z</time></trkpt><trkpt lat="46.1437907" lon="13.5710177"><ele>522.0</ele><time>2026-05-02T08:09:32.469Z</time></trkpt><trkpt lat="46.1438698" lon="13.5710132"><ele>519.5</ele><time>2026-05-02T08:09:33.47Z</time></trkpt><trkpt lat="46.1439558" lon="13.571012"><ele>517.0</ele><time>2026-05-02T08:09:34.47Z</time></trkpt><trkpt lat="46.1440375" lon="13.571012"><ele>514.5</ele><time>2026-05-02T08:09:35.469Z</time></trkpt><trkpt lat="46.1441157" lon="13.5710233"><ele>512.0</ele><time>2026-05-02T08:09:36.47Z</time></trkpt><trkpt lat="46.1441853" lon="13.571018"><ele>509.8</ele><time>2026-05-02T08:09:37.471Z</time></trkpt><trkpt lat="46.1442505" lon="13.5710132"><ele>507.6</ele><time>2026-05-02T08:09:38.471Z</time></trkpt><trkpt lat="46.1443135" lon="13.5709915"><ele>505.40000000000003</ele><time>2026-05-02T08:09:39.469Z</time></trkpt><trkpt lat="46.1443752" lon="13.5709713"><ele>503.20000000000005</ele><time>2026-05-02T08:09:40.469Z</time></trkpt><trkpt lat="46.1444968" lon="13.5709472"><ele>501.0</ele><time>2026-05-02T08:09:42.469Z</time></trkpt><trkpt lat="46.1446517" lon="13.5709637"><ele>501.0</ele><time>2026-05-02T08:09:44.469Z</time></trkpt><trkpt lat="46.1447288" lon="13.5709732"><ele>501.0</ele><time>2026-05-02T08:09:45.472Z</time></trkpt><trkpt lat="46.1448018" lon="13.5709877"><ele>501.0</ele><time>2026-05-02T08:09:46.473Z</time></trkpt><trkpt lat="46.1448675" lon="13.5710085"><ele>501.0</ele><time>2026-05-02T08:09:47.472Z</time></trkpt><trkpt lat="46.1449748" lon="13.5710717"><ele>501.0</ele><time>2026-05-02T08:09:49.47Z</time></trkpt><trkpt lat="46.1450287" lon="13.5711828"><ele>501.0</ele><time>2026-05-02T08:09:51.47Z</time></trkpt><trkpt lat="46.1450465" lon="13.571353"><ele>502.4</ele><time>2026-05-02T08:09:53.468Z</time></trkpt><trkpt lat="46.1450458" lon="13.5714457"><ele>503.8</ele><time>2026-05-02T08:09:54.47Z</time></trkpt><trkpt lat="46.1450513" lon="13.571558"><ele>505.19999999999993</ele><time>2026-05-02T08:09:55.469Z</time></trkpt><trkpt lat="46.1450347" lon="13.5717247"><ele>506.59999999999997</ele><time>2026-05-02T08:09:57.469Z</time></trkpt><trkpt lat="46.1450225" lon="13.5718938"><ele>508.0</ele><time>2026-05-02T08:09:59.472Z</time></trkpt><trkpt lat="46.1449953" lon="13.5720458"><ele>508.0</ele><time>2026-05-02T08:10:01.472Z</time></trkpt><trkpt lat="46.1449672" lon="13.5721435"><ele>507.99999999999994</ele><time>2026-05-02T08:10:02.47Z</time></trkpt><trkpt lat="46.1449418" lon="13.5722633"><ele>507.99999999999994</ele><time>2026-05-02T08:10:03.472Z</time></trkpt><trkpt lat="46.1448993" lon="13.5725098"><ele>508.0</ele><time>2026-05-02T08:10:05.472Z</time></trkpt><trkpt lat="46.1448602" lon="13.5726215"><ele>508.0</ele><time>2026-05-02T08:10:06.471Z</time></trkpt><trkpt lat="46.1448277" lon="13.572729"><ele>512.6666666666667</ele><time>2026-05-02T08:10:07.47Z</time></trkpt><trkpt lat="46.1447995" lon="13.5728283"><ele>517.3333333333334</ele><time>2026-05-02T08:10:08.471Z</time></trkpt><trkpt lat="46.1447777" lon="13.5729228"><ele>522.0</ele><time>2026-05-02T08:10:09.471Z</time></trkpt><trkpt lat="46.1447843" lon="13.5731042"><ele>526.6666666666666</ele><time>2026-05-02T08:10:11.47Z</time></trkpt><trkpt lat="46.1448067" lon="13.573204"><ele>531.3333333333333</ele><time>2026-05-02T08:10:12.471Z</time></trkpt><trkpt lat="46.1448357" lon="13.5733057"><ele>536.0</ele><time>2026-05-02T08:10:13.473Z</time></trkpt><trkpt lat="46.1448672" lon="13.5734028"><ele>528.8333333333333</ele><time>2026-05-02T08:10:14.471Z</time></trkpt><trkpt lat="46.1449005" lon="13.5734953"><ele>521.6666666666666</ele><time>2026-05-02T08:10:15.471Z</time></trkpt><trkpt lat="46.1449267" lon="13.573585"><ele>514.5</ele><time>2026-05-02T08:10:16.468Z</time></trkpt><trkpt lat="46.144939" lon="13.5736788"><ele>507.33333333333337</ele><time>2026-05-02T08:10:17.47Z</time></trkpt><trkpt lat="46.1449453" lon="13.5737802"><ele>500.1666666666667</ele><time>2026-05-02T08:10:18.471Z</time></trkpt><trkpt lat="46.1449408" lon="13.5739538"><ele>493.0</ele><time>2026-05-02T08:10:20.469Z</time></trkpt><trkpt lat="46.1449045" lon="13.5740477"><ele>493.59999999999997</ele><time>2026-05-02T08:10:21.469Z</time></trkpt><trkpt lat="46.1448727" lon="13.5741422"><ele>494.19999999999993</ele><time>2026-05-02T08:10:22.468Z</time></trkpt><trkpt lat="46.1448395" lon="13.5742365"><ele>494.8</ele><time>2026-05-02T08:10:23.469Z</time></trkpt><trkpt lat="46.1448013" lon="13.5743307"><ele>495.4</ele><time>2026-05-02T08:10:24.468Z</time></trkpt><trkpt lat="46.1446898" lon="13.5745902"><ele>496.0</ele><time>2026-05-02T08:10:28.468Z</time></trkpt><trkpt lat="46.1446863" lon="13.5747135"><ele>496.0</ele><time>2026-05-02T08:10:30.469Z</time></trkpt><trkpt lat="46.1446918" lon="13.5748897"><ele>496.0</ele><time>2026-05-02T08:10:32.471Z</time></trkpt><trkpt lat="46.1447042" lon="13.5750028"><ele>496.0</ele><time>2026-05-02T08:10:33.472Z</time></trkpt><trkpt lat="46.1447118" lon="13.5751027"><ele>496.0</ele><time>2026-05-02T08:10:34.471Z</time></trkpt><trkpt lat="46.144714" lon="13.5752672"><ele>496.0</ele><time>2026-05-02T08:10:36.472Z</time></trkpt><trkpt lat="46.1446785" lon="13.5754075"><ele>490.6</ele><time>2026-05-02T08:10:38.472Z</time></trkpt><trkpt lat="46.1445942" lon="13.5755287"><ele>485.20000000000005</ele><time>2026-05-02T08:10:40.468Z</time></trkpt><trkpt lat="46.1445385" lon="13.5755767"><ele>479.79999999999995</ele><time>2026-05-02T08:10:41.467Z</time></trkpt><trkpt lat="46.1444367" lon="13.5756618"><ele>474.4</ele><time>2026-05-02T08:10:43.469Z</time></trkpt><trkpt lat="46.1443177" lon="13.5757315"><ele>469.0</ele><time>2026-05-02T08:10:45.47Z</time></trkpt><trkpt lat="46.1441812" lon="13.5758078"><ele>469.00000000000006</ele><time>2026-05-02T08:10:47.469Z</time></trkpt><trkpt lat="46.1441117" lon="13.5758502"><ele>469.0</ele><time>2026-05-02T08:10:48.468Z</time></trkpt><trkpt lat="46.144052" lon="13.5758998"><ele>469.0</ele><time>2026-05-02T08:10:49.468Z</time></trkpt><trkpt lat="46.143951" lon="13.5759872"><ele>469.0</ele><time>2026-05-02T08:10:51.468Z</time></trkpt><trkpt lat="46.1438885" lon="13.5760783"><ele>469.00000000000006</ele><time>2026-05-02T08:10:53.468Z</time></trkpt><trkpt lat="46.1438485" lon="13.5761938"><ele>469.0</ele><time>2026-05-02T08:10:55.469Z</time></trkpt><trkpt lat="46.143849" lon="13.5762997"><ele>467.1666666666667</ele><time>2026-05-02T08:10:57.47Z</time></trkpt><trkpt lat="46.1439408" lon="13.5763683"><ele>465.33333333333337</ele><time>2026-05-02T08:11:00.472Z</time></trkpt><trkpt lat="46.1440423" lon="13.5764543"><ele>463.5</ele><time>2026-05-02T08:11:02.471Z</time></trkpt><trkpt lat="46.1441023" lon="13.5765175"><ele>461.66666666666663</ele><time>2026-05-02T08:11:03.47Z</time></trkpt><trkpt lat="46.1441548" lon="13.5765867"><ele>459.8333333333333</ele><time>2026-05-02T08:11:04.471Z</time></trkpt><trkpt lat="46.1442007" lon="13.5766622"><ele>458.0</ele><time>2026-05-02T08:11:05.47Z</time></trkpt><trkpt lat="46.1442432" lon="13.5767468"><ele>458.0</ele><time>2026-05-02T08:11:06.469Z</time></trkpt><trkpt lat="46.1443123" lon="13.5769365"><ele>457.99999999999994</ele><time>2026-05-02T08:11:08.473Z</time></trkpt><trkpt lat="46.144344" lon="13.5770443"><ele>457.99999999999994</ele><time>2026-05-02T08:11:09.473Z</time></trkpt><trkpt lat="46.1443678" lon="13.5771348"><ele>458.0</ele><time>2026-05-02T08:11:10.473Z</time></trkpt><trkpt lat="46.1443673" lon="13.5773068"><ele>458.0</ele><time>2026-05-02T08:11:12.471Z</time></trkpt><trkpt lat="46.1443268" lon="13.577477"><ele>458.16666666666663</ele><time>2026-05-02T08:11:14.47Z</time></trkpt><trkpt lat="46.1442963" lon="13.5775608"><ele>458.3333333333333</ele><time>2026-05-02T08:11:15.473Z</time></trkpt><trkpt lat="46.1442635" lon="13.5776553"><ele>458.5</ele><time>2026-05-02T08:11:16.472Z</time></trkpt><trkpt lat="46.144225" lon="13.5777573"><ele>458.66666666666663</ele><time>2026-05-02T08:11:17.472Z</time></trkpt><trkpt lat="46.1441898" lon="13.577855"><ele>458.8333333333333</ele><time>2026-05-02T08:11:18.472Z</time></trkpt><trkpt lat="46.1441552" lon="13.577935"><ele>459.0</ele><time>2026-05-02T08:11:19.47Z</time></trkpt><trkpt lat="46.1440968" lon="13.5780618"><ele>458.6</ele><time>2026-05-02T08:11:21.47Z</time></trkpt><trkpt lat="46.1440877" lon="13.5781547"><ele>458.2</ele><time>2026-05-02T08:11:23.47Z</time></trkpt><trkpt lat="46.144146" lon="13.5782298"><ele>457.80000000000007</ele><time>2026-05-02T08:11:26.468Z</time></trkpt><trkpt lat="46.144218" lon="13.5782427"><ele>457.40000000000003</ele><time>2026-05-02T08:11:28.467Z</time></trkpt><trkpt lat="46.1444305" lon="13.5782497"><ele>457.0</ele><time>2026-05-02T08:11:32.469Z</time></trkpt><trkpt lat="46.1444985" lon="13.5782442"><ele>457.0</ele><time>2026-05-02T08:11:33.469Z</time></trkpt><trkpt lat="46.1446205" lon="13.5782228"><ele>457.0</ele><time>2026-05-02T08:11:35.469Z</time></trkpt><trkpt lat="46.1447322" lon="13.5782053"><ele>457.0</ele><time>2026-05-02T08:11:37.472Z</time></trkpt><trkpt lat="46.1448518" lon="13.5782002"><ele>457.0</ele><time>2026-05-02T08:11:39.47Z</time></trkpt><trkpt lat="46.14495" lon="13.578205"><ele>455.83333333333337</ele><time>2026-05-02T08:11:41.471Z</time></trkpt><trkpt lat="46.1450142" lon="13.5782612"><ele>454.6666666666667</ele><time>2026-05-02T08:11:43.469Z</time></trkpt><trkpt lat="46.145101" lon="13.578369"><ele>453.5</ele><time>2026-05-02T08:11:45.469Z</time></trkpt><trkpt lat="46.145162" lon="13.5784207"><ele>452.33333333333337</ele><time>2026-05-02T08:11:46.469Z</time></trkpt><trkpt lat="46.1452245" lon="13.5784495"><ele>451.1666666666667</ele><time>2026-05-02T08:11:47.475Z</time></trkpt><trkpt lat="46.1453267" lon="13.5785225"><ele>450.0</ele><time>2026-05-02T08:11:49.472Z</time></trkpt><trkpt lat="46.1453835" lon="13.5787277"><ele>450.0</ele><time>2026-05-02T08:11:52.471Z</time></trkpt><trkpt lat="46.1453813" lon="13.5788362"><ele>450.0</ele><time>2026-05-02T08:11:53.47Z</time></trkpt><trkpt lat="46.1453577" lon="13.5790113"><ele>450.0</ele><time>2026-05-02T08:11:55.466Z</time></trkpt><trkpt lat="46.1453602" lon="13.5791733"><ele>450.0</ele><time>2026-05-02T08:11:57.468Z</time></trkpt><trkpt lat="46.1454088" lon="13.5793425"><ele>450.0</ele><time>2026-05-02T08:11:59.468Z</time></trkpt><trkpt lat="46.14546" lon="13.5794768"><ele>453.4</ele><time>2026-05-02T08:12:01.468Z</time></trkpt><trkpt lat="46.1455342" lon="13.5795572"><ele>456.8</ele><time>2026-05-02T08:12:03.469Z</time></trkpt><trkpt lat="46.145618" lon="13.579585"><ele>460.20000000000005</ele><time>2026-05-02T08:12:05.468Z</time></trkpt><trkpt lat="46.1457002" lon="13.579544"><ele>463.6</ele><time>2026-05-02T08:12:07.468Z</time></trkpt><trkpt lat="46.1458148" lon="13.5794747"><ele>467.0</ele><time>2026-05-02T08:12:09.468Z</time></trkpt><trkpt lat="46.1458912" lon="13.579398"><ele>457.0</ele><time>2026-05-02T08:12:11.468Z</time></trkpt><trkpt lat="46.1460098" lon="13.5791408"><ele>447.00000000000006</ele><time>2026-05-02T08:12:15.47Z</time></trkpt><trkpt lat="46.146056" lon="13.5790733"><ele>437.0</ele><time>2026-05-02T08:12:16.469Z</time></trkpt><trkpt lat="46.1461047" lon="13.5790062"><ele>427.0</ele><time>2026-05-02T08:12:17.468Z</time></trkpt><trkpt lat="46.1461568" lon="13.578946"><ele>417.0</ele><time>2026-05-02T08:12:18.467Z</time></trkpt><trkpt lat="46.1462085" lon="13.578886"><ele>417.0</ele><time>2026-05-02T08:12:19.468Z</time></trkpt><trkpt lat="46.1462655" lon="13.5788357"><ele>417.0</ele><time>2026-05-02T08:12:20.469Z</time></trkpt><trkpt lat="46.1463145" lon="13.5787743"><ele>417.0</ele><time>2026-05-02T08:12:21.47Z</time></trkpt><trkpt lat="46.1463913" lon="13.5786302"><ele>417.0</ele><time>2026-05-02T08:12:23.468Z</time></trkpt><trkpt lat="46.1464368" lon="13.578564"><ele>417.0</ele><time>2026-05-02T08:12:24.468Z</time></trkpt><trkpt lat="46.1464702" lon="13.5784868"><ele>417.0</ele><time>2026-05-02T08:12:25.468Z</time></trkpt><trkpt lat="46.1465473" lon="13.5783677"><ele>413.25</ele><time>2026-05-02T08:12:27.468Z</time></trkpt><trkpt lat="46.1466398" lon="13.578263"><ele>409.5</ele><time>2026-05-02T08:12:29.468Z</time></trkpt><trkpt lat="46.1467465" lon="13.5782053"><ele>405.75</ele><time>2026-05-02T08:12:31.47Z</time></trkpt><trkpt lat="46.1468482" lon="13.578123"><ele>402.0</ele><time>2026-05-02T08:12:33.471Z</time></trkpt><trkpt lat="46.1469698" lon="13.5779247"><ele>402.0</ele><time>2026-05-02T08:12:36.469Z</time></trkpt><trkpt lat="46.1470093" lon="13.5778533"><ele>402.0</ele><time>2026-05-02T08:12:37.47Z</time></trkpt><trkpt lat="46.1470518" lon="13.5777815"><ele>402.0</ele><time>2026-05-02T08:12:38.47Z</time></trkpt><trkpt lat="46.1471017" lon="13.5777095"><ele>402.0</ele><time>2026-05-02T08:12:39.47Z</time></trkpt><trkpt lat="46.1471502" lon="13.577644"><ele>402.0</ele><time>2026-05-02T08:12:40.468Z</time></trkpt><trkpt lat="46.1472038" lon="13.5775823"><ele>402.0</ele><time>2026-05-02T08:12:41.468Z</time></trkpt><trkpt lat="46.1472523" lon="13.5775185"><ele>402.0</ele><time>2026-05-02T08:12:42.468Z</time></trkpt><trkpt lat="46.1473045" lon="13.5774527"><ele>401.6</ele><time>2026-05-02T08:12:43.467Z</time></trkpt><trkpt lat="46.1473567" lon="13.577395"><ele>401.20000000000005</ele><time>2026-05-02T08:12:44.466Z</time></trkpt><trkpt lat="46.1474707" lon="13.5773302"><ele>400.8</ele><time>2026-05-02T08:12:46.469Z</time></trkpt><trkpt lat="46.1475905" lon="13.5772978"><ele>400.4</ele><time>2026-05-02T08:12:48.471Z</time></trkpt><trkpt lat="46.1477013" lon="13.5772878"><ele>400.0</ele><time>2026-05-02T08:12:50.47Z</time></trkpt><trkpt lat="46.1477905" lon="13.5772413"><ele>400.0</ele><time>2026-05-02T08:12:52.471Z</time></trkpt><trkpt lat="46.147853" lon="13.5770822"><ele>400.0</ele><time>2026-05-02T08:12:54.468Z</time></trkpt><trkpt lat="46.1479215" lon="13.576901"><ele>400.0</ele><time>2026-05-02T08:12:56.467Z</time></trkpt><trkpt lat="46.1479647" lon="13.5768238"><ele>400.0</ele><time>2026-05-02T08:12:57.47Z</time></trkpt><trkpt lat="46.1480197" lon="13.5767627"><ele>400.0</ele><time>2026-05-02T08:12:58.47Z</time></trkpt><trkpt lat="46.148092" lon="13.5767217"><ele>398.50000000000006</ele><time>2026-05-02T08:12:59.468Z</time></trkpt><trkpt lat="46.1481635" lon="13.576682"><ele>397.0</ele><time>2026-05-02T08:13:00.47Z</time></trkpt><trkpt lat="46.1482405" lon="13.5766492"><ele>395.5</ele><time>2026-05-02T08:13:01.47Z</time></trkpt><trkpt lat="46.1483203" lon="13.5766277"><ele>394.0</ele><time>2026-05-02T08:13:02.469Z</time></trkpt><trkpt lat="46.1483963" lon="13.5766065"><ele>392.50000000000006</ele><time>2026-05-02T08:13:03.469Z</time></trkpt><trkpt lat="46.1484618" lon="13.5765822"><ele>391.0</ele><time>2026-05-02T08:13:04.467Z</time></trkpt><trkpt lat="46.1485295" lon="13.5765553"><ele>391.00000000000006</ele><time>2026-05-02T08:13:05.467Z</time></trkpt><trkpt lat="46.1485987" lon="13.5765212"><ele>391.0</ele><time>2026-05-02T08:13:06.467Z</time></trkpt><trkpt lat="46.1486615" lon="13.5764772"><ele>391.0</ele><time>2026-05-02T08:13:07.466Z</time></trkpt><trkpt lat="46.1487262" lon="13.5764302"><ele>391.0</ele><time>2026-05-02T08:13:08.466Z</time></trkpt><trkpt lat="46.1487832" lon="13.5763858"><ele>391.00000000000006</ele><time>2026-05-02T08:13:09.467Z</time></trkpt><trkpt lat="46.1488952" lon="13.5763718"><ele>391.0</ele><time>2026-05-02T08:13:11.468Z</time></trkpt><trkpt lat="46.148991" lon="13.5764655"><ele>391.20000000000005</ele><time>2026-05-02T08:13:13.47Z</time></trkpt><trkpt lat="46.1490477" lon="13.5765643"><ele>391.40000000000003</ele><time>2026-05-02T08:13:14.471Z</time></trkpt><trkpt lat="46.1490935" lon="13.5766682"><ele>391.6</ele><time>2026-05-02T08:13:15.469Z</time></trkpt><trkpt lat="46.1491555" lon="13.5769068"><ele>391.8</ele><time>2026-05-02T08:13:17.472Z</time></trkpt><trkpt lat="46.1491713" lon="13.5770215"><ele>392.0</ele><time>2026-05-02T08:13:18.472Z</time></trkpt><trkpt lat="46.149183" lon="13.5771293"><ele>395.16666666666663</ele><time>2026-05-02T08:13:19.472Z</time></trkpt><trkpt lat="46.1492073" lon="13.5772432"><ele>398.3333333333333</ele><time>2026-05-02T08:13:20.471Z</time></trkpt><trkpt lat="46.1492255" lon="13.577353"><ele>401.5</ele><time>2026-05-02T08:13:21.468Z</time></trkpt><trkpt lat="46.149241" lon="13.5774548"><ele>404.66666666666663</ele><time>2026-05-02T08:13:22.467Z</time></trkpt><trkpt lat="46.1492762" lon="13.5775823"><ele>407.8333333333333</ele><time>2026-05-02T08:13:24.469Z</time></trkpt><trkpt lat="46.1493565" lon="13.5776098"><ele>411.0</ele><time>2026-05-02T08:13:26.47Z</time></trkpt><trkpt lat="46.1494703" lon="13.5776235"><ele>411.0</ele><time>2026-05-02T08:13:28.468Z</time></trkpt><trkpt lat="46.149592" lon="13.5775825"><ele>411.0</ele><time>2026-05-02T08:13:30.47Z</time></trkpt><trkpt lat="46.1497062" lon="13.5775235"><ele>411.0</ele><time>2026-05-02T08:13:32.468Z</time></trkpt><trkpt lat="46.1498002" lon="13.5775498"><ele>411.0</ele><time>2026-05-02T08:13:34.468Z</time></trkpt><trkpt lat="46.1498717" lon="13.577651"><ele>411.0</ele><time>2026-05-02T08:13:36.468Z</time></trkpt><trkpt lat="46.1500383" lon="13.5776973"><ele>406.0</ele><time>2026-05-02T08:13:40.468Z</time></trkpt><trkpt lat="46.150146" lon="13.577621"><ele>401.0</ele><time>2026-05-02T08:13:42.471Z</time></trkpt><trkpt lat="46.150208" lon="13.577579"><ele>396.0</ele><time>2026-05-02T08:13:43.471Z</time></trkpt><trkpt lat="46.1503102" lon="13.5775428"><ele>391.0</ele><time>2026-05-02T08:13:45.468Z</time></trkpt><trkpt lat="46.1503922" lon="13.5776103"><ele>386.0</ele><time>2026-05-02T08:13:47.472Z</time></trkpt><trkpt lat="46.1504648" lon="13.5777095"><ele>386.0</ele><time>2026-05-02T08:13:49.472Z</time></trkpt><trkpt lat="46.1505385" lon="13.577799"><ele>386.0</ele><time>2026-05-02T08:13:51.473Z</time></trkpt><trkpt lat="46.1506285" lon="13.5778042"><ele>386.0</ele><time>2026-05-02T08:13:53.471Z</time></trkpt><trkpt lat="46.150739" lon="13.577744"><ele>386.0</ele><time>2026-05-02T08:13:55.468Z</time></trkpt><trkpt lat="46.1508032" lon="13.5777212"><ele>386.0</ele><time>2026-05-02T08:13:56.469Z</time></trkpt><trkpt lat="46.1509097" lon="13.5777255"><ele>389.20000000000005</ele><time>2026-05-02T08:13:58.468Z</time></trkpt><trkpt lat="46.150999" lon="13.5778978"><ele>392.40000000000003</ele><time>2026-05-02T08:14:01.473Z</time></trkpt><trkpt lat="46.1510308" lon="13.5780028"><ele>395.6</ele><time>2026-05-02T08:14:02.472Z</time></trkpt><trkpt lat="46.1510577" lon="13.5780868"><ele>398.8</ele><time>2026-05-02T08:14:03.472Z</time></trkpt><trkpt lat="46.1511387" lon="13.5782113"><ele>402.0</ele><time>2026-05-02T08:14:05.469Z</time></trkpt><trkpt lat="46.1512463" lon="13.5782593"><ele>402.0</ele><time>2026-05-02T08:14:07.47Z</time></trkpt><trkpt lat="46.1513172" lon="13.5782407"><ele>402.0</ele><time>2026-05-02T08:14:08.47Z</time></trkpt><trkpt lat="46.1513963" lon="13.5782108"><ele>402.0</ele><time>2026-05-02T08:14:09.472Z</time></trkpt><trkpt lat="46.1514703" lon="13.5781813"><ele>402.0</ele><time>2026-05-02T08:14:10.47Z</time></trkpt><trkpt lat="46.151534" lon="13.5781363"><ele>402.0</ele><time>2026-05-02T08:14:11.472Z</time></trkpt><trkpt lat="46.151635" lon="13.5781067"><ele>402.0</ele><time>2026-05-02T08:14:13.473Z</time></trkpt><trkpt lat="46.1517253" lon="13.578163"><ele>398.40000000000003</ele><time>2026-05-02T08:14:15.473Z</time></trkpt><trkpt lat="46.151773" lon="13.5782778"><ele>394.8</ele><time>2026-05-02T08:14:17.473Z</time></trkpt><trkpt lat="46.1517883" lon="13.5784373"><ele>391.2</ele><time>2026-05-02T08:14:19.469Z</time></trkpt><trkpt lat="46.1517578" lon="13.578626"><ele>387.6</ele><time>2026-05-02T08:14:21.468Z</time></trkpt><trkpt lat="46.1517272" lon="13.5787223"><ele>384.0</ele><time>2026-05-02T08:14:22.468Z</time></trkpt><trkpt lat="46.1516953" lon="13.5788138"><ele>384.0</ele><time>2026-05-02T08:14:23.467Z</time></trkpt><trkpt lat="46.1516533" lon="13.5789012"><ele>384.0</ele><time>2026-05-02T08:14:24.47Z</time></trkpt><trkpt lat="46.1516067" lon="13.5790085"><ele>384.0</ele><time>2026-05-02T08:14:25.47Z</time></trkpt><trkpt lat="46.1515658" lon="13.5791325"><ele>384.0</ele><time>2026-05-02T08:14:26.469Z</time></trkpt><trkpt lat="46.1515367" lon="13.579227"><ele>384.0</ele><time>2026-05-02T08:14:27.47Z</time></trkpt><trkpt lat="46.1515115" lon="13.5793112"><ele>384.0</ele><time>2026-05-02T08:14:28.472Z</time></trkpt><trkpt lat="46.1515" lon="13.5794027"><ele>385.1666666666667</ele><time>2026-05-02T08:14:29.473Z</time></trkpt><trkpt lat="46.1514895" lon="13.5794945"><ele>386.33333333333337</ele><time>2026-05-02T08:14:30.473Z</time></trkpt><trkpt lat="46.1514598" lon="13.5796485"><ele>387.5</ele><time>2026-05-02T08:14:32.47Z</time></trkpt><trkpt lat="46.1514905" lon="13.5797392"><ele>388.6666666666667</ele><time>2026-05-02T08:14:34.469Z</time></trkpt><trkpt lat="46.1515762" lon="13.5797845"><ele>389.83333333333337</ele><time>2026-05-02T08:14:36.472Z</time></trkpt><trkpt lat="46.151672" lon="13.579808"><ele>391.0</ele><time>2026-05-02T08:14:38.471Z</time></trkpt><trkpt lat="46.151754" lon="13.579841"><ele>391.0</ele><time>2026-05-02T08:14:40.469Z</time></trkpt><trkpt lat="46.1518988" lon="13.5799607"><ele>391.0</ele><time>2026-05-02T08:14:43.472Z</time></trkpt><trkpt lat="46.1519558" lon="13.5800005"><ele>391.0</ele><time>2026-05-02T08:14:44.468Z</time></trkpt><trkpt lat="46.152025" lon="13.5800858"><ele>391.0</ele><time>2026-05-02T08:14:46.468Z</time></trkpt><trkpt lat="46.1520657" lon="13.5802122"><ele>391.0</ele><time>2026-05-02T08:14:48.469Z</time></trkpt><trkpt lat="46.152132" lon="13.580284"><ele>391.0</ele><time>2026-05-02T08:14:50.47Z</time></trkpt><trkpt lat="46.152251" lon="13.5803457"><ele>391.0</ele><time>2026-05-02T08:14:52.469Z</time></trkpt><trkpt lat="46.152316" lon="13.580383"><ele>391.0</ele><time>2026-05-02T08:14:53.471Z</time></trkpt><trkpt lat="46.1523822" lon="13.5804165"><ele>391.0</ele><time>2026-05-02T08:14:54.472Z</time></trkpt><trkpt lat="46.152486" lon="13.5804902"><ele>391.0</ele><time>2026-05-02T08:14:56.471Z</time></trkpt><trkpt lat="46.1525277" lon="13.5805707"><ele>386.6</ele><time>2026-05-02T08:14:58.467Z</time></trkpt><trkpt lat="46.152499" lon="13.5806897"><ele>382.20000000000005</ele><time>2026-05-02T08:15:00.467Z</time></trkpt><trkpt lat="46.1524728" lon="13.5807902"><ele>377.79999999999995</ele><time>2026-05-02T08:15:01.468Z</time></trkpt><trkpt lat="46.152407" lon="13.581019"><ele>373.4</ele><time>2026-05-02T08:15:03.469Z</time></trkpt><trkpt lat="46.1523658" lon="13.5811557"><ele>369.0</ele><time>2026-05-02T08:15:04.474Z</time></trkpt><trkpt lat="46.1523092" lon="13.5812535"><ele>376.6666666666667</ele><time>2026-05-02T08:15:05.473Z</time></trkpt><trkpt lat="46.1522658" lon="13.5813447"><ele>384.33333333333337</ele><time>2026-05-02T08:15:06.473Z</time></trkpt><trkpt lat="46.1522253" lon="13.5814473"><ele>392.0</ele><time>2026-05-02T08:15:07.471Z</time></trkpt><trkpt lat="46.1521945" lon="13.5815295"><ele>399.6666666666667</ele><time>2026-05-02T08:15:08.468Z</time></trkpt><trkpt lat="46.1521618" lon="13.5816233"><ele>407.33333333333337</ele><time>2026-05-02T08:15:09.468Z</time></trkpt><trkpt lat="46.1521323" lon="13.5817058"><ele>415.0</ele><time>2026-05-02T08:15:10.467Z</time></trkpt><trkpt lat="46.1521085" lon="13.5818568"><ele>415.0</ele><time>2026-05-02T08:15:12.472Z</time></trkpt><trkpt lat="46.1521483" lon="13.5819642"><ele>415.0</ele><time>2026-05-02T08:15:14.47Z</time></trkpt><trkpt lat="46.1522348" lon="13.5820412"><ele>415.0</ele><time>2026-05-02T08:15:16.468Z</time></trkpt><trkpt lat="46.1522913" lon="13.582141"><ele>415.0</ele><time>2026-05-02T08:15:18.472Z</time></trkpt><trkpt lat="46.152315" lon="13.5822913"><ele>415.0</ele><time>2026-05-02T08:15:20.472Z</time></trkpt><trkpt lat="46.1523055" lon="13.58245"><ele>415.5</ele><time>2026-05-02T08:15:22.472Z</time></trkpt><trkpt lat="46.1523638" lon="13.582618"><ele>416.0</ele><time>2026-05-02T08:15:26.469Z</time></trkpt><trkpt lat="46.1524692" lon="13.5826338"><ele>416.5</ele><time>2026-05-02T08:15:28.469Z</time></trkpt><trkpt lat="46.152569" lon="13.5826797"><ele>417.0</ele><time>2026-05-02T08:15:30.472Z</time></trkpt><trkpt lat="46.152671" lon="13.5827473"><ele>412.40000000000003</ele><time>2026-05-02T08:15:32.471Z</time></trkpt><trkpt lat="46.152772" lon="13.5827773"><ele>407.8</ele><time>2026-05-02T08:15:34.466Z</time></trkpt><trkpt lat="46.1528348" lon="13.5828057"><ele>403.2</ele><time>2026-05-02T08:15:35.467Z</time></trkpt><trkpt lat="46.1529327" lon="13.5828732"><ele>398.6</ele><time>2026-05-02T08:15:37.472Z</time></trkpt><trkpt lat="46.1530252" lon="13.5829425"><ele>394.0</ele><time>2026-05-02T08:15:39.467Z</time></trkpt><trkpt lat="46.1531382" lon="13.58296"><ele>388.0</ele><time>2026-05-02T08:15:41.469Z</time></trkpt><trkpt lat="46.1532358" lon="13.5829685"><ele>382.0</ele><time>2026-05-02T08:15:43.47Z</time></trkpt><trkpt lat="46.1534188" lon="13.5830683"><ele>376.0</ele><time>2026-05-02T08:15:46.47Z</time></trkpt><trkpt lat="46.1534882" lon="13.583107"><ele>370.0</ele><time>2026-05-02T08:15:47.468Z</time></trkpt><trkpt lat="46.1535617" lon="13.5831478"><ele>364.0</ele><time>2026-05-02T08:15:48.466Z</time></trkpt><trkpt lat="46.1536327" lon="13.5831873"><ele>364.0</ele><time>2026-05-02T08:15:49.47Z</time></trkpt><trkpt lat="46.153697" lon="13.5832133"><ele>364.0</ele><time>2026-05-02T08:15:50.468Z</time></trkpt><trkpt lat="46.1538035" lon="13.5832728"><ele>364.0</ele><time>2026-05-02T08:15:52.468Z</time></trkpt><trkpt lat="46.1539117" lon="13.5833772"><ele>364.0</ele><time>2026-05-02T08:15:54.471Z</time></trkpt><trkpt lat="46.1540078" lon="13.5835107"><ele>364.0</ele><time>2026-05-02T08:15:56.471Z</time></trkpt><trkpt lat="46.1540578" lon="13.5835872"><ele>364.0</ele><time>2026-05-02T08:15:57.471Z</time></trkpt><trkpt lat="46.1541205" lon="13.5837048"><ele>364.0</ele><time>2026-05-02T08:15:59.467Z</time></trkpt><trkpt lat="46.1541292" lon="13.583797"><ele>364.0</ele><time>2026-05-02T08:16:00.469Z</time></trkpt><trkpt lat="46.1541337" lon="13.5839122"><ele>364.0</ele><time>2026-05-02T08:16:01.467Z</time></trkpt><trkpt lat="46.1541328" lon="13.5840615"><ele>364.0</ele><time>2026-05-02T08:16:03.471Z</time></trkpt><trkpt lat="46.1541418" lon="13.5841742"><ele>364.0</ele><time>2026-05-02T08:16:04.472Z</time></trkpt><trkpt lat="46.1541767" lon="13.5843665"><ele>363.6</ele><time>2026-05-02T08:16:06.47Z</time></trkpt><trkpt lat="46.1542" lon="13.5845385"><ele>363.2</ele><time>2026-05-02T08:16:08.472Z</time></trkpt><trkpt lat="46.1542082" lon="13.584634"><ele>362.8</ele><time>2026-05-02T08:16:09.472Z</time></trkpt><trkpt lat="46.1541835" lon="13.5848185"><ele>362.40000000000003</ele><time>2026-05-02T08:16:11.473Z</time></trkpt><trkpt lat="46.1541618" lon="13.5849157"><ele>362.0</ele><time>2026-05-02T08:16:12.472Z</time></trkpt><trkpt lat="46.1541237" lon="13.5850045"><ele>362.0</ele><time>2026-05-02T08:16:13.471Z</time></trkpt><trkpt lat="46.1540583" lon="13.58514"><ele>362.0</ele><time>2026-05-02T08:16:15.469Z</time></trkpt><trkpt lat="46.153974" lon="13.5852408"><ele>362.0</ele><time>2026-05-02T08:16:17.47Z</time></trkpt><trkpt lat="46.1538952" lon="13.5853143"><ele>362.0</ele><time>2026-05-02T08:16:19.47Z</time></trkpt><trkpt lat="46.153807" lon="13.5853865"><ele>362.0</ele><time>2026-05-02T08:16:21.468Z</time></trkpt><trkpt lat="46.1537728" lon="13.5854807"><ele>368.75</ele><time>2026-05-02T08:16:23.469Z</time></trkpt><trkpt lat="46.1537695" lon="13.5855943"><ele>375.5</ele><time>2026-05-02T08:16:25.469Z</time></trkpt><trkpt lat="46.1537402" lon="13.5858865"><ele>382.25</ele><time>2026-05-02T08:16:29.469Z</time></trkpt><trkpt lat="46.1536987" lon="13.5860662"><ele>389.0</ele><time>2026-05-02T08:16:31.473Z</time></trkpt><trkpt lat="46.1536838" lon="13.5861593"><ele>389.16666666666663</ele><time>2026-05-02T08:16:32.472Z</time></trkpt><trkpt lat="46.153662" lon="13.5862615"><ele>389.3333333333333</ele><time>2026-05-02T08:16:33.472Z</time></trkpt><trkpt lat="46.1536375" lon="13.5863672"><ele>389.5</ele><time>2026-05-02T08:16:34.472Z</time></trkpt><trkpt lat="46.153619" lon="13.586473"><ele>389.66666666666663</ele><time>2026-05-02T08:16:35.473Z</time></trkpt><trkpt lat="46.1535877" lon="13.5865795"><ele>389.8333333333333</ele><time>2026-05-02T08:16:36.472Z</time></trkpt><trkpt lat="46.1535543" lon="13.5866883"><ele>390.0</ele><time>2026-05-02T08:16:37.473Z</time></trkpt><trkpt lat="46.1535332" lon="13.5867948"><ele>390.0</ele><time>2026-05-02T08:16:38.47Z</time></trkpt><trkpt lat="46.1535208" lon="13.5869097"><ele>390.0</ele><time>2026-05-02T08:16:39.472Z</time></trkpt><trkpt lat="46.1534995" lon="13.5870222"><ele>390.0</ele><time>2026-05-02T08:16:40.472Z</time></trkpt><trkpt lat="46.1534835" lon="13.5871308"><ele>390.0</ele><time>2026-05-02T08:16:41.473Z</time></trkpt><trkpt lat="46.153457" lon="13.5872423"><ele>390.0</ele><time>2026-05-02T08:16:42.473Z</time></trkpt><trkpt lat="46.1534345" lon="13.5873542"><ele>390.0</ele><time>2026-05-02T08:16:43.469Z</time></trkpt><trkpt lat="46.1534178" lon="13.587463"><ele>389.0</ele><time>2026-05-02T08:16:44.471Z</time></trkpt><trkpt lat="46.1533865" lon="13.5875683"><ele>388.0</ele><time>2026-05-02T08:16:45.47Z</time></trkpt><trkpt lat="46.1533505" lon="13.587675"><ele>387.0</ele><time>2026-05-02T08:16:46.469Z</time></trkpt><trkpt lat="46.1532948" lon="13.5878915"><ele>386.0</ele><time>2026-05-02T08:16:48.467Z</time></trkpt><trkpt lat="46.1532687" lon="13.5879917"><ele>385.0</ele><time>2026-05-02T08:16:49.47Z</time></trkpt><trkpt lat="46.153245" lon="13.5880937"><ele>383.7142857142857</ele><time>2026-05-02T08:16:50.47Z</time></trkpt><trkpt lat="46.1532123" lon="13.588194"><ele>382.42857142857144</ele><time>2026-05-02T08:16:51.472Z</time></trkpt><trkpt lat="46.153183" lon="13.5882823"><ele>381.1428571428571</ele><time>2026-05-02T08:16:52.47Z</time></trkpt><trkpt lat="46.1531377" lon="13.5883493"><ele>379.8571428571429</ele><time>2026-05-02T08:16:53.471Z</time></trkpt><trkpt lat="46.1530778" lon="13.5884093"><ele>378.57142857142856</ele><time>2026-05-02T08:16:54.473Z</time></trkpt><trkpt lat="46.1530097" lon="13.5884658"><ele>377.2857142857143</ele><time>2026-05-02T08:16:55.472Z</time></trkpt><trkpt lat="46.1529545" lon="13.5885163"><ele>376.0</ele><time>2026-05-02T08:16:56.471Z</time></trkpt><trkpt lat="46.1528622" lon="13.5885815"><ele>382.6</ele><time>2026-05-02T08:16:58.468Z</time></trkpt><trkpt lat="46.1527902" lon="13.5886032"><ele>389.20000000000005</ele><time>2026-05-02T08:17:00.468Z</time></trkpt><trkpt lat="46.152719" lon="13.5886095"><ele>395.79999999999995</ele><time>2026-05-02T08:17:05.471Z</time></trkpt><trkpt lat="46.1526538" lon="13.588618"><ele>402.4</ele><time>2026-05-02T08:17:16.472Z</time></trkpt><trkpt lat="46.1524655" lon="13.5886473"><ele>409.0</ele><time>2026-05-02T08:17:32.469Z</time></trkpt><trkpt lat="46.1523603" lon="13.5886427"><ele>409.0</ele><time>2026-05-02T08:17:34.47Z</time></trkpt><trkpt lat="46.1522397" lon="13.5885967"><ele>409.0</ele><time>2026-05-02T08:17:36.468Z</time></trkpt><trkpt lat="46.1521715" lon="13.5885537"><ele>409.0</ele><time>2026-05-02T08:17:37.466Z</time></trkpt><trkpt lat="46.1520122" lon="13.5885175"><ele>409.0</ele><time>2026-05-02T08:17:39.466Z</time></trkpt><trkpt lat="46.1519262" lon="13.5884892"><ele>409.0</ele><time>2026-05-02T08:17:40.466Z</time></trkpt><trkpt lat="46.1518735" lon="13.5884393"><ele>409.0</ele><time>2026-05-02T08:17:41.469Z</time></trkpt><trkpt lat="46.1518058" lon="13.5884013"><ele>409.0</ele><time>2026-05-02T08:17:42.467Z</time></trkpt><trkpt lat="46.151727" lon="13.588339"><ele>409.0</ele><time>2026-05-02T08:17:43.47Z</time></trkpt><trkpt lat="46.1516368" lon="13.5882542"><ele>409.0</ele><time>2026-05-02T08:17:44.47Z</time></trkpt><trkpt lat="46.1515592" lon="13.588175"><ele>409.0</ele><time>2026-05-02T08:17:45.471Z</time></trkpt><trkpt lat="46.151485" lon="13.5881025"><ele>407.4</ele><time>2026-05-02T08:17:46.467Z</time></trkpt><trkpt lat="46.1514053" lon="13.5880313"><ele>405.79999999999995</ele><time>2026-05-02T08:17:47.47Z</time></trkpt><trkpt lat="46.1513325" lon="13.5879632"><ele>404.20000000000005</ele><time>2026-05-02T08:17:48.471Z</time></trkpt><trkpt lat="46.1512648" lon="13.587927"><ele>402.6</ele><time>2026-05-02T08:17:49.468Z</time></trkpt><trkpt lat="46.1511438" lon="13.587906"><ele>401.0</ele><time>2026-05-02T08:17:51.467Z</time></trkpt><trkpt lat="46.1510453" lon="13.5879267"><ele>401.0</ele><time>2026-05-02T08:17:53.468Z</time></trkpt><trkpt lat="46.150976" lon="13.5879915"><ele>401.0</ele><time>2026-05-02T08:17:55.471Z</time></trkpt><trkpt lat="46.1509392" lon="13.5881097"><ele>401.0</ele><time>2026-05-02T08:17:57.471Z</time></trkpt><trkpt lat="46.1508565" lon="13.5882203"><ele>401.0</ele><time>2026-05-02T08:17:59.468Z</time></trkpt><trkpt lat="46.1506793" lon="13.5882958"><ele>405.6</ele><time>2026-05-02T08:18:02.469Z</time></trkpt><trkpt lat="46.1505853" lon="13.5883302"><ele>410.20000000000005</ele><time>2026-05-02T08:18:04.471Z</time></trkpt><trkpt lat="46.1505168" lon="13.5883465"><ele>414.79999999999995</ele><time>2026-05-02T08:18:06.47Z</time></trkpt><trkpt lat="46.1504313" lon="13.5883588"><ele>419.4</ele><time>2026-05-02T08:18:09.468Z</time></trkpt><trkpt lat="46.1503363" lon="13.5883698"><ele>424.0</ele><time>2026-05-02T08:18:11.472Z</time></trkpt><trkpt lat="46.1502318" lon="13.5883553"><ele>424.0</ele><time>2026-05-02T08:18:13.471Z</time></trkpt><trkpt lat="46.1501212" lon="13.5883512"><ele>424.0</ele><time>2026-05-02T08:18:15.472Z</time></trkpt><trkpt lat="46.150044" lon="13.588409"><ele>424.0</ele><time>2026-05-02T08:18:18.472Z</time></trkpt><trkpt lat="46.1499818" lon="13.5885008"><ele>424.0</ele><time>2026-05-02T08:18:20.472Z</time></trkpt><trkpt lat="46.1500093" lon="13.5887063"><ele>424.0</ele><time>2026-05-02T08:18:24.47Z</time></trkpt><trkpt lat="46.1500785" lon="13.5887783"><ele>426.0</ele><time>2026-05-02T08:18:26.47Z</time></trkpt><trkpt lat="46.1501623" lon="13.5888962"><ele>428.0</ele><time>2026-05-02T08:18:28.466Z</time></trkpt><trkpt lat="46.1502135" lon="13.5889495"><ele>430.0</ele><time>2026-05-02T08:18:29.468Z</time></trkpt><trkpt lat="46.1503102" lon="13.5890047"><ele>432.0</ele><time>2026-05-02T08:18:31.468Z</time></trkpt><trkpt lat="46.1504003" lon="13.5890612"><ele>434.0</ele><time>2026-05-02T08:18:33.469Z</time></trkpt><trkpt lat="46.1504902" lon="13.5890867"><ele>434.0</ele><time>2026-05-02T08:18:35.469Z</time></trkpt><trkpt lat="46.1505912" lon="13.5891483"><ele>434.0</ele><time>2026-05-02T08:18:37.468Z</time></trkpt><trkpt lat="46.1506907" lon="13.5892175"><ele>434.0</ele><time>2026-05-02T08:18:39.471Z</time></trkpt><trkpt lat="46.1507282" lon="13.5893272"><ele>434.0</ele><time>2026-05-02T08:18:41.473Z</time></trkpt><trkpt lat="46.1506943" lon="13.5895925"><ele>437.0</ele><time>2026-05-02T08:18:44.472Z</time></trkpt><trkpt lat="46.1506535" lon="13.589708"><ele>440.0</ele><time>2026-05-02T08:18:45.472Z</time></trkpt><trkpt lat="46.1506153" lon="13.5898268"><ele>443.0</ele><time>2026-05-02T08:18:46.471Z</time></trkpt><trkpt lat="46.1505653" lon="13.5899477"><ele>446.0</ele><time>2026-05-02T08:18:47.469Z</time></trkpt><trkpt lat="46.1505123" lon="13.590054"><ele>449.0</ele><time>2026-05-02T08:18:48.469Z</time></trkpt><trkpt lat="46.1504607" lon="13.5901672"><ele>448.99999999999994</ele><time>2026-05-02T08:18:49.469Z</time></trkpt><trkpt lat="46.1504198" lon="13.5902628"><ele>449.0</ele><time>2026-05-02T08:18:50.469Z</time></trkpt><trkpt lat="46.1503775" lon="13.5903618"><ele>449.0</ele><time>2026-05-02T08:18:51.47Z</time></trkpt><trkpt lat="46.1503368" lon="13.5904653"><ele>449.0</ele><time>2026-05-02T08:18:52.467Z</time></trkpt><trkpt lat="46.1502852" lon="13.590559"><ele>448.99999999999994</ele><time>2026-05-02T08:18:53.471Z</time></trkpt><trkpt lat="46.150248" lon="13.5906565"><ele>449.0</ele><time>2026-05-02T08:18:54.472Z</time></trkpt><trkpt lat="46.15021" lon="13.5907633"><ele>446.49999999999994</ele><time>2026-05-02T08:18:55.463Z</time></trkpt><trkpt lat="46.1501708" lon="13.5908575"><ele>444.0</ele><time>2026-05-02T08:18:56.472Z</time></trkpt><trkpt lat="46.1500935" lon="13.5909955"><ele>441.5</ele><time>2026-05-02T08:18:58.47Z</time></trkpt><trkpt lat="46.1500435" lon="13.5910528"><ele>439.0</ele><time>2026-05-02T08:18:59.469Z</time></trkpt><trkpt lat="46.1499837" lon="13.5911185"><ele>436.49999999999994</ele><time>2026-05-02T08:19:00.47Z</time></trkpt><trkpt lat="46.14992" lon="13.5911755"><ele>434.0</ele><time>2026-05-02T08:19:01.468Z</time></trkpt><trkpt lat="46.1498542" lon="13.5912232"><ele>433.99999999999994</ele><time>2026-05-02T08:19:02.469Z</time></trkpt><trkpt lat="46.1497068" lon="13.591322"><ele>434.0</ele><time>2026-05-02T08:19:04.469Z</time></trkpt><trkpt lat="46.1496312" lon="13.591369"><ele>434.0</ele><time>2026-05-02T08:19:05.469Z</time></trkpt><trkpt lat="46.1495717" lon="13.5914107"><ele>434.0</ele><time>2026-05-02T08:19:06.469Z</time></trkpt><trkpt lat="46.1495085" lon="13.5914445"><ele>433.99999999999994</ele><time>2026-05-02T08:19:07.468Z</time></trkpt><trkpt lat="46.1494415" lon="13.5914702"><ele>434.0</ele><time>2026-05-02T08:19:08.471Z</time></trkpt><trkpt lat="46.1493647" lon="13.5914833"><ele>433.99999999999994</ele><time>2026-05-02T08:19:09.471Z</time></trkpt><trkpt lat="46.1492817" lon="13.5914868"><ele>434.0</ele><time>2026-05-02T08:19:10.47Z</time></trkpt><trkpt lat="46.149196" lon="13.5914942"><ele>434.0</ele><time>2026-05-02T08:19:11.471Z</time></trkpt><trkpt lat="46.149105" lon="13.5915075"><ele>434.0</ele><time>2026-05-02T08:19:12.468Z</time></trkpt><trkpt lat="46.1490215" lon="13.591534"><ele>433.99999999999994</ele><time>2026-05-02T08:19:13.467Z</time></trkpt><trkpt lat="46.1489433" lon="13.5915598"><ele>434.0</ele><time>2026-05-02T08:19:14.469Z</time></trkpt><trkpt lat="46.1488593" lon="13.5915848"><ele>437.8333333333333</ele><time>2026-05-02T08:19:15.47Z</time></trkpt><trkpt lat="46.1487862" lon="13.5916088"><ele>441.66666666666663</ele><time>2026-05-02T08:19:16.47Z</time></trkpt><trkpt lat="46.1487193" lon="13.5916358"><ele>445.5</ele><time>2026-05-02T08:19:17.47Z</time></trkpt><trkpt lat="46.1486588" lon="13.591678"><ele>449.33333333333337</ele><time>2026-05-02T08:19:19.469Z</time></trkpt><trkpt lat="46.1486602" lon="13.591803"><ele>453.1666666666667</ele><time>2026-05-02T08:19:22.472Z</time></trkpt><trkpt lat="46.148715" lon="13.5918927"><ele>457.0</ele><time>2026-05-02T08:19:24.471Z</time></trkpt><trkpt lat="46.1488633" lon="13.5921258"><ele>457.00000000000006</ele><time>2026-05-02T08:19:28.47Z</time></trkpt><trkpt lat="46.148873" lon="13.5922278"><ele>457.0</ele><time>2026-05-02T08:19:30.469Z</time></trkpt><trkpt lat="46.1487987" lon="13.5923473"><ele>457.0</ele><time>2026-05-02T08:19:32.469Z</time></trkpt><trkpt lat="46.148755" lon="13.592415"><ele>457.0</ele><time>2026-05-02T08:19:33.469Z</time></trkpt><trkpt lat="46.1487072" lon="13.5924815"><ele>457.00000000000006</ele><time>2026-05-02T08:19:34.47Z</time></trkpt><trkpt lat="46.148656" lon="13.5925857"><ele>457.0</ele><time>2026-05-02T08:19:36.469Z</time></trkpt><trkpt lat="46.1486817" lon="13.5926883"><ele>457.0</ele><time>2026-05-02T08:19:38.467Z</time></trkpt><trkpt lat="46.1487457" lon="13.5927697"><ele>457.00000000000006</ele><time>2026-05-02T08:19:40.468Z</time></trkpt><trkpt lat="46.1488322" lon="13.5928073"><ele>457.00000000000006</ele><time>2026-05-02T08:19:42.467Z</time></trkpt><trkpt lat="46.1489388" lon="13.5927872"><ele>457.0</ele><time>2026-05-02T08:19:44.47Z</time></trkpt><trkpt lat="46.1490093" lon="13.5927722"><ele>457.0</ele><time>2026-05-02T08:19:45.473Z</time></trkpt><trkpt lat="46.1491533" lon="13.5927253"><ele>450.0</ele><time>2026-05-02T08:19:47.468Z</time></trkpt><trkpt lat="46.149219" lon="13.592701"><ele>443.00000000000006</ele><time>2026-05-02T08:19:48.469Z</time></trkpt><trkpt lat="46.1492848" lon="13.5926883"><ele>436.0</ele><time>2026-05-02T08:19:49.466Z</time></trkpt><trkpt lat="46.1493775" lon="13.5926683"><ele>429.0</ele><time>2026-05-02T08:19:51.466Z</time></trkpt><trkpt lat="46.1494733" lon="13.5926483"><ele>422.0</ele><time>2026-05-02T08:19:53.465Z</time></trkpt><trkpt lat="46.1496025" lon="13.5926177"><ele>421.99999999999994</ele><time>2026-05-02T08:19:55.469Z</time></trkpt><trkpt lat="46.1496822" lon="13.5926053"><ele>422.0</ele><time>2026-05-02T08:19:56.473Z</time></trkpt><trkpt lat="46.1497708" lon="13.5926155"><ele>422.0</ele><time>2026-05-02T08:19:57.468Z</time></trkpt><trkpt lat="46.1498673" lon="13.592634"><ele>422.0</ele><time>2026-05-02T08:19:58.472Z</time></trkpt><trkpt lat="46.1499523" lon="13.5926532"><ele>421.99999999999994</ele><time>2026-05-02T08:19:59.467Z</time></trkpt><trkpt lat="46.1500313" lon="13.5926762"><ele>422.0</ele><time>2026-05-02T08:20:00.467Z</time></trkpt><trkpt lat="46.1501103" lon="13.5926968"><ele>419.66666666666663</ele><time>2026-05-02T08:20:01.468Z</time></trkpt><trkpt lat="46.1501917" lon="13.5927148"><ele>417.3333333333333</ele><time>2026-05-02T08:20:02.467Z</time></trkpt><trkpt lat="46.1502755" lon="13.592721"><ele>415.0</ele><time>2026-05-02T08:20:03.466Z</time></trkpt><trkpt lat="46.1503635" lon="13.5927175"><ele>412.66666666666663</ele><time>2026-05-02T08:20:04.467Z</time></trkpt><trkpt lat="46.1504542" lon="13.5927037"><ele>410.3333333333333</ele><time>2026-05-02T08:20:05.467Z</time></trkpt><trkpt lat="46.1505397" lon="13.592687"><ele>408.0</ele><time>2026-05-02T08:20:06.468Z</time></trkpt><trkpt lat="46.1506803" lon="13.5926878"><ele>407.5</ele><time>2026-05-02T08:20:08.467Z</time></trkpt><trkpt lat="46.150751" lon="13.5927127"><ele>407.0</ele><time>2026-05-02T08:20:09.469Z</time></trkpt><trkpt lat="46.1508245" lon="13.5927378"><ele>406.5</ele><time>2026-05-02T08:20:10.467Z</time></trkpt><trkpt lat="46.1509012" lon="13.5927677"><ele>406.0</ele><time>2026-05-02T08:20:11.467Z</time></trkpt><trkpt lat="46.1509853" lon="13.5928228"><ele>405.5</ele><time>2026-05-02T08:20:12.469Z</time></trkpt><trkpt lat="46.1510573" lon="13.5928725"><ele>405.0</ele><time>2026-05-02T08:20:13.469Z</time></trkpt><trkpt lat="46.151125" lon="13.5929247"><ele>412.4</ele><time>2026-05-02T08:20:14.469Z</time></trkpt><trkpt lat="46.1511778" lon="13.5929827"><ele>419.8</ele><time>2026-05-02T08:20:15.468Z</time></trkpt><trkpt lat="46.1512478" lon="13.593125"><ele>427.20000000000005</ele><time>2026-05-02T08:20:17.47Z</time></trkpt><trkpt lat="46.1512512" lon="13.5933025"><ele>434.6</ele><time>2026-05-02T08:20:19.467Z</time></trkpt><trkpt lat="46.1512343" lon="13.5934057"><ele>442.0</ele><time>2026-05-02T08:20:20.467Z</time></trkpt><trkpt lat="46.1512193" lon="13.5935377"><ele>442.00000000000006</ele><time>2026-05-02T08:20:21.47Z</time></trkpt><trkpt lat="46.1512065" lon="13.5936687"><ele>442.0</ele><time>2026-05-02T08:20:22.469Z</time></trkpt><trkpt lat="46.1511975" lon="13.5937947"><ele>442.0</ele><time>2026-05-02T08:20:23.469Z</time></trkpt><trkpt lat="46.1511857" lon="13.5938975"><ele>442.0</ele><time>2026-05-02T08:20:24.47Z</time></trkpt><trkpt lat="46.151166" lon="13.5939907"><ele>442.00000000000006</ele><time>2026-05-02T08:20:25.466Z</time></trkpt><trkpt lat="46.1511462" lon="13.5940878"><ele>442.0</ele><time>2026-05-02T08:20:26.467Z</time></trkpt><trkpt lat="46.1511257" lon="13.5941972"><ele>442.6</ele><time>2026-05-02T08:20:27.468Z</time></trkpt><trkpt lat="46.1510872" lon="13.594427"><ele>443.20000000000005</ele><time>2026-05-02T08:20:29.468Z</time></trkpt><trkpt lat="46.1510678" lon="13.594544"><ele>443.8</ele><time>2026-05-02T08:20:30.468Z</time></trkpt><trkpt lat="46.151059" lon="13.5946588"><ele>444.4</ele><time>2026-05-02T08:20:31.467Z</time></trkpt><trkpt lat="46.1510583" lon="13.5947847"><ele>445.0</ele><time>2026-05-02T08:20:32.468Z</time></trkpt><trkpt lat="46.1510598" lon="13.5949058"><ele>445.00000000000006</ele><time>2026-05-02T08:20:33.468Z</time></trkpt><trkpt lat="46.1510578" lon="13.5950162"><ele>445.0</ele><time>2026-05-02T08:20:34.468Z</time></trkpt><trkpt lat="46.1510413" lon="13.5951267"><ele>445.0</ele><time>2026-05-02T08:20:35.467Z</time></trkpt><trkpt lat="46.1510358" lon="13.5952268"><ele>445.0</ele><time>2026-05-02T08:20:36.469Z</time></trkpt><trkpt lat="46.151024" lon="13.595378"><ele>445.00000000000006</ele><time>2026-05-02T08:20:38.47Z</time></trkpt><trkpt lat="46.151016" lon="13.5955148"><ele>445.0</ele><time>2026-05-02T08:20:40.468Z</time></trkpt><trkpt lat="46.1509578" lon="13.5956047"><ele>446.6</ele><time>2026-05-02T08:20:42.469Z</time></trkpt><trkpt lat="46.1508642" lon="13.5957032"><ele>448.2</ele><time>2026-05-02T08:20:44.469Z</time></trkpt><trkpt lat="46.1508012" lon="13.5957638"><ele>449.79999999999995</ele><time>2026-05-02T08:20:45.47Z</time></trkpt><trkpt lat="46.1507463" lon="13.5958168"><ele>451.4</ele><time>2026-05-02T08:20:46.468Z</time></trkpt><trkpt lat="46.150665" lon="13.5959473"><ele>453.0</ele><time>2026-05-02T08:20:48.473Z</time></trkpt><trkpt lat="46.1506137" lon="13.596151"><ele>449.0</ele><time>2026-05-02T08:20:50.472Z</time></trkpt><trkpt lat="46.1505928" lon="13.5962718"><ele>445.0</ele><time>2026-05-02T08:20:51.468Z</time></trkpt><trkpt lat="46.150578" lon="13.596388"><ele>441.0</ele><time>2026-05-02T08:20:52.468Z</time></trkpt><trkpt lat="46.150563" lon="13.5965017"><ele>437.0</ele><time>2026-05-02T08:20:53.469Z</time></trkpt><trkpt lat="46.1505527" lon="13.596606"><ele>433.0</ele><time>2026-05-02T08:20:54.469Z</time></trkpt><trkpt lat="46.1505648" lon="13.596697"><ele>429.0</ele><time>2026-05-02T08:20:55.469Z</time></trkpt><trkpt lat="46.150569" lon="13.5967897"><ele>429.0</ele><time>2026-05-02T08:20:56.47Z</time></trkpt><trkpt lat="46.1505945" lon="13.596898"><ele>429.0</ele><time>2026-05-02T08:20:57.47Z</time></trkpt><trkpt lat="46.1506195" lon="13.5969977"><ele>429.0</ele><time>2026-05-02T08:20:58.47Z</time></trkpt><trkpt lat="46.1506172" lon="13.597154"><ele>429.0</ele><time>2026-05-02T08:21:00.468Z</time></trkpt><trkpt lat="46.150564" lon="13.5972397"><ele>429.0</ele><time>2026-05-02T08:21:02.468Z</time></trkpt><trkpt lat="46.1504757" lon="13.5972537"><ele>429.0</ele><time>2026-05-02T08:21:04.47Z</time></trkpt><trkpt lat="46.1503477" lon="13.5972432"><ele>424.0</ele><time>2026-05-02T08:21:06.47Z</time></trkpt><trkpt lat="46.1502638" lon="13.5972403"><ele>419.0</ele><time>2026-05-02T08:21:07.468Z</time></trkpt><trkpt lat="46.1501758" lon="13.5972467"><ele>414.0</ele><time>2026-05-02T08:21:08.467Z</time></trkpt><trkpt lat="46.1501" lon="13.5972673"><ele>409.0</ele><time>2026-05-02T08:21:09.469Z</time></trkpt><trkpt lat="46.1499712" lon="13.5973153"><ele>404.0</ele><time>2026-05-02T08:21:11.468Z</time></trkpt><trkpt lat="46.1498933" lon="13.597421"><ele>408.0</ele><time>2026-05-02T08:21:13.467Z</time></trkpt><trkpt lat="46.1498658" lon="13.597507"><ele>412.0</ele><time>2026-05-02T08:21:14.47Z</time></trkpt><trkpt lat="46.1498357" lon="13.5975945"><ele>416.0</ele><time>2026-05-02T08:21:15.47Z</time></trkpt><trkpt lat="46.149776" lon="13.597662"><ele>420.0</ele><time>2026-05-02T08:21:16.468Z</time></trkpt><trkpt lat="46.1497165" lon="13.5977218"><ele>424.0</ele><time>2026-05-02T08:21:17.466Z</time></trkpt><trkpt lat="46.1496578" lon="13.5977788"><ele>428.0</ele><time>2026-05-02T08:21:18.466Z</time></trkpt><trkpt lat="46.1496035" lon="13.5978347"><ele>432.0</ele><time>2026-05-02T08:21:19.468Z</time></trkpt><trkpt lat="46.1495465" lon="13.5978892"><ele>432.0</ele><time>2026-05-02T08:21:20.47Z</time></trkpt><trkpt lat="46.1494927" lon="13.5979508"><ele>432.00000000000006</ele><time>2026-05-02T08:21:21.47Z</time></trkpt><trkpt lat="46.1494055" lon="13.598076"><ele>432.00000000000006</ele><time>2026-05-02T08:21:23.468Z</time></trkpt><trkpt lat="46.149404" lon="13.5982155"><ele>432.0</ele><time>2026-05-02T08:21:25.469Z</time></trkpt><trkpt lat="46.1494728" lon="13.5983277"><ele>432.0</ele><time>2026-05-02T08:21:27.468Z</time></trkpt><trkpt lat="46.1495727" lon="13.5983785"><ele>432.0</ele><time>2026-05-02T08:21:29.466Z</time></trkpt><trkpt lat="46.1496762" lon="13.598412"><ele>432.0</ele><time>2026-05-02T08:21:31.469Z</time></trkpt><trkpt lat="46.1498678" lon="13.5985315"><ele>432.0</ele><time>2026-05-02T08:21:34.468Z</time></trkpt><trkpt lat="46.1499363" lon="13.5985743"><ele>432.0</ele><time>2026-05-02T08:21:35.468Z</time></trkpt><trkpt lat="46.1500092" lon="13.598611"><ele>428.0</ele><time>2026-05-02T08:21:36.468Z</time></trkpt><trkpt lat="46.1500762" lon="13.5986442"><ele>424.0</ele><time>2026-05-02T08:21:37.467Z</time></trkpt><trkpt lat="46.1501392" lon="13.5986712"><ele>420.0</ele><time>2026-05-02T08:21:38.467Z</time></trkpt><trkpt lat="46.1501988" lon="13.5987007"><ele>416.0</ele><time>2026-05-02T08:21:39.469Z</time></trkpt><trkpt lat="46.15029" lon="13.5988035"><ele>412.0</ele><time>2026-05-02T08:21:41.468Z</time></trkpt><trkpt lat="46.1503298" lon="13.5988892"><ele>408.0</ele><time>2026-05-02T08:21:42.47Z</time></trkpt><trkpt lat="46.1503555" lon="13.5989943"><ele>408.0</ele><time>2026-05-02T08:21:43.466Z</time></trkpt><trkpt lat="46.1503733" lon="13.5990953"><ele>408.0</ele><time>2026-05-02T08:21:44.47Z</time></trkpt><trkpt lat="46.1503887" lon="13.599197"><ele>408.0</ele><time>2026-05-02T08:21:45.472Z</time></trkpt><trkpt lat="46.1503855" lon="13.5993583"><ele>408.0</ele><time>2026-05-02T08:21:47.468Z</time></trkpt><trkpt lat="46.1503267" lon="13.5995018"><ele>408.0</ele><time>2026-05-02T08:21:49.47Z</time></trkpt><trkpt lat="46.1502898" lon="13.5995757"><ele>408.0</ele><time>2026-05-02T08:21:50.47Z</time></trkpt><trkpt lat="46.1502468" lon="13.5996537"><ele>407.0</ele><time>2026-05-02T08:21:51.471Z</time></trkpt><trkpt lat="46.1502002" lon="13.5997293"><ele>406.0</ele><time>2026-05-02T08:21:52.47Z</time></trkpt><trkpt lat="46.1501055" lon="13.600047"><ele>405.0</ele><time>2026-05-02T08:21:56.468Z</time></trkpt><trkpt lat="46.1500923" lon="13.6001555"><ele>404.0</ele><time>2026-05-02T08:21:57.473Z</time></trkpt><trkpt lat="46.1500775" lon="13.6002772"><ele>402.6</ele><time>2026-05-02T08:21:58.468Z</time></trkpt><trkpt lat="46.1500635" lon="13.600419"><ele>401.2</ele><time>2026-05-02T08:21:59.468Z</time></trkpt><trkpt lat="46.1500282" lon="13.6005628"><ele>399.8</ele><time>2026-05-02T08:22:00.468Z</time></trkpt><trkpt lat="46.1500033" lon="13.6006725"><ele>398.40000000000003</ele><time>2026-05-02T08:22:01.468Z</time></trkpt><trkpt lat="46.1499948" lon="13.600818"><ele>397.0</ele><time>2026-05-02T08:22:03.468Z</time></trkpt><trkpt lat="46.1500713" lon="13.6008855"><ele>397.00000000000006</ele><time>2026-05-02T08:22:05.467Z</time></trkpt><trkpt lat="46.150136" lon="13.6009492"><ele>397.0</ele><time>2026-05-02T08:22:07.468Z</time></trkpt><trkpt lat="46.1501282" lon="13.6010443"><ele>397.0</ele><time>2026-05-02T08:22:09.469Z</time></trkpt><trkpt lat="46.1501022" lon="13.601203"><ele>397.0</ele><time>2026-05-02T08:22:11.47Z</time></trkpt><trkpt lat="46.150099" lon="13.6012953"><ele>397.00000000000006</ele><time>2026-05-02T08:22:12.471Z</time></trkpt><trkpt lat="46.1501023" lon="13.6013867"><ele>397.0</ele><time>2026-05-02T08:22:13.47Z</time></trkpt><trkpt lat="46.1500793" lon="13.6015793"><ele>396.50000000000006</ele><time>2026-05-02T08:22:15.471Z</time></trkpt><trkpt lat="46.1500387" lon="13.6017288"><ele>396.0</ele><time>2026-05-02T08:22:17.471Z</time></trkpt><trkpt lat="46.1499818" lon="13.6017802"><ele>395.5</ele><time>2026-05-02T08:22:19.47Z</time></trkpt><trkpt lat="46.1499312" lon="13.6016737"><ele>395.0</ele><time>2026-05-02T08:22:22.471Z</time></trkpt><trkpt lat="46.1499055" lon="13.6015902"><ele>394.50000000000006</ele><time>2026-05-02T08:22:23.468Z</time></trkpt><trkpt lat="46.1498762" lon="13.601503"><ele>394.0</ele><time>2026-05-02T08:22:24.47Z</time></trkpt><trkpt lat="46.1498018" lon="13.6013827"><ele>397.83333333333337</ele><time>2026-05-02T08:22:26.469Z</time></trkpt><trkpt lat="46.1497423" lon="13.6013305"><ele>401.6666666666667</ele><time>2026-05-02T08:22:27.468Z</time></trkpt><trkpt lat="46.1496275" lon="13.601236"><ele>405.5</ele><time>2026-05-02T08:22:29.468Z</time></trkpt><trkpt lat="46.1495615" lon="13.601168"><ele>409.33333333333337</ele><time>2026-05-02T08:22:30.469Z</time></trkpt><trkpt lat="46.1494977" lon="13.6011032"><ele>413.1666666666667</ele><time>2026-05-02T08:22:31.469Z</time></trkpt><trkpt lat="46.1494272" lon="13.6010355"><ele>417.0</ele><time>2026-05-02T08:22:32.469Z</time></trkpt><trkpt lat="46.1493622" lon="13.6009748"><ele>418.5</ele><time>2026-05-02T08:22:33.467Z</time></trkpt><trkpt lat="46.1492793" lon="13.6008695"><ele>420.0</ele><time>2026-05-02T08:22:35.469Z</time></trkpt><trkpt lat="46.1491277" lon="13.600692"><ele>421.5</ele><time>2026-05-02T08:22:38.47Z</time></trkpt><trkpt lat="46.149064" lon="13.6006437"><ele>423.0</ele><time>2026-05-02T08:22:39.471Z</time></trkpt><trkpt lat="46.1489935" lon="13.600612"><ele>426.8333333333333</ele><time>2026-05-02T08:22:40.467Z</time></trkpt><trkpt lat="46.1489212" lon="13.600588"><ele>430.66666666666663</ele><time>2026-05-02T08:22:41.471Z</time></trkpt><trkpt lat="46.1488483" lon="13.6005583"><ele>434.5</ele><time>2026-05-02T08:22:42.471Z</time></trkpt><trkpt lat="46.1487745" lon="13.6005238"><ele>438.3333333333333</ele><time>2026-05-02T08:22:43.471Z</time></trkpt><trkpt lat="46.1487077" lon="13.6004962"><ele>442.16666666666663</ele><time>2026-05-02T08:22:44.471Z</time></trkpt><trkpt lat="46.1485792" lon="13.6004622"><ele>446.0</ele><time>2026-05-02T08:22:46.47Z</time></trkpt><trkpt lat="46.1485143" lon="13.6004803"><ele>446.0</ele><time>2026-05-02T08:22:48.471Z</time></trkpt><trkpt lat="46.1485395" lon="13.6005788"><ele>446.0</ele><time>2026-05-02T08:22:52.471Z</time></trkpt><trkpt lat="46.1485787" lon="13.6006783"><ele>446.0</ele><time>2026-05-02T08:22:54.467Z</time></trkpt><trkpt lat="46.1486403" lon="13.600783"><ele>446.0</ele><time>2026-05-02T08:22:56.468Z</time></trkpt><trkpt lat="46.1487452" lon="13.6009747"><ele>446.0</ele><time>2026-05-02T08:22:59.471Z</time></trkpt><trkpt lat="46.1487768" lon="13.6010627"><ele>445.99999999999994</ele><time>2026-05-02T08:23:00.471Z</time></trkpt><trkpt lat="46.1488013" lon="13.601148"><ele>446.0</ele><time>2026-05-02T08:23:01.471Z</time></trkpt><trkpt lat="46.1488145" lon="13.6013228"><ele>446.0</ele><time>2026-05-02T08:23:03.469Z</time></trkpt><trkpt lat="46.1488093" lon="13.6014212"><ele>446.0</ele><time>2026-05-02T08:23:04.468Z</time></trkpt><trkpt lat="46.1487902" lon="13.6015477"><ele>445.99999999999994</ele><time>2026-05-02T08:23:06.468Z</time></trkpt><trkpt lat="46.148745" lon="13.6016278"><ele>446.0</ele><time>2026-05-02T08:23:08.468Z</time></trkpt><trkpt lat="46.1486482" lon="13.601709"><ele>445.16666666666663</ele><time>2026-05-02T08:23:10.472Z</time></trkpt><trkpt lat="46.1485398" lon="13.6017412"><ele>444.3333333333333</ele><time>2026-05-02T08:23:12.469Z</time></trkpt><trkpt lat="46.1484742" lon="13.6017498"><ele>443.5</ele><time>2026-05-02T08:23:13.468Z</time></trkpt><trkpt lat="46.1483945" lon="13.6017663"><ele>442.66666666666663</ele><time>2026-05-02T08:23:14.468Z</time></trkpt><trkpt lat="46.1483068" lon="13.6017863"><ele>441.8333333333333</ele><time>2026-05-02T08:23:15.472Z</time></trkpt><trkpt lat="46.1482185" lon="13.6018113"><ele>441.0</ele><time>2026-05-02T08:23:16.471Z</time></trkpt><trkpt lat="46.148147" lon="13.6018267"><ele>445.75</ele><time>2026-05-02T08:23:17.469Z</time></trkpt><trkpt lat="46.1479758" lon="13.6018448"><ele>450.5</ele><time>2026-05-02T08:23:20.468Z</time></trkpt><trkpt lat="46.147859" lon="13.6018053"><ele>455.25</ele><time>2026-05-02T08:23:22.468Z</time></trkpt><trkpt lat="46.1477348" lon="13.6018058"><ele>460.0</ele><time>2026-05-02T08:23:24.468Z</time></trkpt><trkpt lat="46.147644" lon="13.601863"><ele>460.0</ele><time>2026-05-02T08:23:26.468Z</time></trkpt><trkpt lat="46.1475423" lon="13.6018562"><ele>460.0</ele><time>2026-05-02T08:23:28.468Z</time></trkpt><trkpt lat="46.1474112" lon="13.6018515"><ele>460.0</ele><time>2026-05-02T08:23:30.468Z</time></trkpt><trkpt lat="46.1473228" lon="13.601878"><ele>460.0</ele><time>2026-05-02T08:23:32.468Z</time></trkpt><trkpt lat="46.1471935" lon="13.60189"><ele>459.0</ele><time>2026-05-02T08:23:34.469Z</time></trkpt><trkpt lat="46.1471322" lon="13.6019185"><ele>458.0</ele><time>2026-05-02T08:23:35.47Z</time></trkpt><trkpt lat="46.1470358" lon="13.6020387"><ele>457.0</ele><time>2026-05-02T08:23:37.468Z</time></trkpt><trkpt lat="46.1469775" lon="13.6020963"><ele>456.0</ele><time>2026-05-02T08:23:38.47Z</time></trkpt><trkpt lat="46.1468315" lon="13.6022733"><ele>456.0</ele><time>2026-05-02T08:23:41.47Z</time></trkpt><trkpt lat="46.1467247" lon="13.6023457"><ele>456.0</ele><time>2026-05-02T08:23:43.468Z</time></trkpt><trkpt lat="46.146601" lon="13.6023502"><ele>456.0</ele><time>2026-05-02T08:23:45.467Z</time></trkpt><trkpt lat="46.1465335" lon="13.6023413"><ele>456.0</ele><time>2026-05-02T08:23:46.465Z</time></trkpt><trkpt lat="46.1464703" lon="13.6023303"><ele>456.0</ele><time>2026-05-02T08:23:47.468Z</time></trkpt><trkpt lat="46.1463707" lon="13.6023547"><ele>460.4</ele><time>2026-05-02T08:23:49.47Z</time></trkpt><trkpt lat="46.1463043" lon="13.6024305"><ele>464.8</ele><time>2026-05-02T08:23:51.468Z</time></trkpt><trkpt lat="46.1463005" lon="13.6025655"><ele>469.19999999999993</ele><time>2026-05-02T08:23:53.472Z</time></trkpt><trkpt lat="46.1463083" lon="13.6027165"><ele>473.59999999999997</ele><time>2026-05-02T08:23:55.468Z</time></trkpt><trkpt lat="46.1463045" lon="13.6028642"><ele>478.0</ele><time>2026-05-02T08:23:57.467Z</time></trkpt><trkpt lat="46.1462515" lon="13.6030175"><ele>478.0</ele><time>2026-05-02T08:23:59.469Z</time></trkpt><trkpt lat="46.1461628" lon="13.6031803"><ele>477.99999999999994</ele><time>2026-05-02T08:24:01.467Z</time></trkpt><trkpt lat="46.1461152" lon="13.6032587"><ele>477.99999999999994</ele><time>2026-05-02T08:24:02.466Z</time></trkpt><trkpt lat="46.1460595" lon="13.6034148"><ele>478.0</ele><time>2026-05-02T08:24:04.468Z</time></trkpt><trkpt lat="46.1460128" lon="13.603504"><ele>478.0</ele><time>2026-05-02T08:24:05.471Z</time></trkpt><trkpt lat="46.1459587" lon="13.6035993"><ele>478.00000000000006</ele><time>2026-05-02T08:24:06.471Z</time></trkpt><trkpt lat="46.145912" lon="13.6036822"><ele>478.0</ele><time>2026-05-02T08:24:07.469Z</time></trkpt><trkpt lat="46.1458427" lon="13.6037667"><ele>478.0</ele><time>2026-05-02T08:24:09.466Z</time></trkpt><trkpt lat="46.1457747" lon="13.6037537"><ele>478.0</ele><time>2026-05-02T08:24:11.469Z</time></trkpt><trkpt lat="46.1457587" lon="13.6036498"><ele>478.00000000000006</ele><time>2026-05-02T08:24:14.467Z</time></trkpt><trkpt lat="46.1457937" lon="13.603548"><ele>478.0</ele><time>2026-05-02T08:24:16.469Z</time></trkpt><trkpt lat="46.1458322" lon="13.6034162"><ele>478.0</ele><time>2026-05-02T08:24:18.468Z</time></trkpt><trkpt lat="46.1458583" lon="13.6032762"><ele>478.0</ele><time>2026-05-02T08:24:20.469Z</time></trkpt><trkpt lat="46.1457177" lon="13.6032503"><ele>478.0</ele><time>2026-05-02T08:24:48.47Z</time></trkpt><trkpt lat="46.14575" lon="13.6030302"><ele>478.0</ele><time>2026-05-02T08:24:54.469Z</time></trkpt><trkpt lat="46.1457385" lon="13.6028805"><ele>484.6666666666667</ele><time>2026-05-02T08:24:56.467Z</time></trkpt><trkpt lat="46.1456857" lon="13.6027632"><ele>491.33333333333337</ele><time>2026-05-02T08:24:58.468Z</time></trkpt><trkpt lat="46.1456285" lon="13.6028075"><ele>498.0</ele><time>2026-05-02T08:25:02.468Z</time></trkpt><trkpt lat="46.145611" lon="13.6029077"><ele>504.66666666666663</ele><time>2026-05-02T08:25:04.467Z</time></trkpt><trkpt lat="46.1455777" lon="13.6030288"><ele>511.3333333333333</ele><time>2026-05-02T08:25:06.47Z</time></trkpt><trkpt lat="46.1455253" lon="13.6031463"><ele>518.0</ele><time>2026-05-02T08:25:08.471Z</time></trkpt><trkpt lat="46.1454387" lon="13.6032537"><ele>518.0</ele><time>2026-05-02T08:25:10.467Z</time></trkpt><trkpt lat="46.1453267" lon="13.6033613"><ele>518.0</ele><time>2026-05-02T08:25:12.47Z</time></trkpt><trkpt lat="46.14527" lon="13.6034143"><ele>518.0</ele><time>2026-05-02T08:25:13.469Z</time></trkpt><trkpt lat="46.1451988" lon="13.6035042"><ele>518.0</ele><time>2026-05-02T08:25:15.468Z</time></trkpt><trkpt lat="46.145172" lon="13.6036282"><ele>518.0</ele><time>2026-05-02T08:25:17.47Z</time></trkpt><trkpt lat="46.1451577" lon="13.6037858"><ele>516.5</ele><time>2026-05-02T08:25:19.47Z</time></trkpt><trkpt lat="46.1451328" lon="13.6038725"><ele>515.0</ele><time>2026-05-02T08:25:20.468Z</time></trkpt><trkpt lat="46.1450773" lon="13.6040223"><ele>513.5</ele><time>2026-05-02T08:25:22.467Z</time></trkpt><trkpt lat="46.1450333" lon="13.6041283"><ele>512.0</ele><time>2026-05-02T08:25:24.466Z</time></trkpt><trkpt lat="46.1449985" lon="13.6042637"><ele>510.49999999999994</ele><time>2026-05-02T08:25:26.472Z</time></trkpt><trkpt lat="46.1449763" lon="13.6043515"><ele>509.0</ele><time>2026-05-02T08:25:27.471Z</time></trkpt><trkpt lat="46.1449507" lon="13.6044813"><ele>507.25</ele><time>2026-05-02T08:25:29.467Z</time></trkpt><trkpt lat="46.1448885" lon="13.6045437"><ele>505.5</ele><time>2026-05-02T08:25:31.469Z</time></trkpt><trkpt lat="46.14474" lon="13.6044808"><ele>503.75</ele><time>2026-05-02T08:25:35.469Z</time></trkpt><trkpt lat="46.1447292" lon="13.6043517"><ele>502.0</ele><time>2026-05-02T08:25:37.469Z</time></trkpt><trkpt lat="46.1447125" lon="13.6041465"><ele>510.50000000000006</ele><time>2026-05-02T08:25:39.466Z</time></trkpt><trkpt lat="46.1447093" lon="13.6040162"><ele>519.0</ele><time>2026-05-02T08:25:40.468Z</time></trkpt><trkpt lat="46.144703" lon="13.6039152"><ele>527.5</ele><time>2026-05-02T08:25:41.468Z</time></trkpt><trkpt lat="46.1447023" lon="13.6037992"><ele>536.0</ele><time>2026-05-02T08:25:42.469Z</time></trkpt><trkpt lat="46.1446875" lon="13.6036712"><ele>544.5</ele><time>2026-05-02T08:25:43.466Z</time></trkpt><trkpt lat="46.1446728" lon="13.6035478"><ele>553.0</ele><time>2026-05-02T08:25:44.468Z</time></trkpt><trkpt lat="46.1446697" lon="13.6034465"><ele>554.6666666666667</ele><time>2026-05-02T08:25:45.471Z</time></trkpt><trkpt lat="46.1446905" lon="13.6032895"><ele>556.3333333333334</ele><time>2026-05-02T08:25:47.467Z</time></trkpt><trkpt lat="46.1447343" lon="13.6031495"><ele>558.0</ele><time>2026-05-02T08:25:49.467Z</time></trkpt><trkpt lat="46.1447648" lon="13.6030638"><ele>559.6666666666666</ele><time>2026-05-02T08:25:50.468Z</time></trkpt><trkpt lat="46.1448027" lon="13.6029743"><ele>561.3333333333333</ele><time>2026-05-02T08:25:51.47Z</time></trkpt><trkpt lat="46.1448332" lon="13.6028708"><ele>563.0</ele><time>2026-05-02T08:25:52.47Z</time></trkpt><trkpt lat="46.1448915" lon="13.602624"><ele>565.0</ele><time>2026-05-02T08:25:55.47Z</time></trkpt><trkpt lat="46.1448503" lon="13.6024473"><ele>567.0</ele><time>2026-05-02T08:25:57.467Z</time></trkpt><trkpt lat="46.1448352" lon="13.602332"><ele>569.0</ele><time>2026-05-02T08:25:58.469Z</time></trkpt><trkpt lat="46.144832" lon="13.6022237"><ele>571.0</ele><time>2026-05-02T08:25:59.469Z</time></trkpt><trkpt lat="46.1448515" lon="13.6021283"><ele>573.0</ele><time>2026-05-02T08:26:00.469Z</time></trkpt><trkpt lat="46.1448772" lon="13.6020327"><ele>575.0</ele><time>2026-05-02T08:26:01.469Z</time></trkpt><trkpt lat="46.1448995" lon="13.6019107"><ele>572.3333333333333</ele><time>2026-05-02T08:26:02.467Z</time></trkpt><trkpt lat="46.1449215" lon="13.601785"><ele>569.6666666666666</ele><time>2026-05-02T08:26:03.467Z</time></trkpt><trkpt lat="46.14494" lon="13.6016642"><ele>567.0</ele><time>2026-05-02T08:26:04.467Z</time></trkpt><trkpt lat="46.1449437" lon="13.6015318"><ele>564.3333333333334</ele><time>2026-05-02T08:26:05.47Z</time></trkpt><trkpt lat="46.1449535" lon="13.601406"><ele>561.6666666666667</ele><time>2026-05-02T08:26:06.469Z</time></trkpt><trkpt lat="46.1449592" lon="13.6012752"><ele>559.0</ele><time>2026-05-02T08:26:07.47Z</time></trkpt><trkpt lat="46.1449623" lon="13.60116"><ele>559.0</ele><time>2026-05-02T08:26:08.47Z</time></trkpt><trkpt lat="46.1449842" lon="13.6009988"><ele>559.0</ele><time>2026-05-02T08:26:10.465Z</time></trkpt><trkpt lat="46.1450538" lon="13.6008952"><ele>559.0</ele><time>2026-05-02T08:26:12.466Z</time></trkpt><trkpt lat="46.1451222" lon="13.6008515"><ele>559.0</ele><time>2026-05-02T08:26:13.466Z</time></trkpt><trkpt lat="46.145239" lon="13.600736"><ele>559.0</ele><time>2026-05-02T08:26:15.468Z</time></trkpt><trkpt lat="46.1452895" lon="13.6006437"><ele>559.0</ele><time>2026-05-02T08:26:16.469Z</time></trkpt><trkpt lat="46.1453435" lon="13.6005293"><ele>559.0</ele><time>2026-05-02T08:26:17.469Z</time></trkpt><trkpt lat="46.1454087" lon="13.6003867"><ele>559.0</ele><time>2026-05-02T08:26:18.471Z</time></trkpt><trkpt lat="46.1454877" lon="13.6002378"><ele>559.0</ele><time>2026-05-02T08:26:19.47Z</time></trkpt><trkpt lat="46.1455598" lon="13.6001012"><ele>557.5</ele><time>2026-05-02T08:26:20.468Z</time></trkpt><trkpt lat="46.1456177" lon="13.5999802"><ele>556.0</ele><time>2026-05-02T08:26:21.472Z</time></trkpt><trkpt lat="46.145667" lon="13.5998657"><ele>554.5</ele><time>2026-05-02T08:26:22.471Z</time></trkpt><trkpt lat="46.1457012" lon="13.5997418"><ele>553.0</ele><time>2026-05-02T08:26:23.472Z</time></trkpt><trkpt lat="46.1457158" lon="13.5996232"><ele>551.5</ele><time>2026-05-02T08:26:24.471Z</time></trkpt><trkpt lat="46.145716" lon="13.5995142"><ele>550.0</ele><time>2026-05-02T08:26:25.468Z</time></trkpt><trkpt lat="46.1457053" lon="13.599419"><ele>556.0</ele><time>2026-05-02T08:26:26.471Z</time></trkpt><trkpt lat="46.1456713" lon="13.5993367"><ele>562.0</ele><time>2026-05-02T08:26:27.47Z</time></trkpt><trkpt lat="46.1456285" lon="13.5992633"><ele>568.0</ele><time>2026-05-02T08:26:28.471Z</time></trkpt><trkpt lat="46.1455777" lon="13.5991902"><ele>574.0</ele><time>2026-05-02T08:26:29.467Z</time></trkpt><trkpt lat="46.1455188" lon="13.5991153"><ele>580.0</ele><time>2026-05-02T08:26:30.467Z</time></trkpt><trkpt lat="46.1454512" lon="13.59903"><ele>586.0</ele><time>2026-05-02T08:26:31.469Z</time></trkpt><trkpt lat="46.1453895" lon="13.5989418"><ele>586.0</ele><time>2026-05-02T08:26:32.468Z</time></trkpt><trkpt lat="46.1453358" lon="13.5988602"><ele>586.0</ele><time>2026-05-02T08:26:33.471Z</time></trkpt><trkpt lat="46.1452873" lon="13.5987777"><ele>586.0</ele><time>2026-05-02T08:26:34.469Z</time></trkpt><trkpt lat="46.1452307" lon="13.59855"><ele>586.0</ele><time>2026-05-02T08:26:37.466Z</time></trkpt><trkpt lat="46.1452923" lon="13.5984452"><ele>586.0</ele><time>2026-05-02T08:26:39.47Z</time></trkpt><trkpt lat="46.1454148" lon="13.598396"><ele>585.6</ele><time>2026-05-02T08:26:41.469Z</time></trkpt><trkpt lat="46.1455125" lon="13.5983222"><ele>585.2</ele><time>2026-05-02T08:26:43.471Z</time></trkpt><trkpt lat="46.1455568" lon="13.5981932"><ele>584.8</ele><time>2026-05-02T08:26:45.472Z</time></trkpt><trkpt lat="46.1456242" lon="13.5980783"><ele>584.4</ele><time>2026-05-02T08:26:47.468Z</time></trkpt><trkpt lat="46.1457443" lon="13.5980312"><ele>584.0</ele><time>2026-05-02T08:26:49.471Z</time></trkpt><trkpt lat="46.145829" lon="13.5980122"><ele>581.8333333333333</ele><time>2026-05-02T08:26:50.471Z</time></trkpt><trkpt lat="46.1459123" lon="13.597978"><ele>579.6666666666666</ele><time>2026-05-02T08:26:51.47Z</time></trkpt><trkpt lat="46.1459902" lon="13.5979372"><ele>577.5</ele><time>2026-05-02T08:26:52.471Z</time></trkpt><trkpt lat="46.1460627" lon="13.5978793"><ele>575.3333333333334</ele><time>2026-05-02T08:26:53.471Z</time></trkpt><trkpt lat="46.146132" lon="13.5978045"><ele>573.1666666666667</ele><time>2026-05-02T08:26:54.472Z</time></trkpt><trkpt lat="46.1461993" lon="13.5977278"><ele>571.0</ele><time>2026-05-02T08:26:55.47Z</time></trkpt><trkpt lat="46.146303" lon="13.5975843"><ele>571.0</ele><time>2026-05-02T08:26:57.471Z</time></trkpt><trkpt lat="46.1463368" lon="13.59747"><ele>571.0</ele><time>2026-05-02T08:26:59.468Z</time></trkpt><trkpt lat="46.1463175" lon="13.597338"><ele>571.0</ele><time>2026-05-02T08:27:01.467Z</time></trkpt><trkpt lat="46.1462617" lon="13.5972053"><ele>571.0</ele><time>2026-05-02T08:27:03.468Z</time></trkpt><trkpt lat="46.146247" lon="13.5970758"><ele>571.0</ele><time>2026-05-02T08:27:05.47Z</time></trkpt><trkpt lat="46.1463023" lon="13.5969785"><ele>574.0</ele><time>2026-05-02T08:27:07.469Z</time></trkpt><trkpt lat="46.1464077" lon="13.5968645"><ele>577.0</ele><time>2026-05-02T08:27:09.468Z</time></trkpt><trkpt lat="46.1464605" lon="13.5967833"><ele>580.0</ele><time>2026-05-02T08:27:10.472Z</time></trkpt><trkpt lat="46.14652" lon="13.5966773"><ele>583.0</ele><time>2026-05-02T08:27:11.471Z</time></trkpt><trkpt lat="46.1465805" lon="13.5965555"><ele>586.0</ele><time>2026-05-02T08:27:12.472Z</time></trkpt><trkpt lat="46.1466298" lon="13.5964303"><ele>585.8</ele><time>2026-05-02T08:27:13.472Z</time></trkpt><trkpt lat="46.1466653" lon="13.5963238"><ele>585.6</ele><time>2026-05-02T08:27:14.472Z</time></trkpt><trkpt lat="46.1466815" lon="13.5961725"><ele>585.4</ele><time>2026-05-02T08:27:16.472Z</time></trkpt><trkpt lat="46.146552" lon="13.5960222"><ele>585.2</ele><time>2026-05-02T08:27:19.471Z</time></trkpt><trkpt lat="46.1464763" lon="13.5959812"><ele>585.0</ele><time>2026-05-02T08:27:20.474Z</time></trkpt><trkpt lat="46.1464048" lon="13.5959538"><ele>585.0</ele><time>2026-05-02T08:27:21.473Z</time></trkpt><trkpt lat="46.1463" lon="13.5959053"><ele>585.0</ele><time>2026-05-02T08:27:23.471Z</time></trkpt><trkpt lat="46.1462542" lon="13.5958162"><ele>585.0</ele><time>2026-05-02T08:27:25.468Z</time></trkpt><trkpt lat="46.146265" lon="13.595673"><ele>585.0</ele><time>2026-05-02T08:27:27.467Z</time></trkpt><trkpt lat="46.1462967" lon="13.5955815"><ele>585.0</ele><time>2026-05-02T08:27:28.472Z</time></trkpt><trkpt lat="46.1463383" lon="13.5954728"><ele>585.0</ele><time>2026-05-02T08:27:29.47Z</time></trkpt><trkpt lat="46.1463865" lon="13.5953423"><ele>585.0</ele><time>2026-05-02T08:27:30.47Z</time></trkpt><trkpt lat="46.14644" lon="13.5951985"><ele>585.0</ele><time>2026-05-02T08:27:31.471Z</time></trkpt><trkpt lat="46.1464915" lon="13.5950622"><ele>585.0</ele><time>2026-05-02T08:27:32.469Z</time></trkpt><trkpt lat="46.1465267" lon="13.5949562"><ele>585.0</ele><time>2026-05-02T08:27:33.469Z</time></trkpt><trkpt lat="46.1465358" lon="13.5948118"><ele>585.0</ele><time>2026-05-02T08:27:35.468Z</time></trkpt><trkpt lat="46.1464715" lon="13.5947363"><ele>585.0</ele><time>2026-05-02T08:27:37.47Z</time></trkpt><trkpt lat="46.1462617" lon="13.5947507"><ele>585.0</ele><time>2026-05-02T08:27:40.472Z</time></trkpt><trkpt lat="46.1461618" lon="13.5947608"><ele>585.0</ele><time>2026-05-02T08:27:41.472Z</time></trkpt><trkpt lat="46.1460747" lon="13.5947662"><ele>585.0</ele><time>2026-05-02T08:27:42.473Z</time></trkpt><trkpt lat="46.1460007" lon="13.5947607"><ele>585.0</ele><time>2026-05-02T08:27:43.469Z</time></trkpt><trkpt lat="46.1459377" lon="13.594739"><ele>585.0</ele><time>2026-05-02T08:27:44.472Z</time></trkpt><trkpt lat="46.1458795" lon="13.5946928"><ele>585.0</ele><time>2026-05-02T08:27:45.471Z</time></trkpt><trkpt lat="46.1457842" lon="13.5946157"><ele>585.0</ele><time>2026-05-02T08:27:47.468Z</time></trkpt><trkpt lat="46.145724" lon="13.5945657"><ele>585.0</ele><time>2026-05-02T08:27:49.469Z</time></trkpt><trkpt lat="46.145698" lon="13.5944595"><ele>585.0</ele><time>2026-05-02T08:27:51.467Z</time></trkpt><trkpt lat="46.1457128" lon="13.5942563"><ele>583.4</ele><time>2026-05-02T08:27:53.47Z</time></trkpt><trkpt lat="46.1457163" lon="13.5941317"><ele>581.8</ele><time>2026-05-02T08:27:54.472Z</time></trkpt><trkpt lat="46.1457157" lon="13.5939947"><ele>580.2</ele><time>2026-05-02T08:27:55.471Z</time></trkpt><trkpt lat="46.145697" lon="13.5938268"><ele>578.6</ele><time>2026-05-02T08:27:57.47Z</time></trkpt><trkpt lat="46.1456417" lon="13.5937002"><ele>577.0</ele><time>2026-05-02T08:27:59.47Z</time></trkpt><trkpt lat="46.1455465" lon="13.5935072"><ele>576.1666666666667</ele><time>2026-05-02T08:28:03.472Z</time></trkpt><trkpt lat="46.1455962" lon="13.5933312"><ele>575.3333333333334</ele><time>2026-05-02T08:28:05.472Z</time></trkpt><trkpt lat="46.1456352" lon="13.593231"><ele>574.5</ele><time>2026-05-02T08:28:06.472Z</time></trkpt><trkpt lat="46.1456652" lon="13.5931327"><ele>573.6666666666666</ele><time>2026-05-02T08:28:07.471Z</time></trkpt><trkpt lat="46.1457117" lon="13.5930367"><ele>572.8333333333333</ele><time>2026-05-02T08:28:08.472Z</time></trkpt><trkpt lat="46.1457512" lon="13.592945"><ele>572.0</ele><time>2026-05-02T08:28:09.471Z</time></trkpt><trkpt lat="46.1457793" lon="13.5928587"><ele>571.3333333333333</ele><time>2026-05-02T08:28:10.469Z</time></trkpt><trkpt lat="46.1457863" lon="13.5927625"><ele>570.6666666666666</ele><time>2026-05-02T08:28:11.468Z</time></trkpt><trkpt lat="46.1457843" lon="13.5926537"><ele>570.0</ele><time>2026-05-02T08:28:12.469Z</time></trkpt><trkpt lat="46.1457768" lon="13.5925337"><ele>569.3333333333334</ele><time>2026-05-02T08:28:13.47Z</time></trkpt><trkpt lat="46.1457682" lon="13.5924138"><ele>568.6666666666667</ele><time>2026-05-02T08:28:14.469Z</time></trkpt><trkpt lat="46.1457535" lon="13.5923"><ele>568.0</ele><time>2026-05-02T08:28:15.469Z</time></trkpt><trkpt lat="46.145735" lon="13.5921817"><ele>575.4</ele><time>2026-05-02T08:28:16.466Z</time></trkpt><trkpt lat="46.145709" lon="13.592055"><ele>582.8</ele><time>2026-05-02T08:28:17.471Z</time></trkpt><trkpt lat="46.1456862" lon="13.5919143"><ele>590.2</ele><time>2026-05-02T08:28:18.47Z</time></trkpt><trkpt lat="46.1456588" lon="13.5917873"><ele>597.6</ele><time>2026-05-02T08:28:19.47Z</time></trkpt><trkpt lat="46.1456388" lon="13.5916978"><ele>605.0</ele><time>2026-05-02T08:28:20.468Z</time></trkpt><trkpt lat="46.1456735" lon="13.59148"><ele>605.2</ele><time>2026-05-02T08:28:22.47Z</time></trkpt><trkpt lat="46.1457037" lon="13.5913528"><ele>605.4</ele><time>2026-05-02T08:28:23.47Z</time></trkpt><trkpt lat="46.1457193" lon="13.5912175"><ele>605.6</ele><time>2026-05-02T08:28:24.469Z</time></trkpt><trkpt lat="46.1457198" lon="13.5910723"><ele>605.8</ele><time>2026-05-02T08:28:25.468Z</time></trkpt><trkpt lat="46.1457227" lon="13.5909492"><ele>606.0</ele><time>2026-05-02T08:28:26.472Z</time></trkpt><trkpt lat="46.145729" lon="13.5908328"><ele>601.2857142857143</ele><time>2026-05-02T08:28:27.472Z</time></trkpt><trkpt lat="46.1457523" lon="13.5907218"><ele>596.5714285714286</ele><time>2026-05-02T08:28:28.473Z</time></trkpt><trkpt lat="46.1457815" lon="13.5906102"><ele>591.8571428571429</ele><time>2026-05-02T08:28:29.47Z</time></trkpt><trkpt lat="46.1458275" lon="13.5905157"><ele>587.1428571428571</ele><time>2026-05-02T08:28:30.47Z</time></trkpt><trkpt lat="46.1458705" lon="13.5904395"><ele>582.4285714285714</ele><time>2026-05-02T08:28:31.47Z</time></trkpt><trkpt lat="46.145897" lon="13.5903518"><ele>577.7142857142858</ele><time>2026-05-02T08:28:32.471Z</time></trkpt><trkpt lat="46.1459038" lon="13.590255"><ele>573.0</ele><time>2026-05-02T08:28:33.472Z</time></trkpt><trkpt lat="46.14589" lon="13.5901425"><ele>573.0</ele><time>2026-05-02T08:28:34.468Z</time></trkpt><trkpt lat="46.1458715" lon="13.590003"><ele>573.0</ele><time>2026-05-02T08:28:35.47Z</time></trkpt><trkpt lat="46.1458667" lon="13.589849"><ele>573.0</ele><time>2026-05-02T08:28:36.468Z</time></trkpt><trkpt lat="46.145879" lon="13.5896988"><ele>573.0</ele><time>2026-05-02T08:28:37.468Z</time></trkpt><trkpt lat="46.1458898" lon="13.5895617"><ele>573.0</ele><time>2026-05-02T08:28:38.469Z</time></trkpt><trkpt lat="46.1458915" lon="13.5894488"><ele>574.0</ele><time>2026-05-02T08:28:39.469Z</time></trkpt><trkpt lat="46.1458853" lon="13.5893567"><ele>575.0</ele><time>2026-05-02T08:28:40.468Z</time></trkpt><trkpt lat="46.145885" lon="13.5892548"><ele>576.0</ele><time>2026-05-02T08:28:41.468Z</time></trkpt><trkpt lat="46.1459315" lon="13.5890495"><ele>577.0</ele><time>2026-05-02T08:28:43.47Z</time></trkpt><trkpt lat="46.1459683" lon="13.5889678"><ele>578.0</ele><time>2026-05-02T08:28:44.471Z</time></trkpt><trkpt lat="46.1460177" lon="13.5889007"><ele>579.0</ele><time>2026-05-02T08:28:45.47Z</time></trkpt><trkpt lat="46.1460802" lon="13.5888453"><ele>579.0</ele><time>2026-05-02T08:28:46.47Z</time></trkpt><trkpt lat="46.1461538" lon="13.5887813"><ele>579.0</ele><time>2026-05-02T08:28:47.468Z</time></trkpt><trkpt lat="46.1462295" lon="13.5886965"><ele>579.0</ele><time>2026-05-02T08:28:48.469Z</time></trkpt><trkpt lat="46.1463207" lon="13.5886243"><ele>579.0</ele><time>2026-05-02T08:28:49.468Z</time></trkpt><trkpt lat="46.1464108" lon="13.588571"><ele>579.0</ele><time>2026-05-02T08:28:50.468Z</time></trkpt><trkpt lat="46.146481" lon="13.5885172"><ele>577.3333333333334</ele><time>2026-05-02T08:28:51.471Z</time></trkpt><trkpt lat="46.1465427" lon="13.5884695"><ele>575.6666666666666</ele><time>2026-05-02T08:28:52.467Z</time></trkpt><trkpt lat="46.1466037" lon="13.5884243"><ele>574.0</ele><time>2026-05-02T08:28:53.47Z</time></trkpt><trkpt lat="46.1466665" lon="13.5883565"><ele>572.3333333333333</ele><time>2026-05-02T08:28:55.472Z</time></trkpt><trkpt lat="46.14665" lon="13.5882578"><ele>570.6666666666666</ele><time>2026-05-02T08:28:58.47Z</time></trkpt><trkpt lat="46.1465783" lon="13.5882843"><ele>569.0</ele><time>2026-05-02T08:29:00.47Z</time></trkpt><trkpt lat="46.1464658" lon="13.5883512"><ele>571.0</ele><time>2026-05-02T08:29:02.466Z</time></trkpt><trkpt lat="46.1463235" lon="13.5884457"><ele>573.0</ele><time>2026-05-02T08:29:04.468Z</time></trkpt><trkpt lat="46.1462483" lon="13.5885093"><ele>575.0</ele><time>2026-05-02T08:29:05.468Z</time></trkpt><trkpt lat="46.1461623" lon="13.5885842"><ele>577.0</ele><time>2026-05-02T08:29:06.47Z</time></trkpt><trkpt lat="46.1460885" lon="13.5886543"><ele>579.0</ele><time>2026-05-02T08:29:07.471Z</time></trkpt><trkpt lat="46.1460255" lon="13.5887083"><ele>579.0</ele><time>2026-05-02T08:29:08.47Z</time></trkpt><trkpt lat="46.145932" lon="13.5887945"><ele>579.0</ele><time>2026-05-02T08:29:10.471Z</time></trkpt><trkpt lat="46.1458847" lon="13.5888655"><ele>579.0</ele><time>2026-05-02T08:29:11.468Z</time></trkpt><trkpt lat="46.1458138" lon="13.5890392"><ele>579.0</ele><time>2026-05-02T08:29:13.468Z</time></trkpt><trkpt lat="46.145776" lon="13.589161"><ele>579.0</ele><time>2026-05-02T08:29:14.468Z</time></trkpt><trkpt lat="46.1457377" lon="13.589291"><ele>587.0</ele><time>2026-05-02T08:29:15.468Z</time></trkpt><trkpt lat="46.1457068" lon="13.5894325"><ele>595.0</ele><time>2026-05-02T08:29:16.467Z</time></trkpt><trkpt lat="46.145693" lon="13.5895817"><ele>603.0</ele><time>2026-05-02T08:29:17.467Z</time></trkpt><trkpt lat="46.1456682" lon="13.5897003"><ele>611.0</ele><time>2026-05-02T08:29:18.47Z</time></trkpt><trkpt lat="46.1456537" lon="13.5898103"><ele>619.0</ele><time>2026-05-02T08:29:19.47Z</time></trkpt><trkpt lat="46.1456272" lon="13.5899213"><ele>619.0</ele><time>2026-05-02T08:29:20.469Z</time></trkpt><trkpt lat="46.145594" lon="13.5900293"><ele>619.0</ele><time>2026-05-02T08:29:21.47Z</time></trkpt><trkpt lat="46.145556" lon="13.5901352"><ele>619.0</ele><time>2026-05-02T08:29:22.467Z</time></trkpt><trkpt lat="46.1455283" lon="13.590253"><ele>619.0</ele><time>2026-05-02T08:29:23.469Z</time></trkpt><trkpt lat="46.1455247" lon="13.5905005"><ele>619.0</ele><time>2026-05-02T08:29:25.47Z</time></trkpt><trkpt lat="46.1455167" lon="13.5906305"><ele>617.6666666666667</ele><time>2026-05-02T08:29:26.469Z</time></trkpt><trkpt lat="46.1454887" lon="13.590749"><ele>616.3333333333334</ele><time>2026-05-02T08:29:27.466Z</time></trkpt><trkpt lat="46.1454533" lon="13.5908758"><ele>615.0</ele><time>2026-05-02T08:29:28.468Z</time></trkpt><trkpt lat="46.1454063" lon="13.5909928"><ele>613.6666666666666</ele><time>2026-05-02T08:29:29.468Z</time></trkpt><trkpt lat="46.1453435" lon="13.5910985"><ele>612.3333333333333</ele><time>2026-05-02T08:29:30.47Z</time></trkpt><trkpt lat="46.1453012" lon="13.5911832"><ele>611.0</ele><time>2026-05-02T08:29:31.47Z</time></trkpt><trkpt lat="46.1452627" lon="13.5912633"><ele>610.1666666666666</ele><time>2026-05-02T08:29:32.468Z</time></trkpt><trkpt lat="46.1452247" lon="13.5913538"><ele>609.3333333333333</ele><time>2026-05-02T08:29:33.468Z</time></trkpt><trkpt lat="46.145205" lon="13.5914597"><ele>608.5</ele><time>2026-05-02T08:29:34.469Z</time></trkpt><trkpt lat="46.1452013" lon="13.5915847"><ele>607.6666666666666</ele><time>2026-05-02T08:29:35.47Z</time></trkpt><trkpt lat="46.1451952" lon="13.5917243"><ele>606.8333333333334</ele><time>2026-05-02T08:29:36.47Z</time></trkpt><trkpt lat="46.1451815" lon="13.5918603"><ele>606.0</ele><time>2026-05-02T08:29:37.467Z</time></trkpt><trkpt lat="46.1451623" lon="13.591965"><ele>605.8333333333334</ele><time>2026-05-02T08:29:38.467Z</time></trkpt><trkpt lat="46.1451297" lon="13.5920687"><ele>605.6666666666666</ele><time>2026-05-02T08:29:39.467Z</time></trkpt><trkpt lat="46.1450955" lon="13.5921857"><ele>605.5</ele><time>2026-05-02T08:29:40.469Z</time></trkpt><trkpt lat="46.145068" lon="13.5922998"><ele>605.3333333333333</ele><time>2026-05-02T08:29:41.468Z</time></trkpt><trkpt lat="46.1450518" lon="13.5924008"><ele>605.1666666666666</ele><time>2026-05-02T08:29:42.469Z</time></trkpt><trkpt lat="46.1450458" lon="13.5924967"><ele>605.0</ele><time>2026-05-02T08:29:43.469Z</time></trkpt><trkpt lat="46.145042" lon="13.5926043"><ele>605.8</ele><time>2026-05-02T08:29:44.471Z</time></trkpt><trkpt lat="46.1450577" lon="13.5928757"><ele>606.6</ele><time>2026-05-02T08:29:47.469Z</time></trkpt><trkpt lat="46.1450155" lon="13.5930212"><ele>607.4</ele><time>2026-05-02T08:29:49.47Z</time></trkpt><trkpt lat="46.1449667" lon="13.5930953"><ele>608.2</ele><time>2026-05-02T08:29:50.469Z</time></trkpt><trkpt lat="46.1449313" lon="13.5931893"><ele>609.0</ele><time>2026-05-02T08:29:51.468Z</time></trkpt><trkpt lat="46.1448977" lon="13.5932917"><ele>609.0</ele><time>2026-05-02T08:29:53.466Z</time></trkpt><trkpt lat="46.1448083" lon="13.5932497"><ele>609.0</ele><time>2026-05-02T08:29:56.472Z</time></trkpt><trkpt lat="46.1447512" lon="13.5931815"><ele>609.0</ele><time>2026-05-02T08:29:58.472Z</time></trkpt><trkpt lat="46.1447063" lon="13.59305"><ele>609.0</ele><time>2026-05-02T08:30:00.471Z</time></trkpt><trkpt lat="46.1446707" lon="13.5928832"><ele>609.0</ele><time>2026-05-02T08:30:02.471Z</time></trkpt><trkpt lat="46.1446367" lon="13.5927897"><ele>607.25</ele><time>2026-05-02T08:30:03.47Z</time></trkpt><trkpt lat="46.144591" lon="13.5926945"><ele>605.5</ele><time>2026-05-02T08:30:04.47Z</time></trkpt><trkpt lat="46.1445497" lon="13.5925823"><ele>603.75</ele><time>2026-05-02T08:30:05.47Z</time></trkpt><trkpt lat="46.1444532" lon="13.5923232"><ele>602.0</ele><time>2026-05-02T08:30:07.468Z</time></trkpt><trkpt lat="46.144405" lon="13.5922035"><ele>602.0</ele><time>2026-05-02T08:30:08.468Z</time></trkpt><trkpt lat="46.1443685" lon="13.592094"><ele>602.0</ele><time>2026-05-02T08:30:09.471Z</time></trkpt><trkpt lat="46.1443527" lon="13.5920022"><ele>602.0</ele><time>2026-05-02T08:30:10.471Z</time></trkpt><trkpt lat="46.1443517" lon="13.5918957"><ele>602.0</ele><time>2026-05-02T08:30:11.47Z</time></trkpt><trkpt lat="46.1443538" lon="13.5917975"><ele>602.0</ele><time>2026-05-02T08:30:12.468Z</time></trkpt><trkpt lat="46.144327" lon="13.5916627"><ele>602.0</ele><time>2026-05-02T08:30:14.468Z</time></trkpt><trkpt lat="46.1442085" lon="13.5915913"><ele>603.0</ele><time>2026-05-02T08:30:16.468Z</time></trkpt><trkpt lat="46.1441355" lon="13.5915363"><ele>604.0</ele><time>2026-05-02T08:30:17.467Z</time></trkpt><trkpt lat="46.1440795" lon="13.5914698"><ele>605.0</ele><time>2026-05-02T08:30:18.467Z</time></trkpt><trkpt lat="46.1440148" lon="13.5913945"><ele>606.0</ele><time>2026-05-02T08:30:19.467Z</time></trkpt><trkpt lat="46.1439518" lon="13.5913477"><ele>607.0</ele><time>2026-05-02T08:30:20.469Z</time></trkpt><trkpt lat="46.1438562" lon="13.5912477"><ele>608.0</ele><time>2026-05-02T08:30:22.469Z</time></trkpt><trkpt lat="46.1438143" lon="13.5911533"><ele>603.6</ele><time>2026-05-02T08:30:23.47Z</time></trkpt><trkpt lat="46.143771" lon="13.5910423"><ele>599.1999999999999</ele><time>2026-05-02T08:30:24.469Z</time></trkpt><trkpt lat="46.1437327" lon="13.590939"><ele>594.8</ele><time>2026-05-02T08:30:25.468Z</time></trkpt><trkpt lat="46.1436913" lon="13.5908355"><ele>590.4</ele><time>2026-05-02T08:30:26.469Z</time></trkpt><trkpt lat="46.1436208" lon="13.5905928"><ele>586.0</ele><time>2026-05-02T08:30:28.468Z</time></trkpt><trkpt lat="46.1435912" lon="13.5904615"><ele>586.6</ele><time>2026-05-02T08:30:29.47Z</time></trkpt><trkpt lat="46.1435607" lon="13.5903275"><ele>587.2</ele><time>2026-05-02T08:30:30.468Z</time></trkpt><trkpt lat="46.1435293" lon="13.590191"><ele>587.8</ele><time>2026-05-02T08:30:31.468Z</time></trkpt><trkpt lat="46.1434982" lon="13.5900672"><ele>588.4</ele><time>2026-05-02T08:30:32.467Z</time></trkpt><trkpt lat="46.1434737" lon="13.5899493"><ele>589.0</ele><time>2026-05-02T08:30:33.468Z</time></trkpt><trkpt lat="46.1434425" lon="13.5898427"><ele>589.0</ele><time>2026-05-02T08:30:34.466Z</time></trkpt><trkpt lat="46.1434227" lon="13.5897265"><ele>589.0</ele><time>2026-05-02T08:30:35.467Z</time></trkpt><trkpt lat="46.1433947" lon="13.5896162"><ele>589.0</ele><time>2026-05-02T08:30:36.467Z</time></trkpt><trkpt lat="46.143374" lon="13.5894865"><ele>589.0</ele><time>2026-05-02T08:30:37.467Z</time></trkpt><trkpt lat="46.1433538" lon="13.5893475"><ele>589.0</ele><time>2026-05-02T08:30:38.466Z</time></trkpt><trkpt lat="46.1433447" lon="13.5892172"><ele>589.0</ele><time>2026-05-02T08:30:39.468Z</time></trkpt><trkpt lat="46.1433358" lon="13.589101"><ele>589.3333333333334</ele><time>2026-05-02T08:30:40.468Z</time></trkpt><trkpt lat="46.1433297" lon="13.5889965"><ele>589.6666666666667</ele><time>2026-05-02T08:30:41.467Z</time></trkpt><trkpt lat="46.1433537" lon="13.5888855"><ele>590.0</ele><time>2026-05-02T08:30:42.467Z</time></trkpt><trkpt lat="46.1434088" lon="13.5887775"><ele>590.3333333333334</ele><time>2026-05-02T08:30:43.467Z</time></trkpt><trkpt lat="46.1434455" lon="13.588668"><ele>590.6666666666666</ele><time>2026-05-02T08:30:44.468Z</time></trkpt><trkpt lat="46.1434732" lon="13.5885518"><ele>591.0</ele><time>2026-05-02T08:30:45.471Z</time></trkpt><trkpt lat="46.1434923" lon="13.5884342"><ele>591.0</ele><time>2026-05-02T08:30:46.469Z</time></trkpt><trkpt lat="46.1434825" lon="13.5883095"><ele>591.0</ele><time>2026-05-02T08:30:47.469Z</time></trkpt><trkpt lat="46.143438" lon="13.5880297"><ele>591.0</ele><time>2026-05-02T08:30:49.469Z</time></trkpt><trkpt lat="46.1433968" lon="13.5878877"><ele>591.0</ele><time>2026-05-02T08:30:50.47Z</time></trkpt><trkpt lat="46.1433612" lon="13.5877373"><ele>590.1666666666666</ele><time>2026-05-02T08:30:51.467Z</time></trkpt><trkpt lat="46.143323" lon="13.5875973"><ele>589.3333333333334</ele><time>2026-05-02T08:30:52.466Z</time></trkpt><trkpt lat="46.1432978" lon="13.5874658"><ele>588.5</ele><time>2026-05-02T08:30:53.468Z</time></trkpt><trkpt lat="46.1432702" lon="13.5873468"><ele>587.6666666666667</ele><time>2026-05-02T08:30:54.469Z</time></trkpt><trkpt lat="46.1432613" lon="13.587237"><ele>586.8333333333334</ele><time>2026-05-02T08:30:55.469Z</time></trkpt><trkpt lat="46.143255" lon="13.587128"><ele>586.0</ele><time>2026-05-02T08:30:56.467Z</time></trkpt><trkpt lat="46.1432738" lon="13.5870018"><ele>586.0</ele><time>2026-05-02T08:30:57.467Z</time></trkpt><trkpt lat="46.1432903" lon="13.5868668"><ele>586.0</ele><time>2026-05-02T08:30:58.467Z</time></trkpt><trkpt lat="46.1432867" lon="13.5867327"><ele>586.0</ele><time>2026-05-02T08:30:59.468Z</time></trkpt><trkpt lat="46.1432715" lon="13.5865835"><ele>586.0</ele><time>2026-05-02T08:31:00.468Z</time></trkpt><trkpt lat="46.1432573" lon="13.5864382"><ele>586.0</ele><time>2026-05-02T08:31:01.467Z</time></trkpt><trkpt lat="46.1432393" lon="13.5863147"><ele>586.0</ele><time>2026-05-02T08:31:02.467Z</time></trkpt><trkpt lat="46.1432192" lon="13.5861895"><ele>586.0</ele><time>2026-05-02T08:31:03.467Z</time></trkpt><trkpt lat="46.1431937" lon="13.5860677"><ele>586.0</ele><time>2026-05-02T08:31:04.466Z</time></trkpt><trkpt lat="46.143189" lon="13.5859212"><ele>586.0</ele><time>2026-05-02T08:31:05.466Z</time></trkpt><trkpt lat="46.1431868" lon="13.5857783"><ele>586.0</ele><time>2026-05-02T08:31:06.466Z</time></trkpt><trkpt lat="46.1431707" lon="13.585647"><ele>578.2</ele><time>2026-05-02T08:31:07.468Z</time></trkpt><trkpt lat="46.143146" lon="13.5855243"><ele>570.4000000000001</ele><time>2026-05-02T08:31:08.469Z</time></trkpt><trkpt lat="46.1430618" lon="13.585346"><ele>562.6</ele><time>2026-05-02T08:31:10.469Z</time></trkpt><trkpt lat="46.1430152" lon="13.5852618"><ele>554.8000000000001</ele><time>2026-05-02T08:31:11.467Z</time></trkpt><trkpt lat="46.1429702" lon="13.5851667"><ele>547.0</ele><time>2026-05-02T08:31:12.469Z</time></trkpt><trkpt lat="46.142929" lon="13.5850883"><ele>547.0</ele><time>2026-05-02T08:31:13.468Z</time></trkpt><trkpt lat="46.1428995" lon="13.5850035"><ele>547.0</ele><time>2026-05-02T08:31:14.471Z</time></trkpt><trkpt lat="46.1428678" lon="13.5849042"><ele>547.0</ele><time>2026-05-02T08:31:15.47Z</time></trkpt><trkpt lat="46.1428372" lon="13.5847953"><ele>547.0</ele><time>2026-05-02T08:31:16.47Z</time></trkpt><trkpt lat="46.1428075" lon="13.5846715"><ele>547.0</ele><time>2026-05-02T08:31:17.468Z</time></trkpt><trkpt lat="46.1427767" lon="13.5845437"><ele>547.0</ele><time>2026-05-02T08:31:18.472Z</time></trkpt><trkpt lat="46.1427367" lon="13.5844395"><ele>546.5</ele><time>2026-05-02T08:31:19.472Z</time></trkpt><trkpt lat="46.1427012" lon="13.5843603"><ele>546.0</ele><time>2026-05-02T08:31:20.473Z</time></trkpt><trkpt lat="46.142604" lon="13.584276"><ele>545.5</ele><time>2026-05-02T08:31:22.469Z</time></trkpt><trkpt lat="46.1425383" lon="13.5842565"><ele>545.0</ele><time>2026-05-02T08:31:23.469Z</time></trkpt><trkpt lat="46.142468" lon="13.584235"><ele>544.5</ele><time>2026-05-02T08:31:24.47Z</time></trkpt><trkpt lat="46.1423777" lon="13.5842228"><ele>544.0</ele><time>2026-05-02T08:31:25.471Z</time></trkpt><trkpt lat="46.142285" lon="13.5842157"><ele>544.0</ele><time>2026-05-02T08:31:26.468Z</time></trkpt><trkpt lat="46.1422068" lon="13.5842378"><ele>544.0</ele><time>2026-05-02T08:31:27.47Z</time></trkpt><trkpt lat="46.1421388" lon="13.5842565"><ele>544.0</ele><time>2026-05-02T08:31:28.468Z</time></trkpt><trkpt lat="46.1419912" lon="13.5843185"><ele>544.0</ele><time>2026-05-02T08:31:30.468Z</time></trkpt><trkpt lat="46.1418838" lon="13.5843288"><ele>544.0</ele><time>2026-05-02T08:31:32.467Z</time></trkpt><trkpt lat="46.1418323" lon="13.5842007"><ele>544.0</ele><time>2026-05-02T08:31:34.472Z</time></trkpt><trkpt lat="46.1418265" lon="13.5840948"><ele>544.0</ele><time>2026-05-02T08:31:35.472Z</time></trkpt><trkpt lat="46.1418112" lon="13.5839785"><ele>544.0</ele><time>2026-05-02T08:31:36.472Z</time></trkpt><trkpt lat="46.1417868" lon="13.5838668"><ele>544.0</ele><time>2026-05-02T08:31:37.471Z</time></trkpt><trkpt lat="46.1417565" lon="13.5837503"><ele>544.0</ele><time>2026-05-02T08:31:38.471Z</time></trkpt><trkpt lat="46.1416923" lon="13.5836337"><ele>544.0</ele><time>2026-05-02T08:31:39.48Z</time></trkpt><trkpt lat="46.141616" lon="13.5835197"><ele>535.25</ele><time>2026-05-02T08:31:40.47Z</time></trkpt><trkpt lat="46.1414835" lon="13.5832678"><ele>526.5</ele><time>2026-05-02T08:31:42.472Z</time></trkpt><trkpt lat="46.1414352" lon="13.5831393"><ele>517.75</ele><time>2026-05-02T08:31:43.47Z</time></trkpt><trkpt lat="46.1413813" lon="13.583029"><ele>509.0</ele><time>2026-05-02T08:31:44.47Z</time></trkpt><trkpt lat="46.1413213" lon="13.582928"><ele>509.0</ele><time>2026-05-02T08:31:45.472Z</time></trkpt><trkpt lat="46.1412573" lon="13.582851"><ele>509.0</ele><time>2026-05-02T08:31:46.471Z</time></trkpt><trkpt lat="46.1412062" lon="13.582767"><ele>509.0</ele><time>2026-05-02T08:31:47.473Z</time></trkpt><trkpt lat="46.1411553" lon="13.582656"><ele>509.0</ele><time>2026-05-02T08:31:48.473Z</time></trkpt><trkpt lat="46.1411048" lon="13.5825252"><ele>509.0</ele><time>2026-05-02T08:31:49.474Z</time></trkpt><trkpt lat="46.1410095" lon="13.5822515"><ele>513.0</ele><time>2026-05-02T08:31:51.471Z</time></trkpt><trkpt lat="46.1409763" lon="13.5820978"><ele>517.0</ele><time>2026-05-02T08:31:52.469Z</time></trkpt><trkpt lat="46.1409338" lon="13.5819495"><ele>521.0</ele><time>2026-05-02T08:31:53.467Z</time></trkpt><trkpt lat="46.1408778" lon="13.5818155"><ele>525.0</ele><time>2026-05-02T08:31:54.468Z</time></trkpt><trkpt lat="46.140805" lon="13.5816728"><ele>527.5</ele><time>2026-05-02T08:31:55.468Z</time></trkpt><trkpt lat="46.1407192" lon="13.5815342"><ele>530.0</ele><time>2026-05-02T08:31:56.468Z</time></trkpt><trkpt lat="46.140631" lon="13.5814038"><ele>532.5</ele><time>2026-05-02T08:31:57.471Z</time></trkpt><trkpt lat="46.140546" lon="13.5812883"><ele>535.0</ele><time>2026-05-02T08:31:58.474Z</time></trkpt><trkpt lat="46.1404742" lon="13.5811822"><ele>529.4</ele><time>2026-05-02T08:31:59.473Z</time></trkpt><trkpt lat="46.1404175" lon="13.5810663"><ele>523.8</ele><time>2026-05-02T08:32:00.475Z</time></trkpt><trkpt lat="46.1403708" lon="13.5809308"><ele>518.2</ele><time>2026-05-02T08:32:01.472Z</time></trkpt><trkpt lat="46.1403298" lon="13.5807843"><ele>512.6</ele><time>2026-05-02T08:32:02.473Z</time></trkpt><trkpt lat="46.1402947" lon="13.5806482"><ele>507.0</ele><time>2026-05-02T08:32:03.476Z</time></trkpt><trkpt lat="46.1402628" lon="13.580536"><ele>507.0</ele><time>2026-05-02T08:32:04.471Z</time></trkpt><trkpt lat="46.1402383" lon="13.580435"><ele>507.0</ele><time>2026-05-02T08:32:05.471Z</time></trkpt><trkpt lat="46.1402162" lon="13.580323"><ele>507.0</ele><time>2026-05-02T08:32:06.47Z</time></trkpt><trkpt lat="46.1401998" lon="13.5802062"><ele>507.0</ele><time>2026-05-02T08:32:07.474Z</time></trkpt><trkpt lat="46.1402007" lon="13.5800947"><ele>507.0</ele><time>2026-05-02T08:32:08.47Z</time></trkpt><trkpt lat="46.1402173" lon="13.5799828"><ele>507.0</ele><time>2026-05-02T08:32:09.472Z</time></trkpt><trkpt lat="46.1402272" lon="13.5798565"><ele>507.25</ele><time>2026-05-02T08:32:10.473Z</time></trkpt><trkpt lat="46.1402292" lon="13.579633"><ele>507.5</ele><time>2026-05-02T08:32:12.468Z</time></trkpt><trkpt lat="46.1402265" lon="13.5795168"><ele>507.75</ele><time>2026-05-02T08:32:14.471Z</time></trkpt><trkpt lat="46.1402152" lon="13.579399"><ele>508.0</ele><time>2026-05-02T08:32:16.469Z</time></trkpt><trkpt lat="46.140241" lon="13.5792083"><ele>508.00000000000006</ele><time>2026-05-02T08:32:18.469Z</time></trkpt><trkpt lat="46.1402648" lon="13.5790963"><ele>508.0</ele><time>2026-05-02T08:32:19.468Z</time></trkpt><trkpt lat="46.1402847" lon="13.5789802"><ele>508.0</ele><time>2026-05-02T08:32:20.468Z</time></trkpt><trkpt lat="46.1402975" lon="13.5788517"><ele>508.0</ele><time>2026-05-02T08:32:21.47Z</time></trkpt><trkpt lat="46.1403068" lon="13.5787148"><ele>508.00000000000006</ele><time>2026-05-02T08:32:22.47Z</time></trkpt><trkpt lat="46.1403138" lon="13.5785712"><ele>508.0</ele><time>2026-05-02T08:32:23.47Z</time></trkpt><trkpt lat="46.1403175" lon="13.5784183"><ele>507.0</ele><time>2026-05-02T08:32:24.472Z</time></trkpt><trkpt lat="46.1403197" lon="13.5782627"><ele>505.99999999999994</ele><time>2026-05-02T08:32:25.472Z</time></trkpt><trkpt lat="46.1403185" lon="13.578103"><ele>504.99999999999994</ele><time>2026-05-02T08:32:26.48Z</time></trkpt><trkpt lat="46.1403152" lon="13.5779438"><ele>504.0</ele><time>2026-05-02T08:32:27.471Z</time></trkpt><trkpt lat="46.1403107" lon="13.5777848"><ele>503.0</ele><time>2026-05-02T08:32:28.472Z</time></trkpt><trkpt lat="46.1402997" lon="13.5776345"><ele>503.0</ele><time>2026-05-02T08:32:29.473Z</time></trkpt><trkpt lat="46.1402758" lon="13.5774953"><ele>503.0</ele><time>2026-05-02T08:32:30.472Z</time></trkpt><trkpt lat="46.1402285" lon="13.5773697"><ele>503.0</ele><time>2026-05-02T08:32:31.472Z</time></trkpt><trkpt lat="46.140053" lon="13.5771887"><ele>503.0</ele><time>2026-05-02T08:32:33.47Z</time></trkpt><trkpt lat="46.1399328" lon="13.5771303"><ele>503.0</ele><time>2026-05-02T08:32:34.469Z</time></trkpt><trkpt lat="46.1398012" lon="13.5770808"><ele>503.0</ele><time>2026-05-02T08:32:35.471Z</time></trkpt><trkpt lat="46.1396642" lon="13.5770463"><ele>503.0</ele><time>2026-05-02T08:32:36.472Z</time></trkpt><trkpt lat="46.139535" lon="13.577027"><ele>503.0</ele><time>2026-05-02T08:32:37.472Z</time></trkpt><trkpt lat="46.1394233" lon="13.5770115"><ele>503.0</ele><time>2026-05-02T08:32:38.47Z</time></trkpt><trkpt lat="46.139338" lon="13.5769702"><ele>502.99999999999994</ele><time>2026-05-02T08:32:39.472Z</time></trkpt><trkpt lat="46.139258" lon="13.5768972"><ele>502.99999999999994</ele><time>2026-05-02T08:32:40.472Z</time></trkpt><trkpt lat="46.1391745" lon="13.576805"><ele>503.0</ele><time>2026-05-02T08:32:41.472Z</time></trkpt><trkpt lat="46.1390765" lon="13.5767283"><ele>503.0</ele><time>2026-05-02T08:32:42.468Z</time></trkpt><trkpt lat="46.1389618" lon="13.57669"><ele>499.25</ele><time>2026-05-02T08:32:43.469Z</time></trkpt><trkpt lat="46.1388352" lon="13.5766793"><ele>495.5</ele><time>2026-05-02T08:32:44.469Z</time></trkpt><trkpt lat="46.138692" lon="13.5766918"><ele>491.75</ele><time>2026-05-02T08:32:45.469Z</time></trkpt><trkpt lat="46.1385398" lon="13.5767055"><ele>488.0</ele><time>2026-05-02T08:32:46.47Z</time></trkpt><trkpt lat="46.1383847" lon="13.576715"><ele>488.0</ele><time>2026-05-02T08:32:47.469Z</time></trkpt><trkpt lat="46.138233" lon="13.5767352"><ele>488.0</ele><time>2026-05-02T08:32:48.472Z</time></trkpt><trkpt lat="46.1380823" lon="13.5767735"><ele>488.0</ele><time>2026-05-02T08:32:49.473Z</time></trkpt><trkpt lat="46.1379327" lon="13.5768298"><ele>483.3333333333333</ele><time>2026-05-02T08:32:50.471Z</time></trkpt><trkpt lat="46.137786" lon="13.5769077"><ele>478.66666666666663</ele><time>2026-05-02T08:32:51.47Z</time></trkpt><trkpt lat="46.1376453" lon="13.5769933"><ele>474.0</ele><time>2026-05-02T08:32:52.471Z</time></trkpt><trkpt lat="46.1373832" lon="13.5771432"><ele>472.0</ele><time>2026-05-02T08:32:54.472Z</time></trkpt><trkpt lat="46.1372628" lon="13.5772057"><ele>470.0</ele><time>2026-05-02T08:32:55.471Z</time></trkpt><trkpt lat="46.1371623" lon="13.5772575"><ele>468.0</ele><time>2026-05-02T08:32:56.469Z</time></trkpt><trkpt lat="46.1370808" lon="13.5772902"><ele>466.0</ele><time>2026-05-02T08:32:57.468Z</time></trkpt><trkpt lat="46.1369812" lon="13.5772918"><ele>464.0</ele><time>2026-05-02T08:32:59.471Z</time></trkpt><trkpt lat="46.1369698" lon="13.577159"><ele>464.0</ele><time>2026-05-02T08:33:02.472Z</time></trkpt><trkpt lat="46.1370687" lon="13.5770318"><ele>464.0</ele><time>2026-05-02T08:33:04.47Z</time></trkpt><trkpt lat="46.1371485" lon="13.5769568"><ele>464.0</ele><time>2026-05-02T08:33:05.469Z</time></trkpt><trkpt lat="46.1372418" lon="13.5768757"><ele>464.0</ele><time>2026-05-02T08:33:06.469Z</time></trkpt><trkpt lat="46.1373353" lon="13.5767905"><ele>464.0</ele><time>2026-05-02T08:33:07.472Z</time></trkpt><trkpt lat="46.1374358" lon="13.5767057"><ele>466.0</ele><time>2026-05-02T08:33:08.47Z</time></trkpt><trkpt lat="46.137541" lon="13.5766268"><ele>468.0</ele><time>2026-05-02T08:33:09.468Z</time></trkpt><trkpt lat="46.1376403" lon="13.5765467"><ele>470.0</ele><time>2026-05-02T08:33:10.468Z</time></trkpt><trkpt lat="46.1377133" lon="13.5764927"><ele>472.0</ele><time>2026-05-02T08:33:11.47Z</time></trkpt><trkpt lat="46.137781" lon="13.5764303"><ele>474.0</ele><time>2026-05-02T08:33:14.468Z</time></trkpt><trkpt lat="46.1375937" lon="13.5765442"><ele>474.0</ele><time>2026-05-02T08:33:25.471Z</time></trkpt><trkpt lat="46.137497" lon="13.5766122"><ele>474.0</ele><time>2026-05-02T08:33:26.472Z</time></trkpt><trkpt lat="46.1373827" lon="13.5766902"><ele>474.0</ele><time>2026-05-02T08:33:27.471Z</time></trkpt><trkpt lat="46.1372562" lon="13.576778"><ele>474.0</ele><time>2026-05-02T08:33:28.471Z</time></trkpt><trkpt lat="46.1371288" lon="13.5768718"><ele>472.0</ele><time>2026-05-02T08:33:29.471Z</time></trkpt><trkpt lat="46.1370193" lon="13.576964"><ele>470.0</ele><time>2026-05-02T08:33:30.472Z</time></trkpt><trkpt lat="46.1369415" lon="13.577053"><ele>468.0</ele><time>2026-05-02T08:33:31.468Z</time></trkpt><trkpt lat="46.1368915" lon="13.5771315"><ele>466.0</ele><time>2026-05-02T08:33:32.471Z</time></trkpt><trkpt lat="46.1368218" lon="13.5772742"><ele>464.0</ele><time>2026-05-02T08:33:34.468Z</time></trkpt><trkpt lat="46.1367643" lon="13.5773348"><ele>464.0</ele><time>2026-05-02T08:33:35.468Z</time></trkpt><trkpt lat="46.1366847" lon="13.5773747"><ele>464.0</ele><time>2026-05-02T08:33:36.469Z</time></trkpt><trkpt lat="46.1365103" lon="13.5773368"><ele>464.0</ele><time>2026-05-02T08:33:39.473Z</time></trkpt><trkpt lat="46.1365098" lon="13.5771555"><ele>464.0</ele><time>2026-05-02T08:33:41.473Z</time></trkpt><trkpt lat="46.1365655" lon="13.5770493"><ele>461.5</ele><time>2026-05-02T08:33:42.472Z</time></trkpt><trkpt lat="46.1366577" lon="13.5769395"><ele>459.0</ele><time>2026-05-02T08:33:43.47Z</time></trkpt><trkpt lat="46.1367708" lon="13.5768213"><ele>456.5</ele><time>2026-05-02T08:33:44.472Z</time></trkpt><trkpt lat="46.136903" lon="13.5766883"><ele>454.0</ele><time>2026-05-02T08:33:45.473Z</time></trkpt><trkpt lat="46.1370452" lon="13.5765448"><ele>454.0</ele><time>2026-05-02T08:33:46.471Z</time></trkpt><trkpt lat="46.1371837" lon="13.5763982"><ele>454.0</ele><time>2026-05-02T08:33:47.471Z</time></trkpt><trkpt lat="46.1373127" lon="13.5762618"><ele>454.0</ele><time>2026-05-02T08:33:48.468Z</time></trkpt><trkpt lat="46.137428" lon="13.5761432"><ele>455.0</ele><time>2026-05-02T08:33:49.467Z</time></trkpt><trkpt lat="46.137522" lon="13.5760457"><ele>456.0</ele><time>2026-05-02T08:33:50.467Z</time></trkpt><trkpt lat="46.1375982" lon="13.5759542"><ele>457.0</ele><time>2026-05-02T08:33:51.468Z</time></trkpt><trkpt lat="46.137647" lon="13.5758573"><ele>458.0</ele><time>2026-05-02T08:33:52.47Z</time></trkpt><trkpt lat="46.1376578" lon="13.5757508"><ele>459.0</ele><time>2026-05-02T08:33:53.47Z</time></trkpt><trkpt lat="46.1376265" lon="13.575645"><ele>459.0</ele><time>2026-05-02T08:33:54.471Z</time></trkpt><trkpt lat="46.1375585" lon="13.5755397"><ele>459.0</ele><time>2026-05-02T08:33:55.468Z</time></trkpt><trkpt lat="46.1374748" lon="13.5754192"><ele>459.0</ele><time>2026-05-02T08:33:56.465Z</time></trkpt><trkpt lat="46.1373828" lon="13.5752702"><ele>459.0</ele><time>2026-05-02T08:33:57.466Z</time></trkpt><trkpt lat="46.137182" lon="13.5749032"><ele>445.0</ele><time>2026-05-02T08:33:59.468Z</time></trkpt><trkpt lat="46.1370848" lon="13.574687"><ele>431.0</ele><time>2026-05-02T08:34:00.47Z</time></trkpt><trkpt lat="46.1369913" lon="13.5744632"><ele>417.0</ele><time>2026-05-02T08:34:01.471Z</time></trkpt><trkpt lat="46.1368995" lon="13.5742413"><ele>417.0</ele><time>2026-05-02T08:34:02.468Z</time></trkpt><trkpt lat="46.1368067" lon="13.5740417"><ele>417.0</ele><time>2026-05-02T08:34:03.469Z</time></trkpt><trkpt lat="46.1367247" lon="13.5738592"><ele>417.0</ele><time>2026-05-02T08:34:04.469Z</time></trkpt><trkpt lat="46.136666" lon="13.5736772"><ele>418.5</ele><time>2026-05-02T08:34:05.47Z</time></trkpt><trkpt lat="46.1366295" lon="13.573491"><ele>420.0</ele><time>2026-05-02T08:34:06.468Z</time></trkpt><trkpt lat="46.1366157" lon="13.5733002"><ele>421.5</ele><time>2026-05-02T08:34:07.469Z</time></trkpt><trkpt lat="46.13662" lon="13.5730913"><ele>423.0</ele><time>2026-05-02T08:34:08.469Z</time></trkpt><trkpt lat="46.1366408" lon="13.5728687"><ele>420.75</ele><time>2026-05-02T08:34:09.47Z</time></trkpt><trkpt lat="46.1366703" lon="13.5726718"><ele>418.5</ele><time>2026-05-02T08:34:10.469Z</time></trkpt><trkpt lat="46.1367133" lon="13.5725057"><ele>416.25</ele><time>2026-05-02T08:34:11.468Z</time></trkpt><trkpt lat="46.1367575" lon="13.5723635"><ele>414.0</ele><time>2026-05-02T08:34:12.468Z</time></trkpt><trkpt lat="46.1367928" lon="13.5722362"><ele>414.0</ele><time>2026-05-02T08:34:13.469Z</time></trkpt><trkpt lat="46.1368078" lon="13.572115"><ele>414.0</ele><time>2026-05-02T08:34:14.472Z</time></trkpt><trkpt lat="46.1367997" lon="13.571995"><ele>414.0</ele><time>2026-05-02T08:34:15.471Z</time></trkpt><trkpt lat="46.1367762" lon="13.5718865"><ele>414.0</ele><time>2026-05-02T08:34:16.472Z</time></trkpt><trkpt lat="46.136734" lon="13.5717992"><ele>414.0</ele><time>2026-05-02T08:34:17.47Z</time></trkpt><trkpt lat="46.1366697" lon="13.5717387"><ele>414.0</ele><time>2026-05-02T08:34:18.468Z</time></trkpt><trkpt lat="46.1364825" lon="13.5717092"><ele>415.75</ele><time>2026-05-02T08:34:20.468Z</time></trkpt><trkpt lat="46.1363562" lon="13.5717293"><ele>417.5</ele><time>2026-05-02T08:34:21.468Z</time></trkpt><trkpt lat="46.13622" lon="13.5717397"><ele>419.25</ele><time>2026-05-02T08:34:22.467Z</time></trkpt><trkpt lat="46.136075" lon="13.5717517"><ele>421.0</ele><time>2026-05-02T08:34:23.468Z</time></trkpt><trkpt lat="46.135924" lon="13.5717722"><ele>421.0</ele><time>2026-05-02T08:34:24.467Z</time></trkpt><trkpt lat="46.1357675" lon="13.5718172"><ele>421.0</ele><time>2026-05-02T08:34:25.468Z</time></trkpt><trkpt lat="46.1356085" lon="13.5718837"><ele>421.0</ele><time>2026-05-02T08:34:26.47Z</time></trkpt><trkpt lat="46.135451" lon="13.5719762"><ele>412.6666666666667</ele><time>2026-05-02T08:34:27.47Z</time></trkpt><trkpt lat="46.135286" lon="13.572093"><ele>404.33333333333337</ele><time>2026-05-02T08:34:28.469Z</time></trkpt><trkpt lat="46.1351208" lon="13.5722072"><ele>396.0</ele><time>2026-05-02T08:34:29.469Z</time></trkpt><trkpt lat="46.1349587" lon="13.5723148"><ele>398.0</ele><time>2026-05-02T08:34:30.47Z</time></trkpt><trkpt lat="46.1348065" lon="13.5724073"><ele>400.0</ele><time>2026-05-02T08:34:31.47Z</time></trkpt><trkpt lat="46.1346612" lon="13.5724878"><ele>402.0</ele><time>2026-05-02T08:34:32.468Z</time></trkpt><trkpt lat="46.1345067" lon="13.5725667"><ele>402.0</ele><time>2026-05-02T08:34:33.469Z</time></trkpt><trkpt lat="46.1343432" lon="13.5726238"><ele>402.0</ele><time>2026-05-02T08:34:34.469Z</time></trkpt><trkpt lat="46.1341687" lon="13.5726725"><ele>402.0</ele><time>2026-05-02T08:34:35.472Z</time></trkpt><trkpt lat="46.133993" lon="13.5727308"><ele>397.0</ele><time>2026-05-02T08:34:36.469Z</time></trkpt><trkpt lat="46.1338317" lon="13.5727985"><ele>392.0</ele><time>2026-05-02T08:34:37.468Z</time></trkpt><trkpt lat="46.1336885" lon="13.572882"><ele>387.0</ele><time>2026-05-02T08:34:38.469Z</time></trkpt><trkpt lat="46.1335623" lon="13.572959"><ele>384.6</ele><time>2026-05-02T08:34:39.468Z</time></trkpt><trkpt lat="46.1333845" lon="13.573022"><ele>382.20000000000005</ele><time>2026-05-02T08:34:41.471Z</time></trkpt><trkpt lat="46.1333113" lon="13.572983"><ele>379.8</ele><time>2026-05-02T08:34:42.471Z</time></trkpt><trkpt lat="46.133253" lon="13.5728978"><ele>377.4</ele><time>2026-05-02T08:34:43.472Z</time></trkpt><trkpt lat="46.133213" lon="13.5727803"><ele>375.0</ele><time>2026-05-02T08:34:44.47Z</time></trkpt><trkpt lat="46.1332057" lon="13.5726602"><ele>378.0</ele><time>2026-05-02T08:34:45.469Z</time></trkpt><trkpt lat="46.133234" lon="13.5725338"><ele>381.0</ele><time>2026-05-02T08:34:46.469Z</time></trkpt><trkpt lat="46.1332948" lon="13.5723973"><ele>384.0</ele><time>2026-05-02T08:34:47.47Z</time></trkpt><trkpt lat="46.1333707" lon="13.5722388"><ele>387.0</ele><time>2026-05-02T08:34:48.47Z</time></trkpt><trkpt lat="46.1334443" lon="13.572055"><ele>383.0</ele><time>2026-05-02T08:34:49.47Z</time></trkpt><trkpt lat="46.1335075" lon="13.571856"><ele>379.0</ele><time>2026-05-02T08:34:50.471Z</time></trkpt><trkpt lat="46.1335727" lon="13.5716517"><ele>375.0</ele><time>2026-05-02T08:34:51.471Z</time></trkpt><trkpt lat="46.1336522" lon="13.5714508"><ele>375.0</ele><time>2026-05-02T08:34:52.471Z</time></trkpt><trkpt lat="46.1337433" lon="13.571257"><ele>375.0</ele><time>2026-05-02T08:34:53.469Z</time></trkpt><trkpt lat="46.1338328" lon="13.5710677"><ele>375.0</ele><time>2026-05-02T08:34:54.468Z</time></trkpt><trkpt lat="46.1339185" lon="13.5708835"><ele>375.75</ele><time>2026-05-02T08:34:55.469Z</time></trkpt><trkpt lat="46.1340055" lon="13.570707"><ele>376.5</ele><time>2026-05-02T08:34:56.473Z</time></trkpt><trkpt lat="46.1340822" lon="13.570544"><ele>377.25</ele><time>2026-05-02T08:34:57.469Z</time></trkpt><trkpt lat="46.1341412" lon="13.5704093"><ele>378.0</ele><time>2026-05-02T08:34:58.471Z</time></trkpt><trkpt lat="46.1341757" lon="13.5702953"><ele>378.0</ele><time>2026-05-02T08:34:59.468Z</time></trkpt><trkpt lat="46.1341753" lon="13.5701878"><ele>378.0</ele><time>2026-05-02T08:35:00.468Z</time></trkpt><trkpt lat="46.134072" lon="13.5700237"><ele>378.0</ele><time>2026-05-02T08:35:02.467Z</time></trkpt><trkpt lat="46.133962" lon="13.5699635"><ele>378.0</ele><time>2026-05-02T08:35:03.469Z</time></trkpt><trkpt lat="46.1338347" lon="13.5698832"><ele>370.6666666666667</ele><time>2026-05-02T08:35:04.468Z</time></trkpt><trkpt lat="46.1336923" lon="13.5698057"><ele>363.33333333333337</ele><time>2026-05-02T08:35:05.468Z</time></trkpt><trkpt lat="46.1335398" lon="13.5697445"><ele>356.0</ele><time>2026-05-02T08:35:06.474Z</time></trkpt><trkpt lat="46.1333835" lon="13.5696885"><ele>356.0</ele><time>2026-05-02T08:35:07.473Z</time></trkpt><trkpt lat="46.133232" lon="13.5696278"><ele>356.0</ele><time>2026-05-02T08:35:08.473Z</time></trkpt><trkpt lat="46.133083" lon="13.56956"><ele>356.0</ele><time>2026-05-02T08:35:09.471Z</time></trkpt><trkpt lat="46.132942" lon="13.569493"><ele>356.5</ele><time>2026-05-02T08:35:10.468Z</time></trkpt><trkpt lat="46.1328165" lon="13.5694252"><ele>357.0</ele><time>2026-05-02T08:35:11.47Z</time></trkpt><trkpt lat="46.1326993" lon="13.5693375"><ele>357.5</ele><time>2026-05-02T08:35:12.47Z</time></trkpt><trkpt lat="46.13258" lon="13.569229"><ele>358.0</ele><time>2026-05-02T08:35:13.473Z</time></trkpt><trkpt lat="46.1324668" lon="13.5691255"><ele>355.59999999999997</ele><time>2026-05-02T08:35:14.471Z</time></trkpt><trkpt lat="46.1323643" lon="13.5690415"><ele>353.2</ele><time>2026-05-02T08:35:15.47Z</time></trkpt><trkpt lat="46.1322752" lon="13.5689722"><ele>350.8</ele><time>2026-05-02T08:35:16.473Z</time></trkpt><trkpt lat="46.1322053" lon="13.5689117"><ele>348.4</ele><time>2026-05-02T08:35:17.473Z</time></trkpt><trkpt lat="46.1321573" lon="13.5688527"><ele>346.0</ele><time>2026-05-02T08:35:18.473Z</time></trkpt><trkpt lat="46.1321407" lon="13.5687155"><ele>346.0</ele><time>2026-05-02T08:35:20.469Z</time></trkpt><trkpt lat="46.1321838" lon="13.568641"><ele>346.0</ele><time>2026-05-02T08:35:21.471Z</time></trkpt><trkpt lat="46.1323122" lon="13.5684652"><ele>346.0</ele><time>2026-05-02T08:35:23.47Z</time></trkpt><trkpt lat="46.1323408" lon="13.568355"><ele>346.0</ele><time>2026-05-02T08:35:24.47Z</time></trkpt><trkpt lat="46.1323582" lon="13.5682568"><ele>346.0</ele><time>2026-05-02T08:35:25.469Z</time></trkpt><trkpt lat="46.132327" lon="13.5681458"><ele>346.0</ele><time>2026-05-02T08:35:26.47Z</time></trkpt><trkpt lat="46.1322682" lon="13.5680368"><ele>346.0</ele><time>2026-05-02T08:35:27.47Z</time></trkpt><trkpt lat="46.1322033" lon="13.5679352"><ele>346.0</ele><time>2026-05-02T08:35:28.467Z</time></trkpt><trkpt lat="46.1321325" lon="13.5678637"><ele>346.0</ele><time>2026-05-02T08:35:29.471Z</time></trkpt><trkpt lat="46.132053" lon="13.5678362"><ele>346.0</ele><time>2026-05-02T08:35:30.468Z</time></trkpt><trkpt lat="46.131953" lon="13.567833"><ele>344.75</ele><time>2026-05-02T08:35:31.47Z</time></trkpt><trkpt lat="46.1318395" lon="13.567825"><ele>343.5</ele><time>2026-05-02T08:35:32.472Z</time></trkpt><trkpt lat="46.131715" lon="13.5677913"><ele>342.25</ele><time>2026-05-02T08:35:33.472Z</time></trkpt><trkpt lat="46.1315868" lon="13.567737"><ele>341.0</ele><time>2026-05-02T08:35:34.469Z</time></trkpt><trkpt lat="46.1314735" lon="13.5676832"><ele>338.4</ele><time>2026-05-02T08:35:35.47Z</time></trkpt><trkpt lat="46.1313845" lon="13.567621"><ele>335.8</ele><time>2026-05-02T08:35:36.467Z</time></trkpt><trkpt lat="46.1313188" lon="13.5675415"><ele>333.2</ele><time>2026-05-02T08:35:37.468Z</time></trkpt><trkpt lat="46.1312845" lon="13.5674293"><ele>330.59999999999997</ele><time>2026-05-02T08:35:38.47Z</time></trkpt><trkpt lat="46.1312778" lon="13.5672705"><ele>328.0</ele><time>2026-05-02T08:35:39.472Z</time></trkpt><trkpt lat="46.1312915" lon="13.567079"><ele>324.66666666666663</ele><time>2026-05-02T08:35:40.472Z</time></trkpt><trkpt lat="46.1313098" lon="13.5668693"><ele>321.3333333333333</ele><time>2026-05-02T08:35:41.472Z</time></trkpt><trkpt lat="46.1313265" lon="13.5666825"><ele>318.0</ele><time>2026-05-02T08:35:42.472Z</time></trkpt><trkpt lat="46.1313922" lon="13.5663908"><ele>318.0</ele><time>2026-05-02T08:35:44.472Z</time></trkpt><trkpt lat="46.1314643" lon="13.5662905"><ele>318.0</ele><time>2026-05-02T08:35:45.472Z</time></trkpt><trkpt lat="46.131565" lon="13.5662048"><ele>318.0</ele><time>2026-05-02T08:35:46.472Z</time></trkpt><trkpt lat="46.131675" lon="13.5660955"><ele>318.0</ele><time>2026-05-02T08:35:47.469Z</time></trkpt><trkpt lat="46.1317882" lon="13.5659768"><ele>319.3333333333333</ele><time>2026-05-02T08:35:48.471Z</time></trkpt><trkpt lat="46.13189" lon="13.5658867"><ele>320.6666666666667</ele><time>2026-05-02T08:35:49.472Z</time></trkpt><trkpt lat="46.1319695" lon="13.5658052"><ele>322.0</ele><time>2026-05-02T08:35:50.471Z</time></trkpt><trkpt lat="46.132019" lon="13.5657183"><ele>323.33333333333337</ele><time>2026-05-02T08:35:51.471Z</time></trkpt><trkpt lat="46.1320333" lon="13.5656253"><ele>324.6666666666667</ele><time>2026-05-02T08:35:52.47Z</time></trkpt><trkpt lat="46.1320025" lon="13.5655368"><ele>326.0</ele><time>2026-05-02T08:35:53.469Z</time></trkpt><trkpt lat="46.1319343" lon="13.565476"><ele>326.0</ele><time>2026-05-02T08:35:54.47Z</time></trkpt><trkpt lat="46.1318273" lon="13.5654277"><ele>326.0</ele><time>2026-05-02T08:35:55.468Z</time></trkpt><trkpt lat="46.1316982" lon="13.565389"><ele>326.0</ele><time>2026-05-02T08:35:56.467Z</time></trkpt><trkpt lat="46.1315547" lon="13.5653695"><ele>326.0</ele><time>2026-05-02T08:35:57.467Z</time></trkpt><trkpt lat="46.131414" lon="13.5653702"><ele>322.75</ele><time>2026-05-02T08:35:58.466Z</time></trkpt><trkpt lat="46.131284" lon="13.5653615"><ele>319.5</ele><time>2026-05-02T08:35:59.468Z</time></trkpt><trkpt lat="46.131153" lon="13.5653113"><ele>316.25</ele><time>2026-05-02T08:36:00.469Z</time></trkpt><trkpt lat="46.1310108" lon="13.5652355"><ele>313.0</ele><time>2026-05-02T08:36:01.468Z</time></trkpt><trkpt lat="46.130853" lon="13.5651502"><ele>305.0</ele><time>2026-05-02T08:36:02.47Z</time></trkpt><trkpt lat="46.1306908" lon="13.5650918"><ele>297.0</ele><time>2026-05-02T08:36:03.47Z</time></trkpt><trkpt lat="46.1303263" lon="13.5650918"><ele>297.0</ele><time>2026-05-02T08:36:05.469Z</time></trkpt><trkpt lat="46.1301482" lon="13.5650915"><ele>297.0</ele><time>2026-05-02T08:36:06.471Z</time></trkpt><trkpt lat="46.1299828" lon="13.5650827"><ele>297.0</ele><time>2026-05-02T08:36:07.471Z</time></trkpt><trkpt lat="46.1298313" lon="13.5650638"><ele>291.75</ele><time>2026-05-02T08:36:08.471Z</time></trkpt><trkpt lat="46.1296883" lon="13.5650218"><ele>286.5</ele><time>2026-05-02T08:36:09.472Z</time></trkpt><trkpt lat="46.1295502" lon="13.56495"><ele>281.25</ele><time>2026-05-02T08:36:10.47Z</time></trkpt><trkpt lat="46.1294272" lon="13.5648597"><ele>276.0</ele><time>2026-05-02T08:36:11.471Z</time></trkpt><trkpt lat="46.1293023" lon="13.564797"><ele>276.0</ele><time>2026-05-02T08:36:12.472Z</time></trkpt><trkpt lat="46.1291667" lon="13.5647722"><ele>276.0</ele><time>2026-05-02T08:36:13.471Z</time></trkpt><trkpt lat="46.129036" lon="13.5647752"><ele>276.0</ele><time>2026-05-02T08:36:14.471Z</time></trkpt><trkpt lat="46.1289185" lon="13.5647848"><ele>276.0</ele><time>2026-05-02T08:36:15.471Z</time></trkpt><trkpt lat="46.1288272" lon="13.5647675"><ele>274.25</ele><time>2026-05-02T08:36:16.471Z</time></trkpt><trkpt lat="46.1287525" lon="13.564709"><ele>272.5</ele><time>2026-05-02T08:36:17.471Z</time></trkpt><trkpt lat="46.1286902" lon="13.5645938"><ele>270.75</ele><time>2026-05-02T08:36:18.47Z</time></trkpt><trkpt lat="46.1286227" lon="13.564431"><ele>269.0</ele><time>2026-05-02T08:36:19.471Z</time></trkpt><trkpt lat="46.1285467" lon="13.5642547"><ele>269.0</ele><time>2026-05-02T08:36:20.47Z</time></trkpt><trkpt lat="46.12847" lon="13.564099"><ele>269.0</ele><time>2026-05-02T08:36:21.47Z</time></trkpt><trkpt lat="46.1284087" lon="13.5639522"><ele>269.0</ele><time>2026-05-02T08:36:22.468Z</time></trkpt><trkpt lat="46.128382" lon="13.5638133"><ele>269.0</ele><time>2026-05-02T08:36:23.467Z</time></trkpt><trkpt lat="46.1283833" lon="13.5636893"><ele>269.0</ele><time>2026-05-02T08:36:24.469Z</time></trkpt><trkpt lat="46.128292" lon="13.5635302"><ele>269.0</ele><time>2026-05-02T08:36:27.472Z</time></trkpt><trkpt lat="46.1282323" lon="13.5637008"><ele>269.0</ele><time>2026-05-02T08:36:29.47Z</time></trkpt><trkpt lat="46.1282282" lon="13.5638568"><ele>269.0</ele><time>2026-05-02T08:36:30.468Z</time></trkpt><trkpt lat="46.1282365" lon="13.5640425"><ele>269.0</ele><time>2026-05-02T08:36:31.472Z</time></trkpt><trkpt lat="46.128238" lon="13.5642298"><ele>261.75</ele><time>2026-05-02T08:36:32.472Z</time></trkpt><trkpt lat="46.1282115" lon="13.5644098"><ele>254.5</ele><time>2026-05-02T08:36:33.473Z</time></trkpt><trkpt lat="46.128152" lon="13.5645707"><ele>247.25</ele><time>2026-05-02T08:36:34.469Z</time></trkpt><trkpt lat="46.1280747" lon="13.5647108"><ele>240.0</ele><time>2026-05-02T08:36:35.47Z</time></trkpt><trkpt lat="46.1280147" lon="13.5648422"><ele>239.4</ele><time>2026-05-02T08:36:36.472Z</time></trkpt><trkpt lat="46.1279847" lon="13.5649723"><ele>238.8</ele><time>2026-05-02T08:36:37.471Z</time></trkpt><trkpt lat="46.1279742" lon="13.5650683"><ele>238.2</ele><time>2026-05-02T08:36:38.472Z</time></trkpt><trkpt lat="46.1279278" lon="13.565164"><ele>237.6</ele><time>2026-05-02T08:36:40.475Z</time></trkpt><trkpt lat="46.1278482" lon="13.565051"><ele>237.0</ele><time>2026-05-02T08:36:42.472Z</time></trkpt><trkpt lat="46.1278227" lon="13.5649167"><ele>237.0</ele><time>2026-05-02T08:36:43.472Z</time></trkpt><trkpt lat="46.1278167" lon="13.5647488"><ele>237.0</ele><time>2026-05-02T08:36:44.469Z</time></trkpt><trkpt lat="46.1278137" lon="13.5645673"><ele>237.0</ele><time>2026-05-02T08:36:45.469Z</time></trkpt><trkpt lat="46.127765" lon="13.5642905"><ele>237.0</ele><time>2026-05-02T08:36:47.468Z</time></trkpt><trkpt lat="46.127693" lon="13.5642025"><ele>237.5</ele><time>2026-05-02T08:36:48.467Z</time></trkpt><trkpt lat="46.1276078" lon="13.5641298"><ele>238.0</ele><time>2026-05-02T08:36:49.469Z</time></trkpt><trkpt lat="46.127544" lon="13.5640492"><ele>238.5</ele><time>2026-05-02T08:36:50.468Z</time></trkpt><trkpt lat="46.1275128" lon="13.5639452"><ele>239.0</ele><time>2026-05-02T08:36:51.47Z</time></trkpt><trkpt lat="46.1275147" lon="13.5638298"><ele>239.5</ele><time>2026-05-02T08:36:52.471Z</time></trkpt><trkpt lat="46.1275198" lon="13.5637335"><ele>240.0</ele><time>2026-05-02T08:36:53.472Z</time></trkpt><trkpt lat="46.1274545" lon="13.5636563"><ele>240.0</ele><time>2026-05-02T08:36:55.47Z</time></trkpt><trkpt lat="46.1273943" lon="13.5637908"><ele>240.0</ele><time>2026-05-02T08:36:57.468Z</time></trkpt><trkpt lat="46.1273868" lon="13.563928"><ele>240.0</ele><time>2026-05-02T08:36:58.473Z</time></trkpt><trkpt lat="46.1273945" lon="13.5640973"><ele>240.0</ele><time>2026-05-02T08:36:59.471Z</time></trkpt><trkpt lat="46.127411" lon="13.5642915"><ele>240.0</ele><time>2026-05-02T08:37:00.472Z</time></trkpt><trkpt lat="46.127407" lon="13.5644757"><ele>240.0</ele><time>2026-05-02T08:37:01.47Z</time></trkpt><trkpt lat="46.1273747" lon="13.5646495"><ele>240.0</ele><time>2026-05-02T08:37:02.469Z</time></trkpt><trkpt lat="46.1273245" lon="13.56482"><ele>240.0</ele><time>2026-05-02T08:37:03.47Z</time></trkpt><trkpt lat="46.1272883" lon="13.5649967"><ele>237.0</ele><time>2026-05-02T08:37:04.471Z</time></trkpt><trkpt lat="46.1272795" lon="13.565171"><ele>234.0</ele><time>2026-05-02T08:37:05.473Z</time></trkpt><trkpt lat="46.1272883" lon="13.5653248"><ele>231.0</ele><time>2026-05-02T08:37:06.468Z</time></trkpt><trkpt lat="46.1273422" lon="13.565551"><ele>228.0</ele><time>2026-05-02T08:37:08.47Z</time></trkpt><trkpt lat="46.1273748" lon="13.5656695"><ele>228.8</ele><time>2026-05-02T08:37:10.469Z</time></trkpt><trkpt lat="46.1274103" lon="13.5657747"><ele>229.60000000000002</ele><time>2026-05-02T08:37:32.468Z</time></trkpt><trkpt lat="46.1275313" lon="13.5658968"><ele>230.39999999999998</ele><time>2026-05-02T08:37:34.471Z</time></trkpt><trkpt lat="46.12761" lon="13.5659737"><ele>231.2</ele><time>2026-05-02T08:37:35.47Z</time></trkpt><trkpt lat="46.127694" lon="13.5660762"><ele>232.0</ele><time>2026-05-02T08:37:36.467Z</time></trkpt><trkpt lat="46.1277812" lon="13.5661805"><ele>230.2</ele><time>2026-05-02T08:37:37.468Z</time></trkpt><trkpt lat="46.1278705" lon="13.5662665"><ele>228.39999999999998</ele><time>2026-05-02T08:37:38.467Z</time></trkpt><trkpt lat="46.1279378" lon="13.5663545"><ele>226.60000000000002</ele><time>2026-05-02T08:37:39.472Z</time></trkpt><trkpt lat="46.1279763" lon="13.5664582"><ele>224.8</ele><time>2026-05-02T08:37:40.471Z</time></trkpt><trkpt lat="46.1279902" lon="13.566593"><ele>223.0</ele><time>2026-05-02T08:37:41.471Z</time></trkpt><trkpt lat="46.1280043" lon="13.5667413"><ele>223.0</ele><time>2026-05-02T08:37:42.47Z</time></trkpt><trkpt lat="46.1280395" lon="13.5668917"><ele>223.0</ele><time>2026-05-02T08:37:43.473Z</time></trkpt><trkpt lat="46.1280982" lon="13.5670425"><ele>223.0</ele><time>2026-05-02T08:37:44.473Z</time></trkpt><trkpt lat="46.128166" lon="13.5672087"><ele>223.0</ele><time>2026-05-02T08:37:45.472Z</time></trkpt><trkpt lat="46.1282185" lon="13.5673988"><ele>228.66666666666666</ele><time>2026-05-02T08:37:46.474Z</time></trkpt><trkpt lat="46.1282505" lon="13.567612"><ele>234.33333333333331</ele><time>2026-05-02T08:37:47.469Z</time></trkpt><trkpt lat="46.1282812" lon="13.5678342"><ele>240.0</ele><time>2026-05-02T08:37:48.472Z</time></trkpt><trkpt lat="46.1283093" lon="13.568053"><ele>240.0</ele><time>2026-05-02T08:37:49.473Z</time></trkpt><trkpt lat="46.1283312" lon="13.5682567"><ele>240.0</ele><time>2026-05-02T08:37:50.474Z</time></trkpt><trkpt lat="46.1283477" lon="13.568449"><ele>240.0</ele><time>2026-05-02T08:37:51.472Z</time></trkpt><trkpt lat="46.1283593" lon="13.5686405"><ele>240.0</ele><time>2026-05-02T08:37:52.469Z</time></trkpt><trkpt lat="46.128357" lon="13.5688415"><ele>240.33333333333331</ele><time>2026-05-02T08:37:53.471Z</time></trkpt><trkpt lat="46.1283355" lon="13.569256"><ele>240.66666666666666</ele><time>2026-05-02T08:37:55.472Z</time></trkpt><trkpt lat="46.128332" lon="13.5694223"><ele>241.0</ele><time>2026-05-02T08:37:56.471Z</time></trkpt><trkpt lat="46.1283353" lon="13.5695543"><ele>243.0</ele><time>2026-05-02T08:37:57.473Z</time></trkpt><trkpt lat="46.128361" lon="13.5696608"><ele>245.00000000000003</ele><time>2026-05-02T08:37:58.472Z</time></trkpt><trkpt lat="46.1284223" lon="13.5697572"><ele>247.00000000000003</ele><time>2026-05-02T08:37:59.471Z</time></trkpt><trkpt lat="46.1285137" lon="13.5698607"><ele>249.0</ele><time>2026-05-02T08:38:00.47Z</time></trkpt><trkpt lat="46.128625" lon="13.569983"><ele>251.0</ele><time>2026-05-02T08:38:01.468Z</time></trkpt><trkpt lat="46.1287447" lon="13.5701218"><ele>251.0</ele><time>2026-05-02T08:38:02.467Z</time></trkpt><trkpt lat="46.1288632" lon="13.570278"><ele>251.0</ele><time>2026-05-02T08:38:03.467Z</time></trkpt><trkpt lat="46.1289723" lon="13.5704583"><ele>251.0</ele><time>2026-05-02T08:38:04.467Z</time></trkpt><trkpt lat="46.1290752" lon="13.5706558"><ele>249.33333333333334</ele><time>2026-05-02T08:38:05.469Z</time></trkpt><trkpt lat="46.129185" lon="13.5708645"><ele>247.66666666666669</ele><time>2026-05-02T08:38:06.472Z</time></trkpt><trkpt lat="46.129305" lon="13.5710722"><ele>246.0</ele><time>2026-05-02T08:38:07.469Z</time></trkpt><trkpt lat="46.1294253" lon="13.5712642"><ele>251.66666666666669</ele><time>2026-05-02T08:38:08.469Z</time></trkpt><trkpt lat="46.1295433" lon="13.571444"><ele>257.33333333333337</ele><time>2026-05-02T08:38:09.473Z</time></trkpt><trkpt lat="46.1296568" lon="13.5716205"><ele>263.0</ele><time>2026-05-02T08:38:10.472Z</time></trkpt><trkpt lat="46.1297618" lon="13.5717923"><ele>263.0</ele><time>2026-05-02T08:38:11.475Z</time></trkpt><trkpt lat="46.1298513" lon="13.5719693"><ele>263.0</ele><time>2026-05-02T08:38:12.473Z</time></trkpt><trkpt lat="46.1299165" lon="13.5721682"><ele>263.0</ele><time>2026-05-02T08:38:13.469Z</time></trkpt><trkpt lat="46.129957" lon="13.5723923"><ele>266.0</ele><time>2026-05-02T08:38:14.472Z</time></trkpt><trkpt lat="46.1300573" lon="13.5728715"><ele>269.0</ele><time>2026-05-02T08:38:16.472Z</time></trkpt><trkpt lat="46.1301462" lon="13.5731163"><ele>269.0</ele><time>2026-05-02T08:38:17.47Z</time></trkpt><trkpt lat="46.1302475" lon="13.5733588"><ele>269.0</ele><time>2026-05-02T08:38:18.469Z</time></trkpt><trkpt lat="46.1303415" lon="13.5735847"><ele>269.0</ele><time>2026-05-02T08:38:19.47Z</time></trkpt><trkpt lat="46.1304215" lon="13.5737948"><ele>271.25</ele><time>2026-05-02T08:38:20.469Z</time></trkpt><trkpt lat="46.1304875" lon="13.5739875"><ele>273.5</ele><time>2026-05-02T08:38:21.472Z</time></trkpt><trkpt lat="46.13053" lon="13.5741767"><ele>275.75</ele><time>2026-05-02T08:38:22.473Z</time></trkpt><trkpt lat="46.1305443" lon="13.5743797"><ele>278.0</ele><time>2026-05-02T08:38:23.475Z</time></trkpt><trkpt lat="46.130541" lon="13.5745972"><ele>280.75</ele><time>2026-05-02T08:38:24.476Z</time></trkpt><trkpt lat="46.1305537" lon="13.574822"><ele>283.5</ele><time>2026-05-02T08:38:25.468Z</time></trkpt><trkpt lat="46.1305888" lon="13.5750305"><ele>286.25</ele><time>2026-05-02T08:38:26.472Z</time></trkpt><trkpt lat="46.1306238" lon="13.575219"><ele>289.0</ele><time>2026-05-02T08:38:27.467Z</time></trkpt><trkpt lat="46.1306375" lon="13.5753948"><ele>293.75</ele><time>2026-05-02T08:38:28.469Z</time></trkpt><trkpt lat="46.1306307" lon="13.5755673"><ele>298.5</ele><time>2026-05-02T08:38:29.471Z</time></trkpt><trkpt lat="46.1306338" lon="13.5757307"><ele>303.25</ele><time>2026-05-02T08:38:30.47Z</time></trkpt><trkpt lat="46.1306683" lon="13.5758867"><ele>308.0</ele><time>2026-05-02T08:38:31.47Z</time></trkpt><trkpt lat="46.1307358" lon="13.576031"><ele>301.25</ele><time>2026-05-02T08:38:32.472Z</time></trkpt><trkpt lat="46.1308323" lon="13.576177"><ele>294.5</ele><time>2026-05-02T08:38:33.473Z</time></trkpt><trkpt lat="46.1309365" lon="13.57633"><ele>287.75</ele><time>2026-05-02T08:38:34.472Z</time></trkpt><trkpt lat="46.1310413" lon="13.5764792"><ele>281.0</ele><time>2026-05-02T08:38:35.47Z</time></trkpt><trkpt lat="46.1312198" lon="13.5767693"><ele>281.0</ele><time>2026-05-02T08:38:37.469Z</time></trkpt><trkpt lat="46.1312942" lon="13.5769305"><ele>281.0</ele><time>2026-05-02T08:38:38.469Z</time></trkpt><trkpt lat="46.1313468" lon="13.5771125"><ele>281.0</ele><time>2026-05-02T08:38:39.47Z</time></trkpt><trkpt lat="46.1313892" lon="13.5772988"><ele>281.0</ele><time>2026-05-02T08:38:40.474Z</time></trkpt><trkpt lat="46.1314365" lon="13.5774623"><ele>282.83333333333337</ele><time>2026-05-02T08:38:41.478Z</time></trkpt><trkpt lat="46.131486" lon="13.5775903"><ele>284.6666666666667</ele><time>2026-05-02T08:38:42.473Z</time></trkpt><trkpt lat="46.1315312" lon="13.5776845"><ele>286.5</ele><time>2026-05-02T08:38:43.472Z</time></trkpt><trkpt lat="46.1315578" lon="13.5777677"><ele>288.3333333333333</ele><time>2026-05-02T08:38:44.469Z</time></trkpt><trkpt lat="46.1315133" lon="13.5778827"><ele>290.16666666666663</ele><time>2026-05-02T08:38:46.472Z</time></trkpt><trkpt lat="46.1314273" lon="13.5778063"><ele>292.0</ele><time>2026-05-02T08:38:48.472Z</time></trkpt><trkpt lat="46.1313897" lon="13.5776967"><ele>292.0</ele><time>2026-05-02T08:38:49.469Z</time></trkpt><trkpt lat="46.1313373" lon="13.5775378"><ele>292.0</ele><time>2026-05-02T08:38:50.468Z</time></trkpt><trkpt lat="46.1312665" lon="13.5773693"><ele>292.0</ele><time>2026-05-02T08:38:51.471Z</time></trkpt><trkpt lat="46.1311702" lon="13.5772177"><ele>292.0</ele><time>2026-05-02T08:38:52.469Z</time></trkpt><trkpt lat="46.1310675" lon="13.5770855"><ele>289.25</ele><time>2026-05-02T08:38:53.469Z</time></trkpt><trkpt lat="46.1309952" lon="13.5769367"><ele>286.5</ele><time>2026-05-02T08:38:54.471Z</time></trkpt><trkpt lat="46.1309282" lon="13.5767792"><ele>283.75</ele><time>2026-05-02T08:38:55.47Z</time></trkpt><trkpt lat="46.130833" lon="13.5766123"><ele>281.0</ele><time>2026-05-02T08:38:56.47Z</time></trkpt><trkpt lat="46.1305568" lon="13.5762448"><ele>290.0</ele><time>2026-05-02T08:38:58.468Z</time></trkpt><trkpt lat="46.130421" lon="13.5760497"><ele>299.0</ele><time>2026-05-02T08:38:59.472Z</time></trkpt><trkpt lat="46.1302958" lon="13.5758472"><ele>308.0</ele><time>2026-05-02T08:39:00.472Z</time></trkpt><trkpt lat="46.1301802" lon="13.5756332"><ele>308.0</ele><time>2026-05-02T08:39:01.472Z</time></trkpt><trkpt lat="46.1300798" lon="13.5754013"><ele>308.0</ele><time>2026-05-02T08:39:02.469Z</time></trkpt><trkpt lat="46.1299888" lon="13.575154"><ele>308.0</ele><time>2026-05-02T08:39:03.473Z</time></trkpt><trkpt lat="46.1298928" lon="13.574916"><ele>319.6666666666667</ele><time>2026-05-02T08:39:04.473Z</time></trkpt><trkpt lat="46.1298037" lon="13.5746855"><ele>331.3333333333333</ele><time>2026-05-02T08:39:05.471Z</time></trkpt><trkpt lat="46.1297367" lon="13.574444"><ele>343.0</ele><time>2026-05-02T08:39:06.473Z</time></trkpt><trkpt lat="46.1297003" lon="13.5741975"><ele>343.0</ele><time>2026-05-02T08:39:07.468Z</time></trkpt><trkpt lat="46.1296858" lon="13.5739642"><ele>343.0</ele><time>2026-05-02T08:39:08.469Z</time></trkpt><trkpt lat="46.1296595" lon="13.573763"><ele>343.0</ele><time>2026-05-02T08:39:09.472Z</time></trkpt><trkpt lat="46.1296127" lon="13.5735725"><ele>343.0</ele><time>2026-05-02T08:39:10.473Z</time></trkpt><trkpt lat="46.1295328" lon="13.5733853"><ele>337.0</ele><time>2026-05-02T08:39:11.472Z</time></trkpt><trkpt lat="46.1294333" lon="13.5731882"><ele>331.0</ele><time>2026-05-02T08:39:12.472Z</time></trkpt><trkpt lat="46.1293393" lon="13.573008"><ele>325.0</ele><time>2026-05-02T08:39:13.469Z</time></trkpt><trkpt lat="46.1292565" lon="13.5728597"><ele>328.5</ele><time>2026-05-02T08:39:14.469Z</time></trkpt><trkpt lat="46.1291838" lon="13.5727422"><ele>332.0</ele><time>2026-05-02T08:39:15.469Z</time></trkpt><trkpt lat="46.129098" lon="13.5726653"><ele>335.5</ele><time>2026-05-02T08:39:16.472Z</time></trkpt><trkpt lat="46.1289955" lon="13.5726262"><ele>339.0</ele><time>2026-05-02T08:39:17.469Z</time></trkpt><trkpt lat="46.1287602" lon="13.5724547"><ele>339.0</ele><time>2026-05-02T08:39:19.469Z</time></trkpt><trkpt lat="46.1286498" lon="13.572361"><ele>339.0</ele><time>2026-05-02T08:39:20.469Z</time></trkpt><trkpt lat="46.1285507" lon="13.5722667"><ele>339.0</ele><time>2026-05-02T08:39:21.469Z</time></trkpt><trkpt lat="46.1284873" lon="13.5721392"><ele>339.0</ele><time>2026-05-02T08:39:22.47Z</time></trkpt><trkpt lat="46.1284368" lon="13.5720025"><ele>339.0</ele><time>2026-05-02T08:39:23.469Z</time></trkpt><trkpt lat="46.1283818" lon="13.571865"><ele>339.0</ele><time>2026-05-02T08:39:24.469Z</time></trkpt><trkpt lat="46.1282995" lon="13.5717355"><ele>339.0</ele><time>2026-05-02T08:39:25.471Z</time></trkpt><trkpt lat="46.1281923" lon="13.5716108"><ele>339.0</ele><time>2026-05-02T08:39:26.471Z</time></trkpt><trkpt lat="46.128089" lon="13.571471"><ele>339.0</ele><time>2026-05-02T08:39:27.472Z</time></trkpt><trkpt lat="46.127996" lon="13.5713448"><ele>339.0</ele><time>2026-05-02T08:39:28.471Z</time></trkpt><trkpt lat="46.1279043" lon="13.5712525"><ele>339.0</ele><time>2026-05-02T08:39:29.468Z</time></trkpt><trkpt lat="46.1277903" lon="13.57121"><ele>339.0</ele><time>2026-05-02T08:39:30.471Z</time></trkpt><trkpt lat="46.1276738" lon="13.5711743"><ele>335.2</ele><time>2026-05-02T08:39:31.47Z</time></trkpt><trkpt lat="46.1275643" lon="13.571136"><ele>331.4</ele><time>2026-05-02T08:39:32.469Z</time></trkpt><trkpt lat="46.1274673" lon="13.5710708"><ele>327.6</ele><time>2026-05-02T08:39:33.469Z</time></trkpt><trkpt lat="46.1274028" lon="13.5709745"><ele>323.8</ele><time>2026-05-02T08:39:34.47Z</time></trkpt><trkpt lat="46.1273563" lon="13.5708367"><ele>320.0</ele><time>2026-05-02T08:39:35.467Z</time></trkpt><trkpt lat="46.1273137" lon="13.5706867"><ele>320.0</ele><time>2026-05-02T08:39:36.468Z</time></trkpt><trkpt lat="46.1272693" lon="13.57055"><ele>320.0</ele><time>2026-05-02T08:39:37.467Z</time></trkpt><trkpt lat="46.127204" lon="13.5704477"><ele>320.0</ele><time>2026-05-02T08:39:38.468Z</time></trkpt><trkpt lat="46.1270393" lon="13.5704015"><ele>320.0</ele><time>2026-05-02T08:39:40.47Z</time></trkpt><trkpt lat="46.1269462" lon="13.5704478"><ele>320.0</ele><time>2026-05-02T08:39:41.47Z</time></trkpt><trkpt lat="46.1268415" lon="13.5705172"><ele>320.0</ele><time>2026-05-02T08:39:42.471Z</time></trkpt><trkpt lat="46.1267492" lon="13.5705802"><ele>320.0</ele><time>2026-05-02T08:39:43.471Z</time></trkpt><trkpt lat="46.1266775" lon="13.5706423"><ele>320.0</ele><time>2026-05-02T08:39:44.471Z</time></trkpt><trkpt lat="46.1266345" lon="13.5707195"><ele>320.0</ele><time>2026-05-02T08:39:45.471Z</time></trkpt><trkpt lat="46.1266627" lon="13.5708727"><ele>320.0</ele><time>2026-05-02T08:39:47.47Z</time></trkpt><trkpt lat="46.1267742" lon="13.5708888"><ele>320.0</ele><time>2026-05-02T08:39:49.469Z</time></trkpt><trkpt lat="46.1268348" lon="13.5708375"><ele>320.0</ele><time>2026-05-02T08:39:50.47Z</time></trkpt><trkpt lat="46.1269308" lon="13.5707462"><ele>320.0</ele><time>2026-05-02T08:39:52.473Z</time></trkpt><trkpt lat="46.1270357" lon="13.5707247"><ele>320.0</ele><time>2026-05-02T08:39:54.474Z</time></trkpt><trkpt lat="46.1271107" lon="13.5708448"><ele>320.0</ele><time>2026-05-02T08:39:56.474Z</time></trkpt><trkpt lat="46.1270578" lon="13.570999"><ele>320.0</ele><time>2026-05-02T08:39:58.473Z</time></trkpt><trkpt lat="46.1269935" lon="13.5710413"><ele>320.0</ele><time>2026-05-02T08:39:59.472Z</time></trkpt><trkpt lat="46.1268347" lon="13.5711143"><ele>320.0</ele><time>2026-05-02T08:40:01.47Z</time></trkpt><trkpt lat="46.1267492" lon="13.5712073"><ele>317.0</ele><time>2026-05-02T08:40:02.474Z</time></trkpt><trkpt lat="46.1266563" lon="13.5713335"><ele>314.0</ele><time>2026-05-02T08:40:03.47Z</time></trkpt><trkpt lat="46.1265517" lon="13.5714815"><ele>311.0</ele><time>2026-05-02T08:40:04.473Z</time></trkpt><trkpt lat="46.1264453" lon="13.571623"><ele>308.0</ele><time>2026-05-02T08:40:05.469Z</time></trkpt><trkpt lat="46.1263575" lon="13.5717305"><ele>308.0</ele><time>2026-05-02T08:40:06.468Z</time></trkpt><trkpt lat="46.1263012" lon="13.571822"><ele>308.0</ele><time>2026-05-02T08:40:07.47Z</time></trkpt><trkpt lat="46.126282" lon="13.5719127"><ele>308.0</ele><time>2026-05-02T08:40:08.475Z</time></trkpt><trkpt lat="46.126351" lon="13.5720163"><ele>308.0</ele><time>2026-05-02T08:40:10.475Z</time></trkpt><trkpt lat="46.126475" lon="13.571918"><ele>308.0</ele><time>2026-05-02T08:40:12.471Z</time></trkpt><trkpt lat="46.1265722" lon="13.5717998"><ele>314.5</ele><time>2026-05-02T08:40:13.47Z</time></trkpt><trkpt lat="46.126694" lon="13.5716783"><ele>321.0</ele><time>2026-05-02T08:40:14.469Z</time></trkpt><trkpt lat="46.126804" lon="13.571584"><ele>327.5</ele><time>2026-05-02T08:40:15.474Z</time></trkpt><trkpt lat="46.1269003" lon="13.571527"><ele>334.0</ele><time>2026-05-02T08:40:16.472Z</time></trkpt><trkpt lat="46.1270023" lon="13.5715198"><ele>334.0</ele><time>2026-05-02T08:40:17.474Z</time></trkpt><trkpt lat="46.1271127" lon="13.5715647"><ele>334.0</ele><time>2026-05-02T08:40:18.473Z</time></trkpt><trkpt lat="46.127224" lon="13.5716705"><ele>334.0</ele><time>2026-05-02T08:40:19.47Z</time></trkpt><trkpt lat="46.1273397" lon="13.5718347"><ele>334.0</ele><time>2026-05-02T08:40:20.473Z</time></trkpt><trkpt lat="46.1275797" lon="13.5721782"><ele>341.0</ele><time>2026-05-02T08:40:22.474Z</time></trkpt><trkpt lat="46.127672" lon="13.572327"><ele>348.0</ele><time>2026-05-02T08:40:23.474Z</time></trkpt><trkpt lat="46.1277563" lon="13.5725195"><ele>355.0</ele><time>2026-05-02T08:40:24.47Z</time></trkpt><trkpt lat="46.127839" lon="13.572756"><ele>360.0</ele><time>2026-05-02T08:40:25.472Z</time></trkpt><trkpt lat="46.1279303" lon="13.5729915"><ele>365.0</ele><time>2026-05-02T08:40:26.472Z</time></trkpt><trkpt lat="46.128017" lon="13.573183"><ele>370.0</ele><time>2026-05-02T08:40:27.471Z</time></trkpt><trkpt lat="46.128087" lon="13.5733277"><ele>370.0</ele><time>2026-05-02T08:40:28.471Z</time></trkpt><trkpt lat="46.1281312" lon="13.5734377"><ele>370.0</ele><time>2026-05-02T08:40:29.47Z</time></trkpt><trkpt lat="46.128137" lon="13.5735348"><ele>370.0</ele><time>2026-05-02T08:40:30.468Z</time></trkpt><trkpt lat="46.1280553" lon="13.5735893"><ele>370.0</ele><time>2026-05-02T08:40:32.471Z</time></trkpt><trkpt lat="46.128007" lon="13.5735142"><ele>370.0</ele><time>2026-05-02T08:40:33.473Z</time></trkpt><trkpt lat="46.1279602" lon="13.5733957"><ele>370.0</ele><time>2026-05-02T08:40:34.471Z</time></trkpt><trkpt lat="46.1278927" lon="13.5732618"><ele>370.0</ele><time>2026-05-02T08:40:35.47Z</time></trkpt><trkpt lat="46.1277785" lon="13.573156"><ele>370.0</ele><time>2026-05-02T08:40:36.47Z</time></trkpt><trkpt lat="46.1276467" lon="13.5730653"><ele>370.0</ele><time>2026-05-02T08:40:37.47Z</time></trkpt><trkpt lat="46.127523" lon="13.572997"><ele>370.0</ele><time>2026-05-02T08:40:38.472Z</time></trkpt><trkpt lat="46.1274078" lon="13.5729607"><ele>365.0</ele><time>2026-05-02T08:40:39.47Z</time></trkpt><trkpt lat="46.1273003" lon="13.5729703"><ele>360.0</ele><time>2026-05-02T08:40:40.47Z</time></trkpt><trkpt lat="46.1272073" lon="13.573038"><ele>355.0</ele><time>2026-05-02T08:40:41.47Z</time></trkpt><trkpt lat="46.1270875" lon="13.5733165"><ele>350.0</ele><time>2026-05-02T08:40:43.472Z</time></trkpt><trkpt lat="46.1270797" lon="13.5734928"><ele>351.6666666666667</ele><time>2026-05-02T08:40:44.473Z</time></trkpt><trkpt lat="46.127109" lon="13.5737083"><ele>353.3333333333333</ele><time>2026-05-02T08:40:45.472Z</time></trkpt><trkpt lat="46.1271632" lon="13.5739682"><ele>355.0</ele><time>2026-05-02T08:40:46.47Z</time></trkpt><trkpt lat="46.1272302" lon="13.5742573"><ele>357.3333333333333</ele><time>2026-05-02T08:40:47.472Z</time></trkpt><trkpt lat="46.1272903" lon="13.5745297"><ele>359.6666666666667</ele><time>2026-05-02T08:40:48.472Z</time></trkpt><trkpt lat="46.1273255" lon="13.5747715"><ele>362.0</ele><time>2026-05-02T08:40:49.473Z</time></trkpt><trkpt lat="46.1273333" lon="13.5750023"><ele>362.0</ele><time>2026-05-02T08:40:50.472Z</time></trkpt><trkpt lat="46.127304" lon="13.5752235"><ele>362.0</ele><time>2026-05-02T08:40:51.47Z</time></trkpt><trkpt lat="46.1272625" lon="13.5754112"><ele>362.0</ele><time>2026-05-02T08:40:52.468Z</time></trkpt><trkpt lat="46.1272328" lon="13.575577"><ele>362.0</ele><time>2026-05-02T08:40:53.467Z</time></trkpt><trkpt lat="46.1272202" lon="13.5757578"><ele>365.5</ele><time>2026-05-02T08:40:54.467Z</time></trkpt><trkpt lat="46.1272203" lon="13.5759548"><ele>369.0</ele><time>2026-05-02T08:40:55.468Z</time></trkpt><trkpt lat="46.12722" lon="13.5761562"><ele>372.5</ele><time>2026-05-02T08:40:56.47Z</time></trkpt><trkpt lat="46.1272027" lon="13.576347"><ele>376.0</ele><time>2026-05-02T08:40:57.471Z</time></trkpt><trkpt lat="46.1271618" lon="13.5765252"><ele>379.5</ele><time>2026-05-02T08:40:58.471Z</time></trkpt><trkpt lat="46.1271058" lon="13.5767068"><ele>383.0</ele><time>2026-05-02T08:40:59.47Z</time></trkpt><trkpt lat="46.1270607" lon="13.5768932"><ele>386.5</ele><time>2026-05-02T08:41:00.471Z</time></trkpt><trkpt lat="46.1270215" lon="13.5770783"><ele>390.0</ele><time>2026-05-02T08:41:01.476Z</time></trkpt><trkpt lat="46.1269877" lon="13.5772475"><ele>391.66666666666663</ele><time>2026-05-02T08:41:02.473Z</time></trkpt><trkpt lat="46.1269223" lon="13.5775992"><ele>393.3333333333333</ele><time>2026-05-02T08:41:04.471Z</time></trkpt><trkpt lat="46.1268832" lon="13.5777822"><ele>395.0</ele><time>2026-05-02T08:41:05.472Z</time></trkpt><trkpt lat="46.1268378" lon="13.577966"><ele>397.0</ele><time>2026-05-02T08:41:06.471Z</time></trkpt><trkpt lat="46.1267895" lon="13.5781588"><ele>399.0</ele><time>2026-05-02T08:41:07.471Z</time></trkpt><trkpt lat="46.1267403" lon="13.5783558"><ele>401.0</ele><time>2026-05-02T08:41:08.469Z</time></trkpt><trkpt lat="46.1266835" lon="13.5785422"><ele>403.0</ele><time>2026-05-02T08:41:09.469Z</time></trkpt><trkpt lat="46.1266297" lon="13.5787317"><ele>401.75</ele><time>2026-05-02T08:41:10.47Z</time></trkpt><trkpt lat="46.126581" lon="13.5789285"><ele>400.5</ele><time>2026-05-02T08:41:11.469Z</time></trkpt><trkpt lat="46.1265348" lon="13.5791295"><ele>399.25</ele><time>2026-05-02T08:41:12.471Z</time></trkpt><trkpt lat="46.1264898" lon="13.5793295"><ele>398.0</ele><time>2026-05-02T08:41:13.47Z</time></trkpt><trkpt lat="46.1264443" lon="13.5795275"><ele>401.25</ele><time>2026-05-02T08:41:14.47Z</time></trkpt><trkpt lat="46.1263977" lon="13.5797253"><ele>404.5</ele><time>2026-05-02T08:41:15.472Z</time></trkpt><trkpt lat="46.1263508" lon="13.5799257"><ele>407.75</ele><time>2026-05-02T08:41:16.472Z</time></trkpt><trkpt lat="46.1263055" lon="13.580133"><ele>411.0</ele><time>2026-05-02T08:41:17.469Z</time></trkpt><trkpt lat="46.1262608" lon="13.5803413"><ele>413.33333333333337</ele><time>2026-05-02T08:41:18.468Z</time></trkpt><trkpt lat="46.1262185" lon="13.58055"><ele>415.6666666666667</ele><time>2026-05-02T08:41:19.468Z</time></trkpt><trkpt lat="46.1261818" lon="13.5807692"><ele>418.0</ele><time>2026-05-02T08:41:20.468Z</time></trkpt><trkpt lat="46.1261512" lon="13.5810095"><ele>420.0</ele><time>2026-05-02T08:41:21.473Z</time></trkpt><trkpt lat="46.1261273" lon="13.5812733"><ele>422.0</ele><time>2026-05-02T08:41:22.471Z</time></trkpt><trkpt lat="46.126108" lon="13.5815592"><ele>424.0</ele><time>2026-05-02T08:41:23.472Z</time></trkpt><trkpt lat="46.1260622" lon="13.5821195"><ele>425.6666666666667</ele><time>2026-05-02T08:41:25.472Z</time></trkpt><trkpt lat="46.1260325" lon="13.5823528"><ele>427.33333333333337</ele><time>2026-05-02T08:41:26.473Z</time></trkpt><trkpt lat="46.12602" lon="13.582574"><ele>429.0</ele><time>2026-05-02T08:41:27.472Z</time></trkpt><trkpt lat="46.1260328" lon="13.5827963"><ele>430.33333333333337</ele><time>2026-05-02T08:41:28.471Z</time></trkpt><trkpt lat="46.1260737" lon="13.5830287"><ele>431.6666666666667</ele><time>2026-05-02T08:41:29.469Z</time></trkpt><trkpt lat="46.1261307" lon="13.5832628"><ele>433.0</ele><time>2026-05-02T08:41:30.471Z</time></trkpt><trkpt lat="46.1261935" lon="13.5834802"><ele>434.0</ele><time>2026-05-02T08:41:31.472Z</time></trkpt><trkpt lat="46.1262467" lon="13.5837015"><ele>435.0</ele><time>2026-05-02T08:41:32.472Z</time></trkpt><trkpt lat="46.1262728" lon="13.5839288"><ele>436.0</ele><time>2026-05-02T08:41:33.472Z</time></trkpt><trkpt lat="46.126268" lon="13.584173"><ele>436.0</ele><time>2026-05-02T08:41:34.468Z</time></trkpt><trkpt lat="46.1262453" lon="13.5844355"><ele>436.0</ele><time>2026-05-02T08:41:35.472Z</time></trkpt><trkpt lat="46.1262185" lon="13.5847163"><ele>436.0</ele><time>2026-05-02T08:41:36.472Z</time></trkpt><trkpt lat="46.1261925" lon="13.5850035"><ele>437.6666666666667</ele><time>2026-05-02T08:41:37.472Z</time></trkpt><trkpt lat="46.1261705" lon="13.5852708"><ele>439.33333333333337</ele><time>2026-05-02T08:41:38.474Z</time></trkpt><trkpt lat="46.1261503" lon="13.5855037"><ele>441.0</ele><time>2026-05-02T08:41:39.471Z</time></trkpt><trkpt lat="46.1261365" lon="13.585689"><ele>442.0</ele><time>2026-05-02T08:41:40.47Z</time></trkpt><trkpt lat="46.1261268" lon="13.5858298"><ele>443.0</ele><time>2026-05-02T08:41:41.468Z</time></trkpt><trkpt lat="46.1261165" lon="13.5859523"><ele>444.0</ele><time>2026-05-02T08:41:42.469Z</time></trkpt><trkpt lat="46.1261038" lon="13.5860592"><ele>445.0</ele><time>2026-05-02T08:41:43.47Z</time></trkpt><trkpt lat="46.126094" lon="13.5861555"><ele>446.0</ele><time>2026-05-02T08:41:44.47Z</time></trkpt><trkpt lat="46.126084" lon="13.5864222"><ele>446.6</ele><time>2026-05-02T08:41:47.472Z</time></trkpt><trkpt lat="46.1260688" lon="13.5866092"><ele>447.20000000000005</ele><time>2026-05-02T08:41:49.473Z</time></trkpt><trkpt lat="46.1260553" lon="13.5867237"><ele>447.79999999999995</ele><time>2026-05-02T08:41:50.473Z</time></trkpt><trkpt lat="46.1260358" lon="13.5868513"><ele>448.4</ele><time>2026-05-02T08:41:51.472Z</time></trkpt><trkpt lat="46.1260028" lon="13.5869855"><ele>449.0</ele><time>2026-05-02T08:41:52.471Z</time></trkpt><trkpt lat="46.125965" lon="13.5871198"><ele>449.79999999999995</ele><time>2026-05-02T08:41:53.472Z</time></trkpt><trkpt lat="46.12593" lon="13.587254"><ele>450.59999999999997</ele><time>2026-05-02T08:41:54.472Z</time></trkpt><trkpt lat="46.1259015" lon="13.5873863"><ele>451.4</ele><time>2026-05-02T08:41:55.472Z</time></trkpt><trkpt lat="46.1258685" lon="13.5875243"><ele>452.2</ele><time>2026-05-02T08:41:56.469Z</time></trkpt><trkpt lat="46.1258268" lon="13.587661"><ele>453.0</ele><time>2026-05-02T08:41:57.472Z</time></trkpt><trkpt lat="46.1257803" lon="13.5877943"><ele>454.59999999999997</ele><time>2026-05-02T08:41:58.473Z</time></trkpt><trkpt lat="46.1257295" lon="13.587927"><ele>456.19999999999993</ele><time>2026-05-02T08:41:59.472Z</time></trkpt><trkpt lat="46.1256825" lon="13.5880673"><ele>457.8</ele><time>2026-05-02T08:42:00.471Z</time></trkpt><trkpt lat="46.1256473" lon="13.5881997"><ele>459.4</ele><time>2026-05-02T08:42:01.471Z</time></trkpt><trkpt lat="46.1256243" lon="13.5883532"><ele>461.0</ele><time>2026-05-02T08:42:02.472Z</time></trkpt><trkpt lat="46.1256085" lon="13.5885057"><ele>463.4</ele><time>2026-05-02T08:42:03.471Z</time></trkpt><trkpt lat="46.1255917" lon="13.588652"><ele>465.8</ele><time>2026-05-02T08:42:04.47Z</time></trkpt><trkpt lat="46.1255673" lon="13.588788"><ele>468.19999999999993</ele><time>2026-05-02T08:42:05.469Z</time></trkpt><trkpt lat="46.1255208" lon="13.5890237"><ele>470.59999999999997</ele><time>2026-05-02T08:42:07.468Z</time></trkpt><trkpt lat="46.1254843" lon="13.5891043"><ele>473.0</ele><time>2026-05-02T08:42:08.467Z</time></trkpt><trkpt lat="46.1253853" lon="13.5891745"><ele>472.99999999999994</ele><time>2026-05-02T08:42:10.47Z</time></trkpt><trkpt lat="46.1252815" lon="13.5890978"><ele>473.0</ele><time>2026-05-02T08:42:12.472Z</time></trkpt><trkpt lat="46.125252" lon="13.589015"><ele>473.0</ele><time>2026-05-02T08:42:13.472Z</time></trkpt><trkpt lat="46.1252342" lon="13.5889135"><ele>473.0</ele><time>2026-05-02T08:42:14.472Z</time></trkpt><trkpt lat="46.125215" lon="13.5887987"><ele>472.99999999999994</ele><time>2026-05-02T08:42:15.468Z</time></trkpt><trkpt lat="46.125187" lon="13.5886765"><ele>473.0</ele><time>2026-05-02T08:42:16.471Z</time></trkpt><trkpt lat="46.125151" lon="13.5885602"><ele>472.99999999999994</ele><time>2026-05-02T08:42:17.473Z</time></trkpt><trkpt lat="46.12511" lon="13.5884385"><ele>473.0</ele><time>2026-05-02T08:42:18.473Z</time></trkpt><trkpt lat="46.1250718" lon="13.5883147"><ele>473.0</ele><time>2026-05-02T08:42:19.47Z</time></trkpt><trkpt lat="46.1250253" lon="13.5882103"><ele>473.0</ele><time>2026-05-02T08:42:20.471Z</time></trkpt><trkpt lat="46.1249698" lon="13.5881227"><ele>472.99999999999994</ele><time>2026-05-02T08:42:21.469Z</time></trkpt><trkpt lat="46.1249018" lon="13.5880598"><ele>473.0</ele><time>2026-05-02T08:42:22.471Z</time></trkpt><trkpt lat="46.1248145" lon="13.5880058"><ele>477.75</ele><time>2026-05-02T08:42:23.47Z</time></trkpt><trkpt lat="46.124718" lon="13.587954"><ele>482.5</ele><time>2026-05-02T08:42:24.471Z</time></trkpt><trkpt lat="46.1246165" lon="13.587891"><ele>487.25</ele><time>2026-05-02T08:42:25.467Z</time></trkpt><trkpt lat="46.1245313" lon="13.5878305"><ele>492.0</ele><time>2026-05-02T08:42:26.467Z</time></trkpt><trkpt lat="46.1243085" lon="13.5877592"><ele>492.0</ele><time>2026-05-02T08:42:28.468Z</time></trkpt><trkpt lat="46.1241895" lon="13.5877577"><ele>492.00000000000006</ele><time>2026-05-02T08:42:29.47Z</time></trkpt><trkpt lat="46.1240912" lon="13.5877338"><ele>492.00000000000006</ele><time>2026-05-02T08:42:30.469Z</time></trkpt><trkpt lat="46.124026" lon="13.5876522"><ele>492.0</ele><time>2026-05-02T08:42:32.466Z</time></trkpt><trkpt lat="46.1240358" lon="13.587518"><ele>492.0</ele><time>2026-05-02T08:42:34.468Z</time></trkpt><trkpt lat="46.1240982" lon="13.5874372"><ele>492.0</ele><time>2026-05-02T08:42:35.468Z</time></trkpt><trkpt lat="46.1241802" lon="13.5873477"><ele>492.0</ele><time>2026-05-02T08:42:36.468Z</time></trkpt><trkpt lat="46.124279" lon="13.58724"><ele>492.0</ele><time>2026-05-02T08:42:37.467Z</time></trkpt><trkpt lat="46.124377" lon="13.5871283"><ele>492.0</ele><time>2026-05-02T08:42:38.468Z</time></trkpt><trkpt lat="46.124475" lon="13.5870138"><ele>493.6</ele><time>2026-05-02T08:42:39.47Z</time></trkpt><trkpt lat="46.1245658" lon="13.586899"><ele>495.20000000000005</ele><time>2026-05-02T08:42:40.468Z</time></trkpt><trkpt lat="46.1246385" lon="13.5867977"><ele>496.8</ele><time>2026-05-02T08:42:41.467Z</time></trkpt><trkpt lat="46.1246945" lon="13.58669"><ele>498.4</ele><time>2026-05-02T08:42:42.471Z</time></trkpt><trkpt lat="46.1247227" lon="13.586558"><ele>500.0</ele><time>2026-05-02T08:42:43.471Z</time></trkpt><trkpt lat="46.1247278" lon="13.5864162"><ele>500.0</ele><time>2026-05-02T08:42:44.471Z</time></trkpt><trkpt lat="46.124707" lon="13.5862665"><ele>500.0</ele><time>2026-05-02T08:42:45.472Z</time></trkpt><trkpt lat="46.1246737" lon="13.5861115"><ele>500.0</ele><time>2026-05-02T08:42:46.47Z</time></trkpt><trkpt lat="46.1246368" lon="13.5859357"><ele>500.0</ele><time>2026-05-02T08:42:47.472Z</time></trkpt><trkpt lat="46.124511" lon="13.5855555"><ele>501.3333333333333</ele><time>2026-05-02T08:42:49.473Z</time></trkpt><trkpt lat="46.1244243" lon="13.5853528"><ele>502.66666666666663</ele><time>2026-05-02T08:42:50.469Z</time></trkpt><trkpt lat="46.1243418" lon="13.5851517"><ele>504.0</ele><time>2026-05-02T08:42:51.471Z</time></trkpt><trkpt lat="46.1242703" lon="13.5849643"><ele>504.0</ele><time>2026-05-02T08:42:52.473Z</time></trkpt><trkpt lat="46.124221" lon="13.5848086"><ele>504.0</ele><time>2026-05-02T08:42:53.471Z</time></trkpt><trkpt lat="46.1241777" lon="13.5846803"><ele>504.0</ele><time>2026-05-02T08:42:54.472Z</time></trkpt><trkpt lat="46.1241253" lon="13.5845734"><ele>504.0</ele><time>2026-05-02T08:42:55.47Z</time></trkpt><trkpt lat="46.1240518" lon="13.5844926"><ele>504.0</ele><time>2026-05-02T08:42:56.472Z</time></trkpt><trkpt lat="46.1239574" lon="13.5844328"><ele>507.2</ele><time>2026-05-02T08:42:57.469Z</time></trkpt><trkpt lat="46.1238609" lon="13.5843651"><ele>510.4</ele><time>2026-05-02T08:42:58.469Z</time></trkpt><trkpt lat="46.1237777" lon="13.5842657"><ele>513.6</ele><time>2026-05-02T08:42:59.471Z</time></trkpt><trkpt lat="46.1237153" lon="13.5841393"><ele>516.8</ele><time>2026-05-02T08:43:00.471Z</time></trkpt><trkpt lat="46.1236651" lon="13.5840202"><ele>520.0</ele><time>2026-05-02T08:43:01.47Z</time></trkpt><trkpt lat="46.1236136" lon="13.5839386"><ele>520.0</ele><time>2026-05-02T08:43:02.469Z</time></trkpt><trkpt lat="46.1235066" lon="13.583939"><ele>520.0</ele><time>2026-05-02T08:43:04.471Z</time></trkpt><trkpt lat="46.1234919" lon="13.584103"><ele>520.0</ele><time>2026-05-02T08:43:06.474Z</time></trkpt><trkpt lat="46.1235382" lon="13.5842045"><ele>520.0</ele><time>2026-05-02T08:43:07.473Z</time></trkpt><trkpt lat="46.1236033" lon="13.5843189"><ele>520.0</ele><time>2026-05-02T08:43:08.471Z</time></trkpt><trkpt lat="46.1237458" lon="13.5845963"><ele>522.75</ele><time>2026-05-02T08:43:10.472Z</time></trkpt><trkpt lat="46.1238122" lon="13.5847564"><ele>525.5</ele><time>2026-05-02T08:43:11.471Z</time></trkpt><trkpt lat="46.1238608" lon="13.5849362"><ele>528.25</ele><time>2026-05-02T08:43:12.47Z</time></trkpt><trkpt lat="46.1238917" lon="13.5851256"><ele>531.0</ele><time>2026-05-02T08:43:13.473Z</time></trkpt><trkpt lat="46.1239112" lon="13.5853141"><ele>531.2</ele><time>2026-05-02T08:43:14.472Z</time></trkpt><trkpt lat="46.1239256" lon="13.5854895"><ele>531.4000000000001</ele><time>2026-05-02T08:43:15.473Z</time></trkpt><trkpt lat="46.1239472" lon="13.5856315"><ele>531.6</ele><time>2026-05-02T08:43:16.471Z</time></trkpt><trkpt lat="46.1239612" lon="13.5857349"><ele>531.8000000000001</ele><time>2026-05-02T08:43:17.47Z</time></trkpt><trkpt lat="46.1238991" lon="13.5858775"><ele>532.0</ele><time>2026-05-02T08:43:19.47Z</time></trkpt><trkpt lat="46.1237828" lon="13.5858173"><ele>532.0</ele><time>2026-05-02T08:43:21.471Z</time></trkpt><trkpt lat="46.123735" lon="13.5856892"><ele>532.0</ele><time>2026-05-02T08:43:22.471Z</time></trkpt><trkpt lat="46.1236765" lon="13.5855214"><ele>532.0</ele><time>2026-05-02T08:43:23.473Z</time></trkpt><trkpt lat="46.1235907" lon="13.5853434"><ele>532.0</ele><time>2026-05-02T08:43:24.471Z</time></trkpt><trkpt lat="46.1234842" lon="13.5851736"><ele>531.6666666666667</ele><time>2026-05-02T08:43:25.469Z</time></trkpt><trkpt lat="46.1233644" lon="13.5850213"><ele>531.3333333333334</ele><time>2026-05-02T08:43:26.47Z</time></trkpt><trkpt lat="46.1232449" lon="13.5848987"><ele>531.0</ele><time>2026-05-02T08:43:27.471Z</time></trkpt><trkpt lat="46.1231183" lon="13.584797"><ele>535.5</ele><time>2026-05-02T08:43:28.47Z</time></trkpt><trkpt lat="46.1229801" lon="13.584702"><ele>540.0</ele><time>2026-05-02T08:43:29.47Z</time></trkpt><trkpt lat="46.1226982" lon="13.584512"><ele>540.0</ele><time>2026-05-02T08:43:31.472Z</time></trkpt><trkpt lat="46.1225736" lon="13.5844276"><ele>540.0</ele><time>2026-05-02T08:43:32.474Z</time></trkpt><trkpt lat="46.1224546" lon="13.5843672"><ele>540.0</ele><time>2026-05-02T08:43:33.474Z</time></trkpt><trkpt lat="46.1223276" lon="13.5843333"><ele>540.0</ele><time>2026-05-02T08:43:34.474Z</time></trkpt><trkpt lat="46.1221923" lon="13.5843096"><ele>544.25</ele><time>2026-05-02T08:43:35.47Z</time></trkpt><trkpt lat="46.1220581" lon="13.584275"><ele>548.5</ele><time>2026-05-02T08:43:36.471Z</time></trkpt><trkpt lat="46.1219381" lon="13.5842202"><ele>552.75</ele><time>2026-05-02T08:43:37.472Z</time></trkpt><trkpt lat="46.1218395" lon="13.5841231"><ele>557.0</ele><time>2026-05-02T08:43:38.472Z</time></trkpt><trkpt lat="46.1217606" lon="13.5839829"><ele>557.0</ele><time>2026-05-02T08:43:39.473Z</time></trkpt><trkpt lat="46.1216964" lon="13.5838076"><ele>557.0</ele><time>2026-05-02T08:43:40.471Z</time></trkpt><trkpt lat="46.1216354" lon="13.5836095"><ele>557.0</ele><time>2026-05-02T08:43:41.47Z</time></trkpt><trkpt lat="46.1215734" lon="13.5833956"><ele>557.0</ele><time>2026-05-02T08:43:42.471Z</time></trkpt><trkpt lat="46.1215226" lon="13.5831706"><ele>562.3333333333333</ele><time>2026-05-02T08:43:43.471Z</time></trkpt><trkpt lat="46.1214821" lon="13.5829363"><ele>567.6666666666666</ele><time>2026-05-02T08:43:44.468Z</time></trkpt><trkpt lat="46.121439" lon="13.5827041"><ele>573.0</ele><time>2026-05-02T08:43:45.472Z</time></trkpt><trkpt lat="46.1213897" lon="13.5824876"><ele>573.0</ele><time>2026-05-02T08:43:46.473Z</time></trkpt><trkpt lat="46.1213398" lon="13.5823036"><ele>573.0</ele><time>2026-05-02T08:43:47.472Z</time></trkpt><trkpt lat="46.1212938" lon="13.5821622"><ele>573.0</ele><time>2026-05-02T08:43:48.472Z</time></trkpt><trkpt lat="46.1212476" lon="13.5820624"><ele>573.0</ele><time>2026-05-02T08:43:49.473Z</time></trkpt><trkpt lat="46.1211912" lon="13.5820022"><ele>573.0</ele><time>2026-05-02T08:43:50.47Z</time></trkpt><trkpt lat="46.1210205" lon="13.5821313"><ele>573.0</ele><time>2026-05-02T08:43:53.472Z</time></trkpt><trkpt lat="46.1209744" lon="13.5822618"><ele>573.0</ele><time>2026-05-02T08:43:54.472Z</time></trkpt><trkpt lat="46.1209393" lon="13.5824165"><ele>573.0</ele><time>2026-05-02T08:43:55.473Z</time></trkpt><trkpt lat="46.1209204" lon="13.5825798"><ele>573.0</ele><time>2026-05-02T08:43:56.472Z</time></trkpt><trkpt lat="46.1209114" lon="13.5827453"><ele>573.0</ele><time>2026-05-02T08:43:57.472Z</time></trkpt><trkpt lat="46.1209053" lon="13.5829123"><ele>575.0</ele><time>2026-05-02T08:43:58.47Z</time></trkpt><trkpt lat="46.120897" lon="13.5830848"><ele>577.0</ele><time>2026-05-02T08:43:59.47Z</time></trkpt><trkpt lat="46.1208783" lon="13.5832561"><ele>579.0</ele><time>2026-05-02T08:44:00.471Z</time></trkpt><trkpt lat="46.1208532" lon="13.5834166"><ele>581.0</ele><time>2026-05-02T08:44:01.471Z</time></trkpt><trkpt lat="46.1208268" lon="13.5835579"><ele>581.0</ele><time>2026-05-02T08:44:02.473Z</time></trkpt><trkpt lat="46.1207929" lon="13.583678"><ele>581.0</ele><time>2026-05-02T08:44:03.476Z</time></trkpt><trkpt lat="46.120747" lon="13.5837703"><ele>581.0</ele><time>2026-05-02T08:44:04.474Z</time></trkpt><trkpt lat="46.1206759" lon="13.5838284"><ele>581.0</ele><time>2026-05-02T08:44:05.472Z</time></trkpt><trkpt lat="46.1205878" lon="13.5838676"><ele>581.0</ele><time>2026-05-02T08:44:06.471Z</time></trkpt><trkpt lat="46.1204907" lon="13.5839024"><ele>581.0</ele><time>2026-05-02T08:44:07.472Z</time></trkpt><trkpt lat="46.1203973" lon="13.583939"><ele>583.6</ele><time>2026-05-02T08:44:08.477Z</time></trkpt><trkpt lat="46.1203132" lon="13.5839563"><ele>586.2</ele><time>2026-05-02T08:44:09.47Z</time></trkpt><trkpt lat="46.1202532" lon="13.583999"><ele>588.8</ele><time>2026-05-02T08:44:10.469Z</time></trkpt><trkpt lat="46.1201982" lon="13.5841413"><ele>591.4</ele><time>2026-05-02T08:44:12.47Z</time></trkpt><trkpt lat="46.120201" lon="13.5843853"><ele>594.0</ele><time>2026-05-02T08:44:14.474Z</time></trkpt><trkpt lat="46.1201935" lon="13.5845403"><ele>595.2</ele><time>2026-05-02T08:44:15.476Z</time></trkpt><trkpt lat="46.1201678" lon="13.584701"><ele>596.4</ele><time>2026-05-02T08:44:16.473Z</time></trkpt><trkpt lat="46.1201318" lon="13.5848358"><ele>597.6</ele><time>2026-05-02T08:44:17.473Z</time></trkpt><trkpt lat="46.1200938" lon="13.5849092"><ele>598.8</ele><time>2026-05-02T08:44:18.477Z</time></trkpt><trkpt lat="46.1200112" lon="13.5849227"><ele>600.0</ele><time>2026-05-02T08:44:20.47Z</time></trkpt><trkpt lat="46.1199415" lon="13.5848155"><ele>600.0</ele><time>2026-05-02T08:44:22.472Z</time></trkpt><trkpt lat="46.1199062" lon="13.5847142"><ele>600.0</ele><time>2026-05-02T08:44:23.471Z</time></trkpt><trkpt lat="46.1198538" lon="13.58463"><ele>600.0</ele><time>2026-05-02T08:44:24.471Z</time></trkpt><trkpt lat="46.1197805" lon="13.584589"><ele>600.0</ele><time>2026-05-02T08:44:25.47Z</time></trkpt><trkpt lat="46.1196905" lon="13.5845912"><ele>600.0</ele><time>2026-05-02T08:44:26.47Z</time></trkpt><trkpt lat="46.1195877" lon="13.5846222"><ele>600.0</ele><time>2026-05-02T08:44:27.473Z</time></trkpt><trkpt lat="46.119472" lon="13.5846643"><ele>604.5</ele><time>2026-05-02T08:44:28.473Z</time></trkpt><trkpt lat="46.1193508" lon="13.5847025"><ele>609.0</ele><time>2026-05-02T08:44:29.472Z</time></trkpt><trkpt lat="46.1192238" lon="13.5847328"><ele>613.5</ele><time>2026-05-02T08:44:30.473Z</time></trkpt><trkpt lat="46.1191028" lon="13.5847413"><ele>618.0</ele><time>2026-05-02T08:44:31.47Z</time></trkpt><trkpt lat="46.1189905" lon="13.5847003"><ele>618.0</ele><time>2026-05-02T08:44:32.471Z</time></trkpt><trkpt lat="46.118896" lon="13.5846197"><ele>618.0</ele><time>2026-05-02T08:44:33.471Z</time></trkpt><trkpt lat="46.1187172" lon="13.5845172"><ele>618.0</ele><time>2026-05-02T08:44:35.469Z</time></trkpt><trkpt lat="46.1186327" lon="13.5845463"><ele>618.0</ele><time>2026-05-02T08:44:36.473Z</time></trkpt><trkpt lat="46.1185552" lon="13.5846292"><ele>618.0</ele><time>2026-05-02T08:44:37.471Z</time></trkpt><trkpt lat="46.1184875" lon="13.58476"><ele>618.0</ele><time>2026-05-02T08:44:38.472Z</time></trkpt><trkpt lat="46.1184338" lon="13.5849273"><ele>618.0</ele><time>2026-05-02T08:44:39.472Z</time></trkpt><trkpt lat="46.1183798" lon="13.585108"><ele>618.0</ele><time>2026-05-02T08:44:40.473Z</time></trkpt><trkpt lat="46.1183115" lon="13.5852697"><ele>618.25</ele><time>2026-05-02T08:44:41.47Z</time></trkpt><trkpt lat="46.1182205" lon="13.5853897"><ele>618.5</ele><time>2026-05-02T08:44:42.471Z</time></trkpt><trkpt lat="46.1181087" lon="13.5854788"><ele>618.75</ele><time>2026-05-02T08:44:43.471Z</time></trkpt><trkpt lat="46.1179895" lon="13.5855605"><ele>619.0</ele><time>2026-05-02T08:44:44.47Z</time></trkpt><trkpt lat="46.1178637" lon="13.5856492"><ele>619.0</ele><time>2026-05-02T08:44:45.471Z</time></trkpt><trkpt lat="46.1177455" lon="13.5857597"><ele>619.0</ele><time>2026-05-02T08:44:46.471Z</time></trkpt><trkpt lat="46.1176412" lon="13.5859015"><ele>619.0</ele><time>2026-05-02T08:44:47.471Z</time></trkpt><trkpt lat="46.1175443" lon="13.5860733"><ele>619.0</ele><time>2026-05-02T08:44:48.473Z</time></trkpt><trkpt lat="46.1174522" lon="13.5862618"><ele>621.3333333333334</ele><time>2026-05-02T08:44:49.473Z</time></trkpt><trkpt lat="46.1173457" lon="13.5864373"><ele>623.6666666666666</ele><time>2026-05-02T08:44:50.473Z</time></trkpt><trkpt lat="46.1172188" lon="13.5865945"><ele>626.0</ele><time>2026-05-02T08:44:51.472Z</time></trkpt><trkpt lat="46.1170787" lon="13.586732"><ele>626.0</ele><time>2026-05-02T08:44:52.47Z</time></trkpt><trkpt lat="46.1169377" lon="13.5868463"><ele>626.0</ele><time>2026-05-02T08:44:53.47Z</time></trkpt><trkpt lat="46.1166728" lon="13.5870007"><ele>626.0</ele><time>2026-05-02T08:44:55.473Z</time></trkpt><trkpt lat="46.1165428" lon="13.58702"><ele>627.25</ele><time>2026-05-02T08:44:56.474Z</time></trkpt><trkpt lat="46.1164115" lon="13.5869875"><ele>628.5</ele><time>2026-05-02T08:44:57.472Z</time></trkpt><trkpt lat="46.1162738" lon="13.5869253"><ele>629.75</ele><time>2026-05-02T08:44:58.47Z</time></trkpt><trkpt lat="46.1161271" lon="13.5868724"><ele>631.0</ele><time>2026-05-02T08:44:59.47Z</time></trkpt><trkpt lat="46.115969" lon="13.586834"><ele>631.0</ele><time>2026-05-02T08:45:00.47Z</time></trkpt><trkpt lat="46.1157994" lon="13.5868022"><ele>631.0</ele><time>2026-05-02T08:45:01.472Z</time></trkpt><trkpt lat="46.1156247" lon="13.5867758"><ele>631.0</ele><time>2026-05-02T08:45:02.471Z</time></trkpt><trkpt lat="46.1154529" lon="13.586744"><ele>633.75</ele><time>2026-05-02T08:45:03.469Z</time></trkpt><trkpt lat="46.1152982" lon="13.586705"><ele>636.5</ele><time>2026-05-02T08:45:04.469Z</time></trkpt><trkpt lat="46.1151572" lon="13.5866658"><ele>639.25</ele><time>2026-05-02T08:45:05.472Z</time></trkpt><trkpt lat="46.1150374" lon="13.5866508"><ele>642.0</ele><time>2026-05-02T08:45:06.475Z</time></trkpt><trkpt lat="46.1149221" lon="13.5866749"><ele>643.3333333333334</ele><time>2026-05-02T08:45:07.471Z</time></trkpt><trkpt lat="46.1148116" lon="13.5867293"><ele>644.6666666666666</ele><time>2026-05-02T08:45:08.468Z</time></trkpt><trkpt lat="46.1147162" lon="13.586782"><ele>646.0</ele><time>2026-05-02T08:45:09.468Z</time></trkpt><trkpt lat="46.1146462" lon="13.5867871"><ele>647.3333333333333</ele><time>2026-05-02T08:45:10.468Z</time></trkpt><trkpt lat="46.1145907" lon="13.5867405"><ele>648.6666666666666</ele><time>2026-05-02T08:45:11.469Z</time></trkpt><trkpt lat="46.1145535" lon="13.5866587"><ele>650.0</ele><time>2026-05-02T08:45:12.47Z</time></trkpt><trkpt lat="46.1145486" lon="13.5865268"><ele>650.0</ele><time>2026-05-02T08:45:13.469Z</time></trkpt><trkpt lat="46.1145641" lon="13.5863749"><ele>650.0</ele><time>2026-05-02T08:45:14.468Z</time></trkpt><trkpt lat="46.1145122" lon="13.5860789"><ele>650.0</ele><time>2026-05-02T08:45:16.472Z</time></trkpt><trkpt lat="46.1144392" lon="13.5859764"><ele>650.0</ele><time>2026-05-02T08:45:17.473Z</time></trkpt><trkpt lat="46.1143404" lon="13.585925"><ele>647.5</ele><time>2026-05-02T08:45:18.477Z</time></trkpt><trkpt lat="46.1142187" lon="13.5859136"><ele>645.0</ele><time>2026-05-02T08:45:19.471Z</time></trkpt><trkpt lat="46.1140761" lon="13.5859199"><ele>642.5</ele><time>2026-05-02T08:45:20.47Z</time></trkpt><trkpt lat="46.1139178" lon="13.5859306"><ele>640.0</ele><time>2026-05-02T08:45:21.474Z</time></trkpt><trkpt lat="46.11376" lon="13.5859411"><ele>640.0</ele><time>2026-05-02T08:45:22.471Z</time></trkpt><trkpt lat="46.1136071" lon="13.5859667"><ele>640.0</ele><time>2026-05-02T08:45:23.472Z</time></trkpt><trkpt lat="46.1134565" lon="13.5860338"><ele>640.0</ele><time>2026-05-02T08:45:24.471Z</time></trkpt><trkpt lat="46.1133071" lon="13.5861369"><ele>644.6666666666667</ele><time>2026-05-02T08:45:25.471Z</time></trkpt><trkpt lat="46.1131602" lon="13.5862556"><ele>649.3333333333334</ele><time>2026-05-02T08:45:26.47Z</time></trkpt><trkpt lat="46.1130286" lon="13.586378"><ele>654.0</ele><time>2026-05-02T08:45:27.473Z</time></trkpt><trkpt lat="46.1129116" lon="13.5864798"><ele>654.0</ele><time>2026-05-02T08:45:28.472Z</time></trkpt><trkpt lat="46.1127832" lon="13.5865426"><ele>654.0</ele><time>2026-05-02T08:45:29.473Z</time></trkpt><trkpt lat="46.1126273" lon="13.5865691"><ele>654.0</ele><time>2026-05-02T08:45:30.47Z</time></trkpt><trkpt lat="46.11245" lon="13.5865733"><ele>656.3333333333334</ele><time>2026-05-02T08:45:31.472Z</time></trkpt><trkpt lat="46.1122683" lon="13.5865564"><ele>658.6666666666667</ele><time>2026-05-02T08:45:32.473Z</time></trkpt><trkpt lat="46.1120972" lon="13.5865142"><ele>661.0</ele><time>2026-05-02T08:45:33.472Z</time></trkpt><trkpt lat="46.1119468" lon="13.5864411"><ele>661.0</ele><time>2026-05-02T08:45:34.471Z</time></trkpt><trkpt lat="46.1118117" lon="13.586332"><ele>661.0</ele><time>2026-05-02T08:45:35.47Z</time></trkpt><trkpt lat="46.1115641" lon="13.5860838"><ele>659.75</ele><time>2026-05-02T08:45:37.47Z</time></trkpt><trkpt lat="46.1114462" lon="13.5859689"><ele>658.5</ele><time>2026-05-02T08:45:38.47Z</time></trkpt><trkpt lat="46.1113277" lon="13.5858461"><ele>657.25</ele><time>2026-05-02T08:45:39.469Z</time></trkpt><trkpt lat="46.1112165" lon="13.5857035"><ele>656.0</ele><time>2026-05-02T08:45:40.469Z</time></trkpt><trkpt lat="46.1111177" lon="13.585532"><ele>654.6666666666666</ele><time>2026-05-02T08:45:41.472Z</time></trkpt><trkpt lat="46.1110273" lon="13.5853349"><ele>653.3333333333334</ele><time>2026-05-02T08:45:42.472Z</time></trkpt><trkpt lat="46.1109406" lon="13.5851247"><ele>652.0</ele><time>2026-05-02T08:45:43.472Z</time></trkpt><trkpt lat="46.1108627" lon="13.5849063"><ele>652.0</ele><time>2026-05-02T08:45:44.473Z</time></trkpt><trkpt lat="46.1108108" lon="13.5846872"><ele>652.0</ele><time>2026-05-02T08:45:45.472Z</time></trkpt><trkpt lat="46.110784" lon="13.5844759"><ele>652.0</ele><time>2026-05-02T08:45:46.468Z</time></trkpt><trkpt lat="46.110787" lon="13.5842716"><ele>652.75</ele><time>2026-05-02T08:45:47.47Z</time></trkpt><trkpt lat="46.1108253" lon="13.5840782"><ele>653.5</ele><time>2026-05-02T08:45:48.473Z</time></trkpt><trkpt lat="46.110886" lon="13.583893"><ele>654.25</ele><time>2026-05-02T08:45:49.47Z</time></trkpt><trkpt lat="46.1109445" lon="13.583719"><ele>655.0</ele><time>2026-05-02T08:45:50.475Z</time></trkpt><trkpt lat="46.1109829" lon="13.583557"><ele>655.8</ele><time>2026-05-02T08:45:51.473Z</time></trkpt><trkpt lat="46.1109904" lon="13.5833972"><ele>656.6</ele><time>2026-05-02T08:45:52.47Z</time></trkpt><trkpt lat="46.1109591" lon="13.5832496"><ele>657.4000000000001</ele><time>2026-05-02T08:45:53.469Z</time></trkpt><trkpt lat="46.1108904" lon="13.5831297"><ele>658.2</ele><time>2026-05-02T08:45:54.473Z</time></trkpt><trkpt lat="46.110787" lon="13.5830499"><ele>659.0</ele><time>2026-05-02T08:45:55.473Z</time></trkpt><trkpt lat="46.1106549" lon="13.5830001"><ele>652.5</ele><time>2026-05-02T08:45:56.473Z</time></trkpt><trkpt lat="46.1103527" lon="13.5828863"><ele>646.0</ele><time>2026-05-02T08:45:58.476Z</time></trkpt><trkpt lat="46.1102168" lon="13.5828018"><ele>646.0</ele><time>2026-05-02T08:45:59.476Z</time></trkpt><trkpt lat="46.1101203" lon="13.582725"><ele>646.0</ele><time>2026-05-02T08:46:00.474Z</time></trkpt><trkpt lat="46.1100637" lon="13.5826737"><ele>646.0</ele><time>2026-05-02T08:46:01.473Z</time></trkpt><trkpt lat="46.1100032" lon="13.5827107"><ele>646.0</ele><time>2026-05-02T08:46:06.469Z</time></trkpt><trkpt lat="46.1099247" lon="13.5827134"><ele>646.0</ele><time>2026-05-02T08:48:16.468Z</time></trkpt><trkpt lat="46.1099096" lon="13.5830202"><ele>645.6666666666667</ele><time>2026-05-02T08:48:21.472Z</time></trkpt><trkpt lat="46.109916" lon="13.5831182"><ele>645.3333333333334</ele><time>2026-05-02T08:48:22.471Z</time></trkpt><trkpt lat="46.1099156" lon="13.5832092"><ele>645.0</ele><time>2026-05-02T08:48:23.471Z</time></trkpt><trkpt lat="46.1099205" lon="13.5833203"><ele>644.6666666666666</ele><time>2026-05-02T08:48:24.472Z</time></trkpt><trkpt lat="46.109917" lon="13.5834346"><ele>644.3333333333333</ele><time>2026-05-02T08:48:25.471Z</time></trkpt><trkpt lat="46.1099271" lon="13.5835321"><ele>644.0</ele><time>2026-05-02T08:48:26.473Z</time></trkpt><trkpt lat="46.1099528" lon="13.5836958"><ele>642.8333333333333</ele><time>2026-05-02T08:48:28.473Z</time></trkpt><trkpt lat="46.109987" lon="13.583871"><ele>641.6666666666666</ele><time>2026-05-02T08:48:30.473Z</time></trkpt><trkpt lat="46.1100083" lon="13.5839611"><ele>640.5</ele><time>2026-05-02T08:48:31.472Z</time></trkpt><trkpt lat="46.1100196" lon="13.5840523"><ele>639.3333333333334</ele><time>2026-05-02T08:48:32.473Z</time></trkpt><trkpt lat="46.1100157" lon="13.5841531"><ele>638.1666666666667</ele><time>2026-05-02T08:48:33.473Z</time></trkpt><trkpt lat="46.1100053" lon="13.5842583"><ele>637.0</ele><time>2026-05-02T08:48:34.472Z</time></trkpt><trkpt lat="46.1099901" lon="13.5843747"><ele>637.0</ele><time>2026-05-02T08:48:35.47Z</time></trkpt><trkpt lat="46.109972" lon="13.5845008"><ele>637.0</ele><time>2026-05-02T08:48:36.473Z</time></trkpt><trkpt lat="46.10996" lon="13.5846236"><ele>637.0</ele><time>2026-05-02T08:48:37.47Z</time></trkpt><trkpt lat="46.1099291" lon="13.5848672"><ele>637.0</ele><time>2026-05-02T08:48:39.469Z</time></trkpt><trkpt lat="46.109905" lon="13.5849991"><ele>637.0</ele><time>2026-05-02T08:48:40.468Z</time></trkpt><trkpt lat="46.1098865" lon="13.5851249"><ele>628.5</ele><time>2026-05-02T08:48:41.468Z</time></trkpt><trkpt lat="46.1098633" lon="13.5852362"><ele>620.0</ele><time>2026-05-02T08:48:42.471Z</time></trkpt><trkpt lat="46.1098364" lon="13.5853307"><ele>611.5</ele><time>2026-05-02T08:48:43.471Z</time></trkpt><trkpt lat="46.1097971" lon="13.5854204"><ele>603.0</ele><time>2026-05-02T08:48:44.472Z</time></trkpt><trkpt lat="46.1097561" lon="13.5855086"><ele>594.5</ele><time>2026-05-02T08:48:45.472Z</time></trkpt><trkpt lat="46.109721" lon="13.5856216"><ele>586.0</ele><time>2026-05-02T08:48:46.472Z</time></trkpt><trkpt lat="46.109694" lon="13.585749"><ele>586.0</ele><time>2026-05-02T08:48:47.472Z</time></trkpt><trkpt lat="46.1096704" lon="13.5858763"><ele>586.0</ele><time>2026-05-02T08:48:48.472Z</time></trkpt><trkpt lat="46.1096459" lon="13.5859943"><ele>586.0</ele><time>2026-05-02T08:48:49.471Z</time></trkpt><trkpt lat="46.1096259" lon="13.5861174"><ele>586.0</ele><time>2026-05-02T08:48:50.47Z</time></trkpt><trkpt lat="46.1096101" lon="13.5862486"><ele>586.0</ele><time>2026-05-02T08:48:51.47Z</time></trkpt><trkpt lat="46.1095949" lon="13.5863811"><ele>586.8</ele><time>2026-05-02T08:48:52.469Z</time></trkpt><trkpt lat="46.1095814" lon="13.5865225"><ele>587.6</ele><time>2026-05-02T08:48:53.47Z</time></trkpt><trkpt lat="46.1095576" lon="13.5866583"><ele>588.4</ele><time>2026-05-02T08:48:54.473Z</time></trkpt><trkpt lat="46.1095242" lon="13.5867897"><ele>589.2</ele><time>2026-05-02T08:48:55.472Z</time></trkpt><trkpt lat="46.1095017" lon="13.5869206"><ele>590.0</ele><time>2026-05-02T08:48:56.472Z</time></trkpt><trkpt lat="46.1094817" lon="13.5870378"><ele>590.8</ele><time>2026-05-02T08:48:57.472Z</time></trkpt><trkpt lat="46.1094734" lon="13.5871528"><ele>591.6</ele><time>2026-05-02T08:48:58.471Z</time></trkpt><trkpt lat="46.1094925" lon="13.5873913"><ele>592.4</ele><time>2026-05-02T08:49:00.471Z</time></trkpt><trkpt lat="46.1095081" lon="13.5875006"><ele>593.2</ele><time>2026-05-02T08:49:01.471Z</time></trkpt><trkpt lat="46.1095263" lon="13.5876074"><ele>594.0</ele><time>2026-05-02T08:49:02.468Z</time></trkpt><trkpt lat="46.1095599" lon="13.5876971"><ele>594.0</ele><time>2026-05-02T08:49:03.47Z</time></trkpt><trkpt lat="46.1095984" lon="13.5877723"><ele>594.0</ele><time>2026-05-02T08:49:04.47Z</time></trkpt><trkpt lat="46.1096527" lon="13.5878383"><ele>594.0</ele><time>2026-05-02T08:49:05.471Z</time></trkpt><trkpt lat="46.1097031" lon="13.5879635"><ele>594.0</ele><time>2026-05-02T08:49:07.47Z</time></trkpt><trkpt lat="46.1096754" lon="13.5880658"><ele>594.0</ele><time>2026-05-02T08:49:09.475Z</time></trkpt><trkpt lat="46.1095923" lon="13.5880598"><ele>594.0</ele><time>2026-05-02T08:49:11.47Z</time></trkpt><trkpt lat="46.1094967" lon="13.5879884"><ele>594.0</ele><time>2026-05-02T08:49:13.473Z</time></trkpt><trkpt lat="46.1094355" lon="13.5878735"><ele>594.0</ele><time>2026-05-02T08:49:15.474Z</time></trkpt><trkpt lat="46.109421" lon="13.5877776"><ele>594.0</ele><time>2026-05-02T08:49:16.468Z</time></trkpt><trkpt lat="46.1094057" lon="13.5876644"><ele>594.0</ele><time>2026-05-02T08:49:17.469Z</time></trkpt><trkpt lat="46.1093873" lon="13.5875395"><ele>594.0</ele><time>2026-05-02T08:49:18.47Z</time></trkpt><trkpt lat="46.1093689" lon="13.5874045"><ele>594.0</ele><time>2026-05-02T08:49:19.472Z</time></trkpt><trkpt lat="46.1093328" lon="13.5871271"><ele>593.3333333333334</ele><time>2026-05-02T08:49:21.471Z</time></trkpt><trkpt lat="46.1093167" lon="13.5869972"><ele>592.6666666666666</ele><time>2026-05-02T08:49:22.469Z</time></trkpt><trkpt lat="46.1093061" lon="13.5868722"><ele>592.0</ele><time>2026-05-02T08:49:23.469Z</time></trkpt><trkpt lat="46.1092985" lon="13.586753"><ele>591.3333333333333</ele><time>2026-05-02T08:49:24.471Z</time></trkpt><trkpt lat="46.1092948" lon="13.5866287"><ele>590.6666666666666</ele><time>2026-05-02T08:49:25.472Z</time></trkpt><trkpt lat="46.1092955" lon="13.5865055"><ele>590.0</ele><time>2026-05-02T08:49:26.474Z</time></trkpt><trkpt lat="46.1092981" lon="13.5863809"><ele>590.0</ele><time>2026-05-02T08:49:27.469Z</time></trkpt><trkpt lat="46.1093072" lon="13.586247"><ele>590.0</ele><time>2026-05-02T08:49:28.469Z</time></trkpt><trkpt lat="46.1093121" lon="13.5861042"><ele>590.0</ele><time>2026-05-02T08:49:29.468Z</time></trkpt><trkpt lat="46.1093143" lon="13.5859644"><ele>590.0</ele><time>2026-05-02T08:49:30.471Z</time></trkpt><trkpt lat="46.1093182" lon="13.5858371"><ele>590.0</ele><time>2026-05-02T08:49:31.47Z</time></trkpt><trkpt lat="46.1093149" lon="13.5857264"><ele>589.3333333333333</ele><time>2026-05-02T08:49:32.47Z</time></trkpt><trkpt lat="46.1092981" lon="13.5856253"><ele>588.6666666666666</ele><time>2026-05-02T08:49:33.47Z</time></trkpt><trkpt lat="46.1092718" lon="13.5855289"><ele>588.0</ele><time>2026-05-02T08:49:34.468Z</time></trkpt><trkpt lat="46.1092329" lon="13.5854277"><ele>587.3333333333334</ele><time>2026-05-02T08:49:35.47Z</time></trkpt><trkpt lat="46.1091952" lon="13.5853162"><ele>586.6666666666667</ele><time>2026-05-02T08:49:36.471Z</time></trkpt><trkpt lat="46.1091652" lon="13.5851936"><ele>586.0</ele><time>2026-05-02T08:49:37.471Z</time></trkpt><trkpt lat="46.1091461" lon="13.58508"><ele>586.0</ele><time>2026-05-02T08:49:38.469Z</time></trkpt><trkpt lat="46.1091192" lon="13.5849679"><ele>586.0</ele><time>2026-05-02T08:49:39.469Z</time></trkpt><trkpt lat="46.1090896" lon="13.584855"><ele>586.0</ele><time>2026-05-02T08:49:40.47Z</time></trkpt><trkpt lat="46.1090042" lon="13.5846289"><ele>586.0</ele><time>2026-05-02T08:49:42.47Z</time></trkpt><trkpt lat="46.1089508" lon="13.5845219"><ele>586.0</ele><time>2026-05-02T08:49:43.469Z</time></trkpt><trkpt lat="46.1088976" lon="13.5844061"><ele>580.8333333333334</ele><time>2026-05-02T08:49:44.469Z</time></trkpt><trkpt lat="46.108835" lon="13.5842908"><ele>575.6666666666667</ele><time>2026-05-02T08:49:45.474Z</time></trkpt><trkpt lat="46.1087759" lon="13.5841772"><ele>570.5</ele><time>2026-05-02T08:49:46.472Z</time></trkpt><trkpt lat="46.1087235" lon="13.584068"><ele>565.3333333333334</ele><time>2026-05-02T08:49:47.47Z</time></trkpt><trkpt lat="46.1086702" lon="13.58398"><ele>560.1666666666666</ele><time>2026-05-02T08:49:48.468Z</time></trkpt><trkpt lat="46.1086261" lon="13.5839078"><ele>555.0</ele><time>2026-05-02T08:49:49.468Z</time></trkpt><trkpt lat="46.1085412" lon="13.5838153"><ele>555.0</ele><time>2026-05-02T08:49:51.469Z</time></trkpt><trkpt lat="46.1084411" lon="13.583823"><ele>555.0</ele><time>2026-05-02T08:49:53.468Z</time></trkpt><trkpt lat="46.1083237" lon="13.5838469"><ele>555.0</ele><time>2026-05-02T08:49:55.468Z</time></trkpt><trkpt lat="46.108253" lon="13.5838658"><ele>555.0</ele><time>2026-05-02T08:49:56.468Z</time></trkpt><trkpt lat="46.108184" lon="13.5838769"><ele>555.0</ele><time>2026-05-02T08:49:57.471Z</time></trkpt><trkpt lat="46.10811" lon="13.5838773"><ele>555.0</ele><time>2026-05-02T08:49:58.47Z</time></trkpt><trkpt lat="46.108031" lon="13.5838632"><ele>553.4</ele><time>2026-05-02T08:49:59.471Z</time></trkpt><trkpt lat="46.1079507" lon="13.5838355"><ele>551.8</ele><time>2026-05-02T08:50:00.47Z</time></trkpt><trkpt lat="46.107874" lon="13.5837983"><ele>550.2</ele><time>2026-05-02T08:50:01.469Z</time></trkpt><trkpt lat="46.1077155" lon="13.5837072"><ele>548.6</ele><time>2026-05-02T08:50:03.47Z</time></trkpt><trkpt lat="46.1076515" lon="13.5836558"><ele>547.0</ele><time>2026-05-02T08:50:04.471Z</time></trkpt><trkpt lat="46.1076023" lon="13.5835912"><ele>547.0</ele><time>2026-05-02T08:50:05.469Z</time></trkpt><trkpt lat="46.1075632" lon="13.583515"><ele>547.0</ele><time>2026-05-02T08:50:06.472Z</time></trkpt><trkpt lat="46.107503" lon="13.5834123"><ele>547.0</ele><time>2026-05-02T08:50:08.472Z</time></trkpt><trkpt lat="46.1074432" lon="13.5834677"><ele>547.0</ele><time>2026-05-02T08:50:11.472Z</time></trkpt><trkpt lat="46.1074755" lon="13.5835495"><ele>547.0</ele><time>2026-05-02T08:50:13.471Z</time></trkpt><trkpt lat="46.1075498" lon="13.5836848"><ele>547.0</ele><time>2026-05-02T08:50:15.468Z</time></trkpt><trkpt lat="46.1076002" lon="13.5837717"><ele>545.8333333333334</ele><time>2026-05-02T08:50:16.468Z</time></trkpt><trkpt lat="46.1076608" lon="13.5838725"><ele>544.6666666666667</ele><time>2026-05-02T08:50:17.469Z</time></trkpt><trkpt lat="46.1077203" lon="13.5839742"><ele>543.5</ele><time>2026-05-02T08:50:18.471Z</time></trkpt><trkpt lat="46.1077817" lon="13.5840658"><ele>542.3333333333334</ele><time>2026-05-02T08:50:19.471Z</time></trkpt><trkpt lat="46.1078412" lon="13.5841455"><ele>541.1666666666666</ele><time>2026-05-02T08:50:20.47Z</time></trkpt><trkpt lat="46.1079" lon="13.5842072"><ele>540.0</ele><time>2026-05-02T08:50:21.471Z</time></trkpt><trkpt lat="46.1080052" lon="13.5842557"><ele>540.0</ele><time>2026-05-02T08:50:23.47Z</time></trkpt><trkpt lat="46.1081755" lon="13.5841945"><ele>540.0</ele><time>2026-05-02T08:50:27.469Z</time></trkpt><trkpt lat="46.1082185" lon="13.5842995"><ele>540.0</ele><time>2026-05-02T08:50:29.468Z</time></trkpt><trkpt lat="46.1082083" lon="13.5844683"><ele>540.0</ele><time>2026-05-02T08:50:31.471Z</time></trkpt><trkpt lat="46.1081983" lon="13.5845592"><ele>540.0</ele><time>2026-05-02T08:50:32.471Z</time></trkpt><trkpt lat="46.1081933" lon="13.5846758"><ele>535.1666666666666</ele><time>2026-05-02T08:50:33.471Z</time></trkpt><trkpt lat="46.1081963" lon="13.5847883"><ele>530.3333333333334</ele><time>2026-05-02T08:50:34.471Z</time></trkpt><trkpt lat="46.1081975" lon="13.5849018"><ele>525.5</ele><time>2026-05-02T08:50:35.468Z</time></trkpt><trkpt lat="46.1081995" lon="13.5849928"><ele>520.6666666666667</ele><time>2026-05-02T08:50:36.471Z</time></trkpt><trkpt lat="46.1081917" lon="13.5850923"><ele>515.8333333333334</ele><time>2026-05-02T08:50:37.471Z</time></trkpt><trkpt lat="46.1081747" lon="13.5852637"><ele>511.0</ele><time>2026-05-02T08:50:39.47Z</time></trkpt><trkpt lat="46.1081608" lon="13.58541"><ele>508.6</ele><time>2026-05-02T08:50:41.47Z</time></trkpt><trkpt lat="46.1081048" lon="13.5855425"><ele>506.20000000000005</ele><time>2026-05-02T08:50:43.468Z</time></trkpt><trkpt lat="46.1080537" lon="13.5856022"><ele>503.79999999999995</ele><time>2026-05-02T08:50:44.47Z</time></trkpt><trkpt lat="46.107955" lon="13.5857488"><ele>501.4</ele><time>2026-05-02T08:50:46.47Z</time></trkpt><trkpt lat="46.1079092" lon="13.5858272"><ele>499.0</ele><time>2026-05-02T08:50:47.472Z</time></trkpt><trkpt lat="46.1078713" lon="13.5859263"><ele>499.00000000000006</ele><time>2026-05-02T08:50:48.472Z</time></trkpt><trkpt lat="46.1078408" lon="13.5860375"><ele>499.0</ele><time>2026-05-02T08:50:49.471Z</time></trkpt><trkpt lat="46.1078173" lon="13.5861352"><ele>499.0</ele><time>2026-05-02T08:50:50.471Z</time></trkpt><trkpt lat="46.1077827" lon="13.5862237"><ele>499.0</ele><time>2026-05-02T08:50:51.469Z</time></trkpt><trkpt lat="46.1077412" lon="13.5863222"><ele>499.00000000000006</ele><time>2026-05-02T08:50:52.471Z</time></trkpt><trkpt lat="46.1076978" lon="13.5864347"><ele>499.0</ele><time>2026-05-02T08:50:53.471Z</time></trkpt><trkpt lat="46.1076627" lon="13.5865535"><ele>498.6</ele><time>2026-05-02T08:50:54.472Z</time></trkpt><trkpt lat="46.1076318" lon="13.5866585"><ele>498.2</ele><time>2026-05-02T08:50:55.469Z</time></trkpt><trkpt lat="46.107601" lon="13.5867547"><ele>497.80000000000007</ele><time>2026-05-02T08:50:56.469Z</time></trkpt><trkpt lat="46.1075732" lon="13.586845"><ele>497.40000000000003</ele><time>2026-05-02T08:50:57.469Z</time></trkpt><trkpt lat="46.1075338" lon="13.5870123"><ele>497.0</ele><time>2026-05-02T08:50:59.468Z</time></trkpt><trkpt lat="46.1074732" lon="13.5871523"><ele>498.20000000000005</ele><time>2026-05-02T08:51:01.47Z</time></trkpt><trkpt lat="46.1074295" lon="13.5872332"><ele>499.40000000000003</ele><time>2026-05-02T08:51:02.468Z</time></trkpt><trkpt lat="46.1073932" lon="13.5873233"><ele>500.59999999999997</ele><time>2026-05-02T08:51:03.469Z</time></trkpt><trkpt lat="46.1073657" lon="13.5874295"><ele>501.79999999999995</ele><time>2026-05-02T08:51:04.468Z</time></trkpt><trkpt lat="46.1073333" lon="13.587538"><ele>503.0</ele><time>2026-05-02T08:51:05.467Z</time></trkpt><trkpt lat="46.1072748" lon="13.5877675"><ele>492.99999999999994</ele><time>2026-05-02T08:51:07.467Z</time></trkpt><trkpt lat="46.1072577" lon="13.5878907"><ele>483.0</ele><time>2026-05-02T08:51:08.469Z</time></trkpt><trkpt lat="46.107249" lon="13.5880157"><ele>473.0</ele><time>2026-05-02T08:51:09.471Z</time></trkpt><trkpt lat="46.1072508" lon="13.588146"><ele>463.0</ele><time>2026-05-02T08:51:10.471Z</time></trkpt><trkpt lat="46.107255" lon="13.5882667"><ele>452.99999999999994</ele><time>2026-05-02T08:51:11.468Z</time></trkpt><trkpt lat="46.1072745" lon="13.5883753"><ele>443.0</ele><time>2026-05-02T08:51:12.47Z</time></trkpt><trkpt lat="46.107309" lon="13.5884813"><ele>442.99999999999994</ele><time>2026-05-02T08:51:13.471Z</time></trkpt><trkpt lat="46.1073505" lon="13.588591"><ele>443.0</ele><time>2026-05-02T08:51:14.471Z</time></trkpt><trkpt lat="46.1073945" lon="13.5886765"><ele>443.0</ele><time>2026-05-02T08:51:15.471Z</time></trkpt><trkpt lat="46.1074388" lon="13.588762"><ele>443.0</ele><time>2026-05-02T08:51:16.471Z</time></trkpt><trkpt lat="46.1074883" lon="13.5888373"><ele>442.99999999999994</ele><time>2026-05-02T08:51:17.468Z</time></trkpt><trkpt lat="46.1075402" lon="13.5889043"><ele>443.0</ele><time>2026-05-02T08:51:18.471Z</time></trkpt><trkpt lat="46.1076025" lon="13.5889615"><ele>447.4</ele><time>2026-05-02T08:51:19.471Z</time></trkpt><trkpt lat="46.107688" lon="13.5890303"><ele>451.79999999999995</ele><time>2026-05-02T08:51:20.471Z</time></trkpt><trkpt lat="46.1077845" lon="13.5891045"><ele>456.2</ele><time>2026-05-02T08:51:21.47Z</time></trkpt><trkpt lat="46.107893" lon="13.5891807"><ele>460.6</ele><time>2026-05-02T08:51:22.469Z</time></trkpt><trkpt lat="46.1079943" lon="13.5892517"><ele>465.0</ele><time>2026-05-02T08:51:23.469Z</time></trkpt><trkpt lat="46.1080792" lon="13.5893193"><ele>465.0</ele><time>2026-05-02T08:51:24.47Z</time></trkpt><trkpt lat="46.1081605" lon="13.5893795"><ele>465.0</ele><time>2026-05-02T08:51:25.469Z</time></trkpt><trkpt lat="46.1082522" lon="13.589437"><ele>465.0</ele><time>2026-05-02T08:51:26.469Z</time></trkpt><trkpt lat="46.108439" lon="13.589554"><ele>465.0</ele><time>2026-05-02T08:51:28.471Z</time></trkpt><trkpt lat="46.108529" lon="13.5895925"><ele>465.0</ele><time>2026-05-02T08:51:29.469Z</time></trkpt><trkpt lat="46.108619" lon="13.5896403"><ele>465.0</ele><time>2026-05-02T08:51:30.469Z</time></trkpt><trkpt lat="46.1087127" lon="13.5896767"><ele>465.0</ele><time>2026-05-02T08:51:31.466Z</time></trkpt><trkpt lat="46.1088095" lon="13.5896912"><ele>465.0</ele><time>2026-05-02T08:51:32.466Z</time></trkpt><trkpt lat="46.1089013" lon="13.58972"><ele>465.0</ele><time>2026-05-02T08:51:33.469Z</time></trkpt><trkpt lat="46.1089985" lon="13.5897558"><ele>465.0</ele><time>2026-05-02T08:51:34.47Z</time></trkpt><trkpt lat="46.1091055" lon="13.5897935"><ele>465.0</ele><time>2026-05-02T08:51:35.469Z</time></trkpt><trkpt lat="46.1092177" lon="13.5898297"><ele>465.0</ele><time>2026-05-02T08:51:36.47Z</time></trkpt><trkpt lat="46.1093268" lon="13.5898595"><ele>465.0</ele><time>2026-05-02T08:51:37.469Z</time></trkpt><trkpt lat="46.109429" lon="13.5898743"><ele>465.0</ele><time>2026-05-02T08:51:38.471Z</time></trkpt><trkpt lat="46.1095223" lon="13.5898935"><ele>465.0</ele><time>2026-05-02T08:51:39.471Z</time></trkpt><trkpt lat="46.109604" lon="13.589911"><ele>465.0</ele><time>2026-05-02T08:51:40.47Z</time></trkpt><trkpt lat="46.1097147" lon="13.5899963"><ele>465.0</ele><time>2026-05-02T08:51:42.469Z</time></trkpt><trkpt lat="46.1097723" lon="13.5900675"><ele>465.0</ele><time>2026-05-02T08:51:43.469Z</time></trkpt><trkpt lat="46.1098113" lon="13.590143"><ele>465.0</ele><time>2026-05-02T08:51:44.469Z</time></trkpt><trkpt lat="46.1098442" lon="13.5902318"><ele>465.0</ele><time>2026-05-02T08:51:45.468Z</time></trkpt><trkpt lat="46.1098568" lon="13.5903255"><ele>465.0</ele><time>2026-05-02T08:51:46.47Z</time></trkpt><trkpt lat="46.1098327" lon="13.5905017"><ele>465.0</ele><time>2026-05-02T08:51:48.471Z</time></trkpt><trkpt lat="46.1098232" lon="13.5907188"><ele>465.0</ele><time>2026-05-02T08:51:50.467Z</time></trkpt><trkpt lat="46.1098275" lon="13.5908398"><ele>465.0</ele><time>2026-05-02T08:51:51.468Z</time></trkpt><trkpt lat="46.1098242" lon="13.5909615"><ele>465.0</ele><time>2026-05-02T08:51:52.467Z</time></trkpt><trkpt lat="46.10982" lon="13.5910825"><ele>457.0</ele><time>2026-05-02T08:51:53.467Z</time></trkpt><trkpt lat="46.1098173" lon="13.5912037"><ele>449.0</ele><time>2026-05-02T08:51:54.467Z</time></trkpt><trkpt lat="46.1098188" lon="13.591313"><ele>441.0</ele><time>2026-05-02T08:51:55.467Z</time></trkpt><trkpt lat="46.1098263" lon="13.5914272"><ele>433.0</ele><time>2026-05-02T08:51:56.466Z</time></trkpt><trkpt lat="46.1098363" lon="13.5915407"><ele>425.0</ele><time>2026-05-02T08:51:57.466Z</time></trkpt><trkpt lat="46.1098458" lon="13.5916502"><ele>417.0</ele><time>2026-05-02T08:51:58.467Z</time></trkpt><trkpt lat="46.1098602" lon="13.5917478"><ele>417.0</ele><time>2026-05-02T08:51:59.469Z</time></trkpt><trkpt lat="46.1099015" lon="13.5918902"><ele>417.0</ele><time>2026-05-02T08:52:01.469Z</time></trkpt><trkpt lat="46.1100132" lon="13.5919893"><ele>417.0</ele><time>2026-05-02T08:52:03.469Z</time></trkpt><trkpt lat="46.1100883" lon="13.5920283"><ele>417.0</ele><time>2026-05-02T08:52:04.469Z</time></trkpt><trkpt lat="46.1101667" lon="13.592061"><ele>417.0</ele><time>2026-05-02T08:52:05.47Z</time></trkpt><trkpt lat="46.1102363" lon="13.5920993"><ele>421.3333333333333</ele><time>2026-05-02T08:52:06.469Z</time></trkpt><trkpt lat="46.1103078" lon="13.5921332"><ele>425.66666666666663</ele><time>2026-05-02T08:52:07.471Z</time></trkpt><trkpt lat="46.1103647" lon="13.5921857"><ele>430.0</ele><time>2026-05-02T08:52:08.471Z</time></trkpt><trkpt lat="46.1104157" lon="13.5922603"><ele>434.3333333333333</ele><time>2026-05-02T08:52:09.472Z</time></trkpt><trkpt lat="46.1104935" lon="13.5924178"><ele>438.66666666666663</ele><time>2026-05-02T08:52:11.47Z</time></trkpt><trkpt lat="46.1105268" lon="13.592506"><ele>443.0</ele><time>2026-05-02T08:52:12.472Z</time></trkpt><trkpt lat="46.110584" lon="13.5926607"><ele>442.99999999999994</ele><time>2026-05-02T08:52:14.47Z</time></trkpt><trkpt lat="46.1105907" lon="13.5927682"><ele>443.0</ele><time>2026-05-02T08:52:15.468Z</time></trkpt><trkpt lat="46.1105892" lon="13.5928813"><ele>443.0</ele><time>2026-05-02T08:52:16.466Z</time></trkpt><trkpt lat="46.1105782" lon="13.5929942"><ele>443.0</ele><time>2026-05-02T08:52:17.467Z</time></trkpt><trkpt lat="46.110551" lon="13.5931072"><ele>442.99999999999994</ele><time>2026-05-02T08:52:18.468Z</time></trkpt><trkpt lat="46.1105252" lon="13.5932192"><ele>443.0</ele><time>2026-05-02T08:52:19.467Z</time></trkpt><trkpt lat="46.1104995" lon="13.593326"><ele>436.0</ele><time>2026-05-02T08:52:20.467Z</time></trkpt><trkpt lat="46.1105058" lon="13.5934752"><ele>429.0</ele><time>2026-05-02T08:52:22.469Z</time></trkpt><trkpt lat="46.1105673" lon="13.593559"><ele>422.0</ele><time>2026-05-02T08:52:26.47Z</time></trkpt><trkpt lat="46.1105572" lon="13.593455"><ele>415.0</ele><time>2026-05-02T08:52:33.471Z</time></trkpt><trkpt lat="46.1105942" lon="13.5931033"><ele>415.0</ele><time>2026-05-02T08:52:37.471Z</time></trkpt><trkpt lat="46.1105523" lon="13.5929557"><ele>415.0</ele><time>2026-05-02T08:52:39.471Z</time></trkpt><trkpt lat="46.1104532" lon="13.5928313"><ele>415.0</ele><time>2026-05-02T08:52:41.469Z</time></trkpt><trkpt lat="46.11039" lon="13.5927697"><ele>415.0</ele><time>2026-05-02T08:52:42.468Z</time></trkpt><trkpt lat="46.1103242" lon="13.5927427"><ele>415.0</ele><time>2026-05-02T08:52:43.467Z</time></trkpt><trkpt lat="46.1102552" lon="13.5927155"><ele>415.33333333333337</ele><time>2026-05-02T08:52:44.467Z</time></trkpt><trkpt lat="46.1101852" lon="13.592699"><ele>415.6666666666667</ele><time>2026-05-02T08:52:45.466Z</time></trkpt><trkpt lat="46.1101005" lon="13.5927028"><ele>416.0</ele><time>2026-05-02T08:52:46.466Z</time></trkpt><trkpt lat="46.1100125" lon="13.5927343"><ele>416.33333333333337</ele><time>2026-05-02T08:52:47.467Z</time></trkpt><trkpt lat="46.1099287" lon="13.5927753"><ele>416.6666666666667</ele><time>2026-05-02T08:52:48.468Z</time></trkpt><trkpt lat="46.1098435" lon="13.59279"><ele>417.0</ele><time>2026-05-02T08:52:49.467Z</time></trkpt><trkpt lat="46.1097523" lon="13.5927943"><ele>417.0</ele><time>2026-05-02T08:52:50.47Z</time></trkpt><trkpt lat="46.1096633" lon="13.5927925"><ele>417.0</ele><time>2026-05-02T08:52:51.471Z</time></trkpt><trkpt lat="46.1095683" lon="13.592797"><ele>417.0</ele><time>2026-05-02T08:52:52.47Z</time></trkpt><trkpt lat="46.1094795" lon="13.5928192"><ele>417.0</ele><time>2026-05-02T08:52:53.468Z</time></trkpt><trkpt lat="46.1094043" lon="13.5928413"><ele>417.0</ele><time>2026-05-02T08:52:54.47Z</time></trkpt><trkpt lat="46.1092498" lon="13.5928677"><ele>417.0</ele><time>2026-05-02T08:52:57.471Z</time></trkpt><trkpt lat="46.1091857" lon="13.5927752"><ele>417.0</ele><time>2026-05-02T08:52:59.471Z</time></trkpt><trkpt lat="46.1091678" lon="13.5926222"><ele>417.0</ele><time>2026-05-02T08:53:01.471Z</time></trkpt><trkpt lat="46.1091765" lon="13.5925253"><ele>417.0</ele><time>2026-05-02T08:53:02.469Z</time></trkpt><trkpt lat="46.109198" lon="13.5924188"><ele>417.0</ele><time>2026-05-02T08:53:03.471Z</time></trkpt><trkpt lat="46.1092253" lon="13.5923078"><ele>417.0</ele><time>2026-05-02T08:53:04.47Z</time></trkpt><trkpt lat="46.1092437" lon="13.592198"><ele>417.0</ele><time>2026-05-02T08:53:05.468Z</time></trkpt><trkpt lat="46.1092468" lon="13.5920823"><ele>417.0</ele><time>2026-05-02T08:53:06.469Z</time></trkpt><trkpt lat="46.1092465" lon="13.5919752"><ele>417.0</ele><time>2026-05-02T08:53:07.466Z</time></trkpt><trkpt lat="46.1092365" lon="13.591849"><ele>417.0</ele><time>2026-05-02T08:53:08.466Z</time></trkpt><trkpt lat="46.1092133" lon="13.5917415"><ele>417.0</ele><time>2026-05-02T08:53:09.47Z</time></trkpt><trkpt lat="46.1091775" lon="13.5916322"><ele>417.0</ele><time>2026-05-02T08:53:10.469Z</time></trkpt><trkpt lat="46.109139" lon="13.5915253"><ele>417.0</ele><time>2026-05-02T08:53:11.469Z</time></trkpt><trkpt lat="46.109098" lon="13.5914382"><ele>417.0</ele><time>2026-05-02T08:53:12.468Z</time></trkpt><trkpt lat="46.109047" lon="13.5913845"><ele>417.0</ele><time>2026-05-02T08:53:13.473Z</time></trkpt><trkpt lat="46.1089393" lon="13.5913548"><ele>417.0</ele><time>2026-05-02T08:53:15.47Z</time></trkpt><trkpt lat="46.1088128" lon="13.5913895"><ele>417.0</ele><time>2026-05-02T08:53:17.468Z</time></trkpt><trkpt lat="46.1087267" lon="13.5914253"><ele>412.8</ele><time>2026-05-02T08:53:18.469Z</time></trkpt><trkpt lat="46.108633" lon="13.591449"><ele>408.6</ele><time>2026-05-02T08:53:19.467Z</time></trkpt><trkpt lat="46.1085432" lon="13.5914735"><ele>404.40000000000003</ele><time>2026-05-02T08:53:20.47Z</time></trkpt><trkpt lat="46.1084482" lon="13.5915002"><ele>400.20000000000005</ele><time>2026-05-02T08:53:21.47Z</time></trkpt><trkpt lat="46.108367" lon="13.5915288"><ele>396.0</ele><time>2026-05-02T08:53:22.47Z</time></trkpt><trkpt lat="46.108284" lon="13.591549"><ele>393.1666666666667</ele><time>2026-05-02T08:53:23.468Z</time></trkpt><trkpt lat="46.1081997" lon="13.5915538"><ele>390.3333333333333</ele><time>2026-05-02T08:53:24.468Z</time></trkpt><trkpt lat="46.1081103" lon="13.5915445"><ele>387.5</ele><time>2026-05-02T08:53:25.468Z</time></trkpt><trkpt lat="46.1080208" lon="13.5915423"><ele>384.66666666666663</ele><time>2026-05-02T08:53:26.468Z</time></trkpt><trkpt lat="46.1079297" lon="13.5915535"><ele>381.8333333333333</ele><time>2026-05-02T08:53:27.47Z</time></trkpt><trkpt lat="46.1078393" lon="13.5915477"><ele>379.0</ele><time>2026-05-02T08:53:28.469Z</time></trkpt><trkpt lat="46.10775" lon="13.591545"><ele>379.0</ele><time>2026-05-02T08:53:29.468Z</time></trkpt><trkpt lat="46.107663" lon="13.5915215"><ele>379.0</ele><time>2026-05-02T08:53:30.468Z</time></trkpt><trkpt lat="46.1075712" lon="13.5914962"><ele>379.0</ele><time>2026-05-02T08:53:31.47Z</time></trkpt><trkpt lat="46.1074817" lon="13.5914712"><ele>379.0</ele><time>2026-05-02T08:53:32.468Z</time></trkpt><trkpt lat="46.1073917" lon="13.591453"><ele>379.0</ele><time>2026-05-02T08:53:33.469Z</time></trkpt><trkpt lat="46.1072942" lon="13.5914533"><ele>377.79999999999995</ele><time>2026-05-02T08:53:34.468Z</time></trkpt><trkpt lat="46.1071933" lon="13.591456"><ele>376.59999999999997</ele><time>2026-05-02T08:53:35.467Z</time></trkpt><trkpt lat="46.1071017" lon="13.5914493"><ele>375.4</ele><time>2026-05-02T08:53:36.471Z</time></trkpt><trkpt lat="46.1069418" lon="13.5914977"><ele>374.2</ele><time>2026-05-02T08:53:38.471Z</time></trkpt><trkpt lat="46.106862" lon="13.5915448"><ele>373.0</ele><time>2026-05-02T08:53:39.47Z</time></trkpt><trkpt lat="46.1067705" lon="13.5916122"><ele>373.0</ele><time>2026-05-02T08:53:40.468Z</time></trkpt><trkpt lat="46.1066932" lon="13.5916667"><ele>373.0</ele><time>2026-05-02T08:53:41.473Z</time></trkpt><trkpt lat="46.1066207" lon="13.5917067"><ele>373.0</ele><time>2026-05-02T08:53:42.47Z</time></trkpt><trkpt lat="46.1065207" lon="13.591731"><ele>373.0</ele><time>2026-05-02T08:53:44.468Z</time></trkpt><trkpt lat="46.1064565" lon="13.5917655"><ele>373.0</ele><time>2026-05-02T08:53:46.469Z</time></trkpt><trkpt lat="46.106554" lon="13.5917773"><ele>373.0</ele><time>2026-05-02T08:53:50.467Z</time></trkpt><trkpt lat="46.1066985" lon="13.5917342"><ele>373.0</ele><time>2026-05-02T08:53:52.469Z</time></trkpt><trkpt lat="46.1067743" lon="13.591713"><ele>373.0</ele><time>2026-05-02T08:53:53.47Z</time></trkpt><trkpt lat="46.1068448" lon="13.591685"><ele>373.0</ele><time>2026-05-02T08:53:54.47Z</time></trkpt><trkpt lat="46.1069147" lon="13.591674"><ele>373.0</ele><time>2026-05-02T08:53:55.467Z</time></trkpt><trkpt lat="46.1069868" lon="13.5916775"><ele>373.0</ele><time>2026-05-02T08:53:56.465Z</time></trkpt><trkpt lat="46.1070537" lon="13.5916837"><ele>373.0</ele><time>2026-05-02T08:53:57.465Z</time></trkpt><trkpt lat="46.1072072" lon="13.5917525"><ele>373.0</ele><time>2026-05-02T08:53:59.466Z</time></trkpt><trkpt lat="46.1072893" lon="13.5918128"><ele>373.0</ele><time>2026-05-02T08:54:00.47Z</time></trkpt><trkpt lat="46.1073647" lon="13.591877"><ele>373.0</ele><time>2026-05-02T08:54:01.469Z</time></trkpt><trkpt lat="46.1074395" lon="13.5919353"><ele>373.0</ele><time>2026-05-02T08:54:02.47Z</time></trkpt><trkpt lat="46.107502" lon="13.591987"><ele>373.0</ele><time>2026-05-02T08:54:03.467Z</time></trkpt><trkpt lat="46.1075652" lon="13.5920322"><ele>373.0</ele><time>2026-05-02T08:54:04.467Z</time></trkpt><trkpt lat="46.1076165" lon="13.5920973"><ele>369.16666666666663</ele><time>2026-05-02T08:54:05.467Z</time></trkpt><trkpt lat="46.1076558" lon="13.5921762"><ele>365.3333333333333</ele><time>2026-05-02T08:54:06.47Z</time></trkpt><trkpt lat="46.1076923" lon="13.5922682"><ele>361.5</ele><time>2026-05-02T08:54:07.468Z</time></trkpt><trkpt lat="46.1077577" lon="13.5923765"><ele>357.6666666666667</ele><time>2026-05-02T08:54:09.469Z</time></trkpt><trkpt lat="46.1078467" lon="13.592358"><ele>353.83333333333337</ele><time>2026-05-02T08:54:11.468Z</time></trkpt><trkpt lat="46.1079243" lon="13.5923065"><ele>350.0</ele><time>2026-05-02T08:54:13.473Z</time></trkpt><trkpt lat="46.107967" lon="13.592389"><ele>350.0</ele><time>2026-05-02T08:54:16.469Z</time></trkpt><trkpt lat="46.1079248" lon="13.592474"><ele>350.0</ele><time>2026-05-02T08:54:18.471Z</time></trkpt><trkpt lat="46.1077673" lon="13.5926775"><ele>350.0</ele><time>2026-05-02T08:54:22.467Z</time></trkpt><trkpt lat="46.107704" lon="13.5927018"><ele>350.0</ele><time>2026-05-02T08:54:23.468Z</time></trkpt><trkpt lat="46.1075907" lon="13.592679"><ele>350.0</ele><time>2026-05-02T08:54:25.47Z</time></trkpt><trkpt lat="46.1075272" lon="13.5926382"><ele>350.0</ele><time>2026-05-02T08:54:26.466Z</time></trkpt><trkpt lat="46.1074503" lon="13.59259"><ele>350.0</ele><time>2026-05-02T08:54:27.467Z</time></trkpt><trkpt lat="46.1073683" lon="13.5925585"><ele>350.0</ele><time>2026-05-02T08:54:28.467Z</time></trkpt><trkpt lat="46.1072807" lon="13.5925333"><ele>350.0</ele><time>2026-05-02T08:54:29.469Z</time></trkpt><trkpt lat="46.1071947" lon="13.5925282"><ele>350.0</ele><time>2026-05-02T08:54:30.468Z</time></trkpt><trkpt lat="46.1071132" lon="13.5925185"><ele>348.57142857142856</ele><time>2026-05-02T08:54:31.47Z</time></trkpt><trkpt lat="46.1070382" lon="13.5925205"><ele>347.1428571428571</ele><time>2026-05-02T08:54:32.469Z</time></trkpt><trkpt lat="46.1069637" lon="13.5925345"><ele>345.7142857142857</ele><time>2026-05-02T08:54:33.468Z</time></trkpt><trkpt lat="46.1068905" lon="13.5925547"><ele>344.2857142857143</ele><time>2026-05-02T08:54:34.469Z</time></trkpt><trkpt lat="46.106822" lon="13.5925792"><ele>342.85714285714283</ele><time>2026-05-02T08:54:35.469Z</time></trkpt><trkpt lat="46.1067482" lon="13.59261"><ele>341.42857142857144</ele><time>2026-05-02T08:54:36.468Z</time></trkpt><trkpt lat="46.1066823" lon="13.5926455"><ele>340.0</ele><time>2026-05-02T08:54:37.468Z</time></trkpt><trkpt lat="46.1066118" lon="13.592675"><ele>340.0</ele><time>2026-05-02T08:54:38.469Z</time></trkpt><trkpt lat="46.1065445" lon="13.5927075"><ele>340.0</ele><time>2026-05-02T08:54:39.471Z</time></trkpt><trkpt lat="46.1063635" lon="13.5927293"><ele>340.0</ele><time>2026-05-02T08:54:42.468Z</time></trkpt><trkpt lat="46.1064097" lon="13.592792"><ele>340.0</ele><time>2026-05-02T08:54:46.468Z</time></trkpt><trkpt lat="46.1065398" lon="13.5927768"><ele>340.0</ele><time>2026-05-02T08:54:48.467Z</time></trkpt><trkpt lat="46.1066173" lon="13.5927938"><ele>340.0</ele><time>2026-05-02T08:54:49.469Z</time></trkpt><trkpt lat="46.1066927" lon="13.5928337"><ele>340.0</ele><time>2026-05-02T08:54:50.47Z</time></trkpt><trkpt lat="46.1067743" lon="13.5928775"><ele>340.0</ele><time>2026-05-02T08:54:51.468Z</time></trkpt><trkpt lat="46.1068427" lon="13.5929338"><ele>340.0</ele><time>2026-05-02T08:54:52.466Z</time></trkpt><trkpt lat="46.106909" lon="13.5929833"><ele>340.0</ele><time>2026-05-02T08:54:53.468Z</time></trkpt><trkpt lat="46.10697" lon="13.5930417"><ele>340.0</ele><time>2026-05-02T08:54:54.467Z</time></trkpt><trkpt lat="46.1070232" lon="13.5931365"><ele>334.6</ele><time>2026-05-02T08:54:55.468Z</time></trkpt><trkpt lat="46.1070582" lon="13.5932373"><ele>329.2</ele><time>2026-05-02T08:54:56.467Z</time></trkpt><trkpt lat="46.1070932" lon="13.5933198"><ele>323.8</ele><time>2026-05-02T08:54:57.466Z</time></trkpt><trkpt lat="46.1071802" lon="13.5934442"><ele>318.4</ele><time>2026-05-02T08:54:59.465Z</time></trkpt><trkpt lat="46.1072733" lon="13.5935223"><ele>313.0</ele><time>2026-05-02T08:55:01.466Z</time></trkpt><trkpt lat="46.1072665" lon="13.5938167"><ele>310.1428571428571</ele><time>2026-05-02T08:55:05.469Z</time></trkpt><trkpt lat="46.1072398" lon="13.5939153"><ele>307.2857142857143</ele><time>2026-05-02T08:55:06.467Z</time></trkpt><trkpt lat="46.1072212" lon="13.594012"><ele>304.42857142857144</ele><time>2026-05-02T08:55:07.466Z</time></trkpt><trkpt lat="46.1072017" lon="13.5941153"><ele>301.57142857142856</ele><time>2026-05-02T08:55:08.469Z</time></trkpt><trkpt lat="46.1071897" lon="13.5942092"><ele>298.7142857142857</ele><time>2026-05-02T08:55:09.468Z</time></trkpt><trkpt lat="46.107164" lon="13.5943073"><ele>295.85714285714283</ele><time>2026-05-02T08:55:11.467Z</time></trkpt><trkpt lat="46.1072003" lon="13.5943983"><ele>293.0</ele><time>2026-05-02T08:55:21.47Z</time></trkpt><trkpt lat="46.107246" lon="13.5945023"><ele>295.0</ele><time>2026-05-02T08:55:23.471Z</time></trkpt><trkpt lat="46.107405" lon="13.5946158"><ele>297.0</ele><time>2026-05-02T08:55:27.47Z</time></trkpt><trkpt lat="46.10751" lon="13.5946647"><ele>299.0</ele><time>2026-05-02T08:55:29.469Z</time></trkpt><trkpt lat="46.107577" lon="13.5947033"><ele>301.0</ele><time>2026-05-02T08:55:30.466Z</time></trkpt><trkpt lat="46.1076493" lon="13.594741"><ele>303.0</ele><time>2026-05-02T08:55:31.468Z</time></trkpt><trkpt lat="46.107716" lon="13.594771"><ele>303.0</ele><time>2026-05-02T08:55:32.47Z</time></trkpt><trkpt lat="46.1077885" lon="13.5948205"><ele>303.0</ele><time>2026-05-02T08:55:34.469Z</time></trkpt><trkpt lat="46.1078535" lon="13.5948515"><ele>303.0</ele><time>2026-05-02T08:55:38.469Z</time></trkpt><trkpt lat="46.10778" lon="13.5948863"><ele>303.0</ele><time>2026-05-02T08:55:51.468Z</time></trkpt><trkpt lat="46.1075668" lon="13.5947917"><ele>303.0</ele><time>2026-05-02T08:55:55.469Z</time></trkpt><trkpt lat="46.107448" lon="13.594767"><ele>298.4</ele><time>2026-05-02T08:55:57.469Z</time></trkpt><trkpt lat="46.1073513" lon="13.5947147"><ele>293.8</ele><time>2026-05-02T08:55:59.467Z</time></trkpt><trkpt lat="46.1073045" lon="13.5946177"><ele>289.2</ele><time>2026-05-02T08:56:01.468Z</time></trkpt><trkpt lat="46.1072402" lon="13.5945937"><ele>284.6</ele><time>2026-05-02T08:56:04.469Z</time></trkpt><trkpt lat="46.1072587" lon="13.5947663"><ele>280.0</ele><time>2026-05-02T08:56:07.471Z</time></trkpt><trkpt lat="46.1073043" lon="13.5948682"><ele>280.0</ele><time>2026-05-02T08:56:08.469Z</time></trkpt><trkpt lat="46.1073727" lon="13.5949862"><ele>280.0</ele><time>2026-05-02T08:56:09.471Z</time></trkpt><trkpt lat="46.107434" lon="13.5951112"><ele>280.0</ele><time>2026-05-02T08:56:10.469Z</time></trkpt><trkpt lat="46.1074935" lon="13.5952378"><ele>280.0</ele><time>2026-05-02T08:56:11.466Z</time></trkpt><trkpt lat="46.1075455" lon="13.5953618"><ele>280.0</ele><time>2026-05-02T08:56:12.468Z</time></trkpt><trkpt lat="46.1076253" lon="13.595601"><ele>279.7142857142857</ele><time>2026-05-02T08:56:14.473Z</time></trkpt><trkpt lat="46.107652" lon="13.5956842"><ele>279.42857142857144</ele><time>2026-05-02T08:56:15.472Z</time></trkpt><trkpt lat="46.1076968" lon="13.5957517"><ele>279.1428571428571</ele><time>2026-05-02T08:56:16.468Z</time></trkpt><trkpt lat="46.1077527" lon="13.5957983"><ele>278.8571428571429</ele><time>2026-05-02T08:56:17.47Z</time></trkpt><trkpt lat="46.1078218" lon="13.5958323"><ele>278.57142857142856</ele><time>2026-05-02T08:56:18.471Z</time></trkpt><trkpt lat="46.1079037" lon="13.5958357"><ele>278.2857142857143</ele><time>2026-05-02T08:56:19.469Z</time></trkpt><trkpt lat="46.1079802" lon="13.5958425"><ele>278.0</ele><time>2026-05-02T08:56:20.467Z</time></trkpt><trkpt lat="46.1080767" lon="13.595894"><ele>278.0</ele><time>2026-05-02T08:56:22.47Z</time></trkpt><trkpt lat="46.1081082" lon="13.5959933"><ele>278.0</ele><time>2026-05-02T08:56:24.466Z</time></trkpt><trkpt lat="46.108071" lon="13.5960692"><ele>278.0</ele><time>2026-05-02T08:56:26.465Z</time></trkpt><trkpt lat="46.1079938" lon="13.5960468"><ele>278.0</ele><time>2026-05-02T08:56:28.467Z</time></trkpt><trkpt lat="46.1078802" lon="13.5960175"><ele>278.0</ele><time>2026-05-02T08:56:30.47Z</time></trkpt><trkpt lat="46.1078057" lon="13.596051"><ele>278.0</ele><time>2026-05-02T08:56:31.47Z</time></trkpt><trkpt lat="46.1077285" lon="13.596072"><ele>278.0</ele><time>2026-05-02T08:56:32.47Z</time></trkpt><trkpt lat="46.107664" lon="13.5960607"><ele>278.0</ele><time>2026-05-02T08:56:33.471Z</time></trkpt><trkpt lat="46.1075355" lon="13.5959648"><ele>278.0</ele><time>2026-05-02T08:56:35.471Z</time></trkpt><trkpt lat="46.107474" lon="13.595862"><ele>278.0</ele><time>2026-05-02T08:56:36.47Z</time></trkpt><trkpt lat="46.1074175" lon="13.5957438"><ele>278.0</ele><time>2026-05-02T08:56:37.468Z</time></trkpt><trkpt lat="46.1073583" lon="13.5956275"><ele>278.4</ele><time>2026-05-02T08:56:38.468Z</time></trkpt><trkpt lat="46.1072858" lon="13.5955215"><ele>278.8</ele><time>2026-05-02T08:56:39.471Z</time></trkpt><trkpt lat="46.107208" lon="13.595433"><ele>279.2</ele><time>2026-05-02T08:56:40.469Z</time></trkpt><trkpt lat="46.1071312" lon="13.5953463"><ele>279.6</ele><time>2026-05-02T08:56:41.47Z</time></trkpt><trkpt lat="46.1070638" lon="13.5952683"><ele>280.0</ele><time>2026-05-02T08:56:42.469Z</time></trkpt><trkpt lat="46.1070068" lon="13.5951992"><ele>280.0</ele><time>2026-05-02T08:56:43.469Z</time></trkpt><trkpt lat="46.1069293" lon="13.5951042"><ele>280.0</ele><time>2026-05-02T08:56:45.47Z</time></trkpt><trkpt lat="46.1068733" lon="13.5950512"><ele>280.0</ele><time>2026-05-02T08:56:48.47Z</time></trkpt><trkpt lat="46.1068203" lon="13.5949967"><ele>280.0</ele><time>2026-05-02T08:56:55.472Z</time></trkpt><trkpt lat="46.1067065" lon="13.594827"><ele>280.0</ele><time>2026-05-02T08:57:10.468Z</time></trkpt><trkpt lat="46.1066827" lon="13.5947372"><ele>280.0</ele><time>2026-05-02T08:57:12.47Z</time></trkpt><trkpt lat="46.1066447" lon="13.5946582"><ele>280.0</ele><time>2026-05-02T08:57:20.471Z</time></trkpt><trkpt lat="46.1065808" lon="13.5943505"><ele>280.0</ele><time>2026-05-02T09:28:49.474Z</time></trkpt><trkpt lat="46.1065167" lon="13.5942728"><ele>280.0</ele><time>2026-05-02T09:28:51.479Z</time></trkpt><trkpt lat="46.106429" lon="13.5942"><ele>278.66666666666663</ele><time>2026-05-02T09:28:53.474Z</time></trkpt><trkpt lat="46.1063475" lon="13.5940723"><ele>277.3333333333333</ele><time>2026-05-02T09:28:55.475Z</time></trkpt><trkpt lat="46.1063033" lon="13.5939958"><ele>276.0</ele><time>2026-05-02T09:28:56.474Z</time></trkpt><trkpt lat="46.106247" lon="13.5939272"><ele>274.6666666666667</ele><time>2026-05-02T09:28:57.474Z</time></trkpt><trkpt lat="46.1061785" lon="13.593869"><ele>273.33333333333337</ele><time>2026-05-02T09:28:58.475Z</time></trkpt><trkpt lat="46.1060995" lon="13.5938305"><ele>272.0</ele><time>2026-05-02T09:28:59.475Z</time></trkpt><trkpt lat="46.1060138" lon="13.5938017"><ele>272.0</ele><time>2026-05-02T09:29:00.474Z</time></trkpt><trkpt lat="46.1059263" lon="13.5937703"><ele>272.0</ele><time>2026-05-02T09:29:01.481Z</time></trkpt><trkpt lat="46.1058408" lon="13.5937172"><ele>272.0</ele><time>2026-05-02T09:29:02.481Z</time></trkpt><trkpt lat="46.1057523" lon="13.5936517"><ele>272.0</ele><time>2026-05-02T09:29:03.471Z</time></trkpt><trkpt lat="46.1056548" lon="13.5935822"><ele>272.0</ele><time>2026-05-02T09:29:04.471Z</time></trkpt><trkpt lat="46.1055548" lon="13.5935127"><ele>271.5</ele><time>2026-05-02T09:29:05.472Z</time></trkpt><trkpt lat="46.1053648" lon="13.5933568"><ele>271.0</ele><time>2026-05-02T09:29:07.472Z</time></trkpt><trkpt lat="46.1052702" lon="13.5932782"><ele>270.5</ele><time>2026-05-02T09:29:08.472Z</time></trkpt><trkpt lat="46.105177" lon="13.593197"><ele>270.0</ele><time>2026-05-02T09:29:09.473Z</time></trkpt><trkpt lat="46.1050858" lon="13.5931068"><ele>270.0</ele><time>2026-05-02T09:29:10.473Z</time></trkpt><trkpt lat="46.1049973" lon="13.5930055"><ele>270.0</ele><time>2026-05-02T09:29:11.472Z</time></trkpt><trkpt lat="46.1049095" lon="13.5928925"><ele>270.0</ele><time>2026-05-02T09:29:12.473Z</time></trkpt><trkpt lat="46.1048252" lon="13.5927723"><ele>270.0</ele><time>2026-05-02T09:29:13.471Z</time></trkpt><trkpt lat="46.104741" lon="13.5926407"><ele>267.5</ele><time>2026-05-02T09:29:14.472Z</time></trkpt><trkpt lat="46.104658" lon="13.592506"><ele>265.0</ele><time>2026-05-02T09:29:15.474Z</time></trkpt><trkpt lat="46.1045732" lon="13.5923703"><ele>262.5</ele><time>2026-05-02T09:29:16.471Z</time></trkpt><trkpt lat="46.1044938" lon="13.5922345"><ele>260.0</ele><time>2026-05-02T09:29:17.472Z</time></trkpt><trkpt lat="46.1044178" lon="13.5920923"><ele>264.75</ele><time>2026-05-02T09:29:18.472Z</time></trkpt><trkpt lat="46.1043477" lon="13.5919372"><ele>269.5</ele><time>2026-05-02T09:29:19.472Z</time></trkpt><trkpt lat="46.1042787" lon="13.5917732"><ele>274.25</ele><time>2026-05-02T09:29:20.471Z</time></trkpt><trkpt lat="46.1042085" lon="13.5916067"><ele>279.0</ele><time>2026-05-02T09:29:21.471Z</time></trkpt><trkpt lat="46.104137" lon="13.5914388"><ele>272.0</ele><time>2026-05-02T09:29:22.472Z</time></trkpt><trkpt lat="46.1040737" lon="13.5912692"><ele>265.0</ele><time>2026-05-02T09:29:23.472Z</time></trkpt><trkpt lat="46.1040168" lon="13.5910945"><ele>258.0</ele><time>2026-05-02T09:29:24.472Z</time></trkpt><trkpt lat="46.1039652" lon="13.590915"><ele>251.0</ele><time>2026-05-02T09:29:25.472Z</time></trkpt><trkpt lat="46.1039128" lon="13.5907345"><ele>251.0</ele><time>2026-05-02T09:29:26.472Z</time></trkpt><trkpt lat="46.1037878" lon="13.5903777"><ele>251.0</ele><time>2026-05-02T09:29:28.472Z</time></trkpt><trkpt lat="46.1037295" lon="13.590223"><ele>251.0</ele><time>2026-05-02T09:29:29.469Z</time></trkpt><trkpt lat="46.103688" lon="13.590123"><ele>253.66666666666669</ele><time>2026-05-02T09:29:30.471Z</time></trkpt><trkpt lat="46.103629" lon="13.5900732"><ele>256.33333333333337</ele><time>2026-05-02T09:29:33.472Z</time></trkpt><trkpt lat="46.1035697" lon="13.5900288"><ele>259.0</ele><time>2026-05-02T09:29:37.472Z</time></trkpt><trkpt lat="46.1035235" lon="13.5899495"><ele>261.6666666666667</ele><time>2026-05-02T09:29:42.472Z</time></trkpt><trkpt lat="46.1034393" lon="13.5898257"><ele>264.3333333333333</ele><time>2026-05-02T09:29:44.471Z</time></trkpt><trkpt lat="46.1033893" lon="13.589754"><ele>267.0</ele><time>2026-05-02T09:29:45.472Z</time></trkpt><trkpt lat="46.1033307" lon="13.5896818"><ele>267.0</ele><time>2026-05-02T09:29:46.471Z</time></trkpt><trkpt lat="46.1032683" lon="13.5895982"><ele>267.0</ele><time>2026-05-02T09:29:47.471Z</time></trkpt><trkpt lat="46.1031093" lon="13.5894453"><ele>267.0</ele><time>2026-05-02T09:29:49.473Z</time></trkpt><trkpt lat="46.1030208" lon="13.589367"><ele>267.0</ele><time>2026-05-02T09:29:50.472Z</time></trkpt><trkpt lat="46.1029285" lon="13.5893017"><ele>265.2</ele><time>2026-05-02T09:29:51.471Z</time></trkpt><trkpt lat="46.102838" lon="13.5892352"><ele>263.4</ele><time>2026-05-02T09:29:52.469Z</time></trkpt><trkpt lat="46.1027427" lon="13.5891597"><ele>261.6</ele><time>2026-05-02T09:29:53.469Z</time></trkpt><trkpt lat="46.1026433" lon="13.5890922"><ele>259.8</ele><time>2026-05-02T09:29:54.471Z</time></trkpt><trkpt lat="46.102548" lon="13.5890122"><ele>258.0</ele><time>2026-05-02T09:29:55.471Z</time></trkpt><trkpt lat="46.1024593" lon="13.5889142"><ele>254.0</ele><time>2026-05-02T09:29:56.473Z</time></trkpt><trkpt lat="46.102374" lon="13.588814"><ele>250.0</ele><time>2026-05-02T09:29:57.473Z</time></trkpt><trkpt lat="46.1022955" lon="13.588718"><ele>246.0</ele><time>2026-05-02T09:29:58.472Z</time></trkpt><trkpt lat="46.1022275" lon="13.5886228"><ele>242.0</ele><time>2026-05-02T09:29:59.473Z</time></trkpt><trkpt lat="46.1021742" lon="13.5885238"><ele>238.0</ele><time>2026-05-02T09:30:00.477Z</time></trkpt><trkpt lat="46.1021445" lon="13.5884162"><ele>237.99999999999997</ele><time>2026-05-02T09:30:01.473Z</time></trkpt><trkpt lat="46.1021443" lon="13.5883057"><ele>238.0</ele><time>2026-05-02T09:30:02.472Z</time></trkpt><trkpt lat="46.102171" lon="13.5881982"><ele>238.0</ele><time>2026-05-02T09:30:03.473Z</time></trkpt><trkpt lat="46.102216" lon="13.5881022"><ele>238.0</ele><time>2026-05-02T09:30:04.473Z</time></trkpt><trkpt lat="46.1022727" lon="13.5879998"><ele>237.99999999999997</ele><time>2026-05-02T09:30:05.471Z</time></trkpt><trkpt lat="46.1023393" lon="13.5878885"><ele>238.0</ele><time>2026-05-02T09:30:06.473Z</time></trkpt><trkpt lat="46.1024062" lon="13.5877697"><ele>238.4</ele><time>2026-05-02T09:30:07.473Z</time></trkpt><trkpt lat="46.1024683" lon="13.587656"><ele>238.8</ele><time>2026-05-02T09:30:08.473Z</time></trkpt><trkpt lat="46.1025177" lon="13.587409"><ele>239.2</ele><time>2026-05-02T09:30:10.474Z</time></trkpt><trkpt lat="46.1024947" lon="13.5872948"><ele>239.6</ele><time>2026-05-02T09:30:11.473Z</time></trkpt><trkpt lat="46.1024438" lon="13.5871995"><ele>240.0</ele><time>2026-05-02T09:30:12.474Z</time></trkpt><trkpt lat="46.1023693" lon="13.5871352"><ele>240.0</ele><time>2026-05-02T09:30:13.476Z</time></trkpt><trkpt lat="46.1022858" lon="13.5871108"><ele>240.0</ele><time>2026-05-02T09:30:14.476Z</time></trkpt><trkpt lat="46.1022047" lon="13.5871328"><ele>240.0</ele><time>2026-05-02T09:30:15.474Z</time></trkpt><trkpt lat="46.1021303" lon="13.5872028"><ele>240.0</ele><time>2026-05-02T09:30:16.475Z</time></trkpt><trkpt lat="46.1020645" lon="13.5873148"><ele>240.0</ele><time>2026-05-02T09:30:17.472Z</time></trkpt><trkpt lat="46.1020008" lon="13.5874478"><ele>240.0</ele><time>2026-05-02T09:30:18.473Z</time></trkpt><trkpt lat="46.1019335" lon="13.5875888"><ele>240.0</ele><time>2026-05-02T09:30:19.474Z</time></trkpt><trkpt lat="46.1018663" lon="13.5877287"><ele>240.0</ele><time>2026-05-02T09:30:20.473Z</time></trkpt><trkpt lat="46.1018075" lon="13.58787"><ele>240.0</ele><time>2026-05-02T09:30:21.473Z</time></trkpt><trkpt lat="46.1017612" lon="13.5880193"><ele>239.66666666666666</ele><time>2026-05-02T09:30:22.474Z</time></trkpt><trkpt lat="46.1017357" lon="13.5881645"><ele>239.33333333333331</ele><time>2026-05-02T09:30:23.473Z</time></trkpt><trkpt lat="46.1017235" lon="13.588289"><ele>239.0</ele><time>2026-05-02T09:30:24.475Z</time></trkpt><trkpt lat="46.1017212" lon="13.58839"><ele>238.66666666666666</ele><time>2026-05-02T09:30:25.475Z</time></trkpt><trkpt lat="46.1017083" lon="13.5885018"><ele>238.33333333333331</ele><time>2026-05-02T09:30:27.474Z</time></trkpt><trkpt lat="46.1017132" lon="13.588609"><ele>238.0</ele><time>2026-05-02T09:30:29.474Z</time></trkpt><trkpt lat="46.1018465" lon="13.5888272"><ele>237.2</ele><time>2026-05-02T09:30:32.474Z</time></trkpt><trkpt lat="46.1019295" lon="13.5889057"><ele>236.4</ele><time>2026-05-02T09:30:33.474Z</time></trkpt><trkpt lat="46.1020233" lon="13.5889885"><ele>235.59999999999997</ele><time>2026-05-02T09:30:34.474Z</time></trkpt><trkpt lat="46.1021198" lon="13.5890847"><ele>234.79999999999998</ele><time>2026-05-02T09:30:35.473Z</time></trkpt><trkpt lat="46.102223" lon="13.5891777"><ele>234.0</ele><time>2026-05-02T09:30:36.474Z</time></trkpt><trkpt lat="46.102326" lon="13.5892743"><ele>235.25</ele><time>2026-05-02T09:30:37.471Z</time></trkpt><trkpt lat="46.1024358" lon="13.5893703"><ele>236.5</ele><time>2026-05-02T09:30:38.472Z</time></trkpt><trkpt lat="46.1025475" lon="13.5894745"><ele>237.75</ele><time>2026-05-02T09:30:39.471Z</time></trkpt><trkpt lat="46.1026563" lon="13.5895812"><ele>239.0</ele><time>2026-05-02T09:30:40.472Z</time></trkpt><trkpt lat="46.1027613" lon="13.5896935"><ele>239.0</ele><time>2026-05-02T09:30:41.471Z</time></trkpt><trkpt lat="46.1028567" lon="13.5898072"><ele>239.0</ele><time>2026-05-02T09:30:42.47Z</time></trkpt><trkpt lat="46.1029438" lon="13.5899393"><ele>239.0</ele><time>2026-05-02T09:30:43.47Z</time></trkpt><trkpt lat="46.1030288" lon="13.590075"><ele>239.0</ele><time>2026-05-02T09:30:44.471Z</time></trkpt><trkpt lat="46.103115" lon="13.5902138"><ele>239.5</ele><time>2026-05-02T09:30:45.473Z</time></trkpt><trkpt lat="46.1031905" lon="13.5903655"><ele>240.0</ele><time>2026-05-02T09:30:46.472Z</time></trkpt><trkpt lat="46.1032647" lon="13.590522"><ele>240.5</ele><time>2026-05-02T09:30:47.471Z</time></trkpt><trkpt lat="46.103332" lon="13.5906812"><ele>241.0</ele><time>2026-05-02T09:30:48.473Z</time></trkpt><trkpt lat="46.1033928" lon="13.5908483"><ele>241.66666666666666</ele><time>2026-05-02T09:30:49.472Z</time></trkpt><trkpt lat="46.103447" lon="13.591021"><ele>242.33333333333331</ele><time>2026-05-02T09:30:50.471Z</time></trkpt><trkpt lat="46.1035433" lon="13.5913522"><ele>243.0</ele><time>2026-05-02T09:30:52.472Z</time></trkpt><trkpt lat="46.1035937" lon="13.5915263"><ele>243.0</ele><time>2026-05-02T09:30:53.472Z</time></trkpt><trkpt lat="46.1036512" lon="13.591698"><ele>243.0</ele><time>2026-05-02T09:30:54.473Z</time></trkpt><trkpt lat="46.1037195" lon="13.5918657"><ele>243.0</ele><time>2026-05-02T09:30:55.473Z</time></trkpt><trkpt lat="46.1037897" lon="13.5920198"><ele>243.0</ele><time>2026-05-02T09:30:56.472Z</time></trkpt><trkpt lat="46.1038747" lon="13.59217"><ele>242.75</ele><time>2026-05-02T09:30:57.474Z</time></trkpt><trkpt lat="46.1039733" lon="13.5923098"><ele>242.5</ele><time>2026-05-02T09:30:58.472Z</time></trkpt><trkpt lat="46.1040835" lon="13.5924485"><ele>242.25</ele><time>2026-05-02T09:30:59.472Z</time></trkpt><trkpt lat="46.1041905" lon="13.592586"><ele>242.0</ele><time>2026-05-02T09:31:00.472Z</time></trkpt><trkpt lat="46.104291" lon="13.5927417"><ele>242.0</ele><time>2026-05-02T09:31:01.473Z</time></trkpt><trkpt lat="46.1043845" lon="13.5929087"><ele>242.0</ele><time>2026-05-02T09:31:02.473Z</time></trkpt><trkpt lat="46.104476" lon="13.5930818"><ele>242.0</ele><time>2026-05-02T09:31:03.473Z</time></trkpt><trkpt lat="46.1045675" lon="13.593258"><ele>242.0</ele><time>2026-05-02T09:31:04.474Z</time></trkpt><trkpt lat="46.1046582" lon="13.5934315"><ele>242.0</ele><time>2026-05-02T09:31:05.47Z</time></trkpt><trkpt lat="46.1047557" lon="13.5935987"><ele>242.0</ele><time>2026-05-02T09:31:06.473Z</time></trkpt><trkpt lat="46.1048628" lon="13.5937473"><ele>244.0</ele><time>2026-05-02T09:31:07.472Z</time></trkpt><trkpt lat="46.1049783" lon="13.5938845"><ele>246.0</ele><time>2026-05-02T09:31:08.471Z</time></trkpt><trkpt lat="46.1050895" lon="13.5940323"><ele>248.0</ele><time>2026-05-02T09:31:09.474Z</time></trkpt><trkpt lat="46.1051868" lon="13.5942007"><ele>248.0</ele><time>2026-05-02T09:31:10.475Z</time></trkpt><trkpt lat="46.1052668" lon="13.5943917"><ele>248.0</ele><time>2026-05-02T09:31:11.474Z</time></trkpt><trkpt lat="46.1054017" lon="13.5947888"><ele>246.0</ele><time>2026-05-02T09:31:13.473Z</time></trkpt><trkpt lat="46.1054595" lon="13.5949793"><ele>244.0</ele><time>2026-05-02T09:31:14.474Z</time></trkpt><trkpt lat="46.1055048" lon="13.5951577"><ele>242.0</ele><time>2026-05-02T09:31:15.475Z</time></trkpt><trkpt lat="46.1055473" lon="13.5953273"><ele>240.0</ele><time>2026-05-02T09:31:16.474Z</time></trkpt><trkpt lat="46.1055987" lon="13.5954875"><ele>239.5</ele><time>2026-05-02T09:31:17.474Z</time></trkpt><trkpt lat="46.1056665" lon="13.5956327"><ele>239.0</ele><time>2026-05-02T09:31:18.474Z</time></trkpt><trkpt lat="46.1057493" lon="13.5957507"><ele>238.5</ele><time>2026-05-02T09:31:19.476Z</time></trkpt><trkpt lat="46.1058457" lon="13.5958358"><ele>238.0</ele><time>2026-05-02T09:31:20.474Z</time></trkpt><trkpt lat="46.1059502" lon="13.5958872"><ele>240.2</ele><time>2026-05-02T09:31:21.475Z</time></trkpt><trkpt lat="46.1060637" lon="13.595912"><ele>242.4</ele><time>2026-05-02T09:31:22.473Z</time></trkpt><trkpt lat="46.1061808" lon="13.595925"><ele>244.59999999999997</ele><time>2026-05-02T09:31:23.473Z</time></trkpt><trkpt lat="46.1062885" lon="13.5959503"><ele>246.79999999999998</ele><time>2026-05-02T09:31:24.473Z</time></trkpt><trkpt lat="46.1063888" lon="13.595997"><ele>249.0</ele><time>2026-05-02T09:31:25.472Z</time></trkpt><trkpt lat="46.1064822" lon="13.5960412"><ele>249.0</ele><time>2026-05-02T09:31:26.471Z</time></trkpt><trkpt lat="46.1065767" lon="13.5960515"><ele>249.0</ele><time>2026-05-02T09:31:27.473Z</time></trkpt><trkpt lat="46.106671" lon="13.5960317"><ele>249.0</ele><time>2026-05-02T09:31:28.472Z</time></trkpt><trkpt lat="46.1067533" lon="13.5960157"><ele>249.0</ele><time>2026-05-02T09:31:29.472Z</time></trkpt><trkpt lat="46.1068263" lon="13.5960318"><ele>249.0</ele><time>2026-05-02T09:31:30.47Z</time></trkpt><trkpt lat="46.1069065" lon="13.5960843"><ele>249.0</ele><time>2026-05-02T09:31:31.469Z</time></trkpt><trkpt lat="46.1069907" lon="13.596156"><ele>247.75</ele><time>2026-05-02T09:31:32.471Z</time></trkpt><trkpt lat="46.1071688" lon="13.5963122"><ele>246.5</ele><time>2026-05-02T09:31:34.47Z</time></trkpt><trkpt lat="46.1072623" lon="13.5963897"><ele>245.25</ele><time>2026-05-02T09:31:35.47Z</time></trkpt><trkpt lat="46.1073573" lon="13.5964628"><ele>244.0</ele><time>2026-05-02T09:31:36.471Z</time></trkpt><trkpt lat="46.1074542" lon="13.5965212"><ele>246.6</ele><time>2026-05-02T09:31:37.47Z</time></trkpt><trkpt lat="46.1075412" lon="13.596586"><ele>249.2</ele><time>2026-05-02T09:31:38.47Z</time></trkpt><trkpt lat="46.1076207" lon="13.5966538"><ele>251.79999999999998</ele><time>2026-05-02T09:31:39.472Z</time></trkpt><trkpt lat="46.1076947" lon="13.5967573"><ele>254.39999999999998</ele><time>2026-05-02T09:31:40.472Z</time></trkpt><trkpt lat="46.1077723" lon="13.5968742"><ele>257.0</ele><time>2026-05-02T09:31:41.474Z</time></trkpt><trkpt lat="46.1078695" lon="13.5969727"><ele>259.0</ele><time>2026-05-02T09:31:42.472Z</time></trkpt><trkpt lat="46.1079878" lon="13.5970595"><ele>261.0</ele><time>2026-05-02T09:31:43.474Z</time></trkpt><trkpt lat="46.1081122" lon="13.5971433"><ele>263.0</ele><time>2026-05-02T09:31:44.471Z</time></trkpt><trkpt lat="46.1082325" lon="13.5972338"><ele>265.0</ele><time>2026-05-02T09:31:45.475Z</time></trkpt><trkpt lat="46.1083412" lon="13.5973297"><ele>265.0</ele><time>2026-05-02T09:31:46.473Z</time></trkpt><trkpt lat="46.1084402" lon="13.5974352"><ele>265.0</ele><time>2026-05-02T09:31:47.473Z</time></trkpt><trkpt lat="46.1085167" lon="13.597562"><ele>265.0</ele><time>2026-05-02T09:31:48.473Z</time></trkpt><trkpt lat="46.1085723" lon="13.5977158"><ele>265.0</ele><time>2026-05-02T09:31:49.472Z</time></trkpt><trkpt lat="46.1086103" lon="13.5978792"><ele>260.5</ele><time>2026-05-02T09:31:50.473Z</time></trkpt><trkpt lat="46.1086458" lon="13.5980448"><ele>256.0</ele><time>2026-05-02T09:31:51.473Z</time></trkpt><trkpt lat="46.1086965" lon="13.5982137"><ele>251.5</ele><time>2026-05-02T09:31:52.473Z</time></trkpt><trkpt lat="46.1087632" lon="13.5983793"><ele>247.0</ele><time>2026-05-02T09:31:53.472Z</time></trkpt><trkpt lat="46.1089405" lon="13.5987027"><ele>245.5</ele><time>2026-05-02T09:31:55.477Z</time></trkpt><trkpt lat="46.1090358" lon="13.5988625"><ele>244.0</ele><time>2026-05-02T09:31:56.472Z</time></trkpt><trkpt lat="46.1091263" lon="13.599014"><ele>242.5</ele><time>2026-05-02T09:31:57.475Z</time></trkpt><trkpt lat="46.1092143" lon="13.5991422"><ele>241.0</ele><time>2026-05-02T09:31:58.474Z</time></trkpt><trkpt lat="46.109304" lon="13.5992343"><ele>244.4</ele><time>2026-05-02T09:31:59.475Z</time></trkpt><trkpt lat="46.1093995" lon="13.5992898"><ele>247.8</ele><time>2026-05-02T09:32:00.473Z</time></trkpt><trkpt lat="46.1095073" lon="13.5993047"><ele>251.20000000000002</ele><time>2026-05-02T09:32:01.473Z</time></trkpt><trkpt lat="46.1096227" lon="13.5993053"><ele>254.60000000000002</ele><time>2026-05-02T09:32:02.474Z</time></trkpt><trkpt lat="46.1097442" lon="13.5993058"><ele>258.0</ele><time>2026-05-02T09:32:03.474Z</time></trkpt><trkpt lat="46.1098657" lon="13.5992975"><ele>259.8</ele><time>2026-05-02T09:32:04.471Z</time></trkpt><trkpt lat="46.1099737" lon="13.5992655"><ele>261.6</ele><time>2026-05-02T09:32:05.472Z</time></trkpt><trkpt lat="46.1100637" lon="13.5992215"><ele>263.4</ele><time>2026-05-02T09:32:06.471Z</time></trkpt><trkpt lat="46.1101467" lon="13.5991918"><ele>265.2</ele><time>2026-05-02T09:32:07.47Z</time></trkpt><trkpt lat="46.1102348" lon="13.5992057"><ele>267.0</ele><time>2026-05-02T09:32:08.471Z</time></trkpt><trkpt lat="46.1103362" lon="13.5992332"><ele>267.0</ele><time>2026-05-02T09:32:09.471Z</time></trkpt><trkpt lat="46.1104465" lon="13.5992525"><ele>267.0</ele><time>2026-05-02T09:32:10.47Z</time></trkpt><trkpt lat="46.1105593" lon="13.599276"><ele>267.0</ele><time>2026-05-02T09:32:11.472Z</time></trkpt><trkpt lat="46.110679" lon="13.5993008"><ele>267.0</ele><time>2026-05-02T09:32:12.474Z</time></trkpt><trkpt lat="46.1107982" lon="13.5993385"><ele>264.3333333333333</ele><time>2026-05-02T09:32:13.47Z</time></trkpt><trkpt lat="46.1109128" lon="13.5993847"><ele>261.66666666666663</ele><time>2026-05-02T09:32:14.47Z</time></trkpt><trkpt lat="46.1111557" lon="13.5994803"><ele>259.0</ele><time>2026-05-02T09:32:16.469Z</time></trkpt><trkpt lat="46.1112752" lon="13.5995543"><ele>259.0</ele><time>2026-05-02T09:32:17.475Z</time></trkpt><trkpt lat="46.1113927" lon="13.5996383"><ele>259.0</ele><time>2026-05-02T09:32:18.472Z</time></trkpt><trkpt lat="46.1115068" lon="13.5997303"><ele>259.0</ele><time>2026-05-02T09:32:19.468Z</time></trkpt><trkpt lat="46.1116213" lon="13.5998252"><ele>259.0</ele><time>2026-05-02T09:32:20.469Z</time></trkpt><trkpt lat="46.1117392" lon="13.5999205"><ele>262.25</ele><time>2026-05-02T09:32:21.468Z</time></trkpt><trkpt lat="46.1118535" lon="13.60002"><ele>265.5</ele><time>2026-05-02T09:32:22.468Z</time></trkpt><trkpt lat="46.111968" lon="13.6001133"><ele>268.75</ele><time>2026-05-02T09:32:23.471Z</time></trkpt><trkpt lat="46.1120868" lon="13.6001875"><ele>272.0</ele><time>2026-05-02T09:32:24.472Z</time></trkpt><trkpt lat="46.1122057" lon="13.6002313"><ele>272.0</ele><time>2026-05-02T09:32:25.472Z</time></trkpt><trkpt lat="46.1123182" lon="13.6002498"><ele>272.0</ele><time>2026-05-02T09:32:26.483Z</time></trkpt><trkpt lat="46.1124162" lon="13.6002738"><ele>272.0</ele><time>2026-05-02T09:32:27.475Z</time></trkpt><trkpt lat="46.112493" lon="13.6003207"><ele>272.0</ele><time>2026-05-02T09:32:28.474Z</time></trkpt><trkpt lat="46.1125465" lon="13.6004015"><ele>272.0</ele><time>2026-05-02T09:32:29.473Z</time></trkpt><trkpt lat="46.1125785" lon="13.600514"><ele>271.0</ele><time>2026-05-02T09:32:30.475Z</time></trkpt><trkpt lat="46.1126103" lon="13.6006367"><ele>270.0</ele><time>2026-05-02T09:32:31.473Z</time></trkpt><trkpt lat="46.1126582" lon="13.600754"><ele>269.0</ele><time>2026-05-02T09:32:32.475Z</time></trkpt><trkpt lat="46.1127232" lon="13.600859"><ele>268.0</ele><time>2026-05-02T09:32:33.473Z</time></trkpt><trkpt lat="46.1128153" lon="13.600947"><ele>267.0</ele><time>2026-05-02T09:32:34.473Z</time></trkpt><trkpt lat="46.1129043" lon="13.6010327"><ele>265.25</ele><time>2026-05-02T09:32:35.473Z</time></trkpt><trkpt lat="46.1130487" lon="13.601227"><ele>263.5</ele><time>2026-05-02T09:32:37.475Z</time></trkpt><trkpt lat="46.1130968" lon="13.601344"><ele>261.75</ele><time>2026-05-02T09:32:38.479Z</time></trkpt><trkpt lat="46.1131415" lon="13.6014407"><ele>260.0</ele><time>2026-05-02T09:32:39.474Z</time></trkpt><trkpt lat="46.113216" lon="13.6015032"><ele>262.0</ele><time>2026-05-02T09:32:40.473Z</time></trkpt><trkpt lat="46.1133032" lon="13.6015615"><ele>264.0</ele><time>2026-05-02T09:32:41.474Z</time></trkpt><trkpt lat="46.1133972" lon="13.6016243"><ele>266.0</ele><time>2026-05-02T09:32:42.474Z</time></trkpt><trkpt lat="46.1134802" lon="13.601709"><ele>268.0</ele><time>2026-05-02T09:32:43.495Z</time></trkpt><trkpt lat="46.1135488" lon="13.6018303"><ele>270.0</ele><time>2026-05-02T09:32:44.472Z</time></trkpt><trkpt lat="46.1136098" lon="13.6019823"><ele>268.5</ele><time>2026-05-02T09:32:45.473Z</time></trkpt><trkpt lat="46.113674" lon="13.602144"><ele>267.0</ele><time>2026-05-02T09:32:46.47Z</time></trkpt><trkpt lat="46.1137505" lon="13.602313"><ele>265.5</ele><time>2026-05-02T09:32:47.471Z</time></trkpt><trkpt lat="46.1138295" lon="13.6024853"><ele>264.0</ele><time>2026-05-02T09:32:48.472Z</time></trkpt><trkpt lat="46.1139003" lon="13.6026678"><ele>265.0</ele><time>2026-05-02T09:32:49.472Z</time></trkpt><trkpt lat="46.1139567" lon="13.6028653"><ele>266.0</ele><time>2026-05-02T09:32:50.472Z</time></trkpt><trkpt lat="46.1139995" lon="13.6030652"><ele>267.0</ele><time>2026-05-02T09:32:51.476Z</time></trkpt><trkpt lat="46.1140408" lon="13.603253"><ele>268.0</ele><time>2026-05-02T09:32:52.504Z</time></trkpt><trkpt lat="46.1140678" lon="13.6034148"><ele>268.0</ele><time>2026-05-02T09:32:53.473Z</time></trkpt><trkpt lat="46.1140945" lon="13.6035537"><ele>268.0</ele><time>2026-05-02T09:32:54.487Z</time></trkpt><trkpt lat="46.1141248" lon="13.6036923"><ele>268.0</ele><time>2026-05-02T09:32:55.473Z</time></trkpt><trkpt lat="46.1141575" lon="13.603833"><ele>268.0</ele><time>2026-05-02T09:32:56.473Z</time></trkpt><trkpt lat="46.1142383" lon="13.6040832"><ele>268.0</ele><time>2026-05-02T09:32:58.474Z</time></trkpt><trkpt lat="46.1142798" lon="13.6041855"><ele>268.0</ele><time>2026-05-02T09:32:59.474Z</time></trkpt><trkpt lat="46.1143263" lon="13.6042785"><ele>268.0</ele><time>2026-05-02T09:33:00.475Z</time></trkpt><trkpt lat="46.1143787" lon="13.604361"><ele>268.0</ele><time>2026-05-02T09:33:01.478Z</time></trkpt><trkpt lat="46.1144362" lon="13.6044385"><ele>268.0</ele><time>2026-05-02T09:33:02.474Z</time></trkpt><trkpt lat="46.1144925" lon="13.6045155"><ele>268.0</ele><time>2026-05-02T09:33:03.475Z</time></trkpt><trkpt lat="46.11454" lon="13.604597"><ele>268.16666666666663</ele><time>2026-05-02T09:33:04.474Z</time></trkpt><trkpt lat="46.1145863" lon="13.6046822"><ele>268.3333333333333</ele><time>2026-05-02T09:33:05.475Z</time></trkpt><trkpt lat="46.1146297" lon="13.6047798"><ele>268.5</ele><time>2026-05-02T09:33:06.476Z</time></trkpt><trkpt lat="46.1146742" lon="13.6048782"><ele>268.6666666666667</ele><time>2026-05-02T09:33:07.473Z</time></trkpt><trkpt lat="46.1147112" lon="13.60496"><ele>268.83333333333337</ele><time>2026-05-02T09:33:08.471Z</time></trkpt><trkpt lat="46.114737" lon="13.6050683"><ele>269.0</ele><time>2026-05-02T09:33:10.473Z</time></trkpt><trkpt lat="46.1147022" lon="13.6049143"><ele>269.0</ele><time>2026-05-02T09:33:19.474Z</time></trkpt><trkpt lat="46.1145593" lon="13.604621"><ele>269.0</ele><time>2026-05-02T09:33:23.474Z</time></trkpt><trkpt lat="46.1145018" lon="13.6045187"><ele>269.0</ele><time>2026-05-02T09:33:25.474Z</time></trkpt><trkpt lat="46.1144622" lon="13.6044447"><ele>269.0</ele><time>2026-05-02T09:33:27.474Z</time></trkpt><trkpt lat="46.1144122" lon="13.6043758"><ele>268.8</ele><time>2026-05-02T09:33:31.472Z</time></trkpt><trkpt lat="46.1143647" lon="13.604303"><ele>268.59999999999997</ele><time>2026-05-02T09:33:35.471Z</time></trkpt><trkpt lat="46.1143048" lon="13.6041798"><ele>268.4</ele><time>2026-05-02T09:33:37.473Z</time></trkpt><trkpt lat="46.1142518" lon="13.6040303"><ele>268.2</ele><time>2026-05-02T09:33:39.473Z</time></trkpt><trkpt lat="46.1142155" lon="13.6039202"><ele>268.0</ele><time>2026-05-02T09:33:41.473Z</time></trkpt><trkpt lat="46.1143345" lon="13.6039685"><ele>268.0</ele><time>2026-05-02T09:33:50.472Z</time></trkpt><trkpt lat="46.1143668" lon="13.6040482"><ele>268.0</ele><time>2026-05-02T09:33:51.473Z</time></trkpt><trkpt lat="46.1144065" lon="13.6041323"><ele>268.0</ele><time>2026-05-02T09:33:52.477Z</time></trkpt><trkpt lat="46.1144633" lon="13.6042143"><ele>268.0</ele><time>2026-05-02T09:33:53.473Z</time></trkpt><trkpt lat="46.1145273" lon="13.6042895"><ele>268.0</ele><time>2026-05-02T09:33:54.474Z</time></trkpt><trkpt lat="46.114603" lon="13.6043513"><ele>268.0</ele><time>2026-05-02T09:33:55.481Z</time></trkpt><trkpt lat="46.1146865" lon="13.6043918"><ele>268.0</ele><time>2026-05-02T09:33:56.477Z</time></trkpt><trkpt lat="46.1147633" lon="13.604415"><ele>268.0</ele><time>2026-05-02T09:33:57.47Z</time></trkpt><trkpt lat="46.1148623" lon="13.6043985"><ele>268.0</ele><time>2026-05-02T09:33:59.471Z</time></trkpt><trkpt lat="46.1148688" lon="13.6042837"><ele>268.0</ele><time>2026-05-02T09:34:01.475Z</time></trkpt><trkpt lat="46.1148235" lon="13.6041112"><ele>268.0</ele><time>2026-05-02T09:34:03.475Z</time></trkpt><trkpt lat="46.1148253" lon="13.603837"><ele>268.0</ele><time>2026-05-02T09:34:06.475Z</time></trkpt><trkpt lat="46.1148348" lon="13.6037412"><ele>268.0</ele><time>2026-05-02T09:34:07.473Z</time></trkpt><trkpt lat="46.1148388" lon="13.6036418"><ele>268.0</ele><time>2026-05-02T09:34:08.477Z</time></trkpt><trkpt lat="46.1148338" lon="13.6035432"><ele>268.0</ele><time>2026-05-02T09:34:09.473Z</time></trkpt><trkpt lat="46.1148405" lon="13.6033962"><ele>268.0</ele><time>2026-05-02T09:34:11.476Z</time></trkpt><trkpt lat="46.1148967" lon="13.603335"><ele>268.0</ele><time>2026-05-02T09:34:13.473Z</time></trkpt><trkpt lat="46.114953" lon="13.6033792"><ele>268.0</ele><time>2026-05-02T09:34:15.473Z</time></trkpt><trkpt lat="46.1149723" lon="13.6035053"><ele>271.6</ele><time>2026-05-02T09:34:17.474Z</time></trkpt><trkpt lat="46.1149835" lon="13.6036"><ele>275.20000000000005</ele><time>2026-05-02T09:34:18.473Z</time></trkpt><trkpt lat="46.1150157" lon="13.6037203"><ele>278.8</ele><time>2026-05-02T09:34:19.472Z</time></trkpt><trkpt lat="46.1150562" lon="13.6038583"><ele>282.40000000000003</ele><time>2026-05-02T09:34:20.473Z</time></trkpt><trkpt lat="46.1151028" lon="13.6039855"><ele>286.0</ele><time>2026-05-02T09:34:21.471Z</time></trkpt><trkpt lat="46.11516" lon="13.604101"><ele>286.0</ele><time>2026-05-02T09:34:22.468Z</time></trkpt><trkpt lat="46.1152282" lon="13.6042092"><ele>286.0</ele><time>2026-05-02T09:34:23.47Z</time></trkpt><trkpt lat="46.1152982" lon="13.6043152"><ele>286.0</ele><time>2026-05-02T09:34:24.47Z</time></trkpt><trkpt lat="46.1154472" lon="13.6045557"><ele>286.0</ele><time>2026-05-02T09:34:26.472Z</time></trkpt><trkpt lat="46.1155305" lon="13.604672"><ele>284.40000000000003</ele><time>2026-05-02T09:34:27.471Z</time></trkpt><trkpt lat="46.1155978" lon="13.6047678"><ele>282.8</ele><time>2026-05-02T09:34:28.472Z</time></trkpt><trkpt lat="46.1156545" lon="13.6048388"><ele>281.20000000000005</ele><time>2026-05-02T09:34:29.473Z</time></trkpt><trkpt lat="46.1157628" lon="13.6049088"><ele>279.6</ele><time>2026-05-02T09:34:31.473Z</time></trkpt><trkpt lat="46.1158705" lon="13.6048593"><ele>278.0</ele><time>2026-05-02T09:34:33.474Z</time></trkpt><trkpt lat="46.1159382" lon="13.604802"><ele>283.6666666666667</ele><time>2026-05-02T09:34:34.473Z</time></trkpt><trkpt lat="46.116002" lon="13.6047537"><ele>289.33333333333337</ele><time>2026-05-02T09:34:35.473Z</time></trkpt><trkpt lat="46.1160692" lon="13.6047208"><ele>295.0</ele><time>2026-05-02T09:34:36.473Z</time></trkpt><trkpt lat="46.1161435" lon="13.6046975"><ele>300.6666666666667</ele><time>2026-05-02T09:34:37.473Z</time></trkpt><trkpt lat="46.1162207" lon="13.6046817"><ele>306.3333333333333</ele><time>2026-05-02T09:34:38.472Z</time></trkpt><trkpt lat="46.1162883" lon="13.604663"><ele>312.0</ele><time>2026-05-02T09:34:39.473Z</time></trkpt><trkpt lat="46.116409" lon="13.6046395"><ele>312.0</ele><time>2026-05-02T09:34:41.472Z</time></trkpt><trkpt lat="46.1165217" lon="13.6046137"><ele>312.0</ele><time>2026-05-02T09:34:43.471Z</time></trkpt><trkpt lat="46.1166062" lon="13.6046385"><ele>312.0</ele><time>2026-05-02T09:34:45.472Z</time></trkpt><trkpt lat="46.1166413" lon="13.6048503"><ele>312.0</ele><time>2026-05-02T09:34:49.469Z</time></trkpt><trkpt lat="46.1166182" lon="13.60494"><ele>312.0</ele><time>2026-05-02T09:34:50.47Z</time></trkpt><trkpt lat="46.1165922" lon="13.6050273"><ele>312.0</ele><time>2026-05-02T09:34:51.471Z</time></trkpt><trkpt lat="46.1165637" lon="13.6051117"><ele>312.0</ele><time>2026-05-02T09:34:52.471Z</time></trkpt><trkpt lat="46.1165382" lon="13.6052053"><ele>312.0</ele><time>2026-05-02T09:34:53.472Z</time></trkpt><trkpt lat="46.1165308" lon="13.6053097"><ele>312.0</ele><time>2026-05-02T09:34:54.471Z</time></trkpt><trkpt lat="46.116541" lon="13.605419"><ele>312.0</ele><time>2026-05-02T09:34:55.471Z</time></trkpt><trkpt lat="46.1165855" lon="13.6055657"><ele>312.0</ele><time>2026-05-02T09:34:57.472Z</time></trkpt><trkpt lat="46.1166365" lon="13.605629"><ele>312.1666666666667</ele><time>2026-05-02T09:34:58.471Z</time></trkpt><trkpt lat="46.1166732" lon="13.6057035"><ele>312.3333333333333</ele><time>2026-05-02T09:34:59.472Z</time></trkpt><trkpt lat="46.1167043" lon="13.6058115"><ele>312.5</ele><time>2026-05-02T09:35:00.471Z</time></trkpt><trkpt lat="46.1167242" lon="13.6059137"><ele>312.66666666666663</ele><time>2026-05-02T09:35:01.471Z</time></trkpt><trkpt lat="46.1167488" lon="13.6061197"><ele>312.8333333333333</ele><time>2026-05-02T09:35:03.472Z</time></trkpt><trkpt lat="46.1167552" lon="13.6062257"><ele>313.0</ele><time>2026-05-02T09:35:04.472Z</time></trkpt><trkpt lat="46.1167798" lon="13.6063672"><ele>313.0</ele><time>2026-05-02T09:35:06.473Z</time></trkpt><trkpt lat="46.1168948" lon="13.6065313"><ele>313.0</ele><time>2026-05-02T09:35:08.471Z</time></trkpt><trkpt lat="46.1169623" lon="13.6066322"><ele>313.0</ele><time>2026-05-02T09:35:09.472Z</time></trkpt><trkpt lat="46.1170287" lon="13.6067532"><ele>313.0</ele><time>2026-05-02T09:35:10.471Z</time></trkpt><trkpt lat="46.1170793" lon="13.6068562"><ele>313.0</ele><time>2026-05-02T09:35:11.47Z</time></trkpt><trkpt lat="46.117133" lon="13.6069553"><ele>313.0</ele><time>2026-05-02T09:35:12.471Z</time></trkpt><trkpt lat="46.1171833" lon="13.6070552"><ele>313.0</ele><time>2026-05-02T09:35:13.47Z</time></trkpt><trkpt lat="46.1172357" lon="13.607182"><ele>313.0</ele><time>2026-05-02T09:35:14.471Z</time></trkpt><trkpt lat="46.1172833" lon="13.6073053"><ele>313.0</ele><time>2026-05-02T09:35:15.471Z</time></trkpt><trkpt lat="46.1173308" lon="13.6074283"><ele>310.0</ele><time>2026-05-02T09:35:16.473Z</time></trkpt><trkpt lat="46.1173838" lon="13.60754"><ele>307.0</ele><time>2026-05-02T09:35:17.472Z</time></trkpt><trkpt lat="46.1174343" lon="13.6076603"><ele>304.0</ele><time>2026-05-02T09:35:18.474Z</time></trkpt><trkpt lat="46.1174787" lon="13.607781"><ele>301.0</ele><time>2026-05-02T09:35:19.472Z</time></trkpt><trkpt lat="46.117519" lon="13.6078898"><ele>298.0</ele><time>2026-05-02T09:35:20.473Z</time></trkpt><trkpt lat="46.1175603" lon="13.6080143"><ele>307.75</ele><time>2026-05-02T09:35:21.472Z</time></trkpt><trkpt lat="46.117609" lon="13.608155"><ele>317.5</ele><time>2026-05-02T09:35:22.472Z</time></trkpt><trkpt lat="46.1176588" lon="13.608299"><ele>327.25</ele><time>2026-05-02T09:35:23.471Z</time></trkpt><trkpt lat="46.1177048" lon="13.6084508"><ele>337.0</ele><time>2026-05-02T09:35:24.471Z</time></trkpt><trkpt lat="46.1177582" lon="13.608613"><ele>336.75</ele><time>2026-05-02T09:35:25.471Z</time></trkpt><trkpt lat="46.117808" lon="13.6087637"><ele>336.5</ele><time>2026-05-02T09:35:26.472Z</time></trkpt><trkpt lat="46.1178508" lon="13.6089035"><ele>336.25</ele><time>2026-05-02T09:35:27.472Z</time></trkpt><trkpt lat="46.1179205" lon="13.6091648"><ele>336.0</ele><time>2026-05-02T09:35:29.471Z</time></trkpt><trkpt lat="46.117943" lon="13.6092735"><ele>336.0</ele><time>2026-05-02T09:35:30.472Z</time></trkpt><trkpt lat="46.1179692" lon="13.6093668"><ele>336.0</ele><time>2026-05-02T09:35:31.471Z</time></trkpt><trkpt lat="46.118021" lon="13.6094868"><ele>336.0</ele><time>2026-05-02T09:35:33.473Z</time></trkpt><trkpt lat="46.1181028" lon="13.6095578"><ele>336.0</ele><time>2026-05-02T09:35:35.47Z</time></trkpt><trkpt lat="46.1182027" lon="13.6095548"><ele>336.0</ele><time>2026-05-02T09:35:37.47Z</time></trkpt><trkpt lat="46.1182815" lon="13.6095405"><ele>336.0</ele><time>2026-05-02T09:35:38.47Z</time></trkpt><trkpt lat="46.1183757" lon="13.6095405"><ele>338.8</ele><time>2026-05-02T09:35:39.472Z</time></trkpt><trkpt lat="46.1184738" lon="13.6095293"><ele>341.6</ele><time>2026-05-02T09:35:40.472Z</time></trkpt><trkpt lat="46.1185663" lon="13.6095007"><ele>344.4</ele><time>2026-05-02T09:35:41.471Z</time></trkpt><trkpt lat="46.1186622" lon="13.6094463"><ele>347.2</ele><time>2026-05-02T09:35:42.474Z</time></trkpt><trkpt lat="46.1187582" lon="13.609377"><ele>350.0</ele><time>2026-05-02T09:35:43.473Z</time></trkpt><trkpt lat="46.118852" lon="13.6093133"><ele>355.0</ele><time>2026-05-02T09:35:44.472Z</time></trkpt><trkpt lat="46.1189407" lon="13.6092678"><ele>360.0</ele><time>2026-05-02T09:35:45.471Z</time></trkpt><trkpt lat="46.1190122" lon="13.6092365"><ele>365.0</ele><time>2026-05-02T09:35:46.47Z</time></trkpt><trkpt lat="46.1190757" lon="13.609212"><ele>370.0</ele><time>2026-05-02T09:35:47.47Z</time></trkpt><trkpt lat="46.1191642" lon="13.609197"><ele>375.0</ele><time>2026-05-02T09:35:49.471Z</time></trkpt><trkpt lat="46.119229" lon="13.6093763"><ele>371.0</ele><time>2026-05-02T09:35:55.47Z</time></trkpt><trkpt lat="46.1192422" lon="13.6095657"><ele>367.0</ele><time>2026-05-02T09:35:57.472Z</time></trkpt><trkpt lat="46.1192538" lon="13.6096735"><ele>363.0</ele><time>2026-05-02T09:35:58.471Z</time></trkpt><trkpt lat="46.119274" lon="13.6098018"><ele>359.0</ele><time>2026-05-02T09:35:59.47Z</time></trkpt><trkpt lat="46.1192942" lon="13.6099468"><ele>355.0</ele><time>2026-05-02T09:36:00.469Z</time></trkpt><trkpt lat="46.1193187" lon="13.6100968"><ele>355.0</ele><time>2026-05-02T09:36:01.469Z</time></trkpt><trkpt lat="46.1193412" lon="13.6102502"><ele>355.0</ele><time>2026-05-02T09:36:02.469Z</time></trkpt><trkpt lat="46.1193647" lon="13.610402"><ele>355.0</ele><time>2026-05-02T09:36:03.47Z</time></trkpt><trkpt lat="46.1193808" lon="13.6105237"><ele>355.0</ele><time>2026-05-02T09:36:04.47Z</time></trkpt><trkpt lat="46.1194068" lon="13.6106088"><ele>355.0</ele><time>2026-05-02T09:36:05.47Z</time></trkpt><trkpt lat="46.1194517" lon="13.6106772"><ele>355.0</ele><time>2026-05-02T09:36:06.471Z</time></trkpt><trkpt lat="46.1195142" lon="13.6107393"><ele>352.2</ele><time>2026-05-02T09:36:07.471Z</time></trkpt><trkpt lat="46.1195872" lon="13.6108037"><ele>349.4</ele><time>2026-05-02T09:36:08.471Z</time></trkpt><trkpt lat="46.1196602" lon="13.6108815"><ele>346.6</ele><time>2026-05-02T09:36:09.473Z</time></trkpt><trkpt lat="46.1197283" lon="13.610966"><ele>343.8</ele><time>2026-05-02T09:36:10.471Z</time></trkpt><trkpt lat="46.1198343" lon="13.6111768"><ele>341.0</ele><time>2026-05-02T09:36:12.472Z</time></trkpt><trkpt lat="46.1198708" lon="13.6112917"><ele>345.1666666666667</ele><time>2026-05-02T09:36:13.472Z</time></trkpt><trkpt lat="46.1199185" lon="13.6113933"><ele>349.33333333333337</ele><time>2026-05-02T09:36:14.471Z</time></trkpt><trkpt lat="46.11997" lon="13.6114793"><ele>353.5</ele><time>2026-05-02T09:36:15.474Z</time></trkpt><trkpt lat="46.1200312" lon="13.6115557"><ele>357.6666666666667</ele><time>2026-05-02T09:36:16.471Z</time></trkpt><trkpt lat="46.1201318" lon="13.6116632"><ele>361.8333333333333</ele><time>2026-05-02T09:36:18.472Z</time></trkpt><trkpt lat="46.1201938" lon="13.611708"><ele>366.0</ele><time>2026-05-02T09:36:19.471Z</time></trkpt><trkpt lat="46.120255" lon="13.6117388"><ele>366.0</ele><time>2026-05-02T09:36:20.471Z</time></trkpt><trkpt lat="46.1203242" lon="13.6117468"><ele>366.0</ele><time>2026-05-02T09:36:21.471Z</time></trkpt><trkpt lat="46.1204238" lon="13.6117467"><ele>366.0</ele><time>2026-05-02T09:36:22.471Z</time></trkpt><trkpt lat="46.1205458" lon="13.6117378"><ele>366.0</ele><time>2026-05-02T09:36:23.472Z</time></trkpt><trkpt lat="46.1206608" lon="13.6117278"><ele>366.0</ele><time>2026-05-02T09:36:24.47Z</time></trkpt><trkpt lat="46.1207623" lon="13.6116985"><ele>371.1666666666667</ele><time>2026-05-02T09:36:25.47Z</time></trkpt><trkpt lat="46.1208565" lon="13.611653"><ele>376.33333333333337</ele><time>2026-05-02T09:36:26.47Z</time></trkpt><trkpt lat="46.1209542" lon="13.611599"><ele>381.5</ele><time>2026-05-02T09:36:27.47Z</time></trkpt><trkpt lat="46.1210432" lon="13.61154"><ele>386.6666666666667</ele><time>2026-05-02T09:36:28.472Z</time></trkpt><trkpt lat="46.1211112" lon="13.6115013"><ele>391.83333333333337</ele><time>2026-05-02T09:36:29.471Z</time></trkpt><trkpt lat="46.1211735" lon="13.6114582"><ele>397.0</ele><time>2026-05-02T09:36:30.471Z</time></trkpt><trkpt lat="46.1212388" lon="13.611418"><ele>397.0</ele><time>2026-05-02T09:36:32.471Z</time></trkpt><trkpt lat="46.121328" lon="13.6116443"><ele>397.0</ele><time>2026-05-02T09:36:37.472Z</time></trkpt><trkpt lat="46.1213548" lon="13.6118253"><ele>397.0</ele><time>2026-05-02T09:36:39.471Z</time></trkpt><trkpt lat="46.1213605" lon="13.6119347"><ele>397.0</ele><time>2026-05-02T09:36:40.471Z</time></trkpt><trkpt lat="46.1213663" lon="13.6120423"><ele>392.33333333333337</ele><time>2026-05-02T09:36:41.471Z</time></trkpt><trkpt lat="46.1213737" lon="13.6121617"><ele>387.6666666666667</ele><time>2026-05-02T09:36:42.469Z</time></trkpt><trkpt lat="46.1213898" lon="13.612291"><ele>383.0</ele><time>2026-05-02T09:36:43.47Z</time></trkpt><trkpt lat="46.1213993" lon="13.6124177"><ele>378.33333333333337</ele><time>2026-05-02T09:36:44.471Z</time></trkpt><trkpt lat="46.121407" lon="13.6125197"><ele>373.6666666666667</ele><time>2026-05-02T09:36:45.47Z</time></trkpt><trkpt lat="46.1214618" lon="13.6126595"><ele>369.0</ele><time>2026-05-02T09:36:47.471Z</time></trkpt><trkpt lat="46.1215405" lon="13.6127047"><ele>374.2</ele><time>2026-05-02T09:36:50.469Z</time></trkpt><trkpt lat="46.1215867" lon="13.6126268"><ele>379.4</ele><time>2026-05-02T09:36:55.472Z</time></trkpt><trkpt lat="46.1215873" lon="13.6123858"><ele>384.6</ele><time>2026-05-02T09:36:58.471Z</time></trkpt><trkpt lat="46.1215943" lon="13.6122597"><ele>389.8</ele><time>2026-05-02T09:36:59.471Z</time></trkpt><trkpt lat="46.1215963" lon="13.6121248"><ele>395.0</ele><time>2026-05-02T09:37:00.471Z</time></trkpt><trkpt lat="46.1215953" lon="13.6120102"><ele>395.3333333333333</ele><time>2026-05-02T09:37:01.472Z</time></trkpt><trkpt lat="46.1215975" lon="13.6118958"><ele>395.66666666666663</ele><time>2026-05-02T09:37:02.471Z</time></trkpt><trkpt lat="46.1215898" lon="13.6117845"><ele>396.0</ele><time>2026-05-02T09:37:03.47Z</time></trkpt><trkpt lat="46.1215867" lon="13.6116602"><ele>396.33333333333337</ele><time>2026-05-02T09:37:04.471Z</time></trkpt><trkpt lat="46.1215805" lon="13.6115388"><ele>396.6666666666667</ele><time>2026-05-02T09:37:05.47Z</time></trkpt><trkpt lat="46.1215735" lon="13.6114163"><ele>397.0</ele><time>2026-05-02T09:37:06.469Z</time></trkpt><trkpt lat="46.1215582" lon="13.6113018"><ele>397.00000000000006</ele><time>2026-05-02T09:37:07.469Z</time></trkpt><trkpt lat="46.1215458" lon="13.611188"><ele>397.0</ele><time>2026-05-02T09:37:08.469Z</time></trkpt><trkpt lat="46.1215292" lon="13.6110863"><ele>397.0</ele><time>2026-05-02T09:37:09.471Z</time></trkpt><trkpt lat="46.1215147" lon="13.6109793"><ele>397.0</ele><time>2026-05-02T09:37:10.47Z</time></trkpt><trkpt lat="46.1214817" lon="13.6108808"><ele>397.00000000000006</ele><time>2026-05-02T09:37:12.47Z</time></trkpt><trkpt lat="46.1214067" lon="13.6109028"><ele>397.0</ele><time>2026-05-02T09:37:15.468Z</time></trkpt><trkpt lat="46.121346" lon="13.610956"><ele>397.0</ele><time>2026-05-02T09:37:16.468Z</time></trkpt><trkpt lat="46.1211498" lon="13.6110507"><ele>397.0</ele><time>2026-05-02T09:37:19.47Z</time></trkpt><trkpt lat="46.1210672" lon="13.6111017"><ele>397.0</ele><time>2026-05-02T09:37:20.471Z</time></trkpt><trkpt lat="46.1209885" lon="13.6111712"><ele>397.0</ele><time>2026-05-02T09:37:21.471Z</time></trkpt><trkpt lat="46.1209117" lon="13.6112255"><ele>397.0</ele><time>2026-05-02T09:37:22.473Z</time></trkpt><trkpt lat="46.1208477" lon="13.6112527"><ele>397.0</ele><time>2026-05-02T09:37:23.471Z</time></trkpt><trkpt lat="46.1207463" lon="13.6112548"><ele>397.0</ele><time>2026-05-02T09:37:25.471Z</time></trkpt><trkpt lat="46.120656" lon="13.6111373"><ele>397.0</ele><time>2026-05-02T09:37:27.472Z</time></trkpt><trkpt lat="46.120594" lon="13.6109878"><ele>397.0</ele><time>2026-05-02T09:37:29.471Z</time></trkpt><trkpt lat="46.1205688" lon="13.6109007"><ele>396.50000000000006</ele><time>2026-05-02T09:37:30.473Z</time></trkpt><trkpt lat="46.1205435" lon="13.6108072"><ele>396.0</ele><time>2026-05-02T09:37:31.471Z</time></trkpt><trkpt lat="46.1205223" lon="13.610706"><ele>395.5</ele><time>2026-05-02T09:37:32.471Z</time></trkpt><trkpt lat="46.1204955" lon="13.6106118"><ele>395.0</ele><time>2026-05-02T09:37:33.472Z</time></trkpt><trkpt lat="46.1204677" lon="13.610515"><ele>394.50000000000006</ele><time>2026-05-02T09:37:34.471Z</time></trkpt><trkpt lat="46.1204488" lon="13.6103623"><ele>394.0</ele><time>2026-05-02T09:37:36.472Z</time></trkpt><trkpt lat="46.120454" lon="13.6102013"><ele>394.00000000000006</ele><time>2026-05-02T09:37:38.469Z</time></trkpt><trkpt lat="46.1204635" lon="13.6099942"><ele>394.0</ele><time>2026-05-02T09:37:40.468Z</time></trkpt><trkpt lat="46.1204618" lon="13.6098905"><ele>394.0</ele><time>2026-05-02T09:37:41.47Z</time></trkpt><trkpt lat="46.1204558" lon="13.6097842"><ele>394.0</ele><time>2026-05-02T09:37:42.47Z</time></trkpt><trkpt lat="46.1204622" lon="13.6096873"><ele>394.00000000000006</ele><time>2026-05-02T09:37:43.47Z</time></trkpt><trkpt lat="46.1204918" lon="13.6095867"><ele>394.0</ele><time>2026-05-02T09:37:44.471Z</time></trkpt><trkpt lat="46.120518" lon="13.6094662"><ele>395.6666666666667</ele><time>2026-05-02T09:37:45.47Z</time></trkpt><trkpt lat="46.1205407" lon="13.6093348"><ele>397.33333333333337</ele><time>2026-05-02T09:37:46.469Z</time></trkpt><trkpt lat="46.1205548" lon="13.6092128"><ele>399.0</ele><time>2026-05-02T09:37:47.468Z</time></trkpt><trkpt lat="46.1205503" lon="13.609078"><ele>400.66666666666663</ele><time>2026-05-02T09:37:48.469Z</time></trkpt><trkpt lat="46.1205408" lon="13.6089575"><ele>402.3333333333333</ele><time>2026-05-02T09:37:49.469Z</time></trkpt><trkpt lat="46.1205415" lon="13.6088418"><ele>404.0</ele><time>2026-05-02T09:37:50.469Z</time></trkpt><trkpt lat="46.1205587" lon="13.6087353"><ele>406.0</ele><time>2026-05-02T09:37:51.471Z</time></trkpt><trkpt lat="46.120592" lon="13.6086312"><ele>408.0</ele><time>2026-05-02T09:37:52.472Z</time></trkpt><trkpt lat="46.1206362" lon="13.6085138"><ele>410.0</ele><time>2026-05-02T09:37:53.471Z</time></trkpt><trkpt lat="46.1206817" lon="13.6083785"><ele>412.0</ele><time>2026-05-02T09:37:54.47Z</time></trkpt><trkpt lat="46.1207282" lon="13.608259"><ele>414.0</ele><time>2026-05-02T09:37:55.475Z</time></trkpt><trkpt lat="46.120765" lon="13.6081522"><ele>421.0</ele><time>2026-05-02T09:37:56.47Z</time></trkpt><trkpt lat="46.1208017" lon="13.608061"><ele>428.0</ele><time>2026-05-02T09:37:57.468Z</time></trkpt><trkpt lat="46.1208485" lon="13.6079685"><ele>435.0</ele><time>2026-05-02T09:37:58.468Z</time></trkpt><trkpt lat="46.1209048" lon="13.6078755"><ele>442.0</ele><time>2026-05-02T09:37:59.468Z</time></trkpt><trkpt lat="46.1210395" lon="13.6076855"><ele>449.0</ele><time>2026-05-02T09:38:01.471Z</time></trkpt><trkpt lat="46.1211018" lon="13.6075882"><ele>448.99999999999994</ele><time>2026-05-02T09:38:02.47Z</time></trkpt><trkpt lat="46.1211528" lon="13.6074983"><ele>449.0</ele><time>2026-05-02T09:38:03.473Z</time></trkpt><trkpt lat="46.1211958" lon="13.607405"><ele>449.0</ele><time>2026-05-02T09:38:04.469Z</time></trkpt><trkpt lat="46.1212228" lon="13.6072847"><ele>449.0</ele><time>2026-05-02T09:38:06.471Z</time></trkpt><trkpt lat="46.1211373" lon="13.6072225"><ele>448.99999999999994</ele><time>2026-05-02T09:38:09.47Z</time></trkpt><trkpt lat="46.121054" lon="13.607197"><ele>449.0</ele><time>2026-05-02T09:38:11.468Z</time></trkpt><trkpt lat="46.12098" lon="13.6071663"><ele>448.99999999999994</ele><time>2026-05-02T09:38:12.47Z</time></trkpt><trkpt lat="46.1209018" lon="13.6071532"><ele>449.0</ele><time>2026-05-02T09:38:13.47Z</time></trkpt><trkpt lat="46.1208222" lon="13.607139"><ele>449.0</ele><time>2026-05-02T09:38:14.469Z</time></trkpt><trkpt lat="46.1207307" lon="13.6071052"><ele>449.0</ele><time>2026-05-02T09:38:15.469Z</time></trkpt><trkpt lat="46.1206528" lon="13.6070747"><ele>448.99999999999994</ele><time>2026-05-02T09:38:16.471Z</time></trkpt><trkpt lat="46.1205513" lon="13.6070067"><ele>449.0</ele><time>2026-05-02T09:38:18.47Z</time></trkpt><trkpt lat="46.120489" lon="13.6068767"><ele>456.5</ele><time>2026-05-02T09:38:20.47Z</time></trkpt><trkpt lat="46.1204152" lon="13.6066743"><ele>464.0</ele><time>2026-05-02T09:38:23.47Z</time></trkpt><trkpt lat="46.120326" lon="13.6066452"><ele>471.5</ele><time>2026-05-02T09:38:25.469Z</time></trkpt><trkpt lat="46.1202097" lon="13.606687"><ele>479.0</ele><time>2026-05-02T09:38:27.47Z</time></trkpt><trkpt lat="46.1201347" lon="13.6067402"><ele>479.0</ele><time>2026-05-02T09:38:28.468Z</time></trkpt><trkpt lat="46.1200388" lon="13.6068035"><ele>479.0</ele><time>2026-05-02T09:38:29.468Z</time></trkpt><trkpt lat="46.1199567" lon="13.6068417"><ele>479.0</ele><time>2026-05-02T09:38:30.466Z</time></trkpt><trkpt lat="46.1198722" lon="13.606875"><ele>479.0</ele><time>2026-05-02T09:38:31.469Z</time></trkpt><trkpt lat="46.1197865" lon="13.6069123"><ele>479.0</ele><time>2026-05-02T09:38:32.468Z</time></trkpt><trkpt lat="46.1197097" lon="13.6069535"><ele>476.79999999999995</ele><time>2026-05-02T09:38:33.469Z</time></trkpt><trkpt lat="46.119639" lon="13.6069725"><ele>474.59999999999997</ele><time>2026-05-02T09:38:34.469Z</time></trkpt><trkpt lat="46.1195367" lon="13.6070087"><ele>472.4</ele><time>2026-05-02T09:38:36.469Z</time></trkpt><trkpt lat="46.1194588" lon="13.6069568"><ele>470.2</ele><time>2026-05-02T09:38:39.47Z</time></trkpt><trkpt lat="46.1194428" lon="13.6068545"><ele>468.0</ele><time>2026-05-02T09:38:41.47Z</time></trkpt><trkpt lat="46.1194807" lon="13.6065088"><ele>468.0</ele><time>2026-05-02T09:38:45.471Z</time></trkpt><trkpt lat="46.1194937" lon="13.606398"><ele>468.0</ele><time>2026-05-02T09:38:46.471Z</time></trkpt><trkpt lat="46.1195057" lon="13.6062912"><ele>468.0</ele><time>2026-05-02T09:38:47.471Z</time></trkpt><trkpt lat="46.119527" lon="13.606183"><ele>468.0</ele><time>2026-05-02T09:38:48.472Z</time></trkpt><trkpt lat="46.1195492" lon="13.6060718"><ele>468.0</ele><time>2026-05-02T09:38:49.471Z</time></trkpt><trkpt lat="46.1195817" lon="13.6059702"><ele>468.0</ele><time>2026-05-02T09:38:50.47Z</time></trkpt><trkpt lat="46.1196198" lon="13.6058843"><ele>468.5</ele><time>2026-05-02T09:38:51.468Z</time></trkpt><trkpt lat="46.1196577" lon="13.6058072"><ele>469.0</ele><time>2026-05-02T09:38:52.468Z</time></trkpt><trkpt lat="46.119755" lon="13.6056875"><ele>469.5</ele><time>2026-05-02T09:38:54.468Z</time></trkpt><trkpt lat="46.119814" lon="13.6056238"><ele>470.0</ele><time>2026-05-02T09:38:55.47Z</time></trkpt><trkpt lat="46.1198772" lon="13.6055575"><ele>470.5</ele><time>2026-05-02T09:38:56.469Z</time></trkpt><trkpt lat="46.1199475" lon="13.6054842"><ele>471.0</ele><time>2026-05-02T09:38:57.471Z</time></trkpt><trkpt lat="46.1200255" lon="13.6054055"><ele>475.1666666666667</ele><time>2026-05-02T09:38:58.47Z</time></trkpt><trkpt lat="46.1200832" lon="13.6053303"><ele>479.33333333333337</ele><time>2026-05-02T09:38:59.47Z</time></trkpt><trkpt lat="46.1201345" lon="13.6052672"><ele>483.5</ele><time>2026-05-02T09:39:00.469Z</time></trkpt><trkpt lat="46.1201925" lon="13.6052263"><ele>487.6666666666667</ele><time>2026-05-02T09:39:01.469Z</time></trkpt><trkpt lat="46.1202538" lon="13.6051902"><ele>491.83333333333337</ele><time>2026-05-02T09:39:02.469Z</time></trkpt><trkpt lat="46.1204045" lon="13.6051382"><ele>496.0</ele><time>2026-05-02T09:39:04.471Z</time></trkpt><trkpt lat="46.1204683" lon="13.6051047"><ele>496.50000000000006</ele><time>2026-05-02T09:39:05.469Z</time></trkpt><trkpt lat="46.1205343" lon="13.6050548"><ele>497.0</ele><time>2026-05-02T09:39:06.469Z</time></trkpt><trkpt lat="46.1205893" lon="13.6050098"><ele>497.5</ele><time>2026-05-02T09:39:07.47Z</time></trkpt><trkpt lat="46.1206432" lon="13.6049585"><ele>498.0</ele><time>2026-05-02T09:39:08.47Z</time></trkpt><trkpt lat="46.1207353" lon="13.6049208"><ele>498.50000000000006</ele><time>2026-05-02T09:39:10.47Z</time></trkpt><trkpt lat="46.1208115" lon="13.604888"><ele>499.0</ele><time>2026-05-02T09:39:12.472Z</time></trkpt><trkpt lat="46.120802" lon="13.6047707"><ele>499.0</ele><time>2026-05-02T09:39:15.47Z</time></trkpt><trkpt lat="46.120714" lon="13.6047102"><ele>499.0</ele><time>2026-05-02T09:39:18.47Z</time></trkpt><trkpt lat="46.1206108" lon="13.6046685"><ele>499.0</ele><time>2026-05-02T09:39:20.469Z</time></trkpt><trkpt lat="46.120557" lon="13.6045093"><ele>499.0</ele><time>2026-05-02T09:39:22.471Z</time></trkpt><trkpt lat="46.1205517" lon="13.6043867"><ele>499.0</ele><time>2026-05-02T09:39:23.474Z</time></trkpt><trkpt lat="46.1205303" lon="13.6041367"><ele>498.83333333333337</ele><time>2026-05-02T09:39:25.47Z</time></trkpt><trkpt lat="46.1204967" lon="13.6040258"><ele>498.6666666666667</ele><time>2026-05-02T09:39:26.471Z</time></trkpt><trkpt lat="46.1204633" lon="13.6039242"><ele>498.5</ele><time>2026-05-02T09:39:27.471Z</time></trkpt><trkpt lat="46.120442" lon="13.6038153"><ele>498.33333333333337</ele><time>2026-05-02T09:39:28.471Z</time></trkpt><trkpt lat="46.1204358" lon="13.603704"><ele>498.1666666666667</ele><time>2026-05-02T09:39:29.471Z</time></trkpt><trkpt lat="46.1204482" lon="13.603561"><ele>498.0</ele><time>2026-05-02T09:39:30.471Z</time></trkpt><trkpt lat="46.1204615" lon="13.6034243"><ele>499.6666666666667</ele><time>2026-05-02T09:39:31.474Z</time></trkpt><trkpt lat="46.1204807" lon="13.6032955"><ele>501.33333333333337</ele><time>2026-05-02T09:39:32.473Z</time></trkpt><trkpt lat="46.120505" lon="13.603186"><ele>503.0</ele><time>2026-05-02T09:39:33.472Z</time></trkpt><trkpt lat="46.1205352" lon="13.603075"><ele>504.6666666666667</ele><time>2026-05-02T09:39:34.472Z</time></trkpt><trkpt lat="46.1205715" lon="13.6029498"><ele>506.33333333333337</ele><time>2026-05-02T09:39:35.472Z</time></trkpt><trkpt lat="46.1206117" lon="13.6028307"><ele>508.0</ele><time>2026-05-02T09:39:36.471Z</time></trkpt><trkpt lat="46.1206403" lon="13.6027403"><ele>508.2</ele><time>2026-05-02T09:39:37.475Z</time></trkpt><trkpt lat="46.1206682" lon="13.6025942"><ele>508.4</ele><time>2026-05-02T09:39:39.471Z</time></trkpt><trkpt lat="46.1206633" lon="13.6024247"><ele>508.59999999999997</ele><time>2026-05-02T09:39:41.468Z</time></trkpt><trkpt lat="46.1206403" lon="13.6023122"><ele>508.79999999999995</ele><time>2026-05-02T09:39:42.47Z</time></trkpt><trkpt lat="46.1206275" lon="13.6022018"><ele>509.0</ele><time>2026-05-02T09:39:43.469Z</time></trkpt><trkpt lat="46.1206263" lon="13.6020662"><ele>508.75</ele><time>2026-05-02T09:39:44.472Z</time></trkpt><trkpt lat="46.1206482" lon="13.601804"><ele>508.5</ele><time>2026-05-02T09:39:46.472Z</time></trkpt><trkpt lat="46.1206678" lon="13.6016522"><ele>508.25</ele><time>2026-05-02T09:39:47.471Z</time></trkpt><trkpt lat="46.1206798" lon="13.601514"><ele>508.0</ele><time>2026-05-02T09:39:48.471Z</time></trkpt><trkpt lat="46.1206932" lon="13.6013833"><ele>508.0</ele><time>2026-05-02T09:39:49.474Z</time></trkpt><trkpt lat="46.120706" lon="13.6012455"><ele>507.99999999999994</ele><time>2026-05-02T09:39:50.473Z</time></trkpt><trkpt lat="46.1207147" lon="13.6011127"><ele>507.99999999999994</ele><time>2026-05-02T09:39:51.473Z</time></trkpt><trkpt lat="46.1207183" lon="13.6009762"><ele>508.0</ele><time>2026-05-02T09:39:52.473Z</time></trkpt><trkpt lat="46.1207228" lon="13.6008193"><ele>508.0</ele><time>2026-05-02T09:39:53.471Z</time></trkpt><trkpt lat="46.1207302" lon="13.6006548"><ele>517.6666666666667</ele><time>2026-05-02T09:39:54.471Z</time></trkpt><trkpt lat="46.1207345" lon="13.6005108"><ele>527.3333333333334</ele><time>2026-05-02T09:39:55.471Z</time></trkpt><trkpt lat="46.1207428" lon="13.6003848"><ele>537.0</ele><time>2026-05-02T09:39:56.472Z</time></trkpt><trkpt lat="46.1207483" lon="13.6002768"><ele>546.6666666666666</ele><time>2026-05-02T09:39:57.471Z</time></trkpt><trkpt lat="46.1207688" lon="13.6001825"><ele>556.3333333333333</ele><time>2026-05-02T09:39:58.471Z</time></trkpt><trkpt lat="46.1208087" lon="13.6000902"><ele>566.0</ele><time>2026-05-02T09:39:59.47Z</time></trkpt><trkpt lat="46.1208573" lon="13.6000222"><ele>566.0</ele><time>2026-05-02T09:40:00.47Z</time></trkpt><trkpt lat="46.1209167" lon="13.5999883"><ele>566.0</ele><time>2026-05-02T09:40:01.474Z</time></trkpt><trkpt lat="46.121027" lon="13.5999758"><ele>566.0</ele><time>2026-05-02T09:40:03.471Z</time></trkpt><trkpt lat="46.1211423" lon="13.5999878"><ele>566.0</ele><time>2026-05-02T09:40:05.469Z</time></trkpt><trkpt lat="46.121339" lon="13.6000673"><ele>566.0</ele><time>2026-05-02T09:40:07.471Z</time></trkpt><trkpt lat="46.1214507" lon="13.6001193"><ele>566.0</ele><time>2026-05-02T09:40:08.47Z</time></trkpt><trkpt lat="46.1215355" lon="13.6001993"><ele>566.0</ele><time>2026-05-02T09:40:09.471Z</time></trkpt><trkpt lat="46.12159" lon="13.6003147"><ele>566.0</ele><time>2026-05-02T09:40:10.472Z</time></trkpt><trkpt lat="46.121609" lon="13.6004535"><ele>566.0</ele><time>2026-05-02T09:40:11.47Z</time></trkpt><trkpt lat="46.1216032" lon="13.6006193"><ele>566.0</ele><time>2026-05-02T09:40:12.47Z</time></trkpt><trkpt lat="46.1215787" lon="13.600794"><ele>566.0</ele><time>2026-05-02T09:40:13.469Z</time></trkpt><trkpt lat="46.1215538" lon="13.60098"><ele>566.0</ele><time>2026-05-02T09:40:14.47Z</time></trkpt><trkpt lat="46.1215375" lon="13.6011657"><ele>566.0</ele><time>2026-05-02T09:40:15.469Z</time></trkpt><trkpt lat="46.121546" lon="13.6013387"><ele>571.25</ele><time>2026-05-02T09:40:16.469Z</time></trkpt><trkpt lat="46.1215977" lon="13.6015063"><ele>576.5</ele><time>2026-05-02T09:40:17.471Z</time></trkpt><trkpt lat="46.1216725" lon="13.6016637"><ele>581.75</ele><time>2026-05-02T09:40:18.47Z</time></trkpt><trkpt lat="46.1217442" lon="13.6017978"><ele>587.0</ele><time>2026-05-02T09:40:19.47Z</time></trkpt><trkpt lat="46.1218357" lon="13.6019255"><ele>588.5</ele><time>2026-05-02T09:40:20.469Z</time></trkpt><trkpt lat="46.121942" lon="13.6020302"><ele>590.0</ele><time>2026-05-02T09:40:21.469Z</time></trkpt><trkpt lat="46.1220513" lon="13.6021022"><ele>591.5</ele><time>2026-05-02T09:40:22.468Z</time></trkpt><trkpt lat="46.1221713" lon="13.6021268"><ele>593.0</ele><time>2026-05-02T09:40:23.469Z</time></trkpt><trkpt lat="46.1222827" lon="13.602108"><ele>593.0</ele><time>2026-05-02T09:40:24.471Z</time></trkpt><trkpt lat="46.1223955" lon="13.6020803"><ele>593.0</ele><time>2026-05-02T09:40:25.47Z</time></trkpt><trkpt lat="46.1224988" lon="13.6020727"><ele>593.0</ele><time>2026-05-02T09:40:26.469Z</time></trkpt><trkpt lat="46.1227062" lon="13.6022092"><ele>593.0</ele><time>2026-05-02T09:40:28.471Z</time></trkpt><trkpt lat="46.1228163" lon="13.6023192"><ele>594.0</ele><time>2026-05-02T09:40:29.469Z</time></trkpt><trkpt lat="46.1229207" lon="13.6024408"><ele>595.0</ele><time>2026-05-02T09:40:30.47Z</time></trkpt><trkpt lat="46.1230077" lon="13.6025597"><ele>596.0</ele><time>2026-05-02T09:40:31.468Z</time></trkpt><trkpt lat="46.1230878" lon="13.6026622"><ele>597.0</ele><time>2026-05-02T09:40:32.468Z</time></trkpt><trkpt lat="46.123171" lon="13.602722"><ele>595.2</ele><time>2026-05-02T09:40:33.47Z</time></trkpt><trkpt lat="46.1232648" lon="13.6027483"><ele>593.4000000000001</ele><time>2026-05-02T09:40:34.469Z</time></trkpt><trkpt lat="46.1233537" lon="13.6027523"><ele>591.5999999999999</ele><time>2026-05-02T09:40:35.47Z</time></trkpt><trkpt lat="46.1234442" lon="13.6027355"><ele>589.8</ele><time>2026-05-02T09:40:36.47Z</time></trkpt><trkpt lat="46.1235398" lon="13.6026972"><ele>588.0</ele><time>2026-05-02T09:40:37.47Z</time></trkpt><trkpt lat="46.1236472" lon="13.6026438"><ele>588.0</ele><time>2026-05-02T09:40:38.47Z</time></trkpt><trkpt lat="46.1237602" lon="13.6026075"><ele>588.0</ele><time>2026-05-02T09:40:39.471Z</time></trkpt><trkpt lat="46.1238723" lon="13.6026018"><ele>588.0</ele><time>2026-05-02T09:40:40.471Z</time></trkpt><trkpt lat="46.1239865" lon="13.6026175"><ele>588.0</ele><time>2026-05-02T09:40:41.471Z</time></trkpt><trkpt lat="46.1240938" lon="13.6026132"><ele>588.6</ele><time>2026-05-02T09:40:42.471Z</time></trkpt><trkpt lat="46.1241922" lon="13.6025648"><ele>589.1999999999999</ele><time>2026-05-02T09:40:43.471Z</time></trkpt><trkpt lat="46.1242738" lon="13.602474"><ele>589.8</ele><time>2026-05-02T09:40:44.471Z</time></trkpt><trkpt lat="46.1243378" lon="13.6023405"><ele>590.4</ele><time>2026-05-02T09:40:45.472Z</time></trkpt><trkpt lat="46.124389" lon="13.6021798"><ele>591.0</ele><time>2026-05-02T09:40:46.475Z</time></trkpt><trkpt lat="46.1244365" lon="13.6020223"><ele>586.75</ele><time>2026-05-02T09:40:47.473Z</time></trkpt><trkpt lat="46.1245548" lon="13.6018063"><ele>582.5</ele><time>2026-05-02T09:40:49.475Z</time></trkpt><trkpt lat="46.124638" lon="13.6017677"><ele>578.25</ele><time>2026-05-02T09:40:50.473Z</time></trkpt><trkpt lat="46.1247163" lon="13.6017858"><ele>574.0</ele><time>2026-05-02T09:40:51.472Z</time></trkpt><trkpt lat="46.1247957" lon="13.6018543"><ele>574.0</ele><time>2026-05-02T09:40:52.472Z</time></trkpt><trkpt lat="46.1248772" lon="13.6019563"><ele>574.0</ele><time>2026-05-02T09:40:53.471Z</time></trkpt><trkpt lat="46.1249658" lon="13.6020677"><ele>574.0</ele><time>2026-05-02T09:40:54.47Z</time></trkpt><trkpt lat="46.1250413" lon="13.6021845"><ele>574.0</ele><time>2026-05-02T09:40:55.47Z</time></trkpt><trkpt lat="46.1250933" lon="13.6023132"><ele>574.0</ele><time>2026-05-02T09:40:56.469Z</time></trkpt><trkpt lat="46.1251148" lon="13.6024588"><ele>576.4</ele><time>2026-05-02T09:40:57.471Z</time></trkpt><trkpt lat="46.1250997" lon="13.602603"><ele>578.8</ele><time>2026-05-02T09:40:58.471Z</time></trkpt><trkpt lat="46.1250518" lon="13.6027395"><ele>581.2</ele><time>2026-05-02T09:40:59.474Z</time></trkpt><trkpt lat="46.124997" lon="13.6028843"><ele>583.6</ele><time>2026-05-02T09:41:00.471Z</time></trkpt><trkpt lat="46.1249615" lon="13.6030493"><ele>586.0</ele><time>2026-05-02T09:41:01.471Z</time></trkpt><trkpt lat="46.1249495" lon="13.6032357"><ele>586.0</ele><time>2026-05-02T09:41:02.472Z</time></trkpt><trkpt lat="46.124948" lon="13.6034047"><ele>586.0</ele><time>2026-05-02T09:41:03.47Z</time></trkpt><trkpt lat="46.1249737" lon="13.6035542"><ele>586.0</ele><time>2026-05-02T09:41:04.47Z</time></trkpt><trkpt lat="46.1250138" lon="13.6036777"><ele>586.0</ele><time>2026-05-02T09:41:05.47Z</time></trkpt><trkpt lat="46.1250795" lon="13.6037662"><ele>586.0</ele><time>2026-05-02T09:41:06.47Z</time></trkpt><trkpt lat="46.1251642" lon="13.6038385"><ele>588.0</ele><time>2026-05-02T09:41:07.47Z</time></trkpt><trkpt lat="46.125241" lon="13.603929"><ele>590.0</ele><time>2026-05-02T09:41:08.469Z</time></trkpt><trkpt lat="46.1253978" lon="13.6041183"><ele>592.0</ele><time>2026-05-02T09:41:10.472Z</time></trkpt><trkpt lat="46.125495" lon="13.6041628"><ele>594.0</ele><time>2026-05-02T09:41:11.468Z</time></trkpt><trkpt lat="46.125587" lon="13.604198"><ele>594.0</ele><time>2026-05-02T09:41:12.47Z</time></trkpt><trkpt lat="46.1256693" lon="13.6042343"><ele>594.0</ele><time>2026-05-02T09:41:13.472Z</time></trkpt><trkpt lat="46.1257373" lon="13.6042653"><ele>594.0</ele><time>2026-05-02T09:41:14.471Z</time></trkpt><trkpt lat="46.1258355" lon="13.6043532"><ele>594.0</ele><time>2026-05-02T09:41:16.472Z</time></trkpt><trkpt lat="46.1258893" lon="13.604404"><ele>594.0</ele><time>2026-05-02T09:41:18.47Z</time></trkpt><trkpt lat="46.125867" lon="13.604297"><ele>594.0</ele><time>2026-05-02T09:41:23.471Z</time></trkpt><trkpt lat="46.1257848" lon="13.6042442"><ele>594.0</ele><time>2026-05-02T09:41:25.471Z</time></trkpt><trkpt lat="46.1256815" lon="13.6042037"><ele>594.0</ele><time>2026-05-02T09:41:27.472Z</time></trkpt><trkpt lat="46.1256163" lon="13.604183"><ele>594.0</ele><time>2026-05-02T09:41:28.471Z</time></trkpt><trkpt lat="46.125546" lon="13.604146"><ele>594.0</ele><time>2026-05-02T09:41:29.471Z</time></trkpt><trkpt lat="46.1254115" lon="13.6039868"><ele>594.0</ele><time>2026-05-02T09:41:31.471Z</time></trkpt><trkpt lat="46.1253578" lon="13.6038767"><ele>594.0</ele><time>2026-05-02T09:41:32.471Z</time></trkpt><trkpt lat="46.1253142" lon="13.6037452"><ele>594.0</ele><time>2026-05-02T09:41:33.473Z</time></trkpt><trkpt lat="46.1252783" lon="13.603626"><ele>594.0</ele><time>2026-05-02T09:41:34.469Z</time></trkpt><trkpt lat="46.125266" lon="13.603496"><ele>594.0</ele><time>2026-05-02T09:41:35.471Z</time></trkpt><trkpt lat="46.1252915" lon="13.603354"><ele>594.0</ele><time>2026-05-02T09:41:36.471Z</time></trkpt><trkpt lat="46.1253407" lon="13.6032308"><ele>592.6</ele><time>2026-05-02T09:41:37.471Z</time></trkpt><trkpt lat="46.1254103" lon="13.6031212"><ele>591.2</ele><time>2026-05-02T09:41:38.471Z</time></trkpt><trkpt lat="46.1254768" lon="13.6030133"><ele>589.8000000000001</ele><time>2026-05-02T09:41:39.471Z</time></trkpt><trkpt lat="46.1255212" lon="13.60289"><ele>588.4</ele><time>2026-05-02T09:41:40.47Z</time></trkpt><trkpt lat="46.1255433" lon="13.6027505"><ele>587.0</ele><time>2026-05-02T09:41:41.471Z</time></trkpt><trkpt lat="46.1255592" lon="13.602601"><ele>587.0</ele><time>2026-05-02T09:41:42.471Z</time></trkpt><trkpt lat="46.1255847" lon="13.6024533"><ele>587.0</ele><time>2026-05-02T09:41:43.469Z</time></trkpt><trkpt lat="46.125633" lon="13.6023027"><ele>587.0</ele><time>2026-05-02T09:41:44.468Z</time></trkpt><trkpt lat="46.1256792" lon="13.6021575"><ele>587.0</ele><time>2026-05-02T09:41:45.469Z</time></trkpt><trkpt lat="46.1257052" lon="13.602021"><ele>587.0</ele><time>2026-05-02T09:41:46.468Z</time></trkpt><trkpt lat="46.1257022" lon="13.6018943"><ele>585.25</ele><time>2026-05-02T09:41:47.47Z</time></trkpt><trkpt lat="46.1256662" lon="13.6017883"><ele>583.5</ele><time>2026-05-02T09:41:48.471Z</time></trkpt><trkpt lat="46.1255992" lon="13.6016972"><ele>581.75</ele><time>2026-05-02T09:41:49.471Z</time></trkpt><trkpt lat="46.125516" lon="13.6015992"><ele>580.0</ele><time>2026-05-02T09:41:50.471Z</time></trkpt><trkpt lat="46.1254182" lon="13.6013408"><ele>580.0</ele><time>2026-05-02T09:41:52.47Z</time></trkpt><trkpt lat="46.1254132" lon="13.6011977"><ele>580.0</ele><time>2026-05-02T09:41:53.471Z</time></trkpt><trkpt lat="46.1254523" lon="13.6010408"><ele>580.0</ele><time>2026-05-02T09:41:54.472Z</time></trkpt><trkpt lat="46.1255145" lon="13.6008803"><ele>580.0</ele><time>2026-05-02T09:41:55.471Z</time></trkpt><trkpt lat="46.125592" lon="13.600716"><ele>575.5</ele><time>2026-05-02T09:41:56.471Z</time></trkpt><trkpt lat="46.1256715" lon="13.6005465"><ele>571.0</ele><time>2026-05-02T09:41:57.471Z</time></trkpt><trkpt lat="46.1257475" lon="13.6003755"><ele>566.5</ele><time>2026-05-02T09:41:58.472Z</time></trkpt><trkpt lat="46.1258103" lon="13.600213"><ele>562.0</ele><time>2026-05-02T09:41:59.471Z</time></trkpt><trkpt lat="46.1258408" lon="13.6000605"><ele>559.4</ele><time>2026-05-02T09:42:00.471Z</time></trkpt><trkpt lat="46.1258405" lon="13.5999303"><ele>556.8000000000001</ele><time>2026-05-02T09:42:01.471Z</time></trkpt><trkpt lat="46.1258007" lon="13.5998203"><ele>554.2</ele><time>2026-05-02T09:42:02.472Z</time></trkpt><trkpt lat="46.1257302" lon="13.599725"><ele>551.6</ele><time>2026-05-02T09:42:03.472Z</time></trkpt><trkpt lat="46.1256512" lon="13.599627"><ele>549.0</ele><time>2026-05-02T09:42:04.471Z</time></trkpt><trkpt lat="46.1256012" lon="13.5995093"><ele>546.25</ele><time>2026-05-02T09:42:05.473Z</time></trkpt><trkpt lat="46.1255867" lon="13.599374"><ele>543.5</ele><time>2026-05-02T09:42:06.472Z</time></trkpt><trkpt lat="46.1255982" lon="13.5992175"><ele>540.75</ele><time>2026-05-02T09:42:07.47Z</time></trkpt><trkpt lat="46.1256207" lon="13.5990425"><ele>538.0</ele><time>2026-05-02T09:42:08.469Z</time></trkpt><trkpt lat="46.1256388" lon="13.5988503"><ele>535.3333333333334</ele><time>2026-05-02T09:42:09.47Z</time></trkpt><trkpt lat="46.1256543" lon="13.598643"><ele>532.6666666666666</ele><time>2026-05-02T09:42:10.47Z</time></trkpt><trkpt lat="46.1256667" lon="13.5984323"><ele>530.0</ele><time>2026-05-02T09:42:11.472Z</time></trkpt><trkpt lat="46.1256867" lon="13.5980055"><ele>527.75</ele><time>2026-05-02T09:42:13.471Z</time></trkpt><trkpt lat="46.1256958" lon="13.5977877"><ele>525.5</ele><time>2026-05-02T09:42:14.472Z</time></trkpt><trkpt lat="46.125706" lon="13.5975733"><ele>523.25</ele><time>2026-05-02T09:42:15.472Z</time></trkpt><trkpt lat="46.1257217" lon="13.5973607"><ele>521.0</ele><time>2026-05-02T09:42:16.471Z</time></trkpt><trkpt lat="46.1257422" lon="13.5971512"><ele>521.0</ele><time>2026-05-02T09:42:17.472Z</time></trkpt><trkpt lat="46.1257693" lon="13.5969475"><ele>521.0</ele><time>2026-05-02T09:42:18.472Z</time></trkpt><trkpt lat="46.125801" lon="13.5967518"><ele>521.0</ele><time>2026-05-02T09:42:19.471Z</time></trkpt><trkpt lat="46.1258338" lon="13.59656"><ele>521.0</ele><time>2026-05-02T09:42:20.471Z</time></trkpt><trkpt lat="46.1258718" lon="13.5963678"><ele>521.0</ele><time>2026-05-02T09:42:21.472Z</time></trkpt><trkpt lat="46.1259163" lon="13.5961842"><ele>521.0</ele><time>2026-05-02T09:42:22.471Z</time></trkpt><trkpt lat="46.1259668" lon="13.5960095"><ele>521.0</ele><time>2026-05-02T09:42:23.472Z</time></trkpt><trkpt lat="46.1260208" lon="13.5958357"><ele>521.0</ele><time>2026-05-02T09:42:24.474Z</time></trkpt><trkpt lat="46.1260737" lon="13.5956633"><ele>521.1666666666666</ele><time>2026-05-02T09:42:25.472Z</time></trkpt><trkpt lat="46.1261197" lon="13.5955103"><ele>521.3333333333333</ele><time>2026-05-02T09:42:26.471Z</time></trkpt><trkpt lat="46.1261557" lon="13.5953827"><ele>521.5</ele><time>2026-05-02T09:42:27.472Z</time></trkpt><trkpt lat="46.1261827" lon="13.5952902"><ele>521.6666666666666</ele><time>2026-05-02T09:42:28.472Z</time></trkpt><trkpt lat="46.1262318" lon="13.5952323"><ele>521.8333333333334</ele><time>2026-05-02T09:42:30.473Z</time></trkpt><trkpt lat="46.1262393" lon="13.59535"><ele>522.0</ele><time>2026-05-02T09:42:34.47Z</time></trkpt><trkpt lat="46.1262083" lon="13.5955967"><ele>522.0</ele><time>2026-05-02T09:42:37.471Z</time></trkpt><trkpt lat="46.1262122" lon="13.595707"><ele>522.0</ele><time>2026-05-02T09:42:38.47Z</time></trkpt><trkpt lat="46.1262207" lon="13.5958128"><ele>522.0</ele><time>2026-05-02T09:42:39.472Z</time></trkpt><trkpt lat="46.1262295" lon="13.5959277"><ele>522.0</ele><time>2026-05-02T09:42:40.471Z</time></trkpt><trkpt lat="46.1262457" lon="13.596049"><ele>522.0</ele><time>2026-05-02T09:42:41.47Z</time></trkpt><trkpt lat="46.126258" lon="13.5961697"><ele>522.0</ele><time>2026-05-02T09:42:42.471Z</time></trkpt><trkpt lat="46.1262735" lon="13.596284"><ele>521.8333333333334</ele><time>2026-05-02T09:42:43.471Z</time></trkpt><trkpt lat="46.126283" lon="13.5964017"><ele>521.6666666666666</ele><time>2026-05-02T09:42:44.471Z</time></trkpt><trkpt lat="46.1262962" lon="13.5965217"><ele>521.5</ele><time>2026-05-02T09:42:45.472Z</time></trkpt><trkpt lat="46.1263038" lon="13.5966372"><ele>521.3333333333333</ele><time>2026-05-02T09:42:46.471Z</time></trkpt><trkpt lat="46.1263128" lon="13.5967457"><ele>521.1666666666666</ele><time>2026-05-02T09:42:47.471Z</time></trkpt><trkpt lat="46.1263213" lon="13.5968505"><ele>521.0</ele><time>2026-05-02T09:42:48.471Z</time></trkpt><trkpt lat="46.1263255" lon="13.5969725"><ele>521.0</ele><time>2026-05-02T09:42:49.471Z</time></trkpt><trkpt lat="46.1263178" lon="13.5971102"><ele>521.0</ele><time>2026-05-02T09:42:50.471Z</time></trkpt><trkpt lat="46.1263015" lon="13.597257"><ele>521.0</ele><time>2026-05-02T09:42:51.471Z</time></trkpt><trkpt lat="46.1262803" lon="13.597413"><ele>521.0</ele><time>2026-05-02T09:42:52.472Z</time></trkpt><trkpt lat="46.1262612" lon="13.5975528"><ele>521.0</ele><time>2026-05-02T09:42:53.474Z</time></trkpt><trkpt lat="46.1262465" lon="13.5976772"><ele>521.0</ele><time>2026-05-02T09:42:54.472Z</time></trkpt><trkpt lat="46.1262303" lon="13.5977907"><ele>521.0</ele><time>2026-05-02T09:42:55.471Z</time></trkpt><trkpt lat="46.126245" lon="13.5979978"><ele>521.0</ele><time>2026-05-02T09:42:57.47Z</time></trkpt><trkpt lat="46.1262642" lon="13.5980988"><ele>521.0</ele><time>2026-05-02T09:42:58.469Z</time></trkpt><trkpt lat="46.12629" lon="13.5982132"><ele>521.0</ele><time>2026-05-02T09:42:59.469Z</time></trkpt><trkpt lat="46.1263255" lon="13.5983218"><ele>521.8333333333333</ele><time>2026-05-02T09:43:00.47Z</time></trkpt><trkpt lat="46.1263558" lon="13.5984095"><ele>522.6666666666666</ele><time>2026-05-02T09:43:01.472Z</time></trkpt><trkpt lat="46.1264212" lon="13.5985128"><ele>523.5</ele><time>2026-05-02T09:43:03.47Z</time></trkpt><trkpt lat="46.1264758" lon="13.5985622"><ele>524.3333333333334</ele><time>2026-05-02T09:43:04.47Z</time></trkpt><trkpt lat="46.1265387" lon="13.5986035"><ele>525.1666666666667</ele><time>2026-05-02T09:43:05.474Z</time></trkpt><trkpt lat="46.126601" lon="13.5986357"><ele>526.0</ele><time>2026-05-02T09:43:06.471Z</time></trkpt><trkpt lat="46.1267255" lon="13.5986577"><ele>523.6666666666667</ele><time>2026-05-02T09:43:08.47Z</time></trkpt><trkpt lat="46.1267988" lon="13.5986528"><ele>521.3333333333334</ele><time>2026-05-02T09:43:09.471Z</time></trkpt><trkpt lat="46.1269137" lon="13.5986765"><ele>519.0</ele><time>2026-05-02T09:43:11.471Z</time></trkpt><trkpt lat="46.1270068" lon="13.5987815"><ele>516.6666666666666</ele><time>2026-05-02T09:43:13.471Z</time></trkpt><trkpt lat="46.1270333" lon="13.5988682"><ele>514.3333333333333</ele><time>2026-05-02T09:43:14.472Z</time></trkpt><trkpt lat="46.127044" lon="13.5989685"><ele>512.0</ele><time>2026-05-02T09:43:15.47Z</time></trkpt><trkpt lat="46.127032" lon="13.5990717"><ele>512.0</ele><time>2026-05-02T09:43:16.47Z</time></trkpt><trkpt lat="46.1270065" lon="13.5993607"><ele>512.0</ele><time>2026-05-02T09:43:18.47Z</time></trkpt><trkpt lat="46.1269923" lon="13.5994875"><ele>512.0</ele><time>2026-05-02T09:43:19.47Z</time></trkpt><trkpt lat="46.1269717" lon="13.5996197"><ele>512.0</ele><time>2026-05-02T09:43:20.468Z</time></trkpt><trkpt lat="46.1269667" lon="13.599735"><ele>513.2</ele><time>2026-05-02T09:43:21.468Z</time></trkpt><trkpt lat="46.1269617" lon="13.5998803"><ele>514.4000000000001</ele><time>2026-05-02T09:43:23.467Z</time></trkpt><trkpt lat="46.1270533" lon="13.5999155"><ele>515.5999999999999</ele><time>2026-05-02T09:43:26.469Z</time></trkpt><trkpt lat="46.1271717" lon="13.5998232"><ele>516.8</ele><time>2026-05-02T09:43:28.47Z</time></trkpt><trkpt lat="46.1272545" lon="13.5997657"><ele>518.0</ele><time>2026-05-02T09:43:29.47Z</time></trkpt><trkpt lat="46.1273398" lon="13.599734"><ele>513.8333333333333</ele><time>2026-05-02T09:43:30.47Z</time></trkpt><trkpt lat="46.1274227" lon="13.5996992"><ele>509.66666666666663</ele><time>2026-05-02T09:43:31.47Z</time></trkpt><trkpt lat="46.1275072" lon="13.5996697"><ele>505.5</ele><time>2026-05-02T09:43:32.47Z</time></trkpt><trkpt lat="46.1275978" lon="13.5996445"><ele>501.33333333333337</ele><time>2026-05-02T09:43:33.471Z</time></trkpt><trkpt lat="46.1276882" lon="13.5996202"><ele>497.1666666666667</ele><time>2026-05-02T09:43:34.471Z</time></trkpt><trkpt lat="46.1277578" lon="13.5995902"><ele>493.0</ele><time>2026-05-02T09:43:35.471Z</time></trkpt><trkpt lat="46.1278745" lon="13.5995948"><ele>493.0</ele><time>2026-05-02T09:43:37.47Z</time></trkpt><trkpt lat="46.1279783" lon="13.5998785"><ele>493.0</ele><time>2026-05-02T09:43:41.47Z</time></trkpt><trkpt lat="46.1279653" lon="13.5999878"><ele>493.0</ele><time>2026-05-02T09:43:42.471Z</time></trkpt><trkpt lat="46.1279478" lon="13.6001157"><ele>493.0</ele><time>2026-05-02T09:43:43.472Z</time></trkpt><trkpt lat="46.1279232" lon="13.6002403"><ele>495.4</ele><time>2026-05-02T09:43:44.47Z</time></trkpt><trkpt lat="46.127889" lon="13.6003648"><ele>497.79999999999995</ele><time>2026-05-02T09:43:45.47Z</time></trkpt><trkpt lat="46.1278628" lon="13.6004967"><ele>500.2</ele><time>2026-05-02T09:43:46.469Z</time></trkpt><trkpt lat="46.1278337" lon="13.6006217"><ele>502.6</ele><time>2026-05-02T09:43:47.469Z</time></trkpt><trkpt lat="46.1278012" lon="13.6007468"><ele>505.0</ele><time>2026-05-02T09:43:48.469Z</time></trkpt><trkpt lat="46.127782" lon="13.6008817"><ele>505.00000000000006</ele><time>2026-05-02T09:43:49.47Z</time></trkpt><trkpt lat="46.127757" lon="13.6009882"><ele>505.0</ele><time>2026-05-02T09:43:50.47Z</time></trkpt><trkpt lat="46.1277497" lon="13.601107"><ele>505.0</ele><time>2026-05-02T09:43:51.471Z</time></trkpt><trkpt lat="46.1277422" lon="13.6012467"><ele>505.0</ele><time>2026-05-02T09:43:52.472Z</time></trkpt><trkpt lat="46.1277425" lon="13.6013767"><ele>505.00000000000006</ele><time>2026-05-02T09:43:53.471Z</time></trkpt><trkpt lat="46.1277332" lon="13.6014918"><ele>505.0</ele><time>2026-05-02T09:43:54.471Z</time></trkpt><trkpt lat="46.1277158" lon="13.601588"><ele>504.25</ele><time>2026-05-02T09:43:55.471Z</time></trkpt><trkpt lat="46.1276735" lon="13.6017792"><ele>503.5</ele><time>2026-05-02T09:43:57.472Z</time></trkpt><trkpt lat="46.1276558" lon="13.601926"><ele>502.75</ele><time>2026-05-02T09:43:59.47Z</time></trkpt><trkpt lat="46.1278103" lon="13.601981"><ele>502.0</ele><time>2026-05-02T09:44:03.471Z</time></trkpt><trkpt lat="46.1279252" lon="13.6019727"><ele>502.00000000000006</ele><time>2026-05-02T09:44:05.473Z</time></trkpt><trkpt lat="46.1279918" lon="13.6019748"><ele>502.0</ele><time>2026-05-02T09:44:06.47Z</time></trkpt><trkpt lat="46.128058" lon="13.6019668"><ele>502.0</ele><time>2026-05-02T09:44:07.47Z</time></trkpt><trkpt lat="46.1281662" lon="13.6019902"><ele>502.0</ele><time>2026-05-02T09:44:09.469Z</time></trkpt><trkpt lat="46.1282837" lon="13.6019997"><ele>502.00000000000006</ele><time>2026-05-02T09:44:11.469Z</time></trkpt><trkpt lat="46.1283467" lon="13.6019975"><ele>502.0</ele><time>2026-05-02T09:44:12.468Z</time></trkpt><trkpt lat="46.1284112" lon="13.6020005"><ele>495.83333333333337</ele><time>2026-05-02T09:44:13.468Z</time></trkpt><trkpt lat="46.1284802" lon="13.601989"><ele>489.6666666666667</ele><time>2026-05-02T09:44:14.472Z</time></trkpt><trkpt lat="46.1285517" lon="13.6019657"><ele>483.5</ele><time>2026-05-02T09:44:15.47Z</time></trkpt><trkpt lat="46.128625" lon="13.6019478"><ele>477.33333333333337</ele><time>2026-05-02T09:44:16.469Z</time></trkpt><trkpt lat="46.128705" lon="13.6019202"><ele>471.1666666666667</ele><time>2026-05-02T09:44:17.469Z</time></trkpt><trkpt lat="46.1287858" lon="13.6019077"><ele>465.0</ele><time>2026-05-02T09:44:18.469Z</time></trkpt><trkpt lat="46.1288703" lon="13.6018998"><ele>465.0</ele><time>2026-05-02T09:44:19.469Z</time></trkpt><trkpt lat="46.128949" lon="13.6019083"><ele>465.0</ele><time>2026-05-02T09:44:20.466Z</time></trkpt><trkpt lat="46.1291072" lon="13.6021003"><ele>465.0</ele><time>2026-05-02T09:44:23.468Z</time></trkpt><trkpt lat="46.1291495" lon="13.6021875"><ele>465.0</ele><time>2026-05-02T09:44:24.468Z</time></trkpt><trkpt lat="46.1292633" lon="13.602275"><ele>467.4</ele><time>2026-05-02T09:44:26.469Z</time></trkpt><trkpt lat="46.1293407" lon="13.602319"><ele>469.8</ele><time>2026-05-02T09:44:27.469Z</time></trkpt><trkpt lat="46.1294275" lon="13.6023713"><ele>472.20000000000005</ele><time>2026-05-02T09:44:28.469Z</time></trkpt><trkpt lat="46.1295243" lon="13.6024212"><ele>474.6</ele><time>2026-05-02T09:44:29.469Z</time></trkpt><trkpt lat="46.1296323" lon="13.6024677"><ele>477.0</ele><time>2026-05-02T09:44:30.469Z</time></trkpt><trkpt lat="46.129727" lon="13.6025093"><ele>477.0</ele><time>2026-05-02T09:44:31.469Z</time></trkpt><trkpt lat="46.1298063" lon="13.6025453"><ele>477.0</ele><time>2026-05-02T09:44:32.469Z</time></trkpt><trkpt lat="46.1298897" lon="13.6026123"><ele>477.0</ele><time>2026-05-02T09:44:33.47Z</time></trkpt><trkpt lat="46.1299603" lon="13.6027003"><ele>477.0</ele><time>2026-05-02T09:44:34.467Z</time></trkpt><trkpt lat="46.1300127" lon="13.6027737"><ele>477.0</ele><time>2026-05-02T09:44:35.468Z</time></trkpt><trkpt lat="46.1300493" lon="13.6028608"><ele>477.0</ele><time>2026-05-02T09:44:36.469Z</time></trkpt><trkpt lat="46.1300695" lon="13.6029768"><ele>478.75</ele><time>2026-05-02T09:44:37.467Z</time></trkpt><trkpt lat="46.1300837" lon="13.603158"><ele>480.5</ele><time>2026-05-02T09:44:38.468Z</time></trkpt><trkpt lat="46.1300762" lon="13.603368"><ele>482.25</ele><time>2026-05-02T09:44:39.47Z</time></trkpt><trkpt lat="46.1300387" lon="13.6035688"><ele>484.0</ele><time>2026-05-02T09:44:40.47Z</time></trkpt><trkpt lat="46.1299897" lon="13.6037967"><ele>484.0</ele><time>2026-05-02T09:44:41.47Z</time></trkpt><trkpt lat="46.1299128" lon="13.6042083"><ele>484.0</ele><time>2026-05-02T09:44:43.47Z</time></trkpt><trkpt lat="46.129883" lon="13.6043825"><ele>484.0</ele><time>2026-05-02T09:44:44.469Z</time></trkpt><trkpt lat="46.1298525" lon="13.6045632"><ele>491.2</ele><time>2026-05-02T09:44:45.469Z</time></trkpt><trkpt lat="46.1298157" lon="13.6047368"><ele>498.4</ele><time>2026-05-02T09:44:46.47Z</time></trkpt><trkpt lat="46.1297943" lon="13.6048755"><ele>505.6</ele><time>2026-05-02T09:44:47.469Z</time></trkpt><trkpt lat="46.129762" lon="13.604993"><ele>512.8</ele><time>2026-05-02T09:44:48.469Z</time></trkpt><trkpt lat="46.1297285" lon="13.6051187"><ele>520.0</ele><time>2026-05-02T09:44:49.469Z</time></trkpt><trkpt lat="46.1296893" lon="13.6052493"><ele>517.2</ele><time>2026-05-02T09:44:50.47Z</time></trkpt><trkpt lat="46.1296405" lon="13.6053907"><ele>514.4</ele><time>2026-05-02T09:44:51.472Z</time></trkpt><trkpt lat="46.129603" lon="13.6055293"><ele>511.6</ele><time>2026-05-02T09:44:52.471Z</time></trkpt><trkpt lat="46.1295628" lon="13.605656"><ele>508.8</ele><time>2026-05-02T09:44:53.47Z</time></trkpt><trkpt lat="46.1295297" lon="13.6057688"><ele>506.0</ele><time>2026-05-02T09:44:54.471Z</time></trkpt><trkpt lat="46.1294987" lon="13.6058797"><ele>505.99999999999994</ele><time>2026-05-02T09:44:55.471Z</time></trkpt><trkpt lat="46.1294925" lon="13.6059998"><ele>506.0</ele><time>2026-05-02T09:44:56.47Z</time></trkpt><trkpt lat="46.1294828" lon="13.6061255"><ele>506.0</ele><time>2026-05-02T09:44:57.469Z</time></trkpt><trkpt lat="46.129482" lon="13.606241"><ele>506.0</ele><time>2026-05-02T09:44:58.469Z</time></trkpt><trkpt lat="46.1294927" lon="13.6063515"><ele>505.99999999999994</ele><time>2026-05-02T09:44:59.468Z</time></trkpt><trkpt lat="46.1295068" lon="13.6064552"><ele>506.0</ele><time>2026-05-02T09:45:00.468Z</time></trkpt><trkpt lat="46.1295275" lon="13.6065492"><ele>502.0</ele><time>2026-05-02T09:45:01.467Z</time></trkpt><trkpt lat="46.1295183" lon="13.6067278"><ele>498.0</ele><time>2026-05-02T09:45:03.469Z</time></trkpt><trkpt lat="46.129457" lon="13.6069943"><ele>494.0</ele><time>2026-05-02T09:45:05.469Z</time></trkpt><trkpt lat="46.1294423" lon="13.6071022"><ele>490.0</ele><time>2026-05-02T09:45:06.469Z</time></trkpt><trkpt lat="46.1294142" lon="13.6072172"><ele>490.00000000000006</ele><time>2026-05-02T09:45:07.47Z</time></trkpt><trkpt lat="46.1293953" lon="13.6073235"><ele>490.0</ele><time>2026-05-02T09:45:08.469Z</time></trkpt><trkpt lat="46.129403" lon="13.6074695"><ele>490.0</ele><time>2026-05-02T09:45:10.469Z</time></trkpt><trkpt lat="46.1294748" lon="13.6075095"><ele>490.0</ele><time>2026-05-02T09:45:12.468Z</time></trkpt><trkpt lat="46.1295267" lon="13.6074202"><ele>490.00000000000006</ele><time>2026-05-02T09:45:15.469Z</time></trkpt><trkpt lat="46.1295792" lon="13.607362"><ele>490.0</ele><time>2026-05-02T09:45:16.468Z</time></trkpt><trkpt lat="46.1296335" lon="13.6073105"><ele>490.00000000000006</ele><time>2026-05-02T09:45:17.469Z</time></trkpt><trkpt lat="46.129694" lon="13.6072805"><ele>490.0</ele><time>2026-05-02T09:45:18.469Z</time></trkpt><trkpt lat="46.1297655" lon="13.6072627"><ele>490.0</ele><time>2026-05-02T09:45:19.47Z</time></trkpt><trkpt lat="46.1298387" lon="13.6072495"><ele>490.0</ele><time>2026-05-02T09:45:20.468Z</time></trkpt><trkpt lat="46.129965" lon="13.60724"><ele>490.00000000000006</ele><time>2026-05-02T09:45:22.469Z</time></trkpt><trkpt lat="46.1300357" lon="13.6072245"><ele>490.0</ele><time>2026-05-02T09:45:23.467Z</time></trkpt><trkpt lat="46.1301218" lon="13.6072322"><ele>484.25</ele><time>2026-05-02T09:45:24.467Z</time></trkpt><trkpt lat="46.1303003" lon="13.6072815"><ele>478.5</ele><time>2026-05-02T09:45:27.469Z</time></trkpt><trkpt lat="46.1303525" lon="13.6074458"><ele>472.75</ele><time>2026-05-02T09:45:29.469Z</time></trkpt><trkpt lat="46.1303635" lon="13.607564"><ele>467.0</ele><time>2026-05-02T09:45:30.469Z</time></trkpt><trkpt lat="46.1303708" lon="13.6077155"><ele>473.0</ele><time>2026-05-02T09:45:31.469Z</time></trkpt><trkpt lat="46.1303745" lon="13.6078633"><ele>479.00000000000006</ele><time>2026-05-02T09:45:32.469Z</time></trkpt><trkpt lat="46.130359" lon="13.6079932"><ele>485.00000000000006</ele><time>2026-05-02T09:45:33.47Z</time></trkpt><trkpt lat="46.1303302" lon="13.6081483"><ele>491.0</ele><time>2026-05-02T09:45:34.469Z</time></trkpt><trkpt lat="46.130301" lon="13.6083198"><ele>497.0</ele><time>2026-05-02T09:45:35.47Z</time></trkpt><trkpt lat="46.1302772" lon="13.6084642"><ele>496.99999999999994</ele><time>2026-05-02T09:45:36.469Z</time></trkpt><trkpt lat="46.1302608" lon="13.6085892"><ele>497.0</ele><time>2026-05-02T09:45:37.469Z</time></trkpt><trkpt lat="46.1302417" lon="13.6086927"><ele>497.0</ele><time>2026-05-02T09:45:38.469Z</time></trkpt><trkpt lat="46.1302108" lon="13.6087967"><ele>497.0</ele><time>2026-05-02T09:45:39.469Z</time></trkpt><trkpt lat="46.1301882" lon="13.608908"><ele>496.99999999999994</ele><time>2026-05-02T09:45:40.47Z</time></trkpt><trkpt lat="46.1301843" lon="13.6090518"><ele>497.0</ele><time>2026-05-02T09:45:42.47Z</time></trkpt><trkpt lat="46.1302443" lon="13.6091368"><ele>498.6</ele><time>2026-05-02T09:45:44.469Z</time></trkpt><trkpt lat="46.130329" lon="13.609121"><ele>500.20000000000005</ele><time>2026-05-02T09:45:46.469Z</time></trkpt><trkpt lat="46.1304965" lon="13.60899"><ele>501.8</ele><time>2026-05-02T09:45:49.469Z</time></trkpt><trkpt lat="46.1305668" lon="13.6089547"><ele>503.4</ele><time>2026-05-02T09:45:50.468Z</time></trkpt><trkpt lat="46.130633" lon="13.6089253"><ele>505.0</ele><time>2026-05-02T09:45:51.469Z</time></trkpt><trkpt lat="46.130745" lon="13.6088725"><ele>500.6</ele><time>2026-05-02T09:45:53.469Z</time></trkpt><trkpt lat="46.1308552" lon="13.6089068"><ele>496.2</ele><time>2026-05-02T09:45:55.469Z</time></trkpt><trkpt lat="46.1309172" lon="13.6089628"><ele>491.79999999999995</ele><time>2026-05-02T09:45:56.469Z</time></trkpt><trkpt lat="46.1309775" lon="13.6090243"><ele>487.4</ele><time>2026-05-02T09:45:57.469Z</time></trkpt><trkpt lat="46.1310895" lon="13.6090653"><ele>483.0</ele><time>2026-05-02T09:45:59.468Z</time></trkpt><trkpt lat="46.131192" lon="13.6090485"><ele>483.0</ele><time>2026-05-02T09:46:01.468Z</time></trkpt><trkpt lat="46.1312285" lon="13.6089298"><ele>483.0</ele><time>2026-05-02T09:46:03.468Z</time></trkpt><trkpt lat="46.1312427" lon="13.6088348"><ele>483.0</ele><time>2026-05-02T09:46:04.468Z</time></trkpt><trkpt lat="46.1312602" lon="13.6087338"><ele>483.0</ele><time>2026-05-02T09:46:05.468Z</time></trkpt><trkpt lat="46.1312822" lon="13.6086277"><ele>483.0</ele><time>2026-05-02T09:46:06.468Z</time></trkpt><trkpt lat="46.1313222" lon="13.6085212"><ele>483.0</ele><time>2026-05-02T09:46:07.468Z</time></trkpt><trkpt lat="46.1314073" lon="13.6083225"><ele>483.3333333333333</ele><time>2026-05-02T09:46:09.469Z</time></trkpt><trkpt lat="46.1314575" lon="13.608234"><ele>483.66666666666663</ele><time>2026-05-02T09:46:10.469Z</time></trkpt><trkpt lat="46.1315075" lon="13.6081565"><ele>484.0</ele><time>2026-05-02T09:46:11.469Z</time></trkpt><trkpt lat="46.1315553" lon="13.6080683"><ele>484.3333333333333</ele><time>2026-05-02T09:46:12.468Z</time></trkpt><trkpt lat="46.131592" lon="13.6079702"><ele>484.66666666666663</ele><time>2026-05-02T09:46:13.468Z</time></trkpt><trkpt lat="46.131635" lon="13.607864"><ele>485.0</ele><time>2026-05-02T09:46:14.468Z</time></trkpt><trkpt lat="46.1316813" lon="13.607736"><ele>480.8333333333333</ele><time>2026-05-02T09:46:15.468Z</time></trkpt><trkpt lat="46.1317235" lon="13.6076187"><ele>476.66666666666663</ele><time>2026-05-02T09:46:16.469Z</time></trkpt><trkpt lat="46.1317653" lon="13.6075043"><ele>472.5</ele><time>2026-05-02T09:46:17.468Z</time></trkpt><trkpt lat="46.1318022" lon="13.6074038"><ele>468.33333333333337</ele><time>2026-05-02T09:46:18.469Z</time></trkpt><trkpt lat="46.1318383" lon="13.6073235"><ele>464.1666666666667</ele><time>2026-05-02T09:46:19.469Z</time></trkpt><trkpt lat="46.1319207" lon="13.6072487"><ele>460.0</ele><time>2026-05-02T09:46:21.469Z</time></trkpt><trkpt lat="46.1320292" lon="13.6072597"><ele>460.0</ele><time>2026-05-02T09:46:23.468Z</time></trkpt><trkpt lat="46.1320972" lon="13.6072647"><ele>460.0</ele><time>2026-05-02T09:46:24.47Z</time></trkpt><trkpt lat="46.1321692" lon="13.6072702"><ele>460.0</ele><time>2026-05-02T09:46:25.469Z</time></trkpt><trkpt lat="46.1322427" lon="13.6072928"><ele>460.0</ele><time>2026-05-02T09:46:26.474Z</time></trkpt><trkpt lat="46.132345" lon="13.6072562"><ele>460.0</ele><time>2026-05-02T09:46:28.468Z</time></trkpt><trkpt lat="46.132466" lon="13.6070222"><ele>461.1666666666667</ele><time>2026-05-02T09:46:31.482Z</time></trkpt><trkpt lat="46.1325173" lon="13.6068987"><ele>462.33333333333337</ele><time>2026-05-02T09:46:32.469Z</time></trkpt><trkpt lat="46.1325758" lon="13.606774"><ele>463.5</ele><time>2026-05-02T09:46:33.469Z</time></trkpt><trkpt lat="46.13263" lon="13.6066643"><ele>464.66666666666663</ele><time>2026-05-02T09:46:34.469Z</time></trkpt><trkpt lat="46.1326855" lon="13.6065782"><ele>465.8333333333333</ele><time>2026-05-02T09:46:35.469Z</time></trkpt><trkpt lat="46.1327385" lon="13.6065267"><ele>467.0</ele><time>2026-05-02T09:46:36.468Z</time></trkpt><trkpt lat="46.132845" lon="13.6065192"><ele>467.0</ele><time>2026-05-02T09:46:38.468Z</time></trkpt><trkpt lat="46.132911" lon="13.6065422"><ele>467.00000000000006</ele><time>2026-05-02T09:46:39.469Z</time></trkpt><trkpt lat="46.133002" lon="13.6065677"><ele>467.00000000000006</ele><time>2026-05-02T09:46:40.469Z</time></trkpt><trkpt lat="46.1330953" lon="13.606574"><ele>467.0</ele><time>2026-05-02T09:46:41.469Z</time></trkpt><trkpt lat="46.1331955" lon="13.6065937"><ele>467.0</ele><time>2026-05-02T09:46:42.476Z</time></trkpt><trkpt lat="46.133303" lon="13.6066083"><ele>469.8333333333333</ele><time>2026-05-02T09:46:43.471Z</time></trkpt><trkpt lat="46.1333933" lon="13.6066208"><ele>472.66666666666663</ele><time>2026-05-02T09:46:44.471Z</time></trkpt><trkpt lat="46.1334745" lon="13.606619"><ele>475.5</ele><time>2026-05-02T09:46:45.469Z</time></trkpt><trkpt lat="46.1335525" lon="13.6066293"><ele>478.33333333333337</ele><time>2026-05-02T09:46:46.468Z</time></trkpt><trkpt lat="46.133635" lon="13.6066433"><ele>481.1666666666667</ele><time>2026-05-02T09:46:47.468Z</time></trkpt><trkpt lat="46.1337358" lon="13.606658"><ele>484.0</ele><time>2026-05-02T09:46:48.469Z</time></trkpt><trkpt lat="46.133841" lon="13.606673"><ele>484.0</ele><time>2026-05-02T09:46:49.467Z</time></trkpt><trkpt lat="46.1340425" lon="13.6067033"><ele>484.0</ele><time>2026-05-02T09:46:51.468Z</time></trkpt><trkpt lat="46.1341308" lon="13.6067082"><ele>484.0</ele><time>2026-05-02T09:46:52.468Z</time></trkpt><trkpt lat="46.1342145" lon="13.6067198"><ele>484.0</ele><time>2026-05-02T09:46:53.468Z</time></trkpt><trkpt lat="46.1343" lon="13.6067525"><ele>483.1666666666667</ele><time>2026-05-02T09:46:54.469Z</time></trkpt><trkpt lat="46.1343935" lon="13.6068042"><ele>482.33333333333337</ele><time>2026-05-02T09:46:55.468Z</time></trkpt><trkpt lat="46.1344823" lon="13.606868"><ele>481.5</ele><time>2026-05-02T09:46:56.469Z</time></trkpt><trkpt lat="46.1345475" lon="13.6069338"><ele>480.66666666666663</ele><time>2026-05-02T09:46:57.469Z</time></trkpt><trkpt lat="46.1345955" lon="13.6070065"><ele>479.8333333333333</ele><time>2026-05-02T09:46:58.469Z</time></trkpt><trkpt lat="46.1346417" lon="13.6070747"><ele>479.0</ele><time>2026-05-02T09:46:59.471Z</time></trkpt><trkpt lat="46.1347028" lon="13.6071305"><ele>481.66666666666663</ele><time>2026-05-02T09:47:00.47Z</time></trkpt><trkpt lat="46.1347787" lon="13.607173"><ele>484.3333333333333</ele><time>2026-05-02T09:47:01.467Z</time></trkpt><trkpt lat="46.1348603" lon="13.6072038"><ele>487.0</ele><time>2026-05-02T09:47:02.468Z</time></trkpt><trkpt lat="46.134935" lon="13.6072513"><ele>489.66666666666663</ele><time>2026-05-02T09:47:03.468Z</time></trkpt><trkpt lat="46.1350002" lon="13.6073178"><ele>492.3333333333333</ele><time>2026-05-02T09:47:04.468Z</time></trkpt><trkpt lat="46.1350548" lon="13.6074067"><ele>495.0</ele><time>2026-05-02T09:47:05.47Z</time></trkpt><trkpt lat="46.1351068" lon="13.6075178"><ele>495.0</ele><time>2026-05-02T09:47:06.468Z</time></trkpt><trkpt lat="46.1351595" lon="13.6076237"><ele>495.0</ele><time>2026-05-02T09:47:07.468Z</time></trkpt><trkpt lat="46.135217" lon="13.6076897"><ele>495.0</ele><time>2026-05-02T09:47:08.468Z</time></trkpt><trkpt lat="46.1352852" lon="13.6077605"><ele>495.0</ele><time>2026-05-02T09:47:09.469Z</time></trkpt><trkpt lat="46.1353642" lon="13.607828"><ele>495.0</ele><time>2026-05-02T09:47:10.469Z</time></trkpt><trkpt lat="46.1354875" lon="13.6079322"><ele>493.4</ele><time>2026-05-02T09:47:12.469Z</time></trkpt><trkpt lat="46.1355572" lon="13.607956"><ele>491.8</ele><time>2026-05-02T09:47:13.47Z</time></trkpt><trkpt lat="46.1356268" lon="13.6079612"><ele>490.20000000000005</ele><time>2026-05-02T09:47:14.469Z</time></trkpt><trkpt lat="46.135728" lon="13.6080385"><ele>488.6</ele><time>2026-05-02T09:47:16.469Z</time></trkpt><trkpt lat="46.1357712" lon="13.6082147"><ele>487.0</ele><time>2026-05-02T09:47:18.469Z</time></trkpt><trkpt lat="46.1357773" lon="13.6083307"><ele>487.0</ele><time>2026-05-02T09:47:19.468Z</time></trkpt><trkpt lat="46.1357693" lon="13.6084458"><ele>487.00000000000006</ele><time>2026-05-02T09:47:20.468Z</time></trkpt><trkpt lat="46.1357442" lon="13.6085712"><ele>487.00000000000006</ele><time>2026-05-02T09:47:21.47Z</time></trkpt><trkpt lat="46.1357102" lon="13.6087213"><ele>487.0</ele><time>2026-05-02T09:47:22.469Z</time></trkpt><trkpt lat="46.13566" lon="13.6088895"><ele>487.0</ele><time>2026-05-02T09:47:23.469Z</time></trkpt><trkpt lat="46.1356163" lon="13.6090507"><ele>495.8</ele><time>2026-05-02T09:47:24.47Z</time></trkpt><trkpt lat="46.1355823" lon="13.6092142"><ele>504.6</ele><time>2026-05-02T09:47:25.469Z</time></trkpt><trkpt lat="46.1355567" lon="13.6093713"><ele>513.4000000000001</ele><time>2026-05-02T09:47:26.467Z</time></trkpt><trkpt lat="46.1355317" lon="13.6095205"><ele>522.2</ele><time>2026-05-02T09:47:27.469Z</time></trkpt><trkpt lat="46.1355135" lon="13.609654"><ele>531.0</ele><time>2026-05-02T09:47:28.468Z</time></trkpt><trkpt lat="46.135497" lon="13.6097838"><ele>531.0</ele><time>2026-05-02T09:47:29.468Z</time></trkpt><trkpt lat="46.1354928" lon="13.609875"><ele>531.0</ele><time>2026-05-02T09:47:30.47Z</time></trkpt><trkpt lat="46.135505" lon="13.6100092"><ele>531.0</ele><time>2026-05-02T09:47:32.469Z</time></trkpt><trkpt lat="46.1356563" lon="13.6100622"><ele>531.0</ele><time>2026-05-02T09:47:36.47Z</time></trkpt><trkpt lat="46.1357227" lon="13.6100595"><ele>531.0</ele><time>2026-05-02T09:47:37.469Z</time></trkpt><trkpt lat="46.1357957" lon="13.6100762"><ele>527.5</ele><time>2026-05-02T09:47:38.47Z</time></trkpt><trkpt lat="46.1358577" lon="13.6101085"><ele>524.0</ele><time>2026-05-02T09:47:39.469Z</time></trkpt><trkpt lat="46.1359273" lon="13.6102413"><ele>520.5</ele><time>2026-05-02T09:47:41.472Z</time></trkpt><trkpt lat="46.1359567" lon="13.6103398"><ele>517.0</ele><time>2026-05-02T09:47:42.47Z</time></trkpt><trkpt lat="46.1359745" lon="13.6104432"><ele>513.5</ele><time>2026-05-02T09:47:43.469Z</time></trkpt><trkpt lat="46.1359753" lon="13.6105558"><ele>510.0</ele><time>2026-05-02T09:47:44.468Z</time></trkpt><trkpt lat="46.1359587" lon="13.6106612"><ele>510.0</ele><time>2026-05-02T09:47:45.469Z</time></trkpt><trkpt lat="46.1359467" lon="13.6107592"><ele>510.0</ele><time>2026-05-02T09:47:46.469Z</time></trkpt><trkpt lat="46.1359743" lon="13.6109055"><ele>510.0</ele><time>2026-05-02T09:47:48.468Z</time></trkpt><trkpt lat="46.1360152" lon="13.6109782"><ele>510.0</ele><time>2026-05-02T09:47:49.469Z</time></trkpt><trkpt lat="46.136073" lon="13.6110668"><ele>510.0</ele><time>2026-05-02T09:47:50.467Z</time></trkpt><trkpt lat="46.1361157" lon="13.6111497"><ele>510.0</ele><time>2026-05-02T09:47:51.468Z</time></trkpt><trkpt lat="46.1361355" lon="13.6112428"><ele>511.5</ele><time>2026-05-02T09:47:52.468Z</time></trkpt><trkpt lat="46.136104" lon="13.6114015"><ele>513.0</ele><time>2026-05-02T09:47:54.47Z</time></trkpt><trkpt lat="46.1359793" lon="13.6116043"><ele>514.5</ele><time>2026-05-02T09:47:56.47Z</time></trkpt><trkpt lat="46.1359212" lon="13.6117367"><ele>516.0</ele><time>2026-05-02T09:47:57.471Z</time></trkpt><trkpt lat="46.1358768" lon="13.611863"><ele>516.0</ele><time>2026-05-02T09:47:58.47Z</time></trkpt><trkpt lat="46.1358375" lon="13.6119743"><ele>516.0</ele><time>2026-05-02T09:47:59.47Z</time></trkpt><trkpt lat="46.1358175" lon="13.6120618"><ele>516.0</ele><time>2026-05-02T09:48:00.47Z</time></trkpt><trkpt lat="46.1358227" lon="13.6121612"><ele>516.0</ele><time>2026-05-02T09:48:02.47Z</time></trkpt><trkpt lat="46.1359" lon="13.6121632"><ele>516.0</ele><time>2026-05-02T09:48:04.47Z</time></trkpt><trkpt lat="46.1360022" lon="13.6121225"><ele>516.0</ele><time>2026-05-02T09:48:06.47Z</time></trkpt><trkpt lat="46.1360668" lon="13.6121327"><ele>516.8333333333334</ele><time>2026-05-02T09:48:07.471Z</time></trkpt><trkpt lat="46.1361285" lon="13.6121563"><ele>517.6666666666666</ele><time>2026-05-02T09:48:08.469Z</time></trkpt><trkpt lat="46.1362373" lon="13.6122288"><ele>518.5</ele><time>2026-05-02T09:48:10.471Z</time></trkpt><trkpt lat="46.1363077" lon="13.61234"><ele>519.3333333333333</ele><time>2026-05-02T09:48:12.469Z</time></trkpt><trkpt lat="46.1363375" lon="13.6124383"><ele>520.1666666666666</ele><time>2026-05-02T09:48:13.469Z</time></trkpt><trkpt lat="46.1363578" lon="13.61255"><ele>521.0</ele><time>2026-05-02T09:48:14.468Z</time></trkpt><trkpt lat="46.1363633" lon="13.6126748"><ele>520.4</ele><time>2026-05-02T09:48:15.469Z</time></trkpt><trkpt lat="46.1363822" lon="13.6129065"><ele>519.8</ele><time>2026-05-02T09:48:17.467Z</time></trkpt><trkpt lat="46.1364068" lon="13.613048"><ele>519.1999999999999</ele><time>2026-05-02T09:48:19.469Z</time></trkpt><trkpt lat="46.1364758" lon="13.6131113"><ele>518.6</ele><time>2026-05-02T09:48:21.47Z</time></trkpt><trkpt lat="46.136548" lon="13.6130715"><ele>518.0</ele><time>2026-05-02T09:48:23.469Z</time></trkpt><trkpt lat="46.1366042" lon="13.6129515"><ele>515.0</ele><time>2026-05-02T09:48:25.468Z</time></trkpt><trkpt lat="46.1366577" lon="13.6127492"><ele>511.99999999999994</ele><time>2026-05-02T09:48:27.468Z</time></trkpt><trkpt lat="46.1366913" lon="13.6126242"><ele>508.99999999999994</ele><time>2026-05-02T09:48:28.467Z</time></trkpt><trkpt lat="46.136711" lon="13.6125022"><ele>506.0</ele><time>2026-05-02T09:48:29.467Z</time></trkpt><trkpt lat="46.1367313" lon="13.61238"><ele>503.0</ele><time>2026-05-02T09:48:30.469Z</time></trkpt><trkpt lat="46.1367452" lon="13.6122705"><ele>502.99999999999994</ele><time>2026-05-02T09:48:31.468Z</time></trkpt><trkpt lat="46.1367732" lon="13.6121718"><ele>503.0</ele><time>2026-05-02T09:48:32.467Z</time></trkpt><trkpt lat="46.1368313" lon="13.6120675"><ele>503.0</ele><time>2026-05-02T09:48:33.501Z</time></trkpt><trkpt lat="46.1368977" lon="13.611979"><ele>503.0</ele><time>2026-05-02T09:48:34.469Z</time></trkpt><trkpt lat="46.1369643" lon="13.6119068"><ele>502.99999999999994</ele><time>2026-05-02T09:48:35.471Z</time></trkpt><trkpt lat="46.1370358" lon="13.6118598"><ele>503.0</ele><time>2026-05-02T09:48:36.469Z</time></trkpt><trkpt lat="46.137191" lon="13.6118148"><ele>500.4</ele><time>2026-05-02T09:48:39.467Z</time></trkpt><trkpt lat="46.1372043" lon="13.6116798"><ele>497.79999999999995</ele><time>2026-05-02T09:48:42.467Z</time></trkpt><trkpt lat="46.1371745" lon="13.6115023"><ele>495.2</ele><time>2026-05-02T09:48:44.469Z</time></trkpt><trkpt lat="46.1371655" lon="13.6113977"><ele>492.6</ele><time>2026-05-02T09:48:45.469Z</time></trkpt><trkpt lat="46.1371602" lon="13.6113018"><ele>490.0</ele><time>2026-05-02T09:48:46.469Z</time></trkpt><trkpt lat="46.1371423" lon="13.6111303"><ele>487.33333333333337</ele><time>2026-05-02T09:48:48.469Z</time></trkpt><trkpt lat="46.1371333" lon="13.6110317"><ele>484.6666666666667</ele><time>2026-05-02T09:48:49.469Z</time></trkpt><trkpt lat="46.1371252" lon="13.6109238"><ele>482.0</ele><time>2026-05-02T09:48:50.469Z</time></trkpt><trkpt lat="46.13712" lon="13.6108087"><ele>479.33333333333337</ele><time>2026-05-02T09:48:51.469Z</time></trkpt><trkpt lat="46.1371205" lon="13.6106918"><ele>476.6666666666667</ele><time>2026-05-02T09:48:52.469Z</time></trkpt><trkpt lat="46.1371245" lon="13.6105797"><ele>474.0</ele><time>2026-05-02T09:48:53.468Z</time></trkpt><trkpt lat="46.1371308" lon="13.6104717"><ele>474.0</ele><time>2026-05-02T09:48:54.469Z</time></trkpt><trkpt lat="46.1371383" lon="13.6103672"><ele>474.0</ele><time>2026-05-02T09:48:55.468Z</time></trkpt><trkpt lat="46.1371562" lon="13.610278"><ele>474.0</ele><time>2026-05-02T09:48:56.468Z</time></trkpt><trkpt lat="46.1371755" lon="13.6101802"><ele>474.0</ele><time>2026-05-02T09:48:57.468Z</time></trkpt><trkpt lat="46.13724" lon="13.609974"><ele>474.0</ele><time>2026-05-02T09:48:59.468Z</time></trkpt><trkpt lat="46.1372852" lon="13.6098703"><ele>474.0</ele><time>2026-05-02T09:49:00.468Z</time></trkpt><trkpt lat="46.1373298" lon="13.6097525"><ele>476.0</ele><time>2026-05-02T09:49:01.468Z</time></trkpt><trkpt lat="46.1373902" lon="13.6096382"><ele>478.0</ele><time>2026-05-02T09:49:02.468Z</time></trkpt><trkpt lat="46.1374692" lon="13.6095105"><ele>480.0</ele><time>2026-05-02T09:49:03.467Z</time></trkpt><trkpt lat="46.1375462" lon="13.6093877"><ele>482.0</ele><time>2026-05-02T09:49:04.467Z</time></trkpt><trkpt lat="46.1376177" lon="13.6092658"><ele>484.0</ele><time>2026-05-02T09:49:05.466Z</time></trkpt><trkpt lat="46.1376773" lon="13.6091438"><ele>480.6666666666667</ele><time>2026-05-02T09:49:06.468Z</time></trkpt><trkpt lat="46.137742" lon="13.6090348"><ele>477.33333333333337</ele><time>2026-05-02T09:49:07.467Z</time></trkpt><trkpt lat="46.137802" lon="13.6089442"><ele>474.0</ele><time>2026-05-02T09:49:08.468Z</time></trkpt><trkpt lat="46.1378597" lon="13.608874"><ele>470.66666666666663</ele><time>2026-05-02T09:49:09.469Z</time></trkpt><trkpt lat="46.1379203" lon="13.6088367"><ele>467.3333333333333</ele><time>2026-05-02T09:49:10.468Z</time></trkpt><trkpt lat="46.1380415" lon="13.6088448"><ele>464.0</ele><time>2026-05-02T09:49:12.468Z</time></trkpt><trkpt lat="46.1381095" lon="13.6088885"><ele>464.0</ele><time>2026-05-02T09:49:13.468Z</time></trkpt><trkpt lat="46.1381878" lon="13.6089528"><ele>464.0</ele><time>2026-05-02T09:49:14.469Z</time></trkpt><trkpt lat="46.1382695" lon="13.6090342"><ele>464.0</ele><time>2026-05-02T09:49:15.471Z</time></trkpt><trkpt lat="46.1383658" lon="13.6091317"><ele>464.0</ele><time>2026-05-02T09:49:16.469Z</time></trkpt><trkpt lat="46.1384712" lon="13.6092198"><ele>464.0</ele><time>2026-05-02T09:49:17.468Z</time></trkpt><trkpt lat="46.13859" lon="13.6093077"><ele>483.3333333333333</ele><time>2026-05-02T09:49:18.468Z</time></trkpt><trkpt lat="46.1388095" lon="13.6095033"><ele>502.66666666666663</ele><time>2026-05-02T09:49:20.468Z</time></trkpt><trkpt lat="46.1389018" lon="13.6095803"><ele>522.0</ele><time>2026-05-02T09:49:21.469Z</time></trkpt><trkpt lat="46.1389803" lon="13.6096497"><ele>522.0</ele><time>2026-05-02T09:49:22.469Z</time></trkpt><trkpt lat="46.1390575" lon="13.6097582"><ele>522.0</ele><time>2026-05-02T09:49:24.468Z</time></trkpt><trkpt lat="46.1390702" lon="13.609911"><ele>522.0</ele><time>2026-05-02T09:49:26.468Z</time></trkpt><trkpt lat="46.1390598" lon="13.6100487"><ele>522.0</ele><time>2026-05-02T09:49:27.469Z</time></trkpt><trkpt lat="46.1390495" lon="13.6101922"><ele>522.0</ele><time>2026-05-02T09:49:28.467Z</time></trkpt><trkpt lat="46.1390463" lon="13.6103468"><ele>523.6</ele><time>2026-05-02T09:49:29.466Z</time></trkpt><trkpt lat="46.1390548" lon="13.6105083"><ele>525.2</ele><time>2026-05-02T09:49:30.468Z</time></trkpt><trkpt lat="46.139048" lon="13.6106783"><ele>526.8</ele><time>2026-05-02T09:49:31.469Z</time></trkpt><trkpt lat="46.139034" lon="13.6108178"><ele>528.4</ele><time>2026-05-02T09:49:32.472Z</time></trkpt><trkpt lat="46.139029" lon="13.6109237"><ele>530.0</ele><time>2026-05-02T09:49:33.469Z</time></trkpt><trkpt lat="46.1390602" lon="13.6110797"><ele>529.6</ele><time>2026-05-02T09:49:35.47Z</time></trkpt><trkpt lat="46.1391477" lon="13.61119"><ele>529.2</ele><time>2026-05-02T09:49:37.468Z</time></trkpt><trkpt lat="46.1392222" lon="13.611213"><ele>528.8</ele><time>2026-05-02T09:49:38.468Z</time></trkpt><trkpt lat="46.1393003" lon="13.6112202"><ele>528.4</ele><time>2026-05-02T09:49:39.469Z</time></trkpt><trkpt lat="46.1394578" lon="13.61121"><ele>528.0</ele><time>2026-05-02T09:49:41.471Z</time></trkpt><trkpt lat="46.1395338" lon="13.6111897"><ele>528.0</ele><time>2026-05-02T09:49:42.469Z</time></trkpt><trkpt lat="46.1396087" lon="13.6111543"><ele>528.0</ele><time>2026-05-02T09:49:43.468Z</time></trkpt><trkpt lat="46.1396865" lon="13.6111263"><ele>528.0</ele><time>2026-05-02T09:49:44.469Z</time></trkpt><trkpt lat="46.1397528" lon="13.6111315"><ele>528.0</ele><time>2026-05-02T09:49:45.469Z</time></trkpt><trkpt lat="46.1398402" lon="13.6112182"><ele>528.0</ele><time>2026-05-02T09:49:47.469Z</time></trkpt><trkpt lat="46.1398713" lon="13.6113055"><ele>528.0</ele><time>2026-05-02T09:49:48.47Z</time></trkpt><trkpt lat="46.1399078" lon="13.6114492"><ele>529.0</ele><time>2026-05-02T09:49:49.469Z</time></trkpt><trkpt lat="46.1399445" lon="13.6115868"><ele>530.0</ele><time>2026-05-02T09:49:50.469Z</time></trkpt><trkpt lat="46.139982" lon="13.6116935"><ele>531.0</ele><time>2026-05-02T09:49:51.469Z</time></trkpt><trkpt lat="46.1400248" lon="13.6117922"><ele>532.0</ele><time>2026-05-02T09:49:52.468Z</time></trkpt><trkpt lat="46.1400747" lon="13.6119087"><ele>533.0</ele><time>2026-05-02T09:49:53.467Z</time></trkpt><trkpt lat="46.1401203" lon="13.6120307"><ele>533.0</ele><time>2026-05-02T09:49:54.467Z</time></trkpt><trkpt lat="46.140163" lon="13.612185"><ele>533.0</ele><time>2026-05-02T09:49:55.468Z</time></trkpt><trkpt lat="46.1402007" lon="13.612334"><ele>533.0</ele><time>2026-05-02T09:49:56.467Z</time></trkpt><trkpt lat="46.1402347" lon="13.6124458"><ele>533.0</ele><time>2026-05-02T09:49:57.469Z</time></trkpt><trkpt lat="46.1402727" lon="13.612532"><ele>533.0</ele><time>2026-05-02T09:49:58.47Z</time></trkpt><trkpt lat="46.1403307" lon="13.6126145"><ele>533.0</ele><time>2026-05-02T09:49:59.469Z</time></trkpt><trkpt lat="46.1403933" lon="13.6126888"><ele>533.0</ele><time>2026-05-02T09:50:00.469Z</time></trkpt><trkpt lat="46.1404775" lon="13.6129047"><ele>533.0</ele><time>2026-05-02T09:50:02.469Z</time></trkpt><trkpt lat="46.1405152" lon="13.6130645"><ele>533.0</ele><time>2026-05-02T09:50:03.468Z</time></trkpt><trkpt lat="46.1405445" lon="13.6132347"><ele>535.5</ele><time>2026-05-02T09:50:04.467Z</time></trkpt><trkpt lat="46.1405557" lon="13.613362"><ele>538.0</ele><time>2026-05-02T09:50:05.468Z</time></trkpt><trkpt lat="46.1405372" lon="13.6135212"><ele>540.5</ele><time>2026-05-02T09:50:07.469Z</time></trkpt><trkpt lat="46.1404815" lon="13.613582"><ele>543.0</ele><time>2026-05-02T09:50:09.469Z</time></trkpt><trkpt lat="46.1404227" lon="13.6135258"><ele>545.5</ele><time>2026-05-02T09:50:11.469Z</time></trkpt><trkpt lat="46.1403537" lon="13.613531"><ele>548.0</ele><time>2026-05-02T09:50:13.469Z</time></trkpt><trkpt lat="46.1403327" lon="13.613626"><ele>550.6</ele><time>2026-05-02T09:50:15.469Z</time></trkpt><trkpt lat="46.140378" lon="13.613779"><ele>553.1999999999999</ele><time>2026-05-02T09:50:17.468Z</time></trkpt><trkpt lat="46.1404285" lon="13.613876"><ele>555.8</ele><time>2026-05-02T09:50:18.468Z</time></trkpt><trkpt lat="46.140479" lon="13.6139955"><ele>558.4</ele><time>2026-05-02T09:50:19.468Z</time></trkpt><trkpt lat="46.1405102" lon="13.6141327"><ele>561.0</ele><time>2026-05-02T09:50:20.469Z</time></trkpt><trkpt lat="46.1405393" lon="13.6142903"><ele>561.0</ele><time>2026-05-02T09:50:21.47Z</time></trkpt><trkpt lat="46.140548" lon="13.6145302"><ele>561.0</ele><time>2026-05-02T09:50:23.469Z</time></trkpt><trkpt lat="46.1405063" lon="13.6146163"><ele>561.0</ele><time>2026-05-02T09:50:25.47Z</time></trkpt><trkpt lat="46.1403922" lon="13.6145687"><ele>561.0</ele><time>2026-05-02T09:50:27.47Z</time></trkpt><trkpt lat="46.140315" lon="13.614521"><ele>561.0</ele><time>2026-05-02T09:50:28.469Z</time></trkpt><trkpt lat="46.1402488" lon="13.6144678"><ele>561.0</ele><time>2026-05-02T09:50:29.469Z</time></trkpt><trkpt lat="46.1401967" lon="13.6143952"><ele>561.0</ele><time>2026-05-02T09:50:30.473Z</time></trkpt><trkpt lat="46.1401452" lon="13.6142935"><ele>561.0</ele><time>2026-05-02T09:50:31.47Z</time></trkpt><trkpt lat="46.1400668" lon="13.6141772"><ele>561.0</ele><time>2026-05-02T09:50:32.469Z</time></trkpt><trkpt lat="46.1399815" lon="13.6140635"><ele>561.0</ele><time>2026-05-02T09:50:33.469Z</time></trkpt><trkpt lat="46.1399088" lon="13.6139457"><ele>561.5</ele><time>2026-05-02T09:50:34.469Z</time></trkpt><trkpt lat="46.139856" lon="13.613846"><ele>562.0</ele><time>2026-05-02T09:50:35.469Z</time></trkpt><trkpt lat="46.1398033" lon="13.6137905"><ele>562.5</ele><time>2026-05-02T09:50:36.47Z</time></trkpt><trkpt lat="46.1397325" lon="13.613757"><ele>563.0</ele><time>2026-05-02T09:50:37.47Z</time></trkpt><trkpt lat="46.1396473" lon="13.6137192"><ele>563.5</ele><time>2026-05-02T09:50:38.469Z</time></trkpt><trkpt lat="46.1395613" lon="13.6136817"><ele>564.0</ele><time>2026-05-02T09:50:39.47Z</time></trkpt><trkpt lat="46.1394827" lon="13.6136273"><ele>564.0</ele><time>2026-05-02T09:50:40.47Z</time></trkpt><trkpt lat="46.1394145" lon="13.613552"><ele>564.0</ele><time>2026-05-02T09:50:41.469Z</time></trkpt><trkpt lat="46.1393558" lon="13.6134827"><ele>564.0</ele><time>2026-05-02T09:50:42.469Z</time></trkpt><trkpt lat="46.1391768" lon="13.6134215"><ele>564.0</ele><time>2026-05-02T09:50:45.469Z</time></trkpt><trkpt lat="46.139109" lon="13.61346"><ele>564.0</ele><time>2026-05-02T09:50:46.471Z</time></trkpt><trkpt lat="46.1390487" lon="13.6135205"><ele>565.6</ele><time>2026-05-02T09:50:47.473Z</time></trkpt><trkpt lat="46.1389808" lon="13.613592"><ele>567.2</ele><time>2026-05-02T09:50:48.471Z</time></trkpt><trkpt lat="46.1389252" lon="13.6136588"><ele>568.8000000000001</ele><time>2026-05-02T09:50:49.47Z</time></trkpt><trkpt lat="46.1388622" lon="13.6137488"><ele>570.4</ele><time>2026-05-02T09:50:51.47Z</time></trkpt><trkpt lat="46.138803" lon="13.6138237"><ele>572.0</ele><time>2026-05-02T09:51:36.472Z</time></trkpt><trkpt lat="46.1386817" lon="13.6140755"><ele>572.0</ele><time>2026-05-02T09:51:39.472Z</time></trkpt><trkpt lat="46.138615" lon="13.6141663"><ele>572.0</ele><time>2026-05-02T09:51:40.471Z</time></trkpt><trkpt lat="46.1385393" lon="13.614249"><ele>572.0</ele><time>2026-05-02T09:51:41.471Z</time></trkpt><trkpt lat="46.1384578" lon="13.6143178"><ele>572.0</ele><time>2026-05-02T09:51:42.472Z</time></trkpt><trkpt lat="46.1383705" lon="13.6143685"><ele>572.0</ele><time>2026-05-02T09:51:43.471Z</time></trkpt><trkpt lat="46.138272" lon="13.6143922"><ele>571.8000000000001</ele><time>2026-05-02T09:51:44.471Z</time></trkpt><trkpt lat="46.1381607" lon="13.614389"><ele>571.6</ele><time>2026-05-02T09:51:45.47Z</time></trkpt><trkpt lat="46.1380435" lon="13.6143937"><ele>571.4000000000001</ele><time>2026-05-02T09:51:46.473Z</time></trkpt><trkpt lat="46.1379452" lon="13.6144167"><ele>571.2</ele><time>2026-05-02T09:51:47.472Z</time></trkpt><trkpt lat="46.1378663" lon="13.6144638"><ele>571.0</ele><time>2026-05-02T09:51:48.471Z</time></trkpt><trkpt lat="46.1378023" lon="13.6145422"><ele>571.0</ele><time>2026-05-02T09:51:49.47Z</time></trkpt><trkpt lat="46.1377442" lon="13.6146562"><ele>571.0</ele><time>2026-05-02T09:51:50.47Z</time></trkpt><trkpt lat="46.1376907" lon="13.6148042"><ele>571.0</ele><time>2026-05-02T09:51:51.471Z</time></trkpt><trkpt lat="46.1376408" lon="13.6149723"><ele>571.0</ele><time>2026-05-02T09:51:52.475Z</time></trkpt><trkpt lat="46.137603" lon="13.6151572"><ele>574.8</ele><time>2026-05-02T09:51:53.471Z</time></trkpt><trkpt lat="46.1375792" lon="13.6153418"><ele>578.6</ele><time>2026-05-02T09:51:54.472Z</time></trkpt><trkpt lat="46.1375613" lon="13.6154998"><ele>582.4</ele><time>2026-05-02T09:51:55.472Z</time></trkpt><trkpt lat="46.1375342" lon="13.6156257"><ele>586.2</ele><time>2026-05-02T09:51:56.469Z</time></trkpt><trkpt lat="46.1374718" lon="13.6157418"><ele>590.0</ele><time>2026-05-02T09:51:57.47Z</time></trkpt><trkpt lat="46.1372797" lon="13.615888"><ele>590.0</ele><time>2026-05-02T09:51:59.47Z</time></trkpt><trkpt lat="46.1371522" lon="13.6159318"><ele>590.0</ele><time>2026-05-02T09:52:00.469Z</time></trkpt><trkpt lat="46.1370263" lon="13.6160025"><ele>590.0</ele><time>2026-05-02T09:52:01.47Z</time></trkpt><trkpt lat="46.1369" lon="13.6160538"><ele>590.0</ele><time>2026-05-02T09:52:02.473Z</time></trkpt><trkpt lat="46.1367655" lon="13.6160685"><ele>590.0</ele><time>2026-05-02T09:52:03.47Z</time></trkpt><trkpt lat="46.1366327" lon="13.616051"><ele>590.0</ele><time>2026-05-02T09:52:04.469Z</time></trkpt><trkpt lat="46.1365008" lon="13.6160013"><ele>590.0</ele><time>2026-05-02T09:52:05.469Z</time></trkpt><trkpt lat="46.1363802" lon="13.6159372"><ele>590.0</ele><time>2026-05-02T09:52:06.47Z</time></trkpt><trkpt lat="46.136279" lon="13.6158797"><ele>591.6666666666666</ele><time>2026-05-02T09:52:07.47Z</time></trkpt><trkpt lat="46.136198" lon="13.61584"><ele>593.3333333333333</ele><time>2026-05-02T09:52:08.472Z</time></trkpt><trkpt lat="46.1361328" lon="13.615817"><ele>595.0</ele><time>2026-05-02T09:52:09.471Z</time></trkpt><trkpt lat="46.1360863" lon="13.6158872"><ele>596.6666666666666</ele><time>2026-05-02T09:52:12.473Z</time></trkpt><trkpt lat="46.1361652" lon="13.6159447"><ele>598.3333333333334</ele><time>2026-05-02T09:52:14.472Z</time></trkpt><trkpt lat="46.1362447" lon="13.6159752"><ele>600.0</ele><time>2026-05-02T09:52:15.475Z</time></trkpt><trkpt lat="46.1363458" lon="13.6160218"><ele>600.0</ele><time>2026-05-02T09:52:16.473Z</time></trkpt><trkpt lat="46.1364703" lon="13.6160867"><ele>600.0</ele><time>2026-05-02T09:52:17.471Z</time></trkpt><trkpt lat="46.1366085" lon="13.6161437"><ele>600.0</ele><time>2026-05-02T09:52:18.472Z</time></trkpt><trkpt lat="46.1369233" lon="13.616191"><ele>598.3333333333334</ele><time>2026-05-02T09:52:20.468Z</time></trkpt><trkpt lat="46.1370878" lon="13.6161623"><ele>596.6666666666667</ele><time>2026-05-02T09:52:21.468Z</time></trkpt><trkpt lat="46.1372527" lon="13.6161197"><ele>595.0</ele><time>2026-05-02T09:52:22.471Z</time></trkpt><trkpt lat="46.1375195" lon="13.6159892"><ele>595.0</ele><time>2026-05-02T09:52:24.47Z</time></trkpt><trkpt lat="46.1376123" lon="13.6159155"><ele>595.0</ele><time>2026-05-02T09:52:25.475Z</time></trkpt><trkpt lat="46.1376778" lon="13.6157965"><ele>595.0</ele><time>2026-05-02T09:52:26.47Z</time></trkpt><trkpt lat="46.1377492" lon="13.615653"><ele>595.0</ele><time>2026-05-02T09:52:27.471Z</time></trkpt><trkpt lat="46.1378187" lon="13.6154993"><ele>595.0</ele><time>2026-05-02T09:52:28.47Z</time></trkpt><trkpt lat="46.1378868" lon="13.6153437"><ele>595.0</ele><time>2026-05-02T09:52:29.47Z</time></trkpt><trkpt lat="46.13794" lon="13.6152028"><ele>595.0</ele><time>2026-05-02T09:52:30.471Z</time></trkpt><trkpt lat="46.1380023" lon="13.6150835"><ele>595.0</ele><time>2026-05-02T09:52:31.471Z</time></trkpt><trkpt lat="46.138091" lon="13.614995"><ele>596.5</ele><time>2026-05-02T09:52:32.472Z</time></trkpt><trkpt lat="46.1381968" lon="13.6149502"><ele>598.0</ele><time>2026-05-02T09:52:33.472Z</time></trkpt><trkpt lat="46.1383193" lon="13.6149425"><ele>599.5</ele><time>2026-05-02T09:52:34.472Z</time></trkpt><trkpt lat="46.1384518" lon="13.6149532"><ele>601.0</ele><time>2026-05-02T09:52:35.472Z</time></trkpt><trkpt lat="46.1385942" lon="13.6149642"><ele>601.0</ele><time>2026-05-02T09:52:36.473Z</time></trkpt><trkpt lat="46.1387455" lon="13.614952"><ele>601.0</ele><time>2026-05-02T09:52:37.476Z</time></trkpt><trkpt lat="46.1388963" lon="13.6149373"><ele>601.0</ele><time>2026-05-02T09:52:38.473Z</time></trkpt><trkpt lat="46.1390143" lon="13.6149142"><ele>601.0</ele><time>2026-05-02T09:52:39.473Z</time></trkpt><trkpt lat="46.1391792" lon="13.6149263"><ele>601.0</ele><time>2026-05-02T09:52:41.473Z</time></trkpt><trkpt lat="46.1392795" lon="13.6151193"><ele>601.0</ele><time>2026-05-02T09:52:43.474Z</time></trkpt><trkpt lat="46.139307" lon="13.6152643"><ele>601.0</ele><time>2026-05-02T09:52:44.471Z</time></trkpt><trkpt lat="46.1393188" lon="13.6154373"><ele>601.0</ele><time>2026-05-02T09:52:45.471Z</time></trkpt><trkpt lat="46.1393128" lon="13.6156512"><ele>603.0</ele><time>2026-05-02T09:52:46.472Z</time></trkpt><trkpt lat="46.1393187" lon="13.6158787"><ele>605.0</ele><time>2026-05-02T09:52:47.47Z</time></trkpt><trkpt lat="46.1393438" lon="13.6160912"><ele>607.0</ele><time>2026-05-02T09:52:48.473Z</time></trkpt><trkpt lat="46.139381" lon="13.6162698"><ele>609.0</ele><time>2026-05-02T09:52:49.473Z</time></trkpt><trkpt lat="46.1394287" lon="13.6164025"><ele>608.4</ele><time>2026-05-02T09:52:50.472Z</time></trkpt><trkpt lat="46.1394928" lon="13.6164882"><ele>607.8</ele><time>2026-05-02T09:52:51.474Z</time></trkpt><trkpt lat="46.1395775" lon="13.6165355"><ele>607.2</ele><time>2026-05-02T09:52:52.474Z</time></trkpt><trkpt lat="46.1396813" lon="13.6165355"><ele>606.6</ele><time>2026-05-02T09:52:53.473Z</time></trkpt><trkpt lat="46.1398033" lon="13.6165057"><ele>606.0</ele><time>2026-05-02T09:52:54.474Z</time></trkpt><trkpt lat="46.1399373" lon="13.6164832"><ele>606.0</ele><time>2026-05-02T09:52:55.472Z</time></trkpt><trkpt lat="46.1400673" lon="13.616483"><ele>606.0</ele><time>2026-05-02T09:52:56.473Z</time></trkpt><trkpt lat="46.1401797" lon="13.6165043"><ele>606.0</ele><time>2026-05-02T09:52:57.474Z</time></trkpt><trkpt lat="46.1402777" lon="13.6165623"><ele>606.0</ele><time>2026-05-02T09:52:58.472Z</time></trkpt><trkpt lat="46.1403658" lon="13.616671"><ele>606.0</ele><time>2026-05-02T09:52:59.472Z</time></trkpt><trkpt lat="46.140453" lon="13.6168168"><ele>606.0</ele><time>2026-05-02T09:53:00.473Z</time></trkpt><trkpt lat="46.1405823" lon="13.6171307"><ele>606.0</ele><time>2026-05-02T09:53:02.473Z</time></trkpt><trkpt lat="46.1406257" lon="13.6172568"><ele>607.5</ele><time>2026-05-02T09:53:03.473Z</time></trkpt><trkpt lat="46.1406855" lon="13.6173385"><ele>609.0</ele><time>2026-05-02T09:53:04.473Z</time></trkpt><trkpt lat="46.140754" lon="13.617371"><ele>610.5</ele><time>2026-05-02T09:53:05.473Z</time></trkpt><trkpt lat="46.140823" lon="13.6173388"><ele>612.0</ele><time>2026-05-02T09:53:06.473Z</time></trkpt><trkpt lat="46.1408785" lon="13.6172522"><ele>613.5</ele><time>2026-05-02T09:53:07.474Z</time></trkpt><trkpt lat="46.1409277" lon="13.6171395"><ele>615.0</ele><time>2026-05-02T09:53:08.471Z</time></trkpt><trkpt lat="46.141001" lon="13.6170373"><ele>615.0</ele><time>2026-05-02T09:53:09.471Z</time></trkpt><trkpt lat="46.1410998" lon="13.6169658"><ele>615.0</ele><time>2026-05-02T09:53:10.471Z</time></trkpt><trkpt lat="46.1412137" lon="13.6169442"><ele>615.0</ele><time>2026-05-02T09:53:11.472Z</time></trkpt><trkpt lat="46.1413328" lon="13.6169668"><ele>615.0</ele><time>2026-05-02T09:53:12.472Z</time></trkpt><trkpt lat="46.1414483" lon="13.6169915"><ele>612.5</ele><time>2026-05-02T09:53:13.472Z</time></trkpt><trkpt lat="46.1415483" lon="13.6169762"><ele>610.0</ele><time>2026-05-02T09:53:14.473Z</time></trkpt><trkpt lat="46.1416213" lon="13.6169118"><ele>607.5</ele><time>2026-05-02T09:53:15.472Z</time></trkpt><trkpt lat="46.1416748" lon="13.6168003"><ele>605.0</ele><time>2026-05-02T09:53:16.476Z</time></trkpt><trkpt lat="46.1417738" lon="13.6164973"><ele>605.0</ele><time>2026-05-02T09:53:18.471Z</time></trkpt><trkpt lat="46.1418288" lon="13.616332"><ele>605.0</ele><time>2026-05-02T09:53:19.472Z</time></trkpt><trkpt lat="46.1418803" lon="13.6161787"><ele>605.0</ele><time>2026-05-02T09:53:20.472Z</time></trkpt><trkpt lat="46.1419392" lon="13.6160325"><ele>605.0</ele><time>2026-05-02T09:53:21.473Z</time></trkpt><trkpt lat="46.1421233" lon="13.6157977"><ele>606.0</ele><time>2026-05-02T09:53:23.472Z</time></trkpt><trkpt lat="46.1422505" lon="13.6157015"><ele>607.0</ele><time>2026-05-02T09:53:24.475Z</time></trkpt><trkpt lat="46.1423907" lon="13.6155985"><ele>608.0</ele><time>2026-05-02T09:53:25.473Z</time></trkpt><trkpt lat="46.1425342" lon="13.6154868"><ele>608.0</ele><time>2026-05-02T09:53:26.474Z</time></trkpt><trkpt lat="46.142667" lon="13.6153798"><ele>608.0</ele><time>2026-05-02T09:53:27.476Z</time></trkpt><trkpt lat="46.1427873" lon="13.615283"><ele>608.0</ele><time>2026-05-02T09:53:28.473Z</time></trkpt><trkpt lat="46.1428893" lon="13.6152182"><ele>608.0</ele><time>2026-05-02T09:53:29.472Z</time></trkpt><trkpt lat="46.1429792" lon="13.6151967"><ele>608.0</ele><time>2026-05-02T09:53:30.476Z</time></trkpt><trkpt lat="46.1430485" lon="13.615218"><ele>608.0</ele><time>2026-05-02T09:53:31.473Z</time></trkpt><trkpt lat="46.1430945" lon="13.615298"><ele>608.0</ele><time>2026-05-02T09:53:33.472Z</time></trkpt><trkpt lat="46.1430172" lon="13.6153915"><ele>608.0</ele><time>2026-05-02T09:53:36.47Z</time></trkpt><trkpt lat="46.1429408" lon="13.615501"><ele>608.0</ele><time>2026-05-02T09:53:38.473Z</time></trkpt><trkpt lat="46.1428938" lon="13.6155735"><ele>608.0</ele><time>2026-05-02T09:53:39.473Z</time></trkpt><trkpt lat="46.1428383" lon="13.6156503"><ele>608.0</ele><time>2026-05-02T09:53:40.473Z</time></trkpt><trkpt lat="46.1427877" lon="13.6157108"><ele>608.0</ele><time>2026-05-02T09:53:41.474Z</time></trkpt><trkpt lat="46.1427183" lon="13.6158023"><ele>608.0</ele><time>2026-05-02T09:53:43.473Z</time></trkpt><trkpt lat="46.142853" lon="13.615667"><ele>608.0</ele><time>2026-05-02T09:53:57.472Z</time></trkpt><trkpt lat="46.1429233" lon="13.6155707"><ele>608.0</ele><time>2026-05-02T09:53:58.473Z</time></trkpt><trkpt lat="46.1429863" lon="13.6154765"><ele>608.0</ele><time>2026-05-02T09:53:59.473Z</time></trkpt><trkpt lat="46.1430397" lon="13.6154015"><ele>608.0</ele><time>2026-05-02T09:54:00.472Z</time></trkpt><trkpt lat="46.1431353" lon="13.6153392"><ele>608.0</ele><time>2026-05-02T09:54:02.473Z</time></trkpt><trkpt lat="46.1432223" lon="13.6154508"><ele>608.0</ele><time>2026-05-02T09:54:04.473Z</time></trkpt><trkpt lat="46.143234" lon="13.6157207"><ele>608.0</ele><time>2026-05-02T09:54:06.474Z</time></trkpt><trkpt lat="46.1432132" lon="13.6158777"><ele>608.0</ele><time>2026-05-02T09:54:07.473Z</time></trkpt><trkpt lat="46.1432042" lon="13.6160437"><ele>608.0</ele><time>2026-05-02T09:54:08.473Z</time></trkpt><trkpt lat="46.1432255" lon="13.6162073"><ele>608.0</ele><time>2026-05-02T09:54:09.474Z</time></trkpt><trkpt lat="46.1432777" lon="13.6163642"><ele>608.75</ele><time>2026-05-02T09:54:10.474Z</time></trkpt><trkpt lat="46.1433447" lon="13.6165132"><ele>609.5</ele><time>2026-05-02T09:54:11.472Z</time></trkpt><trkpt lat="46.1433983" lon="13.616656"><ele>610.25</ele><time>2026-05-02T09:54:12.475Z</time></trkpt><trkpt lat="46.1434218" lon="13.6168018"><ele>611.0</ele><time>2026-05-02T09:54:13.473Z</time></trkpt><trkpt lat="46.1434085" lon="13.6169613"><ele>611.5</ele><time>2026-05-02T09:54:14.473Z</time></trkpt><trkpt lat="46.1433623" lon="13.6171283"><ele>612.0</ele><time>2026-05-02T09:54:15.473Z</time></trkpt><trkpt lat="46.1432957" lon="13.6173118"><ele>612.5</ele><time>2026-05-02T09:54:16.474Z</time></trkpt><trkpt lat="46.1432247" lon="13.617513"><ele>613.0</ele><time>2026-05-02T09:54:17.472Z</time></trkpt><trkpt lat="46.143156" lon="13.6177208"><ele>618.75</ele><time>2026-05-02T09:54:18.473Z</time></trkpt><trkpt lat="46.1430915" lon="13.617911"><ele>624.5</ele><time>2026-05-02T09:54:19.473Z</time></trkpt><trkpt lat="46.1430372" lon="13.6180842"><ele>630.25</ele><time>2026-05-02T09:54:20.473Z</time></trkpt><trkpt lat="46.1429982" lon="13.6182442"><ele>636.0</ele><time>2026-05-02T09:54:21.473Z</time></trkpt><trkpt lat="46.1429918" lon="13.6184035"><ele>636.0</ele><time>2026-05-02T09:54:22.471Z</time></trkpt><trkpt lat="46.1430187" lon="13.6185613"><ele>636.0</ele><time>2026-05-02T09:54:23.473Z</time></trkpt><trkpt lat="46.1430633" lon="13.6187152"><ele>636.0</ele><time>2026-05-02T09:54:24.473Z</time></trkpt><trkpt lat="46.1430977" lon="13.6188833"><ele>636.0</ele><time>2026-05-02T09:54:25.472Z</time></trkpt><trkpt lat="46.1431187" lon="13.619292"><ele>635.3333333333334</ele><time>2026-05-02T09:54:27.474Z</time></trkpt><trkpt lat="46.1431143" lon="13.6195177"><ele>634.6666666666667</ele><time>2026-05-02T09:54:28.473Z</time></trkpt><trkpt lat="46.143094" lon="13.6197512"><ele>634.0</ele><time>2026-05-02T09:54:29.473Z</time></trkpt><trkpt lat="46.1430542" lon="13.6199883"><ele>634.0</ele><time>2026-05-02T09:54:30.473Z</time></trkpt><trkpt lat="46.143" lon="13.6202325"><ele>634.0</ele><time>2026-05-02T09:54:31.474Z</time></trkpt><trkpt lat="46.1429433" lon="13.6204655"><ele>634.0</ele><time>2026-05-02T09:54:32.473Z</time></trkpt><trkpt lat="46.1428933" lon="13.620681"><ele>631.5</ele><time>2026-05-02T09:54:33.474Z</time></trkpt><trkpt lat="46.1428588" lon="13.62088"><ele>629.0</ele><time>2026-05-02T09:54:34.474Z</time></trkpt><trkpt lat="46.142845" lon="13.6210663"><ele>626.5</ele><time>2026-05-02T09:54:35.474Z</time></trkpt><trkpt lat="46.1428577" lon="13.6212432"><ele>624.0</ele><time>2026-05-02T09:54:36.475Z</time></trkpt><trkpt lat="46.1428923" lon="13.6214158"><ele>620.0</ele><time>2026-05-02T09:54:37.474Z</time></trkpt><trkpt lat="46.1429765" lon="13.6215883"><ele>616.0</ele><time>2026-05-02T09:54:38.473Z</time></trkpt><trkpt lat="46.1430757" lon="13.6217337"><ele>612.0</ele><time>2026-05-02T09:54:39.474Z</time></trkpt><trkpt lat="46.1431678" lon="13.6218472"><ele>608.0</ele><time>2026-05-02T09:54:40.473Z</time></trkpt><trkpt lat="46.1432403" lon="13.621945"><ele>606.1999999999999</ele><time>2026-05-02T09:54:41.472Z</time></trkpt><trkpt lat="46.1432817" lon="13.622067"><ele>604.4</ele><time>2026-05-02T09:54:42.472Z</time></trkpt><trkpt lat="46.1432843" lon="13.6222187"><ele>602.5999999999999</ele><time>2026-05-02T09:54:43.474Z</time></trkpt><trkpt lat="46.1432717" lon="13.6223838"><ele>600.8</ele><time>2026-05-02T09:54:44.473Z</time></trkpt><trkpt lat="46.1432473" lon="13.6225582"><ele>599.0</ele><time>2026-05-02T09:54:45.473Z</time></trkpt><trkpt lat="46.143247" lon="13.6227397"><ele>597.6666666666666</ele><time>2026-05-02T09:54:46.473Z</time></trkpt><trkpt lat="46.1433005" lon="13.6231012"><ele>596.3333333333334</ele><time>2026-05-02T09:54:48.472Z</time></trkpt><trkpt lat="46.1433503" lon="13.623243"><ele>595.0</ele><time>2026-05-02T09:54:49.471Z</time></trkpt><trkpt lat="46.1434193" lon="13.6233547"><ele>595.0</ele><time>2026-05-02T09:54:50.478Z</time></trkpt><trkpt lat="46.1435138" lon="13.6234408"><ele>595.0</ele><time>2026-05-02T09:54:51.472Z</time></trkpt><trkpt lat="46.1436158" lon="13.6235127"><ele>595.0</ele><time>2026-05-02T09:54:52.473Z</time></trkpt><trkpt lat="46.1437065" lon="13.6236115"><ele>595.0</ele><time>2026-05-02T09:54:53.473Z</time></trkpt><trkpt lat="46.1437862" lon="13.6237417"><ele>594.0</ele><time>2026-05-02T09:54:54.472Z</time></trkpt><trkpt lat="46.1438503" lon="13.6238822"><ele>593.0</ele><time>2026-05-02T09:54:55.472Z</time></trkpt><trkpt lat="46.1438992" lon="13.6240027"><ele>592.0</ele><time>2026-05-02T09:54:56.475Z</time></trkpt><trkpt lat="46.1439325" lon="13.6241132"><ele>591.0</ele><time>2026-05-02T09:54:57.473Z</time></trkpt><trkpt lat="46.1439583" lon="13.6242268"><ele>590.0</ele><time>2026-05-02T09:54:58.472Z</time></trkpt><trkpt lat="46.1439783" lon="13.6243348"><ele>590.0</ele><time>2026-05-02T09:54:59.472Z</time></trkpt><trkpt lat="46.1440063" lon="13.6244582"><ele>590.0</ele><time>2026-05-02T09:55:01.472Z</time></trkpt><trkpt lat="46.1439467" lon="13.6245295"><ele>590.0</ele><time>2026-05-02T09:55:08.473Z</time></trkpt><trkpt lat="46.1438582" lon="13.6245938"><ele>590.0</ele><time>2026-05-02T09:55:15.474Z</time></trkpt><trkpt lat="46.1439355" lon="13.624705"><ele>590.0</ele><time>2026-05-02T09:55:17.472Z</time></trkpt><trkpt lat="46.1439838" lon="13.6247902"><ele>588.1666666666666</ele><time>2026-05-02T09:55:18.473Z</time></trkpt><trkpt lat="46.144027" lon="13.624888"><ele>586.3333333333333</ele><time>2026-05-02T09:55:19.475Z</time></trkpt><trkpt lat="46.1440728" lon="13.624991"><ele>584.5</ele><time>2026-05-02T09:55:20.471Z</time></trkpt><trkpt lat="46.144122" lon="13.6250965"><ele>582.6666666666666</ele><time>2026-05-02T09:55:21.471Z</time></trkpt><trkpt lat="46.1441572" lon="13.6252152"><ele>580.8333333333334</ele><time>2026-05-02T09:55:22.471Z</time></trkpt><trkpt lat="46.1441862" lon="13.6253562"><ele>579.0</ele><time>2026-05-02T09:55:23.472Z</time></trkpt><trkpt lat="46.144219" lon="13.6255228"><ele>585.5</ele><time>2026-05-02T09:55:24.473Z</time></trkpt><trkpt lat="46.1442505" lon="13.625709"><ele>592.0</ele><time>2026-05-02T09:55:25.472Z</time></trkpt><trkpt lat="46.1442785" lon="13.6259045"><ele>598.5</ele><time>2026-05-02T09:55:26.472Z</time></trkpt><trkpt lat="46.144301" lon="13.6261002"><ele>605.0</ele><time>2026-05-02T09:55:27.473Z</time></trkpt><trkpt lat="46.1443222" lon="13.6262962"><ele>605.0</ele><time>2026-05-02T09:55:28.471Z</time></trkpt><trkpt lat="46.1443362" lon="13.6264838"><ele>605.0</ele><time>2026-05-02T09:55:29.471Z</time></trkpt><trkpt lat="46.1443587" lon="13.6268105"><ele>605.0</ele><time>2026-05-02T09:55:31.472Z</time></trkpt><trkpt lat="46.144374" lon="13.6269358"><ele>605.0</ele><time>2026-05-02T09:55:32.472Z</time></trkpt><trkpt lat="46.1443978" lon="13.6270315"><ele>604.3333333333333</ele><time>2026-05-02T09:55:33.472Z</time></trkpt><trkpt lat="46.144428" lon="13.6271192"><ele>603.6666666666666</ele><time>2026-05-02T09:55:34.472Z</time></trkpt><trkpt lat="46.1444818" lon="13.6272133"><ele>603.0</ele><time>2026-05-02T09:55:35.472Z</time></trkpt><trkpt lat="46.1445445" lon="13.6273178"><ele>602.3333333333334</ele><time>2026-05-02T09:55:36.47Z</time></trkpt><trkpt lat="46.1446057" lon="13.6274162"><ele>601.6666666666667</ele><time>2026-05-02T09:55:37.471Z</time></trkpt><trkpt lat="46.1446627" lon="13.6275007"><ele>601.0</ele><time>2026-05-02T09:55:38.47Z</time></trkpt><trkpt lat="46.1447315" lon="13.627565"><ele>601.0</ele><time>2026-05-02T09:55:39.471Z</time></trkpt><trkpt lat="46.1448115" lon="13.6276312"><ele>601.0</ele><time>2026-05-02T09:55:40.473Z</time></trkpt><trkpt lat="46.1449072" lon="13.6276853"><ele>601.0</ele><time>2026-05-02T09:55:41.472Z</time></trkpt><trkpt lat="46.1449972" lon="13.6277423"><ele>601.0</ele><time>2026-05-02T09:55:42.473Z</time></trkpt><trkpt lat="46.1450707" lon="13.6278205"><ele>601.0</ele><time>2026-05-02T09:55:43.472Z</time></trkpt><trkpt lat="46.1451353" lon="13.6279197"><ele>601.8</ele><time>2026-05-02T09:55:44.472Z</time></trkpt><trkpt lat="46.1451858" lon="13.6280433"><ele>602.6</ele><time>2026-05-02T09:55:45.472Z</time></trkpt><trkpt lat="46.1452258" lon="13.6281603"><ele>603.4</ele><time>2026-05-02T09:55:46.472Z</time></trkpt><trkpt lat="46.1452837" lon="13.6282592"><ele>604.2</ele><time>2026-05-02T09:55:47.472Z</time></trkpt><trkpt lat="46.1453532" lon="13.6283558"><ele>605.0</ele><time>2026-05-02T09:55:48.472Z</time></trkpt><trkpt lat="46.1454427" lon="13.6284428"><ele>605.0</ele><time>2026-05-02T09:55:49.471Z</time></trkpt><trkpt lat="46.1455288" lon="13.6285203"><ele>605.0</ele><time>2026-05-02T09:55:50.471Z</time></trkpt><trkpt lat="46.1456708" lon="13.6286482"><ele>605.0</ele><time>2026-05-02T09:55:52.47Z</time></trkpt><trkpt lat="46.1457312" lon="13.6288067"><ele>605.0</ele><time>2026-05-02T09:55:54.47Z</time></trkpt><trkpt lat="46.145725" lon="13.6289"><ele>602.0</ele><time>2026-05-02T09:55:55.471Z</time></trkpt><trkpt lat="46.1456987" lon="13.6289998"><ele>599.0</ele><time>2026-05-02T09:55:56.472Z</time></trkpt><trkpt lat="46.1456622" lon="13.6291358"><ele>596.0</ele><time>2026-05-02T09:55:57.473Z</time></trkpt><trkpt lat="46.1456072" lon="13.6292895"><ele>593.0</ele><time>2026-05-02T09:55:58.47Z</time></trkpt><trkpt lat="46.1455638" lon="13.6294652"><ele>590.0</ele><time>2026-05-02T09:55:59.471Z</time></trkpt><trkpt lat="46.1455235" lon="13.6296412"><ele>589.5</ele><time>2026-05-02T09:56:00.469Z</time></trkpt><trkpt lat="46.1454707" lon="13.629795"><ele>589.0</ele><time>2026-05-02T09:56:01.468Z</time></trkpt><trkpt lat="46.1454075" lon="13.6299335"><ele>588.5</ele><time>2026-05-02T09:56:02.468Z</time></trkpt><trkpt lat="46.145332" lon="13.6300652"><ele>588.0</ele><time>2026-05-02T09:56:03.469Z</time></trkpt><trkpt lat="46.1452467" lon="13.630187"><ele>588.0</ele><time>2026-05-02T09:56:04.47Z</time></trkpt><trkpt lat="46.1451792" lon="13.630305"><ele>588.0</ele><time>2026-05-02T09:56:05.47Z</time></trkpt><trkpt lat="46.145137" lon="13.6304157"><ele>588.0</ele><time>2026-05-02T09:56:06.471Z</time></trkpt><trkpt lat="46.1451287" lon="13.6305828"><ele>588.0</ele><time>2026-05-02T09:56:08.472Z</time></trkpt><trkpt lat="46.1451543" lon="13.630679"><ele>588.0</ele><time>2026-05-02T09:56:09.472Z</time></trkpt><trkpt lat="46.1451968" lon="13.6307845"><ele>587.5</ele><time>2026-05-02T09:56:10.47Z</time></trkpt><trkpt lat="46.1452465" lon="13.6308878"><ele>587.0</ele><time>2026-05-02T09:56:11.473Z</time></trkpt><trkpt lat="46.1453848" lon="13.6310782"><ele>586.5</ele><time>2026-05-02T09:56:13.471Z</time></trkpt><trkpt lat="46.1454597" lon="13.6311783"><ele>586.0</ele><time>2026-05-02T09:56:14.471Z</time></trkpt><trkpt lat="46.1455282" lon="13.6312545"><ele>586.0</ele><time>2026-05-02T09:56:15.472Z</time></trkpt><trkpt lat="46.1456122" lon="13.6313242"><ele>586.0</ele><time>2026-05-02T09:56:16.47Z</time></trkpt><trkpt lat="46.1457242" lon="13.6313937"><ele>586.0</ele><time>2026-05-02T09:56:17.471Z</time></trkpt><trkpt lat="46.1458345" lon="13.6314578"><ele>586.0</ele><time>2026-05-02T09:56:18.471Z</time></trkpt><trkpt lat="46.1459387" lon="13.6315093"><ele>586.0</ele><time>2026-05-02T09:56:19.47Z</time></trkpt><trkpt lat="46.1460193" lon="13.6315415"><ele>591.4</ele><time>2026-05-02T09:56:20.47Z</time></trkpt><trkpt lat="46.1460837" lon="13.6315598"><ele>596.8</ele><time>2026-05-02T09:56:21.471Z</time></trkpt><trkpt lat="46.1461397" lon="13.631631"><ele>602.1999999999999</ele><time>2026-05-02T09:56:23.47Z</time></trkpt><trkpt lat="46.146094" lon="13.6317865"><ele>607.6</ele><time>2026-05-02T09:56:25.467Z</time></trkpt><trkpt lat="46.1460313" lon="13.631903"><ele>613.0</ele><time>2026-05-02T09:56:26.468Z</time></trkpt><trkpt lat="46.1459565" lon="13.6320567"><ele>613.0</ele><time>2026-05-02T09:56:27.467Z</time></trkpt><trkpt lat="46.1458842" lon="13.6322363"><ele>613.0</ele><time>2026-05-02T09:56:28.467Z</time></trkpt><trkpt lat="46.1458212" lon="13.6324135"><ele>613.0</ele><time>2026-05-02T09:56:29.468Z</time></trkpt><trkpt lat="46.1457715" lon="13.632568"><ele>613.0</ele><time>2026-05-02T09:56:30.469Z</time></trkpt><trkpt lat="46.1457137" lon="13.6327163"><ele>600.6666666666667</ele><time>2026-05-02T09:56:31.469Z</time></trkpt><trkpt lat="46.1456438" lon="13.6328695"><ele>588.3333333333334</ele><time>2026-05-02T09:56:32.468Z</time></trkpt><trkpt lat="46.1454882" lon="13.6332023"><ele>576.0</ele><time>2026-05-02T09:56:34.469Z</time></trkpt><trkpt lat="46.1454223" lon="13.6333627"><ele>576.0</ele><time>2026-05-02T09:56:35.469Z</time></trkpt><trkpt lat="46.145375" lon="13.6335022"><ele>576.0</ele><time>2026-05-02T09:56:36.469Z</time></trkpt><trkpt lat="46.1453257" lon="13.6336252"><ele>576.0</ele><time>2026-05-02T09:56:37.471Z</time></trkpt><trkpt lat="46.145253" lon="13.633729"><ele>576.0</ele><time>2026-05-02T09:56:38.469Z</time></trkpt><trkpt lat="46.145163" lon="13.6338408"><ele>576.0</ele><time>2026-05-02T09:56:39.468Z</time></trkpt><trkpt lat="46.1450895" lon="13.6339713"><ele>579.0</ele><time>2026-05-02T09:56:40.469Z</time></trkpt><trkpt lat="46.1450413" lon="13.6340797"><ele>582.0</ele><time>2026-05-02T09:56:41.469Z</time></trkpt><trkpt lat="46.1450142" lon="13.634183"><ele>585.0</ele><time>2026-05-02T09:56:42.47Z</time></trkpt><trkpt lat="46.1450257" lon="13.634363"><ele>588.0</ele><time>2026-05-02T09:56:44.471Z</time></trkpt><trkpt lat="46.1450683" lon="13.63448"><ele>591.0</ele><time>2026-05-02T09:56:45.47Z</time></trkpt><trkpt lat="46.1451267" lon="13.634584"><ele>591.0</ele><time>2026-05-02T09:56:46.47Z</time></trkpt><trkpt lat="46.1451998" lon="13.6346618"><ele>591.0</ele><time>2026-05-02T09:56:47.471Z</time></trkpt><trkpt lat="46.1452933" lon="13.634732"><ele>591.0</ele><time>2026-05-02T09:56:48.47Z</time></trkpt><trkpt lat="46.1453977" lon="13.6347898"><ele>591.0</ele><time>2026-05-02T09:56:49.469Z</time></trkpt><trkpt lat="46.1455045" lon="13.6348418"><ele>591.0</ele><time>2026-05-02T09:56:50.469Z</time></trkpt><trkpt lat="46.1456048" lon="13.634905"><ele>591.0</ele><time>2026-05-02T09:56:51.47Z</time></trkpt><trkpt lat="46.1457105" lon="13.6349755"><ele>591.0</ele><time>2026-05-02T09:56:52.469Z</time></trkpt><trkpt lat="46.1457933" lon="13.6350585"><ele>591.0</ele><time>2026-05-02T09:56:53.471Z</time></trkpt><trkpt lat="46.1459217" lon="13.635246"><ele>591.0</ele><time>2026-05-02T09:56:55.471Z</time></trkpt><trkpt lat="46.1459733" lon="13.6353508"><ele>593.1428571428571</ele><time>2026-05-02T09:56:56.471Z</time></trkpt><trkpt lat="46.1460128" lon="13.6354593"><ele>595.2857142857143</ele><time>2026-05-02T09:56:57.47Z</time></trkpt><trkpt lat="46.1460415" lon="13.6355645"><ele>597.4285714285714</ele><time>2026-05-02T09:56:58.469Z</time></trkpt><trkpt lat="46.1460523" lon="13.6356745"><ele>599.5714285714286</ele><time>2026-05-02T09:56:59.47Z</time></trkpt><trkpt lat="46.1460437" lon="13.6357655"><ele>601.7142857142857</ele><time>2026-05-02T09:57:00.47Z</time></trkpt><trkpt lat="46.1460218" lon="13.6358527"><ele>603.8571428571429</ele><time>2026-05-02T09:57:01.47Z</time></trkpt><trkpt lat="46.1459788" lon="13.6359233"><ele>606.0</ele><time>2026-05-02T09:57:02.471Z</time></trkpt><trkpt lat="46.1459177" lon="13.635987"><ele>606.0</ele><time>2026-05-02T09:57:03.47Z</time></trkpt><trkpt lat="46.1458497" lon="13.6360577"><ele>606.0</ele><time>2026-05-02T09:57:04.473Z</time></trkpt><trkpt lat="46.1457917" lon="13.6361463"><ele>606.0</ele><time>2026-05-02T09:57:05.469Z</time></trkpt><trkpt lat="46.1457488" lon="13.6362708"><ele>606.0</ele><time>2026-05-02T09:57:06.47Z</time></trkpt><trkpt lat="46.1457143" lon="13.636405"><ele>606.0</ele><time>2026-05-02T09:57:07.472Z</time></trkpt><trkpt lat="46.1456752" lon="13.63654"><ele>602.0</ele><time>2026-05-02T09:57:08.471Z</time></trkpt><trkpt lat="46.1456173" lon="13.6366747"><ele>598.0</ele><time>2026-05-02T09:57:09.47Z</time></trkpt><trkpt lat="46.1455468" lon="13.6368052"><ele>594.0</ele><time>2026-05-02T09:57:10.47Z</time></trkpt><trkpt lat="46.145477" lon="13.636932"><ele>590.0</ele><time>2026-05-02T09:57:11.474Z</time></trkpt><trkpt lat="46.1454177" lon="13.6370575"><ele>586.0</ele><time>2026-05-02T09:57:12.47Z</time></trkpt><trkpt lat="46.1453703" lon="13.6371875"><ele>586.0</ele><time>2026-05-02T09:57:13.47Z</time></trkpt><trkpt lat="46.1453293" lon="13.6373435"><ele>586.0</ele><time>2026-05-02T09:57:14.47Z</time></trkpt><trkpt lat="46.1452652" lon="13.6376537"><ele>586.0</ele><time>2026-05-02T09:57:16.469Z</time></trkpt><trkpt lat="46.1452415" lon="13.6377782"><ele>586.0</ele><time>2026-05-02T09:57:17.469Z</time></trkpt><trkpt lat="46.1452227" lon="13.6378817"><ele>587.5</ele><time>2026-05-02T09:57:18.474Z</time></trkpt><trkpt lat="46.1451953" lon="13.6379693"><ele>589.0</ele><time>2026-05-02T09:57:19.47Z</time></trkpt><trkpt lat="46.1451612" lon="13.638048"><ele>590.5</ele><time>2026-05-02T09:57:20.471Z</time></trkpt><trkpt lat="46.1450802" lon="13.6381265"><ele>592.0</ele><time>2026-05-02T09:57:22.47Z</time></trkpt><trkpt lat="46.1449682" lon="13.6381265"><ele>593.5</ele><time>2026-05-02T09:57:24.47Z</time></trkpt><trkpt lat="46.1448818" lon="13.6381153"><ele>595.0</ele><time>2026-05-02T09:57:25.47Z</time></trkpt><trkpt lat="46.1447778" lon="13.6381003"><ele>595.0</ele><time>2026-05-02T09:57:26.472Z</time></trkpt><trkpt lat="46.144681" lon="13.6380858"><ele>595.0</ele><time>2026-05-02T09:57:27.471Z</time></trkpt><trkpt lat="46.1445642" lon="13.6380583"><ele>595.0</ele><time>2026-05-02T09:57:28.472Z</time></trkpt><trkpt lat="46.1444525" lon="13.6380345"><ele>595.0</ele><time>2026-05-02T09:57:29.471Z</time></trkpt><trkpt lat="46.1443497" lon="13.6380278"><ele>595.0</ele><time>2026-05-02T09:57:30.47Z</time></trkpt><trkpt lat="46.1442592" lon="13.63804"><ele>595.0</ele><time>2026-05-02T09:57:31.469Z</time></trkpt><trkpt lat="46.1441742" lon="13.6380682"><ele>595.0</ele><time>2026-05-02T09:57:32.469Z</time></trkpt><trkpt lat="46.1440873" lon="13.6381368"><ele>595.0</ele><time>2026-05-02T09:57:33.471Z</time></trkpt><trkpt lat="46.1439868" lon="13.6381963"><ele>595.0</ele><time>2026-05-02T09:57:34.471Z</time></trkpt><trkpt lat="46.1438775" lon="13.6382543"><ele>595.0</ele><time>2026-05-02T09:57:35.471Z</time></trkpt><trkpt lat="46.1437125" lon="13.6383607"><ele>593.8333333333334</ele><time>2026-05-02T09:57:37.468Z</time></trkpt><trkpt lat="46.1436487" lon="13.6383832"><ele>592.6666666666667</ele><time>2026-05-02T09:57:38.466Z</time></trkpt><trkpt lat="46.1435767" lon="13.6383797"><ele>591.5</ele><time>2026-05-02T09:57:39.467Z</time></trkpt><trkpt lat="46.1435008" lon="13.6383618"><ele>590.3333333333334</ele><time>2026-05-02T09:57:40.468Z</time></trkpt><trkpt lat="46.1434048" lon="13.638338"><ele>589.1666666666666</ele><time>2026-05-02T09:57:41.467Z</time></trkpt><trkpt lat="46.1432935" lon="13.6383073"><ele>588.0</ele><time>2026-05-02T09:57:42.468Z</time></trkpt><trkpt lat="46.1431615" lon="13.6382822"><ele>588.0</ele><time>2026-05-02T09:57:43.469Z</time></trkpt><trkpt lat="46.1430277" lon="13.638246"><ele>588.0</ele><time>2026-05-02T09:57:44.469Z</time></trkpt><trkpt lat="46.1429082" lon="13.6382265"><ele>588.0</ele><time>2026-05-02T09:57:45.471Z</time></trkpt><trkpt lat="46.1428115" lon="13.6382185"><ele>588.0</ele><time>2026-05-02T09:57:46.468Z</time></trkpt><trkpt lat="46.1427358" lon="13.6382247"><ele>588.0</ele><time>2026-05-02T09:57:47.469Z</time></trkpt><trkpt lat="46.142666" lon="13.6382395"><ele>588.0</ele><time>2026-05-02T09:57:48.469Z</time></trkpt><trkpt lat="46.1426035" lon="13.6382592"><ele>588.0</ele><time>2026-05-02T09:57:49.468Z</time></trkpt><trkpt lat="46.14254" lon="13.638308"><ele>588.0</ele><time>2026-05-02T09:57:50.468Z</time></trkpt><trkpt lat="46.1424678" lon="13.6383658"><ele>588.0</ele><time>2026-05-02T09:57:51.468Z</time></trkpt><trkpt lat="46.1423797" lon="13.6384183"><ele>588.0</ele><time>2026-05-02T09:57:52.468Z</time></trkpt><trkpt lat="46.142273" lon="13.6384475"><ele>588.0</ele><time>2026-05-02T09:57:53.469Z</time></trkpt><trkpt lat="46.1421585" lon="13.638485"><ele>585.6666666666666</ele><time>2026-05-02T09:57:54.471Z</time></trkpt><trkpt lat="46.1420413" lon="13.6385295"><ele>583.3333333333333</ele><time>2026-05-02T09:57:55.47Z</time></trkpt><trkpt lat="46.1419152" lon="13.6385915"><ele>581.0</ele><time>2026-05-02T09:57:56.47Z</time></trkpt><trkpt lat="46.1416922" lon="13.638688"><ele>581.0</ele><time>2026-05-02T09:57:58.471Z</time></trkpt><trkpt lat="46.1416035" lon="13.6387222"><ele>581.0</ele><time>2026-05-02T09:57:59.47Z</time></trkpt><trkpt lat="46.1415378" lon="13.6387713"><ele>581.0</ele><time>2026-05-02T09:58:00.47Z</time></trkpt><trkpt lat="46.1414843" lon="13.638904"><ele>581.0</ele><time>2026-05-02T09:58:02.475Z</time></trkpt><trkpt lat="46.1414927" lon="13.6390543"><ele>581.0</ele><time>2026-05-02T09:58:04.47Z</time></trkpt><trkpt lat="46.1415203" lon="13.6391573"><ele>581.0</ele><time>2026-05-02T09:58:05.47Z</time></trkpt><trkpt lat="46.1415543" lon="13.6392942"><ele>581.0</ele><time>2026-05-02T09:58:06.472Z</time></trkpt><trkpt lat="46.1415845" lon="13.6394362"><ele>581.0</ele><time>2026-05-02T09:58:07.471Z</time></trkpt><trkpt lat="46.1416078" lon="13.6395773"><ele>581.0</ele><time>2026-05-02T09:58:08.472Z</time></trkpt><trkpt lat="46.141625" lon="13.6397012"><ele>581.0</ele><time>2026-05-02T09:58:09.471Z</time></trkpt><trkpt lat="46.1416575" lon="13.6398102"><ele>578.8333333333333</ele><time>2026-05-02T09:58:10.47Z</time></trkpt><trkpt lat="46.1417067" lon="13.6399055"><ele>576.6666666666666</ele><time>2026-05-02T09:58:11.471Z</time></trkpt><trkpt lat="46.1417657" lon="13.6400015"><ele>574.5</ele><time>2026-05-02T09:58:12.47Z</time></trkpt><trkpt lat="46.141824" lon="13.6400952"><ele>572.3333333333334</ele><time>2026-05-02T09:58:13.472Z</time></trkpt><trkpt lat="46.1418565" lon="13.6401978"><ele>570.1666666666667</ele><time>2026-05-02T09:58:14.471Z</time></trkpt><trkpt lat="46.1418908" lon="13.640338"><ele>568.0</ele><time>2026-05-02T09:58:16.472Z</time></trkpt><trkpt lat="46.1418313" lon="13.6403753"><ele>568.0</ele><time>2026-05-02T09:58:19.472Z</time></trkpt><trkpt lat="46.1417295" lon="13.6402013"><ele>568.0</ele><time>2026-05-02T09:58:22.472Z</time></trkpt><trkpt lat="46.1416565" lon="13.640142"><ele>568.0</ele><time>2026-05-02T09:58:23.472Z</time></trkpt><trkpt lat="46.1415707" lon="13.6400902"><ele>568.0</ele><time>2026-05-02T09:58:24.472Z</time></trkpt><trkpt lat="46.1415037" lon="13.6400442"><ele>568.0</ele><time>2026-05-02T09:58:25.472Z</time></trkpt><trkpt lat="46.1414295" lon="13.6399385"><ele>560.4</ele><time>2026-05-02T09:58:27.47Z</time></trkpt><trkpt lat="46.1414057" lon="13.6398463"><ele>552.8</ele><time>2026-05-02T09:58:28.47Z</time></trkpt><trkpt lat="46.1413727" lon="13.6397583"><ele>545.2</ele><time>2026-05-02T09:58:29.47Z</time></trkpt><trkpt lat="46.1412635" lon="13.6396457"><ele>537.6</ele><time>2026-05-02T09:58:31.472Z</time></trkpt><trkpt lat="46.1411852" lon="13.639593"><ele>530.0</ele><time>2026-05-02T09:58:32.47Z</time></trkpt><trkpt lat="46.1410895" lon="13.639534"><ele>530.0</ele><time>2026-05-02T09:58:33.472Z</time></trkpt><trkpt lat="46.1409793" lon="13.6394837"><ele>530.0</ele><time>2026-05-02T09:58:34.471Z</time></trkpt><trkpt lat="46.1408733" lon="13.6394363"><ele>530.0</ele><time>2026-05-02T09:58:35.47Z</time></trkpt><trkpt lat="46.1407727" lon="13.6393928"><ele>530.0</ele><time>2026-05-02T09:58:36.473Z</time></trkpt><trkpt lat="46.1406697" lon="13.6393737"><ele>530.0</ele><time>2026-05-02T09:58:37.472Z</time></trkpt><trkpt lat="46.1405675" lon="13.6393617"><ele>531.3333333333333</ele><time>2026-05-02T09:58:38.472Z</time></trkpt><trkpt lat="46.1404815" lon="13.6393477"><ele>532.6666666666666</ele><time>2026-05-02T09:58:39.472Z</time></trkpt><trkpt lat="46.1404013" lon="13.6393515"><ele>534.0</ele><time>2026-05-02T09:58:40.471Z</time></trkpt><trkpt lat="46.1403623" lon="13.639461"><ele>535.3333333333334</ele><time>2026-05-02T09:58:46.472Z</time></trkpt><trkpt lat="46.1404283" lon="13.6394888"><ele>536.6666666666667</ele><time>2026-05-02T09:58:47.472Z</time></trkpt><trkpt lat="46.1405065" lon="13.6395273"><ele>538.0</ele><time>2026-05-02T09:58:48.471Z</time></trkpt><trkpt lat="46.1405883" lon="13.6395882"><ele>536.4</ele><time>2026-05-02T09:58:49.472Z</time></trkpt><trkpt lat="46.1406662" lon="13.6396758"><ele>534.8</ele><time>2026-05-02T09:58:50.471Z</time></trkpt><trkpt lat="46.1407388" lon="13.6397627"><ele>533.2</ele><time>2026-05-02T09:58:51.47Z</time></trkpt><trkpt lat="46.140803" lon="13.6398438"><ele>531.6</ele><time>2026-05-02T09:58:52.469Z</time></trkpt><trkpt lat="46.1408567" lon="13.6399185"><ele>530.0</ele><time>2026-05-02T09:58:53.468Z</time></trkpt><trkpt lat="46.1409328" lon="13.6400417"><ele>530.0</ele><time>2026-05-02T09:58:55.47Z</time></trkpt><trkpt lat="46.1409498" lon="13.6401378"><ele>530.0</ele><time>2026-05-02T09:58:57.472Z</time></trkpt><trkpt lat="46.1408772" lon="13.6402913"><ele>530.0</ele><time>2026-05-02T09:58:59.471Z</time></trkpt><trkpt lat="46.1408482" lon="13.6403843"><ele>530.0</ele><time>2026-05-02T09:59:00.471Z</time></trkpt><trkpt lat="46.1408308" lon="13.6405192"><ele>530.0</ele><time>2026-05-02T09:59:02.472Z</time></trkpt><trkpt lat="46.1409958" lon="13.6406345"><ele>526.3333333333333</ele><time>2026-05-02T09:59:06.471Z</time></trkpt><trkpt lat="46.1410575" lon="13.6406705"><ele>522.6666666666666</ele><time>2026-05-02T09:59:07.471Z</time></trkpt><trkpt lat="46.1411407" lon="13.6407793"><ele>519.0</ele><time>2026-05-02T09:59:09.471Z</time></trkpt><trkpt lat="46.1411317" lon="13.6409105"><ele>515.3333333333334</ele><time>2026-05-02T09:59:11.47Z</time></trkpt><trkpt lat="46.1410905" lon="13.641007"><ele>511.6666666666667</ele><time>2026-05-02T09:59:12.471Z</time></trkpt><trkpt lat="46.1410478" lon="13.6411237"><ele>508.0</ele><time>2026-05-02T09:59:13.471Z</time></trkpt><trkpt lat="46.1410235" lon="13.64126"><ele>505.0</ele><time>2026-05-02T09:59:14.471Z</time></trkpt><trkpt lat="46.141016" lon="13.6414035"><ele>501.99999999999994</ele><time>2026-05-02T09:59:15.472Z</time></trkpt><trkpt lat="46.1410197" lon="13.6415382"><ele>498.99999999999994</ele><time>2026-05-02T09:59:16.469Z</time></trkpt><trkpt lat="46.1410108" lon="13.641707"><ele>496.0</ele><time>2026-05-02T09:59:17.471Z</time></trkpt><trkpt lat="46.140993" lon="13.6418793"><ele>493.0</ele><time>2026-05-02T09:59:18.469Z</time></trkpt><trkpt lat="46.1409662" lon="13.6420493"><ele>493.0</ele><time>2026-05-02T09:59:19.469Z</time></trkpt><trkpt lat="46.1409458" lon="13.6422032"><ele>492.99999999999994</ele><time>2026-05-02T09:59:20.471Z</time></trkpt><trkpt lat="46.1409318" lon="13.6423255"><ele>492.99999999999994</ele><time>2026-05-02T09:59:21.471Z</time></trkpt><trkpt lat="46.1409245" lon="13.6424215"><ele>493.0</ele><time>2026-05-02T09:59:22.471Z</time></trkpt><trkpt lat="46.1409363" lon="13.6425145"><ele>493.0</ele><time>2026-05-02T09:59:23.471Z</time></trkpt><trkpt lat="46.1410692" lon="13.6426972"><ele>493.0</ele><time>2026-05-02T09:59:26.471Z</time></trkpt><trkpt lat="46.1411458" lon="13.6427292"><ele>492.99999999999994</ele><time>2026-05-02T09:59:27.471Z</time></trkpt><trkpt lat="46.1412318" lon="13.6427448"><ele>492.99999999999994</ele><time>2026-05-02T09:59:28.471Z</time></trkpt><trkpt lat="46.1413268" lon="13.6427617"><ele>493.0</ele><time>2026-05-02T09:59:29.47Z</time></trkpt><trkpt lat="46.141425" lon="13.6427718"><ele>493.0</ele><time>2026-05-02T09:59:30.471Z</time></trkpt><trkpt lat="46.1415285" lon="13.6427822"><ele>492.83333333333337</ele><time>2026-05-02T09:59:31.471Z</time></trkpt><trkpt lat="46.1416305" lon="13.642801"><ele>492.6666666666667</ele><time>2026-05-02T09:59:32.473Z</time></trkpt><trkpt lat="46.1417158" lon="13.642831"><ele>492.5</ele><time>2026-05-02T09:59:33.471Z</time></trkpt><trkpt lat="46.1417908" lon="13.6428413"><ele>492.33333333333337</ele><time>2026-05-02T09:59:34.471Z</time></trkpt><trkpt lat="46.1418543" lon="13.6428478"><ele>492.1666666666667</ele><time>2026-05-02T09:59:35.471Z</time></trkpt><trkpt lat="46.1419628" lon="13.6429077"><ele>492.0</ele><time>2026-05-02T09:59:37.47Z</time></trkpt><trkpt lat="46.1420243" lon="13.642967"><ele>492.0</ele><time>2026-05-02T09:59:38.472Z</time></trkpt><trkpt lat="46.1420805" lon="13.6430215"><ele>492.00000000000006</ele><time>2026-05-02T09:59:39.472Z</time></trkpt><trkpt lat="46.1421588" lon="13.6431083"><ele>492.00000000000006</ele><time>2026-05-02T09:59:41.47Z</time></trkpt><trkpt lat="46.1421717" lon="13.6432503"><ele>492.0</ele><time>2026-05-02T09:59:43.468Z</time></trkpt><trkpt lat="46.1421642" lon="13.643343"><ele>492.0</ele><time>2026-05-02T09:59:44.469Z</time></trkpt><trkpt lat="46.1421375" lon="13.6436238"><ele>484.25</ele><time>2026-05-02T09:59:46.471Z</time></trkpt><trkpt lat="46.1421433" lon="13.6437925"><ele>476.5</ele><time>2026-05-02T09:59:47.471Z</time></trkpt><trkpt lat="46.1421512" lon="13.6439612"><ele>468.75</ele><time>2026-05-02T09:59:48.471Z</time></trkpt><trkpt lat="46.1421477" lon="13.6441193"><ele>461.0</ele><time>2026-05-02T09:59:49.472Z</time></trkpt><trkpt lat="46.1421225" lon="13.6442788"><ele>460.99999999999994</ele><time>2026-05-02T09:59:50.469Z</time></trkpt><trkpt lat="46.1420917" lon="13.6444177"><ele>461.0</ele><time>2026-05-02T09:59:51.471Z</time></trkpt><trkpt lat="46.1420637" lon="13.6445432"><ele>461.0</ele><time>2026-05-02T09:59:52.471Z</time></trkpt><trkpt lat="46.1420362" lon="13.644654"><ele>461.0</ele><time>2026-05-02T09:59:53.47Z</time></trkpt><trkpt lat="46.142018" lon="13.644756"><ele>460.99999999999994</ele><time>2026-05-02T09:59:54.47Z</time></trkpt><trkpt lat="46.142016" lon="13.6448488"><ele>461.0</ele><time>2026-05-02T09:59:55.473Z</time></trkpt><trkpt lat="46.1420358" lon="13.6449442"><ele>457.8333333333333</ele><time>2026-05-02T09:59:56.469Z</time></trkpt><trkpt lat="46.1420748" lon="13.6450293"><ele>454.66666666666663</ele><time>2026-05-02T09:59:57.471Z</time></trkpt><trkpt lat="46.142121" lon="13.6450987"><ele>451.5</ele><time>2026-05-02T09:59:58.47Z</time></trkpt><trkpt lat="46.1421775" lon="13.6451535"><ele>448.33333333333337</ele><time>2026-05-02T09:59:59.469Z</time></trkpt><trkpt lat="46.142253" lon="13.6451943"><ele>445.1666666666667</ele><time>2026-05-02T10:00:00.47Z</time></trkpt><trkpt lat="46.1423385" lon="13.6452348"><ele>442.0</ele><time>2026-05-02T10:00:01.47Z</time></trkpt><trkpt lat="46.1424195" lon="13.6452468"><ele>444.25</ele><time>2026-05-02T10:00:02.469Z</time></trkpt><trkpt lat="46.1424982" lon="13.6452673"><ele>446.5</ele><time>2026-05-02T10:00:03.47Z</time></trkpt><trkpt lat="46.1425715" lon="13.6452937"><ele>448.75</ele><time>2026-05-02T10:00:04.47Z</time></trkpt><trkpt lat="46.1426582" lon="13.6453665"><ele>451.0</ele><time>2026-05-02T10:00:06.468Z</time></trkpt><trkpt lat="46.14272" lon="13.6456428"><ele>451.0</ele><time>2026-05-02T10:00:09.469Z</time></trkpt><trkpt lat="46.1427412" lon="13.6457612"><ele>451.0</ele><time>2026-05-02T10:00:10.468Z</time></trkpt><trkpt lat="46.1427577" lon="13.645862"><ele>451.0</ele><time>2026-05-02T10:00:11.469Z</time></trkpt><trkpt lat="46.1428427" lon="13.6459792"><ele>451.0</ele><time>2026-05-02T10:00:13.468Z</time></trkpt><trkpt lat="46.1429683" lon="13.6460312"><ele>451.0</ele><time>2026-05-02T10:00:15.471Z</time></trkpt><trkpt lat="46.1430278" lon="13.646116"><ele>451.0</ele><time>2026-05-02T10:00:17.47Z</time></trkpt><trkpt lat="46.1429882" lon="13.6462027"><ele>451.0</ele><time>2026-05-02T10:00:19.47Z</time></trkpt><trkpt lat="46.1428697" lon="13.6462133"><ele>451.0</ele><time>2026-05-02T10:00:21.47Z</time></trkpt><trkpt lat="46.1427685" lon="13.6461928"><ele>451.0</ele><time>2026-05-02T10:00:23.47Z</time></trkpt><trkpt lat="46.1426768" lon="13.6461052"><ele>451.0</ele><time>2026-05-02T10:00:25.474Z</time></trkpt><trkpt lat="46.1426223" lon="13.6460382"><ele>451.0</ele><time>2026-05-02T10:00:26.469Z</time></trkpt><trkpt lat="46.1425685" lon="13.6459733"><ele>451.0</ele><time>2026-05-02T10:00:27.471Z</time></trkpt><trkpt lat="46.1423767" lon="13.6459658"><ele>451.0</ele><time>2026-05-02T10:00:31.469Z</time></trkpt><trkpt lat="46.142309" lon="13.6459875"><ele>451.0</ele><time>2026-05-02T10:00:32.469Z</time></trkpt><trkpt lat="46.142239" lon="13.6460132"><ele>451.0</ele><time>2026-05-02T10:00:33.47Z</time></trkpt><trkpt lat="46.1421702" lon="13.6460465"><ele>447.1666666666667</ele><time>2026-05-02T10:00:34.47Z</time></trkpt><trkpt lat="46.1420975" lon="13.6460702"><ele>443.33333333333337</ele><time>2026-05-02T10:00:35.471Z</time></trkpt><trkpt lat="46.1420275" lon="13.6460748"><ele>439.5</ele><time>2026-05-02T10:00:36.471Z</time></trkpt><trkpt lat="46.141912" lon="13.6460238"><ele>435.66666666666663</ele><time>2026-05-02T10:00:38.471Z</time></trkpt><trkpt lat="46.141845" lon="13.6459647"><ele>431.8333333333333</ele><time>2026-05-02T10:00:39.472Z</time></trkpt><trkpt lat="46.1417775" lon="13.6459163"><ele>428.0</ele><time>2026-05-02T10:00:40.471Z</time></trkpt><trkpt lat="46.1416808" lon="13.645846"><ele>428.0</ele><time>2026-05-02T10:00:42.472Z</time></trkpt><trkpt lat="46.1416797" lon="13.6459647"><ele>428.0</ele><time>2026-05-02T10:00:48.474Z</time></trkpt><trkpt lat="46.141863" lon="13.6462858"><ele>428.0</ele><time>2026-05-02T10:00:52.472Z</time></trkpt><trkpt lat="46.141908" lon="13.64637"><ele>428.0</ele><time>2026-05-02T10:00:53.471Z</time></trkpt><trkpt lat="46.1419558" lon="13.6464427"><ele>422.59999999999997</ele><time>2026-05-02T10:00:54.469Z</time></trkpt><trkpt lat="46.1420618" lon="13.6465005"><ele>417.19999999999993</ele><time>2026-05-02T10:00:56.469Z</time></trkpt><trkpt lat="46.142167" lon="13.6465393"><ele>411.8</ele><time>2026-05-02T10:00:58.471Z</time></trkpt><trkpt lat="46.1422498" lon="13.6466243"><ele>406.4</ele><time>2026-05-02T10:01:00.47Z</time></trkpt><trkpt lat="46.1422908" lon="13.6467883"><ele>401.0</ele><time>2026-05-02T10:01:02.471Z</time></trkpt><trkpt lat="46.1423018" lon="13.6469475"><ele>400.75</ele><time>2026-05-02T10:01:04.471Z</time></trkpt><trkpt lat="46.1423445" lon="13.6470665"><ele>400.5</ele><time>2026-05-02T10:01:06.471Z</time></trkpt><trkpt lat="46.1424357" lon="13.6471133"><ele>400.25</ele><time>2026-05-02T10:01:08.471Z</time></trkpt><trkpt lat="46.1425725" lon="13.6471412"><ele>400.0</ele><time>2026-05-02T10:01:10.472Z</time></trkpt><trkpt lat="46.1427267" lon="13.647223"><ele>400.00000000000006</ele><time>2026-05-02T10:01:12.471Z</time></trkpt><trkpt lat="46.1427872" lon="13.647259"><ele>400.0</ele><time>2026-05-02T10:01:13.47Z</time></trkpt><trkpt lat="46.1428568" lon="13.6473587"><ele>400.0</ele><time>2026-05-02T10:01:15.47Z</time></trkpt><trkpt lat="46.1428947" lon="13.6474997"><ele>400.0</ele><time>2026-05-02T10:01:17.472Z</time></trkpt><trkpt lat="46.1429273" lon="13.647583"><ele>400.00000000000006</ele><time>2026-05-02T10:01:18.47Z</time></trkpt><trkpt lat="46.1429643" lon="13.6476775"><ele>400.0</ele><time>2026-05-02T10:01:19.469Z</time></trkpt><trkpt lat="46.1429937" lon="13.647766"><ele>399.2</ele><time>2026-05-02T10:01:20.47Z</time></trkpt><trkpt lat="46.1430185" lon="13.6478517"><ele>398.4</ele><time>2026-05-02T10:01:21.47Z</time></trkpt><trkpt lat="46.1430857" lon="13.6479887"><ele>397.6</ele><time>2026-05-02T10:01:23.473Z</time></trkpt><trkpt lat="46.143176" lon="13.6480683"><ele>396.8</ele><time>2026-05-02T10:01:25.471Z</time></trkpt><trkpt lat="46.1432833" lon="13.6481503"><ele>396.0</ele><time>2026-05-02T10:01:27.471Z</time></trkpt><trkpt lat="46.1433277" lon="13.6483032"><ele>396.0</ele><time>2026-05-02T10:01:29.471Z</time></trkpt><trkpt lat="46.1433135" lon="13.6484097"><ele>396.0</ele><time>2026-05-02T10:01:30.473Z</time></trkpt><trkpt lat="46.1433173" lon="13.648504"><ele>396.0</ele><time>2026-05-02T10:01:31.471Z</time></trkpt><trkpt lat="46.1434293" lon="13.64869"><ele>396.0</ele><time>2026-05-02T10:01:34.47Z</time></trkpt><trkpt lat="46.1435062" lon="13.64871"><ele>396.0</ele><time>2026-05-02T10:01:35.471Z</time></trkpt><trkpt lat="46.1436072" lon="13.6487435"><ele>395.8</ele><time>2026-05-02T10:01:36.47Z</time></trkpt><trkpt lat="46.1437087" lon="13.6487833"><ele>395.6</ele><time>2026-05-02T10:01:37.47Z</time></trkpt><trkpt lat="46.1438142" lon="13.6488203"><ele>395.4</ele><time>2026-05-02T10:01:38.47Z</time></trkpt><trkpt lat="46.143927" lon="13.6488418"><ele>395.2</ele><time>2026-05-02T10:01:39.471Z</time></trkpt><trkpt lat="46.1440433" lon="13.648846"><ele>395.0</ele><time>2026-05-02T10:01:40.47Z</time></trkpt><trkpt lat="46.1441578" lon="13.6488497"><ele>395.0</ele><time>2026-05-02T10:01:41.47Z</time></trkpt><trkpt lat="46.144281" lon="13.6488645"><ele>395.0</ele><time>2026-05-02T10:01:42.471Z</time></trkpt><trkpt lat="46.1443948" lon="13.648891"><ele>395.0</ele><time>2026-05-02T10:01:43.469Z</time></trkpt><trkpt lat="46.144503" lon="13.6489255"><ele>395.0</ele><time>2026-05-02T10:01:44.468Z</time></trkpt><trkpt lat="46.144587" lon="13.6489722"><ele>395.0</ele><time>2026-05-02T10:01:45.468Z</time></trkpt><trkpt lat="46.1446493" lon="13.6489943"><ele>394.99999999999994</ele><time>2026-05-02T10:01:46.469Z</time></trkpt><trkpt lat="46.1447167" lon="13.6490428"><ele>395.0</ele><time>2026-05-02T10:01:47.47Z</time></trkpt><trkpt lat="46.1447817" lon="13.6491127"><ele>395.0</ele><time>2026-05-02T10:01:48.472Z</time></trkpt><trkpt lat="46.1448492" lon="13.6491803"><ele>395.0</ele><time>2026-05-02T10:01:49.47Z</time></trkpt><trkpt lat="46.1449272" lon="13.6492393"><ele>394.99999999999994</ele><time>2026-05-02T10:01:50.469Z</time></trkpt><trkpt lat="46.1449928" lon="13.6492833"><ele>395.0</ele><time>2026-05-02T10:01:51.469Z</time></trkpt><trkpt lat="46.1450582" lon="13.6493277"><ele>395.2</ele><time>2026-05-02T10:01:52.469Z</time></trkpt><trkpt lat="46.1452028" lon="13.6494717"><ele>395.4</ele><time>2026-05-02T10:01:54.469Z</time></trkpt><trkpt lat="46.1452743" lon="13.6495582"><ele>395.6</ele><time>2026-05-02T10:01:55.469Z</time></trkpt><trkpt lat="46.1453415" lon="13.6496505"><ele>395.8</ele><time>2026-05-02T10:01:56.47Z</time></trkpt><trkpt lat="46.1454052" lon="13.6497372"><ele>396.0</ele><time>2026-05-02T10:01:57.47Z</time></trkpt><trkpt lat="46.1454653" lon="13.6498035"><ele>396.0</ele><time>2026-05-02T10:01:58.469Z</time></trkpt><trkpt lat="46.145571" lon="13.6499217"><ele>396.0</ele><time>2026-05-02T10:02:00.469Z</time></trkpt><trkpt lat="46.1456197" lon="13.6499995"><ele>396.0</ele><time>2026-05-02T10:02:01.469Z</time></trkpt><trkpt lat="46.1456902" lon="13.6500873"><ele>396.0</ele><time>2026-05-02T10:02:02.469Z</time></trkpt><trkpt lat="46.1457772" lon="13.6501673"><ele>396.0</ele><time>2026-05-02T10:02:03.469Z</time></trkpt><trkpt lat="46.1458667" lon="13.6502558"><ele>397.0</ele><time>2026-05-02T10:02:04.47Z</time></trkpt><trkpt lat="46.1459588" lon="13.6503353"><ele>398.0</ele><time>2026-05-02T10:02:05.47Z</time></trkpt><trkpt lat="46.1460392" lon="13.6503978"><ele>399.0</ele><time>2026-05-02T10:02:06.471Z</time></trkpt><trkpt lat="46.1461065" lon="13.6504562"><ele>400.0</ele><time>2026-05-02T10:02:07.47Z</time></trkpt><trkpt lat="46.1461557" lon="13.6505263"><ele>401.0</ele><time>2026-05-02T10:02:08.469Z</time></trkpt><trkpt lat="46.1461965" lon="13.6506178"><ele>402.0</ele><time>2026-05-02T10:02:09.469Z</time></trkpt><trkpt lat="46.146236" lon="13.6507125"><ele>402.0</ele><time>2026-05-02T10:02:10.469Z</time></trkpt><trkpt lat="46.1463442" lon="13.6508277"><ele>402.0</ele><time>2026-05-02T10:02:12.471Z</time></trkpt><trkpt lat="46.1464392" lon="13.6508723"><ele>402.0</ele><time>2026-05-02T10:02:13.471Z</time></trkpt><trkpt lat="46.1466688" lon="13.6509868"><ele>405.0</ele><time>2026-05-02T10:02:15.471Z</time></trkpt><trkpt lat="46.1467853" lon="13.6510838"><ele>408.0</ele><time>2026-05-02T10:02:16.47Z</time></trkpt><trkpt lat="46.1468918" lon="13.6511953"><ele>411.0</ele><time>2026-05-02T10:02:17.469Z</time></trkpt><trkpt lat="46.1469925" lon="13.6513118"><ele>414.0</ele><time>2026-05-02T10:02:18.471Z</time></trkpt><trkpt lat="46.147085" lon="13.651419"><ele>414.0</ele><time>2026-05-02T10:02:19.471Z</time></trkpt><trkpt lat="46.147165" lon="13.6515238"><ele>414.0</ele><time>2026-05-02T10:02:20.47Z</time></trkpt><trkpt lat="46.14723" lon="13.651604"><ele>414.0</ele><time>2026-05-02T10:02:21.471Z</time></trkpt><trkpt lat="46.1473093" lon="13.6516703"><ele>414.0</ele><time>2026-05-02T10:02:22.471Z</time></trkpt><trkpt lat="46.1473978" lon="13.6517228"><ele>414.0</ele><time>2026-05-02T10:02:23.47Z</time></trkpt><trkpt lat="46.147494" lon="13.6518027"><ele>413.79999999999995</ele><time>2026-05-02T10:02:24.47Z</time></trkpt><trkpt lat="46.1475843" lon="13.651878"><ele>413.59999999999997</ele><time>2026-05-02T10:02:25.47Z</time></trkpt><trkpt lat="46.1476837" lon="13.651938"><ele>413.4</ele><time>2026-05-02T10:02:26.47Z</time></trkpt><trkpt lat="46.1477753" lon="13.6519863"><ele>413.2</ele><time>2026-05-02T10:02:27.47Z</time></trkpt><trkpt lat="46.1478677" lon="13.6520257"><ele>413.0</ele><time>2026-05-02T10:02:28.47Z</time></trkpt><trkpt lat="46.1479845" lon="13.6520527"><ele>413.0</ele><time>2026-05-02T10:02:29.471Z</time></trkpt><trkpt lat="46.1480813" lon="13.6520523"><ele>413.0</ele><time>2026-05-02T10:02:30.47Z</time></trkpt><trkpt lat="46.1481837" lon="13.6520408"><ele>413.0</ele><time>2026-05-02T10:02:31.471Z</time></trkpt><trkpt lat="46.148287" lon="13.6520217"><ele>413.0</ele><time>2026-05-02T10:02:32.469Z</time></trkpt><trkpt lat="46.1483683" lon="13.6520155"><ele>413.0</ele><time>2026-05-02T10:02:33.469Z</time></trkpt><trkpt lat="46.1484345" lon="13.6519928"><ele>418.2</ele><time>2026-05-02T10:02:34.468Z</time></trkpt><trkpt lat="46.1485898" lon="13.6519312"><ele>423.4</ele><time>2026-05-02T10:02:36.471Z</time></trkpt><trkpt lat="46.1486535" lon="13.6518642"><ele>428.59999999999997</ele><time>2026-05-02T10:02:37.469Z</time></trkpt><trkpt lat="46.1487147" lon="13.6517688"><ele>433.79999999999995</ele><time>2026-05-02T10:02:38.469Z</time></trkpt><trkpt lat="46.1487833" lon="13.6516682"><ele>439.0</ele><time>2026-05-02T10:02:39.47Z</time></trkpt><trkpt lat="46.1488678" lon="13.6515645"><ele>439.00000000000006</ele><time>2026-05-02T10:02:40.47Z</time></trkpt><trkpt lat="46.1489395" lon="13.6514648"><ele>439.0</ele><time>2026-05-02T10:02:41.468Z</time></trkpt><trkpt lat="46.1490113" lon="13.6513912"><ele>439.0</ele><time>2026-05-02T10:02:42.47Z</time></trkpt><trkpt lat="46.1490763" lon="13.651327"><ele>439.0</ele><time>2026-05-02T10:02:43.469Z</time></trkpt><trkpt lat="46.1491415" lon="13.6512887"><ele>439.00000000000006</ele><time>2026-05-02T10:02:44.469Z</time></trkpt><trkpt lat="46.1492498" lon="13.6512645"><ele>439.0</ele><time>2026-05-02T10:02:46.469Z</time></trkpt><trkpt lat="46.1493145" lon="13.6513073"><ele>435.25</ele><time>2026-05-02T10:02:48.47Z</time></trkpt><trkpt lat="46.1492783" lon="13.6514013"><ele>431.5</ele><time>2026-05-02T10:02:51.47Z</time></trkpt><trkpt lat="46.1492282" lon="13.6514947"><ele>427.75</ele><time>2026-05-02T10:02:53.469Z</time></trkpt><trkpt lat="46.1492015" lon="13.6516883"><ele>424.0</ele><time>2026-05-02T10:02:55.47Z</time></trkpt><trkpt lat="46.1491608" lon="13.6519183"><ele>421.2</ele><time>2026-05-02T10:02:57.469Z</time></trkpt><trkpt lat="46.1491578" lon="13.6520215"><ele>418.4</ele><time>2026-05-02T10:02:58.469Z</time></trkpt><trkpt lat="46.1491988" lon="13.6521538"><ele>415.6</ele><time>2026-05-02T10:03:00.469Z</time></trkpt><trkpt lat="46.1493127" lon="13.6522668"><ele>412.8</ele><time>2026-05-02T10:03:02.47Z</time></trkpt><trkpt lat="46.1493918" lon="13.6523258"><ele>410.0</ele><time>2026-05-02T10:03:03.47Z</time></trkpt><trkpt lat="46.1494807" lon="13.65239"><ele>410.0</ele><time>2026-05-02T10:03:04.469Z</time></trkpt><trkpt lat="46.149568" lon="13.6524772"><ele>410.0</ele><time>2026-05-02T10:03:05.469Z</time></trkpt><trkpt lat="46.1496723" lon="13.652576"><ele>410.0</ele><time>2026-05-02T10:03:06.468Z</time></trkpt><trkpt lat="46.1497903" lon="13.6526658"><ele>410.0</ele><time>2026-05-02T10:03:07.469Z</time></trkpt><trkpt lat="46.1499142" lon="13.6527543"><ele>414.5</ele><time>2026-05-02T10:03:08.468Z</time></trkpt><trkpt lat="46.1500213" lon="13.6528333"><ele>419.0</ele><time>2026-05-02T10:03:09.47Z</time></trkpt><trkpt lat="46.1501308" lon="13.6528985"><ele>423.5</ele><time>2026-05-02T10:03:10.47Z</time></trkpt><trkpt lat="46.1502687" lon="13.6529817"><ele>428.0</ele><time>2026-05-02T10:03:11.47Z</time></trkpt><trkpt lat="46.1503873" lon="13.6530438"><ele>428.0</ele><time>2026-05-02T10:03:12.47Z</time></trkpt><trkpt lat="46.1505047" lon="13.6531142"><ele>428.0</ele><time>2026-05-02T10:03:13.471Z</time></trkpt><trkpt lat="46.1505968" lon="13.653192"><ele>428.0</ele><time>2026-05-02T10:03:14.472Z</time></trkpt><trkpt lat="46.1506895" lon="13.6532737"><ele>428.0</ele><time>2026-05-02T10:03:15.471Z</time></trkpt><trkpt lat="46.1507867" lon="13.6533485"><ele>426.75</ele><time>2026-05-02T10:03:16.471Z</time></trkpt><trkpt lat="46.150958" lon="13.6534807"><ele>425.5</ele><time>2026-05-02T10:03:18.471Z</time></trkpt><trkpt lat="46.1510262" lon="13.6535543"><ele>424.25</ele><time>2026-05-02T10:03:19.471Z</time></trkpt><trkpt lat="46.151091" lon="13.6536153"><ele>423.0</ele><time>2026-05-02T10:03:20.47Z</time></trkpt><trkpt lat="46.1512055" lon="13.6536303"><ele>423.0</ele><time>2026-05-02T10:03:22.469Z</time></trkpt><trkpt lat="46.1512795" lon="13.6536162"><ele>423.0</ele><time>2026-05-02T10:03:23.469Z</time></trkpt><trkpt lat="46.151357" lon="13.6536168"><ele>423.0</ele><time>2026-05-02T10:03:24.469Z</time></trkpt><trkpt lat="46.1514517" lon="13.6536793"><ele>423.0</ele><time>2026-05-02T10:03:26.47Z</time></trkpt><trkpt lat="46.1515005" lon="13.6538348"><ele>423.0</ele><time>2026-05-02T10:03:28.471Z</time></trkpt><trkpt lat="46.1515848" lon="13.653944"><ele>423.8333333333333</ele><time>2026-05-02T10:03:30.471Z</time></trkpt><trkpt lat="46.151649" lon="13.6539777"><ele>424.66666666666663</ele><time>2026-05-02T10:03:31.471Z</time></trkpt><trkpt lat="46.1517242" lon="13.6539925"><ele>425.5</ele><time>2026-05-02T10:03:32.471Z</time></trkpt><trkpt lat="46.1517992" lon="13.6539918"><ele>426.3333333333333</ele><time>2026-05-02T10:03:33.471Z</time></trkpt><trkpt lat="46.1518705" lon="13.6539677"><ele>427.16666666666663</ele><time>2026-05-02T10:03:34.47Z</time></trkpt><trkpt lat="46.1519452" lon="13.653943"><ele>428.0</ele><time>2026-05-02T10:03:35.47Z</time></trkpt><trkpt lat="46.1520298" lon="13.653946"><ele>428.0</ele><time>2026-05-02T10:03:36.471Z</time></trkpt><trkpt lat="46.1521192" lon="13.6539638"><ele>428.0</ele><time>2026-05-02T10:03:37.471Z</time></trkpt><trkpt lat="46.1523465" lon="13.6539588"><ele>428.0</ele><time>2026-05-02T10:03:39.471Z</time></trkpt><trkpt lat="46.1524667" lon="13.6539343"><ele>428.0</ele><time>2026-05-02T10:03:40.47Z</time></trkpt><trkpt lat="46.1525787" lon="13.6539077"><ele>429.79999999999995</ele><time>2026-05-02T10:03:41.47Z</time></trkpt><trkpt lat="46.1526848" lon="13.6538987"><ele>431.59999999999997</ele><time>2026-05-02T10:03:42.47Z</time></trkpt><trkpt lat="46.1527613" lon="13.6539012"><ele>433.40000000000003</ele><time>2026-05-02T10:03:43.47Z</time></trkpt><trkpt lat="46.1528323" lon="13.6539063"><ele>435.20000000000005</ele><time>2026-05-02T10:03:44.47Z</time></trkpt><trkpt lat="46.1529772" lon="13.6538577"><ele>437.0</ele><time>2026-05-02T10:03:46.469Z</time></trkpt><trkpt lat="46.1530622" lon="13.6537868"><ele>437.0</ele><time>2026-05-02T10:03:47.469Z</time></trkpt><trkpt lat="46.1531567" lon="13.6536943"><ele>437.00000000000006</ele><time>2026-05-02T10:03:48.469Z</time></trkpt><trkpt lat="46.153245" lon="13.6536265"><ele>437.00000000000006</ele><time>2026-05-02T10:03:49.47Z</time></trkpt><trkpt lat="46.1533185" lon="13.6535853"><ele>437.0</ele><time>2026-05-02T10:03:50.471Z</time></trkpt><trkpt lat="46.1534243" lon="13.653594"><ele>437.0</ele><time>2026-05-02T10:03:52.471Z</time></trkpt><trkpt lat="46.1534823" lon="13.6537177"><ele>438.0</ele><time>2026-05-02T10:03:54.472Z</time></trkpt><trkpt lat="46.1535135" lon="13.653816"><ele>439.0</ele><time>2026-05-02T10:03:55.471Z</time></trkpt><trkpt lat="46.153546" lon="13.6538968"><ele>440.0</ele><time>2026-05-02T10:03:56.471Z</time></trkpt><trkpt lat="46.1536558" lon="13.6539738"><ele>441.0</ele><time>2026-05-02T10:03:58.471Z</time></trkpt><trkpt lat="46.1538488" lon="13.6540148"><ele>441.0</ele><time>2026-05-02T10:04:00.472Z</time></trkpt><trkpt lat="46.1539575" lon="13.65403"><ele>441.0</ele><time>2026-05-02T10:04:01.471Z</time></trkpt><trkpt lat="46.1540548" lon="13.654042"><ele>441.0</ele><time>2026-05-02T10:04:02.472Z</time></trkpt><trkpt lat="46.154148" lon="13.6540753"><ele>441.0</ele><time>2026-05-02T10:04:03.472Z</time></trkpt><trkpt lat="46.1542342" lon="13.6541128"><ele>441.0</ele><time>2026-05-02T10:04:04.471Z</time></trkpt><trkpt lat="46.1543222" lon="13.6541462"><ele>442.6</ele><time>2026-05-02T10:04:05.472Z</time></trkpt><trkpt lat="46.1544103" lon="13.6541788"><ele>444.20000000000005</ele><time>2026-05-02T10:04:06.47Z</time></trkpt><trkpt lat="46.1544965" lon="13.6542375"><ele>445.79999999999995</ele><time>2026-05-02T10:04:07.47Z</time></trkpt><trkpt lat="46.154589" lon="13.6543078"><ele>447.4</ele><time>2026-05-02T10:04:08.47Z</time></trkpt><trkpt lat="46.1546873" lon="13.6543958"><ele>449.0</ele><time>2026-05-02T10:04:09.471Z</time></trkpt><trkpt lat="46.1547853" lon="13.6544867"><ele>446.0</ele><time>2026-05-02T10:04:10.468Z</time></trkpt><trkpt lat="46.1548765" lon="13.6545702"><ele>443.0</ele><time>2026-05-02T10:04:11.469Z</time></trkpt><trkpt lat="46.1549557" lon="13.6546432"><ele>440.0</ele><time>2026-05-02T10:04:12.47Z</time></trkpt><trkpt lat="46.1550425" lon="13.6547078"><ele>437.0</ele><time>2026-05-02T10:04:13.47Z</time></trkpt><trkpt lat="46.1551232" lon="13.6547558"><ele>434.0</ele><time>2026-05-02T10:04:14.471Z</time></trkpt><trkpt lat="46.1551953" lon="13.6547848"><ele>434.0</ele><time>2026-05-02T10:04:15.471Z</time></trkpt><trkpt lat="46.1553097" lon="13.6547553"><ele>434.0</ele><time>2026-05-02T10:04:17.472Z</time></trkpt><trkpt lat="46.1553597" lon="13.654696"><ele>434.0</ele><time>2026-05-02T10:04:18.473Z</time></trkpt><trkpt lat="46.1554035" lon="13.6546183"><ele>434.0</ele><time>2026-05-02T10:04:19.474Z</time></trkpt><trkpt lat="46.155549" lon="13.654579"><ele>434.0</ele><time>2026-05-02T10:04:23.471Z</time></trkpt><trkpt lat="46.1555918" lon="13.6547075"><ele>433.99999999999994</ele><time>2026-05-02T10:04:25.471Z</time></trkpt><trkpt lat="46.1556738" lon="13.6547967"><ele>434.0</ele><time>2026-05-02T10:04:27.471Z</time></trkpt><trkpt lat="46.1557735" lon="13.654794"><ele>434.0</ele><time>2026-05-02T10:04:29.47Z</time></trkpt><trkpt lat="46.1558335" lon="13.65475"><ele>434.0</ele><time>2026-05-02T10:04:30.47Z</time></trkpt><trkpt lat="46.1559042" lon="13.6546877"><ele>433.99999999999994</ele><time>2026-05-02T10:04:31.472Z</time></trkpt><trkpt lat="46.1559888" lon="13.6546318"><ele>434.0</ele><time>2026-05-02T10:04:32.469Z</time></trkpt><trkpt lat="46.1560692" lon="13.6545557"><ele>434.8333333333333</ele><time>2026-05-02T10:04:33.47Z</time></trkpt><trkpt lat="46.15614" lon="13.6544868"><ele>435.66666666666663</ele><time>2026-05-02T10:04:34.469Z</time></trkpt><trkpt lat="46.1562095" lon="13.6544342"><ele>436.5</ele><time>2026-05-02T10:04:35.468Z</time></trkpt><trkpt lat="46.1562787" lon="13.6543602"><ele>437.33333333333337</ele><time>2026-05-02T10:04:36.468Z</time></trkpt><trkpt lat="46.1563513" lon="13.6542863"><ele>438.1666666666667</ele><time>2026-05-02T10:04:37.469Z</time></trkpt><trkpt lat="46.1564162" lon="13.6542358"><ele>439.0</ele><time>2026-05-02T10:04:38.469Z</time></trkpt><trkpt lat="46.1564755" lon="13.6541882"><ele>445.0</ele><time>2026-05-02T10:04:39.47Z</time></trkpt><trkpt lat="46.1565858" lon="13.6541728"><ele>451.0</ele><time>2026-05-02T10:04:41.469Z</time></trkpt><trkpt lat="46.1567905" lon="13.6541367"><ele>457.0</ele><time>2026-05-02T10:04:43.47Z</time></trkpt><trkpt lat="46.1568957" lon="13.6541012"><ele>463.0</ele><time>2026-05-02T10:04:44.47Z</time></trkpt><trkpt lat="46.1569973" lon="13.6540617"><ele>463.0</ele><time>2026-05-02T10:04:45.47Z</time></trkpt><trkpt lat="46.1570965" lon="13.6540157"><ele>462.99999999999994</ele><time>2026-05-02T10:04:46.469Z</time></trkpt><trkpt lat="46.1571897" lon="13.6539683"><ele>462.99999999999994</ele><time>2026-05-02T10:04:47.469Z</time></trkpt><trkpt lat="46.1572812" lon="13.6539243"><ele>463.0</ele><time>2026-05-02T10:04:48.469Z</time></trkpt><trkpt lat="46.1573717" lon="13.6538685"><ele>463.0</ele><time>2026-05-02T10:04:49.469Z</time></trkpt><trkpt lat="46.1574642" lon="13.6538043"><ele>460.83333333333337</ele><time>2026-05-02T10:04:50.469Z</time></trkpt><trkpt lat="46.1575462" lon="13.6537372"><ele>458.6666666666667</ele><time>2026-05-02T10:04:51.469Z</time></trkpt><trkpt lat="46.1576343" lon="13.6536852"><ele>456.5</ele><time>2026-05-02T10:04:52.468Z</time></trkpt><trkpt lat="46.1577022" lon="13.6536413"><ele>454.33333333333337</ele><time>2026-05-02T10:04:53.469Z</time></trkpt><trkpt lat="46.1577665" lon="13.6536057"><ele>452.1666666666667</ele><time>2026-05-02T10:04:54.469Z</time></trkpt><trkpt lat="46.1578303" lon="13.6535478"><ele>450.0</ele><time>2026-05-02T10:04:55.469Z</time></trkpt><trkpt lat="46.1579015" lon="13.653498"><ele>455.8333333333333</ele><time>2026-05-02T10:04:56.469Z</time></trkpt><trkpt lat="46.1579607" lon="13.653454"><ele>461.66666666666663</ele><time>2026-05-02T10:04:57.469Z</time></trkpt><trkpt lat="46.1580175" lon="13.6534058"><ele>467.5</ele><time>2026-05-02T10:04:58.468Z</time></trkpt><trkpt lat="46.1580763" lon="13.6533155"><ele>473.3333333333333</ele><time>2026-05-02T10:04:59.47Z</time></trkpt><trkpt lat="46.1581248" lon="13.6532105"><ele>479.16666666666663</ele><time>2026-05-02T10:05:00.469Z</time></trkpt><trkpt lat="46.1581513" lon="13.6531092"><ele>485.0</ele><time>2026-05-02T10:05:01.467Z</time></trkpt><trkpt lat="46.15817" lon="13.6530085"><ele>483.0</ele><time>2026-05-02T10:05:02.467Z</time></trkpt><trkpt lat="46.1582233" lon="13.6527825"><ele>481.0</ele><time>2026-05-02T10:05:05.47Z</time></trkpt><trkpt lat="46.1583102" lon="13.6527393"><ele>479.0</ele><time>2026-05-02T10:05:07.469Z</time></trkpt><trkpt lat="46.1583918" lon="13.6527875"><ele>477.0</ele><time>2026-05-02T10:05:09.47Z</time></trkpt><trkpt lat="46.1584712" lon="13.652934"><ele>473.6666666666667</ele><time>2026-05-02T10:05:11.469Z</time></trkpt><trkpt lat="46.1585183" lon="13.6530265"><ele>470.33333333333337</ele><time>2026-05-02T10:05:12.47Z</time></trkpt><trkpt lat="46.158609" lon="13.6531298"><ele>467.0</ele><time>2026-05-02T10:05:14.469Z</time></trkpt><trkpt lat="46.158671" lon="13.6531602"><ele>463.6666666666667</ele><time>2026-05-02T10:05:15.469Z</time></trkpt><trkpt lat="46.1587445" lon="13.6531702"><ele>460.33333333333337</ele><time>2026-05-02T10:05:16.471Z</time></trkpt><trkpt lat="46.1588132" lon="13.6531908"><ele>457.0</ele><time>2026-05-02T10:05:17.47Z</time></trkpt><trkpt lat="46.1588785" lon="13.6532417"><ele>457.00000000000006</ele><time>2026-05-02T10:05:18.47Z</time></trkpt><trkpt lat="46.1589478" lon="13.6533187"><ele>457.0</ele><time>2026-05-02T10:05:19.47Z</time></trkpt><trkpt lat="46.159019" lon="13.6534012"><ele>457.0</ele><time>2026-05-02T10:05:20.469Z</time></trkpt><trkpt lat="46.1590848" lon="13.6534605"><ele>457.0</ele><time>2026-05-02T10:05:21.47Z</time></trkpt><trkpt lat="46.1591465" lon="13.6534953"><ele>457.00000000000006</ele><time>2026-05-02T10:05:22.471Z</time></trkpt><trkpt lat="46.159217" lon="13.653515"><ele>457.0</ele><time>2026-05-02T10:05:23.469Z</time></trkpt><trkpt lat="46.1593918" lon="13.6535218"><ele>456.75</ele><time>2026-05-02T10:05:25.469Z</time></trkpt><trkpt lat="46.1594788" lon="13.6535365"><ele>456.5</ele><time>2026-05-02T10:05:26.469Z</time></trkpt><trkpt lat="46.1595843" lon="13.6535302"><ele>456.25</ele><time>2026-05-02T10:05:27.471Z</time></trkpt><trkpt lat="46.1597195" lon="13.6534992"><ele>456.0</ele><time>2026-05-02T10:05:28.471Z</time></trkpt><trkpt lat="46.1598698" lon="13.6534697"><ele>456.0</ele><time>2026-05-02T10:05:29.47Z</time></trkpt><trkpt lat="46.1600305" lon="13.6534427"><ele>456.0</ele><time>2026-05-02T10:05:30.47Z</time></trkpt><trkpt lat="46.1601842" lon="13.6534057"><ele>456.0</ele><time>2026-05-02T10:05:31.471Z</time></trkpt><trkpt lat="46.1603055" lon="13.6533622"><ele>456.0</ele><time>2026-05-02T10:05:32.469Z</time></trkpt><trkpt lat="46.1604042" lon="13.6533147"><ele>456.0</ele><time>2026-05-02T10:05:33.47Z</time></trkpt><trkpt lat="46.1604865" lon="13.6532957"><ele>456.0</ele><time>2026-05-02T10:05:34.469Z</time></trkpt><trkpt lat="46.1605562" lon="13.6532933"><ele>456.0</ele><time>2026-05-02T10:05:35.47Z</time></trkpt><trkpt lat="46.1606405" lon="13.6533103"><ele>456.0</ele><time>2026-05-02T10:05:36.47Z</time></trkpt><trkpt lat="46.160725" lon="13.653316"><ele>456.0</ele><time>2026-05-02T10:05:37.47Z</time></trkpt><trkpt lat="46.1608082" lon="13.6533225"><ele>456.0</ele><time>2026-05-02T10:05:38.47Z</time></trkpt><trkpt lat="46.1608813" lon="13.6533188"><ele>457.3333333333333</ele><time>2026-05-02T10:05:39.471Z</time></trkpt><trkpt lat="46.1609597" lon="13.6533123"><ele>458.66666666666663</ele><time>2026-05-02T10:05:40.469Z</time></trkpt><trkpt lat="46.1610447" lon="13.6532882"><ele>460.0</ele><time>2026-05-02T10:05:41.47Z</time></trkpt><trkpt lat="46.1611447" lon="13.6532723"><ele>461.3333333333333</ele><time>2026-05-02T10:05:42.471Z</time></trkpt><trkpt lat="46.1612328" lon="13.6532468"><ele>462.66666666666663</ele><time>2026-05-02T10:05:43.472Z</time></trkpt><trkpt lat="46.1613025" lon="13.6532257"><ele>464.0</ele><time>2026-05-02T10:05:44.471Z</time></trkpt><trkpt lat="46.161493" lon="13.6533402"><ele>464.0</ele><time>2026-05-02T10:05:47.47Z</time></trkpt><trkpt lat="46.1615672" lon="13.6534608"><ele>464.0</ele><time>2026-05-02T10:05:48.469Z</time></trkpt><trkpt lat="46.1616528" lon="13.65361"><ele>464.0</ele><time>2026-05-02T10:05:49.469Z</time></trkpt><trkpt lat="46.1617332" lon="13.653722"><ele>464.0</ele><time>2026-05-02T10:05:50.469Z</time></trkpt><trkpt lat="46.1618118" lon="13.6538035"><ele>465.79999999999995</ele><time>2026-05-02T10:05:51.471Z</time></trkpt><trkpt lat="46.161877" lon="13.6538585"><ele>467.59999999999997</ele><time>2026-05-02T10:05:52.471Z</time></trkpt><trkpt lat="46.161956" lon="13.6539175"><ele>469.4</ele><time>2026-05-02T10:05:54.471Z</time></trkpt><trkpt lat="46.1620175" lon="13.65395"><ele>471.2</ele><time>2026-05-02T10:06:00.471Z</time></trkpt><trkpt lat="46.16195" lon="13.6539337"><ele>473.0</ele><time>2026-05-02T10:06:17.471Z</time></trkpt><trkpt lat="46.1618025" lon="13.6537202"><ele>471.2</ele><time>2026-05-02T10:06:22.471Z</time></trkpt><trkpt lat="46.1617427" lon="13.653613"><ele>469.4</ele><time>2026-05-02T10:06:24.471Z</time></trkpt><trkpt lat="46.1616945" lon="13.653534"><ele>467.59999999999997</ele><time>2026-05-02T10:06:26.471Z</time></trkpt><trkpt lat="46.1617163" lon="13.6534453"><ele>465.79999999999995</ele><time>2026-05-02T10:06:41.472Z</time></trkpt><trkpt lat="46.1618558" lon="13.653261"><ele>464.0</ele><time>2026-05-02T10:06:45.472Z</time></trkpt><trkpt lat="46.1619103" lon="13.6532072"><ele>463.99999999999994</ele><time>2026-05-02T10:06:46.473Z</time></trkpt><trkpt lat="46.1619735" lon="13.6531597"><ele>464.0</ele><time>2026-05-02T10:06:47.47Z</time></trkpt><trkpt lat="46.162045" lon="13.6531075"><ele>464.0</ele><time>2026-05-02T10:06:48.475Z</time></trkpt><trkpt lat="46.162117" lon="13.653039"><ele>464.0</ele><time>2026-05-02T10:06:49.472Z</time></trkpt><trkpt lat="46.1621892" lon="13.6529593"><ele>463.99999999999994</ele><time>2026-05-02T10:06:50.471Z</time></trkpt><trkpt lat="46.1622567" lon="13.6528812"><ele>464.0</ele><time>2026-05-02T10:06:51.471Z</time></trkpt><trkpt lat="46.1623142" lon="13.6528025"><ele>464.8571428571429</ele><time>2026-05-02T10:06:52.469Z</time></trkpt><trkpt lat="46.1623645" lon="13.6527225"><ele>465.7142857142857</ele><time>2026-05-02T10:06:53.47Z</time></trkpt><trkpt lat="46.162401" lon="13.6526408"><ele>466.57142857142856</ele><time>2026-05-02T10:06:54.469Z</time></trkpt><trkpt lat="46.1624407" lon="13.6525187"><ele>467.42857142857144</ele><time>2026-05-02T10:06:56.47Z</time></trkpt><trkpt lat="46.1624628" lon="13.652425"><ele>468.2857142857142</ele><time>2026-05-02T10:06:58.469Z</time></trkpt><trkpt lat="46.1624863" lon="13.6523357"><ele>469.1428571428571</ele><time>2026-05-02T10:07:00.47Z</time></trkpt><trkpt lat="46.162522" lon="13.6522387"><ele>470.0</ele><time>2026-05-02T10:07:02.467Z</time></trkpt><trkpt lat="46.1626393" lon="13.6520272"><ele>469.99999999999994</ele><time>2026-05-02T10:07:06.47Z</time></trkpt><trkpt lat="46.1626947" lon="13.6519623"><ele>470.0</ele><time>2026-05-02T10:07:07.469Z</time></trkpt><trkpt lat="46.1627512" lon="13.6518907"><ele>470.0</ele><time>2026-05-02T10:07:08.469Z</time></trkpt><trkpt lat="46.1628053" lon="13.6518057"><ele>470.0</ele><time>2026-05-02T10:07:09.469Z</time></trkpt><trkpt lat="46.1628505" lon="13.6517142"><ele>469.99999999999994</ele><time>2026-05-02T10:07:10.469Z</time></trkpt><trkpt lat="46.1628865" lon="13.65161"><ele>470.0</ele><time>2026-05-02T10:07:11.469Z</time></trkpt><trkpt lat="46.1629228" lon="13.6515172"><ele>473.4285714285714</ele><time>2026-05-02T10:07:12.469Z</time></trkpt><trkpt lat="46.1629538" lon="13.6514283"><ele>476.8571428571428</ele><time>2026-05-02T10:07:13.468Z</time></trkpt><trkpt lat="46.1629912" lon="13.6513323"><ele>480.2857142857143</ele><time>2026-05-02T10:07:14.468Z</time></trkpt><trkpt lat="46.163023" lon="13.651243"><ele>483.71428571428567</ele><time>2026-05-02T10:07:15.47Z</time></trkpt><trkpt lat="46.163052" lon="13.6511565"><ele>487.1428571428571</ele><time>2026-05-02T10:07:16.469Z</time></trkpt><trkpt lat="46.1630823" lon="13.6510757"><ele>490.57142857142856</ele><time>2026-05-02T10:07:17.468Z</time></trkpt><trkpt lat="46.1631267" lon="13.6510075"><ele>494.0</ele><time>2026-05-02T10:07:18.469Z</time></trkpt><trkpt lat="46.1631757" lon="13.6509495"><ele>493.2</ele><time>2026-05-02T10:07:19.468Z</time></trkpt><trkpt lat="46.1632457" lon="13.6508975"><ele>492.4</ele><time>2026-05-02T10:07:20.469Z</time></trkpt><trkpt lat="46.1633287" lon="13.6508505"><ele>491.6</ele><time>2026-05-02T10:07:21.469Z</time></trkpt><trkpt lat="46.1634207" lon="13.6507978"><ele>490.8</ele><time>2026-05-02T10:07:22.47Z</time></trkpt><trkpt lat="46.1635175" lon="13.6507325"><ele>490.0</ele><time>2026-05-02T10:07:23.469Z</time></trkpt><trkpt lat="46.1637" lon="13.6506083"><ele>490.00000000000006</ele><time>2026-05-02T10:07:25.47Z</time></trkpt><trkpt lat="46.163768" lon="13.650539"><ele>490.0</ele><time>2026-05-02T10:07:26.467Z</time></trkpt><trkpt lat="46.1638188" lon="13.6504598"><ele>490.0</ele><time>2026-05-02T10:07:28.468Z</time></trkpt><trkpt lat="46.1637643" lon="13.65041"><ele>490.0</ele><time>2026-05-02T10:07:31.469Z</time></trkpt><trkpt lat="46.1636782" lon="13.6504368"><ele>490.00000000000006</ele><time>2026-05-02T10:07:33.469Z</time></trkpt><trkpt lat="46.163547" lon="13.6504592"><ele>490.0</ele><time>2026-05-02T10:07:35.47Z</time></trkpt><trkpt lat="46.1634648" lon="13.6504635"><ele>490.00000000000006</ele><time>2026-05-02T10:07:36.471Z</time></trkpt><trkpt lat="46.1633713" lon="13.650465"><ele>490.0</ele><time>2026-05-02T10:07:37.471Z</time></trkpt><trkpt lat="46.16328" lon="13.650477"><ele>490.0</ele><time>2026-05-02T10:07:38.47Z</time></trkpt><trkpt lat="46.1631918" lon="13.6504942"><ele>490.0</ele><time>2026-05-02T10:07:39.471Z</time></trkpt><trkpt lat="46.1631073" lon="13.6505265"><ele>490.00000000000006</ele><time>2026-05-02T10:07:40.469Z</time></trkpt><trkpt lat="46.1630258" lon="13.6505683"><ele>490.0</ele><time>2026-05-02T10:07:41.47Z</time></trkpt><trkpt lat="46.1629418" lon="13.6506243"><ele>496.8</ele><time>2026-05-02T10:07:42.47Z</time></trkpt><trkpt lat="46.1628597" lon="13.6506948"><ele>503.6</ele><time>2026-05-02T10:07:43.469Z</time></trkpt><trkpt lat="46.1627912" lon="13.6507502"><ele>510.4</ele><time>2026-05-02T10:07:44.471Z</time></trkpt><trkpt lat="46.1626628" lon="13.6508097"><ele>517.2</ele><time>2026-05-02T10:07:46.47Z</time></trkpt><trkpt lat="46.1625393" lon="13.6508052"><ele>524.0</ele><time>2026-05-02T10:07:48.47Z</time></trkpt><trkpt lat="46.162469" lon="13.6508042"><ele>524.0</ele><time>2026-05-02T10:07:49.47Z</time></trkpt><trkpt lat="46.1623932" lon="13.6508107"><ele>524.0</ele><time>2026-05-02T10:07:50.469Z</time></trkpt><trkpt lat="46.1622932" lon="13.6508235"><ele>524.0</ele><time>2026-05-02T10:07:52.468Z</time></trkpt><trkpt lat="46.1622395" lon="13.6509098"><ele>524.0</ele><time>2026-05-02T10:07:54.469Z</time></trkpt><trkpt lat="46.1622128" lon="13.6510657"><ele>524.0</ele><time>2026-05-02T10:07:56.469Z</time></trkpt><trkpt lat="46.1621627" lon="13.6511875"><ele>525.4</ele><time>2026-05-02T10:07:58.468Z</time></trkpt><trkpt lat="46.162085" lon="13.6512783"><ele>526.8</ele><time>2026-05-02T10:08:00.469Z</time></trkpt><trkpt lat="46.1619735" lon="13.6513562"><ele>528.2</ele><time>2026-05-02T10:08:02.468Z</time></trkpt><trkpt lat="46.1619" lon="13.6514037"><ele>529.6</ele><time>2026-05-02T10:08:03.469Z</time></trkpt><trkpt lat="46.1618115" lon="13.651438"><ele>531.0</ele><time>2026-05-02T10:08:04.468Z</time></trkpt><trkpt lat="46.1617213" lon="13.6514725"><ele>531.0</ele><time>2026-05-02T10:08:05.468Z</time></trkpt><trkpt lat="46.1615572" lon="13.651567"><ele>531.0</ele><time>2026-05-02T10:08:07.468Z</time></trkpt><trkpt lat="46.161491" lon="13.6516007"><ele>531.0</ele><time>2026-05-02T10:08:08.468Z</time></trkpt><trkpt lat="46.1613767" lon="13.6515893"><ele>531.0</ele><time>2026-05-02T10:08:10.47Z</time></trkpt><trkpt lat="46.1612543" lon="13.6515063"><ele>531.8</ele><time>2026-05-02T10:08:12.471Z</time></trkpt><trkpt lat="46.1611775" lon="13.6514423"><ele>532.6</ele><time>2026-05-02T10:08:13.475Z</time></trkpt><trkpt lat="46.1610997" lon="13.6513895"><ele>533.4</ele><time>2026-05-02T10:08:14.47Z</time></trkpt><trkpt lat="46.1610353" lon="13.6513477"><ele>534.2</ele><time>2026-05-02T10:08:15.469Z</time></trkpt><trkpt lat="46.1609452" lon="13.6512512"><ele>535.0</ele><time>2026-05-02T10:08:17.469Z</time></trkpt><trkpt lat="46.1608655" lon="13.6511147"><ele>538.7142857142857</ele><time>2026-05-02T10:08:19.47Z</time></trkpt><trkpt lat="46.160809" lon="13.651066"><ele>542.4285714285714</ele><time>2026-05-02T10:08:20.471Z</time></trkpt><trkpt lat="46.1607347" lon="13.6510342"><ele>546.1428571428571</ele><time>2026-05-02T10:08:21.471Z</time></trkpt><trkpt lat="46.1606583" lon="13.6510148"><ele>549.8571428571429</ele><time>2026-05-02T10:08:22.47Z</time></trkpt><trkpt lat="46.160598" lon="13.6509855"><ele>553.5714285714286</ele><time>2026-05-02T10:08:23.47Z</time></trkpt><trkpt lat="46.1605385" lon="13.6509325"><ele>557.2857142857142</ele><time>2026-05-02T10:08:24.472Z</time></trkpt><trkpt lat="46.1604723" lon="13.6508642"><ele>561.0</ele><time>2026-05-02T10:08:25.472Z</time></trkpt><trkpt lat="46.1604113" lon="13.6508005"><ele>561.0</ele><time>2026-05-02T10:08:26.472Z</time></trkpt><trkpt lat="46.1603228" lon="13.6506602"><ele>561.0</ele><time>2026-05-02T10:08:28.471Z</time></trkpt><trkpt lat="46.1602858" lon="13.6505687"><ele>561.0</ele><time>2026-05-02T10:08:29.47Z</time></trkpt><trkpt lat="46.160218" lon="13.6504483"><ele>561.0</ele><time>2026-05-02T10:08:31.47Z</time></trkpt><trkpt lat="46.1601537" lon="13.6503963"><ele>561.0</ele><time>2026-05-02T10:08:33.47Z</time></trkpt><trkpt lat="46.1600765" lon="13.6503963"><ele>561.0</ele><time>2026-05-02T10:08:35.469Z</time></trkpt><trkpt lat="46.1599633" lon="13.6505062"><ele>561.0</ele><time>2026-05-02T10:08:37.47Z</time></trkpt><trkpt lat="46.1598908" lon="13.6505552"><ele>561.0</ele><time>2026-05-02T10:08:38.469Z</time></trkpt><trkpt lat="46.1597997" lon="13.6506178"><ele>561.0</ele><time>2026-05-02T10:08:39.469Z</time></trkpt><trkpt lat="46.1596993" lon="13.6506947"><ele>561.0</ele><time>2026-05-02T10:08:40.468Z</time></trkpt><trkpt lat="46.1596057" lon="13.6507762"><ele>559.1428571428571</ele><time>2026-05-02T10:08:41.469Z</time></trkpt><trkpt lat="46.1595292" lon="13.6508367"><ele>557.2857142857142</ele><time>2026-05-02T10:08:42.47Z</time></trkpt><trkpt lat="46.1594553" lon="13.650884"><ele>555.4285714285714</ele><time>2026-05-02T10:08:43.469Z</time></trkpt><trkpt lat="46.1593873" lon="13.6509037"><ele>553.5714285714286</ele><time>2026-05-02T10:08:44.471Z</time></trkpt><trkpt lat="46.1593228" lon="13.650887"><ele>551.7142857142858</ele><time>2026-05-02T10:08:45.471Z</time></trkpt><trkpt lat="46.1592607" lon="13.6508447"><ele>549.8571428571429</ele><time>2026-05-02T10:08:46.47Z</time></trkpt><trkpt lat="46.1592112" lon="13.6507832"><ele>548.0</ele><time>2026-05-02T10:08:47.471Z</time></trkpt><trkpt lat="46.1591433" lon="13.6504583"><ele>548.0</ele><time>2026-05-02T10:08:51.471Z</time></trkpt><trkpt lat="46.1591097" lon="13.650367"><ele>548.0</ele><time>2026-05-02T10:08:52.47Z</time></trkpt><trkpt lat="46.1590513" lon="13.6502848"><ele>548.0</ele><time>2026-05-02T10:08:53.471Z</time></trkpt><trkpt lat="46.1589888" lon="13.6501962"><ele>548.0</ele><time>2026-05-02T10:08:54.47Z</time></trkpt><trkpt lat="46.1589343" lon="13.6501188"><ele>548.0</ele><time>2026-05-02T10:08:55.47Z</time></trkpt><trkpt lat="46.1588888" lon="13.6500475"><ele>548.0</ele><time>2026-05-02T10:08:56.47Z</time></trkpt><trkpt lat="46.1588547" lon="13.6499667"><ele>547.3333333333333</ele><time>2026-05-02T10:08:57.47Z</time></trkpt><trkpt lat="46.1588167" lon="13.6498722"><ele>546.6666666666666</ele><time>2026-05-02T10:08:58.472Z</time></trkpt><trkpt lat="46.158779" lon="13.6497707"><ele>546.0</ele><time>2026-05-02T10:08:59.472Z</time></trkpt><trkpt lat="46.1587443" lon="13.6496638"><ele>545.3333333333334</ele><time>2026-05-02T10:09:00.47Z</time></trkpt><trkpt lat="46.1587168" lon="13.6495565"><ele>544.6666666666667</ele><time>2026-05-02T10:09:01.471Z</time></trkpt><trkpt lat="46.158683" lon="13.6494122"><ele>544.0</ele><time>2026-05-02T10:09:03.471Z</time></trkpt><trkpt lat="46.1587028" lon="13.6492668"><ele>548.8</ele><time>2026-05-02T10:09:05.469Z</time></trkpt><trkpt lat="46.1587258" lon="13.6491798"><ele>553.5999999999999</ele><time>2026-05-02T10:09:06.469Z</time></trkpt><trkpt lat="46.1587287" lon="13.6490297"><ele>558.4</ele><time>2026-05-02T10:09:08.471Z</time></trkpt><trkpt lat="46.1585772" lon="13.6488615"><ele>563.1999999999999</ele><time>2026-05-02T10:09:11.472Z</time></trkpt><trkpt lat="46.1584998" lon="13.6487987"><ele>568.0</ele><time>2026-05-02T10:09:12.471Z</time></trkpt><trkpt lat="46.158421" lon="13.6487273"><ele>568.0</ele><time>2026-05-02T10:09:13.47Z</time></trkpt><trkpt lat="46.158354" lon="13.6486797"><ele>568.0</ele><time>2026-05-02T10:09:14.47Z</time></trkpt><trkpt lat="46.1582918" lon="13.6486402"><ele>568.0</ele><time>2026-05-02T10:09:15.472Z</time></trkpt><trkpt lat="46.1582297" lon="13.6485843"><ele>568.0</ele><time>2026-05-02T10:09:16.471Z</time></trkpt><trkpt lat="46.1581695" lon="13.6485117"><ele>568.0</ele><time>2026-05-02T10:09:17.472Z</time></trkpt><trkpt lat="46.1581198" lon="13.6484245"><ele>568.0</ele><time>2026-05-02T10:09:18.472Z</time></trkpt><trkpt lat="46.1580842" lon="13.6483363"><ele>568.0</ele><time>2026-05-02T10:09:19.472Z</time></trkpt><trkpt lat="46.158076" lon="13.6481628"><ele>571.5</ele><time>2026-05-02T10:09:21.477Z</time></trkpt><trkpt lat="46.1580865" lon="13.6480555"><ele>575.0</ele><time>2026-05-02T10:09:22.473Z</time></trkpt><trkpt lat="46.1581052" lon="13.6479457"><ele>578.5</ele><time>2026-05-02T10:09:23.472Z</time></trkpt><trkpt lat="46.1581412" lon="13.647845"><ele>582.0</ele><time>2026-05-02T10:09:24.471Z</time></trkpt><trkpt lat="46.1581938" lon="13.6477522"><ele>585.5</ele><time>2026-05-02T10:09:25.471Z</time></trkpt><trkpt lat="46.158238" lon="13.6476677"><ele>589.0</ele><time>2026-05-02T10:09:26.471Z</time></trkpt><trkpt lat="46.1582512" lon="13.6475472"><ele>592.4</ele><time>2026-05-02T10:09:28.472Z</time></trkpt><trkpt lat="46.15819" lon="13.6474692"><ele>595.8</ele><time>2026-05-02T10:09:30.469Z</time></trkpt><trkpt lat="46.1580393" lon="13.6473547"><ele>599.2</ele><time>2026-05-02T10:09:33.474Z</time></trkpt><trkpt lat="46.1579975" lon="13.6472847"><ele>602.6</ele><time>2026-05-02T10:09:34.47Z</time></trkpt><trkpt lat="46.1579362" lon="13.6472188"><ele>606.0</ele><time>2026-05-02T10:09:36.471Z</time></trkpt><trkpt lat="46.1578827" lon="13.6472798"><ele>606.0</ele><time>2026-05-02T10:09:38.47Z</time></trkpt><trkpt lat="46.1578073" lon="13.6474178"><ele>606.0</ele><time>2026-05-02T10:09:40.471Z</time></trkpt><trkpt lat="46.157708" lon="13.6475228"><ele>606.0</ele><time>2026-05-02T10:09:42.472Z</time></trkpt><trkpt lat="46.1576383" lon="13.6475342"><ele>606.0</ele><time>2026-05-02T10:09:43.471Z</time></trkpt><trkpt lat="46.1575353" lon="13.6474588"><ele>606.0</ele><time>2026-05-02T10:09:45.473Z</time></trkpt><trkpt lat="46.1574503" lon="13.6473163"><ele>606.0</ele><time>2026-05-02T10:09:47.471Z</time></trkpt><trkpt lat="46.1574057" lon="13.6472243"><ele>606.0</ele><time>2026-05-02T10:09:48.471Z</time></trkpt><trkpt lat="46.1573587" lon="13.6471212"><ele>606.0</ele><time>2026-05-02T10:09:49.47Z</time></trkpt><trkpt lat="46.1573152" lon="13.6470173"><ele>606.0</ele><time>2026-05-02T10:09:50.47Z</time></trkpt><trkpt lat="46.157268" lon="13.6469478"><ele>606.0</ele><time>2026-05-02T10:09:51.472Z</time></trkpt><trkpt lat="46.157124" lon="13.6469782"><ele>610.4</ele><time>2026-05-02T10:09:55.469Z</time></trkpt><trkpt lat="46.1570612" lon="13.6470492"><ele>614.8</ele><time>2026-05-02T10:09:57.471Z</time></trkpt><trkpt lat="46.1570033" lon="13.6471373"><ele>619.1999999999999</ele><time>2026-05-02T10:09:59.47Z</time></trkpt><trkpt lat="46.1569338" lon="13.6472387"><ele>623.6</ele><time>2026-05-02T10:10:01.47Z</time></trkpt><trkpt lat="46.156856" lon="13.647337"><ele>628.0</ele><time>2026-05-02T10:10:03.47Z</time></trkpt><trkpt lat="46.1567543" lon="13.6474333"><ele>628.0</ele><time>2026-05-02T10:10:05.47Z</time></trkpt><trkpt lat="46.1566988" lon="13.6474878"><ele>628.0</ele><time>2026-05-02T10:10:06.471Z</time></trkpt><trkpt lat="46.1566495" lon="13.647548"><ele>628.0</ele><time>2026-05-02T10:10:07.469Z</time></trkpt><trkpt lat="46.1566207" lon="13.6476795"><ele>628.0</ele><time>2026-05-02T10:10:09.472Z</time></trkpt><trkpt lat="46.156555" lon="13.6477498"><ele>628.0</ele><time>2026-05-02T10:10:12.471Z</time></trkpt><trkpt lat="46.1565262" lon="13.6475387"><ele>628.0</ele><time>2026-05-02T10:10:17.47Z</time></trkpt><trkpt lat="46.1565477" lon="13.6473995"><ele>628.0</ele><time>2026-05-02T10:10:19.47Z</time></trkpt><trkpt lat="46.1565837" lon="13.6472463"><ele>628.0</ele><time>2026-05-02T10:10:21.47Z</time></trkpt><trkpt lat="46.1566103" lon="13.6471048"><ele>628.0</ele><time>2026-05-02T10:10:23.471Z</time></trkpt><trkpt lat="46.1566458" lon="13.6469675"><ele>628.0</ele><time>2026-05-02T10:10:25.471Z</time></trkpt><trkpt lat="46.156686" lon="13.6468948"><ele>629.0</ele><time>2026-05-02T10:10:26.471Z</time></trkpt><trkpt lat="46.1567262" lon="13.6468108"><ele>630.0</ele><time>2026-05-02T10:10:27.472Z</time></trkpt><trkpt lat="46.156758" lon="13.6467167"><ele>631.0</ele><time>2026-05-02T10:10:28.473Z</time></trkpt><trkpt lat="46.156792" lon="13.6466028"><ele>632.0</ele><time>2026-05-02T10:10:29.471Z</time></trkpt><trkpt lat="46.1568263" lon="13.6464912"><ele>633.0</ele><time>2026-05-02T10:10:30.471Z</time></trkpt><trkpt lat="46.1568682" lon="13.6463772"><ele>634.0</ele><time>2026-05-02T10:10:31.472Z</time></trkpt><trkpt lat="46.1569105" lon="13.6462663"><ele>634.0</ele><time>2026-05-02T10:10:32.471Z</time></trkpt><trkpt lat="46.1569592" lon="13.6461528"><ele>634.0</ele><time>2026-05-02T10:10:33.471Z</time></trkpt><trkpt lat="46.1570563" lon="13.6459412"><ele>634.0</ele><time>2026-05-02T10:10:35.469Z</time></trkpt><trkpt lat="46.1570972" lon="13.6458677"><ele>634.0</ele><time>2026-05-02T10:10:36.476Z</time></trkpt><trkpt lat="46.1571802" lon="13.645776"><ele>634.0</ele><time>2026-05-02T10:10:38.469Z</time></trkpt><trkpt lat="46.1572635" lon="13.6457538"><ele>636.6666666666667</ele><time>2026-05-02T10:10:40.47Z</time></trkpt><trkpt lat="46.1573818" lon="13.6458177"><ele>639.3333333333334</ele><time>2026-05-02T10:10:42.469Z</time></trkpt><trkpt lat="46.1574523" lon="13.6458507"><ele>642.0</ele><time>2026-05-02T10:10:43.469Z</time></trkpt><trkpt lat="46.157527" lon="13.6458707"><ele>644.6666666666666</ele><time>2026-05-02T10:10:44.469Z</time></trkpt><trkpt lat="46.1575913" lon="13.6458633"><ele>647.3333333333333</ele><time>2026-05-02T10:10:45.469Z</time></trkpt><trkpt lat="46.1576558" lon="13.6458258"><ele>650.0</ele><time>2026-05-02T10:10:46.471Z</time></trkpt><trkpt lat="46.157727" lon="13.64577"><ele>650.0</ele><time>2026-05-02T10:10:47.473Z</time></trkpt><trkpt lat="46.1577985" lon="13.6457012"><ele>650.0</ele><time>2026-05-02T10:10:48.471Z</time></trkpt><trkpt lat="46.1578765" lon="13.6456462"><ele>650.0</ele><time>2026-05-02T10:10:49.471Z</time></trkpt><trkpt lat="46.1579465" lon="13.6456235"><ele>650.0</ele><time>2026-05-02T10:10:50.472Z</time></trkpt><trkpt lat="46.1580223" lon="13.6456153"><ele>650.0</ele><time>2026-05-02T10:10:51.472Z</time></trkpt><trkpt lat="46.1580953" lon="13.6456222"><ele>650.0</ele><time>2026-05-02T10:10:52.471Z</time></trkpt><trkpt lat="46.1581877" lon="13.6456483"><ele>650.0</ele><time>2026-05-02T10:10:54.473Z</time></trkpt><trkpt lat="46.1582202" lon="13.6455273"><ele>650.0</ele><time>2026-05-02T10:11:01.473Z</time></trkpt><trkpt lat="46.1582773" lon="13.6454525"><ele>650.0</ele><time>2026-05-02T10:11:05.473Z</time></trkpt><trkpt lat="46.1583523" lon="13.6454778"><ele>650.0</ele><time>2026-05-02T10:11:08.472Z</time></trkpt><trkpt lat="46.1584173" lon="13.6454753"><ele>650.0</ele><time>2026-05-02T10:11:10.472Z</time></trkpt><trkpt lat="46.1585212" lon="13.6454622"><ele>650.0</ele><time>2026-05-02T10:11:12.473Z</time></trkpt><trkpt lat="46.1585863" lon="13.6454442"><ele>650.0</ele><time>2026-05-02T10:11:13.472Z</time></trkpt><trkpt lat="46.1586628" lon="13.6454035"><ele>650.0</ele><time>2026-05-02T10:11:14.471Z</time></trkpt><trkpt lat="46.1587393" lon="13.6453387"><ele>650.0</ele><time>2026-05-02T10:11:15.472Z</time></trkpt><trkpt lat="46.1588837" lon="13.6451517"><ele>650.0</ele><time>2026-05-02T10:11:17.471Z</time></trkpt><trkpt lat="46.1589462" lon="13.6450443"><ele>650.2</ele><time>2026-05-02T10:11:18.472Z</time></trkpt><trkpt lat="46.159011" lon="13.6449555"><ele>650.4</ele><time>2026-05-02T10:11:19.471Z</time></trkpt><trkpt lat="46.159086" lon="13.6449153"><ele>650.5999999999999</ele><time>2026-05-02T10:11:20.471Z</time></trkpt><trkpt lat="46.1591787" lon="13.6449358"><ele>650.8</ele><time>2026-05-02T10:11:21.471Z</time></trkpt><trkpt lat="46.1592913" lon="13.6449837"><ele>651.0</ele><time>2026-05-02T10:11:22.471Z</time></trkpt><trkpt lat="46.1594247" lon="13.645025"><ele>655.6666666666666</ele><time>2026-05-02T10:11:23.469Z</time></trkpt><trkpt lat="46.1595758" lon="13.6450633"><ele>660.3333333333333</ele><time>2026-05-02T10:11:24.469Z</time></trkpt><trkpt lat="46.1597367" lon="13.6451207"><ele>665.0</ele><time>2026-05-02T10:11:25.468Z</time></trkpt><trkpt lat="46.1599012" lon="13.645188"><ele>667.3333333333333</ele><time>2026-05-02T10:11:26.467Z</time></trkpt><trkpt lat="46.1600635" lon="13.6452425"><ele>669.6666666666666</ele><time>2026-05-02T10:11:27.469Z</time></trkpt><trkpt lat="46.160229" lon="13.6452618"><ele>672.0</ele><time>2026-05-02T10:11:28.468Z</time></trkpt><trkpt lat="46.1604017" lon="13.6452548"><ele>672.0</ele><time>2026-05-02T10:11:29.468Z</time></trkpt><trkpt lat="46.1605538" lon="13.6452148"><ele>672.0</ele><time>2026-05-02T10:11:30.468Z</time></trkpt><trkpt lat="46.1606862" lon="13.6451468"><ele>672.0</ele><time>2026-05-02T10:11:31.467Z</time></trkpt><trkpt lat="46.1607875" lon="13.6450262"><ele>672.0</ele><time>2026-05-02T10:11:32.467Z</time></trkpt><trkpt lat="46.1608762" lon="13.644913"><ele>676.5</ele><time>2026-05-02T10:11:33.467Z</time></trkpt><trkpt lat="46.1609738" lon="13.6447992"><ele>681.0</ele><time>2026-05-02T10:11:34.467Z</time></trkpt><trkpt lat="46.1610877" lon="13.6447137"><ele>685.5</ele><time>2026-05-02T10:11:35.47Z</time></trkpt><trkpt lat="46.1611815" lon="13.6446383"><ele>690.0</ele><time>2026-05-02T10:11:36.47Z</time></trkpt><trkpt lat="46.161377" lon="13.644447"><ele>689.75</ele><time>2026-05-02T10:11:38.469Z</time></trkpt><trkpt lat="46.1614927" lon="13.644338"><ele>689.5</ele><time>2026-05-02T10:11:39.47Z</time></trkpt><trkpt lat="46.1616095" lon="13.6442397"><ele>689.25</ele><time>2026-05-02T10:11:40.469Z</time></trkpt><trkpt lat="46.1617275" lon="13.6441655"><ele>689.0</ele><time>2026-05-02T10:11:41.471Z</time></trkpt><trkpt lat="46.161829" lon="13.644071"><ele>689.0</ele><time>2026-05-02T10:11:42.47Z</time></trkpt><trkpt lat="46.1619073" lon="13.6439348"><ele>689.0</ele><time>2026-05-02T10:11:43.47Z</time></trkpt><trkpt lat="46.1619592" lon="13.643752"><ele>689.0</ele><time>2026-05-02T10:11:44.47Z</time></trkpt><trkpt lat="46.1619988" lon="13.643557"><ele>689.0</ele><time>2026-05-02T10:11:45.47Z</time></trkpt><trkpt lat="46.1620475" lon="13.6433768"><ele>683.75</ele><time>2026-05-02T10:11:46.47Z</time></trkpt><trkpt lat="46.1621037" lon="13.6432162"><ele>678.5</ele><time>2026-05-02T10:11:47.47Z</time></trkpt><trkpt lat="46.1621843" lon="13.6430753"><ele>673.25</ele><time>2026-05-02T10:11:48.472Z</time></trkpt><trkpt lat="46.1622898" lon="13.6429683"><ele>668.0</ele><time>2026-05-02T10:11:49.47Z</time></trkpt><trkpt lat="46.1624222" lon="13.6428585"><ele>676.6666666666666</ele><time>2026-05-02T10:11:50.47Z</time></trkpt><trkpt lat="46.162562" lon="13.6427158"><ele>685.3333333333334</ele><time>2026-05-02T10:11:51.471Z</time></trkpt><trkpt lat="46.1626902" lon="13.6425247"><ele>694.0</ele><time>2026-05-02T10:11:52.47Z</time></trkpt><trkpt lat="46.1627917" lon="13.6423383"><ele>694.0</ele><time>2026-05-02T10:11:53.469Z</time></trkpt><trkpt lat="46.1628728" lon="13.6421837"><ele>694.0</ele><time>2026-05-02T10:11:54.47Z</time></trkpt><trkpt lat="46.162945" lon="13.6420657"><ele>694.0</ele><time>2026-05-02T10:11:55.469Z</time></trkpt><trkpt lat="46.1630223" lon="13.6419955"><ele>694.0</ele><time>2026-05-02T10:11:56.468Z</time></trkpt><trkpt lat="46.1631038" lon="13.6419765"><ele>694.0</ele><time>2026-05-02T10:11:57.469Z</time></trkpt><trkpt lat="46.1633058" lon="13.642106"><ele>701.5</ele><time>2026-05-02T10:11:59.47Z</time></trkpt><trkpt lat="46.163388" lon="13.6422235"><ele>709.0</ele><time>2026-05-02T10:12:00.471Z</time></trkpt><trkpt lat="46.1634423" lon="13.6423687"><ele>716.5</ele><time>2026-05-02T10:12:01.47Z</time></trkpt><trkpt lat="46.1635098" lon="13.6425357"><ele>724.0</ele><time>2026-05-02T10:12:02.471Z</time></trkpt><trkpt lat="46.163602" lon="13.6426897"><ele>729.6666666666667</ele><time>2026-05-02T10:12:03.47Z</time></trkpt><trkpt lat="46.163726" lon="13.6427995"><ele>735.3333333333334</ele><time>2026-05-02T10:12:04.47Z</time></trkpt><trkpt lat="46.1638717" lon="13.642859"><ele>741.0</ele><time>2026-05-02T10:12:05.469Z</time></trkpt><trkpt lat="46.1640245" lon="13.6428542"><ele>736.6666666666666</ele><time>2026-05-02T10:12:06.469Z</time></trkpt><trkpt lat="46.1641892" lon="13.6428112"><ele>732.3333333333333</ele><time>2026-05-02T10:12:07.469Z</time></trkpt><trkpt lat="46.1643667" lon="13.6427385"><ele>728.0</ele><time>2026-05-02T10:12:08.469Z</time></trkpt><trkpt lat="46.1645445" lon="13.6426272"><ele>727.6666666666666</ele><time>2026-05-02T10:12:09.47Z</time></trkpt><trkpt lat="46.1647127" lon="13.6425177"><ele>727.3333333333334</ele><time>2026-05-02T10:12:10.471Z</time></trkpt><trkpt lat="46.1648592" lon="13.642395"><ele>727.0</ele><time>2026-05-02T10:12:11.471Z</time></trkpt><trkpt lat="46.1649847" lon="13.6422557"><ele>727.0</ele><time>2026-05-02T10:12:12.471Z</time></trkpt><trkpt lat="46.1650888" lon="13.6421135"><ele>727.0</ele><time>2026-05-02T10:12:13.471Z</time></trkpt><trkpt lat="46.1651805" lon="13.6419925"><ele>727.0</ele><time>2026-05-02T10:12:14.472Z</time></trkpt><trkpt lat="46.1652795" lon="13.6419152"><ele>727.0</ele><time>2026-05-02T10:12:15.472Z</time></trkpt><trkpt lat="46.1653885" lon="13.6418935"><ele>727.0</ele><time>2026-05-02T10:12:16.471Z</time></trkpt><trkpt lat="46.1655195" lon="13.6419297"><ele>727.0</ele><time>2026-05-02T10:12:17.471Z</time></trkpt><trkpt lat="46.165665" lon="13.6419805"><ele>727.0</ele><time>2026-05-02T10:12:18.472Z</time></trkpt><trkpt lat="46.1659633" lon="13.6419498"><ele>724.5</ele><time>2026-05-02T10:12:20.469Z</time></trkpt><trkpt lat="46.1660972" lon="13.6418947"><ele>722.0</ele><time>2026-05-02T10:12:21.471Z</time></trkpt><trkpt lat="46.1662247" lon="13.6418323"><ele>719.5</ele><time>2026-05-02T10:12:22.47Z</time></trkpt><trkpt lat="46.1663372" lon="13.6417693"><ele>717.0</ele><time>2026-05-02T10:12:23.47Z</time></trkpt><trkpt lat="46.1664367" lon="13.6416912"><ele>720.0</ele><time>2026-05-02T10:12:24.472Z</time></trkpt><trkpt lat="46.1665323" lon="13.6415972"><ele>723.0</ele><time>2026-05-02T10:12:25.472Z</time></trkpt><trkpt lat="46.1666172" lon="13.641479"><ele>726.0</ele><time>2026-05-02T10:12:26.471Z</time></trkpt><trkpt lat="46.166687" lon="13.6413328"><ele>729.0</ele><time>2026-05-02T10:12:27.472Z</time></trkpt><trkpt lat="46.1667462" lon="13.6411683"><ele>729.0</ele><time>2026-05-02T10:12:28.472Z</time></trkpt><trkpt lat="46.1667918" lon="13.6409865"><ele>729.0</ele><time>2026-05-02T10:12:29.47Z</time></trkpt><trkpt lat="46.1668152" lon="13.640787"><ele>729.0</ele><time>2026-05-02T10:12:30.471Z</time></trkpt><trkpt lat="46.16683" lon="13.6405907"><ele>729.0</ele><time>2026-05-02T10:12:31.471Z</time></trkpt><trkpt lat="46.1668497" lon="13.6404133"><ele>727.5</ele><time>2026-05-02T10:12:32.47Z</time></trkpt><trkpt lat="46.166876" lon="13.640269"><ele>726.0</ele><time>2026-05-02T10:12:33.471Z</time></trkpt><trkpt lat="46.1668998" lon="13.6401412"><ele>724.5</ele><time>2026-05-02T10:12:34.469Z</time></trkpt><trkpt lat="46.1669333" lon="13.6400305"><ele>723.0</ele><time>2026-05-02T10:12:35.471Z</time></trkpt><trkpt lat="46.1669847" lon="13.6399422"><ele>721.5</ele><time>2026-05-02T10:12:36.471Z</time></trkpt><trkpt lat="46.1670555" lon="13.6399027"><ele>720.0</ele><time>2026-05-02T10:12:37.472Z</time></trkpt><trkpt lat="46.1671358" lon="13.6399217"><ele>720.0</ele><time>2026-05-02T10:12:38.47Z</time></trkpt><trkpt lat="46.1672277" lon="13.6399823"><ele>720.0</ele><time>2026-05-02T10:12:39.472Z</time></trkpt><trkpt lat="46.1674352" lon="13.640103"><ele>720.0</ele><time>2026-05-02T10:12:41.47Z</time></trkpt><trkpt lat="46.1675432" lon="13.6401513"><ele>720.0</ele><time>2026-05-02T10:12:42.473Z</time></trkpt><trkpt lat="46.1676463" lon="13.6402033"><ele>722.5</ele><time>2026-05-02T10:12:43.469Z</time></trkpt><trkpt lat="46.1677517" lon="13.6402842"><ele>725.0</ele><time>2026-05-02T10:12:44.469Z</time></trkpt><trkpt lat="46.1678543" lon="13.640387"><ele>727.5</ele><time>2026-05-02T10:12:45.47Z</time></trkpt><trkpt lat="46.1679527" lon="13.640482"><ele>730.0</ele><time>2026-05-02T10:12:46.469Z</time></trkpt><trkpt lat="46.1680507" lon="13.6405665"><ele>727.6</ele><time>2026-05-02T10:12:47.467Z</time></trkpt><trkpt lat="46.1681482" lon="13.6406443"><ele>725.2</ele><time>2026-05-02T10:12:48.469Z</time></trkpt><trkpt lat="46.1682483" lon="13.6407122"><ele>722.8</ele><time>2026-05-02T10:12:49.469Z</time></trkpt><trkpt lat="46.1683452" lon="13.640779"><ele>720.4</ele><time>2026-05-02T10:12:50.469Z</time></trkpt><trkpt lat="46.1684377" lon="13.6408555"><ele>718.0</ele><time>2026-05-02T10:12:51.47Z</time></trkpt><trkpt lat="46.168523" lon="13.640956"><ele>718.0</ele><time>2026-05-02T10:12:52.471Z</time></trkpt><trkpt lat="46.1686058" lon="13.641071"><ele>718.0</ele><time>2026-05-02T10:12:53.469Z</time></trkpt><trkpt lat="46.1686778" lon="13.6411818"><ele>718.0</ele><time>2026-05-02T10:12:54.47Z</time></trkpt><trkpt lat="46.1687435" lon="13.6413158"><ele>718.0</ele><time>2026-05-02T10:12:55.472Z</time></trkpt><trkpt lat="46.1688007" lon="13.6414613"><ele>719.0</ele><time>2026-05-02T10:12:56.473Z</time></trkpt><trkpt lat="46.1688528" lon="13.6416128"><ele>720.0</ele><time>2026-05-02T10:12:57.472Z</time></trkpt><trkpt lat="46.168911" lon="13.6417472"><ele>721.0</ele><time>2026-05-02T10:12:58.471Z</time></trkpt><trkpt lat="46.1689725" lon="13.6418573"><ele>722.0</ele><time>2026-05-02T10:12:59.471Z</time></trkpt><trkpt lat="46.1690485" lon="13.6419488"><ele>723.0</ele><time>2026-05-02T10:13:00.474Z</time></trkpt><trkpt lat="46.1692597" lon="13.642051"><ele>717.25</ele><time>2026-05-02T10:13:02.472Z</time></trkpt><trkpt lat="46.1693853" lon="13.6420707"><ele>711.5</ele><time>2026-05-02T10:13:03.472Z</time></trkpt><trkpt lat="46.16952" lon="13.6420607"><ele>705.75</ele><time>2026-05-02T10:13:04.47Z</time></trkpt><trkpt lat="46.1696598" lon="13.6420492"><ele>700.0</ele><time>2026-05-02T10:13:05.471Z</time></trkpt><trkpt lat="46.169803" lon="13.6420378"><ele>701.0</ele><time>2026-05-02T10:13:06.471Z</time></trkpt><trkpt lat="46.1699485" lon="13.6419965"><ele>702.0</ele><time>2026-05-02T10:13:07.471Z</time></trkpt><trkpt lat="46.170094" lon="13.6419288"><ele>703.0</ele><time>2026-05-02T10:13:08.469Z</time></trkpt><trkpt lat="46.1702325" lon="13.6418522"><ele>704.0</ele><time>2026-05-02T10:13:09.469Z</time></trkpt><trkpt lat="46.1703562" lon="13.6417895"><ele>704.0</ele><time>2026-05-02T10:13:10.468Z</time></trkpt><trkpt lat="46.170486" lon="13.6417695"><ele>704.0</ele><time>2026-05-02T10:13:11.469Z</time></trkpt><trkpt lat="46.1706228" lon="13.6417792"><ele>704.0</ele><time>2026-05-02T10:13:12.469Z</time></trkpt><trkpt lat="46.1707683" lon="13.6417885"><ele>704.0</ele><time>2026-05-02T10:13:13.47Z</time></trkpt><trkpt lat="46.170916" lon="13.64176"><ele>709.3333333333333</ele><time>2026-05-02T10:13:14.469Z</time></trkpt><trkpt lat="46.1710607" lon="13.6417087"><ele>714.6666666666666</ele><time>2026-05-02T10:13:15.47Z</time></trkpt><trkpt lat="46.1712162" lon="13.6416463"><ele>720.0</ele><time>2026-05-02T10:13:16.471Z</time></trkpt><trkpt lat="46.1713663" lon="13.6415653"><ele>720.0</ele><time>2026-05-02T10:13:17.469Z</time></trkpt><trkpt lat="46.1715023" lon="13.6414903"><ele>720.0</ele><time>2026-05-02T10:13:18.47Z</time></trkpt><trkpt lat="46.1716278" lon="13.641438"><ele>720.0</ele><time>2026-05-02T10:13:19.469Z</time></trkpt><trkpt lat="46.1717505" lon="13.6414355"><ele>720.0</ele><time>2026-05-02T10:13:20.47Z</time></trkpt><trkpt lat="46.1718587" lon="13.6414777"><ele>725.0</ele><time>2026-05-02T10:13:21.471Z</time></trkpt><trkpt lat="46.1720823" lon="13.6415903"><ele>730.0</ele><time>2026-05-02T10:13:23.469Z</time></trkpt><trkpt lat="46.172198" lon="13.6415768"><ele>735.0</ele><time>2026-05-02T10:13:24.471Z</time></trkpt><trkpt lat="46.1723147" lon="13.6415143"><ele>737.75</ele><time>2026-05-02T10:13:25.471Z</time></trkpt><trkpt lat="46.1724502" lon="13.6414488"><ele>740.5</ele><time>2026-05-02T10:13:26.469Z</time></trkpt><trkpt lat="46.1725897" lon="13.641405"><ele>743.25</ele><time>2026-05-02T10:13:27.47Z</time></trkpt><trkpt lat="46.1727137" lon="13.64138"><ele>746.0</ele><time>2026-05-02T10:13:28.471Z</time></trkpt><trkpt lat="46.1728408" lon="13.641381"><ele>746.0</ele><time>2026-05-02T10:13:29.471Z</time></trkpt><trkpt lat="46.1729837" lon="13.6414112"><ele>746.0</ele><time>2026-05-02T10:13:30.47Z</time></trkpt><trkpt lat="46.1731395" lon="13.6414265"><ele>746.0</ele><time>2026-05-02T10:13:31.471Z</time></trkpt><trkpt lat="46.1733105" lon="13.6414272"><ele>749.3333333333333</ele><time>2026-05-02T10:13:32.47Z</time></trkpt><trkpt lat="46.173485" lon="13.64141"><ele>752.6666666666666</ele><time>2026-05-02T10:13:33.47Z</time></trkpt><trkpt lat="46.1736517" lon="13.6413652"><ele>756.0</ele><time>2026-05-02T10:13:34.469Z</time></trkpt><trkpt lat="46.1738122" lon="13.641322"><ele>756.0</ele><time>2026-05-02T10:13:35.469Z</time></trkpt><trkpt lat="46.1739622" lon="13.6412855"><ele>756.0</ele><time>2026-05-02T10:13:36.469Z</time></trkpt><trkpt lat="46.1740927" lon="13.6412683"><ele>756.0</ele><time>2026-05-02T10:13:37.47Z</time></trkpt><trkpt lat="46.1741953" lon="13.6412772"><ele>756.0</ele><time>2026-05-02T10:13:38.47Z</time></trkpt><trkpt lat="46.1742677" lon="13.6413222"><ele>757.5</ele><time>2026-05-02T10:13:39.473Z</time></trkpt><trkpt lat="46.1743155" lon="13.641413"><ele>759.0</ele><time>2026-05-02T10:13:40.471Z</time></trkpt><trkpt lat="46.1743348" lon="13.6415385"><ele>760.5</ele><time>2026-05-02T10:13:41.471Z</time></trkpt><trkpt lat="46.1743213" lon="13.6416947"><ele>762.0</ele><time>2026-05-02T10:13:42.471Z</time></trkpt><trkpt lat="46.1742245" lon="13.6421378"><ele>765.6666666666667</ele><time>2026-05-02T10:13:44.47Z</time></trkpt><trkpt lat="46.1741617" lon="13.6423922"><ele>769.3333333333334</ele><time>2026-05-02T10:13:45.47Z</time></trkpt><trkpt lat="46.1740973" lon="13.6426503"><ele>773.0</ele><time>2026-05-02T10:13:46.476Z</time></trkpt><trkpt lat="46.1740412" lon="13.6428962"><ele>782.0</ele><time>2026-05-02T10:13:47.469Z</time></trkpt><trkpt lat="46.1740028" lon="13.6431387"><ele>791.0</ele><time>2026-05-02T10:13:48.473Z</time></trkpt><trkpt lat="46.173993" lon="13.6433885"><ele>800.0</ele><time>2026-05-02T10:13:49.47Z</time></trkpt><trkpt lat="46.1739815" lon="13.6436357"><ele>800.0</ele><time>2026-05-02T10:13:50.469Z</time></trkpt><trkpt lat="46.1739685" lon="13.6438725"><ele>800.0</ele><time>2026-05-02T10:13:51.469Z</time></trkpt><trkpt lat="46.1739473" lon="13.6441005"><ele>800.0</ele><time>2026-05-02T10:13:52.47Z</time></trkpt><trkpt lat="46.1739278" lon="13.6443232"><ele>791.3333333333334</ele><time>2026-05-02T10:13:53.47Z</time></trkpt><trkpt lat="46.1739135" lon="13.6445475"><ele>782.6666666666667</ele><time>2026-05-02T10:13:54.47Z</time></trkpt><trkpt lat="46.1739047" lon="13.6447778"><ele>774.0</ele><time>2026-05-02T10:13:55.469Z</time></trkpt><trkpt lat="46.1739107" lon="13.645011"><ele>774.0</ele><time>2026-05-02T10:13:56.471Z</time></trkpt><trkpt lat="46.173911" lon="13.6452342"><ele>774.0</ele><time>2026-05-02T10:13:57.47Z</time></trkpt><trkpt lat="46.1739203" lon="13.6454362"><ele>774.0</ele><time>2026-05-02T10:13:58.467Z</time></trkpt><trkpt lat="46.1739292" lon="13.645614"><ele>774.0</ele><time>2026-05-02T10:13:59.467Z</time></trkpt><trkpt lat="46.1739667" lon="13.6457913"><ele>769.75</ele><time>2026-05-02T10:14:00.468Z</time></trkpt><trkpt lat="46.1740065" lon="13.6459708"><ele>765.5</ele><time>2026-05-02T10:14:01.468Z</time></trkpt><trkpt lat="46.1740568" lon="13.6461493"><ele>761.25</ele><time>2026-05-02T10:14:02.47Z</time></trkpt><trkpt lat="46.174119" lon="13.6463128"><ele>757.0</ele><time>2026-05-02T10:14:03.473Z</time></trkpt><trkpt lat="46.1742628" lon="13.6466373"><ele>757.0</ele><time>2026-05-02T10:14:05.469Z</time></trkpt><trkpt lat="46.1743383" lon="13.6468083"><ele>757.0</ele><time>2026-05-02T10:14:06.469Z</time></trkpt><trkpt lat="46.1744088" lon="13.6469888"><ele>757.0</ele><time>2026-05-02T10:14:07.472Z</time></trkpt><trkpt lat="46.1744757" lon="13.6471583"><ele>757.0</ele><time>2026-05-02T10:14:08.471Z</time></trkpt><trkpt lat="46.1745347" lon="13.6473145"><ele>756.0</ele><time>2026-05-02T10:14:09.474Z</time></trkpt><trkpt lat="46.1746017" lon="13.6474522"><ele>755.0</ele><time>2026-05-02T10:14:10.47Z</time></trkpt><trkpt lat="46.1746823" lon="13.6475673"><ele>754.0</ele><time>2026-05-02T10:14:11.47Z</time></trkpt><trkpt lat="46.174784" lon="13.6476545"><ele>753.0</ele><time>2026-05-02T10:14:12.471Z</time></trkpt><trkpt lat="46.1749" lon="13.6477112"><ele>753.0</ele><time>2026-05-02T10:14:13.469Z</time></trkpt><trkpt lat="46.1750352" lon="13.6477405"><ele>753.0</ele><time>2026-05-02T10:14:14.47Z</time></trkpt><trkpt lat="46.1751807" lon="13.6477367"><ele>753.0</ele><time>2026-05-02T10:14:15.47Z</time></trkpt><trkpt lat="46.1753315" lon="13.6477222"><ele>753.0</ele><time>2026-05-02T10:14:16.469Z</time></trkpt><trkpt lat="46.1754895" lon="13.6476858"><ele>753.0</ele><time>2026-05-02T10:14:17.469Z</time></trkpt><trkpt lat="46.1756457" lon="13.6476268"><ele>753.0</ele><time>2026-05-02T10:14:18.47Z</time></trkpt><trkpt lat="46.1757983" lon="13.647548"><ele>753.0</ele><time>2026-05-02T10:14:19.47Z</time></trkpt><trkpt lat="46.1759492" lon="13.6474652"><ele>754.75</ele><time>2026-05-02T10:14:20.468Z</time></trkpt><trkpt lat="46.1760905" lon="13.6473887"><ele>756.5</ele><time>2026-05-02T10:14:21.469Z</time></trkpt><trkpt lat="46.1762368" lon="13.6473335"><ele>758.25</ele><time>2026-05-02T10:14:22.468Z</time></trkpt><trkpt lat="46.1763735" lon="13.6472998"><ele>760.0</ele><time>2026-05-02T10:14:23.468Z</time></trkpt><trkpt lat="46.1765027" lon="13.6472887"><ele>766.5</ele><time>2026-05-02T10:14:24.468Z</time></trkpt><trkpt lat="46.1767882" lon="13.647398"><ele>773.0</ele><time>2026-05-02T10:14:26.468Z</time></trkpt><trkpt lat="46.1769433" lon="13.6474467"><ele>773.0</ele><time>2026-05-02T10:14:27.469Z</time></trkpt><trkpt lat="46.1771005" lon="13.6474727"><ele>773.0</ele><time>2026-05-02T10:14:28.467Z</time></trkpt><trkpt lat="46.1772492" lon="13.6474792"><ele>773.0</ele><time>2026-05-02T10:14:29.468Z</time></trkpt><trkpt lat="46.1773723" lon="13.647472"><ele>773.0</ele><time>2026-05-02T10:14:30.468Z</time></trkpt><trkpt lat="46.177477" lon="13.6474483"><ele>774.5</ele><time>2026-05-02T10:14:31.468Z</time></trkpt><trkpt lat="46.1775888" lon="13.647409"><ele>776.0</ele><time>2026-05-02T10:14:32.469Z</time></trkpt><trkpt lat="46.1777045" lon="13.6473415"><ele>777.5</ele><time>2026-05-02T10:14:33.468Z</time></trkpt><trkpt lat="46.1778195" lon="13.6472565"><ele>779.0</ele><time>2026-05-02T10:14:34.469Z</time></trkpt><trkpt lat="46.1779323" lon="13.6471607"><ele>779.0</ele><time>2026-05-02T10:14:35.468Z</time></trkpt><trkpt lat="46.1780395" lon="13.6471008"><ele>779.0</ele><time>2026-05-02T10:14:36.468Z</time></trkpt><trkpt lat="46.1781458" lon="13.6470883"><ele>779.0</ele><time>2026-05-02T10:14:37.467Z</time></trkpt><trkpt lat="46.1782623" lon="13.647115"><ele>779.0</ele><time>2026-05-02T10:14:38.468Z</time></trkpt><trkpt lat="46.1783972" lon="13.6471567"><ele>781.4000000000001</ele><time>2026-05-02T10:14:39.471Z</time></trkpt><trkpt lat="46.1785215" lon="13.6471883"><ele>783.8</ele><time>2026-05-02T10:14:40.469Z</time></trkpt><trkpt lat="46.1786252" lon="13.6472415"><ele>786.2</ele><time>2026-05-02T10:14:41.468Z</time></trkpt><trkpt lat="46.1787002" lon="13.6473275"><ele>788.5999999999999</ele><time>2026-05-02T10:14:42.469Z</time></trkpt><trkpt lat="46.1787515" lon="13.6474525"><ele>791.0</ele><time>2026-05-02T10:14:43.47Z</time></trkpt><trkpt lat="46.1787913" lon="13.6476082"><ele>805.0</ele><time>2026-05-02T10:14:44.471Z</time></trkpt><trkpt lat="46.1788252" lon="13.6477955"><ele>819.0</ele><time>2026-05-02T10:14:45.469Z</time></trkpt><trkpt lat="46.1788993" lon="13.6482192"><ele>833.0</ele><time>2026-05-02T10:14:47.468Z</time></trkpt><trkpt lat="46.1789688" lon="13.6484277"><ele>823.3333333333334</ele><time>2026-05-02T10:14:48.469Z</time></trkpt><trkpt lat="46.1790408" lon="13.6486298"><ele>813.6666666666667</ele><time>2026-05-02T10:14:49.468Z</time></trkpt><trkpt lat="46.179102" lon="13.6488447"><ele>804.0</ele><time>2026-05-02T10:14:50.469Z</time></trkpt><trkpt lat="46.1791478" lon="13.6490862"><ele>804.0</ele><time>2026-05-02T10:14:51.47Z</time></trkpt><trkpt lat="46.1791872" lon="13.6493347"><ele>804.0</ele><time>2026-05-02T10:14:52.469Z</time></trkpt><trkpt lat="46.1792237" lon="13.649577"><ele>804.0</ele><time>2026-05-02T10:14:53.472Z</time></trkpt><trkpt lat="46.1792627" lon="13.6498088"><ele>807.75</ele><time>2026-05-02T10:14:54.47Z</time></trkpt><trkpt lat="46.1792955" lon="13.6500347"><ele>811.5</ele><time>2026-05-02T10:14:55.47Z</time></trkpt><trkpt lat="46.1793173" lon="13.6502493"><ele>815.25</ele><time>2026-05-02T10:14:56.469Z</time></trkpt><trkpt lat="46.1793303" lon="13.6504398"><ele>819.0</ele><time>2026-05-02T10:14:57.469Z</time></trkpt><trkpt lat="46.1793403" lon="13.6506072"><ele>820.5</ele><time>2026-05-02T10:14:58.469Z</time></trkpt><trkpt lat="46.1793377" lon="13.6507718"><ele>822.0</ele><time>2026-05-02T10:14:59.47Z</time></trkpt><trkpt lat="46.1793175" lon="13.6509385"><ele>823.5</ele><time>2026-05-02T10:15:00.469Z</time></trkpt><trkpt lat="46.179285" lon="13.6511037"><ele>825.0</ele><time>2026-05-02T10:15:01.469Z</time></trkpt><trkpt lat="46.1792557" lon="13.6512705"><ele>825.6</ele><time>2026-05-02T10:15:02.469Z</time></trkpt><trkpt lat="46.1792317" lon="13.6514253"><ele>826.2</ele><time>2026-05-02T10:15:03.469Z</time></trkpt><trkpt lat="46.179218" lon="13.6515763"><ele>826.8</ele><time>2026-05-02T10:15:04.467Z</time></trkpt><trkpt lat="46.1792377" lon="13.6517312"><ele>827.4</ele><time>2026-05-02T10:15:05.469Z</time></trkpt><trkpt lat="46.1792767" lon="13.651888"><ele>828.0</ele><time>2026-05-02T10:15:06.469Z</time></trkpt><trkpt lat="46.1793602" lon="13.6522145"><ele>830.5</ele><time>2026-05-02T10:15:08.471Z</time></trkpt><trkpt lat="46.1794377" lon="13.6523533"><ele>833.0</ele><time>2026-05-02T10:15:09.47Z</time></trkpt><trkpt lat="46.1795213" lon="13.6524755"><ele>835.5</ele><time>2026-05-02T10:15:10.47Z</time></trkpt><trkpt lat="46.1795897" lon="13.6526035"><ele>838.0</ele><time>2026-05-02T10:15:11.468Z</time></trkpt><trkpt lat="46.1796368" lon="13.6527558"><ele>840.3333333333333</ele><time>2026-05-02T10:15:12.469Z</time></trkpt><trkpt lat="46.1796695" lon="13.6528953"><ele>842.6666666666666</ele><time>2026-05-02T10:15:13.468Z</time></trkpt><trkpt lat="46.1797012" lon="13.6530172"><ele>845.0</ele><time>2026-05-02T10:15:14.468Z</time></trkpt><trkpt lat="46.1797427" lon="13.6531165"><ele>847.3333333333333</ele><time>2026-05-02T10:15:15.469Z</time></trkpt><trkpt lat="46.179802" lon="13.6531807"><ele>849.6666666666666</ele><time>2026-05-02T10:15:16.469Z</time></trkpt><trkpt lat="46.1798822" lon="13.6532078"><ele>852.0</ele><time>2026-05-02T10:15:17.469Z</time></trkpt><trkpt lat="46.1799663" lon="13.6531973"><ele>845.2</ele><time>2026-05-02T10:15:18.469Z</time></trkpt><trkpt lat="46.1800512" lon="13.6531757"><ele>838.4000000000001</ele><time>2026-05-02T10:15:19.47Z</time></trkpt><trkpt lat="46.1801487" lon="13.6531717"><ele>831.5999999999999</ele><time>2026-05-02T10:15:20.469Z</time></trkpt><trkpt lat="46.1802588" lon="13.6531988"><ele>824.8</ele><time>2026-05-02T10:15:21.47Z</time></trkpt><trkpt lat="46.1803625" lon="13.6532182"><ele>818.0</ele><time>2026-05-02T10:15:22.469Z</time></trkpt><trkpt lat="46.1804555" lon="13.6532065"><ele>818.0</ele><time>2026-05-02T10:15:23.469Z</time></trkpt><trkpt lat="46.1805427" lon="13.6531527"><ele>818.0</ele><time>2026-05-02T10:15:24.469Z</time></trkpt><trkpt lat="46.1806202" lon="13.6530485"><ele>818.0</ele><time>2026-05-02T10:15:25.47Z</time></trkpt><trkpt lat="46.180681" lon="13.6528973"><ele>818.0</ele><time>2026-05-02T10:15:26.469Z</time></trkpt><trkpt lat="46.1807315" lon="13.652712"><ele>817.5</ele><time>2026-05-02T10:15:27.469Z</time></trkpt><trkpt lat="46.180814" lon="13.6522825"><ele>817.0</ele><time>2026-05-02T10:15:29.47Z</time></trkpt><trkpt lat="46.1808473" lon="13.6520547"><ele>811.6666666666666</ele><time>2026-05-02T10:15:30.469Z</time></trkpt><trkpt lat="46.1808802" lon="13.6518293"><ele>806.3333333333333</ele><time>2026-05-02T10:15:31.47Z</time></trkpt><trkpt lat="46.1809267" lon="13.6516018"><ele>801.0</ele><time>2026-05-02T10:15:32.472Z</time></trkpt><trkpt lat="46.1809935" lon="13.6513737"><ele>801.0</ele><time>2026-05-02T10:15:33.474Z</time></trkpt><trkpt lat="46.1810635" lon="13.6511308"><ele>801.0</ele><time>2026-05-02T10:15:34.471Z</time></trkpt><trkpt lat="46.1811245" lon="13.6508742"><ele>801.0</ele><time>2026-05-02T10:15:35.471Z</time></trkpt><trkpt lat="46.1811922" lon="13.6506145"><ele>794.3333333333333</ele><time>2026-05-02T10:15:36.47Z</time></trkpt><trkpt lat="46.1812652" lon="13.6503465"><ele>787.6666666666666</ele><time>2026-05-02T10:15:37.471Z</time></trkpt><trkpt lat="46.1813233" lon="13.650068"><ele>781.0</ele><time>2026-05-02T10:15:38.47Z</time></trkpt><trkpt lat="46.181365" lon="13.6497833"><ele>776.6666666666666</ele><time>2026-05-02T10:15:39.469Z</time></trkpt><trkpt lat="46.1814138" lon="13.649498"><ele>772.3333333333333</ele><time>2026-05-02T10:15:40.47Z</time></trkpt><trkpt lat="46.1814718" lon="13.6492145"><ele>768.0</ele><time>2026-05-02T10:15:41.47Z</time></trkpt><trkpt lat="46.1815275" lon="13.6489363"><ele>774.3333333333333</ele><time>2026-05-02T10:15:42.471Z</time></trkpt><trkpt lat="46.1815718" lon="13.648661"><ele>780.6666666666666</ele><time>2026-05-02T10:15:43.471Z</time></trkpt><trkpt lat="46.181608" lon="13.6483913"><ele>787.0</ele><time>2026-05-02T10:15:44.471Z</time></trkpt><trkpt lat="46.181638" lon="13.6481358"><ele>787.0</ele><time>2026-05-02T10:15:45.47Z</time></trkpt><trkpt lat="46.1816627" lon="13.6478972"><ele>787.0</ele><time>2026-05-02T10:15:46.471Z</time></trkpt><trkpt lat="46.1816947" lon="13.6476683"><ele>787.0</ele><time>2026-05-02T10:15:47.471Z</time></trkpt><trkpt lat="46.1817423" lon="13.6474412"><ele>779.5</ele><time>2026-05-02T10:15:48.471Z</time></trkpt><trkpt lat="46.1818168" lon="13.6469673"><ele>772.0</ele><time>2026-05-02T10:15:50.471Z</time></trkpt><trkpt lat="46.1818307" lon="13.6467437"><ele>768.75</ele><time>2026-05-02T10:15:51.471Z</time></trkpt><trkpt lat="46.1818493" lon="13.646544"><ele>765.5</ele><time>2026-05-02T10:15:52.47Z</time></trkpt><trkpt lat="46.1818878" lon="13.6463645"><ele>762.25</ele><time>2026-05-02T10:15:53.472Z</time></trkpt><trkpt lat="46.1819592" lon="13.6461927"><ele>759.0</ele><time>2026-05-02T10:15:54.47Z</time></trkpt><trkpt lat="46.1820563" lon="13.6460153"><ele>752.6666666666666</ele><time>2026-05-02T10:15:55.47Z</time></trkpt><trkpt lat="46.1821612" lon="13.6458193"><ele>746.3333333333333</ele><time>2026-05-02T10:15:56.471Z</time></trkpt><trkpt lat="46.1822428" lon="13.6455777"><ele>740.0</ele><time>2026-05-02T10:15:57.47Z</time></trkpt><trkpt lat="46.1823143" lon="13.6453285"><ele>748.0</ele><time>2026-05-02T10:15:58.469Z</time></trkpt><trkpt lat="46.1823933" lon="13.6450935"><ele>756.0</ele><time>2026-05-02T10:15:59.469Z</time></trkpt><trkpt lat="46.1824943" lon="13.6448903"><ele>764.0</ele><time>2026-05-02T10:16:00.469Z</time></trkpt><trkpt lat="46.1825898" lon="13.6447053"><ele>764.0</ele><time>2026-05-02T10:16:01.467Z</time></trkpt><trkpt lat="46.1826753" lon="13.644546"><ele>764.0</ele><time>2026-05-02T10:16:02.467Z</time></trkpt><trkpt lat="46.1827485" lon="13.6443983"><ele>764.0</ele><time>2026-05-02T10:16:03.467Z</time></trkpt><trkpt lat="46.1827817" lon="13.6442357"><ele>764.0</ele><time>2026-05-02T10:16:04.467Z</time></trkpt><trkpt lat="46.1827787" lon="13.6440463"><ele>758.25</ele><time>2026-05-02T10:16:05.467Z</time></trkpt><trkpt lat="46.1827388" lon="13.6438518"><ele>752.5</ele><time>2026-05-02T10:16:06.468Z</time></trkpt><trkpt lat="46.1826993" lon="13.643646"><ele>746.75</ele><time>2026-05-02T10:16:07.468Z</time></trkpt><trkpt lat="46.1826673" lon="13.643452"><ele>741.0</ele><time>2026-05-02T10:16:08.469Z</time></trkpt><trkpt lat="46.1826498" lon="13.6432555"><ele>739.3333333333334</ele><time>2026-05-02T10:16:09.469Z</time></trkpt><trkpt lat="46.1826748" lon="13.6428442"><ele>737.6666666666667</ele><time>2026-05-02T10:16:11.471Z</time></trkpt><trkpt lat="46.1827103" lon="13.6426548"><ele>736.0</ele><time>2026-05-02T10:16:12.469Z</time></trkpt><trkpt lat="46.1827572" lon="13.6424987"><ele>736.0</ele><time>2026-05-02T10:16:13.47Z</time></trkpt><trkpt lat="46.1828237" lon="13.6423673"><ele>736.0</ele><time>2026-05-02T10:16:14.47Z</time></trkpt><trkpt lat="46.1829175" lon="13.6422592"><ele>736.0</ele><time>2026-05-02T10:16:15.47Z</time></trkpt><trkpt lat="46.1830373" lon="13.6421677"><ele>736.0</ele><time>2026-05-02T10:16:16.469Z</time></trkpt><trkpt lat="46.1831783" lon="13.6420792"><ele>738.5</ele><time>2026-05-02T10:16:17.47Z</time></trkpt><trkpt lat="46.183318" lon="13.6420055"><ele>741.0</ele><time>2026-05-02T10:16:18.469Z</time></trkpt><trkpt lat="46.1834307" lon="13.6419312"><ele>743.5</ele><time>2026-05-02T10:16:19.469Z</time></trkpt><trkpt lat="46.1835163" lon="13.641838"><ele>746.0</ele><time>2026-05-02T10:16:20.469Z</time></trkpt><trkpt lat="46.183563" lon="13.6417112"><ele>746.0</ele><time>2026-05-02T10:16:21.469Z</time></trkpt><trkpt lat="46.1835702" lon="13.6415478"><ele>746.0</ele><time>2026-05-02T10:16:22.469Z</time></trkpt><trkpt lat="46.1835483" lon="13.6413725"><ele>746.0</ele><time>2026-05-02T10:16:23.468Z</time></trkpt><trkpt lat="46.1835372" lon="13.641199"><ele>746.0</ele><time>2026-05-02T10:16:24.469Z</time></trkpt><trkpt lat="46.1835508" lon="13.641017"><ele>740.6666666666666</ele><time>2026-05-02T10:16:25.467Z</time></trkpt><trkpt lat="46.1835932" lon="13.6408133"><ele>735.3333333333334</ele><time>2026-05-02T10:16:26.468Z</time></trkpt><trkpt lat="46.1836182" lon="13.6405962"><ele>730.0</ele><time>2026-05-02T10:16:27.469Z</time></trkpt><trkpt lat="46.1835988" lon="13.6403622"><ele>728.3333333333334</ele><time>2026-05-02T10:16:28.468Z</time></trkpt><trkpt lat="46.1835445" lon="13.640098"><ele>726.6666666666666</ele><time>2026-05-02T10:16:29.469Z</time></trkpt><trkpt lat="46.1834773" lon="13.6398247"><ele>725.0</ele><time>2026-05-02T10:16:30.469Z</time></trkpt><trkpt lat="46.1833692" lon="13.6393753"><ele>724.2</ele><time>2026-05-02T10:16:32.469Z</time></trkpt><trkpt lat="46.1833337" lon="13.6391918"><ele>723.4</ele><time>2026-05-02T10:16:33.469Z</time></trkpt><trkpt lat="46.1833252" lon="13.6390303"><ele>722.5999999999999</ele><time>2026-05-02T10:16:34.47Z</time></trkpt><trkpt lat="46.1833517" lon="13.638895"><ele>721.8</ele><time>2026-05-02T10:16:35.47Z</time></trkpt><trkpt lat="46.1834143" lon="13.638784"><ele>721.0</ele><time>2026-05-02T10:16:36.471Z</time></trkpt><trkpt lat="46.1835048" lon="13.6386968"><ele>721.0</ele><time>2026-05-02T10:16:37.469Z</time></trkpt><trkpt lat="46.1836027" lon="13.638641"><ele>721.0</ele><time>2026-05-02T10:16:38.469Z</time></trkpt><trkpt lat="46.183681" lon="13.6385663"><ele>721.0</ele><time>2026-05-02T10:16:39.47Z</time></trkpt><trkpt lat="46.1837307" lon="13.6384472"><ele>721.0</ele><time>2026-05-02T10:16:40.469Z</time></trkpt><trkpt lat="46.1837512" lon="13.6382833"><ele>721.0</ele><time>2026-05-02T10:16:41.469Z</time></trkpt><trkpt lat="46.1837537" lon="13.6380758"><ele>719.0</ele><time>2026-05-02T10:16:42.47Z</time></trkpt><trkpt lat="46.183753" lon="13.6378578"><ele>717.0</ele><time>2026-05-02T10:16:43.47Z</time></trkpt><trkpt lat="46.1837438" lon="13.6376482"><ele>715.0</ele><time>2026-05-02T10:16:44.469Z</time></trkpt><trkpt lat="46.183698" lon="13.6374613"><ele>713.0</ele><time>2026-05-02T10:16:45.471Z</time></trkpt><trkpt lat="46.1836707" lon="13.6372583"><ele>712.6666666666666</ele><time>2026-05-02T10:16:46.472Z</time></trkpt><trkpt lat="46.1836653" lon="13.6370357"><ele>712.3333333333334</ele><time>2026-05-02T10:16:47.469Z</time></trkpt><trkpt lat="46.1836467" lon="13.6367997"><ele>712.0</ele><time>2026-05-02T10:16:48.47Z</time></trkpt><trkpt lat="46.1835982" lon="13.636565"><ele>712.0</ele><time>2026-05-02T10:16:49.469Z</time></trkpt><trkpt lat="46.1835418" lon="13.63636"><ele>712.0</ele><time>2026-05-02T10:16:50.468Z</time></trkpt><trkpt lat="46.1835003" lon="13.6361927"><ele>712.0</ele><time>2026-05-02T10:16:51.47Z</time></trkpt><trkpt lat="46.1835252" lon="13.6358988"><ele>714.0</ele><time>2026-05-02T10:16:53.471Z</time></trkpt><trkpt lat="46.1835905" lon="13.6357858"><ele>716.0</ele><time>2026-05-02T10:16:54.471Z</time></trkpt><trkpt lat="46.1836862" lon="13.635702"><ele>718.0</ele><time>2026-05-02T10:16:55.469Z</time></trkpt><trkpt lat="46.183805" lon="13.6356188"><ele>720.0</ele><time>2026-05-02T10:16:56.47Z</time></trkpt><trkpt lat="46.183935" lon="13.6355323"><ele>722.75</ele><time>2026-05-02T10:16:57.47Z</time></trkpt><trkpt lat="46.1840518" lon="13.6354465"><ele>725.5</ele><time>2026-05-02T10:16:58.468Z</time></trkpt><trkpt lat="46.1841537" lon="13.6353368"><ele>728.25</ele><time>2026-05-02T10:16:59.468Z</time></trkpt><trkpt lat="46.1842458" lon="13.6351985"><ele>731.0</ele><time>2026-05-02T10:17:00.473Z</time></trkpt><trkpt lat="46.1843367" lon="13.6350695"><ele>731.0</ele><time>2026-05-02T10:17:01.469Z</time></trkpt><trkpt lat="46.1844038" lon="13.6349522"><ele>731.0</ele><time>2026-05-02T10:17:02.47Z</time></trkpt><trkpt lat="46.1844383" lon="13.6348162"><ele>731.0</ele><time>2026-05-02T10:17:03.469Z</time></trkpt><trkpt lat="46.1844428" lon="13.6346563"><ele>731.0</ele><time>2026-05-02T10:17:04.469Z</time></trkpt><trkpt lat="46.184418" lon="13.634489"><ele>731.0</ele><time>2026-05-02T10:17:05.469Z</time></trkpt><trkpt lat="46.1843655" lon="13.634334"><ele>729.5999999999999</ele><time>2026-05-02T10:17:06.469Z</time></trkpt><trkpt lat="46.1842922" lon="13.6341978"><ele>728.2</ele><time>2026-05-02T10:17:07.469Z</time></trkpt><trkpt lat="46.1842213" lon="13.634088"><ele>726.8</ele><time>2026-05-02T10:17:08.469Z</time></trkpt><trkpt lat="46.1841687" lon="13.6339745"><ele>725.4000000000001</ele><time>2026-05-02T10:17:09.469Z</time></trkpt><trkpt lat="46.1841417" lon="13.633832"><ele>724.0</ele><time>2026-05-02T10:17:10.469Z</time></trkpt><trkpt lat="46.1841382" lon="13.633662"><ele>724.0</ele><time>2026-05-02T10:17:11.47Z</time></trkpt><trkpt lat="46.1841348" lon="13.633472"><ele>724.0</ele><time>2026-05-02T10:17:12.47Z</time></trkpt><trkpt lat="46.1840923" lon="13.6331073"><ele>724.0</ele><time>2026-05-02T10:17:14.467Z</time></trkpt><trkpt lat="46.1840945" lon="13.6329498"><ele>722.25</ele><time>2026-05-02T10:17:15.468Z</time></trkpt><trkpt lat="46.1841243" lon="13.6327873"><ele>720.5</ele><time>2026-05-02T10:17:16.467Z</time></trkpt><trkpt lat="46.184173" lon="13.6326267"><ele>718.75</ele><time>2026-05-02T10:17:17.471Z</time></trkpt><trkpt lat="46.1842195" lon="13.6324763"><ele>717.0</ele><time>2026-05-02T10:17:18.47Z</time></trkpt><trkpt lat="46.18426" lon="13.6323382"><ele>717.0</ele><time>2026-05-02T10:17:19.47Z</time></trkpt><trkpt lat="46.1842785" lon="13.6322095"><ele>717.0</ele><time>2026-05-02T10:17:20.471Z</time></trkpt><trkpt lat="46.1842788" lon="13.63208"><ele>717.0</ele><time>2026-05-02T10:17:21.472Z</time></trkpt><trkpt lat="46.1842455" lon="13.6319512"><ele>717.0</ele><time>2026-05-02T10:17:22.472Z</time></trkpt><trkpt lat="46.18418" lon="13.63184"><ele>717.0</ele><time>2026-05-02T10:17:23.471Z</time></trkpt><trkpt lat="46.1840878" lon="13.6317448"><ele>711.5</ele><time>2026-05-02T10:17:24.473Z</time></trkpt><trkpt lat="46.1839838" lon="13.631652"><ele>706.0</ele><time>2026-05-02T10:17:25.469Z</time></trkpt><trkpt lat="46.1838598" lon="13.631562"><ele>700.5</ele><time>2026-05-02T10:17:26.47Z</time></trkpt><trkpt lat="46.1837245" lon="13.63149"><ele>695.0</ele><time>2026-05-02T10:17:27.47Z</time></trkpt><trkpt lat="46.1835938" lon="13.6314305"><ele>695.0</ele><time>2026-05-02T10:17:28.471Z</time></trkpt><trkpt lat="46.1834828" lon="13.6313682"><ele>695.0</ele><time>2026-05-02T10:17:29.469Z</time></trkpt><trkpt lat="46.1833973" lon="13.6312703"><ele>695.0</ele><time>2026-05-02T10:17:30.47Z</time></trkpt><trkpt lat="46.1833272" lon="13.6311338"><ele>695.0</ele><time>2026-05-02T10:17:31.47Z</time></trkpt><trkpt lat="46.1832603" lon="13.6309738"><ele>693.0</ele><time>2026-05-02T10:17:32.47Z</time></trkpt><trkpt lat="46.1831947" lon="13.6307958"><ele>691.0</ele><time>2026-05-02T10:17:33.469Z</time></trkpt><trkpt lat="46.1831128" lon="13.6304522"><ele>689.0</ele><time>2026-05-02T10:17:35.469Z</time></trkpt><trkpt lat="46.1831152" lon="13.6302667"><ele>689.0</ele><time>2026-05-02T10:17:36.469Z</time></trkpt><trkpt lat="46.1831463" lon="13.630069"><ele>689.0</ele><time>2026-05-02T10:17:37.469Z</time></trkpt><trkpt lat="46.1831975" lon="13.6298658"><ele>689.0</ele><time>2026-05-02T10:17:38.47Z</time></trkpt><trkpt lat="46.1832552" lon="13.6296645"><ele>689.0</ele><time>2026-05-02T10:17:39.468Z</time></trkpt><trkpt lat="46.1832812" lon="13.6294558"><ele>706.0</ele><time>2026-05-02T10:17:40.469Z</time></trkpt><trkpt lat="46.1832813" lon="13.629236"><ele>723.0</ele><time>2026-05-02T10:17:41.47Z</time></trkpt><trkpt lat="46.18325" lon="13.6290085"><ele>740.0</ele><time>2026-05-02T10:17:42.471Z</time></trkpt><trkpt lat="46.1831927" lon="13.6287835"><ele>733.0</ele><time>2026-05-02T10:17:43.47Z</time></trkpt><trkpt lat="46.1831382" lon="13.6285618"><ele>726.0</ele><time>2026-05-02T10:17:44.473Z</time></trkpt><trkpt lat="46.1830785" lon="13.6283377"><ele>719.0</ele><time>2026-05-02T10:17:45.471Z</time></trkpt><trkpt lat="46.1830042" lon="13.6281205"><ele>719.0</ele><time>2026-05-02T10:17:46.471Z</time></trkpt><trkpt lat="46.18292" lon="13.6279262"><ele>719.0</ele><time>2026-05-02T10:17:47.472Z</time></trkpt><trkpt lat="46.1828455" lon="13.6277593"><ele>719.0</ele><time>2026-05-02T10:17:48.472Z</time></trkpt><trkpt lat="46.1827788" lon="13.6276268"><ele>719.0</ele><time>2026-05-02T10:17:49.472Z</time></trkpt><trkpt lat="46.1827075" lon="13.6275427"><ele>722.0</ele><time>2026-05-02T10:17:50.475Z</time></trkpt><trkpt lat="46.1826262" lon="13.6275043"><ele>725.0</ele><time>2026-05-02T10:17:51.475Z</time></trkpt><trkpt lat="46.1825343" lon="13.627513"><ele>728.0</ele><time>2026-05-02T10:17:52.471Z</time></trkpt><trkpt lat="46.1824287" lon="13.6275718"><ele>731.0</ele><time>2026-05-02T10:17:53.472Z</time></trkpt><trkpt lat="46.1823157" lon="13.6276698"><ele>734.0</ele><time>2026-05-02T10:17:54.471Z</time></trkpt><trkpt lat="46.1821023" lon="13.627868"><ele>734.0</ele><time>2026-05-02T10:17:56.47Z</time></trkpt><trkpt lat="46.1820102" lon="13.6279512"><ele>734.0</ele><time>2026-05-02T10:17:57.471Z</time></trkpt><trkpt lat="46.1819262" lon="13.6280322"><ele>734.0</ele><time>2026-05-02T10:17:58.472Z</time></trkpt><trkpt lat="46.181838" lon="13.6281265"><ele>734.0</ele><time>2026-05-02T10:17:59.471Z</time></trkpt><trkpt lat="46.1817375" lon="13.628235"><ele>734.0</ele><time>2026-05-02T10:18:00.47Z</time></trkpt><trkpt lat="46.1816343" lon="13.6283573"><ele>734.0</ele><time>2026-05-02T10:18:01.47Z</time></trkpt><trkpt lat="46.1815423" lon="13.628493"><ele>734.0</ele><time>2026-05-02T10:18:02.471Z</time></trkpt><trkpt lat="46.1814397" lon="13.628631"><ele>734.0</ele><time>2026-05-02T10:18:03.47Z</time></trkpt><trkpt lat="46.1813475" lon="13.6287437"><ele>734.0</ele><time>2026-05-02T10:18:04.468Z</time></trkpt><trkpt lat="46.181269" lon="13.6288258"><ele>732.8000000000001</ele><time>2026-05-02T10:18:05.473Z</time></trkpt><trkpt lat="46.1811978" lon="13.6288728"><ele>731.6</ele><time>2026-05-02T10:18:06.469Z</time></trkpt><trkpt lat="46.181087" lon="13.6288515"><ele>730.4</ele><time>2026-05-02T10:18:08.471Z</time></trkpt><trkpt lat="46.1810478" lon="13.628763"><ele>729.2</ele><time>2026-05-02T10:18:09.471Z</time></trkpt><trkpt lat="46.1810192" lon="13.6286357"><ele>728.0</ele><time>2026-05-02T10:18:10.471Z</time></trkpt><trkpt lat="46.1809697" lon="13.6285095"><ele>728.0</ele><time>2026-05-02T10:18:11.471Z</time></trkpt><trkpt lat="46.180898" lon="13.628416"><ele>728.0</ele><time>2026-05-02T10:18:12.473Z</time></trkpt><trkpt lat="46.1808063" lon="13.6283573"><ele>728.0</ele><time>2026-05-02T10:18:13.471Z</time></trkpt><trkpt lat="46.1807002" lon="13.6283163"><ele>728.0</ele><time>2026-05-02T10:18:14.47Z</time></trkpt><trkpt lat="46.1805887" lon="13.6282702"><ele>728.0</ele><time>2026-05-02T10:18:15.47Z</time></trkpt><trkpt lat="46.1803842" lon="13.6281523"><ele>728.2</ele><time>2026-05-02T10:18:17.47Z</time></trkpt><trkpt lat="46.1802748" lon="13.6281385"><ele>728.4</ele><time>2026-05-02T10:18:18.471Z</time></trkpt><trkpt lat="46.1801698" lon="13.6281267"><ele>728.6</ele><time>2026-05-02T10:18:19.47Z</time></trkpt><trkpt lat="46.1800807" lon="13.6280697"><ele>728.8000000000001</ele><time>2026-05-02T10:18:20.471Z</time></trkpt><trkpt lat="46.179998" lon="13.6279602"><ele>729.0</ele><time>2026-05-02T10:18:21.471Z</time></trkpt><trkpt lat="46.1799285" lon="13.627808"><ele>729.0</ele><time>2026-05-02T10:18:22.47Z</time></trkpt><trkpt lat="46.1798652" lon="13.6276138"><ele>729.0</ele><time>2026-05-02T10:18:23.47Z</time></trkpt><trkpt lat="46.1798033" lon="13.6274263"><ele>729.0</ele><time>2026-05-02T10:18:24.472Z</time></trkpt><trkpt lat="46.17974" lon="13.6272795"><ele>729.0</ele><time>2026-05-02T10:18:25.471Z</time></trkpt><trkpt lat="46.179665" lon="13.6271867"><ele>724.25</ele><time>2026-05-02T10:18:26.471Z</time></trkpt><trkpt lat="46.1795712" lon="13.6271305"><ele>719.5</ele><time>2026-05-02T10:18:27.469Z</time></trkpt><trkpt lat="46.1794543" lon="13.6270838"><ele>714.75</ele><time>2026-05-02T10:18:28.468Z</time></trkpt><trkpt lat="46.1793348" lon="13.6270492"><ele>710.0</ele><time>2026-05-02T10:18:29.468Z</time></trkpt><trkpt lat="46.1792138" lon="13.6270652"><ele>710.0</ele><time>2026-05-02T10:18:30.469Z</time></trkpt><trkpt lat="46.1790975" lon="13.627097"><ele>710.0</ele><time>2026-05-02T10:18:31.469Z</time></trkpt><trkpt lat="46.178995" lon="13.6271265"><ele>710.0</ele><time>2026-05-02T10:18:32.469Z</time></trkpt><trkpt lat="46.1789198" lon="13.6270953"><ele>710.0</ele><time>2026-05-02T10:18:33.472Z</time></trkpt><trkpt lat="46.178876" lon="13.627029"><ele>710.0</ele><time>2026-05-02T10:18:34.471Z</time></trkpt><trkpt lat="46.1788655" lon="13.6269183"><ele>710.0</ele><time>2026-05-02T10:18:35.47Z</time></trkpt><trkpt lat="46.178876" lon="13.6267765"><ele>701.6666666666666</ele><time>2026-05-02T10:18:36.47Z</time></trkpt><trkpt lat="46.1789093" lon="13.6263765"><ele>693.3333333333334</ele><time>2026-05-02T10:18:38.47Z</time></trkpt><trkpt lat="46.1789223" lon="13.6261497"><ele>685.0</ele><time>2026-05-02T10:18:39.47Z</time></trkpt><trkpt lat="46.1789345" lon="13.625954"><ele>685.0</ele><time>2026-05-02T10:18:40.469Z</time></trkpt><trkpt lat="46.1789493" lon="13.625799"><ele>685.0</ele><time>2026-05-02T10:18:41.469Z</time></trkpt><trkpt lat="46.1789387" lon="13.6256747"><ele>685.0</ele><time>2026-05-02T10:18:42.469Z</time></trkpt><trkpt lat="46.1788942" lon="13.6255655"><ele>685.0</ele><time>2026-05-02T10:18:43.469Z</time></trkpt><trkpt lat="46.1788313" lon="13.6254627"><ele>685.0</ele><time>2026-05-02T10:18:44.469Z</time></trkpt><trkpt lat="46.17876" lon="13.6253732"><ele>685.0</ele><time>2026-05-02T10:18:45.47Z</time></trkpt><trkpt lat="46.1786753" lon="13.6253135"><ele>685.0</ele><time>2026-05-02T10:18:46.469Z</time></trkpt><trkpt lat="46.1785897" lon="13.625291"><ele>685.0</ele><time>2026-05-02T10:18:47.468Z</time></trkpt><trkpt lat="46.1785065" lon="13.625296"><ele>685.0</ele><time>2026-05-02T10:18:48.468Z</time></trkpt><trkpt lat="46.1784205" lon="13.6253205"><ele>685.0</ele><time>2026-05-02T10:18:49.47Z</time></trkpt><trkpt lat="46.1783328" lon="13.6253065"><ele>685.0</ele><time>2026-05-02T10:18:50.47Z</time></trkpt><trkpt lat="46.1782492" lon="13.6252635"><ele>684.3333333333334</ele><time>2026-05-02T10:18:51.47Z</time></trkpt><trkpt lat="46.1781735" lon="13.6252152"><ele>683.6666666666667</ele><time>2026-05-02T10:18:52.468Z</time></trkpt><trkpt lat="46.1781183" lon="13.6251522"><ele>683.0</ele><time>2026-05-02T10:18:53.468Z</time></trkpt><trkpt lat="46.1780688" lon="13.625062"><ele>682.3333333333334</ele><time>2026-05-02T10:18:54.469Z</time></trkpt><trkpt lat="46.1780413" lon="13.6249338"><ele>681.6666666666666</ele><time>2026-05-02T10:18:55.468Z</time></trkpt><trkpt lat="46.178017" lon="13.6247933"><ele>681.0</ele><time>2026-05-02T10:18:56.469Z</time></trkpt><trkpt lat="46.177971" lon="13.624658"><ele>687.0</ele><time>2026-05-02T10:18:57.47Z</time></trkpt><trkpt lat="46.177852" lon="13.6244757"><ele>693.0</ele><time>2026-05-02T10:18:59.469Z</time></trkpt><trkpt lat="46.1777943" lon="13.6244258"><ele>699.0</ele><time>2026-05-02T10:19:00.47Z</time></trkpt><trkpt lat="46.1776578" lon="13.624428"><ele>705.0</ele><time>2026-05-02T10:19:02.468Z</time></trkpt><trkpt lat="46.1775802" lon="13.6244363"><ele>705.0</ele><time>2026-05-02T10:19:03.469Z</time></trkpt><trkpt lat="46.1774897" lon="13.6244107"><ele>705.0</ele><time>2026-05-02T10:19:04.469Z</time></trkpt><trkpt lat="46.1773978" lon="13.624354"><ele>705.0</ele><time>2026-05-02T10:19:05.469Z</time></trkpt><trkpt lat="46.1773103" lon="13.624271"><ele>705.0</ele><time>2026-05-02T10:19:06.469Z</time></trkpt><trkpt lat="46.1772272" lon="13.6241947"><ele>705.0</ele><time>2026-05-02T10:19:07.469Z</time></trkpt><trkpt lat="46.1771587" lon="13.6241187"><ele>701.7142857142857</ele><time>2026-05-02T10:19:08.469Z</time></trkpt><trkpt lat="46.1771068" lon="13.6240412"><ele>698.4285714285714</ele><time>2026-05-02T10:19:09.47Z</time></trkpt><trkpt lat="46.1770575" lon="13.6239528"><ele>695.1428571428571</ele><time>2026-05-02T10:19:10.47Z</time></trkpt><trkpt lat="46.1770017" lon="13.6238753"><ele>691.8571428571429</ele><time>2026-05-02T10:19:11.47Z</time></trkpt><trkpt lat="46.1769458" lon="13.6238205"><ele>688.5714285714286</ele><time>2026-05-02T10:19:12.474Z</time></trkpt><trkpt lat="46.1768763" lon="13.6238083"><ele>685.2857142857142</ele><time>2026-05-02T10:19:13.471Z</time></trkpt><trkpt lat="46.1768" lon="13.6238183"><ele>682.0</ele><time>2026-05-02T10:19:14.471Z</time></trkpt><trkpt lat="46.1767312" lon="13.623822"><ele>682.0</ele><time>2026-05-02T10:19:15.473Z</time></trkpt><trkpt lat="46.176667" lon="13.623808"><ele>682.0</ele><time>2026-05-02T10:19:16.469Z</time></trkpt><trkpt lat="46.1765988" lon="13.623784"><ele>682.0</ele><time>2026-05-02T10:19:17.469Z</time></trkpt><trkpt lat="46.1765425" lon="13.6237388"><ele>682.0</ele><time>2026-05-02T10:19:18.469Z</time></trkpt><trkpt lat="46.1764448" lon="13.6235865"><ele>682.0</ele><time>2026-05-02T10:19:20.469Z</time></trkpt><trkpt lat="46.1763903" lon="13.623509"><ele>682.0</ele><time>2026-05-02T10:19:21.471Z</time></trkpt><trkpt lat="46.1763432" lon="13.6234212"><ele>681.1428571428571</ele><time>2026-05-02T10:19:22.471Z</time></trkpt><trkpt lat="46.1762895" lon="13.6233392"><ele>680.2857142857143</ele><time>2026-05-02T10:19:23.471Z</time></trkpt><trkpt lat="46.1762393" lon="13.6232572"><ele>679.4285714285714</ele><time>2026-05-02T10:19:24.47Z</time></trkpt><trkpt lat="46.1761867" lon="13.623174"><ele>678.5714285714286</ele><time>2026-05-02T10:19:25.472Z</time></trkpt><trkpt lat="46.1761343" lon="13.6230983"><ele>677.7142857142857</ele><time>2026-05-02T10:19:26.47Z</time></trkpt><trkpt lat="46.1760787" lon="13.6230512"><ele>676.8571428571429</ele><time>2026-05-02T10:19:27.469Z</time></trkpt><trkpt lat="46.176019" lon="13.6230053"><ele>676.0</ele><time>2026-05-02T10:19:28.469Z</time></trkpt><trkpt lat="46.1759485" lon="13.6229717"><ele>676.0</ele><time>2026-05-02T10:19:29.47Z</time></trkpt><trkpt lat="46.1758898" lon="13.6229373"><ele>676.0</ele><time>2026-05-02T10:19:30.469Z</time></trkpt><trkpt lat="46.1757653" lon="13.622916"><ele>676.0</ele><time>2026-05-02T10:19:32.47Z</time></trkpt><trkpt lat="46.1756927" lon="13.6229262"><ele>676.0</ele><time>2026-05-02T10:19:33.471Z</time></trkpt><trkpt lat="46.1756148" lon="13.622922"><ele>676.0</ele><time>2026-05-02T10:19:34.47Z</time></trkpt><trkpt lat="46.1755273" lon="13.6229147"><ele>676.0</ele><time>2026-05-02T10:19:35.47Z</time></trkpt><trkpt lat="46.1754375" lon="13.6228968"><ele>677.5999999999999</ele><time>2026-05-02T10:19:36.472Z</time></trkpt><trkpt lat="46.1753475" lon="13.6228885"><ele>679.2</ele><time>2026-05-02T10:19:37.47Z</time></trkpt><trkpt lat="46.1752592" lon="13.6228803"><ele>680.8</ele><time>2026-05-02T10:19:38.47Z</time></trkpt><trkpt lat="46.1751793" lon="13.6228737"><ele>682.4000000000001</ele><time>2026-05-02T10:19:39.471Z</time></trkpt><trkpt lat="46.1750482" lon="13.6228272"><ele>684.0</ele><time>2026-05-02T10:19:41.469Z</time></trkpt><trkpt lat="46.1749958" lon="13.6227743"><ele>684.0</ele><time>2026-05-02T10:19:42.469Z</time></trkpt><trkpt lat="46.1749735" lon="13.6226027"><ele>684.0</ele><time>2026-05-02T10:19:44.469Z</time></trkpt><trkpt lat="46.1750065" lon="13.6225037"><ele>684.0</ele><time>2026-05-02T10:19:45.471Z</time></trkpt><trkpt lat="46.1750593" lon="13.6223972"><ele>684.0</ele><time>2026-05-02T10:19:46.471Z</time></trkpt><trkpt lat="46.175103" lon="13.6222757"><ele>684.0</ele><time>2026-05-02T10:19:47.471Z</time></trkpt><trkpt lat="46.1751317" lon="13.6221462"><ele>684.0</ele><time>2026-05-02T10:19:48.472Z</time></trkpt><trkpt lat="46.1751543" lon="13.6220328"><ele>684.0</ele><time>2026-05-02T10:19:49.471Z</time></trkpt><trkpt lat="46.1751872" lon="13.6219262"><ele>684.0</ele><time>2026-05-02T10:19:50.47Z</time></trkpt><trkpt lat="46.1752348" lon="13.6218293"><ele>684.0</ele><time>2026-05-02T10:19:51.471Z</time></trkpt><trkpt lat="46.1752905" lon="13.6217507"><ele>684.0</ele><time>2026-05-02T10:19:52.471Z</time></trkpt><trkpt lat="46.1753452" lon="13.6216877"><ele>684.0</ele><time>2026-05-02T10:19:53.472Z</time></trkpt><trkpt lat="46.1753902" lon="13.6216208"><ele>682.3333333333334</ele><time>2026-05-02T10:19:54.471Z</time></trkpt><trkpt lat="46.1754225" lon="13.6215413"><ele>680.6666666666666</ele><time>2026-05-02T10:19:55.471Z</time></trkpt><trkpt lat="46.1754325" lon="13.6214493"><ele>679.0</ele><time>2026-05-02T10:19:56.471Z</time></trkpt><trkpt lat="46.1754178" lon="13.6213492"><ele>677.3333333333333</ele><time>2026-05-02T10:19:57.471Z</time></trkpt><trkpt lat="46.1753763" lon="13.6212528"><ele>675.6666666666666</ele><time>2026-05-02T10:19:58.47Z</time></trkpt><trkpt lat="46.1753167" lon="13.6211432"><ele>674.0</ele><time>2026-05-02T10:19:59.469Z</time></trkpt><trkpt lat="46.1752313" lon="13.6210317"><ele>673.6666666666666</ele><time>2026-05-02T10:20:00.469Z</time></trkpt><trkpt lat="46.1750282" lon="13.6208088"><ele>673.3333333333334</ele><time>2026-05-02T10:20:02.471Z</time></trkpt><trkpt lat="46.1749407" lon="13.6207075"><ele>673.0</ele><time>2026-05-02T10:20:03.469Z</time></trkpt><trkpt lat="46.174873" lon="13.6206018"><ele>663.1999999999999</ele><time>2026-05-02T10:20:04.47Z</time></trkpt><trkpt lat="46.1748238" lon="13.620477"><ele>653.4</ele><time>2026-05-02T10:20:05.468Z</time></trkpt><trkpt lat="46.1747867" lon="13.6203328"><ele>643.5999999999999</ele><time>2026-05-02T10:20:06.469Z</time></trkpt><trkpt lat="46.1747655" lon="13.620186"><ele>633.8</ele><time>2026-05-02T10:20:07.468Z</time></trkpt><trkpt lat="46.1747613" lon="13.620042"><ele>624.0</ele><time>2026-05-02T10:20:08.468Z</time></trkpt><trkpt lat="46.174777" lon="13.619895"><ele>624.0</ele><time>2026-05-02T10:20:09.469Z</time></trkpt><trkpt lat="46.1748007" lon="13.6197365"><ele>624.0</ele><time>2026-05-02T10:20:10.469Z</time></trkpt><trkpt lat="46.1748132" lon="13.6195568"><ele>624.0</ele><time>2026-05-02T10:20:11.469Z</time></trkpt><trkpt lat="46.1748167" lon="13.6193708"><ele>624.0</ele><time>2026-05-02T10:20:12.469Z</time></trkpt><trkpt lat="46.1748302" lon="13.6191995"><ele>632.2</ele><time>2026-05-02T10:20:13.469Z</time></trkpt><trkpt lat="46.17486" lon="13.6190382"><ele>640.4</ele><time>2026-05-02T10:20:14.47Z</time></trkpt><trkpt lat="46.174893" lon="13.6188713"><ele>648.6</ele><time>2026-05-02T10:20:15.469Z</time></trkpt><trkpt lat="46.1749118" lon="13.618706"><ele>656.8</ele><time>2026-05-02T10:20:16.468Z</time></trkpt><trkpt lat="46.1749065" lon="13.6185702"><ele>665.0</ele><time>2026-05-02T10:20:17.468Z</time></trkpt><trkpt lat="46.1748832" lon="13.6184337"><ele>654.5</ele><time>2026-05-02T10:20:18.469Z</time></trkpt><trkpt lat="46.1748393" lon="13.6183117"><ele>644.0</ele><time>2026-05-02T10:20:19.469Z</time></trkpt><trkpt lat="46.1747767" lon="13.6181895"><ele>633.5</ele><time>2026-05-02T10:20:20.47Z</time></trkpt><trkpt lat="46.174721" lon="13.6180617"><ele>623.0</ele><time>2026-05-02T10:20:21.471Z</time></trkpt><trkpt lat="46.1746445" lon="13.6177033"><ele>623.0</ele><time>2026-05-02T10:20:23.47Z</time></trkpt><trkpt lat="46.1746135" lon="13.6174955"><ele>623.0</ele><time>2026-05-02T10:20:24.471Z</time></trkpt><trkpt lat="46.1745812" lon="13.617309"><ele>623.0</ele><time>2026-05-02T10:20:25.471Z</time></trkpt><trkpt lat="46.1745463" lon="13.6171522"><ele>623.0</ele><time>2026-05-02T10:20:26.471Z</time></trkpt><trkpt lat="46.1745058" lon="13.6170202"><ele>626.0</ele><time>2026-05-02T10:20:27.471Z</time></trkpt><trkpt lat="46.1744535" lon="13.6169133"><ele>629.0</ele><time>2026-05-02T10:20:28.472Z</time></trkpt><trkpt lat="46.17439" lon="13.6168233"><ele>632.0</ele><time>2026-05-02T10:20:29.47Z</time></trkpt><trkpt lat="46.1743273" lon="13.6167443"><ele>635.0</ele><time>2026-05-02T10:20:30.469Z</time></trkpt><trkpt lat="46.174272" lon="13.6166738"><ele>638.0</ele><time>2026-05-02T10:20:31.47Z</time></trkpt><trkpt lat="46.1742217" lon="13.616606"><ele>641.0</ele><time>2026-05-02T10:20:32.471Z</time></trkpt><trkpt lat="46.1741733" lon="13.6165433"><ele>641.0</ele><time>2026-05-02T10:20:33.47Z</time></trkpt><trkpt lat="46.1741182" lon="13.6164825"><ele>641.0</ele><time>2026-05-02T10:20:34.471Z</time></trkpt><trkpt lat="46.1740552" lon="13.6164163"><ele>641.0</ele><time>2026-05-02T10:20:35.471Z</time></trkpt><trkpt lat="46.1739848" lon="13.6163317"><ele>641.0</ele><time>2026-05-02T10:20:36.472Z</time></trkpt><trkpt lat="46.1739122" lon="13.616223"><ele>641.0</ele><time>2026-05-02T10:20:37.475Z</time></trkpt><trkpt lat="46.1738415" lon="13.6161032"><ele>640.25</ele><time>2026-05-02T10:20:38.473Z</time></trkpt><trkpt lat="46.1737632" lon="13.6159875"><ele>639.5</ele><time>2026-05-02T10:20:39.471Z</time></trkpt><trkpt lat="46.1736682" lon="13.6158762"><ele>638.75</ele><time>2026-05-02T10:20:40.471Z</time></trkpt><trkpt lat="46.1735655" lon="13.6157633"><ele>638.0</ele><time>2026-05-02T10:20:41.471Z</time></trkpt><trkpt lat="46.1734718" lon="13.6156395"><ele>635.6666666666666</ele><time>2026-05-02T10:20:42.472Z</time></trkpt><trkpt lat="46.1733325" lon="13.6153115"><ele>633.3333333333334</ele><time>2026-05-02T10:20:44.471Z</time></trkpt><trkpt lat="46.1732663" lon="13.6150922"><ele>631.0</ele><time>2026-05-02T10:20:45.472Z</time></trkpt><trkpt lat="46.1731965" lon="13.6148503"><ele>620.6666666666667</ele><time>2026-05-02T10:20:46.471Z</time></trkpt><trkpt lat="46.1731307" lon="13.614593"><ele>610.3333333333334</ele><time>2026-05-02T10:20:47.471Z</time></trkpt><trkpt lat="46.1730703" lon="13.614351"><ele>600.0</ele><time>2026-05-02T10:20:48.471Z</time></trkpt><trkpt lat="46.1730103" lon="13.6141325"><ele>600.0</ele><time>2026-05-02T10:20:49.471Z</time></trkpt><trkpt lat="46.1729465" lon="13.6139168"><ele>600.0</ele><time>2026-05-02T10:20:50.471Z</time></trkpt><trkpt lat="46.1728792" lon="13.6137058"><ele>600.0</ele><time>2026-05-02T10:20:51.471Z</time></trkpt><trkpt lat="46.1728073" lon="13.6135165"><ele>600.0</ele><time>2026-05-02T10:20:52.474Z</time></trkpt><trkpt lat="46.1727375" lon="13.6133633"><ele>600.0</ele><time>2026-05-02T10:20:53.471Z</time></trkpt><trkpt lat="46.1726753" lon="13.6132383"><ele>600.0</ele><time>2026-05-02T10:20:54.47Z</time></trkpt><trkpt lat="46.172622" lon="13.6131275"><ele>600.0</ele><time>2026-05-02T10:20:55.47Z</time></trkpt><trkpt lat="46.1725765" lon="13.6130237"><ele>600.0</ele><time>2026-05-02T10:20:56.47Z</time></trkpt><trkpt lat="46.1725333" lon="13.6129257"><ele>600.0</ele><time>2026-05-02T10:20:57.47Z</time></trkpt><trkpt lat="46.1724903" lon="13.6128388"><ele>600.0</ele><time>2026-05-02T10:20:58.47Z</time></trkpt><trkpt lat="46.1724157" lon="13.6127215"><ele>600.0</ele><time>2026-05-02T10:21:00.472Z</time></trkpt><trkpt lat="46.1723475" lon="13.612669"><ele>600.0</ele><time>2026-05-02T10:21:02.472Z</time></trkpt><trkpt lat="46.1722802" lon="13.6126692"><ele>600.0</ele><time>2026-05-02T10:21:04.471Z</time></trkpt><trkpt lat="46.172078" lon="13.6125642"><ele>602.0</ele><time>2026-05-02T10:21:08.471Z</time></trkpt><trkpt lat="46.172013" lon="13.6125335"><ele>604.0</ele><time>2026-05-02T10:21:09.47Z</time></trkpt><trkpt lat="46.1719508" lon="13.6125108"><ele>606.0</ele><time>2026-05-02T10:21:10.473Z</time></trkpt><trkpt lat="46.171832" lon="13.6124922"><ele>608.0</ele><time>2026-05-02T10:21:12.471Z</time></trkpt><trkpt lat="46.1717232" lon="13.6125285"><ele>610.0</ele><time>2026-05-02T10:21:14.468Z</time></trkpt><trkpt lat="46.1716265" lon="13.6125812"><ele>610.4</ele><time>2026-05-02T10:21:16.469Z</time></trkpt><trkpt lat="46.1715118" lon="13.6126372"><ele>610.8</ele><time>2026-05-02T10:21:18.469Z</time></trkpt><trkpt lat="46.1714055" lon="13.6127042"><ele>611.2</ele><time>2026-05-02T10:21:20.467Z</time></trkpt><trkpt lat="46.1713442" lon="13.612748"><ele>611.6</ele><time>2026-05-02T10:21:21.468Z</time></trkpt><trkpt lat="46.1712325" lon="13.6128052"><ele>612.0</ele><time>2026-05-02T10:21:23.47Z</time></trkpt><trkpt lat="46.1711067" lon="13.6128182"><ele>606.2</ele><time>2026-05-02T10:21:25.47Z</time></trkpt><trkpt lat="46.1709128" lon="13.6128677"><ele>600.4000000000001</ele><time>2026-05-02T10:21:28.468Z</time></trkpt><trkpt lat="46.170836" lon="13.6128598"><ele>594.5999999999999</ele><time>2026-05-02T10:21:29.469Z</time></trkpt><trkpt lat="46.1707683" lon="13.6128597"><ele>588.8</ele><time>2026-05-02T10:21:30.47Z</time></trkpt><trkpt lat="46.1707027" lon="13.6128755"><ele>583.0</ele><time>2026-05-02T10:21:31.469Z</time></trkpt><trkpt lat="46.1706262" lon="13.6129"><ele>581.0</ele><time>2026-05-02T10:21:32.468Z</time></trkpt><trkpt lat="46.1705438" lon="13.6129143"><ele>579.0</ele><time>2026-05-02T10:21:33.47Z</time></trkpt><trkpt lat="46.1704658" lon="13.6129235"><ele>577.0</ele><time>2026-05-02T10:21:34.469Z</time></trkpt><trkpt lat="46.1704028" lon="13.6129215"><ele>575.0</ele><time>2026-05-02T10:21:35.471Z</time></trkpt><trkpt lat="46.1703363" lon="13.6129013"><ele>573.0</ele><time>2026-05-02T10:21:36.469Z</time></trkpt><trkpt lat="46.1702577" lon="13.6128703"><ele>571.0</ele><time>2026-05-02T10:21:37.468Z</time></trkpt><trkpt lat="46.170173" lon="13.6128318"><ele>574.0</ele><time>2026-05-02T10:21:38.467Z</time></trkpt><trkpt lat="46.1700938" lon="13.6127995"><ele>577.0</ele><time>2026-05-02T10:21:39.468Z</time></trkpt><trkpt lat="46.170008" lon="13.6127872"><ele>580.0</ele><time>2026-05-02T10:21:40.468Z</time></trkpt><trkpt lat="46.1699377" lon="13.6127782"><ele>583.0</ele><time>2026-05-02T10:21:41.468Z</time></trkpt><trkpt lat="46.169847" lon="13.6127843"><ele>586.0</ele><time>2026-05-02T10:21:42.468Z</time></trkpt><trkpt lat="46.1697587" lon="13.612792"><ele>589.0</ele><time>2026-05-02T10:21:43.467Z</time></trkpt><trkpt lat="46.1696763" lon="13.612807"><ele>589.0</ele><time>2026-05-02T10:21:44.467Z</time></trkpt><trkpt lat="46.1695947" lon="13.6128187"><ele>589.0</ele><time>2026-05-02T10:21:45.468Z</time></trkpt><trkpt lat="46.1695155" lon="13.612805"><ele>589.0</ele><time>2026-05-02T10:21:46.467Z</time></trkpt><trkpt lat="46.1693777" lon="13.612753"><ele>589.0</ele><time>2026-05-02T10:21:48.469Z</time></trkpt><trkpt lat="46.1693037" lon="13.6127033"><ele>589.0</ele><time>2026-05-02T10:21:49.469Z</time></trkpt><trkpt lat="46.169233" lon="13.6126355"><ele>589.0</ele><time>2026-05-02T10:21:50.469Z</time></trkpt><trkpt lat="46.1691623" lon="13.6125885"><ele>589.0</ele><time>2026-05-02T10:21:51.469Z</time></trkpt><trkpt lat="46.1690888" lon="13.6125703"><ele>589.0</ele><time>2026-05-02T10:21:52.471Z</time></trkpt><trkpt lat="46.169014" lon="13.6125492"><ele>589.0</ele><time>2026-05-02T10:21:53.47Z</time></trkpt><trkpt lat="46.1689388" lon="13.6125352"><ele>589.0</ele><time>2026-05-02T10:21:54.47Z</time></trkpt><trkpt lat="46.1688715" lon="13.6125347"><ele>589.0</ele><time>2026-05-02T10:21:55.469Z</time></trkpt><trkpt lat="46.1687728" lon="13.6125995"><ele>589.8</ele><time>2026-05-02T10:21:57.469Z</time></trkpt><trkpt lat="46.1686788" lon="13.6127228"><ele>590.5999999999999</ele><time>2026-05-02T10:21:59.47Z</time></trkpt><trkpt lat="46.1686243" lon="13.612811"><ele>591.4</ele><time>2026-05-02T10:22:00.469Z</time></trkpt><trkpt lat="46.168561" lon="13.6129042"><ele>592.1999999999999</ele><time>2026-05-02T10:22:01.468Z</time></trkpt><trkpt lat="46.1685062" lon="13.6129963"><ele>593.0</ele><time>2026-05-02T10:22:02.468Z</time></trkpt><trkpt lat="46.168467" lon="13.6130938"><ele>588.6</ele><time>2026-05-02T10:22:03.47Z</time></trkpt><trkpt lat="46.168433" lon="13.613177"><ele>584.1999999999999</ele><time>2026-05-02T10:22:04.468Z</time></trkpt><trkpt lat="46.168396" lon="13.613253"><ele>579.8</ele><time>2026-05-02T10:22:05.467Z</time></trkpt><trkpt lat="46.1682962" lon="13.6133708"><ele>575.4</ele><time>2026-05-02T10:22:07.467Z</time></trkpt><trkpt lat="46.168163" lon="13.6134475"><ele>571.0</ele><time>2026-05-02T10:22:09.467Z</time></trkpt><trkpt lat="46.1680782" lon="13.613572"><ele>571.0</ele><time>2026-05-02T10:22:11.468Z</time></trkpt><trkpt lat="46.1680405" lon="13.6136457"><ele>571.0</ele><time>2026-05-02T10:22:12.471Z</time></trkpt><trkpt lat="46.1679482" lon="13.6137185"><ele>571.0</ele><time>2026-05-02T10:22:14.469Z</time></trkpt><trkpt lat="46.1678252" lon="13.61369"><ele>571.0</ele><time>2026-05-02T10:22:16.471Z</time></trkpt><trkpt lat="46.1677438" lon="13.613666"><ele>571.0</ele><time>2026-05-02T10:22:17.47Z</time></trkpt><trkpt lat="46.1676742" lon="13.6136433"><ele>571.0</ele><time>2026-05-02T10:22:18.469Z</time></trkpt><trkpt lat="46.167606" lon="13.6136425"><ele>565.0</ele><time>2026-05-02T10:22:19.469Z</time></trkpt><trkpt lat="46.1675017" lon="13.6136852"><ele>559.0</ele><time>2026-05-02T10:22:21.469Z</time></trkpt><trkpt lat="46.1674248" lon="13.6138228"><ele>553.0</ele><time>2026-05-02T10:22:23.471Z</time></trkpt><trkpt lat="46.1673832" lon="13.613997"><ele>547.0</ele><time>2026-05-02T10:22:25.469Z</time></trkpt><trkpt lat="46.1673717" lon="13.6140915"><ele>541.0</ele><time>2026-05-02T10:22:26.469Z</time></trkpt><trkpt lat="46.1673632" lon="13.614197"><ele>544.2</ele><time>2026-05-02T10:22:27.469Z</time></trkpt><trkpt lat="46.167348" lon="13.6143143"><ele>547.4000000000001</ele><time>2026-05-02T10:22:28.47Z</time></trkpt><trkpt lat="46.1673215" lon="13.6145487"><ele>550.6</ele><time>2026-05-02T10:22:30.469Z</time></trkpt><trkpt lat="46.1673125" lon="13.6146528"><ele>553.8000000000001</ele><time>2026-05-02T10:22:31.47Z</time></trkpt><trkpt lat="46.1672795" lon="13.6147568"><ele>557.0</ele><time>2026-05-02T10:22:32.469Z</time></trkpt><trkpt lat="46.1672458" lon="13.6148647"><ele>557.0</ele><time>2026-05-02T10:22:33.468Z</time></trkpt><trkpt lat="46.1672082" lon="13.6149745"><ele>557.0</ele><time>2026-05-02T10:22:34.468Z</time></trkpt><trkpt lat="46.1671698" lon="13.615078"><ele>557.0</ele><time>2026-05-02T10:22:35.468Z</time></trkpt><trkpt lat="46.167141" lon="13.6151677"><ele>557.0</ele><time>2026-05-02T10:22:36.471Z</time></trkpt><trkpt lat="46.1670663" lon="13.6153048"><ele>557.0</ele><time>2026-05-02T10:22:38.469Z</time></trkpt><trkpt lat="46.1670028" lon="13.6153533"><ele>557.0</ele><time>2026-05-02T10:22:39.47Z</time></trkpt><trkpt lat="46.1669205" lon="13.6153945"><ele>556.4</ele><time>2026-05-02T10:22:40.47Z</time></trkpt><trkpt lat="46.1667678" lon="13.615453"><ele>555.8000000000001</ele><time>2026-05-02T10:22:42.469Z</time></trkpt><trkpt lat="46.1666628" lon="13.6155605"><ele>555.2</ele><time>2026-05-02T10:22:44.47Z</time></trkpt><trkpt lat="46.1666067" lon="13.6156505"><ele>554.6</ele><time>2026-05-02T10:22:45.469Z</time></trkpt><trkpt lat="46.1665637" lon="13.6157422"><ele>554.0</ele><time>2026-05-02T10:22:46.471Z</time></trkpt><trkpt lat="46.166514" lon="13.6158475"><ele>554.0</ele><time>2026-05-02T10:22:47.468Z</time></trkpt><trkpt lat="46.166456" lon="13.6159533"><ele>554.0</ele><time>2026-05-02T10:22:48.469Z</time></trkpt><trkpt lat="46.166418" lon="13.6160585"><ele>554.0</ele><time>2026-05-02T10:22:49.469Z</time></trkpt><trkpt lat="46.1662943" lon="13.6162458"><ele>554.0</ele><time>2026-05-02T10:22:51.469Z</time></trkpt><trkpt lat="46.1662168" lon="13.6163342"><ele>547.0</ele><time>2026-05-02T10:22:52.472Z</time></trkpt><trkpt lat="46.1661502" lon="13.6164333"><ele>540.0</ele><time>2026-05-02T10:22:53.469Z</time></trkpt><trkpt lat="46.1660865" lon="13.616548"><ele>533.0</ele><time>2026-05-02T10:22:54.469Z</time></trkpt><trkpt lat="46.1660237" lon="13.6166687"><ele>526.0</ele><time>2026-05-02T10:22:55.469Z</time></trkpt><trkpt lat="46.1659655" lon="13.6167937"><ele>519.0</ele><time>2026-05-02T10:22:56.468Z</time></trkpt><trkpt lat="46.165907" lon="13.6169192"><ele>516.6</ele><time>2026-05-02T10:22:57.468Z</time></trkpt><trkpt lat="46.1658568" lon="13.6170365"><ele>514.2</ele><time>2026-05-02T10:22:58.468Z</time></trkpt><trkpt lat="46.1658017" lon="13.6171407"><ele>511.80000000000007</ele><time>2026-05-02T10:22:59.468Z</time></trkpt><trkpt lat="46.1657375" lon="13.617231"><ele>509.40000000000003</ele><time>2026-05-02T10:23:00.469Z</time></trkpt><trkpt lat="46.165662" lon="13.617326"><ele>507.0</ele><time>2026-05-02T10:23:01.471Z</time></trkpt><trkpt lat="46.1655825" lon="13.6174343"><ele>507.0</ele><time>2026-05-02T10:23:02.47Z</time></trkpt><trkpt lat="46.165508" lon="13.6175523"><ele>507.00000000000006</ele><time>2026-05-02T10:23:03.47Z</time></trkpt><trkpt lat="46.1654223" lon="13.6176647"><ele>507.00000000000006</ele><time>2026-05-02T10:23:04.471Z</time></trkpt><trkpt lat="46.165343" lon="13.6177723"><ele>507.0</ele><time>2026-05-02T10:23:05.471Z</time></trkpt><trkpt lat="46.1652852" lon="13.6178637"><ele>507.0</ele><time>2026-05-02T10:23:06.471Z</time></trkpt><trkpt lat="46.1652173" lon="13.6179425"><ele>500.75</ele><time>2026-05-02T10:23:07.47Z</time></trkpt><trkpt lat="46.1651643" lon="13.6180032"><ele>494.5</ele><time>2026-05-02T10:23:08.47Z</time></trkpt><trkpt lat="46.1650717" lon="13.6180172"><ele>488.25</ele><time>2026-05-02T10:23:10.471Z</time></trkpt><trkpt lat="46.1648668" lon="13.6179035"><ele>482.0</ele><time>2026-05-02T10:23:13.47Z</time></trkpt><trkpt lat="46.1647747" lon="13.6178648"><ele>480.16666666666663</ele><time>2026-05-02T10:23:14.472Z</time></trkpt><trkpt lat="46.1646967" lon="13.6178362"><ele>478.3333333333333</ele><time>2026-05-02T10:23:15.473Z</time></trkpt><trkpt lat="46.164628" lon="13.6178158"><ele>476.5</ele><time>2026-05-02T10:23:16.471Z</time></trkpt><trkpt lat="46.164542" lon="13.6177505"><ele>474.66666666666663</ele><time>2026-05-02T10:23:18.471Z</time></trkpt><trkpt lat="46.164488" lon="13.6175995"><ele>472.8333333333333</ele><time>2026-05-02T10:23:20.471Z</time></trkpt><trkpt lat="46.1644662" lon="13.6175062"><ele>471.0</ele><time>2026-05-02T10:23:21.475Z</time></trkpt><trkpt lat="46.1644258" lon="13.6174227"><ele>471.0</ele><time>2026-05-02T10:23:22.479Z</time></trkpt><trkpt lat="46.164373" lon="13.617368"><ele>471.0</ele><time>2026-05-02T10:23:23.469Z</time></trkpt><trkpt lat="46.1643067" lon="13.6173042"><ele>471.0</ele><time>2026-05-02T10:23:24.469Z</time></trkpt><trkpt lat="46.1642337" lon="13.6172487"><ele>471.0</ele><time>2026-05-02T10:23:25.471Z</time></trkpt><trkpt lat="46.164117" lon="13.6171427"><ele>471.0</ele><time>2026-05-02T10:23:27.472Z</time></trkpt><trkpt lat="46.1640378" lon="13.6170085"><ele>469.0</ele><time>2026-05-02T10:23:29.47Z</time></trkpt><trkpt lat="46.163997" lon="13.6169305"><ele>467.0</ele><time>2026-05-02T10:23:30.474Z</time></trkpt><trkpt lat="46.1639418" lon="13.6168463"><ele>465.0</ele><time>2026-05-02T10:23:31.471Z</time></trkpt><trkpt lat="46.1637885" lon="13.616751"><ele>463.0</ele><time>2026-05-02T10:23:33.47Z</time></trkpt><trkpt lat="46.163712" lon="13.6167245"><ele>461.0</ele><time>2026-05-02T10:23:34.47Z</time></trkpt><trkpt lat="46.1636367" lon="13.6167122"><ele>460.99999999999994</ele><time>2026-05-02T10:23:35.47Z</time></trkpt><trkpt lat="46.1635563" lon="13.6167105"><ele>461.0</ele><time>2026-05-02T10:23:36.47Z</time></trkpt><trkpt lat="46.1634765" lon="13.6166962"><ele>461.0</ele><time>2026-05-02T10:23:37.474Z</time></trkpt><trkpt lat="46.1633863" lon="13.6166835"><ele>461.0</ele><time>2026-05-02T10:23:38.469Z</time></trkpt><trkpt lat="46.1632923" lon="13.6166703"><ele>460.99999999999994</ele><time>2026-05-02T10:23:39.47Z</time></trkpt><trkpt lat="46.1631958" lon="13.6166498"><ele>461.0</ele><time>2026-05-02T10:23:40.471Z</time></trkpt><trkpt lat="46.1631078" lon="13.6166243"><ele>455.8333333333333</ele><time>2026-05-02T10:23:41.47Z</time></trkpt><trkpt lat="46.1630157" lon="13.6166028"><ele>450.66666666666663</ele><time>2026-05-02T10:23:42.47Z</time></trkpt><trkpt lat="46.1629258" lon="13.6165742"><ele>445.5</ele><time>2026-05-02T10:23:43.471Z</time></trkpt><trkpt lat="46.162842" lon="13.6165487"><ele>440.33333333333337</ele><time>2026-05-02T10:23:44.472Z</time></trkpt><trkpt lat="46.1627637" lon="13.6165263"><ele>435.1666666666667</ele><time>2026-05-02T10:23:45.472Z</time></trkpt><trkpt lat="46.1626948" lon="13.6164932"><ele>430.0</ele><time>2026-05-02T10:23:46.469Z</time></trkpt><trkpt lat="46.1626052" lon="13.6164102"><ele>430.0</ele><time>2026-05-02T10:23:48.47Z</time></trkpt><trkpt lat="46.1625573" lon="13.6163422"><ele>430.0</ele><time>2026-05-02T10:23:49.469Z</time></trkpt><trkpt lat="46.1624992" lon="13.616283"><ele>430.0</ele><time>2026-05-02T10:23:50.471Z</time></trkpt><trkpt lat="46.162386" lon="13.6162567"><ele>430.0</ele><time>2026-05-02T10:23:52.469Z</time></trkpt><trkpt lat="46.1622167" lon="13.6161875"><ele>430.0</ele><time>2026-05-02T10:23:55.469Z</time></trkpt><trkpt lat="46.1621433" lon="13.6161193"><ele>429.8</ele><time>2026-05-02T10:23:56.47Z</time></trkpt><trkpt lat="46.162067" lon="13.6160353"><ele>429.6</ele><time>2026-05-02T10:23:57.471Z</time></trkpt><trkpt lat="46.1619823" lon="13.615956"><ele>429.4</ele><time>2026-05-02T10:23:58.469Z</time></trkpt><trkpt lat="46.1618985" lon="13.615884"><ele>429.2</ele><time>2026-05-02T10:23:59.468Z</time></trkpt><trkpt lat="46.1618122" lon="13.6158168"><ele>429.0</ele><time>2026-05-02T10:24:00.469Z</time></trkpt><trkpt lat="46.1617322" lon="13.6157482"><ele>429.0</ele><time>2026-05-02T10:24:01.469Z</time></trkpt><trkpt lat="46.1616527" lon="13.6156765"><ele>429.0</ele><time>2026-05-02T10:24:02.469Z</time></trkpt><trkpt lat="46.161579" lon="13.6156017"><ele>429.0</ele><time>2026-05-02T10:24:03.469Z</time></trkpt><trkpt lat="46.1615078" lon="13.6155287"><ele>429.0</ele><time>2026-05-02T10:24:04.469Z</time></trkpt><trkpt lat="46.1614435" lon="13.615447"><ele>429.0</ele><time>2026-05-02T10:24:05.469Z</time></trkpt><trkpt lat="46.1613837" lon="13.6153568"><ele>429.0</ele><time>2026-05-02T10:24:06.469Z</time></trkpt><trkpt lat="46.161319" lon="13.6152668"><ele>429.0</ele><time>2026-05-02T10:24:07.47Z</time></trkpt><trkpt lat="46.1612662" lon="13.6151655"><ele>429.0</ele><time>2026-05-02T10:24:08.47Z</time></trkpt><trkpt lat="46.1612182" lon="13.615087"><ele>429.0</ele><time>2026-05-02T10:24:09.47Z</time></trkpt><trkpt lat="46.161167" lon="13.6149858"><ele>429.0</ele><time>2026-05-02T10:24:10.468Z</time></trkpt><trkpt lat="46.1611157" lon="13.6148598"><ele>429.0</ele><time>2026-05-02T10:24:11.467Z</time></trkpt><trkpt lat="46.1610613" lon="13.6147138"><ele>429.0</ele><time>2026-05-02T10:24:12.468Z</time></trkpt><trkpt lat="46.16101" lon="13.6145628"><ele>429.0</ele><time>2026-05-02T10:24:13.467Z</time></trkpt><trkpt lat="46.1609098" lon="13.6143158"><ele>429.0</ele><time>2026-05-02T10:24:15.467Z</time></trkpt><trkpt lat="46.1608705" lon="13.6142047"><ele>429.0</ele><time>2026-05-02T10:24:16.467Z</time></trkpt><trkpt lat="46.1608118" lon="13.6140937"><ele>417.79999999999995</ele><time>2026-05-02T10:24:17.469Z</time></trkpt><trkpt lat="46.1607467" lon="13.6139918"><ele>406.59999999999997</ele><time>2026-05-02T10:24:18.469Z</time></trkpt><trkpt lat="46.1606788" lon="13.613891"><ele>395.4</ele><time>2026-05-02T10:24:19.468Z</time></trkpt><trkpt lat="46.1606178" lon="13.6137927"><ele>384.2</ele><time>2026-05-02T10:24:20.468Z</time></trkpt><trkpt lat="46.1605577" lon="13.6136943"><ele>373.0</ele><time>2026-05-02T10:24:21.469Z</time></trkpt><trkpt lat="46.1605007" lon="13.6136057"><ele>373.0</ele><time>2026-05-02T10:24:22.471Z</time></trkpt><trkpt lat="46.1604463" lon="13.6135192"><ele>373.0</ele><time>2026-05-02T10:24:23.469Z</time></trkpt><trkpt lat="46.1604025" lon="13.6134268"><ele>373.0</ele><time>2026-05-02T10:24:24.47Z</time></trkpt><trkpt lat="46.1603685" lon="13.6133295"><ele>373.0</ele><time>2026-05-02T10:24:25.469Z</time></trkpt><trkpt lat="46.1603393" lon="13.613227"><ele>373.0</ele><time>2026-05-02T10:24:26.469Z</time></trkpt><trkpt lat="46.1603038" lon="13.6131067"><ele>373.0</ele><time>2026-05-02T10:24:27.47Z</time></trkpt><trkpt lat="46.1602723" lon="13.612977"><ele>373.0</ele><time>2026-05-02T10:24:28.468Z</time></trkpt><trkpt lat="46.1602472" lon="13.6128695"><ele>373.0</ele><time>2026-05-02T10:24:29.469Z</time></trkpt><trkpt lat="46.1602312" lon="13.6127672"><ele>373.0</ele><time>2026-05-02T10:24:30.469Z</time></trkpt><trkpt lat="46.1602385" lon="13.6126223"><ele>373.0</ele><time>2026-05-02T10:24:32.468Z</time></trkpt><trkpt lat="46.1602692" lon="13.6125402"><ele>373.0</ele><time>2026-05-02T10:24:33.47Z</time></trkpt><trkpt lat="46.1603058" lon="13.6123887"><ele>373.0</ele><time>2026-05-02T10:24:35.466Z</time></trkpt><trkpt lat="46.1601772" lon="13.6121945"><ele>376.2</ele><time>2026-05-02T10:24:39.468Z</time></trkpt><trkpt lat="46.1601387" lon="13.6120902"><ele>379.4</ele><time>2026-05-02T10:24:40.468Z</time></trkpt><trkpt lat="46.1600838" lon="13.6119713"><ele>382.59999999999997</ele><time>2026-05-02T10:24:41.468Z</time></trkpt><trkpt lat="46.1600157" lon="13.6118425"><ele>385.79999999999995</ele><time>2026-05-02T10:24:42.469Z</time></trkpt><trkpt lat="46.159941" lon="13.611713"><ele>389.0</ele><time>2026-05-02T10:24:43.468Z</time></trkpt><trkpt lat="46.1598768" lon="13.6115843"><ele>381.25</ele><time>2026-05-02T10:24:44.469Z</time></trkpt><trkpt lat="46.1598323" lon="13.6114533"><ele>373.5</ele><time>2026-05-02T10:24:45.468Z</time></trkpt><trkpt lat="46.159796" lon="13.61131"><ele>365.75</ele><time>2026-05-02T10:24:46.469Z</time></trkpt><trkpt lat="46.1597645" lon="13.6111457"><ele>358.0</ele><time>2026-05-02T10:24:47.469Z</time></trkpt><trkpt lat="46.1597282" lon="13.6109715"><ele>358.0</ele><time>2026-05-02T10:24:48.469Z</time></trkpt><trkpt lat="46.1596965" lon="13.6107978"><ele>358.0</ele><time>2026-05-02T10:24:49.469Z</time></trkpt><trkpt lat="46.1596735" lon="13.6106148"><ele>358.0</ele><time>2026-05-02T10:24:50.469Z</time></trkpt><trkpt lat="46.159651" lon="13.6104285"><ele>358.0</ele><time>2026-05-02T10:24:51.468Z</time></trkpt><trkpt lat="46.1596313" lon="13.6102452"><ele>356.75</ele><time>2026-05-02T10:24:52.469Z</time></trkpt><trkpt lat="46.1596088" lon="13.6100645"><ele>355.5</ele><time>2026-05-02T10:24:53.469Z</time></trkpt><trkpt lat="46.1595892" lon="13.6098882"><ele>354.25</ele><time>2026-05-02T10:24:54.469Z</time></trkpt><trkpt lat="46.1595708" lon="13.6097148"><ele>353.0</ele><time>2026-05-02T10:24:55.468Z</time></trkpt><trkpt lat="46.1595493" lon="13.6095577"><ele>354.75</ele><time>2026-05-02T10:24:56.469Z</time></trkpt><trkpt lat="46.1594812" lon="13.6092945"><ele>356.5</ele><time>2026-05-02T10:24:58.469Z</time></trkpt><trkpt lat="46.1594378" lon="13.609162"><ele>358.25</ele><time>2026-05-02T10:24:59.469Z</time></trkpt><trkpt lat="46.159402" lon="13.6090253"><ele>360.0</ele><time>2026-05-02T10:25:00.469Z</time></trkpt><trkpt lat="46.1593652" lon="13.6088913"><ele>360.0</ele><time>2026-05-02T10:25:01.469Z</time></trkpt><trkpt lat="46.1593268" lon="13.6087572"><ele>360.0</ele><time>2026-05-02T10:25:02.469Z</time></trkpt><trkpt lat="46.1592858" lon="13.6086272"><ele>360.0</ele><time>2026-05-02T10:25:03.469Z</time></trkpt><trkpt lat="46.1592357" lon="13.6084975"><ele>360.0</ele><time>2026-05-02T10:25:04.469Z</time></trkpt><trkpt lat="46.1591617" lon="13.6083692"><ele>360.0</ele><time>2026-05-02T10:25:05.47Z</time></trkpt><trkpt lat="46.1590833" lon="13.608258"><ele>354.6</ele><time>2026-05-02T10:25:06.47Z</time></trkpt><trkpt lat="46.1590105" lon="13.6081495"><ele>349.2</ele><time>2026-05-02T10:25:07.472Z</time></trkpt><trkpt lat="46.15895" lon="13.608036"><ele>343.79999999999995</ele><time>2026-05-02T10:25:08.469Z</time></trkpt><trkpt lat="46.1588945" lon="13.6079368"><ele>338.4</ele><time>2026-05-02T10:25:09.469Z</time></trkpt><trkpt lat="46.1588545" lon="13.6078177"><ele>333.0</ele><time>2026-05-02T10:25:10.469Z</time></trkpt><trkpt lat="46.1588305" lon="13.6076965"><ele>333.0</ele><time>2026-05-02T10:25:11.47Z</time></trkpt><trkpt lat="46.1588187" lon="13.6075833"><ele>333.0</ele><time>2026-05-02T10:25:12.47Z</time></trkpt><trkpt lat="46.1588243" lon="13.607486"><ele>333.0</ele><time>2026-05-02T10:25:13.47Z</time></trkpt><trkpt lat="46.1588572" lon="13.6073898"><ele>333.0</ele><time>2026-05-02T10:25:14.47Z</time></trkpt><trkpt lat="46.1588985" lon="13.6072992"><ele>333.0</ele><time>2026-05-02T10:25:15.471Z</time></trkpt><trkpt lat="46.1589243" lon="13.6072128"><ele>333.0</ele><time>2026-05-02T10:25:16.469Z</time></trkpt><trkpt lat="46.1589012" lon="13.6070748"><ele>333.0</ele><time>2026-05-02T10:25:18.469Z</time></trkpt><trkpt lat="46.1587178" lon="13.6068692"><ele>333.0</ele><time>2026-05-02T10:25:22.469Z</time></trkpt><trkpt lat="46.1586487" lon="13.6068437"><ele>333.0</ele><time>2026-05-02T10:25:25.468Z</time></trkpt><trkpt lat="46.1587307" lon="13.6069137"><ele>333.0</ele><time>2026-05-02T10:25:33.469Z</time></trkpt><trkpt lat="46.1587685" lon="13.6070108"><ele>333.0</ele><time>2026-05-02T10:25:35.469Z</time></trkpt><trkpt lat="46.1587187" lon="13.6071313"><ele>333.0</ele><time>2026-05-02T10:25:37.469Z</time></trkpt><trkpt lat="46.15867" lon="13.6071982"><ele>333.0</ele><time>2026-05-02T10:25:38.469Z</time></trkpt><trkpt lat="46.1586258" lon="13.6072688"><ele>333.0</ele><time>2026-05-02T10:25:39.471Z</time></trkpt><trkpt lat="46.158543" lon="13.6075143"><ele>333.0</ele><time>2026-05-02T10:25:42.469Z</time></trkpt><trkpt lat="46.1585342" lon="13.607616"><ele>333.0</ele><time>2026-05-02T10:25:43.47Z</time></trkpt><trkpt lat="46.1585288" lon="13.6077192"><ele>333.0</ele><time>2026-05-02T10:25:44.469Z</time></trkpt><trkpt lat="46.1585342" lon="13.6078255"><ele>333.0</ele><time>2026-05-02T10:25:45.469Z</time></trkpt><trkpt lat="46.158542" lon="13.6079222"><ele>333.0</ele><time>2026-05-02T10:25:46.469Z</time></trkpt><trkpt lat="46.1585497" lon="13.6080405"><ele>333.0</ele><time>2026-05-02T10:25:47.469Z</time></trkpt><trkpt lat="46.1585608" lon="13.6081557"><ele>333.0</ele><time>2026-05-02T10:25:48.47Z</time></trkpt><trkpt lat="46.158587" lon="13.6082773"><ele>332.4</ele><time>2026-05-02T10:25:49.468Z</time></trkpt><trkpt lat="46.1586255" lon="13.608399"><ele>331.79999999999995</ele><time>2026-05-02T10:25:50.468Z</time></trkpt><trkpt lat="46.1586618" lon="13.6085345"><ele>331.2</ele><time>2026-05-02T10:25:51.469Z</time></trkpt><trkpt lat="46.1586808" lon="13.608673"><ele>330.6</ele><time>2026-05-02T10:25:52.469Z</time></trkpt><trkpt lat="46.1586862" lon="13.6088027"><ele>330.0</ele><time>2026-05-02T10:25:53.47Z</time></trkpt><trkpt lat="46.158702" lon="13.6089477"><ele>327.4</ele><time>2026-05-02T10:25:54.469Z</time></trkpt><trkpt lat="46.1587205" lon="13.6090865"><ele>324.8</ele><time>2026-05-02T10:25:55.471Z</time></trkpt><trkpt lat="46.1587403" lon="13.609226"><ele>322.2</ele><time>2026-05-02T10:25:56.47Z</time></trkpt><trkpt lat="46.1587533" lon="13.6093603"><ele>319.6</ele><time>2026-05-02T10:25:57.471Z</time></trkpt><trkpt lat="46.1587612" lon="13.6094923"><ele>317.0</ele><time>2026-05-02T10:25:58.47Z</time></trkpt><trkpt lat="46.1587572" lon="13.6096285"><ele>316.0</ele><time>2026-05-02T10:25:59.469Z</time></trkpt><trkpt lat="46.1587515" lon="13.6097665"><ele>315.0</ele><time>2026-05-02T10:26:00.47Z</time></trkpt><trkpt lat="46.1587675" lon="13.6100608"><ele>314.0</ele><time>2026-05-02T10:26:02.469Z</time></trkpt><trkpt lat="46.1587708" lon="13.6101945"><ele>313.0</ele><time>2026-05-02T10:26:03.47Z</time></trkpt><trkpt lat="46.158774" lon="13.6103337"><ele>313.0</ele><time>2026-05-02T10:26:04.469Z</time></trkpt><trkpt lat="46.1587655" lon="13.6104662"><ele>313.0</ele><time>2026-05-02T10:26:05.47Z</time></trkpt><trkpt lat="46.1587512" lon="13.6105892"><ele>313.0</ele><time>2026-05-02T10:26:06.47Z</time></trkpt><trkpt lat="46.1587392" lon="13.6107142"><ele>313.0</ele><time>2026-05-02T10:26:07.47Z</time></trkpt><trkpt lat="46.1587293" lon="13.6108392"><ele>313.0</ele><time>2026-05-02T10:26:08.471Z</time></trkpt><trkpt lat="46.1587108" lon="13.6109577"><ele>313.0</ele><time>2026-05-02T10:26:09.471Z</time></trkpt><trkpt lat="46.1586985" lon="13.611077"><ele>313.16666666666663</ele><time>2026-05-02T10:26:10.47Z</time></trkpt><trkpt lat="46.1586737" lon="13.6111907"><ele>313.3333333333333</ele><time>2026-05-02T10:26:11.47Z</time></trkpt><trkpt lat="46.1586368" lon="13.6113073"><ele>313.5</ele><time>2026-05-02T10:26:12.47Z</time></trkpt><trkpt lat="46.158627" lon="13.611429"><ele>313.6666666666667</ele><time>2026-05-02T10:26:13.471Z</time></trkpt><trkpt lat="46.1586198" lon="13.6115647"><ele>313.83333333333337</ele><time>2026-05-02T10:26:14.47Z</time></trkpt><trkpt lat="46.1586208" lon="13.6117023"><ele>314.0</ele><time>2026-05-02T10:26:15.468Z</time></trkpt><trkpt lat="46.1586275" lon="13.6118528"><ele>314.0</ele><time>2026-05-02T10:26:16.471Z</time></trkpt><trkpt lat="46.158635" lon="13.6119973"><ele>314.0</ele><time>2026-05-02T10:26:17.47Z</time></trkpt><trkpt lat="46.1586475" lon="13.6121207"><ele>314.0</ele><time>2026-05-02T10:26:18.47Z</time></trkpt><trkpt lat="46.158705" lon="13.6122555"><ele>314.0</ele><time>2026-05-02T10:26:20.47Z</time></trkpt><trkpt lat="46.1588037" lon="13.6123165"><ele>314.0</ele><time>2026-05-02T10:26:22.47Z</time></trkpt><trkpt lat="46.1588042" lon="13.612555"><ele>314.0</ele><time>2026-05-02T10:26:26.469Z</time></trkpt><trkpt lat="46.1588047" lon="13.6126467"><ele>314.0</ele><time>2026-05-02T10:26:27.469Z</time></trkpt><trkpt lat="46.1588307" lon="13.6127483"><ele>314.0</ele><time>2026-05-02T10:26:28.469Z</time></trkpt><trkpt lat="46.1588685" lon="13.6128485"><ele>314.0</ele><time>2026-05-02T10:26:29.47Z</time></trkpt><trkpt lat="46.1589207" lon="13.612961"><ele>314.0</ele><time>2026-05-02T10:26:30.471Z</time></trkpt><trkpt lat="46.1589735" lon="13.6130855"><ele>314.0</ele><time>2026-05-02T10:26:31.47Z</time></trkpt><trkpt lat="46.1590208" lon="13.6132088"><ele>316.0</ele><time>2026-05-02T10:26:32.471Z</time></trkpt><trkpt lat="46.1590647" lon="13.6133352"><ele>318.0</ele><time>2026-05-02T10:26:33.471Z</time></trkpt><trkpt lat="46.159113" lon="13.6134882"><ele>320.0</ele><time>2026-05-02T10:26:34.471Z</time></trkpt><trkpt lat="46.1591637" lon="13.6136445"><ele>322.0</ele><time>2026-05-02T10:26:35.471Z</time></trkpt><trkpt lat="46.1592058" lon="13.613792"><ele>324.0</ele><time>2026-05-02T10:26:36.471Z</time></trkpt><trkpt lat="46.1592497" lon="13.613923"><ele>324.0</ele><time>2026-05-02T10:26:37.469Z</time></trkpt><trkpt lat="46.1592825" lon="13.614053"><ele>324.0</ele><time>2026-05-02T10:26:38.47Z</time></trkpt><trkpt lat="46.1593107" lon="13.6141832"><ele>324.0</ele><time>2026-05-02T10:26:39.473Z</time></trkpt><trkpt lat="46.1593368" lon="13.6143043"><ele>324.0</ele><time>2026-05-02T10:26:40.469Z</time></trkpt><trkpt lat="46.1593643" lon="13.6144197"><ele>324.0</ele><time>2026-05-02T10:26:41.47Z</time></trkpt><trkpt lat="46.15939" lon="13.6145265"><ele>324.0</ele><time>2026-05-02T10:26:42.47Z</time></trkpt><trkpt lat="46.1594112" lon="13.614637"><ele>322.0</ele><time>2026-05-02T10:26:43.469Z</time></trkpt><trkpt lat="46.1594385" lon="13.6148532"><ele>320.0</ele><time>2026-05-02T10:26:45.471Z</time></trkpt><trkpt lat="46.1594517" lon="13.6149683"><ele>318.0</ele><time>2026-05-02T10:26:46.47Z</time></trkpt><trkpt lat="46.1594583" lon="13.6150832"><ele>316.0</ele><time>2026-05-02T10:26:47.467Z</time></trkpt><trkpt lat="46.1594577" lon="13.6151852"><ele>314.0</ele><time>2026-05-02T10:26:48.471Z</time></trkpt><trkpt lat="46.1594488" lon="13.6153573"><ele>314.0</ele><time>2026-05-02T10:26:50.471Z</time></trkpt><trkpt lat="46.1594945" lon="13.6154668"><ele>314.0</ele><time>2026-05-02T10:26:52.473Z</time></trkpt><trkpt lat="46.159517" lon="13.6155712"><ele>314.0</ele><time>2026-05-02T10:26:55.471Z</time></trkpt><trkpt lat="46.1594328" lon="13.615555"><ele>314.0</ele><time>2026-05-02T10:26:59.47Z</time></trkpt><trkpt lat="46.1593507" lon="13.6155022"><ele>314.0</ele><time>2026-05-02T10:27:01.471Z</time></trkpt><trkpt lat="46.1592927" lon="13.615408"><ele>314.0</ele><time>2026-05-02T10:27:03.472Z</time></trkpt><trkpt lat="46.159271" lon="13.6152878"><ele>314.0</ele><time>2026-05-02T10:27:05.47Z</time></trkpt><trkpt lat="46.1592552" lon="13.6150615"><ele>314.0</ele><time>2026-05-02T10:27:25.478Z</time></trkpt><trkpt lat="46.159234" lon="13.6149517"><ele>314.0</ele><time>2026-05-02T10:27:26.476Z</time></trkpt><trkpt lat="46.1591915" lon="13.6146887"><ele>314.0</ele><time>2026-05-02T10:27:28.477Z</time></trkpt><trkpt lat="46.1591733" lon="13.6145437"><ele>313.8</ele><time>2026-05-02T10:27:29.476Z</time></trkpt><trkpt lat="46.1591458" lon="13.6143943"><ele>313.59999999999997</ele><time>2026-05-02T10:27:30.479Z</time></trkpt><trkpt lat="46.1591035" lon="13.6142503"><ele>313.4</ele><time>2026-05-02T10:27:31.479Z</time></trkpt><trkpt lat="46.1590498" lon="13.6141068"><ele>313.2</ele><time>2026-05-02T10:27:32.48Z</time></trkpt><trkpt lat="46.1589848" lon="13.6139692"><ele>313.0</ele><time>2026-05-02T10:27:33.481Z</time></trkpt><trkpt lat="46.1589118" lon="13.6138343"><ele>313.0</ele><time>2026-05-02T10:27:34.479Z</time></trkpt><trkpt lat="46.1588337" lon="13.6136947"><ele>313.0</ele><time>2026-05-02T10:27:35.478Z</time></trkpt><trkpt lat="46.1587565" lon="13.6135458"><ele>313.0</ele><time>2026-05-02T10:27:36.479Z</time></trkpt><trkpt lat="46.1586813" lon="13.6133873"><ele>313.0</ele><time>2026-05-02T10:27:37.487Z</time></trkpt><trkpt lat="46.1586017" lon="13.613224"><ele>312.75</ele><time>2026-05-02T10:27:38.47Z</time></trkpt><trkpt lat="46.1585162" lon="13.6130592"><ele>312.5</ele><time>2026-05-02T10:27:39.471Z</time></trkpt><trkpt lat="46.1584277" lon="13.6128937"><ele>312.25</ele><time>2026-05-02T10:27:40.47Z</time></trkpt><trkpt lat="46.1583463" lon="13.612726"><ele>312.0</ele><time>2026-05-02T10:27:41.469Z</time></trkpt><trkpt lat="46.1582783" lon="13.6125497"><ele>312.5</ele><time>2026-05-02T10:27:42.47Z</time></trkpt><trkpt lat="46.1582268" lon="13.6123705"><ele>313.0</ele><time>2026-05-02T10:27:43.471Z</time></trkpt><trkpt lat="46.1581947" lon="13.6121637"><ele>313.5</ele><time>2026-05-02T10:27:44.471Z</time></trkpt><trkpt lat="46.1581623" lon="13.6119665"><ele>314.0</ele><time>2026-05-02T10:27:45.47Z</time></trkpt><trkpt lat="46.1581297" lon="13.6117832"><ele>313.6666666666667</ele><time>2026-05-02T10:27:46.47Z</time></trkpt><trkpt lat="46.1581143" lon="13.6116158"><ele>313.3333333333333</ele><time>2026-05-02T10:27:47.469Z</time></trkpt><trkpt lat="46.1581687" lon="13.6112757"><ele>313.0</ele><time>2026-05-02T10:27:49.469Z</time></trkpt><trkpt lat="46.1582165" lon="13.6110817"><ele>313.0</ele><time>2026-05-02T10:27:50.469Z</time></trkpt><trkpt lat="46.1582625" lon="13.6108788"><ele>313.0</ele><time>2026-05-02T10:27:51.468Z</time></trkpt><trkpt lat="46.1583052" lon="13.6106838"><ele>313.0</ele><time>2026-05-02T10:27:52.468Z</time></trkpt><trkpt lat="46.158336" lon="13.61051"><ele>313.0</ele><time>2026-05-02T10:27:53.469Z</time></trkpt><trkpt lat="46.1583477" lon="13.6103502"><ele>312.25</ele><time>2026-05-02T10:27:54.468Z</time></trkpt><trkpt lat="46.1583138" lon="13.6101933"><ele>311.5</ele><time>2026-05-02T10:27:55.47Z</time></trkpt><trkpt lat="46.1582453" lon="13.6100495"><ele>310.75</ele><time>2026-05-02T10:27:56.469Z</time></trkpt><trkpt lat="46.1581622" lon="13.6099128"><ele>310.0</ele><time>2026-05-02T10:27:57.471Z</time></trkpt><trkpt lat="46.1580673" lon="13.6097943"><ele>311.0</ele><time>2026-05-02T10:27:58.469Z</time></trkpt><trkpt lat="46.1579573" lon="13.6097303"><ele>312.0</ele><time>2026-05-02T10:27:59.468Z</time></trkpt><trkpt lat="46.1578567" lon="13.6096825"><ele>313.0</ele><time>2026-05-02T10:28:00.469Z</time></trkpt><trkpt lat="46.1577818" lon="13.6096167"><ele>314.0</ele><time>2026-05-02T10:28:01.469Z</time></trkpt><trkpt lat="46.1577248" lon="13.6095098"><ele>315.0</ele><time>2026-05-02T10:28:02.469Z</time></trkpt><trkpt lat="46.1576935" lon="13.6093608"><ele>315.0</ele><time>2026-05-02T10:28:03.469Z</time></trkpt><trkpt lat="46.1576653" lon="13.6091832"><ele>315.0</ele><time>2026-05-02T10:28:04.469Z</time></trkpt><trkpt lat="46.1576443" lon="13.608989"><ele>315.0</ele><time>2026-05-02T10:28:05.47Z</time></trkpt><trkpt lat="46.1576312" lon="13.6088022"><ele>315.0</ele><time>2026-05-02T10:28:06.471Z</time></trkpt><trkpt lat="46.1576313" lon="13.608619"><ele>310.6666666666667</ele><time>2026-05-02T10:28:07.47Z</time></trkpt><trkpt lat="46.1576518" lon="13.6084418"><ele>306.33333333333337</ele><time>2026-05-02T10:28:08.471Z</time></trkpt><trkpt lat="46.1577305" lon="13.6081272"><ele>302.0</ele><time>2026-05-02T10:28:10.469Z</time></trkpt><trkpt lat="46.157757" lon="13.6079695"><ele>300.75</ele><time>2026-05-02T10:28:11.47Z</time></trkpt><trkpt lat="46.1577407" lon="13.6078007"><ele>299.5</ele><time>2026-05-02T10:28:12.469Z</time></trkpt><trkpt lat="46.1576963" lon="13.6076273"><ele>298.25</ele><time>2026-05-02T10:28:13.469Z</time></trkpt><trkpt lat="46.157621" lon="13.607461"><ele>297.0</ele><time>2026-05-02T10:28:14.472Z</time></trkpt><trkpt lat="46.1575162" lon="13.6073223"><ele>297.0</ele><time>2026-05-02T10:28:15.468Z</time></trkpt><trkpt lat="46.1573892" lon="13.6072117"><ele>297.0</ele><time>2026-05-02T10:28:16.467Z</time></trkpt><trkpt lat="46.1572728" lon="13.6071112"><ele>297.0</ele><time>2026-05-02T10:28:17.467Z</time></trkpt><trkpt lat="46.1571767" lon="13.60701"><ele>297.0</ele><time>2026-05-02T10:28:18.468Z</time></trkpt><trkpt lat="46.1571117" lon="13.6068827"><ele>297.25</ele><time>2026-05-02T10:28:19.467Z</time></trkpt><trkpt lat="46.1570705" lon="13.6067185"><ele>297.5</ele><time>2026-05-02T10:28:20.468Z</time></trkpt><trkpt lat="46.1570488" lon="13.6065118"><ele>297.75</ele><time>2026-05-02T10:28:21.469Z</time></trkpt><trkpt lat="46.1570232" lon="13.6062987"><ele>298.0</ele><time>2026-05-02T10:28:22.469Z</time></trkpt><trkpt lat="46.1569937" lon="13.6060712"><ele>294.0</ele><time>2026-05-02T10:28:23.469Z</time></trkpt><trkpt lat="46.1569798" lon="13.6058368"><ele>290.0</ele><time>2026-05-02T10:28:24.468Z</time></trkpt><trkpt lat="46.1569833" lon="13.6056145"><ele>286.0</ele><time>2026-05-02T10:28:25.468Z</time></trkpt><trkpt lat="46.1569838" lon="13.6053987"><ele>286.0</ele><time>2026-05-02T10:28:26.469Z</time></trkpt><trkpt lat="46.1569608" lon="13.6052007"><ele>286.0</ele><time>2026-05-02T10:28:27.469Z</time></trkpt><trkpt lat="46.156909" lon="13.605013"><ele>286.0</ele><time>2026-05-02T10:28:28.469Z</time></trkpt><trkpt lat="46.1568402" lon="13.6048345"><ele>286.0</ele><time>2026-05-02T10:28:29.47Z</time></trkpt><trkpt lat="46.1567102" lon="13.6044742"><ele>286.0</ele><time>2026-05-02T10:28:31.471Z</time></trkpt><trkpt lat="46.1566543" lon="13.6042763"><ele>286.0</ele><time>2026-05-02T10:28:32.469Z</time></trkpt><trkpt lat="46.156607" lon="13.604062"><ele>286.0</ele><time>2026-05-02T10:28:33.47Z</time></trkpt><trkpt lat="46.1565785" lon="13.6038298"><ele>287.3333333333333</ele><time>2026-05-02T10:28:34.47Z</time></trkpt><trkpt lat="46.1565668" lon="13.6035877"><ele>288.6666666666667</ele><time>2026-05-02T10:28:35.471Z</time></trkpt><trkpt lat="46.1565638" lon="13.603342"><ele>290.0</ele><time>2026-05-02T10:28:36.472Z</time></trkpt><trkpt lat="46.156561" lon="13.6030925"><ele>290.0</ele><time>2026-05-02T10:28:37.471Z</time></trkpt><trkpt lat="46.156556" lon="13.602851"><ele>290.0</ele><time>2026-05-02T10:28:38.472Z</time></trkpt><trkpt lat="46.1565522" lon="13.6026318"><ele>290.0</ele><time>2026-05-02T10:28:39.472Z</time></trkpt><trkpt lat="46.1565608" lon="13.6024272"><ele>289.25</ele><time>2026-05-02T10:28:40.468Z</time></trkpt><trkpt lat="46.1565882" lon="13.6022243"><ele>288.5</ele><time>2026-05-02T10:28:41.468Z</time></trkpt><trkpt lat="46.1566302" lon="13.6020222"><ele>287.75</ele><time>2026-05-02T10:28:42.468Z</time></trkpt><trkpt lat="46.1566848" lon="13.6018147"><ele>287.0</ele><time>2026-05-02T10:28:43.467Z</time></trkpt><trkpt lat="46.1567407" lon="13.6016272"><ele>285.5</ele><time>2026-05-02T10:28:44.469Z</time></trkpt><trkpt lat="46.156811" lon="13.6014387"><ele>284.0</ele><time>2026-05-02T10:28:45.469Z</time></trkpt><trkpt lat="46.1568638" lon="13.6012545"><ele>282.5</ele><time>2026-05-02T10:28:46.469Z</time></trkpt><trkpt lat="46.1568832" lon="13.6010692"><ele>281.0</ele><time>2026-05-02T10:28:47.469Z</time></trkpt><trkpt lat="46.1568818" lon="13.6008702"><ele>281.0</ele><time>2026-05-02T10:28:48.469Z</time></trkpt><trkpt lat="46.156874" lon="13.6006707"><ele>281.0</ele><time>2026-05-02T10:28:49.469Z</time></trkpt><trkpt lat="46.156857" lon="13.6004793"><ele>281.0</ele><time>2026-05-02T10:28:50.469Z</time></trkpt><trkpt lat="46.1567647" lon="13.6001407"><ele>280.75</ele><time>2026-05-02T10:28:52.47Z</time></trkpt><trkpt lat="46.1566823" lon="13.5999812"><ele>280.5</ele><time>2026-05-02T10:28:53.47Z</time></trkpt><trkpt lat="46.1565815" lon="13.5998522"><ele>280.25</ele><time>2026-05-02T10:28:54.47Z</time></trkpt><trkpt lat="46.1564843" lon="13.5997298"><ele>280.0</ele><time>2026-05-02T10:28:55.469Z</time></trkpt><trkpt lat="46.1564087" lon="13.599601"><ele>286.25</ele><time>2026-05-02T10:28:56.469Z</time></trkpt><trkpt lat="46.156354" lon="13.5994337"><ele>292.5</ele><time>2026-05-02T10:28:57.471Z</time></trkpt><trkpt lat="46.1562998" lon="13.5992438"><ele>298.75</ele><time>2026-05-02T10:28:58.47Z</time></trkpt><trkpt lat="46.1562522" lon="13.5990328"><ele>305.0</ele><time>2026-05-02T10:28:59.47Z</time></trkpt><trkpt lat="46.1562042" lon="13.5988098"><ele>302.6666666666667</ele><time>2026-05-02T10:29:00.471Z</time></trkpt><trkpt lat="46.1561522" lon="13.5985855"><ele>300.3333333333333</ele><time>2026-05-02T10:29:01.472Z</time></trkpt><trkpt lat="46.1561167" lon="13.5983538"><ele>298.0</ele><time>2026-05-02T10:29:02.469Z</time></trkpt><trkpt lat="46.1560933" lon="13.5981193"><ele>298.0</ele><time>2026-05-02T10:29:03.469Z</time></trkpt><trkpt lat="46.156077" lon="13.5978795"><ele>298.0</ele><time>2026-05-02T10:29:04.468Z</time></trkpt><trkpt lat="46.1560627" lon="13.5976393"><ele>298.0</ele><time>2026-05-02T10:29:05.468Z</time></trkpt><trkpt lat="46.1560555" lon="13.5974055"><ele>294.3333333333333</ele><time>2026-05-02T10:29:06.468Z</time></trkpt><trkpt lat="46.1560595" lon="13.5971838"><ele>290.6666666666667</ele><time>2026-05-02T10:29:07.468Z</time></trkpt><trkpt lat="46.1560622" lon="13.59697"><ele>287.0</ele><time>2026-05-02T10:29:08.47Z</time></trkpt><trkpt lat="46.1560427" lon="13.5967492"><ele>286.33333333333337</ele><time>2026-05-02T10:29:09.47Z</time></trkpt><trkpt lat="46.1560052" lon="13.5965247"><ele>285.6666666666667</ele><time>2026-05-02T10:29:10.468Z</time></trkpt><trkpt lat="46.1559512" lon="13.5963163"><ele>285.0</ele><time>2026-05-02T10:29:11.469Z</time></trkpt><trkpt lat="46.1558607" lon="13.5959465"><ele>283.5</ele><time>2026-05-02T10:29:13.47Z</time></trkpt><trkpt lat="46.155838" lon="13.5957787"><ele>282.0</ele><time>2026-05-02T10:29:14.47Z</time></trkpt><trkpt lat="46.1558323" lon="13.5956095"><ele>280.5</ele><time>2026-05-02T10:29:15.47Z</time></trkpt><trkpt lat="46.1558463" lon="13.5954422"><ele>279.0</ele><time>2026-05-02T10:29:16.469Z</time></trkpt><trkpt lat="46.1558725" lon="13.5952745"><ele>277.5</ele><time>2026-05-02T10:29:17.469Z</time></trkpt><trkpt lat="46.1559062" lon="13.595111"><ele>276.0</ele><time>2026-05-02T10:29:18.469Z</time></trkpt><trkpt lat="46.155952" lon="13.5949552"><ele>274.5</ele><time>2026-05-02T10:29:19.468Z</time></trkpt><trkpt lat="46.1560118" lon="13.594816"><ele>273.0</ele><time>2026-05-02T10:29:20.469Z</time></trkpt><trkpt lat="46.1560685" lon="13.5946825"><ele>273.0</ele><time>2026-05-02T10:29:21.471Z</time></trkpt><trkpt lat="46.1561145" lon="13.5945432"><ele>273.0</ele><time>2026-05-02T10:29:22.469Z</time></trkpt><trkpt lat="46.1561415" lon="13.5943965"><ele>273.0</ele><time>2026-05-02T10:29:23.469Z</time></trkpt><trkpt lat="46.1561422" lon="13.5942445"><ele>273.0</ele><time>2026-05-02T10:29:24.469Z</time></trkpt><trkpt lat="46.1561147" lon="13.5940968"><ele>273.0</ele><time>2026-05-02T10:29:25.469Z</time></trkpt><trkpt lat="46.1560782" lon="13.5939395"><ele>271.5</ele><time>2026-05-02T10:29:26.468Z</time></trkpt><trkpt lat="46.1560423" lon="13.5937747"><ele>270.0</ele><time>2026-05-02T10:29:27.469Z</time></trkpt><trkpt lat="46.1560048" lon="13.5936075"><ele>268.5</ele><time>2026-05-02T10:29:28.469Z</time></trkpt><trkpt lat="46.1559667" lon="13.5934323"><ele>267.0</ele><time>2026-05-02T10:29:29.468Z</time></trkpt><trkpt lat="46.155935" lon="13.5932528"><ele>266.0</ele><time>2026-05-02T10:29:30.468Z</time></trkpt><trkpt lat="46.1559198" lon="13.593065"><ele>265.0</ele><time>2026-05-02T10:29:31.468Z</time></trkpt><trkpt lat="46.1559073" lon="13.592873"><ele>264.0</ele><time>2026-05-02T10:29:32.468Z</time></trkpt><trkpt lat="46.1558547" lon="13.5924827"><ele>264.0</ele><time>2026-05-02T10:29:34.47Z</time></trkpt><trkpt lat="46.1558075" lon="13.5922863"><ele>264.0</ele><time>2026-05-02T10:29:35.47Z</time></trkpt><trkpt lat="46.1557535" lon="13.5920892"><ele>264.0</ele><time>2026-05-02T10:29:36.47Z</time></trkpt><trkpt lat="46.1557038" lon="13.5918788"><ele>264.0</ele><time>2026-05-02T10:29:37.469Z</time></trkpt><trkpt lat="46.1556602" lon="13.5916653"><ele>261.6666666666667</ele><time>2026-05-02T10:29:38.469Z</time></trkpt><trkpt lat="46.1556285" lon="13.591452"><ele>259.33333333333337</ele><time>2026-05-02T10:29:39.469Z</time></trkpt><trkpt lat="46.155609" lon="13.5912302"><ele>257.0</ele><time>2026-05-02T10:29:40.47Z</time></trkpt><trkpt lat="46.1555987" lon="13.5910028"><ele>256.6666666666667</ele><time>2026-05-02T10:29:41.469Z</time></trkpt><trkpt lat="46.155593" lon="13.5907715"><ele>256.3333333333333</ele><time>2026-05-02T10:29:42.47Z</time></trkpt><trkpt lat="46.1555865" lon="13.5905398"><ele>256.0</ele><time>2026-05-02T10:29:43.469Z</time></trkpt><trkpt lat="46.1555762" lon="13.5903077"><ele>255.33333333333331</ele><time>2026-05-02T10:29:44.471Z</time></trkpt><trkpt lat="46.1555597" lon="13.5900788"><ele>254.66666666666669</ele><time>2026-05-02T10:29:45.47Z</time></trkpt><trkpt lat="46.1555328" lon="13.5898535"><ele>254.0</ele><time>2026-05-02T10:29:46.474Z</time></trkpt><trkpt lat="46.1554913" lon="13.58963"><ele>253.33333333333334</ele><time>2026-05-02T10:29:47.47Z</time></trkpt><trkpt lat="46.155441" lon="13.5894017"><ele>252.66666666666669</ele><time>2026-05-02T10:29:48.471Z</time></trkpt><trkpt lat="46.1553853" lon="13.589171"><ele>252.0</ele><time>2026-05-02T10:29:49.471Z</time></trkpt><trkpt lat="46.1553267" lon="13.5889443"><ele>252.0</ele><time>2026-05-02T10:29:50.475Z</time></trkpt><trkpt lat="46.155273" lon="13.5887327"><ele>252.0</ele><time>2026-05-02T10:29:51.473Z</time></trkpt><trkpt lat="46.1552323" lon="13.588528"><ele>252.0</ele><time>2026-05-02T10:29:52.471Z</time></trkpt><trkpt lat="46.1552115" lon="13.5883158"><ele>252.5</ele><time>2026-05-02T10:29:53.47Z</time></trkpt><trkpt lat="46.1552475" lon="13.5878645"><ele>253.0</ele><time>2026-05-02T10:29:55.47Z</time></trkpt><trkpt lat="46.15529" lon="13.5876358"><ele>256.66666666666663</ele><time>2026-05-02T10:29:56.473Z</time></trkpt><trkpt lat="46.1553403" lon="13.587419"><ele>260.3333333333333</ele><time>2026-05-02T10:29:57.471Z</time></trkpt><trkpt lat="46.1554062" lon="13.5872095"><ele>264.0</ele><time>2026-05-02T10:29:58.471Z</time></trkpt><trkpt lat="46.1554908" lon="13.5870147"><ele>260.3333333333333</ele><time>2026-05-02T10:29:59.471Z</time></trkpt><trkpt lat="46.1555897" lon="13.5868255"><ele>256.66666666666663</ele><time>2026-05-02T10:30:00.472Z</time></trkpt><trkpt lat="46.1556917" lon="13.5866338"><ele>253.0</ele><time>2026-05-02T10:30:01.472Z</time></trkpt><trkpt lat="46.1557923" lon="13.5864432"><ele>253.0</ele><time>2026-05-02T10:30:02.472Z</time></trkpt><trkpt lat="46.1558915" lon="13.5862458"><ele>253.0</ele><time>2026-05-02T10:30:03.473Z</time></trkpt><trkpt lat="46.1559847" lon="13.5860567"><ele>253.0</ele><time>2026-05-02T10:30:04.472Z</time></trkpt><trkpt lat="46.156068" lon="13.58589"><ele>252.0</ele><time>2026-05-02T10:30:05.472Z</time></trkpt><trkpt lat="46.1561405" lon="13.585745"><ele>251.0</ele><time>2026-05-02T10:30:06.471Z</time></trkpt><trkpt lat="46.1562047" lon="13.5856138"><ele>250.0</ele><time>2026-05-02T10:30:07.471Z</time></trkpt><trkpt lat="46.1562748" lon="13.5854907"><ele>249.0</ele><time>2026-05-02T10:30:08.471Z</time></trkpt><trkpt lat="46.1563475" lon="13.5853685"><ele>249.25</ele><time>2026-05-02T10:30:09.471Z</time></trkpt><trkpt lat="46.1564115" lon="13.5852347"><ele>249.5</ele><time>2026-05-02T10:30:10.471Z</time></trkpt><trkpt lat="46.1564645" lon="13.5850802"><ele>249.75</ele><time>2026-05-02T10:30:11.471Z</time></trkpt><trkpt lat="46.1565097" lon="13.5849137"><ele>250.0</ele><time>2026-05-02T10:30:12.471Z</time></trkpt><trkpt lat="46.1565597" lon="13.5847517"><ele>252.5</ele><time>2026-05-02T10:30:13.47Z</time></trkpt><trkpt lat="46.1566197" lon="13.5846122"><ele>255.0</ele><time>2026-05-02T10:30:14.47Z</time></trkpt><trkpt lat="46.1567363" lon="13.5844092"><ele>257.5</ele><time>2026-05-02T10:30:16.47Z</time></trkpt><trkpt lat="46.1567682" lon="13.5842962"><ele>260.0</ele><time>2026-05-02T10:30:17.47Z</time></trkpt><trkpt lat="46.1567725" lon="13.5841655"><ele>260.0</ele><time>2026-05-02T10:30:18.469Z</time></trkpt><trkpt lat="46.156759" lon="13.5840107"><ele>260.0</ele><time>2026-05-02T10:30:19.471Z</time></trkpt><trkpt lat="46.1567522" lon="13.5838455"><ele>260.0</ele><time>2026-05-02T10:30:20.47Z</time></trkpt><trkpt lat="46.156759" lon="13.5836822"><ele>260.0</ele><time>2026-05-02T10:30:21.469Z</time></trkpt><trkpt lat="46.1567713" lon="13.5835298"><ele>260.0</ele><time>2026-05-02T10:30:22.471Z</time></trkpt><trkpt lat="46.1567727" lon="13.58339"><ele>260.4</ele><time>2026-05-02T10:30:23.471Z</time></trkpt><trkpt lat="46.1567482" lon="13.5832582"><ele>260.8</ele><time>2026-05-02T10:30:24.472Z</time></trkpt><trkpt lat="46.1567168" lon="13.5831207"><ele>261.2</ele><time>2026-05-02T10:30:25.47Z</time></trkpt><trkpt lat="46.1566862" lon="13.5829713"><ele>261.6</ele><time>2026-05-02T10:30:26.469Z</time></trkpt><trkpt lat="46.156652" lon="13.582806"><ele>262.0</ele><time>2026-05-02T10:30:27.47Z</time></trkpt><trkpt lat="46.156603" lon="13.582628"><ele>261.0</ele><time>2026-05-02T10:30:28.469Z</time></trkpt><trkpt lat="46.1565463" lon="13.5824437"><ele>260.0</ele><time>2026-05-02T10:30:29.47Z</time></trkpt><trkpt lat="46.1564968" lon="13.5822402"><ele>259.0</ele><time>2026-05-02T10:30:30.47Z</time></trkpt><trkpt lat="46.156446" lon="13.5820388"><ele>258.0</ele><time>2026-05-02T10:30:31.47Z</time></trkpt><trkpt lat="46.1563928" lon="13.5818492"><ele>258.0</ele><time>2026-05-02T10:30:32.469Z</time></trkpt><trkpt lat="46.1563405" lon="13.5816863"><ele>258.0</ele><time>2026-05-02T10:30:33.471Z</time></trkpt><trkpt lat="46.1563013" lon="13.5815507"><ele>258.0</ele><time>2026-05-02T10:30:34.471Z</time></trkpt><trkpt lat="46.1562833" lon="13.5814282"><ele>258.0</ele><time>2026-05-02T10:30:35.47Z</time></trkpt><trkpt lat="46.1563415" lon="13.5812495"><ele>258.0</ele><time>2026-05-02T10:30:37.471Z</time></trkpt><trkpt lat="46.1564152" lon="13.5811852"><ele>258.0</ele><time>2026-05-02T10:30:38.469Z</time></trkpt><trkpt lat="46.1565042" lon="13.5811198"><ele>258.0</ele><time>2026-05-02T10:30:39.47Z</time></trkpt><trkpt lat="46.1565957" lon="13.5810385"><ele>258.0</ele><time>2026-05-02T10:30:40.468Z</time></trkpt><trkpt lat="46.1566878" lon="13.5809432"><ele>258.0</ele><time>2026-05-02T10:30:41.469Z</time></trkpt><trkpt lat="46.1567985" lon="13.5808575"><ele>265.2</ele><time>2026-05-02T10:30:42.468Z</time></trkpt><trkpt lat="46.1569048" lon="13.5807817"><ele>272.4</ele><time>2026-05-02T10:30:43.468Z</time></trkpt><trkpt lat="46.1570043" lon="13.5806918"><ele>279.59999999999997</ele><time>2026-05-02T10:30:44.468Z</time></trkpt><trkpt lat="46.1570908" lon="13.580584"><ele>286.8</ele><time>2026-05-02T10:30:45.468Z</time></trkpt><trkpt lat="46.1571452" lon="13.5804827"><ele>294.0</ele><time>2026-05-02T10:30:46.468Z</time></trkpt><trkpt lat="46.1571272" lon="13.5803287"><ele>294.0</ele><time>2026-05-02T10:30:48.468Z</time></trkpt><trkpt lat="46.1570172" lon="13.5803133"><ele>294.0</ele><time>2026-05-02T10:30:50.471Z</time></trkpt><trkpt lat="46.1569553" lon="13.5803457"><ele>294.0</ele><time>2026-05-02T10:30:51.47Z</time></trkpt><trkpt lat="46.1568603" lon="13.5803937"><ele>294.0</ele><time>2026-05-02T10:30:52.469Z</time></trkpt><trkpt lat="46.1567458" lon="13.5804337"><ele>294.0</ele><time>2026-05-02T10:30:53.469Z</time></trkpt><trkpt lat="46.1566335" lon="13.5804498"><ele>292.3333333333333</ele><time>2026-05-02T10:30:54.47Z</time></trkpt><trkpt lat="46.1565142" lon="13.5804498"><ele>290.66666666666663</ele><time>2026-05-02T10:30:55.469Z</time></trkpt><trkpt lat="46.1563923" lon="13.5804153"><ele>289.0</ele><time>2026-05-02T10:30:56.469Z</time></trkpt><trkpt lat="46.156173" lon="13.5802914"><ele>289.0</ele><time>2026-05-02T10:30:58.469Z</time></trkpt><trkpt lat="46.1561054" lon="13.5802173"><ele>289.0</ele><time>2026-05-02T10:30:59.47Z</time></trkpt><trkpt lat="46.156065" lon="13.580123"><ele>289.0</ele><time>2026-05-02T10:31:00.47Z</time></trkpt><trkpt lat="46.1560478" lon="13.5799899"><ele>289.0</ele><time>2026-05-02T10:31:01.471Z</time></trkpt><trkpt lat="46.1560476" lon="13.5798242"><ele>289.0</ele><time>2026-05-02T10:31:02.47Z</time></trkpt><trkpt lat="46.1560502" lon="13.5796331"><ele>290.0</ele><time>2026-05-02T10:31:03.47Z</time></trkpt><trkpt lat="46.1560451" lon="13.5794244"><ele>291.0</ele><time>2026-05-02T10:31:04.47Z</time></trkpt><trkpt lat="46.156026" lon="13.5792177"><ele>292.0</ele><time>2026-05-02T10:31:05.47Z</time></trkpt><trkpt lat="46.1559978" lon="13.5790344"><ele>293.0</ele><time>2026-05-02T10:31:06.469Z</time></trkpt><trkpt lat="46.1559669" lon="13.5788911"><ele>293.0</ele><time>2026-05-02T10:31:07.468Z</time></trkpt><trkpt lat="46.1559549" lon="13.5787821"><ele>293.0</ele><time>2026-05-02T10:31:08.469Z</time></trkpt><trkpt lat="46.1559744" lon="13.578685"><ele>293.0</ele><time>2026-05-02T10:31:09.469Z</time></trkpt><trkpt lat="46.1560233" lon="13.5785869"><ele>293.0</ele><time>2026-05-02T10:31:10.469Z</time></trkpt><trkpt lat="46.1560982" lon="13.5784727"><ele>293.0</ele><time>2026-05-02T10:31:11.47Z</time></trkpt><trkpt lat="46.1561954" lon="13.5783454"><ele>292.0</ele><time>2026-05-02T10:31:12.471Z</time></trkpt><trkpt lat="46.1563144" lon="13.5782054"><ele>291.0</ele><time>2026-05-02T10:31:13.47Z</time></trkpt><trkpt lat="46.1564447" lon="13.5780539"><ele>290.0</ele><time>2026-05-02T10:31:14.47Z</time></trkpt><trkpt lat="46.1565798" lon="13.5778777"><ele>301.0</ele><time>2026-05-02T10:31:15.47Z</time></trkpt><trkpt lat="46.1567176" lon="13.5777103"><ele>312.0</ele><time>2026-05-02T10:31:16.47Z</time></trkpt><trkpt lat="46.1568524" lon="13.5775524"><ele>323.0</ele><time>2026-05-02T10:31:17.47Z</time></trkpt><trkpt lat="46.1570704" lon="13.5772437"><ele>323.0</ele><time>2026-05-02T10:31:19.469Z</time></trkpt><trkpt lat="46.1571363" lon="13.5771203"><ele>323.0</ele><time>2026-05-02T10:31:20.47Z</time></trkpt><trkpt lat="46.1571616" lon="13.5770141"><ele>323.0</ele><time>2026-05-02T10:31:21.469Z</time></trkpt><trkpt lat="46.1571519" lon="13.5769096"><ele>323.0</ele><time>2026-05-02T10:31:22.469Z</time></trkpt><trkpt lat="46.1571125" lon="13.5768019"><ele>323.0</ele><time>2026-05-02T10:31:23.469Z</time></trkpt><trkpt lat="46.1570474" lon="13.5767097"><ele>323.0</ele><time>2026-05-02T10:31:24.471Z</time></trkpt><trkpt lat="46.1569728" lon="13.5766275"><ele>322.0</ele><time>2026-05-02T10:31:25.472Z</time></trkpt><trkpt lat="46.156879" lon="13.5765733"><ele>321.0</ele><time>2026-05-02T10:31:26.47Z</time></trkpt><trkpt lat="46.1567676" lon="13.576542"><ele>320.0</ele><time>2026-05-02T10:31:27.47Z</time></trkpt><trkpt lat="46.156645" lon="13.5765161"><ele>319.0</ele><time>2026-05-02T10:31:28.47Z</time></trkpt><trkpt lat="46.1565125" lon="13.5765057"><ele>319.0</ele><time>2026-05-02T10:31:29.47Z</time></trkpt><trkpt lat="46.1563811" lon="13.5764872"><ele>319.0</ele><time>2026-05-02T10:31:30.471Z</time></trkpt><trkpt lat="46.1562705" lon="13.5764591"><ele>319.0</ele><time>2026-05-02T10:31:31.469Z</time></trkpt><trkpt lat="46.1561859" lon="13.5764188"><ele>319.0</ele><time>2026-05-02T10:31:32.469Z</time></trkpt><trkpt lat="46.1561398" lon="13.576352"><ele>319.0</ele><time>2026-05-02T10:31:33.47Z</time></trkpt><trkpt lat="46.1561206" lon="13.5762551"><ele>322.6</ele><time>2026-05-02T10:31:34.469Z</time></trkpt><trkpt lat="46.1561211" lon="13.5761398"><ele>326.2</ele><time>2026-05-02T10:31:35.469Z</time></trkpt><trkpt lat="46.1561321" lon="13.5760103"><ele>329.8</ele><time>2026-05-02T10:31:36.47Z</time></trkpt><trkpt lat="46.1561509" lon="13.5758539"><ele>333.40000000000003</ele><time>2026-05-02T10:31:37.47Z</time></trkpt><trkpt lat="46.156156" lon="13.5756943"><ele>337.0</ele><time>2026-05-02T10:31:38.469Z</time></trkpt><trkpt lat="46.1560929" lon="13.5754536"><ele>337.0</ele><time>2026-05-02T10:31:40.471Z</time></trkpt><trkpt lat="46.1560271" lon="13.5753883"><ele>337.0</ele><time>2026-05-02T10:31:41.47Z</time></trkpt><trkpt lat="46.1559505" lon="13.5753622"><ele>337.0</ele><time>2026-05-02T10:31:42.472Z</time></trkpt><trkpt lat="46.1558687" lon="13.5753598"><ele>337.0</ele><time>2026-05-02T10:31:43.469Z</time></trkpt><trkpt lat="46.1557838" lon="13.575332"><ele>337.0</ele><time>2026-05-02T10:31:44.469Z</time></trkpt><trkpt lat="46.1557019" lon="13.5752609"><ele>337.0</ele><time>2026-05-02T10:31:45.471Z</time></trkpt><trkpt lat="46.1556244" lon="13.5751611"><ele>336.40000000000003</ele><time>2026-05-02T10:31:46.469Z</time></trkpt><trkpt lat="46.1555529" lon="13.5750334"><ele>335.8</ele><time>2026-05-02T10:31:47.469Z</time></trkpt><trkpt lat="46.1555011" lon="13.5748968"><ele>335.2</ele><time>2026-05-02T10:31:48.471Z</time></trkpt><trkpt lat="46.1554781" lon="13.5747682"><ele>334.6</ele><time>2026-05-02T10:31:49.471Z</time></trkpt><trkpt lat="46.155483" lon="13.5746308"><ele>334.0</ele><time>2026-05-02T10:31:50.47Z</time></trkpt><trkpt lat="46.1555111" lon="13.5744635"><ele>334.0</ele><time>2026-05-02T10:31:51.471Z</time></trkpt><trkpt lat="46.155555" lon="13.5742757"><ele>334.0</ele><time>2026-05-02T10:31:52.47Z</time></trkpt><trkpt lat="46.1556061" lon="13.5740762"><ele>334.0</ele><time>2026-05-02T10:31:53.469Z</time></trkpt><trkpt lat="46.1556614" lon="13.5738638"><ele>334.0</ele><time>2026-05-02T10:31:54.469Z</time></trkpt><trkpt lat="46.1557262" lon="13.573653"><ele>348.3333333333333</ele><time>2026-05-02T10:31:55.471Z</time></trkpt><trkpt lat="46.1557838" lon="13.5734379"><ele>362.6666666666667</ele><time>2026-05-02T10:31:56.466Z</time></trkpt><trkpt lat="46.155841" lon="13.57321"><ele>377.0</ele><time>2026-05-02T10:31:57.469Z</time></trkpt><trkpt lat="46.1558928" lon="13.5729746"><ele>375.5</ele><time>2026-05-02T10:31:58.467Z</time></trkpt><trkpt lat="46.155947" lon="13.5727492"><ele>374.0</ele><time>2026-05-02T10:31:59.466Z</time></trkpt><trkpt lat="46.1560333" lon="13.5723242"><ele>374.0</ele><time>2026-05-02T10:32:01.47Z</time></trkpt><trkpt lat="46.156052" lon="13.5721476"><ele>374.0</ele><time>2026-05-02T10:32:02.469Z</time></trkpt><trkpt lat="46.1560508" lon="13.5720056"><ele>374.0</ele><time>2026-05-02T10:32:03.469Z</time></trkpt><trkpt lat="46.1560186" lon="13.5719095"><ele>374.0</ele><time>2026-05-02T10:32:04.469Z</time></trkpt><trkpt lat="46.155954" lon="13.5718478"><ele>374.0</ele><time>2026-05-02T10:32:05.469Z</time></trkpt><trkpt lat="46.1558619" lon="13.5718142"><ele>375.1666666666667</ele><time>2026-05-02T10:32:06.469Z</time></trkpt><trkpt lat="46.1557602" lon="13.5717973"><ele>376.33333333333337</ele><time>2026-05-02T10:32:07.47Z</time></trkpt><trkpt lat="46.1556638" lon="13.5717964"><ele>377.5</ele><time>2026-05-02T10:32:08.47Z</time></trkpt><trkpt lat="46.155598" lon="13.571782"><ele>378.6666666666667</ele><time>2026-05-02T10:32:09.471Z</time></trkpt><trkpt lat="46.1555806" lon="13.5716914"><ele>379.8333333333333</ele><time>2026-05-02T10:32:11.47Z</time></trkpt><trkpt lat="46.1556931" lon="13.5716528"><ele>381.0</ele><time>2026-05-02T10:32:13.471Z</time></trkpt><trkpt lat="46.1557919" lon="13.5716484"><ele>384.8</ele><time>2026-05-02T10:32:14.47Z</time></trkpt><trkpt lat="46.1559037" lon="13.5716406"><ele>388.6</ele><time>2026-05-02T10:32:15.47Z</time></trkpt><trkpt lat="46.1560127" lon="13.5716457"><ele>392.4</ele><time>2026-05-02T10:32:16.47Z</time></trkpt><trkpt lat="46.156094" lon="13.5716797"><ele>396.2</ele><time>2026-05-02T10:32:17.468Z</time></trkpt><trkpt lat="46.15616" lon="13.5717582"><ele>400.0</ele><time>2026-05-02T10:32:18.472Z</time></trkpt><trkpt lat="46.1562126" lon="13.5718881"><ele>394.8</ele><time>2026-05-02T10:32:19.47Z</time></trkpt><trkpt lat="46.1562503" lon="13.5720467"><ele>389.6</ele><time>2026-05-02T10:32:20.469Z</time></trkpt><trkpt lat="46.156296" lon="13.5723187"><ele>384.4</ele><time>2026-05-02T10:32:22.469Z</time></trkpt><trkpt lat="46.1563233" lon="13.5724054"><ele>379.2</ele><time>2026-05-02T10:32:23.468Z</time></trkpt><trkpt lat="46.1563938" lon="13.5724259"><ele>374.0</ele><time>2026-05-02T10:32:25.469Z</time></trkpt><trkpt lat="46.1564154" lon="13.5722927"><ele>374.0</ele><time>2026-05-02T10:32:27.475Z</time></trkpt><trkpt lat="46.1564053" lon="13.5721864"><ele>374.0</ele><time>2026-05-02T10:32:28.469Z</time></trkpt><trkpt lat="46.1563957" lon="13.5720539"><ele>374.0</ele><time>2026-05-02T10:32:29.469Z</time></trkpt><trkpt lat="46.1563825" lon="13.5719001"><ele>374.0</ele><time>2026-05-02T10:32:30.469Z</time></trkpt><trkpt lat="46.1563622" lon="13.5717264"><ele>374.0</ele><time>2026-05-02T10:32:31.47Z</time></trkpt><trkpt lat="46.1563369" lon="13.5715519"><ele>379.2</ele><time>2026-05-02T10:32:32.469Z</time></trkpt><trkpt lat="46.1563108" lon="13.5714042"><ele>384.4</ele><time>2026-05-02T10:32:33.469Z</time></trkpt><trkpt lat="46.156277" lon="13.5712861"><ele>389.6</ele><time>2026-05-02T10:32:34.469Z</time></trkpt><trkpt lat="46.156216" lon="13.5712122"><ele>394.8</ele><time>2026-05-02T10:32:35.47Z</time></trkpt><trkpt lat="46.1561285" lon="13.5711733"><ele>400.0</ele><time>2026-05-02T10:32:36.47Z</time></trkpt><trkpt lat="46.1560128" lon="13.5711535"><ele>404.0</ele><time>2026-05-02T10:32:37.47Z</time></trkpt><trkpt lat="46.1558966" lon="13.5711382"><ele>408.0</ele><time>2026-05-02T10:32:38.472Z</time></trkpt><trkpt lat="46.1557936" lon="13.5711134"><ele>412.0</ele><time>2026-05-02T10:32:39.472Z</time></trkpt><trkpt lat="46.1556978" lon="13.571071"><ele>416.0</ele><time>2026-05-02T10:32:40.472Z</time></trkpt><trkpt lat="46.1556042" lon="13.5710021"><ele>420.0</ele><time>2026-05-02T10:32:41.472Z</time></trkpt><trkpt lat="46.1553872" lon="13.5708912"><ele>420.0</ele><time>2026-05-02T10:32:43.471Z</time></trkpt><trkpt lat="46.1552627" lon="13.5708611"><ele>420.0</ele><time>2026-05-02T10:32:44.471Z</time></trkpt><trkpt lat="46.1551387" lon="13.5708271"><ele>420.0</ele><time>2026-05-02T10:32:45.471Z</time></trkpt><trkpt lat="46.1550168" lon="13.5707708"><ele>420.0</ele><time>2026-05-02T10:32:46.473Z</time></trkpt><trkpt lat="46.154904" lon="13.5706857"><ele>420.0</ele><time>2026-05-02T10:32:47.469Z</time></trkpt><trkpt lat="46.15481" lon="13.5706033"><ele>420.0</ele><time>2026-05-02T10:32:48.471Z</time></trkpt><trkpt lat="46.1547497" lon="13.5705267"><ele>420.0</ele><time>2026-05-02T10:32:49.475Z</time></trkpt><trkpt lat="46.1547535" lon="13.5704035"><ele>420.0</ele><time>2026-05-02T10:32:51.471Z</time></trkpt><trkpt lat="46.1548435" lon="13.570433"><ele>420.0</ele><time>2026-05-02T10:32:53.472Z</time></trkpt><trkpt lat="46.1549018" lon="13.570497"><ele>420.0</ele><time>2026-05-02T10:32:54.472Z</time></trkpt><trkpt lat="46.15498" lon="13.5705582"><ele>420.0</ele><time>2026-05-02T10:32:55.472Z</time></trkpt><trkpt lat="46.1550762" lon="13.5705988"><ele>420.0</ele><time>2026-05-02T10:32:56.473Z</time></trkpt><trkpt lat="46.1551863" lon="13.5706107"><ele>420.0</ele><time>2026-05-02T10:32:57.473Z</time></trkpt><trkpt lat="46.1553027" lon="13.5705873"><ele>420.0</ele><time>2026-05-02T10:32:58.471Z</time></trkpt><trkpt lat="46.1554263" lon="13.5705422"><ele>420.0</ele><time>2026-05-02T10:32:59.473Z</time></trkpt><trkpt lat="46.1555592" lon="13.570515"><ele>420.0</ele><time>2026-05-02T10:33:00.471Z</time></trkpt><trkpt lat="46.1557008" lon="13.5705142"><ele>420.0</ele><time>2026-05-02T10:33:01.472Z</time></trkpt><trkpt lat="46.1558493" lon="13.5705262"><ele>420.0</ele><time>2026-05-02T10:33:02.472Z</time></trkpt><trkpt lat="46.1561257" lon="13.570547"><ele>422.1666666666667</ele><time>2026-05-02T10:33:04.471Z</time></trkpt><trkpt lat="46.1562212" lon="13.570578"><ele>424.33333333333337</ele><time>2026-05-02T10:33:05.472Z</time></trkpt><trkpt lat="46.1562905" lon="13.5705888"><ele>426.5</ele><time>2026-05-02T10:33:06.472Z</time></trkpt><trkpt lat="46.1563405" lon="13.5705008"><ele>428.6666666666667</ele><time>2026-05-02T10:33:08.471Z</time></trkpt><trkpt lat="46.1562705" lon="13.5704227"><ele>430.83333333333337</ele><time>2026-05-02T10:33:10.469Z</time></trkpt><trkpt lat="46.1561882" lon="13.5704232"><ele>433.0</ele><time>2026-05-02T10:33:11.47Z</time></trkpt><trkpt lat="46.1560822" lon="13.5704072"><ele>433.0</ele><time>2026-05-02T10:33:12.468Z</time></trkpt><trkpt lat="46.15596" lon="13.5703652"><ele>433.0</ele><time>2026-05-02T10:33:13.472Z</time></trkpt><trkpt lat="46.1558252" lon="13.5703068"><ele>433.0</ele><time>2026-05-02T10:33:14.47Z</time></trkpt><trkpt lat="46.1556885" lon="13.5702465"><ele>433.0</ele><time>2026-05-02T10:33:15.471Z</time></trkpt><trkpt lat="46.1555653" lon="13.5701998"><ele>434.59999999999997</ele><time>2026-05-02T10:33:16.469Z</time></trkpt><trkpt lat="46.1554615" lon="13.5701517"><ele>436.19999999999993</ele><time>2026-05-02T10:33:17.471Z</time></trkpt><trkpt lat="46.1553812" lon="13.5700965"><ele>437.8</ele><time>2026-05-02T10:33:18.47Z</time></trkpt><trkpt lat="46.1553373" lon="13.5699773"><ele>439.4</ele><time>2026-05-02T10:33:20.471Z</time></trkpt><trkpt lat="46.155378" lon="13.5698173"><ele>441.0</ele><time>2026-05-02T10:33:22.47Z</time></trkpt><trkpt lat="46.155417" lon="13.5697128"><ele>446.25</ele><time>2026-05-02T10:33:23.47Z</time></trkpt><trkpt lat="46.155515" lon="13.5695182"><ele>451.5</ele><time>2026-05-02T10:33:25.47Z</time></trkpt><trkpt lat="46.155583" lon="13.5694193"><ele>456.75</ele><time>2026-05-02T10:33:26.47Z</time></trkpt><trkpt lat="46.1556638" lon="13.5693045"><ele>462.0</ele><time>2026-05-02T10:33:27.472Z</time></trkpt><trkpt lat="46.1557538" lon="13.5691715"><ele>462.0</ele><time>2026-05-02T10:33:28.471Z</time></trkpt><trkpt lat="46.1558468" lon="13.5690228"><ele>462.0</ele><time>2026-05-02T10:33:29.471Z</time></trkpt><trkpt lat="46.1559328" lon="13.56888"><ele>462.0</ele><time>2026-05-02T10:33:30.474Z</time></trkpt><trkpt lat="46.1560082" lon="13.5687625"><ele>462.0</ele><time>2026-05-02T10:33:31.471Z</time></trkpt><trkpt lat="46.156077" lon="13.5686647"><ele>457.6</ele><time>2026-05-02T10:33:32.471Z</time></trkpt><trkpt lat="46.1561452" lon="13.568565"><ele>453.20000000000005</ele><time>2026-05-02T10:33:33.471Z</time></trkpt><trkpt lat="46.1562132" lon="13.5684508"><ele>448.8</ele><time>2026-05-02T10:33:34.469Z</time></trkpt><trkpt lat="46.156282" lon="13.5683335"><ele>444.4</ele><time>2026-05-02T10:33:35.47Z</time></trkpt><trkpt lat="46.1563408" lon="13.5682197"><ele>440.0</ele><time>2026-05-02T10:33:36.469Z</time></trkpt><trkpt lat="46.156386" lon="13.5681162"><ele>439.99999999999994</ele><time>2026-05-02T10:33:37.469Z</time></trkpt><trkpt lat="46.1564242" lon="13.5680265"><ele>440.0</ele><time>2026-05-02T10:33:38.47Z</time></trkpt><trkpt lat="46.1564705" lon="13.5679372"><ele>440.0</ele><time>2026-05-02T10:33:39.47Z</time></trkpt><trkpt lat="46.1565225" lon="13.5678512"><ele>440.0</ele><time>2026-05-02T10:33:40.469Z</time></trkpt><trkpt lat="46.1565805" lon="13.567758"><ele>439.99999999999994</ele><time>2026-05-02T10:33:41.469Z</time></trkpt><trkpt lat="46.1566417" lon="13.5676665"><ele>440.0</ele><time>2026-05-02T10:33:42.47Z</time></trkpt><trkpt lat="46.156698" lon="13.5675745"><ele>443.5</ele><time>2026-05-02T10:33:43.469Z</time></trkpt><trkpt lat="46.1567543" lon="13.5674683"><ele>447.0</ele><time>2026-05-02T10:33:44.468Z</time></trkpt><trkpt lat="46.1568777" lon="13.567232"><ele>450.5</ele><time>2026-05-02T10:33:46.469Z</time></trkpt><trkpt lat="46.1569433" lon="13.5671232"><ele>454.0</ele><time>2026-05-02T10:33:47.469Z</time></trkpt><trkpt lat="46.1570122" lon="13.567027"><ele>454.00000000000006</ele><time>2026-05-02T10:33:48.469Z</time></trkpt><trkpt lat="46.1570792" lon="13.5669422"><ele>454.0</ele><time>2026-05-02T10:33:49.469Z</time></trkpt><trkpt lat="46.157136" lon="13.5668757"><ele>454.0</ele><time>2026-05-02T10:33:50.469Z</time></trkpt><trkpt lat="46.1572057" lon="13.5667518"><ele>454.0</ele><time>2026-05-02T10:33:52.47Z</time></trkpt><trkpt lat="46.1572202" lon="13.5666618"><ele>454.00000000000006</ele><time>2026-05-02T10:33:53.469Z</time></trkpt><trkpt lat="46.1572293" lon="13.566555"><ele>454.0</ele><time>2026-05-02T10:33:54.47Z</time></trkpt><trkpt lat="46.1572398" lon="13.5664377"><ele>454.00000000000006</ele><time>2026-05-02T10:33:55.469Z</time></trkpt><trkpt lat="46.1572583" lon="13.5663183"><ele>454.0</ele><time>2026-05-02T10:33:56.47Z</time></trkpt><trkpt lat="46.1572897" lon="13.5662133"><ele>454.0</ele><time>2026-05-02T10:33:57.469Z</time></trkpt><trkpt lat="46.1573253" lon="13.566121"><ele>454.0</ele><time>2026-05-02T10:33:58.468Z</time></trkpt><trkpt lat="46.1573657" lon="13.5659963"><ele>454.00000000000006</ele><time>2026-05-02T10:34:00.468Z</time></trkpt><trkpt lat="46.1573107" lon="13.5659392"><ele>454.0</ele><time>2026-05-02T10:34:02.469Z</time></trkpt><trkpt lat="46.1572143" lon="13.5659208"><ele>457.79999999999995</ele><time>2026-05-02T10:34:04.469Z</time></trkpt><trkpt lat="46.1571652" lon="13.5658318"><ele>461.59999999999997</ele><time>2026-05-02T10:34:06.47Z</time></trkpt><trkpt lat="46.1571155" lon="13.5656587"><ele>465.4</ele><time>2026-05-02T10:34:08.469Z</time></trkpt><trkpt lat="46.1570058" lon="13.5655608"><ele>469.2</ele><time>2026-05-02T10:34:10.469Z</time></trkpt><trkpt lat="46.1569348" lon="13.565514"><ele>473.0</ele><time>2026-05-02T10:34:11.469Z</time></trkpt><trkpt lat="46.1568615" lon="13.5654543"><ele>472.99999999999994</ele><time>2026-05-02T10:34:12.469Z</time></trkpt><trkpt lat="46.1567935" lon="13.5653902"><ele>473.0</ele><time>2026-05-02T10:34:13.469Z</time></trkpt><trkpt lat="46.1567295" lon="13.5653512"><ele>473.0</ele><time>2026-05-02T10:34:14.469Z</time></trkpt><trkpt lat="46.1566035" lon="13.5653715"><ele>473.0</ele><time>2026-05-02T10:34:16.47Z</time></trkpt><trkpt lat="46.1565287" lon="13.5653968"><ele>472.99999999999994</ele><time>2026-05-02T10:34:17.47Z</time></trkpt><trkpt lat="46.1564543" lon="13.5654042"><ele>473.0</ele><time>2026-05-02T10:34:18.469Z</time></trkpt><trkpt lat="46.1563397" lon="13.5653648"><ele>472.99999999999994</ele><time>2026-05-02T10:34:20.47Z</time></trkpt><trkpt lat="46.1562408" lon="13.565255"><ele>473.0</ele><time>2026-05-02T10:34:22.469Z</time></trkpt><trkpt lat="46.1561788" lon="13.565202"><ele>473.0</ele><time>2026-05-02T10:34:23.467Z</time></trkpt><trkpt lat="46.1561095" lon="13.565145"><ele>473.0</ele><time>2026-05-02T10:34:24.468Z</time></trkpt><trkpt lat="46.1560357" lon="13.5650927"><ele>472.99999999999994</ele><time>2026-05-02T10:34:25.468Z</time></trkpt><trkpt lat="46.155961" lon="13.5650375"><ele>473.0</ele><time>2026-05-02T10:34:26.467Z</time></trkpt><trkpt lat="46.1558885" lon="13.5649665"><ele>473.0</ele><time>2026-05-02T10:34:27.469Z</time></trkpt><trkpt lat="46.155759" lon="13.5648387"><ele>472.99999999999994</ele><time>2026-05-02T10:34:29.469Z</time></trkpt><trkpt lat="46.1557243" lon="13.5647558"><ele>472.99999999999994</ele><time>2026-05-02T10:34:30.47Z</time></trkpt><trkpt lat="46.1556985" lon="13.5646653"><ele>473.0</ele><time>2026-05-02T10:34:31.469Z</time></trkpt><trkpt lat="46.1556863" lon="13.5645417"><ele>473.0</ele><time>2026-05-02T10:34:32.469Z</time></trkpt><trkpt lat="46.1556847" lon="13.5644163"><ele>473.0</ele><time>2026-05-02T10:34:33.47Z</time></trkpt><trkpt lat="46.1556922" lon="13.564282"><ele>472.99999999999994</ele><time>2026-05-02T10:34:34.469Z</time></trkpt><trkpt lat="46.1557022" lon="13.564139"><ele>472.99999999999994</ele><time>2026-05-02T10:34:35.469Z</time></trkpt><trkpt lat="46.1557137" lon="13.5639772"><ele>473.0</ele><time>2026-05-02T10:34:36.469Z</time></trkpt><trkpt lat="46.155721" lon="13.5638035"><ele>473.0</ele><time>2026-05-02T10:34:37.469Z</time></trkpt><trkpt lat="46.1557145" lon="13.5636535"><ele>472.99999999999994</ele><time>2026-05-02T10:34:38.469Z</time></trkpt><trkpt lat="46.1557073" lon="13.563517"><ele>473.0</ele><time>2026-05-02T10:34:39.469Z</time></trkpt><trkpt lat="46.1557067" lon="13.5633958"><ele>473.0</ele><time>2026-05-02T10:34:40.469Z</time></trkpt><trkpt lat="46.155718" lon="13.5632827"><ele>473.0</ele><time>2026-05-02T10:34:41.469Z</time></trkpt><trkpt lat="46.1557348" lon="13.563157"><ele>472.99999999999994</ele><time>2026-05-02T10:34:42.469Z</time></trkpt><trkpt lat="46.1557622" lon="13.56303"><ele>473.0</ele><time>2026-05-02T10:34:43.468Z</time></trkpt><trkpt lat="46.1557648" lon="13.5629167"><ele>473.0</ele><time>2026-05-02T10:34:44.469Z</time></trkpt><trkpt lat="46.1557355" lon="13.5627953"><ele>472.99999999999994</ele><time>2026-05-02T10:34:45.468Z</time></trkpt><trkpt lat="46.1556937" lon="13.5626803"><ele>472.99999999999994</ele><time>2026-05-02T10:34:46.468Z</time></trkpt><trkpt lat="46.1556558" lon="13.5625567"><ele>473.0</ele><time>2026-05-02T10:34:47.468Z</time></trkpt><trkpt lat="46.1556232" lon="13.5624378"><ele>473.0</ele><time>2026-05-02T10:34:48.467Z</time></trkpt><trkpt lat="46.1555892" lon="13.5622057"><ele>478.99999999999994</ele><time>2026-05-02T10:34:50.468Z</time></trkpt><trkpt lat="46.1555847" lon="13.5620782"><ele>485.0</ele><time>2026-05-02T10:34:51.468Z</time></trkpt><trkpt lat="46.1555703" lon="13.5619442"><ele>491.0</ele><time>2026-05-02T10:34:52.469Z</time></trkpt><trkpt lat="46.1555458" lon="13.5618055"><ele>497.0</ele><time>2026-05-02T10:34:53.469Z</time></trkpt><trkpt lat="46.1555192" lon="13.5616902"><ele>502.99999999999994</ele><time>2026-05-02T10:34:54.469Z</time></trkpt><trkpt lat="46.1555165" lon="13.5615927"><ele>509.0</ele><time>2026-05-02T10:34:55.468Z</time></trkpt><trkpt lat="46.1555182" lon="13.5614867"><ele>509.0</ele><time>2026-05-02T10:34:56.468Z</time></trkpt><trkpt lat="46.15549" lon="13.5613392"><ele>509.0</ele><time>2026-05-02T10:34:58.469Z</time></trkpt><trkpt lat="46.1554098" lon="13.5612785"><ele>509.0</ele><time>2026-05-02T10:35:00.469Z</time></trkpt><trkpt lat="46.155332" lon="13.5613343"><ele>509.0</ele><time>2026-05-02T10:35:03.469Z</time></trkpt><trkpt lat="46.1552627" lon="13.5614407"><ele>509.0</ele><time>2026-05-02T10:35:05.47Z</time></trkpt><trkpt lat="46.1551737" lon="13.561564"><ele>509.0</ele><time>2026-05-02T10:35:07.47Z</time></trkpt><trkpt lat="46.1550818" lon="13.5616558"><ele>509.0</ele><time>2026-05-02T10:35:09.47Z</time></trkpt><trkpt lat="46.1548635" lon="13.5617465"><ele>509.0</ele><time>2026-05-02T10:35:13.468Z</time></trkpt><trkpt lat="46.1547415" lon="13.5618095"><ele>509.8333333333333</ele><time>2026-05-02T10:35:15.468Z</time></trkpt><trkpt lat="46.1546798" lon="13.5618543"><ele>510.66666666666663</ele><time>2026-05-02T10:35:16.47Z</time></trkpt><trkpt lat="46.154604" lon="13.5619087"><ele>511.5</ele><time>2026-05-02T10:35:17.47Z</time></trkpt><trkpt lat="46.1545237" lon="13.5619643"><ele>512.3333333333334</ele><time>2026-05-02T10:35:18.469Z</time></trkpt><trkpt lat="46.1544497" lon="13.562019"><ele>513.1666666666667</ele><time>2026-05-02T10:35:19.469Z</time></trkpt><trkpt lat="46.1543715" lon="13.5620737"><ele>514.0</ele><time>2026-05-02T10:35:20.469Z</time></trkpt><trkpt lat="46.1543112" lon="13.5621197"><ele>509.2857142857143</ele><time>2026-05-02T10:35:21.47Z</time></trkpt><trkpt lat="46.1542383" lon="13.5621797"><ele>504.57142857142856</ele><time>2026-05-02T10:35:22.469Z</time></trkpt><trkpt lat="46.1541737" lon="13.5622428"><ele>499.85714285714283</ele><time>2026-05-02T10:35:23.469Z</time></trkpt><trkpt lat="46.1541147" lon="13.562295"><ele>495.1428571428571</ele><time>2026-05-02T10:35:24.469Z</time></trkpt><trkpt lat="46.1540628" lon="13.5623473"><ele>490.42857142857144</ele><time>2026-05-02T10:35:25.469Z</time></trkpt><trkpt lat="46.1539983" lon="13.5624165"><ele>485.71428571428567</ele><time>2026-05-02T10:35:26.469Z</time></trkpt><trkpt lat="46.1539362" lon="13.5624525"><ele>480.99999999999994</ele><time>2026-05-02T10:35:27.47Z</time></trkpt><trkpt lat="46.1538683" lon="13.5625085"><ele>481.0</ele><time>2026-05-02T10:35:28.469Z</time></trkpt><trkpt lat="46.1538022" lon="13.5625563"><ele>481.0</ele><time>2026-05-02T10:35:29.469Z</time></trkpt><trkpt lat="46.1537043" lon="13.5626163"><ele>481.0</ele><time>2026-05-02T10:35:31.47Z</time></trkpt><trkpt lat="46.153496" lon="13.5626323"><ele>481.0</ele><time>2026-05-02T10:35:34.469Z</time></trkpt><trkpt lat="46.1533935" lon="13.5626472"><ele>481.0</ele><time>2026-05-02T10:35:35.471Z</time></trkpt><trkpt lat="46.1532935" lon="13.5626523"><ele>481.0</ele><time>2026-05-02T10:35:36.469Z</time></trkpt><trkpt lat="46.1531972" lon="13.5626503"><ele>481.0</ele><time>2026-05-02T10:35:37.47Z</time></trkpt><trkpt lat="46.1531035" lon="13.5626358"><ele>481.0</ele><time>2026-05-02T10:35:38.469Z</time></trkpt><trkpt lat="46.15302" lon="13.5626213"><ele>481.0</ele><time>2026-05-02T10:35:39.469Z</time></trkpt><trkpt lat="46.152939" lon="13.5625832"><ele>481.0</ele><time>2026-05-02T10:35:40.469Z</time></trkpt><trkpt lat="46.1528573" lon="13.5625092"><ele>481.0</ele><time>2026-05-02T10:35:41.471Z</time></trkpt><trkpt lat="46.1527625" lon="13.5624223"><ele>481.0</ele><time>2026-05-02T10:35:42.47Z</time></trkpt><trkpt lat="46.1526675" lon="13.5623267"><ele>481.0</ele><time>2026-05-02T10:35:43.47Z</time></trkpt><trkpt lat="46.152585" lon="13.5622312"><ele>481.0</ele><time>2026-05-02T10:35:44.471Z</time></trkpt><trkpt lat="46.1525192" lon="13.5621422"><ele>443.40000000000003</ele><time>2026-05-02T10:35:45.47Z</time></trkpt><trkpt lat="46.1524712" lon="13.5620498"><ele>405.8</ele><time>2026-05-02T10:35:46.47Z</time></trkpt><trkpt lat="46.1524263" lon="13.5619452"><ele>368.20000000000005</ele><time>2026-05-02T10:35:47.469Z</time></trkpt><trkpt lat="46.1523812" lon="13.56182"><ele>330.6</ele><time>2026-05-02T10:35:48.469Z</time></trkpt><trkpt lat="46.1523415" lon="13.5616692"><ele>293.0</ele><time>2026-05-02T10:35:49.47Z</time></trkpt><trkpt lat="46.1523008" lon="13.5615138"><ele>290.0</ele><time>2026-05-02T10:35:50.469Z</time></trkpt><trkpt lat="46.1522632" lon="13.5613683"><ele>287.0</ele><time>2026-05-02T10:35:51.47Z</time></trkpt><trkpt lat="46.1522335" lon="13.5612423"><ele>284.0</ele><time>2026-05-02T10:35:52.469Z</time></trkpt><trkpt lat="46.152186" lon="13.5610093"><ele>281.0</ele><time>2026-05-02T10:35:54.469Z</time></trkpt><trkpt lat="46.1521672" lon="13.5609"><ele>278.0</ele><time>2026-05-02T10:35:55.469Z</time></trkpt><trkpt lat="46.1521587" lon="13.5607985"><ele>288.2</ele><time>2026-05-02T10:35:56.468Z</time></trkpt><trkpt lat="46.1521525" lon="13.5606877"><ele>298.4</ele><time>2026-05-02T10:35:57.47Z</time></trkpt><trkpt lat="46.1521512" lon="13.5605562"><ele>308.59999999999997</ele><time>2026-05-02T10:35:58.467Z</time></trkpt><trkpt lat="46.152134" lon="13.5604228"><ele>318.8</ele><time>2026-05-02T10:35:59.467Z</time></trkpt><trkpt lat="46.152116" lon="13.5602803"><ele>329.0</ele><time>2026-05-02T10:36:00.468Z</time></trkpt><trkpt lat="46.1520997" lon="13.5601367"><ele>337.4</ele><time>2026-05-02T10:36:01.466Z</time></trkpt><trkpt lat="46.1520818" lon="13.5599957"><ele>345.79999999999995</ele><time>2026-05-02T10:36:02.466Z</time></trkpt><trkpt lat="46.1520635" lon="13.5598638"><ele>354.20000000000005</ele><time>2026-05-02T10:36:03.466Z</time></trkpt><trkpt lat="46.152047" lon="13.5597453"><ele>362.6</ele><time>2026-05-02T10:36:04.466Z</time></trkpt><trkpt lat="46.1520358" lon="13.5596323"><ele>371.0</ele><time>2026-05-02T10:36:05.467Z</time></trkpt><trkpt lat="46.1520408" lon="13.5594935"><ele>381.8</ele><time>2026-05-02T10:36:06.469Z</time></trkpt><trkpt lat="46.152042" lon="13.5593583"><ele>392.6</ele><time>2026-05-02T10:36:07.469Z</time></trkpt><trkpt lat="46.1520538" lon="13.5592357"><ele>403.4</ele><time>2026-05-02T10:36:08.469Z</time></trkpt><trkpt lat="46.152072" lon="13.5591235"><ele>414.2</ele><time>2026-05-02T10:36:09.469Z</time></trkpt><trkpt lat="46.1521083" lon="13.5589905"><ele>425.0</ele><time>2026-05-02T10:36:10.468Z</time></trkpt><trkpt lat="46.1521533" lon="13.5588478"><ele>421.3333333333333</ele><time>2026-05-02T10:36:11.469Z</time></trkpt><trkpt lat="46.1522015" lon="13.558692"><ele>417.66666666666663</ele><time>2026-05-02T10:36:12.469Z</time></trkpt><trkpt lat="46.1522458" lon="13.5585358"><ele>414.0</ele><time>2026-05-02T10:36:13.468Z</time></trkpt><trkpt lat="46.1523292" lon="13.5582428"><ele>414.0</ele><time>2026-05-02T10:36:15.469Z</time></trkpt><trkpt lat="46.1523578" lon="13.5581368"><ele>414.0</ele><time>2026-05-02T10:36:16.469Z</time></trkpt><trkpt lat="46.1523688" lon="13.5580468"><ele>414.0</ele><time>2026-05-02T10:36:17.469Z</time></trkpt><trkpt lat="46.152343" lon="13.5578793"><ele>414.0</ele><time>2026-05-02T10:36:19.469Z</time></trkpt><trkpt lat="46.1522957" lon="13.5577818"><ele>414.0</ele><time>2026-05-02T10:36:20.468Z</time></trkpt><trkpt lat="46.1522382" lon="13.5576772"><ele>414.0</ele><time>2026-05-02T10:36:21.469Z</time></trkpt><trkpt lat="46.152178" lon="13.5575703"><ele>419.6666666666667</ele><time>2026-05-02T10:36:22.469Z</time></trkpt><trkpt lat="46.1521147" lon="13.5574655"><ele>425.33333333333337</ele><time>2026-05-02T10:36:23.469Z</time></trkpt><trkpt lat="46.1520545" lon="13.5573688"><ele>431.0</ele><time>2026-05-02T10:36:24.469Z</time></trkpt><trkpt lat="46.1519987" lon="13.5572685"><ele>436.6666666666667</ele><time>2026-05-02T10:36:25.468Z</time></trkpt><trkpt lat="46.1519483" lon="13.5571657"><ele>442.33333333333337</ele><time>2026-05-02T10:36:26.466Z</time></trkpt><trkpt lat="46.1519042" lon="13.5570645"><ele>448.0</ele><time>2026-05-02T10:36:27.468Z</time></trkpt><trkpt lat="46.1518657" lon="13.5569645"><ele>448.0</ele><time>2026-05-02T10:36:28.467Z</time></trkpt><trkpt lat="46.1518398" lon="13.5568515"><ele>447.99999999999994</ele><time>2026-05-02T10:36:29.467Z</time></trkpt><trkpt lat="46.151824" lon="13.5567158"><ele>447.99999999999994</ele><time>2026-05-02T10:36:30.469Z</time></trkpt><trkpt lat="46.1518067" lon="13.5565835"><ele>448.0</ele><time>2026-05-02T10:36:31.47Z</time></trkpt><trkpt lat="46.1517807" lon="13.556443"><ele>448.0</ele><time>2026-05-02T10:36:32.468Z</time></trkpt><trkpt lat="46.1517513" lon="13.5563102"><ele>445.4</ele><time>2026-05-02T10:36:33.469Z</time></trkpt><trkpt lat="46.1517292" lon="13.5561863"><ele>442.79999999999995</ele><time>2026-05-02T10:36:34.468Z</time></trkpt><trkpt lat="46.1517032" lon="13.5559497"><ele>440.2</ele><time>2026-05-02T10:36:36.469Z</time></trkpt><trkpt lat="46.1517068" lon="13.5558478"><ele>437.6</ele><time>2026-05-02T10:36:37.469Z</time></trkpt><trkpt lat="46.151723" lon="13.5557377"><ele>435.0</ele><time>2026-05-02T10:36:38.469Z</time></trkpt><trkpt lat="46.1517497" lon="13.5556337"><ele>435.0</ele><time>2026-05-02T10:36:39.47Z</time></trkpt><trkpt lat="46.1517953" lon="13.5555322"><ele>435.0</ele><time>2026-05-02T10:36:40.469Z</time></trkpt><trkpt lat="46.1518625" lon="13.5554322"><ele>435.0</ele><time>2026-05-02T10:36:41.469Z</time></trkpt><trkpt lat="46.1519273" lon="13.5553252"><ele>435.0</ele><time>2026-05-02T10:36:42.469Z</time></trkpt><trkpt lat="46.1519782" lon="13.5551987"><ele>435.0</ele><time>2026-05-02T10:36:43.469Z</time></trkpt><trkpt lat="46.1520283" lon="13.5550515"><ele>433.5</ele><time>2026-05-02T10:36:44.469Z</time></trkpt><trkpt lat="46.1520632" lon="13.5548778"><ele>432.0</ele><time>2026-05-02T10:36:45.47Z</time></trkpt><trkpt lat="46.1521045" lon="13.55471"><ele>430.5</ele><time>2026-05-02T10:36:46.469Z</time></trkpt><trkpt lat="46.1521362" lon="13.554561"><ele>429.0</ele><time>2026-05-02T10:36:47.469Z</time></trkpt><trkpt lat="46.1521653" lon="13.5544233"><ele>425.4</ele><time>2026-05-02T10:36:48.469Z</time></trkpt><trkpt lat="46.1522028" lon="13.5542953"><ele>421.79999999999995</ele><time>2026-05-02T10:36:49.468Z</time></trkpt><trkpt lat="46.1522485" lon="13.5541605"><ele>418.20000000000005</ele><time>2026-05-02T10:36:50.466Z</time></trkpt><trkpt lat="46.1523043" lon="13.5540288"><ele>414.6</ele><time>2026-05-02T10:36:51.467Z</time></trkpt><trkpt lat="46.1523645" lon="13.553904"><ele>411.0</ele><time>2026-05-02T10:36:52.466Z</time></trkpt><trkpt lat="46.1524197" lon="13.5537685"><ele>415.4</ele><time>2026-05-02T10:36:53.466Z</time></trkpt><trkpt lat="46.152471" lon="13.5536505"><ele>419.8</ele><time>2026-05-02T10:36:54.468Z</time></trkpt><trkpt lat="46.152527" lon="13.5535552"><ele>424.19999999999993</ele><time>2026-05-02T10:36:55.468Z</time></trkpt><trkpt lat="46.1526422" lon="13.5534268"><ele>428.59999999999997</ele><time>2026-05-02T10:36:57.47Z</time></trkpt><trkpt lat="46.1527097" lon="13.5532998"><ele>433.0</ele><time>2026-05-02T10:36:59.469Z</time></trkpt><trkpt lat="46.1526752" lon="13.5531625"><ele>433.00000000000006</ele><time>2026-05-02T10:37:01.469Z</time></trkpt><trkpt lat="46.152618" lon="13.5530147"><ele>433.0</ele><time>2026-05-02T10:37:03.47Z</time></trkpt><trkpt lat="46.1526137" lon="13.5529145"><ele>433.0</ele><time>2026-05-02T10:37:04.469Z</time></trkpt><trkpt lat="46.1526237" lon="13.552819"><ele>433.0</ele><time>2026-05-02T10:37:05.469Z</time></trkpt><trkpt lat="46.152654" lon="13.5527322"><ele>433.00000000000006</ele><time>2026-05-02T10:37:06.472Z</time></trkpt><trkpt lat="46.1526898" lon="13.552628"><ele>433.0</ele><time>2026-05-02T10:37:07.47Z</time></trkpt><trkpt lat="46.1527187" lon="13.5525272"><ele>431.1666666666667</ele><time>2026-05-02T10:37:08.47Z</time></trkpt><trkpt lat="46.1526852" lon="13.5523758"><ele>429.33333333333337</ele><time>2026-05-02T10:37:10.469Z</time></trkpt><trkpt lat="46.15263" lon="13.5522957"><ele>427.5</ele><time>2026-05-02T10:37:11.47Z</time></trkpt><trkpt lat="46.1525658" lon="13.5522038"><ele>425.66666666666663</ele><time>2026-05-02T10:37:12.47Z</time></trkpt><trkpt lat="46.1525042" lon="13.5521097"><ele>423.8333333333333</ele><time>2026-05-02T10:37:13.47Z</time></trkpt><trkpt lat="46.15247" lon="13.552018"><ele>422.0</ele><time>2026-05-02T10:37:14.469Z</time></trkpt><trkpt lat="46.1524423" lon="13.551916"><ele>416.0</ele><time>2026-05-02T10:37:15.469Z</time></trkpt><trkpt lat="46.1523338" lon="13.5517482"><ele>410.0</ele><time>2026-05-02T10:37:18.469Z</time></trkpt><trkpt lat="46.1522463" lon="13.5517097"><ele>404.0</ele><time>2026-05-02T10:37:20.471Z</time></trkpt><trkpt lat="46.1521893" lon="13.5516555"><ele>398.0</ele><time>2026-05-02T10:37:21.471Z</time></trkpt><trkpt lat="46.1521252" lon="13.5516022"><ele>392.0</ele><time>2026-05-02T10:37:22.471Z</time></trkpt><trkpt lat="46.1520615" lon="13.5515268"><ele>391.99999999999994</ele><time>2026-05-02T10:37:23.471Z</time></trkpt><trkpt lat="46.1520037" lon="13.5514508"><ele>392.0</ele><time>2026-05-02T10:37:24.472Z</time></trkpt><trkpt lat="46.1519608" lon="13.5513687"><ele>392.0</ele><time>2026-05-02T10:37:25.47Z</time></trkpt><trkpt lat="46.1519302" lon="13.5512878"><ele>392.0</ele><time>2026-05-02T10:37:26.47Z</time></trkpt><trkpt lat="46.1518627" lon="13.5511815"><ele>391.99999999999994</ele><time>2026-05-02T10:37:28.47Z</time></trkpt><trkpt lat="46.1517742" lon="13.551179"><ele>392.0</ele><time>2026-05-02T10:37:30.472Z</time></trkpt><trkpt lat="46.1516615" lon="13.5512108"><ele>392.0</ele><time>2026-05-02T10:37:32.471Z</time></trkpt><trkpt lat="46.1515453" lon="13.5512083"><ele>392.0</ele><time>2026-05-02T10:37:34.47Z</time></trkpt><trkpt lat="46.1514833" lon="13.5511648"><ele>392.0</ele><time>2026-05-02T10:37:35.47Z</time></trkpt><trkpt lat="46.1514068" lon="13.5511133"><ele>392.0</ele><time>2026-05-02T10:37:36.471Z</time></trkpt><trkpt lat="46.1512345" lon="13.551012"><ele>392.8333333333333</ele><time>2026-05-02T10:37:38.47Z</time></trkpt><trkpt lat="46.1511475" lon="13.550974"><ele>393.66666666666663</ele><time>2026-05-02T10:37:39.469Z</time></trkpt><trkpt lat="46.1510618" lon="13.5509398"><ele>394.5</ele><time>2026-05-02T10:37:40.468Z</time></trkpt><trkpt lat="46.1509775" lon="13.5509208"><ele>395.33333333333337</ele><time>2026-05-02T10:37:41.468Z</time></trkpt><trkpt lat="46.1509" lon="13.5509075"><ele>396.1666666666667</ele><time>2026-05-02T10:37:42.469Z</time></trkpt><trkpt lat="46.15083" lon="13.5508903"><ele>397.0</ele><time>2026-05-02T10:37:43.471Z</time></trkpt><trkpt lat="46.150723" lon="13.5508048"><ele>392.1666666666667</ele><time>2026-05-02T10:37:45.47Z</time></trkpt><trkpt lat="46.1506772" lon="13.550734"><ele>387.33333333333337</ele><time>2026-05-02T10:37:46.47Z</time></trkpt><trkpt lat="46.1506445" lon="13.5506563"><ele>382.5</ele><time>2026-05-02T10:37:47.47Z</time></trkpt><trkpt lat="46.150625" lon="13.550558"><ele>377.6666666666667</ele><time>2026-05-02T10:37:48.47Z</time></trkpt><trkpt lat="46.1506198" lon="13.550442"><ele>372.83333333333337</ele><time>2026-05-02T10:37:49.47Z</time></trkpt><trkpt lat="46.1506298" lon="13.5503158"><ele>368.0</ele><time>2026-05-02T10:37:50.469Z</time></trkpt><trkpt lat="46.1506467" lon="13.5501798"><ele>368.0</ele><time>2026-05-02T10:37:51.47Z</time></trkpt><trkpt lat="46.1506643" lon="13.5500392"><ele>368.0</ele><time>2026-05-02T10:37:52.47Z</time></trkpt><trkpt lat="46.1506898" lon="13.5499097"><ele>368.0</ele><time>2026-05-02T10:37:53.469Z</time></trkpt><trkpt lat="46.150719" lon="13.5497825"><ele>368.0</ele><time>2026-05-02T10:37:54.47Z</time></trkpt><trkpt lat="46.1507443" lon="13.5496513"><ele>368.0</ele><time>2026-05-02T10:37:55.47Z</time></trkpt><trkpt lat="46.1507803" lon="13.5495232"><ele>376.25</ele><time>2026-05-02T10:37:56.47Z</time></trkpt><trkpt lat="46.1508242" lon="13.5493962"><ele>384.5</ele><time>2026-05-02T10:37:57.47Z</time></trkpt><trkpt lat="46.1508975" lon="13.5491878"><ele>392.75</ele><time>2026-05-02T10:37:59.47Z</time></trkpt><trkpt lat="46.1509252" lon="13.549036"><ele>401.0</ele><time>2026-05-02T10:38:01.469Z</time></trkpt><trkpt lat="46.1508908" lon="13.5488987"><ele>400.99999999999994</ele><time>2026-05-02T10:38:03.469Z</time></trkpt><trkpt lat="46.1508435" lon="13.5488097"><ele>401.0</ele><time>2026-05-02T10:38:04.468Z</time></trkpt><trkpt lat="46.1507878" lon="13.5487095"><ele>401.0</ele><time>2026-05-02T10:38:05.467Z</time></trkpt><trkpt lat="46.1507632" lon="13.5485937"><ele>401.0</ele><time>2026-05-02T10:38:06.468Z</time></trkpt><trkpt lat="46.150733" lon="13.5484607"><ele>400.99999999999994</ele><time>2026-05-02T10:38:07.468Z</time></trkpt><trkpt lat="46.1507155" lon="13.5483243"><ele>401.0</ele><time>2026-05-02T10:38:08.469Z</time></trkpt><trkpt lat="46.1507168" lon="13.5481822"><ele>400.5</ele><time>2026-05-02T10:38:09.469Z</time></trkpt><trkpt lat="46.1507357" lon="13.5480435"><ele>400.0</ele><time>2026-05-02T10:38:10.469Z</time></trkpt><trkpt lat="46.1507688" lon="13.5478958"><ele>399.5</ele><time>2026-05-02T10:38:11.469Z</time></trkpt><trkpt lat="46.1508153" lon="13.5477297"><ele>399.0</ele><time>2026-05-02T10:38:12.47Z</time></trkpt><trkpt lat="46.150867" lon="13.5475598"><ele>399.0</ele><time>2026-05-02T10:38:13.469Z</time></trkpt><trkpt lat="46.1509198" lon="13.5473853"><ele>399.0</ele><time>2026-05-02T10:38:14.469Z</time></trkpt><trkpt lat="46.1509548" lon="13.5472255"><ele>399.0</ele><time>2026-05-02T10:38:15.469Z</time></trkpt><trkpt lat="46.1509858" lon="13.5470772"><ele>399.0</ele><time>2026-05-02T10:38:16.469Z</time></trkpt><trkpt lat="46.1510035" lon="13.546947"><ele>399.0</ele><time>2026-05-02T10:38:17.468Z</time></trkpt><trkpt lat="46.1509958" lon="13.5468407"><ele>399.75</ele><time>2026-05-02T10:38:18.469Z</time></trkpt><trkpt lat="46.150821" lon="13.546826"><ele>400.5</ele><time>2026-05-02T10:38:22.469Z</time></trkpt><trkpt lat="46.1506832" lon="13.5468795"><ele>401.25</ele><time>2026-05-02T10:38:24.47Z</time></trkpt><trkpt lat="46.1505735" lon="13.5469118"><ele>402.0</ele><time>2026-05-02T10:38:25.47Z</time></trkpt><trkpt lat="46.1504567" lon="13.5469385"><ele>400.8333333333333</ele><time>2026-05-02T10:38:26.469Z</time></trkpt><trkpt lat="46.1503583" lon="13.5469445"><ele>399.66666666666663</ele><time>2026-05-02T10:38:27.469Z</time></trkpt><trkpt lat="46.1502763" lon="13.5469513"><ele>398.5</ele><time>2026-05-02T10:38:28.467Z</time></trkpt><trkpt lat="46.150189" lon="13.5468918"><ele>397.3333333333333</ele><time>2026-05-02T10:38:30.468Z</time></trkpt><trkpt lat="46.1501655" lon="13.5467623"><ele>396.16666666666663</ele><time>2026-05-02T10:38:32.471Z</time></trkpt><trkpt lat="46.1501617" lon="13.5466553"><ele>395.0</ele><time>2026-05-02T10:38:33.469Z</time></trkpt><trkpt lat="46.1501587" lon="13.5465267"><ele>395.0</ele><time>2026-05-02T10:38:34.469Z</time></trkpt><trkpt lat="46.1501522" lon="13.5464097"><ele>395.0</ele><time>2026-05-02T10:38:35.469Z</time></trkpt><trkpt lat="46.1501517" lon="13.5463143"><ele>395.0</ele><time>2026-05-02T10:38:36.47Z</time></trkpt><trkpt lat="46.150106" lon="13.5462025"><ele>395.0</ele><time>2026-05-02T10:38:38.47Z</time></trkpt><trkpt lat="46.1500322" lon="13.5461583"><ele>395.0</ele><time>2026-05-02T10:38:40.47Z</time></trkpt><trkpt lat="46.1498652" lon="13.546361"><ele>399.66666666666663</ele><time>2026-05-02T10:38:44.47Z</time></trkpt><trkpt lat="46.1498205" lon="13.5464385"><ele>404.3333333333333</ele><time>2026-05-02T10:38:45.47Z</time></trkpt><trkpt lat="46.1497762" lon="13.5465048"><ele>409.0</ele><time>2026-05-02T10:38:46.469Z</time></trkpt><trkpt lat="46.1496815" lon="13.5466123"><ele>413.66666666666663</ele><time>2026-05-02T10:38:48.47Z</time></trkpt><trkpt lat="46.1496267" lon="13.5466932"><ele>418.3333333333333</ele><time>2026-05-02T10:38:50.469Z</time></trkpt><trkpt lat="46.1496058" lon="13.546799"><ele>423.0</ele><time>2026-05-02T10:38:52.469Z</time></trkpt><trkpt lat="46.1495888" lon="13.5469882"><ele>418.0</ele><time>2026-05-02T10:38:54.471Z</time></trkpt><trkpt lat="46.1495732" lon="13.5471053"><ele>413.0</ele><time>2026-05-02T10:38:55.469Z</time></trkpt><trkpt lat="46.1495267" lon="13.5472075"><ele>408.0</ele><time>2026-05-02T10:38:56.468Z</time></trkpt><trkpt lat="46.1494603" lon="13.5473143"><ele>403.0</ele><time>2026-05-02T10:38:57.47Z</time></trkpt><trkpt lat="46.149421" lon="13.5474202"><ele>398.0</ele><time>2026-05-02T10:38:58.469Z</time></trkpt><trkpt lat="46.1493453" lon="13.5475163"><ele>398.0</ele><time>2026-05-02T10:38:59.471Z</time></trkpt><trkpt lat="46.1492788" lon="13.5476082"><ele>398.0</ele><time>2026-05-02T10:39:00.471Z</time></trkpt><trkpt lat="46.1492173" lon="13.5476708"><ele>398.0</ele><time>2026-05-02T10:39:01.469Z</time></trkpt><trkpt lat="46.1490278" lon="13.5477173"><ele>398.0</ele><time>2026-05-02T10:39:04.471Z</time></trkpt><trkpt lat="46.148942" lon="13.5476885"><ele>398.0</ele><time>2026-05-02T10:39:05.471Z</time></trkpt><trkpt lat="46.14885" lon="13.5476418"><ele>400.59999999999997</ele><time>2026-05-02T10:39:06.471Z</time></trkpt><trkpt lat="46.1487572" lon="13.5475988"><ele>403.2</ele><time>2026-05-02T10:39:07.471Z</time></trkpt><trkpt lat="46.1486655" lon="13.5475908"><ele>405.8</ele><time>2026-05-02T10:39:08.472Z</time></trkpt><trkpt lat="46.1485697" lon="13.547615"><ele>408.4</ele><time>2026-05-02T10:39:09.47Z</time></trkpt><trkpt lat="46.1484823" lon="13.5476625"><ele>411.0</ele><time>2026-05-02T10:39:10.471Z</time></trkpt><trkpt lat="46.1483927" lon="13.5477107"><ele>411.0</ele><time>2026-05-02T10:39:11.473Z</time></trkpt><trkpt lat="46.1483052" lon="13.5477463"><ele>411.0</ele><time>2026-05-02T10:39:12.47Z</time></trkpt><trkpt lat="46.1481977" lon="13.547773"><ele>411.0</ele><time>2026-05-02T10:39:13.47Z</time></trkpt><trkpt lat="46.1480925" lon="13.5477927"><ele>411.0</ele><time>2026-05-02T10:39:14.469Z</time></trkpt><trkpt lat="46.147996" lon="13.5477988"><ele>411.0</ele><time>2026-05-02T10:39:15.47Z</time></trkpt><trkpt lat="46.147912" lon="13.5477887"><ele>407.8333333333333</ele><time>2026-05-02T10:39:16.471Z</time></trkpt><trkpt lat="46.1478385" lon="13.5477395"><ele>404.66666666666663</ele><time>2026-05-02T10:39:17.468Z</time></trkpt><trkpt lat="46.1477707" lon="13.5476708"><ele>401.5</ele><time>2026-05-02T10:39:18.468Z</time></trkpt><trkpt lat="46.1477103" lon="13.547581"><ele>398.3333333333333</ele><time>2026-05-02T10:39:19.467Z</time></trkpt><trkpt lat="46.1476542" lon="13.547485"><ele>395.16666666666663</ele><time>2026-05-02T10:39:20.468Z</time></trkpt><trkpt lat="46.1475888" lon="13.5474183"><ele>392.0</ele><time>2026-05-02T10:39:21.469Z</time></trkpt><trkpt lat="46.1475135" lon="13.547358"><ele>386.0</ele><time>2026-05-02T10:39:22.469Z</time></trkpt><trkpt lat="46.147329" lon="13.5473017"><ele>380.0</ele><time>2026-05-02T10:39:24.469Z</time></trkpt><trkpt lat="46.1472578" lon="13.5472625"><ele>374.0</ele><time>2026-05-02T10:39:25.468Z</time></trkpt><trkpt lat="46.1472052" lon="13.5472048"><ele>368.0</ele><time>2026-05-02T10:39:26.469Z</time></trkpt><trkpt lat="46.1471598" lon="13.547135"><ele>362.0</ele><time>2026-05-02T10:39:27.468Z</time></trkpt><trkpt lat="46.1471308" lon="13.5470487"><ele>360.6666666666667</ele><time>2026-05-02T10:39:28.469Z</time></trkpt><trkpt lat="46.1471207" lon="13.5469397"><ele>359.33333333333337</ele><time>2026-05-02T10:39:29.469Z</time></trkpt><trkpt lat="46.1471243" lon="13.5468182"><ele>358.0</ele><time>2026-05-02T10:39:30.469Z</time></trkpt><trkpt lat="46.1471357" lon="13.5466827"><ele>356.6666666666667</ele><time>2026-05-02T10:39:31.468Z</time></trkpt><trkpt lat="46.1471503" lon="13.5465518"><ele>355.3333333333333</ele><time>2026-05-02T10:39:32.469Z</time></trkpt><trkpt lat="46.1471662" lon="13.5464425"><ele>354.0</ele><time>2026-05-02T10:39:33.47Z</time></trkpt><trkpt lat="46.1471375" lon="13.546296"><ele>354.0</ele><time>2026-05-02T10:39:35.47Z</time></trkpt><trkpt lat="46.1470385" lon="13.5461943"><ele>354.0</ele><time>2026-05-02T10:39:37.469Z</time></trkpt><trkpt lat="46.146946" lon="13.5461433"><ele>354.0</ele><time>2026-05-02T10:39:38.469Z</time></trkpt><trkpt lat="46.1468295" lon="13.5460737"><ele>354.0</ele><time>2026-05-02T10:39:39.469Z</time></trkpt><trkpt lat="46.146715" lon="13.5460055"><ele>354.0</ele><time>2026-05-02T10:39:40.47Z</time></trkpt><trkpt lat="46.1466173" lon="13.5459548"><ele>354.0</ele><time>2026-05-02T10:39:41.468Z</time></trkpt><trkpt lat="46.1465362" lon="13.5458953"><ele>354.0</ele><time>2026-05-02T10:39:42.468Z</time></trkpt><trkpt lat="46.1464783" lon="13.5458312"><ele>354.0</ele><time>2026-05-02T10:39:43.467Z</time></trkpt><trkpt lat="46.1464098" lon="13.5456633"><ele>354.0</ele><time>2026-05-02T10:39:45.469Z</time></trkpt><trkpt lat="46.1464005" lon="13.5455487"><ele>354.0</ele><time>2026-05-02T10:39:46.468Z</time></trkpt><trkpt lat="46.1463838" lon="13.5454252"><ele>354.0</ele><time>2026-05-02T10:39:47.468Z</time></trkpt><trkpt lat="46.1463625" lon="13.5453315"><ele>354.0</ele><time>2026-05-02T10:39:48.468Z</time></trkpt><trkpt lat="46.1463393" lon="13.545246"><ele>354.0</ele><time>2026-05-02T10:39:49.468Z</time></trkpt><trkpt lat="46.1462572" lon="13.545096"><ele>354.0</ele><time>2026-05-02T10:39:51.47Z</time></trkpt><trkpt lat="46.1461987" lon="13.545031"><ele>354.0</ele><time>2026-05-02T10:39:52.468Z</time></trkpt><trkpt lat="46.1461457" lon="13.5449672"><ele>358.5</ele><time>2026-05-02T10:39:53.469Z</time></trkpt><trkpt lat="46.1461042" lon="13.5448948"><ele>363.0</ele><time>2026-05-02T10:39:54.469Z</time></trkpt><trkpt lat="46.1460667" lon="13.5448032"><ele>367.5</ele><time>2026-05-02T10:39:55.469Z</time></trkpt><trkpt lat="46.1460337" lon="13.5446888"><ele>372.0</ele><time>2026-05-02T10:39:56.469Z</time></trkpt><trkpt lat="46.1460087" lon="13.5445692"><ele>376.5</ele><time>2026-05-02T10:39:57.47Z</time></trkpt><trkpt lat="46.1459588" lon="13.5444845"><ele>381.0</ele><time>2026-05-02T10:39:58.469Z</time></trkpt><trkpt lat="46.1458892" lon="13.5444117"><ele>381.0</ele><time>2026-05-02T10:39:59.469Z</time></trkpt><trkpt lat="46.1458158" lon="13.5443065"><ele>381.0</ele><time>2026-05-02T10:40:00.47Z</time></trkpt><trkpt lat="46.1457393" lon="13.5441862"><ele>381.0</ele><time>2026-05-02T10:40:01.469Z</time></trkpt><trkpt lat="46.1456682" lon="13.544066"><ele>381.0</ele><time>2026-05-02T10:40:02.469Z</time></trkpt><trkpt lat="46.145604" lon="13.543958"><ele>381.0</ele><time>2026-05-02T10:40:03.469Z</time></trkpt><trkpt lat="46.1455588" lon="13.5438542"><ele>371.20000000000005</ele><time>2026-05-02T10:40:04.469Z</time></trkpt><trkpt lat="46.145503" lon="13.5435875"><ele>361.40000000000003</ele><time>2026-05-02T10:40:07.468Z</time></trkpt><trkpt lat="46.145498" lon="13.5434707"><ele>351.6</ele><time>2026-05-02T10:40:08.469Z</time></trkpt><trkpt lat="46.1454988" lon="13.5433493"><ele>341.8</ele><time>2026-05-02T10:40:09.468Z</time></trkpt><trkpt lat="46.1455105" lon="13.5432395"><ele>332.0</ele><time>2026-05-02T10:40:10.469Z</time></trkpt><trkpt lat="46.14553" lon="13.5431353"><ele>332.0</ele><time>2026-05-02T10:40:11.471Z</time></trkpt><trkpt lat="46.1455752" lon="13.5430275"><ele>332.0</ele><time>2026-05-02T10:40:12.47Z</time></trkpt><trkpt lat="46.1456367" lon="13.5429092"><ele>332.0</ele><time>2026-05-02T10:40:13.471Z</time></trkpt><trkpt lat="46.145692" lon="13.5428005"><ele>332.0</ele><time>2026-05-02T10:40:14.472Z</time></trkpt><trkpt lat="46.1457317" lon="13.5427212"><ele>332.0</ele><time>2026-05-02T10:40:15.47Z</time></trkpt><trkpt lat="46.1457413" lon="13.5425882"><ele>332.0</ele><time>2026-05-02T10:40:17.469Z</time></trkpt><trkpt lat="46.1456697" lon="13.5424685"><ele>331.83333333333337</ele><time>2026-05-02T10:40:19.47Z</time></trkpt><trkpt lat="46.145647" lon="13.5423128"><ele>331.6666666666667</ele><time>2026-05-02T10:40:21.47Z</time></trkpt><trkpt lat="46.1456433" lon="13.542212"><ele>331.5</ele><time>2026-05-02T10:40:22.47Z</time></trkpt><trkpt lat="46.1456372" lon="13.5420978"><ele>331.3333333333333</ele><time>2026-05-02T10:40:23.47Z</time></trkpt><trkpt lat="46.1456188" lon="13.5419845"><ele>331.16666666666663</ele><time>2026-05-02T10:40:24.471Z</time></trkpt><trkpt lat="46.1455782" lon="13.5418812"><ele>331.0</ele><time>2026-05-02T10:40:25.472Z</time></trkpt><trkpt lat="46.1454818" lon="13.5416745"><ele>332.14285714285717</ele><time>2026-05-02T10:40:27.47Z</time></trkpt><trkpt lat="46.1454428" lon="13.541581"><ele>333.2857142857143</ele><time>2026-05-02T10:40:28.469Z</time></trkpt><trkpt lat="46.1454013" lon="13.5414942"><ele>334.42857142857144</ele><time>2026-05-02T10:40:29.469Z</time></trkpt><trkpt lat="46.1453493" lon="13.541438"><ele>335.57142857142856</ele><time>2026-05-02T10:40:30.469Z</time></trkpt><trkpt lat="46.1452882" lon="13.5413982"><ele>336.7142857142857</ele><time>2026-05-02T10:40:31.468Z</time></trkpt><trkpt lat="46.1452295" lon="13.5413608"><ele>337.85714285714283</ele><time>2026-05-02T10:40:32.469Z</time></trkpt><trkpt lat="46.1451435" lon="13.5413073"><ele>339.0</ele><time>2026-05-02T10:40:34.469Z</time></trkpt><trkpt lat="46.145057" lon="13.5412638"><ele>339.0</ele><time>2026-05-02T10:40:36.471Z</time></trkpt><trkpt lat="46.1449917" lon="13.5412028"><ele>339.0</ele><time>2026-05-02T10:40:38.471Z</time></trkpt><trkpt lat="46.144937" lon="13.5411465"><ele>339.0</ele><time>2026-05-02T10:40:42.471Z</time></trkpt><trkpt lat="46.1450043" lon="13.541177"><ele>339.0</ele><time>2026-05-02T10:40:46.471Z</time></trkpt><trkpt lat="46.1451782" lon="13.5410657"><ele>339.0</ele><time>2026-05-02T10:40:50.471Z</time></trkpt><trkpt lat="46.1451288" lon="13.5408968"><ele>339.0</ele><time>2026-05-02T10:40:52.471Z</time></trkpt><trkpt lat="46.1450793" lon="13.5408058"><ele>339.0</ele><time>2026-05-02T10:40:53.471Z</time></trkpt><trkpt lat="46.1450453" lon="13.5406742"><ele>339.0</ele><time>2026-05-02T10:40:54.47Z</time></trkpt><trkpt lat="46.1450237" lon="13.5405097"><ele>339.0</ele><time>2026-05-02T10:40:55.47Z</time></trkpt><trkpt lat="46.1449982" lon="13.5403348"><ele>339.0</ele><time>2026-05-02T10:40:56.468Z</time></trkpt><trkpt lat="46.144968" lon="13.5401515"><ele>338.75</ele><time>2026-05-02T10:40:57.469Z</time></trkpt><trkpt lat="46.1449347" lon="13.539962"><ele>338.5</ele><time>2026-05-02T10:40:58.468Z</time></trkpt><trkpt lat="46.1448863" lon="13.5397762"><ele>338.25</ele><time>2026-05-02T10:40:59.47Z</time></trkpt><trkpt lat="46.1448237" lon="13.539594"><ele>338.0</ele><time>2026-05-02T10:41:00.47Z</time></trkpt><trkpt lat="46.1447578" lon="13.5394102"><ele>338.0</ele><time>2026-05-02T10:41:01.469Z</time></trkpt><trkpt lat="46.1446992" lon="13.5392233"><ele>338.0</ele><time>2026-05-02T10:41:02.47Z</time></trkpt><trkpt lat="46.1446413" lon="13.5390403"><ele>338.0</ele><time>2026-05-02T10:41:03.47Z</time></trkpt><trkpt lat="46.1445768" lon="13.5388878"><ele>338.0</ele><time>2026-05-02T10:41:04.47Z</time></trkpt><trkpt lat="46.1445062" lon="13.5387765"><ele>338.0</ele><time>2026-05-02T10:41:05.469Z</time></trkpt><trkpt lat="46.1444125" lon="13.5387063"><ele>338.0</ele><time>2026-05-02T10:41:06.47Z</time></trkpt><trkpt lat="46.1443018" lon="13.5386602"><ele>338.0</ele><time>2026-05-02T10:41:07.469Z</time></trkpt><trkpt lat="46.144071" lon="13.5385673"><ele>347.5</ele><time>2026-05-02T10:41:09.471Z</time></trkpt><trkpt lat="46.1439547" lon="13.538506"><ele>357.0</ele><time>2026-05-02T10:41:10.471Z</time></trkpt><trkpt lat="46.1438397" lon="13.538441"><ele>366.5</ele><time>2026-05-02T10:41:11.47Z</time></trkpt><trkpt lat="46.1437247" lon="13.5383675"><ele>376.0</ele><time>2026-05-02T10:41:12.471Z</time></trkpt><trkpt lat="46.1436018" lon="13.5383112"><ele>376.0</ele><time>2026-05-02T10:41:13.471Z</time></trkpt><trkpt lat="46.1434787" lon="13.5382562"><ele>376.0</ele><time>2026-05-02T10:41:14.471Z</time></trkpt><trkpt lat="46.1433593" lon="13.5382037"><ele>376.0</ele><time>2026-05-02T10:41:15.471Z</time></trkpt><trkpt lat="46.1432535" lon="13.5381467"><ele>376.0</ele><time>2026-05-02T10:41:16.469Z</time></trkpt><trkpt lat="46.1431688" lon="13.5380723"><ele>375.16666666666663</ele><time>2026-05-02T10:41:17.47Z</time></trkpt><trkpt lat="46.143112" lon="13.537983"><ele>374.3333333333333</ele><time>2026-05-02T10:41:18.469Z</time></trkpt><trkpt lat="46.1430885" lon="13.5378703"><ele>373.5</ele><time>2026-05-02T10:41:19.468Z</time></trkpt><trkpt lat="46.143084" lon="13.5377475"><ele>372.6666666666667</ele><time>2026-05-02T10:41:20.467Z</time></trkpt><trkpt lat="46.1430758" lon="13.5376332"><ele>371.83333333333337</ele><time>2026-05-02T10:41:21.469Z</time></trkpt><trkpt lat="46.1430757" lon="13.5375005"><ele>371.0</ele><time>2026-05-02T10:41:23.469Z</time></trkpt><trkpt lat="46.1431563" lon="13.5375065"><ele>371.0</ele><time>2026-05-02T10:41:26.472Z</time></trkpt><trkpt lat="46.1432072" lon="13.5376513"><ele>371.0</ele><time>2026-05-02T10:41:28.469Z</time></trkpt><trkpt lat="46.1433423" lon="13.5376617"><ele>371.0</ele><time>2026-05-02T10:41:32.469Z</time></trkpt><trkpt lat="46.1433165" lon="13.5374582"><ele>371.0</ele><time>2026-05-02T10:41:34.47Z</time></trkpt><trkpt lat="46.1432943" lon="13.5373265"><ele>381.20000000000005</ele><time>2026-05-02T10:41:35.469Z</time></trkpt><trkpt lat="46.143268" lon="13.5371907"><ele>391.40000000000003</ele><time>2026-05-02T10:41:36.471Z</time></trkpt><trkpt lat="46.1432213" lon="13.5370775"><ele>401.6</ele><time>2026-05-02T10:41:37.469Z</time></trkpt><trkpt lat="46.143147" lon="13.5369873"><ele>411.8</ele><time>2026-05-02T10:41:38.469Z</time></trkpt><trkpt lat="46.1430443" lon="13.5369138"><ele>422.0</ele><time>2026-05-02T10:41:39.473Z</time></trkpt><trkpt lat="46.1429278" lon="13.5368228"><ele>422.0</ele><time>2026-05-02T10:41:40.47Z</time></trkpt><trkpt lat="46.1428057" lon="13.5367302"><ele>422.0</ele><time>2026-05-02T10:41:41.47Z</time></trkpt><trkpt lat="46.1426892" lon="13.5366473"><ele>422.0</ele><time>2026-05-02T10:41:42.472Z</time></trkpt><trkpt lat="46.1425903" lon="13.536562"><ele>422.0</ele><time>2026-05-02T10:41:43.469Z</time></trkpt><trkpt lat="46.1425037" lon="13.5364627"><ele>422.0</ele><time>2026-05-02T10:41:44.468Z</time></trkpt><trkpt lat="46.1424337" lon="13.53633"><ele>422.0</ele><time>2026-05-02T10:41:45.468Z</time></trkpt><trkpt lat="46.1423743" lon="13.5361745"><ele>422.0</ele><time>2026-05-02T10:41:46.469Z</time></trkpt><trkpt lat="46.1423105" lon="13.5360167"><ele>422.0</ele><time>2026-05-02T10:41:47.469Z</time></trkpt><trkpt lat="46.1422467" lon="13.5358638"><ele>423.66666666666663</ele><time>2026-05-02T10:41:48.472Z</time></trkpt><trkpt lat="46.1421988" lon="13.5357028"><ele>425.33333333333337</ele><time>2026-05-02T10:41:49.471Z</time></trkpt><trkpt lat="46.1421572" lon="13.5353335"><ele>427.0</ele><time>2026-05-02T10:41:51.473Z</time></trkpt><trkpt lat="46.142144" lon="13.5351318"><ele>427.0</ele><time>2026-05-02T10:41:52.471Z</time></trkpt><trkpt lat="46.1421347" lon="13.5349258"><ele>427.0</ele><time>2026-05-02T10:41:53.473Z</time></trkpt><trkpt lat="46.1421277" lon="13.5347243"><ele>427.0</ele><time>2026-05-02T10:41:54.472Z</time></trkpt><trkpt lat="46.1421187" lon="13.5345473"><ele>427.0</ele><time>2026-05-02T10:41:55.473Z</time></trkpt><trkpt lat="46.1420962" lon="13.5344057"><ele>429.8</ele><time>2026-05-02T10:41:56.472Z</time></trkpt><trkpt lat="46.1420533" lon="13.534293"><ele>432.6</ele><time>2026-05-02T10:41:57.471Z</time></trkpt><trkpt lat="46.141984" lon="13.5342117"><ele>435.40000000000003</ele><time>2026-05-02T10:41:58.47Z</time></trkpt><trkpt lat="46.1418975" lon="13.534156"><ele>438.20000000000005</ele><time>2026-05-02T10:41:59.471Z</time></trkpt><trkpt lat="46.1418123" lon="13.534115"><ele>441.0</ele><time>2026-05-02T10:42:00.473Z</time></trkpt><trkpt lat="46.1417293" lon="13.5340553"><ele>441.0</ele><time>2026-05-02T10:42:01.471Z</time></trkpt><trkpt lat="46.1416465" lon="13.5339822"><ele>441.0</ele><time>2026-05-02T10:42:02.471Z</time></trkpt><trkpt lat="46.1415715" lon="13.533905"><ele>441.0</ele><time>2026-05-02T10:42:03.472Z</time></trkpt><trkpt lat="46.1415028" lon="13.5338102"><ele>441.0</ele><time>2026-05-02T10:42:04.47Z</time></trkpt><trkpt lat="46.14144" lon="13.5337005"><ele>441.0</ele><time>2026-05-02T10:42:05.472Z</time></trkpt><trkpt lat="46.1413867" lon="13.5335752"><ele>441.0</ele><time>2026-05-02T10:42:06.474Z</time></trkpt><trkpt lat="46.141341" lon="13.5334547"><ele>441.0</ele><time>2026-05-02T10:42:07.472Z</time></trkpt><trkpt lat="46.1412927" lon="13.5333553"><ele>441.0</ele><time>2026-05-02T10:42:08.472Z</time></trkpt><trkpt lat="46.1412362" lon="13.5332588"><ele>441.0</ele><time>2026-05-02T10:42:09.47Z</time></trkpt><trkpt lat="46.1411703" lon="13.5331723"><ele>441.0</ele><time>2026-05-02T10:42:10.47Z</time></trkpt><trkpt lat="46.1410303" lon="13.5330033"><ele>441.0</ele><time>2026-05-02T10:42:12.47Z</time></trkpt><trkpt lat="46.140958" lon="13.5329297"><ele>441.0</ele><time>2026-05-02T10:42:13.471Z</time></trkpt><trkpt lat="46.1408977" lon="13.5328398"><ele>441.0</ele><time>2026-05-02T10:42:14.471Z</time></trkpt><trkpt lat="46.1408447" lon="13.5327515"><ele>441.0</ele><time>2026-05-02T10:42:15.471Z</time></trkpt><trkpt lat="46.1408018" lon="13.5326287"><ele>441.0</ele><time>2026-05-02T10:42:16.471Z</time></trkpt><trkpt lat="46.1407578" lon="13.5324955"><ele>441.0</ele><time>2026-05-02T10:42:17.471Z</time></trkpt><trkpt lat="46.1407113" lon="13.532359"><ele>441.0</ele><time>2026-05-02T10:42:18.472Z</time></trkpt><trkpt lat="46.1406665" lon="13.5322112"><ele>441.0</ele><time>2026-05-02T10:42:19.47Z</time></trkpt><trkpt lat="46.1406192" lon="13.5320827"><ele>441.0</ele><time>2026-05-02T10:42:20.471Z</time></trkpt><trkpt lat="46.1405893" lon="13.5319523"><ele>441.0</ele><time>2026-05-02T10:42:21.471Z</time></trkpt><trkpt lat="46.1405652" lon="13.5318333"><ele>441.0</ele><time>2026-05-02T10:42:22.469Z</time></trkpt><trkpt lat="46.1405502" lon="13.531736"><ele>441.0</ele><time>2026-05-02T10:42:23.47Z</time></trkpt><trkpt lat="46.1405007" lon="13.5316258"><ele>441.0</ele><time>2026-05-02T10:42:25.469Z</time></trkpt><trkpt lat="46.1403765" lon="13.5315632"><ele>441.0</ele><time>2026-05-02T10:42:27.468Z</time></trkpt><trkpt lat="46.1403017" lon="13.5314893"><ele>441.0</ele><time>2026-05-02T10:42:28.469Z</time></trkpt><trkpt lat="46.1402312" lon="13.531396"><ele>441.0</ele><time>2026-05-02T10:42:29.47Z</time></trkpt><trkpt lat="46.1401523" lon="13.5313303"><ele>441.0</ele><time>2026-05-02T10:42:30.471Z</time></trkpt><trkpt lat="46.1400738" lon="13.531254"><ele>441.0</ele><time>2026-05-02T10:42:31.469Z</time></trkpt><trkpt lat="46.1399492" lon="13.5310423"><ele>441.0</ele><time>2026-05-02T10:42:33.468Z</time></trkpt><trkpt lat="46.1399" lon="13.5309192"><ele>438.4</ele><time>2026-05-02T10:42:34.468Z</time></trkpt><trkpt lat="46.1398542" lon="13.5307935"><ele>435.8</ele><time>2026-05-02T10:42:35.469Z</time></trkpt><trkpt lat="46.1398177" lon="13.530678"><ele>433.19999999999993</ele><time>2026-05-02T10:42:36.468Z</time></trkpt><trkpt lat="46.1397848" lon="13.530569"><ele>430.59999999999997</ele><time>2026-05-02T10:42:37.47Z</time></trkpt><trkpt lat="46.139754" lon="13.5304702"><ele>428.0</ele><time>2026-05-02T10:42:38.47Z</time></trkpt><trkpt lat="46.1396745" lon="13.5303525"><ele>435.8333333333333</ele><time>2026-05-02T10:42:40.471Z</time></trkpt><trkpt lat="46.1395485" lon="13.5303382"><ele>443.66666666666663</ele><time>2026-05-02T10:42:42.471Z</time></trkpt><trkpt lat="46.1394762" lon="13.530339"><ele>451.5</ele><time>2026-05-02T10:42:43.471Z</time></trkpt><trkpt lat="46.1393933" lon="13.5303345"><ele>459.33333333333337</ele><time>2026-05-02T10:42:44.471Z</time></trkpt><trkpt lat="46.139313" lon="13.5303182"><ele>467.1666666666667</ele><time>2026-05-02T10:42:45.471Z</time></trkpt><trkpt lat="46.1392365" lon="13.5302938"><ele>475.0</ele><time>2026-05-02T10:42:46.471Z</time></trkpt><trkpt lat="46.1391665" lon="13.5302823"><ele>475.00000000000006</ele><time>2026-05-02T10:42:47.47Z</time></trkpt><trkpt lat="46.1390993" lon="13.5302753"><ele>475.0</ele><time>2026-05-02T10:42:48.47Z</time></trkpt><trkpt lat="46.1390347" lon="13.5302765"><ele>475.0</ele><time>2026-05-02T10:42:49.47Z</time></trkpt><trkpt lat="46.1389635" lon="13.5302888"><ele>475.0</ele><time>2026-05-02T10:42:50.47Z</time></trkpt><trkpt lat="46.1388855" lon="13.5303105"><ele>475.00000000000006</ele><time>2026-05-02T10:42:51.471Z</time></trkpt><trkpt lat="46.1388093" lon="13.5303295"><ele>475.0</ele><time>2026-05-02T10:42:52.471Z</time></trkpt><trkpt lat="46.1386348" lon="13.530378"><ele>466.8</ele><time>2026-05-02T10:42:54.471Z</time></trkpt><trkpt lat="46.138552" lon="13.5303963"><ele>458.6</ele><time>2026-05-02T10:42:55.472Z</time></trkpt><trkpt lat="46.1384562" lon="13.5304313"><ele>450.4</ele><time>2026-05-02T10:42:56.469Z</time></trkpt><trkpt lat="46.1383608" lon="13.5304622"><ele>442.2</ele><time>2026-05-02T10:42:57.469Z</time></trkpt><trkpt lat="46.1382673" lon="13.53048"><ele>434.0</ele><time>2026-05-02T10:42:58.468Z</time></trkpt><trkpt lat="46.1381698" lon="13.5305078"><ele>433.99999999999994</ele><time>2026-05-02T10:42:59.468Z</time></trkpt><trkpt lat="46.1380817" lon="13.5305322"><ele>434.0</ele><time>2026-05-02T10:43:00.469Z</time></trkpt><trkpt lat="46.1380003" lon="13.5305592"><ele>434.0</ele><time>2026-05-02T10:43:01.469Z</time></trkpt><trkpt lat="46.1379268" lon="13.5305795"><ele>434.0</ele><time>2026-05-02T10:43:02.47Z</time></trkpt><trkpt lat="46.137852" lon="13.5305963"><ele>433.99999999999994</ele><time>2026-05-02T10:43:03.469Z</time></trkpt><trkpt lat="46.1377797" lon="13.5306025"><ele>434.0</ele><time>2026-05-02T10:43:04.471Z</time></trkpt><trkpt lat="46.1377045" lon="13.530583"><ele>434.0</ele><time>2026-05-02T10:43:05.47Z</time></trkpt><trkpt lat="46.1376198" lon="13.5305555"><ele>434.0</ele><time>2026-05-02T10:43:06.471Z</time></trkpt><trkpt lat="46.1375267" lon="13.5305252"><ele>434.0</ele><time>2026-05-02T10:43:07.471Z</time></trkpt><trkpt lat="46.1374292" lon="13.5304763"><ele>434.0</ele><time>2026-05-02T10:43:08.471Z</time></trkpt><trkpt lat="46.1373312" lon="13.530418"><ele>434.0</ele><time>2026-05-02T10:43:09.472Z</time></trkpt><trkpt lat="46.1372325" lon="13.5303582"><ele>434.0</ele><time>2026-05-02T10:43:10.47Z</time></trkpt><trkpt lat="46.1371345" lon="13.5303095"><ele>434.0</ele><time>2026-05-02T10:43:11.471Z</time></trkpt><trkpt lat="46.1370382" lon="13.5302797"><ele>434.0</ele><time>2026-05-02T10:43:12.471Z</time></trkpt><trkpt lat="46.1369477" lon="13.5302625"><ele>434.0</ele><time>2026-05-02T10:43:13.47Z</time></trkpt><trkpt lat="46.1367685" lon="13.5302015"><ele>433.99999999999994</ele><time>2026-05-02T10:43:15.471Z</time></trkpt><trkpt lat="46.136683" lon="13.5301612"><ele>434.0</ele><time>2026-05-02T10:43:16.47Z</time></trkpt><trkpt lat="46.1366087" lon="13.530109"><ele>434.0</ele><time>2026-05-02T10:43:17.471Z</time></trkpt><trkpt lat="46.1365393" lon="13.5300517"><ele>434.0</ele><time>2026-05-02T10:43:18.471Z</time></trkpt><trkpt lat="46.136471" lon="13.5299775"><ele>433.99999999999994</ele><time>2026-05-02T10:43:19.469Z</time></trkpt><trkpt lat="46.1364062" lon="13.5298857"><ele>434.0</ele><time>2026-05-02T10:43:20.47Z</time></trkpt><trkpt lat="46.1363432" lon="13.5297892"><ele>433.99999999999994</ele><time>2026-05-02T10:43:21.471Z</time></trkpt><trkpt lat="46.1362827" lon="13.5296993"><ele>434.0</ele><time>2026-05-02T10:43:22.47Z</time></trkpt><trkpt lat="46.1362212" lon="13.5296145"><ele>434.0</ele><time>2026-05-02T10:43:23.47Z</time></trkpt><trkpt lat="46.1361702" lon="13.529535"><ele>434.0</ele><time>2026-05-02T10:43:24.469Z</time></trkpt><trkpt lat="46.1361342" lon="13.5294538"><ele>433.99999999999994</ele><time>2026-05-02T10:43:25.469Z</time></trkpt><trkpt lat="46.1361077" lon="13.5293602"><ele>434.0</ele><time>2026-05-02T10:43:26.469Z</time></trkpt><trkpt lat="46.1360952" lon="13.5292568"><ele>437.99999999999994</ele><time>2026-05-02T10:43:27.47Z</time></trkpt><trkpt lat="46.1360905" lon="13.5291567"><ele>442.0</ele><time>2026-05-02T10:43:28.47Z</time></trkpt><trkpt lat="46.1360817" lon="13.5290657"><ele>446.0</ele><time>2026-05-02T10:43:29.47Z</time></trkpt><trkpt lat="46.1360393" lon="13.5288978"><ele>450.0</ele><time>2026-05-02T10:43:31.47Z</time></trkpt><trkpt lat="46.1360082" lon="13.5288017"><ele>453.99999999999994</ele><time>2026-05-02T10:43:32.47Z</time></trkpt><trkpt lat="46.1359762" lon="13.5287027"><ele>458.0</ele><time>2026-05-02T10:43:33.471Z</time></trkpt><trkpt lat="46.1359447" lon="13.5286162"><ele>458.0</ele><time>2026-05-02T10:43:34.47Z</time></trkpt><trkpt lat="46.1358682" lon="13.5284145"><ele>457.99999999999994</ele><time>2026-05-02T10:43:36.47Z</time></trkpt><trkpt lat="46.1358187" lon="13.5283212"><ele>457.99999999999994</ele><time>2026-05-02T10:43:37.47Z</time></trkpt><trkpt lat="46.1357622" lon="13.5282457"><ele>458.0</ele><time>2026-05-02T10:43:38.47Z</time></trkpt><trkpt lat="46.1357105" lon="13.528175"><ele>458.0</ele><time>2026-05-02T10:43:39.47Z</time></trkpt><trkpt lat="46.135653" lon="13.5281055"><ele>452.8333333333333</ele><time>2026-05-02T10:43:40.47Z</time></trkpt><trkpt lat="46.1356018" lon="13.528027"><ele>447.66666666666663</ele><time>2026-05-02T10:43:41.47Z</time></trkpt><trkpt lat="46.13555" lon="13.5279428"><ele>442.5</ele><time>2026-05-02T10:43:42.47Z</time></trkpt><trkpt lat="46.1354972" lon="13.5278555"><ele>437.33333333333337</ele><time>2026-05-02T10:43:43.47Z</time></trkpt><trkpt lat="46.1354352" lon="13.5277637"><ele>432.1666666666667</ele><time>2026-05-02T10:43:44.47Z</time></trkpt><trkpt lat="46.1353668" lon="13.5276507"><ele>427.0</ele><time>2026-05-02T10:43:45.471Z</time></trkpt><trkpt lat="46.1352873" lon="13.5275507"><ele>427.00000000000006</ele><time>2026-05-02T10:43:46.469Z</time></trkpt><trkpt lat="46.1352192" lon="13.5274523"><ele>427.0</ele><time>2026-05-02T10:43:47.469Z</time></trkpt><trkpt lat="46.1351605" lon="13.5273763"><ele>427.0</ele><time>2026-05-02T10:43:48.469Z</time></trkpt><trkpt lat="46.135112" lon="13.5272987"><ele>427.0</ele><time>2026-05-02T10:43:49.468Z</time></trkpt><trkpt lat="46.1350757" lon="13.5272158"><ele>427.00000000000006</ele><time>2026-05-02T10:43:50.468Z</time></trkpt><trkpt lat="46.1350393" lon="13.5271308"><ele>427.0</ele><time>2026-05-02T10:43:51.47Z</time></trkpt><trkpt lat="46.1349935" lon="13.5270557"><ele>428.00000000000006</ele><time>2026-05-02T10:43:52.471Z</time></trkpt><trkpt lat="46.1349382" lon="13.5269867"><ele>429.0</ele><time>2026-05-02T10:43:53.471Z</time></trkpt><trkpt lat="46.134876" lon="13.5269443"><ele>430.0</ele><time>2026-05-02T10:43:54.471Z</time></trkpt><trkpt lat="46.1348103" lon="13.5269385"><ele>431.0</ele><time>2026-05-02T10:43:55.471Z</time></trkpt><trkpt lat="46.1346917" lon="13.5270157"><ele>432.00000000000006</ele><time>2026-05-02T10:43:57.47Z</time></trkpt><trkpt lat="46.1346313" lon="13.5270668"><ele>433.0</ele><time>2026-05-02T10:43:58.471Z</time></trkpt><trkpt lat="46.1345633" lon="13.5271098"><ele>429.00000000000006</ele><time>2026-05-02T10:43:59.472Z</time></trkpt><trkpt lat="46.1344768" lon="13.527143"><ele>425.0</ele><time>2026-05-02T10:44:00.47Z</time></trkpt><trkpt lat="46.134388" lon="13.5271718"><ele>421.0</ele><time>2026-05-02T10:44:01.473Z</time></trkpt><trkpt lat="46.1343085" lon="13.5271992"><ele>417.0</ele><time>2026-05-02T10:44:02.47Z</time></trkpt><trkpt lat="46.1342413" lon="13.5272397"><ele>413.00000000000006</ele><time>2026-05-02T10:44:03.471Z</time></trkpt><trkpt lat="46.1341447" lon="13.5272913"><ele>409.0</ele><time>2026-05-02T10:44:05.471Z</time></trkpt><trkpt lat="46.134056" lon="13.527247"><ele>412.4</ele><time>2026-05-02T10:44:07.471Z</time></trkpt><trkpt lat="46.1339545" lon="13.5271342"><ele>415.79999999999995</ele><time>2026-05-02T10:44:09.475Z</time></trkpt><trkpt lat="46.1339018" lon="13.527067"><ele>419.20000000000005</ele><time>2026-05-02T10:44:10.471Z</time></trkpt><trkpt lat="46.1338478" lon="13.5269812"><ele>422.6</ele><time>2026-05-02T10:44:11.469Z</time></trkpt><trkpt lat="46.1337955" lon="13.5268767"><ele>426.0</ele><time>2026-05-02T10:44:12.47Z</time></trkpt><trkpt lat="46.1337313" lon="13.526756"><ele>426.0</ele><time>2026-05-02T10:44:13.47Z</time></trkpt><trkpt lat="46.1336598" lon="13.5266403"><ele>426.0</ele><time>2026-05-02T10:44:14.47Z</time></trkpt><trkpt lat="46.133592" lon="13.526519"><ele>426.0</ele><time>2026-05-02T10:44:15.473Z</time></trkpt><trkpt lat="46.1335265" lon="13.5263945"><ele>426.0</ele><time>2026-05-02T10:44:16.476Z</time></trkpt><trkpt lat="46.1333748" lon="13.526155"><ele>425.5</ele><time>2026-05-02T10:44:18.471Z</time></trkpt><trkpt lat="46.1332897" lon="13.5260312"><ele>425.0</ele><time>2026-05-02T10:44:19.47Z</time></trkpt><trkpt lat="46.1332067" lon="13.5259008"><ele>424.5</ele><time>2026-05-02T10:44:20.469Z</time></trkpt><trkpt lat="46.1331258" lon="13.5257715"><ele>424.0</ele><time>2026-05-02T10:44:21.47Z</time></trkpt><trkpt lat="46.1330408" lon="13.5256575"><ele>421.33333333333337</ele><time>2026-05-02T10:44:22.471Z</time></trkpt><trkpt lat="46.1329643" lon="13.5255602"><ele>418.6666666666667</ele><time>2026-05-02T10:44:23.471Z</time></trkpt><trkpt lat="46.132902" lon="13.5254737"><ele>416.0</ele><time>2026-05-02T10:44:24.471Z</time></trkpt><trkpt lat="46.1328583" lon="13.5253943"><ele>413.33333333333337</ele><time>2026-05-02T10:44:25.472Z</time></trkpt><trkpt lat="46.132823" lon="13.5253025"><ele>410.6666666666667</ele><time>2026-05-02T10:44:26.471Z</time></trkpt><trkpt lat="46.1327935" lon="13.5252058"><ele>408.0</ele><time>2026-05-02T10:44:27.472Z</time></trkpt><trkpt lat="46.1327723" lon="13.5250907"><ele>408.0</ele><time>2026-05-02T10:44:28.471Z</time></trkpt><trkpt lat="46.1327423" lon="13.5249592"><ele>408.0</ele><time>2026-05-02T10:44:29.471Z</time></trkpt><trkpt lat="46.132716" lon="13.524838"><ele>408.0</ele><time>2026-05-02T10:44:30.471Z</time></trkpt><trkpt lat="46.1326985" lon="13.5247078"><ele>408.0</ele><time>2026-05-02T10:44:31.472Z</time></trkpt><trkpt lat="46.1326888" lon="13.5245745"><ele>408.0</ele><time>2026-05-02T10:44:32.472Z</time></trkpt><trkpt lat="46.1326735" lon="13.5244537"><ele>409.0</ele><time>2026-05-02T10:44:33.472Z</time></trkpt><trkpt lat="46.1326628" lon="13.5243393"><ele>410.0</ele><time>2026-05-02T10:44:34.471Z</time></trkpt><trkpt lat="46.1326673" lon="13.524247"><ele>411.0</ele><time>2026-05-02T10:44:35.47Z</time></trkpt><trkpt lat="46.1326923" lon="13.524161"><ele>412.0</ele><time>2026-05-02T10:44:36.47Z</time></trkpt><trkpt lat="46.1327345" lon="13.5240788"><ele>413.0</ele><time>2026-05-02T10:44:37.471Z</time></trkpt><trkpt lat="46.1327957" lon="13.5238582"><ele>414.0</ele><time>2026-05-02T10:44:40.471Z</time></trkpt><trkpt lat="46.1327028" lon="13.5236992"><ele>414.0</ele><time>2026-05-02T10:44:42.472Z</time></trkpt><trkpt lat="46.1326392" lon="13.5235848"><ele>414.0</ele><time>2026-05-02T10:44:43.471Z</time></trkpt><trkpt lat="46.1325792" lon="13.5234465"><ele>414.0</ele><time>2026-05-02T10:44:44.472Z</time></trkpt><trkpt lat="46.132527" lon="13.5232945"><ele>414.0</ele><time>2026-05-02T10:44:45.472Z</time></trkpt><trkpt lat="46.132469" lon="13.5231435"><ele>414.0</ele><time>2026-05-02T10:44:46.472Z</time></trkpt><trkpt lat="46.1323993" lon="13.5229948"><ele>414.0</ele><time>2026-05-02T10:44:47.47Z</time></trkpt><trkpt lat="46.1323195" lon="13.5228458"><ele>414.0</ele><time>2026-05-02T10:44:48.472Z</time></trkpt><trkpt lat="46.1322363" lon="13.5227008"><ele>414.0</ele><time>2026-05-02T10:44:49.472Z</time></trkpt><trkpt lat="46.1321545" lon="13.5225567"><ele>409.25</ele><time>2026-05-02T10:44:50.472Z</time></trkpt><trkpt lat="46.132078" lon="13.5224065"><ele>404.5</ele><time>2026-05-02T10:44:51.473Z</time></trkpt><trkpt lat="46.1320063" lon="13.5222562"><ele>399.75</ele><time>2026-05-02T10:44:52.471Z</time></trkpt><trkpt lat="46.1319432" lon="13.5221155"><ele>395.0</ele><time>2026-05-02T10:44:53.472Z</time></trkpt><trkpt lat="46.1318957" lon="13.5219897"><ele>393.4</ele><time>2026-05-02T10:44:54.478Z</time></trkpt><trkpt lat="46.1318585" lon="13.5218695"><ele>391.8</ele><time>2026-05-02T10:44:55.473Z</time></trkpt><trkpt lat="46.1318205" lon="13.5217688"><ele>390.20000000000005</ele><time>2026-05-02T10:44:56.472Z</time></trkpt><trkpt lat="46.1317525" lon="13.5216383"><ele>388.6</ele><time>2026-05-02T10:44:58.472Z</time></trkpt><trkpt lat="46.1316247" lon="13.5215468"><ele>387.0</ele><time>2026-05-02T10:45:00.47Z</time></trkpt><trkpt lat="46.131536" lon="13.5215048"><ele>386.5</ele><time>2026-05-02T10:45:01.47Z</time></trkpt><trkpt lat="46.1314357" lon="13.521466"><ele>386.0</ele><time>2026-05-02T10:45:02.47Z</time></trkpt><trkpt lat="46.1313233" lon="13.5214413"><ele>385.5</ele><time>2026-05-02T10:45:03.471Z</time></trkpt><trkpt lat="46.1311995" lon="13.5214347"><ele>385.0</ele><time>2026-05-02T10:45:04.476Z</time></trkpt><trkpt lat="46.1310662" lon="13.5214517"><ele>385.0</ele><time>2026-05-02T10:45:05.472Z</time></trkpt><trkpt lat="46.1309247" lon="13.5214803"><ele>385.0</ele><time>2026-05-02T10:45:06.472Z</time></trkpt><trkpt lat="46.1307825" lon="13.5214917"><ele>385.0</ele><time>2026-05-02T10:45:07.472Z</time></trkpt><trkpt lat="46.130644" lon="13.5214657"><ele>385.0</ele><time>2026-05-02T10:45:08.472Z</time></trkpt><trkpt lat="46.1305077" lon="13.521406"><ele>382.25</ele><time>2026-05-02T10:45:09.472Z</time></trkpt><trkpt lat="46.1303748" lon="13.5213345"><ele>379.5</ele><time>2026-05-02T10:45:10.471Z</time></trkpt><trkpt lat="46.1302512" lon="13.5212642"><ele>376.75</ele><time>2026-05-02T10:45:11.472Z</time></trkpt><trkpt lat="46.1301463" lon="13.5212003"><ele>374.0</ele><time>2026-05-02T10:45:12.471Z</time></trkpt><trkpt lat="46.1300548" lon="13.5211353"><ele>374.0</ele><time>2026-05-02T10:45:13.47Z</time></trkpt><trkpt lat="46.1299735" lon="13.5210727"><ele>374.0</ele><time>2026-05-02T10:45:14.47Z</time></trkpt><trkpt lat="46.1299107" lon="13.5210058"><ele>374.0</ele><time>2026-05-02T10:45:15.471Z</time></trkpt><trkpt lat="46.129881" lon="13.5208677"><ele>374.0</ele><time>2026-05-02T10:45:17.471Z</time></trkpt><trkpt lat="46.129953" lon="13.5207562"><ele>374.0</ele><time>2026-05-02T10:45:19.471Z</time></trkpt><trkpt lat="46.1300897" lon="13.5206413"><ele>374.0</ele><time>2026-05-02T10:45:24.471Z</time></trkpt><trkpt lat="46.1301598" lon="13.5206025"><ele>374.0</ele><time>2026-05-02T10:45:26.47Z</time></trkpt><trkpt lat="46.1302505" lon="13.5205773"><ele>374.0</ele><time>2026-05-02T10:45:28.471Z</time></trkpt><trkpt lat="46.1303348" lon="13.5205898"><ele>374.0</ele><time>2026-05-02T10:45:30.472Z</time></trkpt><trkpt lat="46.1304117" lon="13.5206328"><ele>374.0</ele><time>2026-05-02T10:45:32.471Z</time></trkpt><trkpt lat="46.1304797" lon="13.520697"><ele>374.0</ele><time>2026-05-02T10:45:35.472Z</time></trkpt><trkpt lat="46.1305467" lon="13.520692"><ele>374.0</ele><time>2026-05-02T10:45:41.471Z</time></trkpt><trkpt lat="46.1306743" lon="13.5205298"><ele>374.0</ele><time>2026-05-02T10:45:49.469Z</time></trkpt><trkpt lat="46.1307562" lon="13.5204392"><ele>374.0</ele><time>2026-05-02T10:45:51.47Z</time></trkpt><trkpt lat="46.1308413" lon="13.5203798"><ele>374.0</ele><time>2026-05-02T10:45:53.471Z</time></trkpt><trkpt lat="46.130914" lon="13.5203487"><ele>374.0</ele><time>2026-05-02T10:45:55.472Z</time></trkpt><trkpt lat="46.130976" lon="13.5202912"><ele>374.0</ele><time>2026-05-02T10:45:58.472Z</time></trkpt><trkpt lat="46.1309083" lon="13.5202862"><ele>374.0</ele><time>2026-05-02T10:46:03.472Z</time></trkpt><trkpt lat="46.1309203" lon="13.5203517"><ele>374.0</ele><time>2026-05-02T11:53:53.275Z</time></trkpt><trkpt lat="46.1308362" lon="13.5203968"><ele>374.0</ele><time>2026-05-02T11:55:17.281Z</time></trkpt><trkpt lat="46.1307167" lon="13.5205065"><ele>374.0</ele><time>2026-05-02T11:55:21.28Z</time></trkpt><trkpt lat="46.1306548" lon="13.5205812"><ele>374.0</ele><time>2026-05-02T11:55:23.28Z</time></trkpt><trkpt lat="46.1305915" lon="13.5206303"><ele>374.0</ele><time>2026-05-02T11:55:25.279Z</time></trkpt><trkpt lat="46.1305257" lon="13.5206522"><ele>374.0</ele><time>2026-05-02T11:55:27.28Z</time></trkpt><trkpt lat="46.1304562" lon="13.5206245"><ele>374.0</ele><time>2026-05-02T11:55:29.279Z</time></trkpt><trkpt lat="46.130395" lon="13.5205803"><ele>374.0</ele><time>2026-05-02T11:55:31.278Z</time></trkpt><trkpt lat="46.1303282" lon="13.5205528"><ele>374.0</ele><time>2026-05-02T11:55:33.279Z</time></trkpt><trkpt lat="46.1302532" lon="13.5205468"><ele>374.0</ele><time>2026-05-02T11:55:35.277Z</time></trkpt><trkpt lat="46.1301728" lon="13.5205762"><ele>374.0</ele><time>2026-05-02T11:55:37.277Z</time></trkpt><trkpt lat="46.1300865" lon="13.520625"><ele>374.0</ele><time>2026-05-02T11:55:39.283Z</time></trkpt><trkpt lat="46.1299505" lon="13.5207298"><ele>374.0</ele><time>2026-05-02T11:55:43.28Z</time></trkpt><trkpt lat="46.1298777" lon="13.5207945"><ele>374.0</ele><time>2026-05-02T11:55:46.279Z</time></trkpt><trkpt lat="46.1298123" lon="13.5208055"><ele>374.0</ele><time>2026-05-02T11:56:46.475Z</time></trkpt><trkpt lat="46.1296312" lon="13.520657"><ele>373.0</ele><time>2026-05-02T11:56:50.475Z</time></trkpt><trkpt lat="46.1295712" lon="13.5205908"><ele>372.0</ele><time>2026-05-02T11:56:51.476Z</time></trkpt><trkpt lat="46.1295022" lon="13.520518"><ele>371.0</ele><time>2026-05-02T11:56:52.475Z</time></trkpt><trkpt lat="46.129429" lon="13.5204443"><ele>370.0</ele><time>2026-05-02T11:56:53.475Z</time></trkpt><trkpt lat="46.1293538" lon="13.5203652"><ele>369.0</ele><time>2026-05-02T11:56:54.476Z</time></trkpt><trkpt lat="46.1292803" lon="13.5202755"><ele>368.0</ele><time>2026-05-02T11:56:55.475Z</time></trkpt><trkpt lat="46.1292087" lon="13.5201762"><ele>368.0</ele><time>2026-05-02T11:56:56.474Z</time></trkpt><trkpt lat="46.1291382" lon="13.5200702"><ele>368.0</ele><time>2026-05-02T11:56:57.474Z</time></trkpt><trkpt lat="46.1290652" lon="13.5199618"><ele>368.0</ele><time>2026-05-02T11:56:58.474Z</time></trkpt><trkpt lat="46.1289865" lon="13.5198642"><ele>368.0</ele><time>2026-05-02T11:56:59.474Z</time></trkpt><trkpt lat="46.1288983" lon="13.5197825"><ele>368.0</ele><time>2026-05-02T11:57:00.475Z</time></trkpt><trkpt lat="46.1288015" lon="13.5197232"><ele>367.2</ele><time>2026-05-02T11:57:01.475Z</time></trkpt><trkpt lat="46.128698" lon="13.5196855"><ele>366.4</ele><time>2026-05-02T11:57:02.474Z</time></trkpt><trkpt lat="46.1285903" lon="13.5196633"><ele>365.59999999999997</ele><time>2026-05-02T11:57:03.473Z</time></trkpt><trkpt lat="46.1284798" lon="13.519651"><ele>364.79999999999995</ele><time>2026-05-02T11:57:04.472Z</time></trkpt><trkpt lat="46.1283633" lon="13.5196492"><ele>364.0</ele><time>2026-05-02T11:57:05.472Z</time></trkpt><trkpt lat="46.1282475" lon="13.5196427"><ele>361.66666666666663</ele><time>2026-05-02T11:57:06.473Z</time></trkpt><trkpt lat="46.1281303" lon="13.5196347"><ele>359.3333333333333</ele><time>2026-05-02T11:57:07.474Z</time></trkpt><trkpt lat="46.1278943" lon="13.5195522"><ele>357.0</ele><time>2026-05-02T11:57:09.475Z</time></trkpt><trkpt lat="46.1277818" lon="13.5194693"><ele>357.0</ele><time>2026-05-02T11:57:10.475Z</time></trkpt><trkpt lat="46.127669" lon="13.5193683"><ele>357.0</ele><time>2026-05-02T11:57:11.473Z</time></trkpt><trkpt lat="46.127553" lon="13.5192622"><ele>357.0</ele><time>2026-05-02T11:57:12.472Z</time></trkpt><trkpt lat="46.12744" lon="13.5191512"><ele>357.0</ele><time>2026-05-02T11:57:13.473Z</time></trkpt><trkpt lat="46.1273297" lon="13.5190338"><ele>356.25</ele><time>2026-05-02T11:57:14.473Z</time></trkpt><trkpt lat="46.1272285" lon="13.5189145"><ele>355.5</ele><time>2026-05-02T11:57:15.474Z</time></trkpt><trkpt lat="46.1271395" lon="13.518793"><ele>354.75</ele><time>2026-05-02T11:57:16.473Z</time></trkpt><trkpt lat="46.1270567" lon="13.5186817"><ele>354.0</ele><time>2026-05-02T11:57:17.473Z</time></trkpt><trkpt lat="46.1269822" lon="13.5185742"><ele>354.0</ele><time>2026-05-02T11:57:18.474Z</time></trkpt><trkpt lat="46.1269157" lon="13.5184673"><ele>354.0</ele><time>2026-05-02T11:57:19.473Z</time></trkpt><trkpt lat="46.1268458" lon="13.518374"><ele>354.0</ele><time>2026-05-02T11:57:20.474Z</time></trkpt><trkpt lat="46.1267605" lon="13.5183092"><ele>354.0</ele><time>2026-05-02T11:57:21.474Z</time></trkpt><trkpt lat="46.1266597" lon="13.5182702"><ele>354.0</ele><time>2026-05-02T11:57:22.474Z</time></trkpt><trkpt lat="46.126551" lon="13.5182425"><ele>352.2</ele><time>2026-05-02T11:57:23.473Z</time></trkpt><trkpt lat="46.1264425" lon="13.5182153"><ele>350.4</ele><time>2026-05-02T11:57:24.473Z</time></trkpt><trkpt lat="46.126338" lon="13.5181938"><ele>348.6</ele><time>2026-05-02T11:57:25.472Z</time></trkpt><trkpt lat="46.1262402" lon="13.518195"><ele>346.8</ele><time>2026-05-02T11:57:26.472Z</time></trkpt><trkpt lat="46.1261497" lon="13.5182213"><ele>345.0</ele><time>2026-05-02T11:57:27.475Z</time></trkpt><trkpt lat="46.126065" lon="13.518285"><ele>345.0</ele><time>2026-05-02T11:57:28.47Z</time></trkpt><trkpt lat="46.1258967" lon="13.5184722"><ele>345.0</ele><time>2026-05-02T11:57:30.472Z</time></trkpt><trkpt lat="46.1258115" lon="13.5185595"><ele>345.0</ele><time>2026-05-02T11:57:31.472Z</time></trkpt><trkpt lat="46.1257203" lon="13.5186343"><ele>345.0</ele><time>2026-05-02T11:57:32.473Z</time></trkpt><trkpt lat="46.1256192" lon="13.5186963"><ele>339.0</ele><time>2026-05-02T11:57:33.472Z</time></trkpt><trkpt lat="46.1255052" lon="13.5187368"><ele>333.0</ele><time>2026-05-02T11:57:34.471Z</time></trkpt><trkpt lat="46.1253797" lon="13.5187685"><ele>327.0</ele><time>2026-05-02T11:57:35.472Z</time></trkpt><trkpt lat="46.1252497" lon="13.5187992"><ele>321.0</ele><time>2026-05-02T11:57:36.47Z</time></trkpt><trkpt lat="46.1251153" lon="13.5188393"><ele>321.0</ele><time>2026-05-02T11:57:37.47Z</time></trkpt><trkpt lat="46.124975" lon="13.5188833"><ele>321.0</ele><time>2026-05-02T11:57:38.471Z</time></trkpt><trkpt lat="46.1248295" lon="13.5189222"><ele>321.0</ele><time>2026-05-02T11:57:39.471Z</time></trkpt><trkpt lat="46.1246832" lon="13.518956"><ele>321.0</ele><time>2026-05-02T11:57:40.471Z</time></trkpt><trkpt lat="46.1245388" lon="13.5189873"><ele>320.0</ele><time>2026-05-02T11:57:41.47Z</time></trkpt><trkpt lat="46.1243975" lon="13.5190222"><ele>319.0</ele><time>2026-05-02T11:57:42.47Z</time></trkpt><trkpt lat="46.124258" lon="13.519053"><ele>318.0</ele><time>2026-05-02T11:57:43.469Z</time></trkpt><trkpt lat="46.1241178" lon="13.5190763"><ele>317.0</ele><time>2026-05-02T11:57:44.471Z</time></trkpt><trkpt lat="46.1239757" lon="13.5190887"><ele>315.0</ele><time>2026-05-02T11:57:45.472Z</time></trkpt><trkpt lat="46.123829" lon="13.519091"><ele>313.0</ele><time>2026-05-02T11:57:46.47Z</time></trkpt><trkpt lat="46.1236842" lon="13.5190818"><ele>311.0</ele><time>2026-05-02T11:57:47.47Z</time></trkpt><trkpt lat="46.1235458" lon="13.5190585"><ele>309.0</ele><time>2026-05-02T11:57:48.471Z</time></trkpt><trkpt lat="46.1234125" lon="13.5190155"><ele>308.0</ele><time>2026-05-02T11:57:49.472Z</time></trkpt><trkpt lat="46.1231488" lon="13.5188488"><ele>307.0</ele><time>2026-05-02T11:57:51.472Z</time></trkpt><trkpt lat="46.1230143" lon="13.5187483"><ele>306.0</ele><time>2026-05-02T11:57:52.469Z</time></trkpt><trkpt lat="46.1228793" lon="13.5186502"><ele>306.0</ele><time>2026-05-02T11:57:53.469Z</time></trkpt><trkpt lat="46.1227462" lon="13.5185512"><ele>306.0</ele><time>2026-05-02T11:57:54.469Z</time></trkpt><trkpt lat="46.1226098" lon="13.5184665"><ele>306.0</ele><time>2026-05-02T11:57:55.469Z</time></trkpt><trkpt lat="46.1224772" lon="13.5183775"><ele>306.0</ele><time>2026-05-02T11:57:56.47Z</time></trkpt><trkpt lat="46.1223498" lon="13.5182685"><ele>303.25</ele><time>2026-05-02T11:57:57.472Z</time></trkpt><trkpt lat="46.1222282" lon="13.5181425"><ele>300.5</ele><time>2026-05-02T11:57:58.471Z</time></trkpt><trkpt lat="46.122116" lon="13.518002"><ele>297.75</ele><time>2026-05-02T11:57:59.472Z</time></trkpt><trkpt lat="46.1220125" lon="13.517856"><ele>295.0</ele><time>2026-05-02T11:58:00.472Z</time></trkpt><trkpt lat="46.1219152" lon="13.5176968"><ele>295.0</ele><time>2026-05-02T11:58:01.472Z</time></trkpt><trkpt lat="46.1218242" lon="13.5175202"><ele>295.0</ele><time>2026-05-02T11:58:02.471Z</time></trkpt><trkpt lat="46.1217415" lon="13.5173353"><ele>295.0</ele><time>2026-05-02T11:58:03.472Z</time></trkpt><trkpt lat="46.1216628" lon="13.5171552"><ele>294.75</ele><time>2026-05-02T11:58:04.472Z</time></trkpt><trkpt lat="46.1215888" lon="13.51699"><ele>294.5</ele><time>2026-05-02T11:58:05.472Z</time></trkpt><trkpt lat="46.1215227" lon="13.5168343"><ele>294.25</ele><time>2026-05-02T11:58:06.471Z</time></trkpt><trkpt lat="46.1214748" lon="13.5166748"><ele>294.0</ele><time>2026-05-02T11:58:07.472Z</time></trkpt><trkpt lat="46.1214547" lon="13.5164953"><ele>278.3333333333333</ele><time>2026-05-02T11:58:08.472Z</time></trkpt><trkpt lat="46.1214565" lon="13.5163018"><ele>262.66666666666663</ele><time>2026-05-02T11:58:09.472Z</time></trkpt><trkpt lat="46.1214663" lon="13.5160948"><ele>247.0</ele><time>2026-05-02T11:58:10.472Z</time></trkpt><trkpt lat="46.121497" lon="13.5156528"><ele>247.0</ele><time>2026-05-02T11:58:12.472Z</time></trkpt><trkpt lat="46.1215017" lon="13.515417"><ele>247.0</ele><time>2026-05-02T11:58:13.469Z</time></trkpt><trkpt lat="46.1215045" lon="13.5151803"><ele>247.0</ele><time>2026-05-02T11:58:14.47Z</time></trkpt><trkpt lat="46.1214978" lon="13.5149472"><ele>246.25</ele><time>2026-05-02T11:58:15.471Z</time></trkpt><trkpt lat="46.1214847" lon="13.5147223"><ele>245.5</ele><time>2026-05-02T11:58:16.47Z</time></trkpt><trkpt lat="46.1214673" lon="13.5145158"><ele>244.75</ele><time>2026-05-02T11:58:17.469Z</time></trkpt><trkpt lat="46.1214453" lon="13.5143352"><ele>244.0</ele><time>2026-05-02T11:58:18.468Z</time></trkpt><trkpt lat="46.12141" lon="13.5141785"><ele>244.0</ele><time>2026-05-02T11:58:19.468Z</time></trkpt><trkpt lat="46.1213482" lon="13.5140438"><ele>244.0</ele><time>2026-05-02T11:58:20.471Z</time></trkpt><trkpt lat="46.1212608" lon="13.5139313"><ele>244.0</ele><time>2026-05-02T11:58:21.471Z</time></trkpt><trkpt lat="46.1211665" lon="13.5138337"><ele>244.0</ele><time>2026-05-02T11:58:22.469Z</time></trkpt><trkpt lat="46.1210808" lon="13.5137327"><ele>247.25</ele><time>2026-05-02T11:58:23.469Z</time></trkpt><trkpt lat="46.1210115" lon="13.513609"><ele>250.5</ele><time>2026-05-02T11:58:24.47Z</time></trkpt><trkpt lat="46.1209605" lon="13.513456"><ele>253.75</ele><time>2026-05-02T11:58:25.47Z</time></trkpt><trkpt lat="46.1209227" lon="13.513281"><ele>257.0</ele><time>2026-05-02T11:58:26.47Z</time></trkpt><trkpt lat="46.1208863" lon="13.5130873"><ele>258.0</ele><time>2026-05-02T11:58:27.471Z</time></trkpt><trkpt lat="46.1208503" lon="13.5128812"><ele>259.0</ele><time>2026-05-02T11:58:28.47Z</time></trkpt><trkpt lat="46.120824" lon="13.512664"><ele>260.0</ele><time>2026-05-02T11:58:29.471Z</time></trkpt><trkpt lat="46.1208065" lon="13.5124463"><ele>260.0</ele><time>2026-05-02T11:58:30.471Z</time></trkpt><trkpt lat="46.1207853" lon="13.512231"><ele>260.0</ele><time>2026-05-02T11:58:31.469Z</time></trkpt><trkpt lat="46.120685" lon="13.51181"><ele>245.33333333333334</ele><time>2026-05-02T11:58:33.471Z</time></trkpt><trkpt lat="46.1206225" lon="13.5115973"><ele>230.66666666666669</ele><time>2026-05-02T11:58:34.471Z</time></trkpt><trkpt lat="46.1205677" lon="13.5113877"><ele>216.0</ele><time>2026-05-02T11:58:35.47Z</time></trkpt><trkpt lat="46.1205133" lon="13.5111832"><ele>216.0</ele><time>2026-05-02T11:58:36.471Z</time></trkpt><trkpt lat="46.1204397" lon="13.5109957"><ele>216.0</ele><time>2026-05-02T11:58:37.47Z</time></trkpt><trkpt lat="46.1203422" lon="13.5108288"><ele>216.0</ele><time>2026-05-02T11:58:38.47Z</time></trkpt><trkpt lat="46.1202408" lon="13.5106562"><ele>216.0</ele><time>2026-05-02T11:58:39.471Z</time></trkpt><trkpt lat="46.120146" lon="13.510483"><ele>216.0</ele><time>2026-05-02T11:58:40.472Z</time></trkpt><trkpt lat="46.1200585" lon="13.5103143"><ele>216.0</ele><time>2026-05-02T11:58:41.469Z</time></trkpt><trkpt lat="46.1199843" lon="13.5101523"><ele>216.0</ele><time>2026-05-02T11:58:42.47Z</time></trkpt><trkpt lat="46.1199287" lon="13.51001"><ele>216.8</ele><time>2026-05-02T11:58:43.469Z</time></trkpt><trkpt lat="46.11989" lon="13.509898"><ele>217.60000000000002</ele><time>2026-05-02T11:58:44.468Z</time></trkpt><trkpt lat="46.1197987" lon="13.5098373"><ele>218.4</ele><time>2026-05-02T11:58:46.47Z</time></trkpt><trkpt lat="46.1197725" lon="13.5099607"><ele>219.2</ele><time>2026-05-02T11:58:48.469Z</time></trkpt><trkpt lat="46.119853" lon="13.5101343"><ele>220.0</ele><time>2026-05-02T11:58:50.47Z</time></trkpt><trkpt lat="46.1198978" lon="13.5102632"><ele>218.66666666666666</ele><time>2026-05-02T11:58:51.471Z</time></trkpt><trkpt lat="46.1199355" lon="13.5104205"><ele>217.33333333333331</ele><time>2026-05-02T11:58:52.47Z</time></trkpt><trkpt lat="46.1199978" lon="13.5107857"><ele>216.0</ele><time>2026-05-02T11:58:54.471Z</time></trkpt><trkpt lat="46.120028" lon="13.5109838"><ele>216.0</ele><time>2026-05-02T11:58:55.47Z</time></trkpt><trkpt lat="46.1200542" lon="13.5111823"><ele>216.0</ele><time>2026-05-02T11:58:56.47Z</time></trkpt><trkpt lat="46.1200735" lon="13.5113727"><ele>216.0</ele><time>2026-05-02T11:58:57.473Z</time></trkpt><trkpt lat="46.1200768" lon="13.5115555"><ele>216.0</ele><time>2026-05-02T11:58:58.47Z</time></trkpt><trkpt lat="46.1200528" lon="13.5117293"><ele>215.5</ele><time>2026-05-02T11:58:59.47Z</time></trkpt><trkpt lat="46.1200015" lon="13.5118922"><ele>215.0</ele><time>2026-05-02T11:59:00.472Z</time></trkpt><trkpt lat="46.1199383" lon="13.5120448"><ele>214.5</ele><time>2026-05-02T11:59:01.474Z</time></trkpt><trkpt lat="46.1198842" lon="13.5122018"><ele>214.0</ele><time>2026-05-02T11:59:02.471Z</time></trkpt><trkpt lat="46.1198545" lon="13.5123758"><ele>207.39999999999998</ele><time>2026-05-02T11:59:03.473Z</time></trkpt><trkpt lat="46.1198395" lon="13.5125577"><ele>200.79999999999998</ele><time>2026-05-02T11:59:04.471Z</time></trkpt><trkpt lat="46.1198217" lon="13.5127293"><ele>194.2</ele><time>2026-05-02T11:59:05.47Z</time></trkpt><trkpt lat="46.1198018" lon="13.5128762"><ele>187.60000000000002</ele><time>2026-05-02T11:59:06.472Z</time></trkpt><trkpt lat="46.1197743" lon="13.5129973"><ele>181.0</ele><time>2026-05-02T11:59:07.47Z</time></trkpt><trkpt lat="46.1197268" lon="13.5130717"><ele>181.0</ele><time>2026-05-02T11:59:08.473Z</time></trkpt><trkpt lat="46.119627" lon="13.5130358"><ele>181.0</ele><time>2026-05-02T11:59:10.474Z</time></trkpt><trkpt lat="46.119627" lon="13.5128342"><ele>181.0</ele><time>2026-05-02T11:59:12.473Z</time></trkpt><trkpt lat="46.1196422" lon="13.5127002"><ele>181.0</ele><time>2026-05-02T11:59:13.473Z</time></trkpt><trkpt lat="46.1196327" lon="13.5123733"><ele>181.0</ele><time>2026-05-02T11:59:15.474Z</time></trkpt><trkpt lat="46.1196242" lon="13.512192"><ele>181.0</ele><time>2026-05-02T11:59:16.476Z</time></trkpt><trkpt lat="46.1196243" lon="13.5120073"><ele>181.0</ele><time>2026-05-02T11:59:17.474Z</time></trkpt><trkpt lat="46.1196197" lon="13.511831"><ele>181.0</ele><time>2026-05-02T11:59:18.475Z</time></trkpt><trkpt lat="46.1195887" lon="13.5116657"><ele>181.0</ele><time>2026-05-02T11:59:19.474Z</time></trkpt><trkpt lat="46.1195368" lon="13.5115048"><ele>181.0</ele><time>2026-05-02T11:59:20.474Z</time></trkpt><trkpt lat="46.1194757" lon="13.5113523"><ele>181.0</ele><time>2026-05-02T11:59:21.472Z</time></trkpt><trkpt lat="46.1194178" lon="13.5112075"><ele>181.0</ele><time>2026-05-02T11:59:22.471Z</time></trkpt><trkpt lat="46.1193577" lon="13.5110897"><ele>180.20000000000002</ele><time>2026-05-02T11:59:23.472Z</time></trkpt><trkpt lat="46.1192875" lon="13.5110115"><ele>179.4</ele><time>2026-05-02T11:59:24.473Z</time></trkpt><trkpt lat="46.1191948" lon="13.5109772"><ele>178.6</ele><time>2026-05-02T11:59:25.473Z</time></trkpt><trkpt lat="46.1190865" lon="13.5109878"><ele>177.8</ele><time>2026-05-02T11:59:26.471Z</time></trkpt><trkpt lat="46.118965" lon="13.5110207"><ele>177.0</ele><time>2026-05-02T11:59:27.471Z</time></trkpt><trkpt lat="46.1188388" lon="13.5110708"><ele>177.0</ele><time>2026-05-02T11:59:28.47Z</time></trkpt><trkpt lat="46.1187102" lon="13.5111175"><ele>177.0</ele><time>2026-05-02T11:59:29.469Z</time></trkpt><trkpt lat="46.118587" lon="13.5111667"><ele>177.0</ele><time>2026-05-02T11:59:30.47Z</time></trkpt><trkpt lat="46.1184763" lon="13.5112183"><ele>177.0</ele><time>2026-05-02T11:59:31.47Z</time></trkpt><trkpt lat="46.1183643" lon="13.5112523"><ele>173.33333333333334</ele><time>2026-05-02T11:59:32.47Z</time></trkpt><trkpt lat="46.1182418" lon="13.5112568"><ele>169.66666666666669</ele><time>2026-05-02T11:59:33.47Z</time></trkpt><trkpt lat="46.1181182" lon="13.51124"><ele>166.0</ele><time>2026-05-02T11:59:34.475Z</time></trkpt><trkpt lat="46.1178812" lon="13.5111937"><ele>165.60000000000002</ele><time>2026-05-02T11:59:36.473Z</time></trkpt><trkpt lat="46.1177803" lon="13.5111747"><ele>165.2</ele><time>2026-05-02T11:59:37.472Z</time></trkpt><trkpt lat="46.1176957" lon="13.5111607"><ele>164.8</ele><time>2026-05-02T11:59:38.474Z</time></trkpt><trkpt lat="46.1176283" lon="13.5111502"><ele>164.39999999999998</ele><time>2026-05-02T11:59:39.475Z</time></trkpt><trkpt lat="46.117546" lon="13.5110887"><ele>164.0</ele><time>2026-05-02T11:59:41.475Z</time></trkpt><trkpt lat="46.1174868" lon="13.5109045"><ele>164.0</ele><time>2026-05-02T11:59:43.474Z</time></trkpt><trkpt lat="46.1174522" lon="13.5107747"><ele>164.0</ele><time>2026-05-02T11:59:44.474Z</time></trkpt><trkpt lat="46.1174073" lon="13.5106242"><ele>164.0</ele><time>2026-05-02T11:59:45.474Z</time></trkpt><trkpt lat="46.1173575" lon="13.5104575"><ele>164.0</ele><time>2026-05-02T11:59:46.474Z</time></trkpt><trkpt lat="46.1173033" lon="13.5102763"><ele>161.0</ele><time>2026-05-02T11:59:47.473Z</time></trkpt><trkpt lat="46.1172475" lon="13.510084"><ele>158.0</ele><time>2026-05-02T11:59:48.474Z</time></trkpt><trkpt lat="46.1171885" lon="13.5098835"><ele>155.0</ele><time>2026-05-02T11:59:49.473Z</time></trkpt><trkpt lat="46.1171277" lon="13.509679"><ele>154.66666666666666</ele><time>2026-05-02T11:59:50.474Z</time></trkpt><trkpt lat="46.1170663" lon="13.5094708"><ele>154.33333333333334</ele><time>2026-05-02T11:59:51.475Z</time></trkpt><trkpt lat="46.1170052" lon="13.5092558"><ele>154.0</ele><time>2026-05-02T11:59:52.473Z</time></trkpt><trkpt lat="46.1169458" lon="13.5090345"><ele>154.0</ele><time>2026-05-02T11:59:53.476Z</time></trkpt><trkpt lat="46.116889" lon="13.5088093"><ele>154.0</ele><time>2026-05-02T11:59:54.473Z</time></trkpt><trkpt lat="46.1168363" lon="13.5085797"><ele>154.0</ele><time>2026-05-02T11:59:55.474Z</time></trkpt><trkpt lat="46.1167348" lon="13.5081193"><ele>152.66666666666669</ele><time>2026-05-02T11:59:57.473Z</time></trkpt><trkpt lat="46.1166725" lon="13.5078937"><ele>151.33333333333334</ele><time>2026-05-02T11:59:58.476Z</time></trkpt><trkpt lat="46.1165977" lon="13.5076752"><ele>150.0</ele><time>2026-05-02T11:59:59.474Z</time></trkpt><trkpt lat="46.1165057" lon="13.5074688"><ele>149.0</ele><time>2026-05-02T12:00:00.474Z</time></trkpt><trkpt lat="46.1163972" lon="13.5072767"><ele>148.0</ele><time>2026-05-02T12:00:01.474Z</time></trkpt><trkpt lat="46.1162765" lon="13.5070963"><ele>147.0</ele><time>2026-05-02T12:00:02.473Z</time></trkpt><trkpt lat="46.1161525" lon="13.506929"><ele>147.0</ele><time>2026-05-02T12:00:03.474Z</time></trkpt><trkpt lat="46.116031" lon="13.5067672"><ele>147.0</ele><time>2026-05-02T12:00:04.474Z</time></trkpt><trkpt lat="46.1159165" lon="13.5066012"><ele>147.0</ele><time>2026-05-02T12:00:05.474Z</time></trkpt><trkpt lat="46.1158142" lon="13.5064207"><ele>146.0</ele><time>2026-05-02T12:00:06.477Z</time></trkpt><trkpt lat="46.1157255" lon="13.5062273"><ele>145.0</ele><time>2026-05-02T12:00:07.474Z</time></trkpt><trkpt lat="46.1156525" lon="13.5060247"><ele>144.0</ele><time>2026-05-02T12:00:08.474Z</time></trkpt><trkpt lat="46.1156007" lon="13.5058258"><ele>144.0</ele><time>2026-05-02T12:00:09.474Z</time></trkpt><trkpt lat="46.1155665" lon="13.5056163"><ele>144.0</ele><time>2026-05-02T12:00:10.473Z</time></trkpt><trkpt lat="46.1155453" lon="13.505395"><ele>144.0</ele><time>2026-05-02T12:00:11.474Z</time></trkpt><trkpt lat="46.1155268" lon="13.5051638"><ele>144.33333333333334</ele><time>2026-05-02T12:00:12.474Z</time></trkpt><trkpt lat="46.1155085" lon="13.5049228"><ele>144.66666666666669</ele><time>2026-05-02T12:00:13.474Z</time></trkpt><trkpt lat="46.1154885" lon="13.504673"><ele>145.0</ele><time>2026-05-02T12:00:14.474Z</time></trkpt><trkpt lat="46.1154645" lon="13.504417"><ele>144.0</ele><time>2026-05-02T12:00:15.474Z</time></trkpt><trkpt lat="46.1154352" lon="13.5041585"><ele>143.0</ele><time>2026-05-02T12:00:16.475Z</time></trkpt><trkpt lat="46.1153507" lon="13.5036448"><ele>143.0</ele><time>2026-05-02T12:00:18.474Z</time></trkpt><trkpt lat="46.1152965" lon="13.5033927"><ele>143.0</ele><time>2026-05-02T12:00:19.472Z</time></trkpt><trkpt lat="46.1152383" lon="13.5031443"><ele>143.0</ele><time>2026-05-02T12:00:20.473Z</time></trkpt><trkpt lat="46.1151797" lon="13.5029007"><ele>144.0</ele><time>2026-05-02T12:00:21.472Z</time></trkpt><trkpt lat="46.1151232" lon="13.5026657"><ele>145.0</ele><time>2026-05-02T12:00:22.472Z</time></trkpt><trkpt lat="46.1150695" lon="13.5024403"><ele>146.0</ele><time>2026-05-02T12:00:23.474Z</time></trkpt><trkpt lat="46.115019" lon="13.5022217"><ele>145.33333333333331</ele><time>2026-05-02T12:00:24.475Z</time></trkpt><trkpt lat="46.114976" lon="13.502004"><ele>144.66666666666666</ele><time>2026-05-02T12:00:25.475Z</time></trkpt><trkpt lat="46.114949" lon="13.501783"><ele>144.0</ele><time>2026-05-02T12:00:26.475Z</time></trkpt><trkpt lat="46.1149462" lon="13.5015587"><ele>144.0</ele><time>2026-05-02T12:00:27.474Z</time></trkpt><trkpt lat="46.1149702" lon="13.5013335"><ele>144.0</ele><time>2026-05-02T12:00:28.474Z</time></trkpt><trkpt lat="46.1150188" lon="13.5011103"><ele>144.0</ele><time>2026-05-02T12:00:29.475Z</time></trkpt><trkpt lat="46.115088" lon="13.5008932"><ele>144.33333333333334</ele><time>2026-05-02T12:00:30.474Z</time></trkpt><trkpt lat="46.1151707" lon="13.5006823"><ele>144.66666666666669</ele><time>2026-05-02T12:00:31.474Z</time></trkpt><trkpt lat="46.1152585" lon="13.5004742"><ele>145.0</ele><time>2026-05-02T12:00:32.474Z</time></trkpt><trkpt lat="46.1153453" lon="13.500265"><ele>145.33333333333334</ele><time>2026-05-02T12:00:33.474Z</time></trkpt><trkpt lat="46.115429" lon="13.5000545"><ele>145.66666666666666</ele><time>2026-05-02T12:00:34.475Z</time></trkpt><trkpt lat="46.115508" lon="13.4998437"><ele>146.0</ele><time>2026-05-02T12:00:35.474Z</time></trkpt><trkpt lat="46.1155817" lon="13.4996297"><ele>146.5</ele><time>2026-05-02T12:00:36.474Z</time></trkpt><trkpt lat="46.1156505" lon="13.4994103"><ele>147.0</ele><time>2026-05-02T12:00:37.475Z</time></trkpt><trkpt lat="46.1157768" lon="13.4989645"><ele>145.33333333333334</ele><time>2026-05-02T12:00:39.474Z</time></trkpt><trkpt lat="46.1158403" lon="13.4987422"><ele>143.66666666666669</ele><time>2026-05-02T12:00:40.474Z</time></trkpt><trkpt lat="46.1159037" lon="13.4985215"><ele>142.0</ele><time>2026-05-02T12:00:41.474Z</time></trkpt><trkpt lat="46.1159672" lon="13.4983017"><ele>142.0</ele><time>2026-05-02T12:00:42.474Z</time></trkpt><trkpt lat="46.116035" lon="13.4980885"><ele>142.0</ele><time>2026-05-02T12:00:43.472Z</time></trkpt><trkpt lat="46.1161098" lon="13.497884"><ele>142.0</ele><time>2026-05-02T12:00:44.476Z</time></trkpt><trkpt lat="46.1161938" lon="13.4976882"><ele>140.66666666666669</ele><time>2026-05-02T12:00:45.473Z</time></trkpt><trkpt lat="46.1162887" lon="13.4975027"><ele>139.33333333333334</ele><time>2026-05-02T12:00:46.473Z</time></trkpt><trkpt lat="46.1163955" lon="13.4973278"><ele>138.0</ele><time>2026-05-02T12:00:47.474Z</time></trkpt><trkpt lat="46.11651" lon="13.4971587"><ele>138.0</ele><time>2026-05-02T12:00:48.475Z</time></trkpt><trkpt lat="46.1166323" lon="13.4969907"><ele>138.0</ele><time>2026-05-02T12:00:49.474Z</time></trkpt><trkpt lat="46.1167583" lon="13.4968182"><ele>138.0</ele><time>2026-05-02T12:00:50.474Z</time></trkpt><trkpt lat="46.1168882" lon="13.4966423"><ele>138.0</ele><time>2026-05-02T12:00:51.475Z</time></trkpt><trkpt lat="46.117021" lon="13.4964623"><ele>138.0</ele><time>2026-05-02T12:00:52.475Z</time></trkpt><trkpt lat="46.1171567" lon="13.4962785"><ele>138.0</ele><time>2026-05-02T12:00:53.474Z</time></trkpt><trkpt lat="46.1172957" lon="13.4960938"><ele>139.0</ele><time>2026-05-02T12:00:54.474Z</time></trkpt><trkpt lat="46.1174385" lon="13.4959117"><ele>140.0</ele><time>2026-05-02T12:00:55.474Z</time></trkpt><trkpt lat="46.1175837" lon="13.4957332"><ele>141.0</ele><time>2026-05-02T12:00:56.474Z</time></trkpt><trkpt lat="46.1177287" lon="13.4955562"><ele>142.0</ele><time>2026-05-02T12:00:57.474Z</time></trkpt><trkpt lat="46.117871" lon="13.4953802"><ele>143.0</ele><time>2026-05-02T12:00:58.477Z</time></trkpt><trkpt lat="46.118145" lon="13.4950342"><ele>143.33333333333331</ele><time>2026-05-02T12:01:00.478Z</time></trkpt><trkpt lat="46.1182738" lon="13.4948692"><ele>143.66666666666666</ele><time>2026-05-02T12:01:01.475Z</time></trkpt><trkpt lat="46.1183963" lon="13.4947135"><ele>144.0</ele><time>2026-05-02T12:01:02.474Z</time></trkpt><trkpt lat="46.118514" lon="13.4945623"><ele>144.25</ele><time>2026-05-02T12:01:03.474Z</time></trkpt><trkpt lat="46.1186267" lon="13.4944147"><ele>144.5</ele><time>2026-05-02T12:01:04.477Z</time></trkpt><trkpt lat="46.118734" lon="13.4942745"><ele>144.75</ele><time>2026-05-02T12:01:05.475Z</time></trkpt><trkpt lat="46.1188333" lon="13.4941445"><ele>145.0</ele><time>2026-05-02T12:01:06.478Z</time></trkpt><trkpt lat="46.1189238" lon="13.4940245"><ele>145.0</ele><time>2026-05-02T12:01:07.475Z</time></trkpt><trkpt lat="46.1190068" lon="13.4939143"><ele>145.0</ele><time>2026-05-02T12:01:08.472Z</time></trkpt><trkpt lat="46.1190842" lon="13.4938222"><ele>145.0</ele><time>2026-05-02T12:01:09.473Z</time></trkpt><trkpt lat="46.1191632" lon="13.493756"><ele>145.0</ele><time>2026-05-02T12:01:10.475Z</time></trkpt><trkpt lat="46.1192555" lon="13.4937203"><ele>145.0</ele><time>2026-05-02T12:01:11.472Z</time></trkpt><trkpt lat="46.119362" lon="13.4937222"><ele>145.0</ele><time>2026-05-02T12:01:12.474Z</time></trkpt><trkpt lat="46.1194817" lon="13.493752"><ele>145.0</ele><time>2026-05-02T12:01:13.474Z</time></trkpt><trkpt lat="46.1196123" lon="13.4937985"><ele>145.0</ele><time>2026-05-02T12:01:14.474Z</time></trkpt><trkpt lat="46.1197532" lon="13.4938525"><ele>145.0</ele><time>2026-05-02T12:01:15.475Z</time></trkpt><trkpt lat="46.119907" lon="13.4939107"><ele>146.0</ele><time>2026-05-02T12:01:16.475Z</time></trkpt><trkpt lat="46.120066" lon="13.4939707"><ele>147.0</ele><time>2026-05-02T12:01:17.474Z</time></trkpt><trkpt lat="46.1202305" lon="13.4940333"><ele>148.0</ele><time>2026-05-02T12:01:18.474Z</time></trkpt><trkpt lat="46.1203998" lon="13.4940998"><ele>149.0</ele><time>2026-05-02T12:01:19.474Z</time></trkpt><trkpt lat="46.1207448" lon="13.4942395"><ele>150.0</ele><time>2026-05-02T12:01:21.475Z</time></trkpt><trkpt lat="46.1209187" lon="13.4943185"><ele>150.0</ele><time>2026-05-02T12:01:22.475Z</time></trkpt><trkpt lat="46.1210917" lon="13.494407"><ele>150.0</ele><time>2026-05-02T12:01:23.474Z</time></trkpt><trkpt lat="46.1212638" lon="13.4945062"><ele>150.0</ele><time>2026-05-02T12:01:24.474Z</time></trkpt><trkpt lat="46.1214342" lon="13.494613"><ele>151.66666666666666</ele><time>2026-05-02T12:01:25.474Z</time></trkpt><trkpt lat="46.1215993" lon="13.4947262"><ele>153.33333333333331</ele><time>2026-05-02T12:01:26.472Z</time></trkpt><trkpt lat="46.1217597" lon="13.4948382"><ele>155.0</ele><time>2026-05-02T12:01:27.473Z</time></trkpt><trkpt lat="46.1219143" lon="13.4949472"><ele>155.0</ele><time>2026-05-02T12:01:28.472Z</time></trkpt><trkpt lat="46.1220628" lon="13.4950532"><ele>155.0</ele><time>2026-05-02T12:01:29.473Z</time></trkpt><trkpt lat="46.1222058" lon="13.4951552"><ele>155.0</ele><time>2026-05-02T12:01:30.473Z</time></trkpt><trkpt lat="46.1223382" lon="13.4952502"><ele>156.0</ele><time>2026-05-02T12:01:31.472Z</time></trkpt><trkpt lat="46.1224598" lon="13.4953363"><ele>157.0</ele><time>2026-05-02T12:01:32.471Z</time></trkpt><trkpt lat="46.1225783" lon="13.4954242"><ele>158.0</ele><time>2026-05-02T12:01:33.472Z</time></trkpt><trkpt lat="46.122695" lon="13.4955105"><ele>159.0</ele><time>2026-05-02T12:01:34.472Z</time></trkpt><trkpt lat="46.1228172" lon="13.4956017"><ele>158.33333333333334</ele><time>2026-05-02T12:01:35.471Z</time></trkpt><trkpt lat="46.1229485" lon="13.4956872"><ele>157.66666666666669</ele><time>2026-05-02T12:01:36.472Z</time></trkpt><trkpt lat="46.1230883" lon="13.4957712"><ele>157.0</ele><time>2026-05-02T12:01:37.474Z</time></trkpt><trkpt lat="46.1232388" lon="13.4958563"><ele>157.0</ele><time>2026-05-02T12:01:38.474Z</time></trkpt><trkpt lat="46.1233968" lon="13.495937"><ele>157.0</ele><time>2026-05-02T12:01:39.473Z</time></trkpt><trkpt lat="46.1235588" lon="13.49601"><ele>157.0</ele><time>2026-05-02T12:01:40.474Z</time></trkpt><trkpt lat="46.1238902" lon="13.4961358"><ele>157.0</ele><time>2026-05-02T12:01:42.474Z</time></trkpt><trkpt lat="46.124053" lon="13.496192"><ele>157.0</ele><time>2026-05-02T12:01:43.474Z</time></trkpt><trkpt lat="46.124216" lon="13.4962452"><ele>157.0</ele><time>2026-05-02T12:01:44.475Z</time></trkpt><trkpt lat="46.1243817" lon="13.4962885"><ele>154.5</ele><time>2026-05-02T12:01:45.473Z</time></trkpt><trkpt lat="46.1245505" lon="13.4963122"><ele>152.0</ele><time>2026-05-02T12:01:46.473Z</time></trkpt><trkpt lat="46.1248935" lon="13.496295"><ele>153.0</ele><time>2026-05-02T12:01:48.482Z</time></trkpt><trkpt lat="46.125063" lon="13.4962645"><ele>154.0</ele><time>2026-05-02T12:01:49.471Z</time></trkpt><trkpt lat="46.1252297" lon="13.4962362"><ele>155.0</ele><time>2026-05-02T12:01:50.475Z</time></trkpt><trkpt lat="46.125387" lon="13.4962212"><ele>154.0</ele><time>2026-05-02T12:01:51.472Z</time></trkpt><trkpt lat="46.1255287" lon="13.4962232"><ele>153.0</ele><time>2026-05-02T12:01:52.47Z</time></trkpt><trkpt lat="46.1256563" lon="13.4962413"><ele>152.0</ele><time>2026-05-02T12:01:53.472Z</time></trkpt><trkpt lat="46.125779" lon="13.4962705"><ele>151.0</ele><time>2026-05-02T12:01:54.471Z</time></trkpt><trkpt lat="46.1259013" lon="13.4963053"><ele>151.0</ele><time>2026-05-02T12:01:55.472Z</time></trkpt><trkpt lat="46.1260238" lon="13.4963515"><ele>151.0</ele><time>2026-05-02T12:01:56.471Z</time></trkpt><trkpt lat="46.1261472" lon="13.4964123"><ele>151.0</ele><time>2026-05-02T12:01:57.472Z</time></trkpt><trkpt lat="46.1262588" lon="13.4964767"><ele>151.0</ele><time>2026-05-02T12:01:58.471Z</time></trkpt><trkpt lat="46.1263553" lon="13.496538"><ele>151.0</ele><time>2026-05-02T12:01:59.47Z</time></trkpt><trkpt lat="46.1264372" lon="13.496588"><ele>151.0</ele><time>2026-05-02T12:02:00.471Z</time></trkpt><trkpt lat="46.1265068" lon="13.49662"><ele>151.0</ele><time>2026-05-02T12:02:01.473Z</time></trkpt><trkpt lat="46.1266793" lon="13.4965435"><ele>151.0</ele><time>2026-05-02T12:02:04.475Z</time></trkpt><trkpt lat="46.1267298" lon="13.4964752"><ele>151.0</ele><time>2026-05-02T12:02:05.473Z</time></trkpt><trkpt lat="46.1267943" lon="13.4964083"><ele>152.6</ele><time>2026-05-02T12:02:06.474Z</time></trkpt><trkpt lat="46.1268668" lon="13.4963455"><ele>154.2</ele><time>2026-05-02T12:02:07.475Z</time></trkpt><trkpt lat="46.1269463" lon="13.4962812"><ele>155.8</ele><time>2026-05-02T12:02:08.472Z</time></trkpt><trkpt lat="46.1270265" lon="13.4962088"><ele>157.4</ele><time>2026-05-02T12:02:09.473Z</time></trkpt><trkpt lat="46.127108" lon="13.496128"><ele>159.0</ele><time>2026-05-02T12:02:10.473Z</time></trkpt><trkpt lat="46.1271915" lon="13.4960472"><ele>159.8</ele><time>2026-05-02T12:02:11.475Z</time></trkpt><trkpt lat="46.1272723" lon="13.4959638"><ele>160.60000000000002</ele><time>2026-05-02T12:02:12.473Z</time></trkpt><trkpt lat="46.1273548" lon="13.495893"><ele>161.4</ele><time>2026-05-02T12:02:13.482Z</time></trkpt><trkpt lat="46.1274433" lon="13.4958388"><ele>162.20000000000002</ele><time>2026-05-02T12:02:14.472Z</time></trkpt><trkpt lat="46.1275333" lon="13.495799"><ele>163.0</ele><time>2026-05-02T12:02:15.473Z</time></trkpt><trkpt lat="46.1276265" lon="13.4957667"><ele>163.0</ele><time>2026-05-02T12:02:16.473Z</time></trkpt><trkpt lat="46.1277275" lon="13.49575"><ele>163.0</ele><time>2026-05-02T12:02:17.473Z</time></trkpt><trkpt lat="46.1278363" lon="13.4957362"><ele>163.0</ele><time>2026-05-02T12:02:18.473Z</time></trkpt><trkpt lat="46.1279482" lon="13.4957195"><ele>163.0</ele><time>2026-05-02T12:02:19.474Z</time></trkpt><trkpt lat="46.128062" lon="13.4956893"><ele>163.0</ele><time>2026-05-02T12:02:20.473Z</time></trkpt><trkpt lat="46.1281765" lon="13.4956515"><ele>164.33333333333334</ele><time>2026-05-02T12:02:21.472Z</time></trkpt><trkpt lat="46.1282922" lon="13.4956113"><ele>165.66666666666666</ele><time>2026-05-02T12:02:22.471Z</time></trkpt><trkpt lat="46.1285343" lon="13.4955445"><ele>167.0</ele><time>2026-05-02T12:02:24.471Z</time></trkpt><trkpt lat="46.128661" lon="13.4955233"><ele>167.0</ele><time>2026-05-02T12:02:25.47Z</time></trkpt><trkpt lat="46.1287898" lon="13.4955107"><ele>167.0</ele><time>2026-05-02T12:02:26.471Z</time></trkpt><trkpt lat="46.1289153" lon="13.4955098"><ele>167.0</ele><time>2026-05-02T12:02:27.471Z</time></trkpt><trkpt lat="46.1290345" lon="13.4955157"><ele>167.0</ele><time>2026-05-02T12:02:28.471Z</time></trkpt><trkpt lat="46.1291515" lon="13.495522"><ele>167.2</ele><time>2026-05-02T12:02:29.472Z</time></trkpt><trkpt lat="46.1292595" lon="13.495535"><ele>167.39999999999998</ele><time>2026-05-02T12:02:30.472Z</time></trkpt><trkpt lat="46.129355" lon="13.4955602"><ele>167.60000000000002</ele><time>2026-05-02T12:02:31.476Z</time></trkpt><trkpt lat="46.1294413" lon="13.4956033"><ele>167.8</ele><time>2026-05-02T12:02:32.473Z</time></trkpt><trkpt lat="46.1295205" lon="13.4956625"><ele>168.0</ele><time>2026-05-02T12:02:33.473Z</time></trkpt><trkpt lat="46.1295928" lon="13.4957215"><ele>168.0</ele><time>2026-05-02T12:02:34.473Z</time></trkpt><trkpt lat="46.1296695" lon="13.495758"><ele>168.0</ele><time>2026-05-02T12:02:35.472Z</time></trkpt><trkpt lat="46.1297487" lon="13.4957765"><ele>168.0</ele><time>2026-05-02T12:02:36.473Z</time></trkpt><trkpt lat="46.1298252" lon="13.4957743"><ele>168.0</ele><time>2026-05-02T12:02:37.474Z</time></trkpt><trkpt lat="46.1298977" lon="13.4957482"><ele>168.0</ele><time>2026-05-02T12:02:38.473Z</time></trkpt><trkpt lat="46.1299623" lon="13.4956978"><ele>168.0</ele><time>2026-05-02T12:02:39.473Z</time></trkpt><trkpt lat="46.13002" lon="13.4956278"><ele>168.8</ele><time>2026-05-02T12:02:40.474Z</time></trkpt><trkpt lat="46.1300728" lon="13.4955578"><ele>169.60000000000002</ele><time>2026-05-02T12:02:41.472Z</time></trkpt><trkpt lat="46.1301355" lon="13.4955032"><ele>170.39999999999998</ele><time>2026-05-02T12:02:42.477Z</time></trkpt><trkpt lat="46.1302097" lon="13.4954703"><ele>171.2</ele><time>2026-05-02T12:02:43.473Z</time></trkpt><trkpt lat="46.1303922" lon="13.4954597"><ele>172.0</ele><time>2026-05-02T12:02:45.473Z</time></trkpt><trkpt lat="46.1304915" lon="13.4954538"><ele>172.0</ele><time>2026-05-02T12:02:46.47Z</time></trkpt><trkpt lat="46.1305827" lon="13.4954578"><ele>172.0</ele><time>2026-05-02T12:02:47.472Z</time></trkpt><trkpt lat="46.1306583" lon="13.4954825"><ele>172.0</ele><time>2026-05-02T12:02:48.472Z</time></trkpt><trkpt lat="46.130728" lon="13.4955352"><ele>172.0</ele><time>2026-05-02T12:02:49.47Z</time></trkpt><trkpt lat="46.1307927" lon="13.4956103"><ele>172.0</ele><time>2026-05-02T12:02:50.472Z</time></trkpt><trkpt lat="46.1308555" lon="13.4956945"><ele>172.0</ele><time>2026-05-02T12:02:51.473Z</time></trkpt><trkpt lat="46.1309098" lon="13.4957753"><ele>172.83333333333334</ele><time>2026-05-02T12:02:52.472Z</time></trkpt><trkpt lat="46.1309573" lon="13.4958593"><ele>173.66666666666669</ele><time>2026-05-02T12:02:53.473Z</time></trkpt><trkpt lat="46.1310028" lon="13.4959352"><ele>174.5</ele><time>2026-05-02T12:02:54.472Z</time></trkpt><trkpt lat="46.1310602" lon="13.4959932"><ele>175.33333333333334</ele><time>2026-05-02T12:02:55.473Z</time></trkpt><trkpt lat="46.1311268" lon="13.4960412"><ele>176.16666666666666</ele><time>2026-05-02T12:02:56.472Z</time></trkpt><trkpt lat="46.1312028" lon="13.4960793"><ele>177.0</ele><time>2026-05-02T12:02:57.473Z</time></trkpt><trkpt lat="46.1312853" lon="13.4961115"><ele>177.0</ele><time>2026-05-02T12:02:58.472Z</time></trkpt><trkpt lat="46.1313693" lon="13.4961283"><ele>177.0</ele><time>2026-05-02T12:02:59.474Z</time></trkpt><trkpt lat="46.1314543" lon="13.496128"><ele>177.0</ele><time>2026-05-02T12:03:00.473Z</time></trkpt><trkpt lat="46.1315422" lon="13.4961212"><ele>177.0</ele><time>2026-05-02T12:03:01.473Z</time></trkpt><trkpt lat="46.1316297" lon="13.4961002"><ele>177.0</ele><time>2026-05-02T12:03:02.473Z</time></trkpt><trkpt lat="46.1317085" lon="13.4960487"><ele>177.0</ele><time>2026-05-02T12:03:03.476Z</time></trkpt><trkpt lat="46.1317762" lon="13.495964"><ele>177.5</ele><time>2026-05-02T12:03:04.474Z</time></trkpt><trkpt lat="46.1318928" lon="13.495729"><ele>178.0</ele><time>2026-05-02T12:03:06.473Z</time></trkpt><trkpt lat="46.1319327" lon="13.4956037"><ele>178.5</ele><time>2026-05-02T12:03:07.472Z</time></trkpt><trkpt lat="46.1319367" lon="13.4954605"><ele>179.0</ele><time>2026-05-02T12:03:09.481Z</time></trkpt><trkpt lat="46.1318495" lon="13.49542"><ele>182.0</ele><time>2026-05-02T12:03:11.47Z</time></trkpt><trkpt lat="46.131761" lon="13.4954168"><ele>185.0</ele><time>2026-05-02T12:03:12.471Z</time></trkpt><trkpt lat="46.1316567" lon="13.4954073"><ele>188.0</ele><time>2026-05-02T12:03:13.471Z</time></trkpt><trkpt lat="46.1315417" lon="13.4953845"><ele>191.0</ele><time>2026-05-02T12:03:14.472Z</time></trkpt><trkpt lat="46.131427" lon="13.4953868"><ele>194.0</ele><time>2026-05-02T12:03:15.472Z</time></trkpt><trkpt lat="46.1313327" lon="13.4954095"><ele>194.00000000000003</ele><time>2026-05-02T12:03:16.473Z</time></trkpt><trkpt lat="46.1312547" lon="13.4954187"><ele>194.0</ele><time>2026-05-02T12:03:17.472Z</time></trkpt><trkpt lat="46.1311867" lon="13.4953938"><ele>194.0</ele><time>2026-05-02T12:03:18.473Z</time></trkpt><trkpt lat="46.1311172" lon="13.4953253"><ele>194.0</ele><time>2026-05-02T12:03:19.474Z</time></trkpt><trkpt lat="46.1310488" lon="13.4952217"><ele>194.00000000000003</ele><time>2026-05-02T12:03:20.473Z</time></trkpt><trkpt lat="46.13098" lon="13.495106"><ele>194.0</ele><time>2026-05-02T12:03:21.473Z</time></trkpt><trkpt lat="46.1309047" lon="13.4950062"><ele>194.0</ele><time>2026-05-02T12:03:22.472Z</time></trkpt><trkpt lat="46.1308095" lon="13.494936"><ele>194.0</ele><time>2026-05-02T12:03:23.472Z</time></trkpt><trkpt lat="46.1306987" lon="13.4949058"><ele>194.0</ele><time>2026-05-02T12:03:24.473Z</time></trkpt><trkpt lat="46.1305812" lon="13.4949085"><ele>194.0</ele><time>2026-05-02T12:03:25.473Z</time></trkpt><trkpt lat="46.1303833" lon="13.4949173"><ele>193.16666666666669</ele><time>2026-05-02T12:03:27.474Z</time></trkpt><trkpt lat="46.1303217" lon="13.49488"><ele>192.33333333333334</ele><time>2026-05-02T12:03:28.473Z</time></trkpt><trkpt lat="46.1302748" lon="13.4947092"><ele>191.5</ele><time>2026-05-02T12:03:30.473Z</time></trkpt><trkpt lat="46.1302675" lon="13.4945942"><ele>190.66666666666669</ele><time>2026-05-02T12:03:31.473Z</time></trkpt><trkpt lat="46.1302463" lon="13.4944807"><ele>189.83333333333334</ele><time>2026-05-02T12:03:32.472Z</time></trkpt><trkpt lat="46.1302033" lon="13.4943757"><ele>189.0</ele><time>2026-05-02T12:03:33.473Z</time></trkpt><trkpt lat="46.1301407" lon="13.4942975"><ele>193.0</ele><time>2026-05-02T12:03:34.472Z</time></trkpt><trkpt lat="46.1300635" lon="13.494243"><ele>197.0</ele><time>2026-05-02T12:03:35.47Z</time></trkpt><trkpt lat="46.1299717" lon="13.4942332"><ele>201.0</ele><time>2026-05-02T12:03:36.472Z</time></trkpt><trkpt lat="46.1298785" lon="13.4942477"><ele>205.0</ele><time>2026-05-02T12:03:37.47Z</time></trkpt><trkpt lat="46.1297775" lon="13.4942585"><ele>209.0</ele><time>2026-05-02T12:03:38.47Z</time></trkpt><trkpt lat="46.1297002" lon="13.4942323"><ele>209.00000000000003</ele><time>2026-05-02T12:03:39.472Z</time></trkpt><trkpt lat="46.1296607" lon="13.4941473"><ele>209.0</ele><time>2026-05-02T12:03:41.473Z</time></trkpt><trkpt lat="46.1297143" lon="13.4940845"><ele>209.0</ele><time>2026-05-02T12:03:43.472Z</time></trkpt><trkpt lat="46.1297727" lon="13.4940427"><ele>209.0</ele><time>2026-05-02T12:03:44.478Z</time></trkpt><trkpt lat="46.1298498" lon="13.4940007"><ele>209.00000000000003</ele><time>2026-05-02T12:03:45.473Z</time></trkpt><trkpt lat="46.1299183" lon="13.4939568"><ele>209.0</ele><time>2026-05-02T12:03:46.472Z</time></trkpt><trkpt lat="46.130041" lon="13.4938885"><ele>209.00000000000003</ele><time>2026-05-02T12:03:49.472Z</time></trkpt><trkpt lat="46.1301087" lon="13.4938605"><ele>209.0</ele><time>2026-05-02T12:03:51.472Z</time></trkpt><trkpt lat="46.1302313" lon="13.49383"><ele>209.0</ele><time>2026-05-02T12:03:53.473Z</time></trkpt><trkpt lat="46.1303038" lon="13.4938238"><ele>209.0</ele><time>2026-05-02T12:03:54.473Z</time></trkpt><trkpt lat="46.1303788" lon="13.4938158"><ele>209.00000000000003</ele><time>2026-05-02T12:03:55.472Z</time></trkpt><trkpt lat="46.1304448" lon="13.4937762"><ele>209.0</ele><time>2026-05-02T12:03:56.475Z</time></trkpt><trkpt lat="46.130501" lon="13.493699"><ele>213.2</ele><time>2026-05-02T12:03:57.473Z</time></trkpt><trkpt lat="46.1305478" lon="13.4935882"><ele>217.39999999999998</ele><time>2026-05-02T12:03:58.473Z</time></trkpt><trkpt lat="46.1305848" lon="13.4934615"><ele>221.6</ele><time>2026-05-02T12:03:59.471Z</time></trkpt><trkpt lat="46.1306168" lon="13.4933247"><ele>225.8</ele><time>2026-05-02T12:04:00.47Z</time></trkpt><trkpt lat="46.130651" lon="13.4932055"><ele>230.0</ele><time>2026-05-02T12:04:01.47Z</time></trkpt><trkpt lat="46.1307048" lon="13.493012"><ele>229.0</ele><time>2026-05-02T12:04:03.473Z</time></trkpt><trkpt lat="46.1307695" lon="13.4929225"><ele>228.0</ele><time>2026-05-02T12:04:05.474Z</time></trkpt><trkpt lat="46.1308677" lon="13.4928787"><ele>227.0</ele><time>2026-05-02T12:04:07.474Z</time></trkpt><trkpt lat="46.1309738" lon="13.4928253"><ele>226.0</ele><time>2026-05-02T12:04:09.475Z</time></trkpt><trkpt lat="46.1310957" lon="13.4927303"><ele>225.0</ele><time>2026-05-02T12:04:11.474Z</time></trkpt><trkpt lat="46.1311565" lon="13.4926657"><ele>225.0</ele><time>2026-05-02T12:04:12.476Z</time></trkpt><trkpt lat="46.1312168" lon="13.4926165"><ele>225.0</ele><time>2026-05-02T12:04:13.473Z</time></trkpt><trkpt lat="46.131321" lon="13.4926118"><ele>225.0</ele><time>2026-05-02T12:04:15.474Z</time></trkpt><trkpt lat="46.1314237" lon="13.4927155"><ele>225.0</ele><time>2026-05-02T12:04:17.473Z</time></trkpt><trkpt lat="46.131484" lon="13.4927882"><ele>225.0</ele><time>2026-05-02T12:04:18.473Z</time></trkpt><trkpt lat="46.1315458" lon="13.4928643"><ele>227.83333333333334</ele><time>2026-05-02T12:04:19.473Z</time></trkpt><trkpt lat="46.1316123" lon="13.4929488"><ele>230.66666666666669</ele><time>2026-05-02T12:04:20.474Z</time></trkpt><trkpt lat="46.1316772" lon="13.493027"><ele>233.5</ele><time>2026-05-02T12:04:21.473Z</time></trkpt><trkpt lat="46.1317435" lon="13.4930898"><ele>236.33333333333334</ele><time>2026-05-02T12:04:22.472Z</time></trkpt><trkpt lat="46.131814" lon="13.4931365"><ele>239.16666666666669</ele><time>2026-05-02T12:04:23.472Z</time></trkpt><trkpt lat="46.131883" lon="13.4931837"><ele>242.0</ele><time>2026-05-02T12:04:24.47Z</time></trkpt><trkpt lat="46.1319542" lon="13.4932047"><ele>242.0</ele><time>2026-05-02T12:04:25.47Z</time></trkpt><trkpt lat="46.1320308" lon="13.4932247"><ele>242.0</ele><time>2026-05-02T12:04:26.471Z</time></trkpt><trkpt lat="46.1320997" lon="13.4932265"><ele>242.0</ele><time>2026-05-02T12:04:27.47Z</time></trkpt><trkpt lat="46.1322123" lon="13.4932582"><ele>242.0</ele><time>2026-05-02T12:04:29.473Z</time></trkpt><trkpt lat="46.1323077" lon="13.4933457"><ele>242.0</ele><time>2026-05-02T12:04:31.474Z</time></trkpt><trkpt lat="46.1324233" lon="13.4935232"><ele>241.0</ele><time>2026-05-02T12:04:33.474Z</time></trkpt><trkpt lat="46.1324915" lon="13.493623"><ele>240.0</ele><time>2026-05-02T12:04:34.475Z</time></trkpt><trkpt lat="46.1325738" lon="13.493726"><ele>239.0</ele><time>2026-05-02T12:04:35.474Z</time></trkpt><trkpt lat="46.1326543" lon="13.4938302"><ele>238.0</ele><time>2026-05-02T12:04:36.473Z</time></trkpt><trkpt lat="46.1327338" lon="13.49394"><ele>237.0</ele><time>2026-05-02T12:04:37.473Z</time></trkpt><trkpt lat="46.1328105" lon="13.4940472"><ele>235.0</ele><time>2026-05-02T12:04:38.473Z</time></trkpt><trkpt lat="46.1328863" lon="13.4941375"><ele>233.0</ele><time>2026-05-02T12:04:39.474Z</time></trkpt><trkpt lat="46.1329617" lon="13.4942172"><ele>231.0</ele><time>2026-05-02T12:04:40.472Z</time></trkpt><trkpt lat="46.1330342" lon="13.4942842"><ele>229.0</ele><time>2026-05-02T12:04:41.472Z</time></trkpt><trkpt lat="46.1330952" lon="13.4943402"><ele>227.0</ele><time>2026-05-02T12:04:42.473Z</time></trkpt><trkpt lat="46.1331717" lon="13.494471"><ele>227.00000000000003</ele><time>2026-05-02T12:04:44.471Z</time></trkpt><trkpt lat="46.1331955" lon="13.4945695"><ele>227.0</ele><time>2026-05-02T12:04:45.472Z</time></trkpt><trkpt lat="46.1332183" lon="13.4946775"><ele>227.0</ele><time>2026-05-02T12:04:46.471Z</time></trkpt><trkpt lat="46.1332458" lon="13.4948027"><ele>227.0</ele><time>2026-05-02T12:04:47.672Z</time></trkpt><trkpt lat="46.1333" lon="13.4949572"><ele>227.00000000000003</ele><time>2026-05-02T12:04:49.278Z</time></trkpt><trkpt lat="46.1333442" lon="13.4950302"><ele>227.0</ele><time>2026-05-02T12:04:50.279Z</time></trkpt><trkpt lat="46.133404" lon="13.4951172"><ele>230.25</ele><time>2026-05-02T12:04:51.279Z</time></trkpt><trkpt lat="46.1334707" lon="13.4952118"><ele>233.5</ele><time>2026-05-02T12:04:52.279Z</time></trkpt><trkpt lat="46.1335662" lon="13.4953795"><ele>236.75</ele><time>2026-05-02T12:04:54.277Z</time></trkpt><trkpt lat="46.1335797" lon="13.495565"><ele>240.0</ele><time>2026-05-02T12:04:56.279Z</time></trkpt><trkpt lat="46.1335787" lon="13.4956825"><ele>240.0</ele><time>2026-05-02T12:04:57.276Z</time></trkpt><trkpt lat="46.1336102" lon="13.4958468"><ele>240.0</ele><time>2026-05-02T12:04:58.471Z</time></trkpt><trkpt lat="46.1336445" lon="13.4959947"><ele>240.0</ele><time>2026-05-02T12:04:59.471Z</time></trkpt><trkpt lat="46.1336758" lon="13.4961303"><ele>240.0</ele><time>2026-05-02T12:05:00.471Z</time></trkpt><trkpt lat="46.1337002" lon="13.496268"><ele>240.0</ele><time>2026-05-02T12:05:01.47Z</time></trkpt><trkpt lat="46.1337162" lon="13.4964062"><ele>238.4</ele><time>2026-05-02T12:05:02.47Z</time></trkpt><trkpt lat="46.133727" lon="13.4965392"><ele>236.8</ele><time>2026-05-02T12:05:03.471Z</time></trkpt><trkpt lat="46.1337435" lon="13.4966653"><ele>235.2</ele><time>2026-05-02T12:05:04.471Z</time></trkpt><trkpt lat="46.1337717" lon="13.4967843"><ele>233.6</ele><time>2026-05-02T12:05:05.471Z</time></trkpt><trkpt lat="46.1338153" lon="13.4969017"><ele>232.0</ele><time>2026-05-02T12:05:06.471Z</time></trkpt><trkpt lat="46.1338657" lon="13.4970087"><ele>230.8</ele><time>2026-05-02T12:05:07.472Z</time></trkpt><trkpt lat="46.1339213" lon="13.4971235"><ele>229.6</ele><time>2026-05-02T12:05:08.474Z</time></trkpt><trkpt lat="46.133988" lon="13.497242"><ele>228.40000000000003</ele><time>2026-05-02T12:05:09.472Z</time></trkpt><trkpt lat="46.1340633" lon="13.4973522"><ele>227.20000000000002</ele><time>2026-05-02T12:05:10.47Z</time></trkpt><trkpt lat="46.134156" lon="13.4974668"><ele>226.0</ele><time>2026-05-02T12:05:11.471Z</time></trkpt><trkpt lat="46.1342382" lon="13.4975767"><ele>228.0</ele><time>2026-05-02T12:05:12.471Z</time></trkpt><trkpt lat="46.1343117" lon="13.4976822"><ele>230.0</ele><time>2026-05-02T12:05:13.469Z</time></trkpt><trkpt lat="46.1344677" lon="13.4978643"><ele>232.0</ele><time>2026-05-02T12:05:15.47Z</time></trkpt><trkpt lat="46.1345323" lon="13.4979142"><ele>234.0</ele><time>2026-05-02T12:05:16.468Z</time></trkpt><trkpt lat="46.1346103" lon="13.497968"><ele>234.0</ele><time>2026-05-02T12:05:17.471Z</time></trkpt><trkpt lat="46.1346937" lon="13.4980108"><ele>233.99999999999997</ele><time>2026-05-02T12:05:18.47Z</time></trkpt><trkpt lat="46.1347788" lon="13.4980423"><ele>233.99999999999997</ele><time>2026-05-02T12:05:19.47Z</time></trkpt><trkpt lat="46.1348763" lon="13.4980755"><ele>234.0</ele><time>2026-05-02T12:05:20.471Z</time></trkpt><trkpt lat="46.1349545" lon="13.4980923"><ele>234.0</ele><time>2026-05-02T12:05:21.471Z</time></trkpt><trkpt lat="46.135052" lon="13.4981383"><ele>234.0</ele><time>2026-05-02T12:05:23.471Z</time></trkpt><trkpt lat="46.1351152" lon="13.4982173"><ele>234.0</ele><time>2026-05-02T12:05:25.472Z</time></trkpt><trkpt lat="46.1351525" lon="13.4983493"><ele>234.0</ele><time>2026-05-02T12:05:27.471Z</time></trkpt><trkpt lat="46.1351612" lon="13.4984555"><ele>234.0</ele><time>2026-05-02T12:05:28.471Z</time></trkpt><trkpt lat="46.1351808" lon="13.4985675"><ele>234.0</ele><time>2026-05-02T12:05:29.471Z</time></trkpt><trkpt lat="46.1352098" lon="13.4986755"><ele>234.0</ele><time>2026-05-02T12:05:30.471Z</time></trkpt><trkpt lat="46.1352525" lon="13.4987833"><ele>234.0</ele><time>2026-05-02T12:05:31.471Z</time></trkpt><trkpt lat="46.135311" lon="13.4988842"><ele>234.0</ele><time>2026-05-02T12:05:32.47Z</time></trkpt><trkpt lat="46.1353873" lon="13.498997"><ele>234.0</ele><time>2026-05-02T12:05:33.471Z</time></trkpt><trkpt lat="46.1354703" lon="13.4991163"><ele>234.0</ele><time>2026-05-02T12:05:34.471Z</time></trkpt><trkpt lat="46.1356272" lon="13.4993143"><ele>234.0</ele><time>2026-05-02T12:05:36.474Z</time></trkpt><trkpt lat="46.1356978" lon="13.4993772"><ele>234.0</ele><time>2026-05-02T12:05:37.47Z</time></trkpt><trkpt lat="46.1357573" lon="13.4994199"><ele>234.0</ele><time>2026-05-02T12:05:38.468Z</time></trkpt><trkpt lat="46.1358212" lon="13.4994509"><ele>234.0</ele><time>2026-05-02T12:05:39.469Z</time></trkpt><trkpt lat="46.1358901" lon="13.4994619"><ele>234.0</ele><time>2026-05-02T12:05:40.47Z</time></trkpt><trkpt lat="46.1359698" lon="13.4994619"><ele>234.0</ele><time>2026-05-02T12:05:41.472Z</time></trkpt><trkpt lat="46.1360534" lon="13.49945"><ele>237.5</ele><time>2026-05-02T12:05:42.47Z</time></trkpt><trkpt lat="46.1361323" lon="13.4994269"><ele>241.0</ele><time>2026-05-02T12:05:43.47Z</time></trkpt><trkpt lat="46.1361988" lon="13.4993952"><ele>244.5</ele><time>2026-05-02T12:05:44.47Z</time></trkpt><trkpt lat="46.1362861" lon="13.4993941"><ele>248.0</ele><time>2026-05-02T12:05:46.472Z</time></trkpt><trkpt lat="46.1363814" lon="13.4994791"><ele>251.5</ele><time>2026-05-02T12:05:48.471Z</time></trkpt><trkpt lat="46.136443" lon="13.4995123"><ele>255.0</ele><time>2026-05-02T12:05:49.471Z</time></trkpt><trkpt lat="46.1365168" lon="13.4995295"><ele>252.16666666666666</ele><time>2026-05-02T12:05:50.474Z</time></trkpt><trkpt lat="46.1365976" lon="13.4995447"><ele>249.33333333333331</ele><time>2026-05-02T12:05:51.471Z</time></trkpt><trkpt lat="46.136681" lon="13.4995668"><ele>246.5</ele><time>2026-05-02T12:05:52.473Z</time></trkpt><trkpt lat="46.1367635" lon="13.4996058"><ele>243.66666666666666</ele><time>2026-05-02T12:05:53.472Z</time></trkpt><trkpt lat="46.1368451" lon="13.4996665"><ele>240.83333333333331</ele><time>2026-05-02T12:05:54.472Z</time></trkpt><trkpt lat="46.1369377" lon="13.4997347"><ele>238.0</ele><time>2026-05-02T12:05:55.472Z</time></trkpt><trkpt lat="46.1370314" lon="13.4998125"><ele>238.0</ele><time>2026-05-02T12:05:56.47Z</time></trkpt><trkpt lat="46.1372395" lon="13.4999646"><ele>238.0</ele><time>2026-05-02T12:05:58.47Z</time></trkpt><trkpt lat="46.1373335" lon="13.500038"><ele>238.0</ele><time>2026-05-02T12:05:59.472Z</time></trkpt><trkpt lat="46.1374028" lon="13.5001056"><ele>238.0</ele><time>2026-05-02T12:06:00.472Z</time></trkpt><trkpt lat="46.137482" lon="13.5002162"><ele>238.0</ele><time>2026-05-02T12:06:02.468Z</time></trkpt><trkpt lat="46.1375203" lon="13.5003959"><ele>238.0</ele><time>2026-05-02T12:06:04.469Z</time></trkpt><trkpt lat="46.1375475" lon="13.5005117"><ele>238.0</ele><time>2026-05-02T12:06:05.471Z</time></trkpt><trkpt lat="46.1375885" lon="13.5006293"><ele>238.0</ele><time>2026-05-02T12:06:06.471Z</time></trkpt><trkpt lat="46.1376368" lon="13.5007398"><ele>238.0</ele><time>2026-05-02T12:06:07.47Z</time></trkpt><trkpt lat="46.1376969" lon="13.5008408"><ele>237.99999999999997</ele><time>2026-05-02T12:06:08.47Z</time></trkpt><trkpt lat="46.1377674" lon="13.5009422"><ele>238.0</ele><time>2026-05-02T12:06:09.472Z</time></trkpt><trkpt lat="46.1378337" lon="13.5010434"><ele>238.0</ele><time>2026-05-02T12:06:10.47Z</time></trkpt><trkpt lat="46.1378969" lon="13.5011378"><ele>238.0</ele><time>2026-05-02T12:06:11.473Z</time></trkpt><trkpt lat="46.1379583" lon="13.5012212"><ele>237.99999999999997</ele><time>2026-05-02T12:06:12.47Z</time></trkpt><trkpt lat="46.1380166" lon="13.5012884"><ele>238.0</ele><time>2026-05-02T12:06:13.471Z</time></trkpt><trkpt lat="46.1380785" lon="13.5013386"><ele>236.60000000000002</ele><time>2026-05-02T12:06:14.47Z</time></trkpt><trkpt lat="46.1381442" lon="13.5013723"><ele>235.20000000000002</ele><time>2026-05-02T12:06:15.471Z</time></trkpt><trkpt lat="46.1382123" lon="13.5013964"><ele>233.8</ele><time>2026-05-02T12:06:16.471Z</time></trkpt><trkpt lat="46.1382829" lon="13.5014231"><ele>232.4</ele><time>2026-05-02T12:06:17.471Z</time></trkpt><trkpt lat="46.1384317" lon="13.5015187"><ele>231.0</ele><time>2026-05-02T12:06:19.471Z</time></trkpt><trkpt lat="46.1385078" lon="13.5015981"><ele>234.60000000000002</ele><time>2026-05-02T12:06:20.471Z</time></trkpt><trkpt lat="46.1385801" lon="13.5016907"><ele>238.20000000000002</ele><time>2026-05-02T12:06:21.472Z</time></trkpt><trkpt lat="46.1386489" lon="13.5017881"><ele>241.79999999999998</ele><time>2026-05-02T12:06:22.471Z</time></trkpt><trkpt lat="46.1387179" lon="13.5018964"><ele>245.39999999999998</ele><time>2026-05-02T12:06:23.471Z</time></trkpt><trkpt lat="46.1387865" lon="13.5020076"><ele>249.0</ele><time>2026-05-02T12:06:24.472Z</time></trkpt><trkpt lat="46.1388452" lon="13.5021146"><ele>249.0</ele><time>2026-05-02T12:06:25.471Z</time></trkpt><trkpt lat="46.1388944" lon="13.5022193"><ele>249.0</ele><time>2026-05-02T12:06:26.471Z</time></trkpt><trkpt lat="46.1389384" lon="13.5023197"><ele>249.0</ele><time>2026-05-02T12:06:27.472Z</time></trkpt><trkpt lat="46.1389863" lon="13.5024191"><ele>249.0</ele><time>2026-05-02T12:06:28.47Z</time></trkpt><trkpt lat="46.1390453" lon="13.5025109"><ele>249.0</ele><time>2026-05-02T12:06:29.471Z</time></trkpt><trkpt lat="46.1391059" lon="13.5025833"><ele>249.0</ele><time>2026-05-02T12:06:30.471Z</time></trkpt><trkpt lat="46.1391719" lon="13.5026364"><ele>253.5</ele><time>2026-05-02T12:06:31.471Z</time></trkpt><trkpt lat="46.1392412" lon="13.5026677"><ele>258.0</ele><time>2026-05-02T12:06:32.472Z</time></trkpt><trkpt lat="46.1393177" lon="13.5026857"><ele>262.5</ele><time>2026-05-02T12:06:33.472Z</time></trkpt><trkpt lat="46.1394005" lon="13.502684"><ele>267.0</ele><time>2026-05-02T12:06:34.472Z</time></trkpt><trkpt lat="46.1395011" lon="13.5026847"><ele>271.5</ele><time>2026-05-02T12:06:35.472Z</time></trkpt><trkpt lat="46.139609" lon="13.502683"><ele>276.0</ele><time>2026-05-02T12:06:36.472Z</time></trkpt><trkpt lat="46.1397239" lon="13.5026756"><ele>276.0</ele><time>2026-05-02T12:06:37.472Z</time></trkpt><trkpt lat="46.1398382" lon="13.502666"><ele>276.0</ele><time>2026-05-02T12:06:38.471Z</time></trkpt><trkpt lat="46.1400739" lon="13.5026486"><ele>276.0</ele><time>2026-05-02T12:06:40.47Z</time></trkpt><trkpt lat="46.1401996" lon="13.502628"><ele>280.0</ele><time>2026-05-02T12:06:41.47Z</time></trkpt><trkpt lat="46.1403204" lon="13.5026063"><ele>284.0</ele><time>2026-05-02T12:06:42.472Z</time></trkpt><trkpt lat="46.1404354" lon="13.5025769"><ele>288.0</ele><time>2026-05-02T12:06:43.472Z</time></trkpt><trkpt lat="46.1405274" lon="13.5025512"><ele>292.0</ele><time>2026-05-02T12:06:44.469Z</time></trkpt><trkpt lat="46.140594" lon="13.5025323"><ele>296.0</ele><time>2026-05-02T12:06:45.47Z</time></trkpt><trkpt lat="46.140659" lon="13.5025002"><ele>296.5</ele><time>2026-05-02T12:06:46.47Z</time></trkpt><trkpt lat="46.1407732" lon="13.502446"><ele>297.0</ele><time>2026-05-02T12:06:48.471Z</time></trkpt><trkpt lat="46.140896" lon="13.5024719"><ele>297.5</ele><time>2026-05-02T12:06:50.471Z</time></trkpt><trkpt lat="46.1410062" lon="13.5025284"><ele>298.0</ele><time>2026-05-02T12:06:52.468Z</time></trkpt><trkpt lat="46.1411346" lon="13.502549"><ele>298.0</ele><time>2026-05-02T12:06:54.47Z</time></trkpt><trkpt lat="46.1412207" lon="13.5025573"><ele>298.0</ele><time>2026-05-02T12:06:55.472Z</time></trkpt><trkpt lat="46.14132" lon="13.5025634"><ele>298.0</ele><time>2026-05-02T12:06:56.471Z</time></trkpt><trkpt lat="46.1414227" lon="13.5025715"><ele>298.0</ele><time>2026-05-02T12:06:57.472Z</time></trkpt><trkpt lat="46.141513" lon="13.5025761"><ele>298.0</ele><time>2026-05-02T12:06:58.471Z</time></trkpt><trkpt lat="46.1416107" lon="13.5025691"><ele>300.5</ele><time>2026-05-02T12:06:59.472Z</time></trkpt><trkpt lat="46.1417108" lon="13.5025482"><ele>303.0</ele><time>2026-05-02T12:07:00.472Z</time></trkpt><trkpt lat="46.1418985" lon="13.5025147"><ele>305.5</ele><time>2026-05-02T12:07:02.472Z</time></trkpt><trkpt lat="46.1419844" lon="13.5024923"><ele>308.0</ele><time>2026-05-02T12:07:03.472Z</time></trkpt><trkpt lat="46.1420834" lon="13.5024684"><ele>308.0</ele><time>2026-05-02T12:07:04.471Z</time></trkpt><trkpt lat="46.1421852" lon="13.5024395"><ele>308.0</ele><time>2026-05-02T12:07:05.472Z</time></trkpt><trkpt lat="46.1422831" lon="13.5024146"><ele>308.0</ele><time>2026-05-02T12:07:06.472Z</time></trkpt><trkpt lat="46.1423668" lon="13.5024058"><ele>308.0</ele><time>2026-05-02T12:07:07.472Z</time></trkpt><trkpt lat="46.142446" lon="13.5023749"><ele>308.0</ele><time>2026-05-02T12:07:09.471Z</time></trkpt><trkpt lat="46.1424421" lon="13.5022398"><ele>309.8</ele><time>2026-05-02T12:07:13.471Z</time></trkpt><trkpt lat="46.1424054" lon="13.5021506"><ele>311.6</ele><time>2026-05-02T12:07:15.472Z</time></trkpt><trkpt lat="46.1424152" lon="13.5020448"><ele>313.4</ele><time>2026-05-02T12:07:17.472Z</time></trkpt><trkpt lat="46.1424577" lon="13.5019559"><ele>315.2</ele><time>2026-05-02T12:07:20.475Z</time></trkpt><trkpt lat="46.1425215" lon="13.502006"><ele>317.0</ele><time>2026-05-02T12:07:37.473Z</time></trkpt><trkpt lat="46.1426835" lon="13.502074"><ele>317.0</ele><time>2026-05-02T12:07:50.472Z</time></trkpt><trkpt lat="46.1427757" lon="13.502022"><ele>317.0</ele><time>2026-05-02T12:07:52.472Z</time></trkpt><trkpt lat="46.1428858" lon="13.501962"><ele>317.0</ele><time>2026-05-02T12:07:54.471Z</time></trkpt><trkpt lat="46.143005" lon="13.5019783"><ele>317.0</ele><time>2026-05-02T12:07:56.472Z</time></trkpt><trkpt lat="46.1430963" lon="13.5020475"><ele>317.0</ele><time>2026-05-02T12:07:58.472Z</time></trkpt><trkpt lat="46.1431827" lon="13.5022843"><ele>318.6666666666667</ele><time>2026-05-02T12:08:02.471Z</time></trkpt><trkpt lat="46.1432247" lon="13.5023825"><ele>320.33333333333337</ele><time>2026-05-02T12:08:03.472Z</time></trkpt><trkpt lat="46.1432678" lon="13.5024865"><ele>322.0</ele><time>2026-05-02T12:08:04.471Z</time></trkpt><trkpt lat="46.143316" lon="13.5025935"><ele>323.6666666666667</ele><time>2026-05-02T12:08:05.47Z</time></trkpt><trkpt lat="46.1433678" lon="13.5026982"><ele>325.3333333333333</ele><time>2026-05-02T12:08:06.471Z</time></trkpt><trkpt lat="46.1434175" lon="13.5028127"><ele>327.0</ele><time>2026-05-02T12:08:07.47Z</time></trkpt><trkpt lat="46.14347" lon="13.5029262"><ele>327.0</ele><time>2026-05-02T12:08:08.472Z</time></trkpt><trkpt lat="46.1435288" lon="13.5030352"><ele>327.0</ele><time>2026-05-02T12:08:09.474Z</time></trkpt><trkpt lat="46.1436" lon="13.503141"><ele>327.0</ele><time>2026-05-02T12:08:10.472Z</time></trkpt><trkpt lat="46.1436752" lon="13.5032415"><ele>327.0</ele><time>2026-05-02T12:08:11.473Z</time></trkpt><trkpt lat="46.1437432" lon="13.5033232"><ele>327.0</ele><time>2026-05-02T12:08:12.472Z</time></trkpt><trkpt lat="46.1437943" lon="13.5033803"><ele>327.0</ele><time>2026-05-02T12:08:13.471Z</time></trkpt><trkpt lat="46.143869" lon="13.5034325"><ele>327.0</ele><time>2026-05-02T12:08:15.472Z</time></trkpt><trkpt lat="46.1438915" lon="13.5033383"><ele>327.0</ele><time>2026-05-02T12:08:18.477Z</time></trkpt><trkpt lat="46.143868" lon="13.5031972"><ele>327.0</ele><time>2026-05-02T12:08:20.472Z</time></trkpt><trkpt lat="46.143871" lon="13.5029953"><ele>327.0</ele><time>2026-05-02T12:08:22.472Z</time></trkpt><trkpt lat="46.1438808" lon="13.5028875"><ele>328.1666666666667</ele><time>2026-05-02T12:08:23.472Z</time></trkpt><trkpt lat="46.1439" lon="13.502778"><ele>329.3333333333333</ele><time>2026-05-02T12:08:24.473Z</time></trkpt><trkpt lat="46.1439343" lon="13.5026642"><ele>330.5</ele><time>2026-05-02T12:08:25.473Z</time></trkpt><trkpt lat="46.1439818" lon="13.5025397"><ele>331.66666666666663</ele><time>2026-05-02T12:08:26.472Z</time></trkpt><trkpt lat="46.1440273" lon="13.502424"><ele>332.8333333333333</ele><time>2026-05-02T12:08:27.474Z</time></trkpt><trkpt lat="46.1440648" lon="13.5023275"><ele>334.0</ele><time>2026-05-02T12:08:28.472Z</time></trkpt><trkpt lat="46.1441472" lon="13.5022118"><ele>338.2</ele><time>2026-05-02T12:08:30.469Z</time></trkpt><trkpt lat="46.1442732" lon="13.5021457"><ele>342.4</ele><time>2026-05-02T12:08:32.469Z</time></trkpt><trkpt lat="46.1443493" lon="13.5021412"><ele>346.6</ele><time>2026-05-02T12:08:33.472Z</time></trkpt><trkpt lat="46.1444703" lon="13.5021847"><ele>350.8</ele><time>2026-05-02T12:08:35.471Z</time></trkpt><trkpt lat="46.1445363" lon="13.5022325"><ele>355.0</ele><time>2026-05-02T12:08:36.471Z</time></trkpt><trkpt lat="46.1445967" lon="13.5022717"><ele>355.0</ele><time>2026-05-02T12:08:37.471Z</time></trkpt><trkpt lat="46.144656" lon="13.5023107"><ele>355.0</ele><time>2026-05-02T12:08:38.472Z</time></trkpt><trkpt lat="46.1447293" lon="13.5023287"><ele>355.0</ele><time>2026-05-02T12:08:39.472Z</time></trkpt><trkpt lat="46.1448083" lon="13.5023328"><ele>355.0</ele><time>2026-05-02T12:08:40.471Z</time></trkpt><trkpt lat="46.1448737" lon="13.5023335"><ele>355.0</ele><time>2026-05-02T12:08:41.472Z</time></trkpt><trkpt lat="46.1450372" lon="13.5022353"><ele>354.2</ele><time>2026-05-02T12:08:44.471Z</time></trkpt><trkpt lat="46.1451013" lon="13.502158"><ele>353.4</ele><time>2026-05-02T12:08:45.471Z</time></trkpt><trkpt lat="46.1451737" lon="13.5020737"><ele>352.6</ele><time>2026-05-02T12:08:46.472Z</time></trkpt><trkpt lat="46.1452443" lon="13.5019972"><ele>351.8</ele><time>2026-05-02T12:08:47.471Z</time></trkpt><trkpt lat="46.1453073" lon="13.5019527"><ele>351.0</ele><time>2026-05-02T12:08:48.471Z</time></trkpt><trkpt lat="46.1454375" lon="13.5019203"><ele>351.0</ele><time>2026-05-02T12:08:50.472Z</time></trkpt><trkpt lat="46.145539" lon="13.5019095"><ele>351.0</ele><time>2026-05-02T12:08:51.671Z</time></trkpt><trkpt lat="46.1456787" lon="13.501895"><ele>351.0</ele><time>2026-05-02T12:08:53.278Z</time></trkpt><trkpt lat="46.1457652" lon="13.5018932"><ele>351.0</ele><time>2026-05-02T12:08:54.278Z</time></trkpt><trkpt lat="46.1458367" lon="13.5018978"><ele>351.0</ele><time>2026-05-02T12:08:55.278Z</time></trkpt><trkpt lat="46.145899" lon="13.5019155"><ele>353.8333333333333</ele><time>2026-05-02T12:08:56.278Z</time></trkpt><trkpt lat="46.1459615" lon="13.5019575"><ele>356.6666666666667</ele><time>2026-05-02T12:08:57.278Z</time></trkpt><trkpt lat="46.146038" lon="13.5020305"><ele>359.5</ele><time>2026-05-02T12:08:58.471Z</time></trkpt><trkpt lat="46.1461087" lon="13.5020978"><ele>362.33333333333337</ele><time>2026-05-02T12:08:59.471Z</time></trkpt><trkpt lat="46.1461798" lon="13.5021578"><ele>365.1666666666667</ele><time>2026-05-02T12:09:00.473Z</time></trkpt><trkpt lat="46.1462543" lon="13.5021963"><ele>368.0</ele><time>2026-05-02T12:09:01.471Z</time></trkpt><trkpt lat="46.1463255" lon="13.5022"><ele>371.0</ele><time>2026-05-02T12:09:02.472Z</time></trkpt><trkpt lat="46.146463" lon="13.5021825"><ele>374.0</ele><time>2026-05-02T12:09:04.47Z</time></trkpt><trkpt lat="46.1465782" lon="13.5022218"><ele>377.0</ele><time>2026-05-02T12:09:06.471Z</time></trkpt><trkpt lat="46.1466587" lon="13.5022672"><ele>380.0</ele><time>2026-05-02T12:09:07.471Z</time></trkpt><trkpt lat="46.1467253" lon="13.5023198"><ele>383.0</ele><time>2026-05-02T12:09:08.472Z</time></trkpt><trkpt lat="46.1467958" lon="13.5023802"><ele>384.1666666666667</ele><time>2026-05-02T12:09:09.471Z</time></trkpt><trkpt lat="46.1468643" lon="13.5024362"><ele>385.33333333333337</ele><time>2026-05-02T12:09:10.471Z</time></trkpt><trkpt lat="46.1469323" lon="13.5025063"><ele>386.5</ele><time>2026-05-02T12:09:11.472Z</time></trkpt><trkpt lat="46.1469918" lon="13.5025842"><ele>387.6666666666667</ele><time>2026-05-02T12:09:12.472Z</time></trkpt><trkpt lat="46.1470433" lon="13.50265"><ele>388.8333333333333</ele><time>2026-05-02T12:09:13.471Z</time></trkpt><trkpt lat="46.1470982" lon="13.5027033"><ele>390.0</ele><time>2026-05-02T12:09:14.471Z</time></trkpt><trkpt lat="46.1471977" lon="13.5027275"><ele>390.0</ele><time>2026-05-02T12:09:16.67Z</time></trkpt><trkpt lat="46.1473222" lon="13.5027145"><ele>390.0</ele><time>2026-05-02T12:09:18.277Z</time></trkpt><trkpt lat="46.147427" lon="13.5027108"><ele>390.0</ele><time>2026-05-02T12:09:20.277Z</time></trkpt><trkpt lat="46.1475282" lon="13.502663"><ele>390.0</ele><time>2026-05-02T12:09:22.278Z</time></trkpt><trkpt lat="46.1475828" lon="13.5026117"><ele>390.0</ele><time>2026-05-02T12:09:23.278Z</time></trkpt><trkpt lat="46.1476998" lon="13.5024813"><ele>390.6666666666667</ele><time>2026-05-02T12:09:25.278Z</time></trkpt><trkpt lat="46.1477642" lon="13.5024163"><ele>391.33333333333337</ele><time>2026-05-02T12:09:26.277Z</time></trkpt><trkpt lat="46.1478413" lon="13.5023473"><ele>392.0</ele><time>2026-05-02T12:09:27.275Z</time></trkpt><trkpt lat="46.1479215" lon="13.5022845"><ele>392.6666666666667</ele><time>2026-05-02T12:09:28.277Z</time></trkpt><trkpt lat="46.1480027" lon="13.5022252"><ele>393.33333333333337</ele><time>2026-05-02T12:09:29.276Z</time></trkpt><trkpt lat="46.1480768" lon="13.5021737"><ele>394.0</ele><time>2026-05-02T12:09:30.274Z</time></trkpt><trkpt lat="46.1481452" lon="13.5021227"><ele>394.33333333333337</ele><time>2026-05-02T12:09:31.276Z</time></trkpt><trkpt lat="46.1482153" lon="13.5020735"><ele>394.6666666666667</ele><time>2026-05-02T12:09:32.278Z</time></trkpt><trkpt lat="46.148276" lon="13.5020138"><ele>395.0</ele><time>2026-05-02T12:09:33.277Z</time></trkpt><trkpt lat="46.1483333" lon="13.5019472"><ele>395.33333333333337</ele><time>2026-05-02T12:09:34.277Z</time></trkpt><trkpt lat="46.148392" lon="13.5018662"><ele>395.6666666666667</ele><time>2026-05-02T12:09:35.278Z</time></trkpt><trkpt lat="46.1484618" lon="13.5018023"><ele>396.0</ele><time>2026-05-02T12:09:36.278Z</time></trkpt><trkpt lat="46.1485342" lon="13.5017445"><ele>396.0</ele><time>2026-05-02T12:09:37.277Z</time></trkpt><trkpt lat="46.1486085" lon="13.501685"><ele>396.0</ele><time>2026-05-02T12:09:38.278Z</time></trkpt><trkpt lat="46.1486702" lon="13.5016247"><ele>396.0</ele><time>2026-05-02T12:09:39.277Z</time></trkpt><trkpt lat="46.1487402" lon="13.5015687"><ele>396.0</ele><time>2026-05-02T12:09:40.276Z</time></trkpt><trkpt lat="46.1488143" lon="13.501511"><ele>396.0</ele><time>2026-05-02T12:09:41.278Z</time></trkpt><trkpt lat="46.1488895" lon="13.5014653"><ele>396.0</ele><time>2026-05-02T12:09:42.277Z</time></trkpt><trkpt lat="46.1489665" lon="13.5014373"><ele>399.6</ele><time>2026-05-02T12:09:43.277Z</time></trkpt><trkpt lat="46.1490487" lon="13.5014298"><ele>403.20000000000005</ele><time>2026-05-02T12:09:44.278Z</time></trkpt><trkpt lat="46.1492052" lon="13.5014548"><ele>406.79999999999995</ele><time>2026-05-02T12:09:46.278Z</time></trkpt><trkpt lat="46.1492877" lon="13.5014938"><ele>410.4</ele><time>2026-05-02T12:09:47.279Z</time></trkpt><trkpt lat="46.1493645" lon="13.5015477"><ele>414.0</ele><time>2026-05-02T12:09:48.277Z</time></trkpt><trkpt lat="46.1494363" lon="13.5015898"><ele>414.0</ele><time>2026-05-02T12:09:49.277Z</time></trkpt><trkpt lat="46.149508" lon="13.5016228"><ele>414.0</ele><time>2026-05-02T12:09:50.277Z</time></trkpt><trkpt lat="46.1495902" lon="13.5016527"><ele>414.0</ele><time>2026-05-02T12:09:51.279Z</time></trkpt><trkpt lat="46.149673" lon="13.501666"><ele>414.0</ele><time>2026-05-02T12:09:52.274Z</time></trkpt><trkpt lat="46.1497597" lon="13.501683"><ele>414.0</ele><time>2026-05-02T12:09:53.275Z</time></trkpt><trkpt lat="46.1498372" lon="13.5017123"><ele>414.0</ele><time>2026-05-02T12:09:54.275Z</time></trkpt><trkpt lat="46.149919" lon="13.5017467"><ele>415.6</ele><time>2026-05-02T12:09:55.275Z</time></trkpt><trkpt lat="46.150002" lon="13.5017898"><ele>417.2</ele><time>2026-05-02T12:09:56.276Z</time></trkpt><trkpt lat="46.1500892" lon="13.5017947"><ele>418.8</ele><time>2026-05-02T12:09:57.277Z</time></trkpt><trkpt lat="46.1502092" lon="13.5017975"><ele>420.40000000000003</ele><time>2026-05-02T12:09:58.469Z</time></trkpt><trkpt lat="46.1503142" lon="13.5018052"><ele>422.0</ele><time>2026-05-02T12:09:59.469Z</time></trkpt><trkpt lat="46.1504055" lon="13.5018105"><ele>422.0</ele><time>2026-05-02T12:10:00.469Z</time></trkpt><trkpt lat="46.1505215" lon="13.501781"><ele>422.0</ele><time>2026-05-02T12:10:02.468Z</time></trkpt><trkpt lat="46.150607" lon="13.5017023"><ele>422.0</ele><time>2026-05-02T12:10:04.469Z</time></trkpt><trkpt lat="46.1506627" lon="13.501532"><ele>422.0</ele><time>2026-05-02T12:10:06.471Z</time></trkpt><trkpt lat="46.1507563" lon="13.5013627"><ele>421.3333333333333</ele><time>2026-05-02T12:10:08.469Z</time></trkpt><trkpt lat="46.1508028" lon="13.5012833"><ele>420.66666666666663</ele><time>2026-05-02T12:10:09.473Z</time></trkpt><trkpt lat="46.1508532" lon="13.5012193"><ele>420.0</ele><time>2026-05-02T12:10:10.472Z</time></trkpt><trkpt lat="46.1509308" lon="13.5011778"><ele>419.33333333333337</ele><time>2026-05-02T12:10:12.472Z</time></trkpt><trkpt lat="46.1510202" lon="13.5011855"><ele>418.6666666666667</ele><time>2026-05-02T12:10:14.471Z</time></trkpt><trkpt lat="46.1510875" lon="13.501203"><ele>418.0</ele><time>2026-05-02T12:10:15.472Z</time></trkpt><trkpt lat="46.1511715" lon="13.5011895"><ele>418.0</ele><time>2026-05-02T12:10:17.471Z</time></trkpt><trkpt lat="46.151233" lon="13.5010812"><ele>418.0</ele><time>2026-05-02T12:10:19.471Z</time></trkpt><trkpt lat="46.1512605" lon="13.5009972"><ele>418.0</ele><time>2026-05-02T12:10:20.472Z</time></trkpt><trkpt lat="46.1513108" lon="13.5008278"><ele>418.0</ele><time>2026-05-02T12:10:22.471Z</time></trkpt><trkpt lat="46.1513482" lon="13.5007547"><ele>418.0</ele><time>2026-05-02T12:10:23.471Z</time></trkpt><trkpt lat="46.151446" lon="13.5006703"><ele>423.79999999999995</ele><time>2026-05-02T12:10:25.471Z</time></trkpt><trkpt lat="46.151562" lon="13.5006733"><ele>429.6</ele><time>2026-05-02T12:10:27.47Z</time></trkpt><trkpt lat="46.151694" lon="13.5006688"><ele>435.40000000000003</ele><time>2026-05-02T12:10:29.471Z</time></trkpt><trkpt lat="46.1517565" lon="13.5006338"><ele>441.20000000000005</ele><time>2026-05-02T12:10:30.47Z</time></trkpt><trkpt lat="46.1518258" lon="13.5006083"><ele>447.0</ele><time>2026-05-02T12:10:31.469Z</time></trkpt><trkpt lat="46.151895" lon="13.5005853"><ele>447.0</ele><time>2026-05-02T12:10:32.469Z</time></trkpt><trkpt lat="46.1519625" lon="13.500574"><ele>447.0</ele><time>2026-05-02T12:10:33.469Z</time></trkpt><trkpt lat="46.1520295" lon="13.500574"><ele>447.0</ele><time>2026-05-02T12:10:34.471Z</time></trkpt><trkpt lat="46.1520992" lon="13.5005728"><ele>447.0</ele><time>2026-05-02T12:10:35.47Z</time></trkpt><trkpt lat="46.152178" lon="13.5005705"><ele>447.0</ele><time>2026-05-02T12:10:36.473Z</time></trkpt><trkpt lat="46.15226" lon="13.5005645"><ele>447.0</ele><time>2026-05-02T12:10:37.47Z</time></trkpt><trkpt lat="46.1523465" lon="13.5005777"><ele>449.3333333333333</ele><time>2026-05-02T12:10:38.471Z</time></trkpt><trkpt lat="46.152423" lon="13.5005958"><ele>451.66666666666663</ele><time>2026-05-02T12:10:39.472Z</time></trkpt><trkpt lat="46.152508" lon="13.5006348"><ele>454.0</ele><time>2026-05-02T12:10:40.47Z</time></trkpt><trkpt lat="46.1525733" lon="13.5006775"><ele>456.3333333333333</ele><time>2026-05-02T12:10:41.472Z</time></trkpt><trkpt lat="46.152634" lon="13.5007372"><ele>458.66666666666663</ele><time>2026-05-02T12:10:42.471Z</time></trkpt><trkpt lat="46.1526983" lon="13.5008145"><ele>461.0</ele><time>2026-05-02T12:10:43.47Z</time></trkpt><trkpt lat="46.152771" lon="13.5008958"><ele>461.0</ele><time>2026-05-02T12:10:44.468Z</time></trkpt><trkpt lat="46.1528573" lon="13.5009713"><ele>461.0</ele><time>2026-05-02T12:10:45.468Z</time></trkpt><trkpt lat="46.1529542" lon="13.5010175"><ele>461.0</ele><time>2026-05-02T12:10:46.468Z</time></trkpt><trkpt lat="46.153044" lon="13.5010357"><ele>461.0</ele><time>2026-05-02T12:10:47.469Z</time></trkpt><trkpt lat="46.153143" lon="13.5010293"><ele>461.0</ele><time>2026-05-02T12:10:48.47Z</time></trkpt><trkpt lat="46.1533652" lon="13.5009872"><ele>459.16666666666663</ele><time>2026-05-02T12:10:50.472Z</time></trkpt><trkpt lat="46.1534638" lon="13.5009662"><ele>457.3333333333333</ele><time>2026-05-02T12:10:51.471Z</time></trkpt><trkpt lat="46.1535447" lon="13.5009398"><ele>455.5</ele><time>2026-05-02T12:10:52.47Z</time></trkpt><trkpt lat="46.1536183" lon="13.5009052"><ele>453.66666666666663</ele><time>2026-05-02T12:10:53.471Z</time></trkpt><trkpt lat="46.1536952" lon="13.500876"><ele>451.8333333333333</ele><time>2026-05-02T12:10:54.471Z</time></trkpt><trkpt lat="46.1537803" lon="13.5008387"><ele>450.0</ele><time>2026-05-02T12:10:55.471Z</time></trkpt><trkpt lat="46.1538755" lon="13.5007907"><ele>450.00000000000006</ele><time>2026-05-02T12:10:56.468Z</time></trkpt><trkpt lat="46.1539625" lon="13.5007425"><ele>450.0</ele><time>2026-05-02T12:10:57.469Z</time></trkpt><trkpt lat="46.1540397" lon="13.5007037"><ele>450.00000000000006</ele><time>2026-05-02T12:10:58.47Z</time></trkpt><trkpt lat="46.1541047" lon="13.5006718"><ele>450.00000000000006</ele><time>2026-05-02T12:10:59.47Z</time></trkpt><trkpt lat="46.1541663" lon="13.5006388"><ele>450.0</ele><time>2026-05-02T12:11:00.472Z</time></trkpt><trkpt lat="46.1542287" lon="13.5006208"><ele>450.00000000000006</ele><time>2026-05-02T12:11:01.471Z</time></trkpt><trkpt lat="46.1543" lon="13.5006238"><ele>450.00000000000006</ele><time>2026-05-02T12:11:02.472Z</time></trkpt><trkpt lat="46.1543688" lon="13.5006428"><ele>449.4</ele><time>2026-05-02T12:11:03.473Z</time></trkpt><trkpt lat="46.1544378" lon="13.5006872"><ele>448.8</ele><time>2026-05-02T12:11:04.472Z</time></trkpt><trkpt lat="46.1545328" lon="13.5007898"><ele>448.20000000000005</ele><time>2026-05-02T12:11:06.472Z</time></trkpt><trkpt lat="46.1545862" lon="13.5009387"><ele>447.6</ele><time>2026-05-02T12:11:08.472Z</time></trkpt><trkpt lat="46.1546158" lon="13.5010452"><ele>447.0</ele><time>2026-05-02T12:11:09.472Z</time></trkpt><trkpt lat="46.1546912" lon="13.5012952"><ele>447.3333333333333</ele><time>2026-05-02T12:11:11.471Z</time></trkpt><trkpt lat="46.1547298" lon="13.5014182"><ele>447.66666666666663</ele><time>2026-05-02T12:11:12.472Z</time></trkpt><trkpt lat="46.1547633" lon="13.5015293"><ele>448.0</ele><time>2026-05-02T12:11:13.471Z</time></trkpt><trkpt lat="46.1548188" lon="13.5016123"><ele>448.3333333333333</ele><time>2026-05-02T12:11:14.47Z</time></trkpt><trkpt lat="46.1548893" lon="13.5016887"><ele>448.66666666666663</ele><time>2026-05-02T12:11:15.472Z</time></trkpt><trkpt lat="46.1549567" lon="13.5017375"><ele>449.0</ele><time>2026-05-02T12:11:16.471Z</time></trkpt><trkpt lat="46.1550707" lon="13.5017402"><ele>448.99999999999994</ele><time>2026-05-02T12:11:18.47Z</time></trkpt><trkpt lat="46.1551297" lon="13.5017033"><ele>449.0</ele><time>2026-05-02T12:11:19.47Z</time></trkpt><trkpt lat="46.1552007" lon="13.5016683"><ele>449.0</ele><time>2026-05-02T12:11:20.472Z</time></trkpt><trkpt lat="46.1552818" lon="13.501648"><ele>449.0</ele><time>2026-05-02T12:11:21.468Z</time></trkpt><trkpt lat="46.1553755" lon="13.5016202"><ele>448.99999999999994</ele><time>2026-05-02T12:11:22.468Z</time></trkpt><trkpt lat="46.1554752" lon="13.5015765"><ele>449.0</ele><time>2026-05-02T12:11:23.468Z</time></trkpt><trkpt lat="46.1555622" lon="13.5015368"><ele>448.99999999999994</ele><time>2026-05-02T12:11:24.47Z</time></trkpt><trkpt lat="46.1556363" lon="13.5015257"><ele>449.0</ele><time>2026-05-02T12:11:25.471Z</time></trkpt><trkpt lat="46.1557098" lon="13.5015408"><ele>449.0</ele><time>2026-05-02T12:11:26.47Z</time></trkpt><trkpt lat="46.1557927" lon="13.5015737"><ele>449.0</ele><time>2026-05-02T12:11:27.471Z</time></trkpt><trkpt lat="46.1558882" lon="13.5016233"><ele>448.99999999999994</ele><time>2026-05-02T12:11:28.47Z</time></trkpt><trkpt lat="46.1559903" lon="13.5016778"><ele>449.0</ele><time>2026-05-02T12:11:29.47Z</time></trkpt><trkpt lat="46.1560943" lon="13.501735"><ele>446.6</ele><time>2026-05-02T12:11:30.471Z</time></trkpt><trkpt lat="46.1562803" lon="13.5018173"><ele>444.2</ele><time>2026-05-02T12:11:32.471Z</time></trkpt><trkpt lat="46.1563567" lon="13.5018335"><ele>441.80000000000007</ele><time>2026-05-02T12:11:33.47Z</time></trkpt><trkpt lat="46.1564327" lon="13.501842"><ele>439.40000000000003</ele><time>2026-05-02T12:11:34.469Z</time></trkpt><trkpt lat="46.156512" lon="13.5018362"><ele>437.0</ele><time>2026-05-02T12:11:35.47Z</time></trkpt><trkpt lat="46.1565953" lon="13.5017943"><ele>437.0</ele><time>2026-05-02T12:11:36.47Z</time></trkpt><trkpt lat="46.1566767" lon="13.5016962"><ele>437.0</ele><time>2026-05-02T12:11:37.472Z</time></trkpt><trkpt lat="46.1567677" lon="13.5015652"><ele>437.0</ele><time>2026-05-02T12:11:38.471Z</time></trkpt><trkpt lat="46.1568748" lon="13.5014298"><ele>437.0</ele><time>2026-05-02T12:11:39.472Z</time></trkpt><trkpt lat="46.1570038" lon="13.5013213"><ele>439.0</ele><time>2026-05-02T12:11:40.473Z</time></trkpt><trkpt lat="46.1571322" lon="13.5012273"><ele>441.0</ele><time>2026-05-02T12:11:41.472Z</time></trkpt><trkpt lat="46.1572413" lon="13.5011445"><ele>443.0</ele><time>2026-05-02T12:11:42.472Z</time></trkpt><trkpt lat="46.1573297" lon="13.5010737"><ele>445.0</ele><time>2026-05-02T12:11:43.475Z</time></trkpt><trkpt lat="46.1574108" lon="13.5010088"><ele>445.00000000000006</ele><time>2026-05-02T12:11:44.473Z</time></trkpt><trkpt lat="46.1574978" lon="13.500952"><ele>445.0</ele><time>2026-05-02T12:11:45.471Z</time></trkpt><trkpt lat="46.157583" lon="13.500924"><ele>445.0</ele><time>2026-05-02T12:11:46.471Z</time></trkpt><trkpt lat="46.1576597" lon="13.5009418"><ele>445.0</ele><time>2026-05-02T12:11:47.472Z</time></trkpt><trkpt lat="46.1577235" lon="13.501008"><ele>445.00000000000006</ele><time>2026-05-02T12:11:48.474Z</time></trkpt><trkpt lat="46.1577718" lon="13.5011165"><ele>445.0</ele><time>2026-05-02T12:11:49.474Z</time></trkpt><trkpt lat="46.1578085" lon="13.5012448"><ele>448.0</ele><time>2026-05-02T12:11:50.473Z</time></trkpt><trkpt lat="46.1578353" lon="13.5013382"><ele>451.0</ele><time>2026-05-02T12:11:51.473Z</time></trkpt><trkpt lat="46.1579218" lon="13.5015132"><ele>454.0</ele><time>2026-05-02T12:11:55.472Z</time></trkpt><trkpt lat="46.157982" lon="13.5015493"><ele>457.0</ele><time>2026-05-02T12:11:57.472Z</time></trkpt><trkpt lat="46.1580578" lon="13.5015202"><ele>460.0</ele><time>2026-05-02T12:11:59.472Z</time></trkpt><trkpt lat="46.1581808" lon="13.501445"><ele>460.83333333333337</ele><time>2026-05-02T12:12:01.473Z</time></trkpt><trkpt lat="46.1582467" lon="13.5014037"><ele>461.6666666666667</ele><time>2026-05-02T12:12:02.472Z</time></trkpt><trkpt lat="46.15831" lon="13.5013867"><ele>462.5</ele><time>2026-05-02T12:12:03.472Z</time></trkpt><trkpt lat="46.158379" lon="13.5014033"><ele>463.33333333333337</ele><time>2026-05-02T12:12:04.472Z</time></trkpt><trkpt lat="46.158453" lon="13.501439"><ele>464.1666666666667</ele><time>2026-05-02T12:12:05.473Z</time></trkpt><trkpt lat="46.158564" lon="13.5014927"><ele>465.0</ele><time>2026-05-02T12:12:06.872Z</time></trkpt><trkpt lat="46.1586988" lon="13.5015303"><ele>465.0</ele><time>2026-05-02T12:12:08.472Z</time></trkpt><trkpt lat="46.1587873" lon="13.5015243"><ele>465.0</ele><time>2026-05-02T12:12:09.472Z</time></trkpt><trkpt lat="46.1588635" lon="13.5015005"><ele>465.0</ele><time>2026-05-02T12:12:10.469Z</time></trkpt><trkpt lat="46.1589365" lon="13.5014675"><ele>465.0</ele><time>2026-05-02T12:12:11.47Z</time></trkpt><trkpt lat="46.1589992" lon="13.501422"><ele>465.0</ele><time>2026-05-02T12:12:12.47Z</time></trkpt><trkpt lat="46.159119" lon="13.5012742"><ele>465.4</ele><time>2026-05-02T12:12:14.471Z</time></trkpt><trkpt lat="46.159191" lon="13.501185"><ele>465.8</ele><time>2026-05-02T12:12:15.472Z</time></trkpt><trkpt lat="46.1592643" lon="13.5010882"><ele>466.20000000000005</ele><time>2026-05-02T12:12:16.472Z</time></trkpt><trkpt lat="46.1593415" lon="13.5009912"><ele>466.6</ele><time>2026-05-02T12:12:17.472Z</time></trkpt><trkpt lat="46.1594277" lon="13.5008927"><ele>467.0</ele><time>2026-05-02T12:12:18.472Z</time></trkpt><trkpt lat="46.1595148" lon="13.500791"><ele>467.0</ele><time>2026-05-02T12:12:19.471Z</time></trkpt><trkpt lat="46.1596128" lon="13.500695"><ele>467.0</ele><time>2026-05-02T12:12:20.472Z</time></trkpt><trkpt lat="46.1597583" lon="13.5005793"><ele>467.0</ele><time>2026-05-02T12:12:21.872Z</time></trkpt><trkpt lat="46.1599345" lon="13.5004613"><ele>468.20000000000005</ele><time>2026-05-02T12:12:23.472Z</time></trkpt><trkpt lat="46.1600303" lon="13.5003962"><ele>469.40000000000003</ele><time>2026-05-02T12:12:24.472Z</time></trkpt><trkpt lat="46.1601167" lon="13.5003268"><ele>470.59999999999997</ele><time>2026-05-02T12:12:25.472Z</time></trkpt><trkpt lat="46.1601948" lon="13.5002627"><ele>471.79999999999995</ele><time>2026-05-02T12:12:26.472Z</time></trkpt><trkpt lat="46.160261" lon="13.5001958"><ele>473.0</ele><time>2026-05-02T12:12:27.472Z</time></trkpt><trkpt lat="46.1603263" lon="13.5001233"><ele>473.0</ele><time>2026-05-02T12:12:28.472Z</time></trkpt><trkpt lat="46.1603928" lon="13.5000207"><ele>472.99999999999994</ele><time>2026-05-02T12:12:29.472Z</time></trkpt><trkpt lat="46.1604632" lon="13.4999003"><ele>472.99999999999994</ele><time>2026-05-02T12:12:30.471Z</time></trkpt><trkpt lat="46.160537" lon="13.4997735"><ele>473.0</ele><time>2026-05-02T12:12:31.471Z</time></trkpt><trkpt lat="46.1606127" lon="13.4996513"><ele>473.0</ele><time>2026-05-02T12:12:32.47Z</time></trkpt><trkpt lat="46.1606927" lon="13.4995267"><ele>476.66666666666663</ele><time>2026-05-02T12:12:33.471Z</time></trkpt><trkpt lat="46.1608497" lon="13.4992558"><ele>480.33333333333337</ele><time>2026-05-02T12:12:35.469Z</time></trkpt><trkpt lat="46.1609293" lon="13.4991298"><ele>484.0</ele><time>2026-05-02T12:12:36.47Z</time></trkpt><trkpt lat="46.1609993" lon="13.4990237"><ele>484.0</ele><time>2026-05-02T12:12:37.468Z</time></trkpt><trkpt lat="46.1610693" lon="13.4989288"><ele>484.0</ele><time>2026-05-02T12:12:38.47Z</time></trkpt><trkpt lat="46.1611448" lon="13.4988338"><ele>484.0</ele><time>2026-05-02T12:12:39.471Z</time></trkpt><trkpt lat="46.1612318" lon="13.4987463"><ele>484.0</ele><time>2026-05-02T12:12:40.471Z</time></trkpt><trkpt lat="46.161323" lon="13.4986593"><ele>484.0</ele><time>2026-05-02T12:12:41.47Z</time></trkpt><trkpt lat="46.1614207" lon="13.4985725"><ele>486.2</ele><time>2026-05-02T12:12:42.47Z</time></trkpt><trkpt lat="46.1614985" lon="13.4984833"><ele>488.4</ele><time>2026-05-02T12:12:43.468Z</time></trkpt><trkpt lat="46.1615768" lon="13.4983995"><ele>490.6</ele><time>2026-05-02T12:12:44.47Z</time></trkpt><trkpt lat="46.1616555" lon="13.4983275"><ele>492.8</ele><time>2026-05-02T12:12:45.471Z</time></trkpt><trkpt lat="46.1617477" lon="13.4982678"><ele>495.0</ele><time>2026-05-02T12:12:46.468Z</time></trkpt><trkpt lat="46.1618425" lon="13.4982287"><ele>495.0</ele><time>2026-05-02T12:12:47.473Z</time></trkpt><trkpt lat="46.161938" lon="13.4982208"><ele>495.0</ele><time>2026-05-02T12:12:48.47Z</time></trkpt><trkpt lat="46.1619992" lon="13.4981968"><ele>495.0</ele><time>2026-05-02T12:12:49.469Z</time></trkpt><trkpt lat="46.1621182" lon="13.498161"><ele>495.0</ele><time>2026-05-02T12:12:51.47Z</time></trkpt><trkpt lat="46.1621853" lon="13.4981267"><ele>495.0</ele><time>2026-05-02T12:12:52.47Z</time></trkpt><trkpt lat="46.1622568" lon="13.4980715"><ele>495.0</ele><time>2026-05-02T12:12:53.472Z</time></trkpt><trkpt lat="46.1623377" lon="13.49802"><ele>494.0</ele><time>2026-05-02T12:12:54.471Z</time></trkpt><trkpt lat="46.1624877" lon="13.4978688"><ele>493.0</ele><time>2026-05-02T12:12:56.471Z</time></trkpt><trkpt lat="46.1625605" lon="13.4977812"><ele>492.0</ele><time>2026-05-02T12:12:57.471Z</time></trkpt><trkpt lat="46.1626343" lon="13.4976997"><ele>491.0</ele><time>2026-05-02T12:12:58.469Z</time></trkpt><trkpt lat="46.162715" lon="13.4976313"><ele>491.0</ele><time>2026-05-02T12:12:59.469Z</time></trkpt><trkpt lat="46.1627898" lon="13.497551"><ele>491.0</ele><time>2026-05-02T12:13:00.469Z</time></trkpt><trkpt lat="46.162872" lon="13.4974742"><ele>491.0</ele><time>2026-05-02T12:13:01.47Z</time></trkpt><trkpt lat="46.1629533" lon="13.4973922"><ele>491.0</ele><time>2026-05-02T12:13:02.47Z</time></trkpt><trkpt lat="46.1630413" lon="13.4973145"><ele>491.0</ele><time>2026-05-02T12:13:03.473Z</time></trkpt><trkpt lat="46.1631228" lon="13.4972232"><ele>493.4</ele><time>2026-05-02T12:13:04.472Z</time></trkpt><trkpt lat="46.163206" lon="13.4971175"><ele>495.8</ele><time>2026-05-02T12:13:05.47Z</time></trkpt><trkpt lat="46.163294" lon="13.4970212"><ele>498.19999999999993</ele><time>2026-05-02T12:13:06.471Z</time></trkpt><trkpt lat="46.163382" lon="13.4969348"><ele>500.59999999999997</ele><time>2026-05-02T12:13:07.471Z</time></trkpt><trkpt lat="46.1634542" lon="13.4968517"><ele>503.0</ele><time>2026-05-02T12:13:08.471Z</time></trkpt><trkpt lat="46.1635208" lon="13.4968003"><ele>503.0</ele><time>2026-05-02T12:13:09.472Z</time></trkpt><trkpt lat="46.1636248" lon="13.496794"><ele>502.99999999999994</ele><time>2026-05-02T12:13:11.472Z</time></trkpt><trkpt lat="46.1636582" lon="13.4968828"><ele>502.99999999999994</ele><time>2026-05-02T12:13:13.471Z</time></trkpt><trkpt lat="46.1636085" lon="13.496963"><ele>503.0</ele><time>2026-05-02T12:13:15.473Z</time></trkpt><trkpt lat="46.1635087" lon="13.4971738"><ele>503.0</ele><time>2026-05-02T12:13:18.472Z</time></trkpt><trkpt lat="46.1634718" lon="13.4972687"><ele>509.0</ele><time>2026-05-02T12:13:19.472Z</time></trkpt><trkpt lat="46.1634345" lon="13.4973783"><ele>515.0</ele><time>2026-05-02T12:13:20.473Z</time></trkpt><trkpt lat="46.1633628" lon="13.4976358"><ele>521.0</ele><time>2026-05-02T12:13:22.471Z</time></trkpt><trkpt lat="46.1633333" lon="13.4977633"><ele>527.0</ele><time>2026-05-02T12:13:23.469Z</time></trkpt><trkpt lat="46.1633008" lon="13.4978882"><ele>524.4</ele><time>2026-05-02T12:13:24.471Z</time></trkpt><trkpt lat="46.1632623" lon="13.4980287"><ele>521.8000000000001</ele><time>2026-05-02T12:13:25.469Z</time></trkpt><trkpt lat="46.1632168" lon="13.498178"><ele>519.2</ele><time>2026-05-02T12:13:26.469Z</time></trkpt><trkpt lat="46.1631727" lon="13.4983208"><ele>516.6</ele><time>2026-05-02T12:13:27.471Z</time></trkpt><trkpt lat="46.1631287" lon="13.4984368"><ele>514.0</ele><time>2026-05-02T12:13:28.47Z</time></trkpt><trkpt lat="46.1630947" lon="13.4985247"><ele>514.0</ele><time>2026-05-02T12:13:29.471Z</time></trkpt><trkpt lat="46.1630755" lon="13.4986337"><ele>514.0</ele><time>2026-05-02T12:13:31.471Z</time></trkpt><trkpt lat="46.163141" lon="13.4986237"><ele>514.0</ele><time>2026-05-02T12:13:34.472Z</time></trkpt><trkpt lat="46.1632197" lon="13.4985278"><ele>514.0</ele><time>2026-05-02T12:13:36.472Z</time></trkpt><trkpt lat="46.163372" lon="13.4983365"><ele>514.0</ele><time>2026-05-02T12:13:39.471Z</time></trkpt><trkpt lat="46.1634355" lon="13.4982612"><ele>516.1666666666667</ele><time>2026-05-02T12:13:40.471Z</time></trkpt><trkpt lat="46.1635132" lon="13.4981907"><ele>518.3333333333334</ele><time>2026-05-02T12:13:41.473Z</time></trkpt><trkpt lat="46.1635873" lon="13.498112"><ele>520.5</ele><time>2026-05-02T12:13:42.473Z</time></trkpt><trkpt lat="46.163648" lon="13.4980418"><ele>522.6666666666666</ele><time>2026-05-02T12:13:43.472Z</time></trkpt><trkpt lat="46.1637052" lon="13.497979"><ele>524.8333333333333</ele><time>2026-05-02T12:13:44.472Z</time></trkpt><trkpt lat="46.163768" lon="13.4979287"><ele>527.0</ele><time>2026-05-02T12:13:45.472Z</time></trkpt><trkpt lat="46.1639062" lon="13.497837"><ele>527.0</ele><time>2026-05-02T12:13:47.471Z</time></trkpt><trkpt lat="46.163985" lon="13.497791"><ele>527.0</ele><time>2026-05-02T12:13:48.471Z</time></trkpt><trkpt lat="46.1640612" lon="13.4977435"><ele>527.0</ele><time>2026-05-02T12:13:49.47Z</time></trkpt><trkpt lat="46.1641335" lon="13.497708"><ele>527.0</ele><time>2026-05-02T12:13:50.471Z</time></trkpt><trkpt lat="46.164199" lon="13.497687"><ele>527.0</ele><time>2026-05-02T12:13:51.472Z</time></trkpt><trkpt lat="46.164315" lon="13.4977102"><ele>527.0</ele><time>2026-05-02T12:13:53.471Z</time></trkpt><trkpt lat="46.1643913" lon="13.4977873"><ele>535.6</ele><time>2026-05-02T12:13:55.471Z</time></trkpt><trkpt lat="46.164439" lon="13.4979468"><ele>544.2</ele><time>2026-05-02T12:13:57.473Z</time></trkpt><trkpt lat="46.1644537" lon="13.4981695"><ele>552.8</ele><time>2026-05-02T12:13:59.47Z</time></trkpt><trkpt lat="46.1644507" lon="13.4982947"><ele>561.4</ele><time>2026-05-02T12:14:00.471Z</time></trkpt><trkpt lat="46.1644452" lon="13.4984163"><ele>570.0</ele><time>2026-05-02T12:14:01.474Z</time></trkpt><trkpt lat="46.1644375" lon="13.4985317"><ele>570.0</ele><time>2026-05-02T12:14:02.471Z</time></trkpt><trkpt lat="46.1644207" lon="13.4986383"><ele>570.0</ele><time>2026-05-02T12:14:03.472Z</time></trkpt><trkpt lat="46.1643923" lon="13.4987285"><ele>570.0</ele><time>2026-05-02T12:14:04.473Z</time></trkpt><trkpt lat="46.1643512" lon="13.4987975"><ele>570.0</ele><time>2026-05-02T12:14:05.472Z</time></trkpt><trkpt lat="46.1642907" lon="13.4988617"><ele>570.0</ele><time>2026-05-02T12:14:06.472Z</time></trkpt><trkpt lat="46.1642103" lon="13.4989308"><ele>570.0</ele><time>2026-05-02T12:14:07.472Z</time></trkpt><trkpt lat="46.164131" lon="13.4990047"><ele>570.3333333333334</ele><time>2026-05-02T12:14:08.473Z</time></trkpt><trkpt lat="46.1640665" lon="13.4990733"><ele>570.6666666666666</ele><time>2026-05-02T12:14:09.47Z</time></trkpt><trkpt lat="46.1640148" lon="13.4991572"><ele>571.0</ele><time>2026-05-02T12:14:10.471Z</time></trkpt><trkpt lat="46.1639783" lon="13.4992458"><ele>571.3333333333333</ele><time>2026-05-02T12:14:11.47Z</time></trkpt><trkpt lat="46.163945" lon="13.4993483"><ele>571.6666666666666</ele><time>2026-05-02T12:14:12.469Z</time></trkpt><trkpt lat="46.16393" lon="13.4994642"><ele>572.0</ele><time>2026-05-02T12:14:13.468Z</time></trkpt><trkpt lat="46.1639155" lon="13.499588"><ele>574.6</ele><time>2026-05-02T12:14:14.467Z</time></trkpt><trkpt lat="46.1638983" lon="13.4997093"><ele>577.2</ele><time>2026-05-02T12:14:15.468Z</time></trkpt><trkpt lat="46.1638742" lon="13.4998258"><ele>579.8</ele><time>2026-05-02T12:14:16.471Z</time></trkpt><trkpt lat="46.1638327" lon="13.4999392"><ele>582.4</ele><time>2026-05-02T12:14:17.471Z</time></trkpt><trkpt lat="46.1637887" lon="13.5000558"><ele>585.0</ele><time>2026-05-02T12:14:18.472Z</time></trkpt><trkpt lat="46.1637088" lon="13.5002895"><ele>585.0</ele><time>2026-05-02T12:14:20.471Z</time></trkpt><trkpt lat="46.1636705" lon="13.5004132"><ele>585.0</ele><time>2026-05-02T12:14:21.472Z</time></trkpt><trkpt lat="46.1636355" lon="13.5005387"><ele>585.0</ele><time>2026-05-02T12:14:22.47Z</time></trkpt><trkpt lat="46.1636022" lon="13.500665"><ele>585.0</ele><time>2026-05-02T12:14:23.472Z</time></trkpt><trkpt lat="46.1635702" lon="13.5007895"><ele>585.0</ele><time>2026-05-02T12:14:24.472Z</time></trkpt><trkpt lat="46.1635455" lon="13.5009082"><ele>585.0</ele><time>2026-05-02T12:14:25.472Z</time></trkpt><trkpt lat="46.1635225" lon="13.5010223"><ele>585.0</ele><time>2026-05-02T12:14:26.47Z</time></trkpt><trkpt lat="46.163511" lon="13.5011367"><ele>585.0</ele><time>2026-05-02T12:14:27.472Z</time></trkpt><trkpt lat="46.1635078" lon="13.5012548"><ele>585.0</ele><time>2026-05-02T12:14:28.469Z</time></trkpt><trkpt lat="46.1635312" lon="13.501371"><ele>585.0</ele><time>2026-05-02T12:14:29.47Z</time></trkpt><trkpt lat="46.1635568" lon="13.5014787"><ele>585.0</ele><time>2026-05-02T12:14:30.469Z</time></trkpt><trkpt lat="46.1635847" lon="13.501589"><ele>585.1666666666666</ele><time>2026-05-02T12:14:31.47Z</time></trkpt><trkpt lat="46.1636038" lon="13.5016915"><ele>585.3333333333334</ele><time>2026-05-02T12:14:32.47Z</time></trkpt><trkpt lat="46.1636213" lon="13.5017927"><ele>585.5</ele><time>2026-05-02T12:14:33.47Z</time></trkpt><trkpt lat="46.1636268" lon="13.5019087"><ele>585.6666666666667</ele><time>2026-05-02T12:14:34.47Z</time></trkpt><trkpt lat="46.1636362" lon="13.5020248"><ele>585.8333333333334</ele><time>2026-05-02T12:14:35.472Z</time></trkpt><trkpt lat="46.1636277" lon="13.5021445"><ele>586.0</ele><time>2026-05-02T12:14:36.469Z</time></trkpt><trkpt lat="46.1636165" lon="13.5022892"><ele>585.25</ele><time>2026-05-02T12:14:37.468Z</time></trkpt><trkpt lat="46.1635973" lon="13.5024162"><ele>584.5</ele><time>2026-05-02T12:14:38.469Z</time></trkpt><trkpt lat="46.1636052" lon="13.502541"><ele>583.75</ele><time>2026-05-02T12:14:39.469Z</time></trkpt><trkpt lat="46.1636078" lon="13.5028323"><ele>583.0</ele><time>2026-05-02T12:14:41.47Z</time></trkpt><trkpt lat="46.1636093" lon="13.502977"><ele>582.8</ele><time>2026-05-02T12:14:42.471Z</time></trkpt><trkpt lat="46.1636195" lon="13.5031195"><ele>582.5999999999999</ele><time>2026-05-02T12:14:43.471Z</time></trkpt><trkpt lat="46.1636313" lon="13.5032608"><ele>582.4000000000001</ele><time>2026-05-02T12:14:44.471Z</time></trkpt><trkpt lat="46.16364" lon="13.5034197"><ele>582.2</ele><time>2026-05-02T12:14:45.471Z</time></trkpt><trkpt lat="46.1636528" lon="13.5035767"><ele>582.0</ele><time>2026-05-02T12:14:46.471Z</time></trkpt><trkpt lat="46.1636602" lon="13.5037373"><ele>582.2</ele><time>2026-05-02T12:14:47.47Z</time></trkpt><trkpt lat="46.1636465" lon="13.503879"><ele>582.4000000000001</ele><time>2026-05-02T12:14:48.472Z</time></trkpt><trkpt lat="46.163639" lon="13.5040225"><ele>582.5999999999999</ele><time>2026-05-02T12:14:49.472Z</time></trkpt><trkpt lat="46.1636518" lon="13.5041597"><ele>582.8</ele><time>2026-05-02T12:14:50.469Z</time></trkpt><trkpt lat="46.1636448" lon="13.5043207"><ele>583.0</ele><time>2026-05-02T12:14:51.474Z</time></trkpt><trkpt lat="46.1636297" lon="13.5044825"><ele>582.5</ele><time>2026-05-02T12:14:52.471Z</time></trkpt><trkpt lat="46.1636178" lon="13.5046425"><ele>582.0</ele><time>2026-05-02T12:14:53.472Z</time></trkpt><trkpt lat="46.163598" lon="13.5048022"><ele>581.5</ele><time>2026-05-02T12:14:54.469Z</time></trkpt><trkpt lat="46.1635838" lon="13.5049678"><ele>581.0</ele><time>2026-05-02T12:14:55.468Z</time></trkpt><trkpt lat="46.1635738" lon="13.5051298"><ele>581.0</ele><time>2026-05-02T12:14:56.474Z</time></trkpt><trkpt lat="46.1635775" lon="13.5052758"><ele>581.0</ele><time>2026-05-02T12:14:57.467Z</time></trkpt><trkpt lat="46.1636033" lon="13.505392"><ele>581.0</ele><time>2026-05-02T12:14:58.469Z</time></trkpt><trkpt lat="46.1636185" lon="13.5055302"><ele>581.0</ele><time>2026-05-02T12:14:59.47Z</time></trkpt><trkpt lat="46.1636523" lon="13.5056708"><ele>581.0</ele><time>2026-05-02T12:15:00.471Z</time></trkpt><trkpt lat="46.1636902" lon="13.5059875"><ele>581.75</ele><time>2026-05-02T12:15:02.468Z</time></trkpt><trkpt lat="46.1637075" lon="13.5061567"><ele>582.5</ele><time>2026-05-02T12:15:03.468Z</time></trkpt><trkpt lat="46.163737" lon="13.5063317"><ele>583.25</ele><time>2026-05-02T12:15:04.468Z</time></trkpt><trkpt lat="46.1637537" lon="13.5065125"><ele>584.0</ele><time>2026-05-02T12:15:05.471Z</time></trkpt><trkpt lat="46.1637842" lon="13.5066758"><ele>583.1666666666666</ele><time>2026-05-02T12:15:06.472Z</time></trkpt><trkpt lat="46.1638138" lon="13.5068102"><ele>582.3333333333333</ele><time>2026-05-02T12:15:07.469Z</time></trkpt><trkpt lat="46.163832" lon="13.5069257"><ele>581.5</ele><time>2026-05-02T12:15:08.471Z</time></trkpt><trkpt lat="46.1638567" lon="13.5070208"><ele>580.6666666666666</ele><time>2026-05-02T12:15:09.47Z</time></trkpt><trkpt lat="46.1639083" lon="13.5071085"><ele>579.8333333333334</ele><time>2026-05-02T12:15:10.468Z</time></trkpt><trkpt lat="46.1639875" lon="13.5071632"><ele>579.0</ele><time>2026-05-02T12:15:11.469Z</time></trkpt><trkpt lat="46.1640803" lon="13.5072075"><ele>579.0</ele><time>2026-05-02T12:15:12.469Z</time></trkpt><trkpt lat="46.1641727" lon="13.5072583"><ele>579.0</ele><time>2026-05-02T12:15:13.469Z</time></trkpt><trkpt lat="46.1642717" lon="13.5073032"><ele>579.0</ele><time>2026-05-02T12:15:14.469Z</time></trkpt><trkpt lat="46.1643693" lon="13.5073512"><ele>579.0</ele><time>2026-05-02T12:15:15.468Z</time></trkpt><trkpt lat="46.1644657" lon="13.5073945"><ele>579.0</ele><time>2026-05-02T12:15:16.468Z</time></trkpt><trkpt lat="46.1645583" lon="13.5074255"><ele>579.0</ele><time>2026-05-02T12:15:17.468Z</time></trkpt><trkpt lat="46.1646427" lon="13.5074602"><ele>579.0</ele><time>2026-05-02T12:15:18.468Z</time></trkpt><trkpt lat="46.1647057" lon="13.5075038"><ele>579.0</ele><time>2026-05-02T12:15:19.468Z</time></trkpt><trkpt lat="46.164772" lon="13.507551"><ele>579.0</ele><time>2026-05-02T12:15:20.468Z</time></trkpt><trkpt lat="46.164846" lon="13.5076002"><ele>579.0</ele><time>2026-05-02T12:15:21.468Z</time></trkpt><trkpt lat="46.1649883" lon="13.507641"><ele>579.4</ele><time>2026-05-02T12:15:23.468Z</time></trkpt><trkpt lat="46.1651128" lon="13.5076097"><ele>579.8</ele><time>2026-05-02T12:15:25.467Z</time></trkpt><trkpt lat="46.1651755" lon="13.507583"><ele>580.2</ele><time>2026-05-02T12:15:26.466Z</time></trkpt><trkpt lat="46.165287" lon="13.5075227"><ele>580.6</ele><time>2026-05-02T12:15:28.468Z</time></trkpt><trkpt lat="46.1653752" lon="13.5074892"><ele>581.0</ele><time>2026-05-02T12:15:30.468Z</time></trkpt><trkpt lat="46.1654403" lon="13.5075395"><ele>581.0</ele><time>2026-05-02T12:15:32.469Z</time></trkpt><trkpt lat="46.1654822" lon="13.5076672"><ele>581.0</ele><time>2026-05-02T12:15:34.471Z</time></trkpt><trkpt lat="46.1654973" lon="13.5077612"><ele>581.0</ele><time>2026-05-02T12:15:35.471Z</time></trkpt><trkpt lat="46.1655197" lon="13.507854"><ele>581.0</ele><time>2026-05-02T12:15:36.472Z</time></trkpt><trkpt lat="46.1655367" lon="13.5079935"><ele>581.0</ele><time>2026-05-02T12:15:37.47Z</time></trkpt><trkpt lat="46.1655503" lon="13.5081293"><ele>581.0</ele><time>2026-05-02T12:15:38.469Z</time></trkpt><trkpt lat="46.1655592" lon="13.5082757"><ele>585.25</ele><time>2026-05-02T12:15:39.47Z</time></trkpt><trkpt lat="46.1655683" lon="13.5083992"><ele>589.5</ele><time>2026-05-02T12:15:40.469Z</time></trkpt><trkpt lat="46.1656082" lon="13.5085448"><ele>593.75</ele><time>2026-05-02T12:15:42.469Z</time></trkpt><trkpt lat="46.1657723" lon="13.508591"><ele>598.0</ele><time>2026-05-02T12:15:46.47Z</time></trkpt><trkpt lat="46.1658638" lon="13.5085438"><ele>598.0</ele><time>2026-05-02T12:15:48.472Z</time></trkpt><trkpt lat="46.1659575" lon="13.5085175"><ele>598.0</ele><time>2026-05-02T12:15:50.468Z</time></trkpt><trkpt lat="46.1660758" lon="13.5085058"><ele>598.0</ele><time>2026-05-02T12:15:52.468Z</time></trkpt><trkpt lat="46.166142" lon="13.5084932"><ele>598.0</ele><time>2026-05-02T12:15:53.468Z</time></trkpt><trkpt lat="46.166208" lon="13.508482"><ele>598.0</ele><time>2026-05-02T12:15:54.47Z</time></trkpt><trkpt lat="46.1662742" lon="13.5084723"><ele>598.0</ele><time>2026-05-02T12:15:55.47Z</time></trkpt><trkpt lat="46.1663395" lon="13.5084663"><ele>598.0</ele><time>2026-05-02T12:15:56.469Z</time></trkpt><trkpt lat="46.1664073" lon="13.5084517"><ele>598.0</ele><time>2026-05-02T12:15:57.469Z</time></trkpt><trkpt lat="46.1664732" lon="13.5084322"><ele>598.0</ele><time>2026-05-02T12:15:58.471Z</time></trkpt><trkpt lat="46.1665358" lon="13.508408"><ele>598.0</ele><time>2026-05-02T12:15:59.468Z</time></trkpt><trkpt lat="46.1666013" lon="13.5083877"><ele>598.0</ele><time>2026-05-02T12:16:00.469Z</time></trkpt><trkpt lat="46.166669" lon="13.508373"><ele>598.0</ele><time>2026-05-02T12:16:01.468Z</time></trkpt><trkpt lat="46.1667328" lon="13.508368"><ele>598.0</ele><time>2026-05-02T12:16:02.47Z</time></trkpt><trkpt lat="46.1668287" lon="13.5083863"><ele>601.6</ele><time>2026-05-02T12:16:04.47Z</time></trkpt><trkpt lat="46.1670137" lon="13.5085962"><ele>605.1999999999999</ele><time>2026-05-02T12:16:08.471Z</time></trkpt><trkpt lat="46.1670642" lon="13.5086713"><ele>608.8</ele><time>2026-05-02T12:16:09.47Z</time></trkpt><trkpt lat="46.1671152" lon="13.5087418"><ele>612.4</ele><time>2026-05-02T12:16:10.469Z</time></trkpt><trkpt lat="46.1671685" lon="13.5087925"><ele>616.0</ele><time>2026-05-02T12:16:11.472Z</time></trkpt><trkpt lat="46.1672902" lon="13.5087993"><ele>616.0</ele><time>2026-05-02T12:16:13.47Z</time></trkpt><trkpt lat="46.167357" lon="13.5087728"><ele>616.0</ele><time>2026-05-02T12:16:14.469Z</time></trkpt><trkpt lat="46.16743" lon="13.5087563"><ele>616.0</ele><time>2026-05-02T12:16:15.468Z</time></trkpt><trkpt lat="46.167508" lon="13.5087523"><ele>616.0</ele><time>2026-05-02T12:16:16.468Z</time></trkpt><trkpt lat="46.1675798" lon="13.5087403"><ele>616.0</ele><time>2026-05-02T12:16:17.469Z</time></trkpt><trkpt lat="46.1676625" lon="13.5087085"><ele>616.0</ele><time>2026-05-02T12:16:18.468Z</time></trkpt><trkpt lat="46.1677508" lon="13.5086623"><ele>606.4</ele><time>2026-05-02T12:16:19.469Z</time></trkpt><trkpt lat="46.1678377" lon="13.5086198"><ele>596.8</ele><time>2026-05-02T12:16:20.469Z</time></trkpt><trkpt lat="46.1679288" lon="13.508564"><ele>587.1999999999999</ele><time>2026-05-02T12:16:21.469Z</time></trkpt><trkpt lat="46.1680168" lon="13.5084947"><ele>577.6</ele><time>2026-05-02T12:16:22.471Z</time></trkpt><trkpt lat="46.1681113" lon="13.508418"><ele>568.0</ele><time>2026-05-02T12:16:23.469Z</time></trkpt><trkpt lat="46.168191" lon="13.5083142"><ele>571.0</ele><time>2026-05-02T12:16:24.473Z</time></trkpt><trkpt lat="46.1682583" lon="13.5082025"><ele>574.0</ele><time>2026-05-02T12:16:25.471Z</time></trkpt><trkpt lat="46.168399" lon="13.508001"><ele>577.0</ele><time>2026-05-02T12:16:27.472Z</time></trkpt><trkpt lat="46.1684672" lon="13.5079097"><ele>580.0</ele><time>2026-05-02T12:16:28.471Z</time></trkpt><trkpt lat="46.1685522" lon="13.507823"><ele>576.8333333333334</ele><time>2026-05-02T12:16:29.472Z</time></trkpt><trkpt lat="46.1686395" lon="13.5077395"><ele>573.6666666666667</ele><time>2026-05-02T12:16:30.471Z</time></trkpt><trkpt lat="46.1687255" lon="13.5076665"><ele>570.5</ele><time>2026-05-02T12:16:31.471Z</time></trkpt><trkpt lat="46.1688043" lon="13.507609"><ele>567.3333333333334</ele><time>2026-05-02T12:16:32.471Z</time></trkpt><trkpt lat="46.1688708" lon="13.5075655"><ele>564.1666666666666</ele><time>2026-05-02T12:16:33.471Z</time></trkpt><trkpt lat="46.168929" lon="13.50753"><ele>561.0</ele><time>2026-05-02T12:16:34.471Z</time></trkpt><trkpt lat="46.1690485" lon="13.5075422"><ele>561.0</ele><time>2026-05-02T12:16:36.47Z</time></trkpt><trkpt lat="46.1691107" lon="13.5076307"><ele>561.0</ele><time>2026-05-02T12:16:38.471Z</time></trkpt><trkpt lat="46.1691367" lon="13.507785"><ele>561.0</ele><time>2026-05-02T12:16:40.47Z</time></trkpt><trkpt lat="46.1691478" lon="13.5078948"><ele>561.0</ele><time>2026-05-02T12:16:41.469Z</time></trkpt><trkpt lat="46.1691452" lon="13.5080177"><ele>561.0</ele><time>2026-05-02T12:16:42.471Z</time></trkpt><trkpt lat="46.1691463" lon="13.5081478"><ele>561.0</ele><time>2026-05-02T12:16:43.471Z</time></trkpt><trkpt lat="46.1691813" lon="13.5082772"><ele>565.0</ele><time>2026-05-02T12:16:44.471Z</time></trkpt><trkpt lat="46.1692167" lon="13.5084008"><ele>569.0</ele><time>2026-05-02T12:16:45.472Z</time></trkpt><trkpt lat="46.1692643" lon="13.5085095"><ele>573.0</ele><time>2026-05-02T12:16:46.47Z</time></trkpt><trkpt lat="46.1693198" lon="13.5085878"><ele>577.0</ele><time>2026-05-02T12:16:47.471Z</time></trkpt><trkpt lat="46.1694715" lon="13.5087397"><ele>581.0</ele><time>2026-05-02T12:16:49.472Z</time></trkpt><trkpt lat="46.1695637" lon="13.5087908"><ele>579.1666666666666</ele><time>2026-05-02T12:16:50.471Z</time></trkpt><trkpt lat="46.169664" lon="13.5088193"><ele>577.3333333333333</ele><time>2026-05-02T12:16:51.471Z</time></trkpt><trkpt lat="46.1697552" lon="13.5088525"><ele>575.5</ele><time>2026-05-02T12:16:52.471Z</time></trkpt><trkpt lat="46.1698275" lon="13.5089083"><ele>573.6666666666666</ele><time>2026-05-02T12:16:53.471Z</time></trkpt><trkpt lat="46.1698985" lon="13.5089532"><ele>571.8333333333334</ele><time>2026-05-02T12:16:54.471Z</time></trkpt><trkpt lat="46.1699733" lon="13.5089813"><ele>570.0</ele><time>2026-05-02T12:16:55.472Z</time></trkpt><trkpt lat="46.170048" lon="13.5089863"><ele>570.0</ele><time>2026-05-02T12:16:56.47Z</time></trkpt><trkpt lat="46.170134" lon="13.5090068"><ele>570.0</ele><time>2026-05-02T12:16:57.47Z</time></trkpt><trkpt lat="46.170225" lon="13.5090278"><ele>570.0</ele><time>2026-05-02T12:16:58.469Z</time></trkpt><trkpt lat="46.1703072" lon="13.5090603"><ele>570.0</ele><time>2026-05-02T12:16:59.469Z</time></trkpt><trkpt lat="46.1703828" lon="13.5091155"><ele>570.0</ele><time>2026-05-02T12:17:00.47Z</time></trkpt><trkpt lat="46.1704488" lon="13.509185"><ele>570.0</ele><time>2026-05-02T12:17:01.47Z</time></trkpt><trkpt lat="46.1705147" lon="13.5092612"><ele>570.0</ele><time>2026-05-02T12:17:02.47Z</time></trkpt><trkpt lat="46.1705743" lon="13.509342"><ele>570.0</ele><time>2026-05-02T12:17:03.469Z</time></trkpt><trkpt lat="46.1706378" lon="13.5093943"><ele>570.0</ele><time>2026-05-02T12:17:04.468Z</time></trkpt><trkpt lat="46.1706983" lon="13.5094227"><ele>570.0</ele><time>2026-05-02T12:17:05.468Z</time></trkpt><trkpt lat="46.1708147" lon="13.5094405"><ele>570.0</ele><time>2026-05-02T12:17:07.467Z</time></trkpt><trkpt lat="46.1708963" lon="13.5094595"><ele>570.0</ele><time>2026-05-02T12:17:08.468Z</time></trkpt><trkpt lat="46.1710832" lon="13.50955"><ele>570.8</ele><time>2026-05-02T12:17:10.468Z</time></trkpt><trkpt lat="46.1711803" lon="13.5096167"><ele>571.6</ele><time>2026-05-02T12:17:11.468Z</time></trkpt><trkpt lat="46.1712807" lon="13.5096822"><ele>572.4</ele><time>2026-05-02T12:17:12.466Z</time></trkpt><trkpt lat="46.1713742" lon="13.5097535"><ele>573.2</ele><time>2026-05-02T12:17:13.468Z</time></trkpt><trkpt lat="46.1714643" lon="13.5098252"><ele>574.0</ele><time>2026-05-02T12:17:14.468Z</time></trkpt><trkpt lat="46.1715535" lon="13.5098792"><ele>571.5</ele><time>2026-05-02T12:17:15.47Z</time></trkpt><trkpt lat="46.171639" lon="13.5099028"><ele>569.0</ele><time>2026-05-02T12:17:16.468Z</time></trkpt><trkpt lat="46.1717097" lon="13.5099827"><ele>566.5</ele><time>2026-05-02T12:17:17.469Z</time></trkpt><trkpt lat="46.171786" lon="13.5100088"><ele>564.0</ele><time>2026-05-02T12:17:18.469Z</time></trkpt><trkpt lat="46.171863" lon="13.5100098"><ele>561.5</ele><time>2026-05-02T12:17:19.469Z</time></trkpt><trkpt lat="46.1719328" lon="13.5099885"><ele>559.0</ele><time>2026-05-02T12:17:20.468Z</time></trkpt><trkpt lat="46.1720058" lon="13.5099587"><ele>559.0</ele><time>2026-05-02T12:17:21.47Z</time></trkpt><trkpt lat="46.1720855" lon="13.5099347"><ele>559.0</ele><time>2026-05-02T12:17:22.472Z</time></trkpt><trkpt lat="46.1721632" lon="13.5098948"><ele>559.0</ele><time>2026-05-02T12:17:23.469Z</time></trkpt><trkpt lat="46.1722355" lon="13.5098502"><ele>559.0</ele><time>2026-05-02T12:17:24.471Z</time></trkpt><trkpt lat="46.1723148" lon="13.5098157"><ele>559.0</ele><time>2026-05-02T12:17:25.471Z</time></trkpt><trkpt lat="46.1723888" lon="13.509772"><ele>559.0</ele><time>2026-05-02T12:17:26.471Z</time></trkpt><trkpt lat="46.1724572" lon="13.5097202"><ele>560.8</ele><time>2026-05-02T12:17:27.471Z</time></trkpt><trkpt lat="46.172525" lon="13.5096747"><ele>562.5999999999999</ele><time>2026-05-02T12:17:28.468Z</time></trkpt><trkpt lat="46.1725973" lon="13.509656"><ele>564.4</ele><time>2026-05-02T12:17:29.469Z</time></trkpt><trkpt lat="46.1727615" lon="13.5096518"><ele>566.1999999999999</ele><time>2026-05-02T12:17:31.47Z</time></trkpt><trkpt lat="46.1728475" lon="13.5096498"><ele>568.0</ele><time>2026-05-02T12:17:32.474Z</time></trkpt><trkpt lat="46.1729278" lon="13.5096395"><ele>568.0</ele><time>2026-05-02T12:17:33.473Z</time></trkpt><trkpt lat="46.1730015" lon="13.5096228"><ele>568.0</ele><time>2026-05-02T12:17:34.473Z</time></trkpt><trkpt lat="46.173071" lon="13.5096043"><ele>568.0</ele><time>2026-05-02T12:17:35.472Z</time></trkpt><trkpt lat="46.1731738" lon="13.5095733"><ele>568.0</ele><time>2026-05-02T12:17:37.474Z</time></trkpt><trkpt lat="46.173274" lon="13.5095403"><ele>568.0</ele><time>2026-05-02T12:17:39.473Z</time></trkpt><trkpt lat="46.1733835" lon="13.5094538"><ele>567.0</ele><time>2026-05-02T12:17:41.472Z</time></trkpt><trkpt lat="46.173443" lon="13.5094093"><ele>566.0</ele><time>2026-05-02T12:17:42.472Z</time></trkpt><trkpt lat="46.1735115" lon="13.5093688"><ele>565.0</ele><time>2026-05-02T12:17:43.473Z</time></trkpt><trkpt lat="46.1735988" lon="13.5093557"><ele>564.0</ele><time>2026-05-02T12:17:44.472Z</time></trkpt><trkpt lat="46.1736885" lon="13.5093532"><ele>563.0</ele><time>2026-05-02T12:17:45.473Z</time></trkpt><trkpt lat="46.173786" lon="13.509355"><ele>562.0</ele><time>2026-05-02T12:17:46.473Z</time></trkpt><trkpt lat="46.1738822" lon="13.5093353"><ele>562.0</ele><time>2026-05-02T12:17:47.473Z</time></trkpt><trkpt lat="46.173974" lon="13.5092905"><ele>562.0</ele><time>2026-05-02T12:17:48.473Z</time></trkpt><trkpt lat="46.1740613" lon="13.5092305"><ele>562.0</ele><time>2026-05-02T12:17:49.473Z</time></trkpt><trkpt lat="46.1741478" lon="13.5091787"><ele>562.0</ele><time>2026-05-02T12:17:50.473Z</time></trkpt><trkpt lat="46.1743488" lon="13.5091538"><ele>563.6</ele><time>2026-05-02T12:17:52.472Z</time></trkpt><trkpt lat="46.1744482" lon="13.5091828"><ele>565.2</ele><time>2026-05-02T12:17:53.471Z</time></trkpt><trkpt lat="46.1745385" lon="13.5092397"><ele>566.8</ele><time>2026-05-02T12:17:54.471Z</time></trkpt><trkpt lat="46.1746245" lon="13.5093172"><ele>568.4</ele><time>2026-05-02T12:17:55.47Z</time></trkpt><trkpt lat="46.1747182" lon="13.5093917"><ele>570.0</ele><time>2026-05-02T12:17:56.47Z</time></trkpt><trkpt lat="46.1748215" lon="13.5094638"><ele>570.3333333333334</ele><time>2026-05-02T12:17:57.471Z</time></trkpt><trkpt lat="46.174918" lon="13.509522"><ele>570.6666666666666</ele><time>2026-05-02T12:17:58.47Z</time></trkpt><trkpt lat="46.1749983" lon="13.5095403"><ele>571.0</ele><time>2026-05-02T12:17:59.47Z</time></trkpt><trkpt lat="46.175069" lon="13.509526"><ele>571.3333333333333</ele><time>2026-05-02T12:18:00.471Z</time></trkpt><trkpt lat="46.1751355" lon="13.5094822"><ele>571.6666666666666</ele><time>2026-05-02T12:18:01.469Z</time></trkpt><trkpt lat="46.1751998" lon="13.5094013"><ele>572.0</ele><time>2026-05-02T12:18:02.47Z</time></trkpt><trkpt lat="46.1752495" lon="13.5092778"><ele>572.0</ele><time>2026-05-02T12:18:03.471Z</time></trkpt><trkpt lat="46.1752877" lon="13.5091205"><ele>572.0</ele><time>2026-05-02T12:18:04.472Z</time></trkpt><trkpt lat="46.1753283" lon="13.5089602"><ele>572.0</ele><time>2026-05-02T12:18:05.471Z</time></trkpt><trkpt lat="46.1753732" lon="13.5088003"><ele>572.0</ele><time>2026-05-02T12:18:06.472Z</time></trkpt><trkpt lat="46.1754293" lon="13.508654"><ele>572.6</ele><time>2026-05-02T12:18:07.472Z</time></trkpt><trkpt lat="46.1754967" lon="13.508529"><ele>573.2</ele><time>2026-05-02T12:18:08.472Z</time></trkpt><trkpt lat="46.1755783" lon="13.5084322"><ele>573.8</ele><time>2026-05-02T12:18:09.473Z</time></trkpt><trkpt lat="46.1756663" lon="13.5083535"><ele>574.4</ele><time>2026-05-02T12:18:10.472Z</time></trkpt><trkpt lat="46.1757487" lon="13.5082622"><ele>575.0</ele><time>2026-05-02T12:18:11.472Z</time></trkpt><trkpt lat="46.175888" lon="13.5080008"><ele>570.8</ele><time>2026-05-02T12:18:13.473Z</time></trkpt><trkpt lat="46.1759647" lon="13.507868"><ele>566.6</ele><time>2026-05-02T12:18:14.472Z</time></trkpt><trkpt lat="46.1760295" lon="13.5077383"><ele>562.4</ele><time>2026-05-02T12:18:15.472Z</time></trkpt><trkpt lat="46.1760767" lon="13.507599"><ele>558.2</ele><time>2026-05-02T12:18:16.471Z</time></trkpt><trkpt lat="46.176113" lon="13.5074605"><ele>554.0</ele><time>2026-05-02T12:18:17.47Z</time></trkpt><trkpt lat="46.1761503" lon="13.5073433"><ele>554.0</ele><time>2026-05-02T12:18:18.47Z</time></trkpt><trkpt lat="46.1761905" lon="13.507253"><ele>554.0</ele><time>2026-05-02T12:18:19.471Z</time></trkpt><trkpt lat="46.1762318" lon="13.5071828"><ele>554.0</ele><time>2026-05-02T12:18:20.469Z</time></trkpt><trkpt lat="46.176335" lon="13.5070702"><ele>554.0</ele><time>2026-05-02T12:18:22.472Z</time></trkpt><trkpt lat="46.176409" lon="13.5070185"><ele>554.0</ele><time>2026-05-02T12:18:23.472Z</time></trkpt><trkpt lat="46.1764972" lon="13.5069677"><ele>554.0</ele><time>2026-05-02T12:18:24.473Z</time></trkpt><trkpt lat="46.1765895" lon="13.5069007"><ele>554.4</ele><time>2026-05-02T12:18:25.473Z</time></trkpt><trkpt lat="46.17668" lon="13.5068138"><ele>554.8</ele><time>2026-05-02T12:18:26.473Z</time></trkpt><trkpt lat="46.1767658" lon="13.5067128"><ele>555.2</ele><time>2026-05-02T12:18:27.474Z</time></trkpt><trkpt lat="46.1768508" lon="13.5066067"><ele>555.6</ele><time>2026-05-02T12:18:28.472Z</time></trkpt><trkpt lat="46.1769365" lon="13.506513"><ele>556.0</ele><time>2026-05-02T12:18:29.472Z</time></trkpt><trkpt lat="46.1770288" lon="13.5064367"><ele>556.0</ele><time>2026-05-02T12:18:30.472Z</time></trkpt><trkpt lat="46.177125" lon="13.5063678"><ele>556.0</ele><time>2026-05-02T12:18:31.473Z</time></trkpt><trkpt lat="46.1772242" lon="13.5062988"><ele>556.0</ele><time>2026-05-02T12:18:32.472Z</time></trkpt><trkpt lat="46.1774043" lon="13.50616"><ele>556.0</ele><time>2026-05-02T12:18:34.472Z</time></trkpt><trkpt lat="46.1774693" lon="13.5060702"><ele>555.6</ele><time>2026-05-02T12:18:35.473Z</time></trkpt><trkpt lat="46.177512" lon="13.5059522"><ele>555.2</ele><time>2026-05-02T12:18:36.473Z</time></trkpt><trkpt lat="46.1775398" lon="13.5058153"><ele>554.8</ele><time>2026-05-02T12:18:37.473Z</time></trkpt><trkpt lat="46.17756" lon="13.5056705"><ele>554.4</ele><time>2026-05-02T12:18:38.471Z</time></trkpt><trkpt lat="46.1775693" lon="13.505522"><ele>554.0</ele><time>2026-05-02T12:18:39.471Z</time></trkpt><trkpt lat="46.1775535" lon="13.505374"><ele>554.0</ele><time>2026-05-02T12:18:40.47Z</time></trkpt><trkpt lat="46.1775208" lon="13.5052388"><ele>554.0</ele><time>2026-05-02T12:18:41.471Z</time></trkpt><trkpt lat="46.1775108" lon="13.505124"><ele>554.0</ele><time>2026-05-02T12:18:42.47Z</time></trkpt><trkpt lat="46.1775295" lon="13.505013"><ele>554.0</ele><time>2026-05-02T12:18:43.469Z</time></trkpt><trkpt lat="46.1775737" lon="13.5048913"><ele>554.0</ele><time>2026-05-02T12:18:44.469Z</time></trkpt><trkpt lat="46.1776343" lon="13.5047568"><ele>554.0</ele><time>2026-05-02T12:18:45.471Z</time></trkpt><trkpt lat="46.1777063" lon="13.5046205"><ele>554.0</ele><time>2026-05-02T12:18:46.471Z</time></trkpt><trkpt lat="46.1777772" lon="13.5044802"><ele>554.0</ele><time>2026-05-02T12:18:47.472Z</time></trkpt><trkpt lat="46.1778248" lon="13.5043232"><ele>554.0</ele><time>2026-05-02T12:18:48.471Z</time></trkpt><trkpt lat="46.1778538" lon="13.5041505"><ele>554.5</ele><time>2026-05-02T12:18:49.47Z</time></trkpt><trkpt lat="46.177869" lon="13.5039697"><ele>555.0</ele><time>2026-05-02T12:18:50.47Z</time></trkpt><trkpt lat="46.1778852" lon="13.5037898"><ele>555.5</ele><time>2026-05-02T12:18:51.471Z</time></trkpt><trkpt lat="46.1779068" lon="13.5036092"><ele>556.0</ele><time>2026-05-02T12:18:52.47Z</time></trkpt><trkpt lat="46.1779308" lon="13.5034433"><ele>556.5</ele><time>2026-05-02T12:18:53.471Z</time></trkpt><trkpt lat="46.1779907" lon="13.5031842"><ele>557.0</ele><time>2026-05-02T12:18:55.471Z</time></trkpt><trkpt lat="46.1780535" lon="13.503086"><ele>557.5</ele><time>2026-05-02T12:18:56.471Z</time></trkpt><trkpt lat="46.1781233" lon="13.502989"><ele>558.0</ele><time>2026-05-02T12:18:57.474Z</time></trkpt><trkpt lat="46.1781875" lon="13.5028898"><ele>561.5</ele><time>2026-05-02T12:18:58.473Z</time></trkpt><trkpt lat="46.1782415" lon="13.5027902"><ele>565.0</ele><time>2026-05-02T12:18:59.471Z</time></trkpt><trkpt lat="46.1782882" lon="13.5026937"><ele>568.5</ele><time>2026-05-02T12:19:00.472Z</time></trkpt><trkpt lat="46.1783283" lon="13.5026003"><ele>572.0</ele><time>2026-05-02T12:19:01.472Z</time></trkpt><trkpt lat="46.1783632" lon="13.5025183"><ele>575.5</ele><time>2026-05-02T12:19:02.474Z</time></trkpt><trkpt lat="46.1784088" lon="13.5024037"><ele>579.0</ele><time>2026-05-02T12:19:04.473Z</time></trkpt><trkpt lat="46.1784503" lon="13.5022977"><ele>579.0</ele><time>2026-05-02T12:19:07.471Z</time></trkpt><trkpt lat="46.1785015" lon="13.5021795"><ele>579.0</ele><time>2026-05-02T12:19:11.474Z</time></trkpt><trkpt lat="46.1785258" lon="13.50203"><ele>579.0</ele><time>2026-05-02T12:19:13.472Z</time></trkpt><trkpt lat="46.1785403" lon="13.501917"><ele>579.0</ele><time>2026-05-02T12:19:15.472Z</time></trkpt><trkpt lat="46.1785412" lon="13.501962"><ele>579.0</ele><time>2026-05-02T12:19:24.472Z</time></trkpt><trkpt lat="46.1785202" lon="13.5021503"><ele>579.0</ele><time>2026-05-02T12:19:26.473Z</time></trkpt><trkpt lat="46.1785047" lon="13.5022598"><ele>579.0</ele><time>2026-05-02T12:19:27.473Z</time></trkpt><trkpt lat="46.178491" lon="13.5023655"><ele>579.0</ele><time>2026-05-02T12:19:28.473Z</time></trkpt><trkpt lat="46.1784838" lon="13.5024573"><ele>579.0</ele><time>2026-05-02T12:19:29.473Z</time></trkpt><trkpt lat="46.1785133" lon="13.502583"><ele>579.0</ele><time>2026-05-02T12:19:31.47Z</time></trkpt><trkpt lat="46.1786082" lon="13.5026483"><ele>579.0</ele><time>2026-05-02T12:19:33.471Z</time></trkpt><trkpt lat="46.1786795" lon="13.5026752"><ele>579.0</ele><time>2026-05-02T12:19:35.473Z</time></trkpt><trkpt lat="46.1787295" lon="13.5027668"><ele>580.0</ele><time>2026-05-02T12:19:37.471Z</time></trkpt><trkpt lat="46.1787367" lon="13.5030387"><ele>581.0</ele><time>2026-05-02T12:19:40.472Z</time></trkpt><trkpt lat="46.1787233" lon="13.5031412"><ele>582.0</ele><time>2026-05-02T12:19:41.474Z</time></trkpt><trkpt lat="46.1787028" lon="13.5032495"><ele>583.0</ele><time>2026-05-02T12:19:42.473Z</time></trkpt><trkpt lat="46.1786715" lon="13.5033633"><ele>584.0</ele><time>2026-05-02T12:19:43.473Z</time></trkpt><trkpt lat="46.178628" lon="13.5034802"><ele>584.0</ele><time>2026-05-02T12:19:44.473Z</time></trkpt><trkpt lat="46.1785728" lon="13.5036015"><ele>584.0</ele><time>2026-05-02T12:19:45.473Z</time></trkpt><trkpt lat="46.1785152" lon="13.5037268"><ele>584.0</ele><time>2026-05-02T12:19:46.472Z</time></trkpt><trkpt lat="46.1784675" lon="13.503856"><ele>584.0</ele><time>2026-05-02T12:19:47.474Z</time></trkpt><trkpt lat="46.1784302" lon="13.5039742"><ele>584.0</ele><time>2026-05-02T12:19:48.473Z</time></trkpt><trkpt lat="46.1784073" lon="13.5040885"><ele>585.3333333333333</ele><time>2026-05-02T12:19:49.472Z</time></trkpt><trkpt lat="46.178401" lon="13.5041982"><ele>586.6666666666666</ele><time>2026-05-02T12:19:50.472Z</time></trkpt><trkpt lat="46.1784073" lon="13.5043107"><ele>588.0</ele><time>2026-05-02T12:19:51.472Z</time></trkpt><trkpt lat="46.1784187" lon="13.5044282"><ele>589.3333333333334</ele><time>2026-05-02T12:19:52.471Z</time></trkpt><trkpt lat="46.1784322" lon="13.504542"><ele>590.6666666666667</ele><time>2026-05-02T12:19:53.472Z</time></trkpt><trkpt lat="46.1784352" lon="13.5046423"><ele>592.0</ele><time>2026-05-02T12:19:54.472Z</time></trkpt><trkpt lat="46.1784307" lon="13.5047493"><ele>593.2</ele><time>2026-05-02T12:19:55.469Z</time></trkpt><trkpt lat="46.1784198" lon="13.5048557"><ele>594.4000000000001</ele><time>2026-05-02T12:19:56.47Z</time></trkpt><trkpt lat="46.1784082" lon="13.5049672"><ele>595.5999999999999</ele><time>2026-05-02T12:19:57.469Z</time></trkpt><trkpt lat="46.1783927" lon="13.5050737"><ele>596.8</ele><time>2026-05-02T12:19:58.468Z</time></trkpt><trkpt lat="46.1783743" lon="13.5053405"><ele>598.0</ele><time>2026-05-02T12:20:00.471Z</time></trkpt><trkpt lat="46.1783567" lon="13.50549"><ele>599.4</ele><time>2026-05-02T12:20:01.471Z</time></trkpt><trkpt lat="46.1783323" lon="13.505645"><ele>600.8</ele><time>2026-05-02T12:20:02.47Z</time></trkpt><trkpt lat="46.1783038" lon="13.5057862"><ele>602.2</ele><time>2026-05-02T12:20:03.47Z</time></trkpt><trkpt lat="46.1782683" lon="13.5059038"><ele>603.6</ele><time>2026-05-02T12:20:04.471Z</time></trkpt><trkpt lat="46.1782452" lon="13.5060103"><ele>605.0</ele><time>2026-05-02T12:20:05.471Z</time></trkpt><trkpt lat="46.1782415" lon="13.5061765"><ele>607.4</ele><time>2026-05-02T12:20:07.471Z</time></trkpt><trkpt lat="46.1782542" lon="13.5063193"><ele>609.8</ele><time>2026-05-02T12:20:09.472Z</time></trkpt><trkpt lat="46.1782497" lon="13.5064523"><ele>612.2</ele><time>2026-05-02T12:20:11.47Z</time></trkpt><trkpt lat="46.1781873" lon="13.5065548"><ele>614.6</ele><time>2026-05-02T12:20:13.472Z</time></trkpt><trkpt lat="46.1781007" lon="13.5066812"><ele>617.0</ele><time>2026-05-02T12:20:15.472Z</time></trkpt><trkpt lat="46.1780287" lon="13.5068415"><ele>616.0</ele><time>2026-05-02T12:20:17.471Z</time></trkpt><trkpt lat="46.1779942" lon="13.506934"><ele>615.0</ele><time>2026-05-02T12:20:18.471Z</time></trkpt><trkpt lat="46.1779638" lon="13.5070403"><ele>614.0</ele><time>2026-05-02T12:20:19.47Z</time></trkpt><trkpt lat="46.1779283" lon="13.5072398"><ele>613.0</ele><time>2026-05-02T12:20:21.469Z</time></trkpt><trkpt lat="46.177941" lon="13.5073313"><ele>612.0</ele><time>2026-05-02T12:20:23.47Z</time></trkpt><trkpt lat="46.17802" lon="13.5072787"><ele>611.0</ele><time>2026-05-02T12:20:26.472Z</time></trkpt><trkpt lat="46.1781265" lon="13.5071512"><ele>611.0</ele><time>2026-05-02T12:20:28.472Z</time></trkpt><trkpt lat="46.1781838" lon="13.5070988"><ele>611.0</ele><time>2026-05-02T12:20:29.472Z</time></trkpt><trkpt lat="46.1783152" lon="13.5070787"><ele>611.0</ele><time>2026-05-02T12:20:31.472Z</time></trkpt><trkpt lat="46.1783822" lon="13.5071073"><ele>611.0</ele><time>2026-05-02T12:20:32.472Z</time></trkpt><trkpt lat="46.178437" lon="13.5071547"><ele>611.0</ele><time>2026-05-02T12:20:33.472Z</time></trkpt><trkpt lat="46.1785167" lon="13.5071853"><ele>611.0</ele><time>2026-05-02T12:20:35.471Z</time></trkpt><trkpt lat="46.1785988" lon="13.5070912"><ele>612.2</ele><time>2026-05-02T12:20:37.471Z</time></trkpt><trkpt lat="46.1786437" lon="13.5070113"><ele>613.4000000000001</ele><time>2026-05-02T12:20:38.471Z</time></trkpt><trkpt lat="46.1786787" lon="13.5069185"><ele>614.6</ele><time>2026-05-02T12:20:39.472Z</time></trkpt><trkpt lat="46.1787103" lon="13.5068033"><ele>615.8000000000001</ele><time>2026-05-02T12:20:40.471Z</time></trkpt><trkpt lat="46.1787722" lon="13.5065943"><ele>617.0</ele><time>2026-05-02T12:20:42.472Z</time></trkpt><trkpt lat="46.1788055" lon="13.5064973"><ele>617.0</ele><time>2026-05-02T12:20:43.47Z</time></trkpt><trkpt lat="46.1788413" lon="13.5063882"><ele>617.0</ele><time>2026-05-02T12:20:44.469Z</time></trkpt><trkpt lat="46.178876" lon="13.5062763"><ele>617.0</ele><time>2026-05-02T12:20:45.47Z</time></trkpt><trkpt lat="46.1789093" lon="13.5061643"><ele>617.0</ele><time>2026-05-02T12:20:46.469Z</time></trkpt><trkpt lat="46.1789427" lon="13.5060588"><ele>617.0</ele><time>2026-05-02T12:20:47.469Z</time></trkpt><trkpt lat="46.1789808" lon="13.5059532"><ele>617.0</ele><time>2026-05-02T12:20:48.472Z</time></trkpt><trkpt lat="46.1790202" lon="13.5058477"><ele>621.4</ele><time>2026-05-02T12:20:49.472Z</time></trkpt><trkpt lat="46.1790718" lon="13.5057393"><ele>625.8000000000001</ele><time>2026-05-02T12:20:50.472Z</time></trkpt><trkpt lat="46.1791083" lon="13.505622"><ele>630.2</ele><time>2026-05-02T12:20:51.474Z</time></trkpt><trkpt lat="46.1791412" lon="13.5054967"><ele>634.6</ele><time>2026-05-02T12:20:52.472Z</time></trkpt><trkpt lat="46.179175" lon="13.5053707"><ele>639.0</ele><time>2026-05-02T12:20:53.472Z</time></trkpt><trkpt lat="46.1792115" lon="13.5052475"><ele>639.0</ele><time>2026-05-02T12:20:54.473Z</time></trkpt><trkpt lat="46.1792533" lon="13.505127"><ele>639.0</ele><time>2026-05-02T12:20:55.471Z</time></trkpt><trkpt lat="46.1793013" lon="13.505018"><ele>639.0</ele><time>2026-05-02T12:20:56.471Z</time></trkpt><trkpt lat="46.1793413" lon="13.5049122"><ele>639.0</ele><time>2026-05-02T12:20:57.472Z</time></trkpt><trkpt lat="46.1793735" lon="13.5047935"><ele>639.0</ele><time>2026-05-02T12:20:58.471Z</time></trkpt><trkpt lat="46.1794173" lon="13.5046662"><ele>636.0</ele><time>2026-05-02T12:20:59.472Z</time></trkpt><trkpt lat="46.179471" lon="13.5045378"><ele>633.0</ele><time>2026-05-02T12:21:00.472Z</time></trkpt><trkpt lat="46.1795222" lon="13.5044098"><ele>630.0</ele><time>2026-05-02T12:21:01.472Z</time></trkpt><trkpt lat="46.1796445" lon="13.5041373"><ele>627.0</ele><time>2026-05-02T12:21:03.471Z</time></trkpt><trkpt lat="46.1797087" lon="13.5040005"><ele>627.0</ele><time>2026-05-02T12:21:04.472Z</time></trkpt><trkpt lat="46.1797658" lon="13.5038678"><ele>627.0</ele><time>2026-05-02T12:21:05.472Z</time></trkpt><trkpt lat="46.1798243" lon="13.503736"><ele>627.0</ele><time>2026-05-02T12:21:06.472Z</time></trkpt><trkpt lat="46.1798872" lon="13.5036085"><ele>627.0</ele><time>2026-05-02T12:21:07.471Z</time></trkpt><trkpt lat="46.1799582" lon="13.5034812"><ele>627.0</ele><time>2026-05-02T12:21:08.47Z</time></trkpt><trkpt lat="46.1800313" lon="13.5033592"><ele>630.2</ele><time>2026-05-02T12:21:09.469Z</time></trkpt><trkpt lat="46.1801097" lon="13.5032432"><ele>633.4000000000001</ele><time>2026-05-02T12:21:10.468Z</time></trkpt><trkpt lat="46.1801862" lon="13.5031283"><ele>636.5999999999999</ele><time>2026-05-02T12:21:11.468Z</time></trkpt><trkpt lat="46.1802588" lon="13.5030157"><ele>639.8</ele><time>2026-05-02T12:21:12.47Z</time></trkpt><trkpt lat="46.1803325" lon="13.5029073"><ele>643.0</ele><time>2026-05-02T12:21:13.469Z</time></trkpt><trkpt lat="46.1804148" lon="13.5028115"><ele>643.0</ele><time>2026-05-02T12:21:14.471Z</time></trkpt><trkpt lat="46.180501" lon="13.5027158"><ele>643.0</ele><time>2026-05-02T12:21:15.471Z</time></trkpt><trkpt lat="46.1805763" lon="13.5026115"><ele>643.0</ele><time>2026-05-02T12:21:16.471Z</time></trkpt><trkpt lat="46.1806442" lon="13.5025132"><ele>643.0</ele><time>2026-05-02T12:21:17.471Z</time></trkpt><trkpt lat="46.1807068" lon="13.5024357"><ele>643.0</ele><time>2026-05-02T12:21:18.471Z</time></trkpt><trkpt lat="46.1807602" lon="13.5023638"><ele>645.0</ele><time>2026-05-02T12:21:19.47Z</time></trkpt><trkpt lat="46.180819" lon="13.5023128"><ele>647.0</ele><time>2026-05-02T12:21:20.471Z</time></trkpt><trkpt lat="46.180886" lon="13.502265"><ele>649.0</ele><time>2026-05-02T12:21:21.471Z</time></trkpt><trkpt lat="46.1809613" lon="13.5022212"><ele>651.0</ele><time>2026-05-02T12:21:22.472Z</time></trkpt><trkpt lat="46.1810935" lon="13.5020878"><ele>653.0</ele><time>2026-05-02T12:21:24.472Z</time></trkpt><trkpt lat="46.1811598" lon="13.5020113"><ele>653.0</ele><time>2026-05-02T12:21:25.472Z</time></trkpt><trkpt lat="46.1812227" lon="13.5019218"><ele>653.0</ele><time>2026-05-02T12:21:26.472Z</time></trkpt><trkpt lat="46.1812872" lon="13.5018172"><ele>653.0</ele><time>2026-05-02T12:21:27.472Z</time></trkpt><trkpt lat="46.1813582" lon="13.5017017"><ele>653.0</ele><time>2026-05-02T12:21:28.471Z</time></trkpt><trkpt lat="46.1814253" lon="13.5015827"><ele>653.0</ele><time>2026-05-02T12:21:29.471Z</time></trkpt><trkpt lat="46.1814967" lon="13.5014778"><ele>655.8</ele><time>2026-05-02T12:21:30.472Z</time></trkpt><trkpt lat="46.181579" lon="13.5013692"><ele>658.5999999999999</ele><time>2026-05-02T12:21:31.472Z</time></trkpt><trkpt lat="46.1816585" lon="13.5012568"><ele>661.4000000000001</ele><time>2026-05-02T12:21:32.471Z</time></trkpt><trkpt lat="46.1817333" lon="13.501145"><ele>664.2</ele><time>2026-05-02T12:21:33.47Z</time></trkpt><trkpt lat="46.1817983" lon="13.501025"><ele>667.0</ele><time>2026-05-02T12:21:34.47Z</time></trkpt><trkpt lat="46.1818557" lon="13.5009158"><ele>667.0</ele><time>2026-05-02T12:21:35.469Z</time></trkpt><trkpt lat="46.1819083" lon="13.500804"><ele>667.0</ele><time>2026-05-02T12:21:36.471Z</time></trkpt><trkpt lat="46.1819532" lon="13.5007047"><ele>667.0</ele><time>2026-05-02T12:21:37.471Z</time></trkpt><trkpt lat="46.1820023" lon="13.5006182"><ele>667.0</ele><time>2026-05-02T12:21:38.472Z</time></trkpt><trkpt lat="46.182044" lon="13.5005448"><ele>667.0</ele><time>2026-05-02T12:21:39.471Z</time></trkpt><trkpt lat="46.1821237" lon="13.500474"><ele>667.0</ele><time>2026-05-02T12:21:41.471Z</time></trkpt><trkpt lat="46.1821753" lon="13.5003902"><ele>667.8</ele><time>2026-05-02T12:21:47.47Z</time></trkpt><trkpt lat="46.1823173" lon="13.5002197"><ele>668.6</ele><time>2026-05-02T12:21:50.471Z</time></trkpt><trkpt lat="46.1823745" lon="13.5001427"><ele>669.4</ele><time>2026-05-02T12:21:51.471Z</time></trkpt><trkpt lat="46.182435" lon="13.5000785"><ele>670.1999999999999</ele><time>2026-05-02T12:21:52.471Z</time></trkpt><trkpt lat="46.1824937" lon="13.500025"><ele>671.0</ele><time>2026-05-02T12:21:53.472Z</time></trkpt><trkpt lat="46.1825453" lon="13.4999647"><ele>671.0</ele><time>2026-05-02T12:21:54.471Z</time></trkpt><trkpt lat="46.1825948" lon="13.4998955"><ele>671.0</ele><time>2026-05-02T12:21:55.471Z</time></trkpt><trkpt lat="46.1826552" lon="13.4998327"><ele>671.0</ele><time>2026-05-02T12:21:56.471Z</time></trkpt><trkpt lat="46.1827148" lon="13.4997802"><ele>671.0</ele><time>2026-05-02T12:21:57.47Z</time></trkpt><trkpt lat="46.1827732" lon="13.4997397"><ele>671.0</ele><time>2026-05-02T12:21:58.468Z</time></trkpt><trkpt lat="46.1828438" lon="13.4997112"><ele>671.0</ele><time>2026-05-02T12:21:59.469Z</time></trkpt><trkpt lat="46.1829157" lon="13.4996742"><ele>671.0</ele><time>2026-05-02T12:22:00.469Z</time></trkpt><trkpt lat="46.1829933" lon="13.4996382"><ele>671.0</ele><time>2026-05-02T12:22:01.469Z</time></trkpt><trkpt lat="46.1830755" lon="13.4995878"><ele>671.0</ele><time>2026-05-02T12:22:02.47Z</time></trkpt><trkpt lat="46.1831588" lon="13.4995255"><ele>671.0</ele><time>2026-05-02T12:22:03.472Z</time></trkpt><trkpt lat="46.1832273" lon="13.4994317"><ele>671.0</ele><time>2026-05-02T12:22:04.47Z</time></trkpt><trkpt lat="46.1832812" lon="13.4993242"><ele>671.0</ele><time>2026-05-02T12:22:05.47Z</time></trkpt><trkpt lat="46.1833318" lon="13.4992177"><ele>669.5</ele><time>2026-05-02T12:22:06.47Z</time></trkpt><trkpt lat="46.183382" lon="13.4991107"><ele>668.0</ele><time>2026-05-02T12:22:07.47Z</time></trkpt><trkpt lat="46.1834503" lon="13.4990193"><ele>666.5</ele><time>2026-05-02T12:22:08.474Z</time></trkpt><trkpt lat="46.1836105" lon="13.4988662"><ele>665.0</ele><time>2026-05-02T12:22:10.469Z</time></trkpt><trkpt lat="46.1836952" lon="13.4988135"><ele>665.0</ele><time>2026-05-02T12:22:11.47Z</time></trkpt><trkpt lat="46.1837855" lon="13.4987612"><ele>665.0</ele><time>2026-05-02T12:22:12.471Z</time></trkpt><trkpt lat="46.1838717" lon="13.498696"><ele>665.0</ele><time>2026-05-02T12:22:13.472Z</time></trkpt><trkpt lat="46.1839513" lon="13.4986282"><ele>665.0</ele><time>2026-05-02T12:22:14.47Z</time></trkpt><trkpt lat="46.1840173" lon="13.4985705"><ele>665.0</ele><time>2026-05-02T12:22:15.472Z</time></trkpt><trkpt lat="46.1840745" lon="13.4985142"><ele>665.0</ele><time>2026-05-02T12:22:16.471Z</time></trkpt><trkpt lat="46.1841268" lon="13.4984353"><ele>663.6666666666666</ele><time>2026-05-02T12:22:17.469Z</time></trkpt><trkpt lat="46.1841803" lon="13.4983317"><ele>662.3333333333333</ele><time>2026-05-02T12:22:18.471Z</time></trkpt><trkpt lat="46.1842205" lon="13.4982293"><ele>661.0</ele><time>2026-05-02T12:22:19.47Z</time></trkpt><trkpt lat="46.1842743" lon="13.4981255"><ele>659.6666666666666</ele><time>2026-05-02T12:22:20.47Z</time></trkpt><trkpt lat="46.1843248" lon="13.4980542"><ele>658.3333333333334</ele><time>2026-05-02T12:22:21.472Z</time></trkpt><trkpt lat="46.1844185" lon="13.498003"><ele>657.0</ele><time>2026-05-02T12:22:23.47Z</time></trkpt><trkpt lat="46.1845068" lon="13.4979847"><ele>657.0</ele><time>2026-05-02T12:22:25.468Z</time></trkpt><trkpt lat="46.1846223" lon="13.497929"><ele>657.0</ele><time>2026-05-02T12:22:27.471Z</time></trkpt><trkpt lat="46.1846883" lon="13.4978868"><ele>657.0</ele><time>2026-05-02T12:22:28.472Z</time></trkpt><trkpt lat="46.1847942" lon="13.4977967"><ele>657.0</ele><time>2026-05-02T12:22:30.472Z</time></trkpt><trkpt lat="46.1848877" lon="13.4976612"><ele>657.0</ele><time>2026-05-02T12:22:32.471Z</time></trkpt><trkpt lat="46.1849392" lon="13.4975887"><ele>658.1666666666666</ele><time>2026-05-02T12:22:33.472Z</time></trkpt><trkpt lat="46.1850005" lon="13.4975153"><ele>659.3333333333334</ele><time>2026-05-02T12:22:34.472Z</time></trkpt><trkpt lat="46.18507" lon="13.4974495"><ele>660.5</ele><time>2026-05-02T12:22:35.472Z</time></trkpt><trkpt lat="46.1851475" lon="13.4973882"><ele>661.6666666666667</ele><time>2026-05-02T12:22:36.473Z</time></trkpt><trkpt lat="46.1852177" lon="13.4973113"><ele>662.8333333333334</ele><time>2026-05-02T12:22:37.471Z</time></trkpt><trkpt lat="46.1852678" lon="13.4972217"><ele>664.0</ele><time>2026-05-02T12:22:38.47Z</time></trkpt><trkpt lat="46.1853033" lon="13.4971255"><ele>662.0</ele><time>2026-05-02T12:22:39.471Z</time></trkpt><trkpt lat="46.1853233" lon="13.4970098"><ele>660.0</ele><time>2026-05-02T12:22:40.471Z</time></trkpt><trkpt lat="46.1853443" lon="13.4968815"><ele>658.0</ele><time>2026-05-02T12:22:41.472Z</time></trkpt><trkpt lat="46.1853638" lon="13.4967488"><ele>656.0</ele><time>2026-05-02T12:22:42.471Z</time></trkpt><trkpt lat="46.1853992" lon="13.4966267"><ele>654.0</ele><time>2026-05-02T12:22:43.471Z</time></trkpt><trkpt lat="46.185442" lon="13.4965137"><ele>652.0</ele><time>2026-05-02T12:22:44.47Z</time></trkpt><trkpt lat="46.185494" lon="13.4964008"><ele>652.0</ele><time>2026-05-02T12:22:45.47Z</time></trkpt><trkpt lat="46.1855443" lon="13.4962798"><ele>652.0</ele><time>2026-05-02T12:22:46.469Z</time></trkpt><trkpt lat="46.1855943" lon="13.4961563"><ele>652.0</ele><time>2026-05-02T12:22:47.47Z</time></trkpt><trkpt lat="46.1856502" lon="13.496048"><ele>652.0</ele><time>2026-05-02T12:22:48.469Z</time></trkpt><trkpt lat="46.1857073" lon="13.495959"><ele>652.0</ele><time>2026-05-02T12:22:49.469Z</time></trkpt><trkpt lat="46.1857808" lon="13.4958867"><ele>657.0</ele><time>2026-05-02T12:22:50.471Z</time></trkpt><trkpt lat="46.1858647" lon="13.4958185"><ele>662.0</ele><time>2026-05-02T12:22:51.472Z</time></trkpt><trkpt lat="46.1860225" lon="13.4957207"><ele>667.0</ele><time>2026-05-02T12:22:53.471Z</time></trkpt><trkpt lat="46.1861045" lon="13.4957163"><ele>672.0</ele><time>2026-05-02T12:22:54.471Z</time></trkpt><trkpt lat="46.1861823" lon="13.495741"><ele>677.0</ele><time>2026-05-02T12:22:55.471Z</time></trkpt><trkpt lat="46.1862518" lon="13.4957773"><ele>677.0</ele><time>2026-05-02T12:22:56.472Z</time></trkpt><trkpt lat="46.1863195" lon="13.4958307"><ele>677.0</ele><time>2026-05-02T12:22:57.47Z</time></trkpt><trkpt lat="46.1863938" lon="13.4958988"><ele>677.0</ele><time>2026-05-02T12:22:58.47Z</time></trkpt><trkpt lat="46.1864663" lon="13.4959622"><ele>677.0</ele><time>2026-05-02T12:22:59.471Z</time></trkpt><trkpt lat="46.1865487" lon="13.4960447"><ele>677.0</ele><time>2026-05-02T12:23:00.472Z</time></trkpt><trkpt lat="46.1866437" lon="13.4961273"><ele>680.0</ele><time>2026-05-02T12:23:01.472Z</time></trkpt><trkpt lat="46.1867483" lon="13.4962022"><ele>683.0</ele><time>2026-05-02T12:23:02.472Z</time></trkpt><trkpt lat="46.186857" lon="13.4962848"><ele>686.0</ele><time>2026-05-02T12:23:03.471Z</time></trkpt><trkpt lat="46.186957" lon="13.496312"><ele>689.0</ele><time>2026-05-02T12:23:04.471Z</time></trkpt><trkpt lat="46.1870648" lon="13.4963348"><ele>690.2</ele><time>2026-05-02T12:23:05.469Z</time></trkpt><trkpt lat="46.187176" lon="13.4963833"><ele>691.4000000000001</ele><time>2026-05-02T12:23:06.47Z</time></trkpt><trkpt lat="46.1872798" lon="13.4963982"><ele>692.6</ele><time>2026-05-02T12:23:07.469Z</time></trkpt><trkpt lat="46.1873763" lon="13.4964215"><ele>693.8</ele><time>2026-05-02T12:23:08.468Z</time></trkpt><trkpt lat="46.1874635" lon="13.4964302"><ele>695.0</ele><time>2026-05-02T12:23:09.469Z</time></trkpt><trkpt lat="46.187552" lon="13.4964355"><ele>695.0</ele><time>2026-05-02T12:23:10.468Z</time></trkpt><trkpt lat="46.1876452" lon="13.4964322"><ele>695.0</ele><time>2026-05-02T12:23:11.465Z</time></trkpt><trkpt lat="46.1877503" lon="13.496435"><ele>695.0</ele><time>2026-05-02T12:23:12.466Z</time></trkpt><trkpt lat="46.1879587" lon="13.4964895"><ele>695.0</ele><time>2026-05-02T12:23:14.465Z</time></trkpt><trkpt lat="46.1880533" lon="13.4965233"><ele>695.0</ele><time>2026-05-02T12:23:15.467Z</time></trkpt><trkpt lat="46.1881297" lon="13.4965362"><ele>695.0</ele><time>2026-05-02T12:23:16.467Z</time></trkpt><trkpt lat="46.1881978" lon="13.4965375"><ele>695.0</ele><time>2026-05-02T12:23:17.467Z</time></trkpt><trkpt lat="46.1882702" lon="13.4965617"><ele>695.0</ele><time>2026-05-02T12:23:18.468Z</time></trkpt><trkpt lat="46.1883622" lon="13.4965605"><ele>695.0</ele><time>2026-05-02T12:23:19.466Z</time></trkpt><trkpt lat="46.188447" lon="13.4965403"><ele>695.0</ele><time>2026-05-02T12:23:20.467Z</time></trkpt><trkpt lat="46.1885387" lon="13.4965488"><ele>694.3333333333333</ele><time>2026-05-02T12:23:21.468Z</time></trkpt><trkpt lat="46.1886275" lon="13.4965502"><ele>693.6666666666666</ele><time>2026-05-02T12:23:22.466Z</time></trkpt><trkpt lat="46.1887177" lon="13.4965385"><ele>693.0</ele><time>2026-05-02T12:23:23.467Z</time></trkpt><trkpt lat="46.1888035" lon="13.4965152"><ele>692.3333333333334</ele><time>2026-05-02T12:23:24.468Z</time></trkpt><trkpt lat="46.1888822" lon="13.4964962"><ele>691.6666666666667</ele><time>2026-05-02T12:23:25.466Z</time></trkpt><trkpt lat="46.1889495" lon="13.4965003"><ele>691.0</ele><time>2026-05-02T12:23:26.467Z</time></trkpt><trkpt lat="46.1890177" lon="13.4964825"><ele>691.0</ele><time>2026-05-02T12:23:27.468Z</time></trkpt><trkpt lat="46.1890878" lon="13.4964492"><ele>691.0</ele><time>2026-05-02T12:23:28.468Z</time></trkpt><trkpt lat="46.1891577" lon="13.4964375"><ele>691.0</ele><time>2026-05-02T12:23:29.468Z</time></trkpt><trkpt lat="46.1892362" lon="13.4964198"><ele>691.0</ele><time>2026-05-02T12:23:30.468Z</time></trkpt><trkpt lat="46.1893188" lon="13.4963937"><ele>691.0</ele><time>2026-05-02T12:23:31.468Z</time></trkpt><trkpt lat="46.1893952" lon="13.4963797"><ele>691.0</ele><time>2026-05-02T12:23:32.468Z</time></trkpt><trkpt lat="46.1894645" lon="13.4963802"><ele>691.0</ele><time>2026-05-02T12:23:33.47Z</time></trkpt><trkpt lat="46.189605" lon="13.4964067"><ele>691.0</ele><time>2026-05-02T12:23:35.467Z</time></trkpt><trkpt lat="46.1896768" lon="13.4964208"><ele>691.0</ele><time>2026-05-02T12:23:36.468Z</time></trkpt><trkpt lat="46.1897543" lon="13.4964277"><ele>691.0</ele><time>2026-05-02T12:23:37.467Z</time></trkpt><trkpt lat="46.1898192" lon="13.4964398"><ele>691.0</ele><time>2026-05-02T12:23:38.467Z</time></trkpt><trkpt lat="46.1899197" lon="13.4965057"><ele>693.1666666666667</ele><time>2026-05-02T12:23:40.469Z</time></trkpt><trkpt lat="46.1900217" lon="13.4965945"><ele>695.3333333333334</ele><time>2026-05-02T12:23:42.469Z</time></trkpt><trkpt lat="46.1900885" lon="13.4966497"><ele>697.5</ele><time>2026-05-02T12:23:43.468Z</time></trkpt><trkpt lat="46.1901525" lon="13.4967098"><ele>699.6666666666666</ele><time>2026-05-02T12:23:44.469Z</time></trkpt><trkpt lat="46.1902118" lon="13.4967465"><ele>701.8333333333333</ele><time>2026-05-02T12:23:45.47Z</time></trkpt><trkpt lat="46.1902758" lon="13.4967692"><ele>704.0</ele><time>2026-05-02T12:23:46.47Z</time></trkpt><trkpt lat="46.1903478" lon="13.4967835"><ele>704.0</ele><time>2026-05-02T12:23:47.47Z</time></trkpt><trkpt lat="46.1904217" lon="13.4968027"><ele>704.0</ele><time>2026-05-02T12:23:48.471Z</time></trkpt><trkpt lat="46.1904975" lon="13.4968515"><ele>704.0</ele><time>2026-05-02T12:23:49.47Z</time></trkpt><trkpt lat="46.1905653" lon="13.4969047"><ele>704.0</ele><time>2026-05-02T12:23:50.469Z</time></trkpt><trkpt lat="46.1906377" lon="13.496963"><ele>704.0</ele><time>2026-05-02T12:23:51.472Z</time></trkpt><trkpt lat="46.1907135" lon="13.497011"><ele>704.0</ele><time>2026-05-02T12:23:52.468Z</time></trkpt><trkpt lat="46.1907908" lon="13.4970402"><ele>700.6666666666666</ele><time>2026-05-02T12:23:53.468Z</time></trkpt><trkpt lat="46.1908658" lon="13.4970572"><ele>697.3333333333333</ele><time>2026-05-02T12:23:54.469Z</time></trkpt><trkpt lat="46.190996" lon="13.4971172"><ele>694.0</ele><time>2026-05-02T12:23:56.468Z</time></trkpt><trkpt lat="46.1910515" lon="13.4971677"><ele>690.6666666666666</ele><time>2026-05-02T12:23:57.468Z</time></trkpt><trkpt lat="46.1911113" lon="13.4972142"><ele>687.3333333333334</ele><time>2026-05-02T12:23:58.467Z</time></trkpt><trkpt lat="46.1911773" lon="13.4972452"><ele>684.0</ele><time>2026-05-02T12:23:59.468Z</time></trkpt><trkpt lat="46.1912448" lon="13.4972413"><ele>691.2</ele><time>2026-05-02T12:24:00.467Z</time></trkpt><trkpt lat="46.1913678" lon="13.4972463"><ele>698.4000000000001</ele><time>2026-05-02T12:24:02.466Z</time></trkpt><trkpt lat="46.1914973" lon="13.497183"><ele>705.6</ele><time>2026-05-02T12:24:04.467Z</time></trkpt><trkpt lat="46.1915583" lon="13.4971603"><ele>712.8</ele><time>2026-05-02T12:24:05.468Z</time></trkpt><trkpt lat="46.1916677" lon="13.4971362"><ele>720.0</ele><time>2026-05-02T12:24:07.468Z</time></trkpt><trkpt lat="46.1917902" lon="13.4971275"><ele>720.0</ele><time>2026-05-02T12:24:09.47Z</time></trkpt><trkpt lat="46.19186" lon="13.4971345"><ele>720.0</ele><time>2026-05-02T12:24:10.468Z</time></trkpt><trkpt lat="46.1919372" lon="13.497164"><ele>720.0</ele><time>2026-05-02T12:24:11.468Z</time></trkpt><trkpt lat="46.1920117" lon="13.497184"><ele>720.0</ele><time>2026-05-02T12:24:12.469Z</time></trkpt><trkpt lat="46.192084" lon="13.4971975"><ele>720.0</ele><time>2026-05-02T12:24:13.468Z</time></trkpt><trkpt lat="46.1921508" lon="13.4972087"><ele>720.0</ele><time>2026-05-02T12:24:14.471Z</time></trkpt><trkpt lat="46.192267" lon="13.4972338"><ele>717.75</ele><time>2026-05-02T12:24:16.47Z</time></trkpt><trkpt lat="46.1923597" lon="13.4975092"><ele>715.5</ele><time>2026-05-02T12:24:19.47Z</time></trkpt><trkpt lat="46.1923685" lon="13.4976513"><ele>713.25</ele><time>2026-05-02T12:24:20.472Z</time></trkpt><trkpt lat="46.1923793" lon="13.4977978"><ele>711.0</ele><time>2026-05-02T12:24:21.473Z</time></trkpt><trkpt lat="46.1924015" lon="13.4979653"><ele>714.8333333333334</ele><time>2026-05-02T12:24:22.472Z</time></trkpt><trkpt lat="46.1924122" lon="13.4981012"><ele>718.6666666666666</ele><time>2026-05-02T12:24:23.471Z</time></trkpt><trkpt lat="46.1924142" lon="13.4982347"><ele>722.5</ele><time>2026-05-02T12:24:24.471Z</time></trkpt><trkpt lat="46.192414" lon="13.4983545"><ele>726.3333333333333</ele><time>2026-05-02T12:24:25.47Z</time></trkpt><trkpt lat="46.1924073" lon="13.4984743"><ele>730.1666666666666</ele><time>2026-05-02T12:24:26.472Z</time></trkpt><trkpt lat="46.1924037" lon="13.4986007"><ele>734.0</ele><time>2026-05-02T12:24:27.471Z</time></trkpt><trkpt lat="46.192402" lon="13.498726"><ele>734.7142857142857</ele><time>2026-05-02T12:24:28.47Z</time></trkpt><trkpt lat="46.1924082" lon="13.498839"><ele>735.4285714285714</ele><time>2026-05-02T12:24:29.471Z</time></trkpt><trkpt lat="46.1924187" lon="13.4989492"><ele>736.1428571428571</ele><time>2026-05-02T12:24:30.471Z</time></trkpt><trkpt lat="46.1924448" lon="13.4990597"><ele>736.8571428571429</ele><time>2026-05-02T12:24:31.47Z</time></trkpt><trkpt lat="46.1924663" lon="13.4991568"><ele>737.5714285714287</ele><time>2026-05-02T12:24:32.47Z</time></trkpt><trkpt lat="46.1924902" lon="13.499249"><ele>738.2857142857143</ele><time>2026-05-02T12:24:33.471Z</time></trkpt><trkpt lat="46.1925182" lon="13.4993312"><ele>739.0</ele><time>2026-05-02T12:24:34.47Z</time></trkpt><trkpt lat="46.1925698" lon="13.4994413"><ele>739.0</ele><time>2026-05-02T12:24:36.471Z</time></trkpt><trkpt lat="46.1925735" lon="13.499563"><ele>739.0</ele><time>2026-05-02T12:24:38.47Z</time></trkpt><trkpt lat="46.1925695" lon="13.499896"><ele>739.0</ele><time>2026-05-02T12:24:42.471Z</time></trkpt><trkpt lat="46.1926363" lon="13.4999873"><ele>739.0</ele><time>2026-05-02T12:24:44.471Z</time></trkpt><trkpt lat="46.1927265" lon="13.4999822"><ele>740.1666666666667</ele><time>2026-05-02T12:24:46.47Z</time></trkpt><trkpt lat="46.1928433" lon="13.4999437"><ele>741.3333333333334</ele><time>2026-05-02T12:24:48.471Z</time></trkpt><trkpt lat="46.1929087" lon="13.4999422"><ele>742.5</ele><time>2026-05-02T12:24:49.468Z</time></trkpt><trkpt lat="46.1929732" lon="13.4999393"><ele>743.6666666666666</ele><time>2026-05-02T12:24:50.469Z</time></trkpt><trkpt lat="46.1930422" lon="13.4999225"><ele>744.8333333333333</ele><time>2026-05-02T12:24:51.468Z</time></trkpt><trkpt lat="46.1931582" lon="13.4998737"><ele>746.0</ele><time>2026-05-02T12:24:53.469Z</time></trkpt><trkpt lat="46.1932462" lon="13.4998223"><ele>737.5</ele><time>2026-05-02T12:24:55.469Z</time></trkpt><trkpt lat="46.1933382" lon="13.4998123"><ele>729.0</ele><time>2026-05-02T12:24:57.472Z</time></trkpt><trkpt lat="46.193432" lon="13.499863"><ele>720.5</ele><time>2026-05-02T12:24:59.471Z</time></trkpt><trkpt lat="46.1935943" lon="13.5000018"><ele>712.0</ele><time>2026-05-02T12:25:03.471Z</time></trkpt><trkpt lat="46.1935997" lon="13.5001327"><ele>712.0</ele><time>2026-05-02T12:25:05.471Z</time></trkpt><trkpt lat="46.1935828" lon="13.5002892"><ele>712.0</ele><time>2026-05-02T12:25:07.471Z</time></trkpt><trkpt lat="46.1935783" lon="13.500388"><ele>712.0</ele><time>2026-05-02T12:25:08.471Z</time></trkpt><trkpt lat="46.1935688" lon="13.5004938"><ele>712.0</ele><time>2026-05-02T12:25:09.471Z</time></trkpt><trkpt lat="46.1935657" lon="13.5006002"><ele>712.0</ele><time>2026-05-02T12:25:10.471Z</time></trkpt><trkpt lat="46.1935743" lon="13.5007022"><ele>712.0</ele><time>2026-05-02T12:25:11.471Z</time></trkpt><trkpt lat="46.1936433" lon="13.5008042"><ele>712.4000000000001</ele><time>2026-05-02T12:25:13.468Z</time></trkpt><trkpt lat="46.1937537" lon="13.5008772"><ele>712.8000000000001</ele><time>2026-05-02T12:25:15.468Z</time></trkpt><trkpt lat="46.1938232" lon="13.5009317"><ele>713.2</ele><time>2026-05-02T12:25:16.468Z</time></trkpt><trkpt lat="46.1939015" lon="13.5009858"><ele>713.6</ele><time>2026-05-02T12:25:17.468Z</time></trkpt><trkpt lat="46.1939927" lon="13.5010323"><ele>714.0</ele><time>2026-05-02T12:25:18.469Z</time></trkpt><trkpt lat="46.1940798" lon="13.5010713"><ele>714.0</ele><time>2026-05-02T12:25:19.471Z</time></trkpt><trkpt lat="46.1941622" lon="13.5011018"><ele>714.0</ele><time>2026-05-02T12:25:20.471Z</time></trkpt><trkpt lat="46.194326" lon="13.5012528"><ele>714.0</ele><time>2026-05-02T12:25:22.471Z</time></trkpt><trkpt lat="46.1944162" lon="13.5013372"><ele>714.0</ele><time>2026-05-02T12:25:23.47Z</time></trkpt><trkpt lat="46.1945085" lon="13.5014237"><ele>714.0</ele><time>2026-05-02T12:25:24.47Z</time></trkpt><trkpt lat="46.1946027" lon="13.5014955"><ele>714.0</ele><time>2026-05-02T12:25:25.472Z</time></trkpt><trkpt lat="46.194692" lon="13.5015748"><ele>714.0</ele><time>2026-05-02T12:25:26.471Z</time></trkpt><trkpt lat="46.1947705" lon="13.5016468"><ele>714.0</ele><time>2026-05-02T12:25:27.471Z</time></trkpt><trkpt lat="46.1948355" lon="13.5017163"><ele>714.0</ele><time>2026-05-02T12:25:28.47Z</time></trkpt><trkpt lat="46.1948843" lon="13.5017925"><ele>714.0</ele><time>2026-05-02T12:25:29.47Z</time></trkpt><trkpt lat="46.1949267" lon="13.5018648"><ele>714.0</ele><time>2026-05-02T12:25:30.468Z</time></trkpt><trkpt lat="46.194971" lon="13.5019325"><ele>714.0</ele><time>2026-05-02T12:25:31.468Z</time></trkpt><trkpt lat="46.1950155" lon="13.5020017"><ele>714.0</ele><time>2026-05-02T12:25:32.468Z</time></trkpt><trkpt lat="46.1950577" lon="13.5020842"><ele>714.0</ele><time>2026-05-02T12:25:33.469Z</time></trkpt><trkpt lat="46.1951078" lon="13.5021427"><ele>714.0</ele><time>2026-05-02T12:25:34.469Z</time></trkpt><trkpt lat="46.195225" lon="13.5022022"><ele>714.0</ele><time>2026-05-02T12:25:36.468Z</time></trkpt><trkpt lat="46.1952973" lon="13.5022565"><ele>714.0</ele><time>2026-05-02T12:25:37.469Z</time></trkpt><trkpt lat="46.1953537" lon="13.5023522"><ele>714.0</ele><time>2026-05-02T12:25:38.469Z</time></trkpt><trkpt lat="46.1953892" lon="13.5024795"><ele>714.0</ele><time>2026-05-02T12:25:39.47Z</time></trkpt><trkpt lat="46.195418" lon="13.5025638"><ele>714.0</ele><time>2026-05-02T12:25:40.468Z</time></trkpt><trkpt lat="46.1954787" lon="13.5026473"><ele>714.0</ele><time>2026-05-02T12:25:42.469Z</time></trkpt><trkpt lat="46.1956377" lon="13.5028383"><ele>714.0</ele><time>2026-05-02T12:25:46.468Z</time></trkpt><trkpt lat="46.1956898" lon="13.5029148"><ele>714.0</ele><time>2026-05-02T12:25:47.468Z</time></trkpt><trkpt lat="46.1957497" lon="13.5029935"><ele>714.0</ele><time>2026-05-02T12:25:48.469Z</time></trkpt><trkpt lat="46.1958208" lon="13.5030617"><ele>714.0</ele><time>2026-05-02T12:25:49.471Z</time></trkpt><trkpt lat="46.1959007" lon="13.5031347"><ele>714.0</ele><time>2026-05-02T12:25:50.47Z</time></trkpt><trkpt lat="46.1959763" lon="13.5032083"><ele>714.0</ele><time>2026-05-02T12:25:51.47Z</time></trkpt><trkpt lat="46.1960542" lon="13.5033267"><ele>714.0</ele><time>2026-05-02T12:25:52.469Z</time></trkpt><trkpt lat="46.1961262" lon="13.5034122"><ele>714.0</ele><time>2026-05-02T12:25:53.468Z</time></trkpt><trkpt lat="46.1961835" lon="13.503492"><ele>714.0</ele><time>2026-05-02T12:25:54.47Z</time></trkpt><trkpt lat="46.1962378" lon="13.5035845"><ele>714.0</ele><time>2026-05-02T12:25:55.469Z</time></trkpt><trkpt lat="46.1962748" lon="13.5036733"><ele>714.0</ele><time>2026-05-02T12:25:56.47Z</time></trkpt><trkpt lat="46.1963037" lon="13.5038093"><ele>714.0</ele><time>2026-05-02T12:25:57.47Z</time></trkpt><trkpt lat="46.19633" lon="13.5039837"><ele>714.0</ele><time>2026-05-02T12:25:58.469Z</time></trkpt><trkpt lat="46.1963373" lon="13.5041368"><ele>714.0</ele><time>2026-05-02T12:25:59.47Z</time></trkpt><trkpt lat="46.1963387" lon="13.5042975"><ele>714.0</ele><time>2026-05-02T12:26:00.47Z</time></trkpt><trkpt lat="46.1963382" lon="13.504442"><ele>714.0</ele><time>2026-05-02T12:26:01.469Z</time></trkpt><trkpt lat="46.1963515" lon="13.5045627"><ele>714.0</ele><time>2026-05-02T12:26:02.468Z</time></trkpt><trkpt lat="46.1963797" lon="13.5046768"><ele>714.0</ele><time>2026-05-02T12:26:03.467Z</time></trkpt><trkpt lat="46.1964398" lon="13.5049212"><ele>714.0</ele><time>2026-05-02T12:26:05.468Z</time></trkpt><trkpt lat="46.1964522" lon="13.5050537"><ele>714.0</ele><time>2026-05-02T12:26:06.469Z</time></trkpt><trkpt lat="46.1964537" lon="13.5051532"><ele>714.0</ele><time>2026-05-02T12:26:07.469Z</time></trkpt><trkpt lat="46.1964768" lon="13.5052703"><ele>714.0</ele><time>2026-05-02T12:26:09.469Z</time></trkpt><trkpt lat="46.1965382" lon="13.5053175"><ele>714.0</ele><time>2026-05-02T12:26:12.47Z</time></trkpt><trkpt lat="46.1966412" lon="13.5052892"><ele>714.0</ele><time>2026-05-02T12:26:14.47Z</time></trkpt><trkpt lat="46.1967347" lon="13.5053143"><ele>714.0</ele><time>2026-05-02T12:26:16.469Z</time></trkpt><trkpt lat="46.1968038" lon="13.5053753"><ele>714.0</ele><time>2026-05-02T12:26:18.471Z</time></trkpt><trkpt lat="46.1968828" lon="13.505541"><ele>714.0</ele><time>2026-05-02T12:26:20.47Z</time></trkpt><trkpt lat="46.1969265" lon="13.5056648"><ele>714.0</ele><time>2026-05-02T12:26:21.47Z</time></trkpt><trkpt lat="46.1969683" lon="13.5057728"><ele>714.0</ele><time>2026-05-02T12:26:22.471Z</time></trkpt><trkpt lat="46.1970052" lon="13.5058998"><ele>714.0</ele><time>2026-05-02T12:26:23.473Z</time></trkpt><trkpt lat="46.1970405" lon="13.5060288"><ele>714.0</ele><time>2026-05-02T12:26:24.47Z</time></trkpt><trkpt lat="46.1970758" lon="13.50626"><ele>714.0</ele><time>2026-05-02T12:26:26.469Z</time></trkpt><trkpt lat="46.1970953" lon="13.5063663"><ele>714.0</ele><time>2026-05-02T12:26:27.467Z</time></trkpt><trkpt lat="46.1971087" lon="13.506477"><ele>714.0</ele><time>2026-05-02T12:26:28.466Z</time></trkpt><trkpt lat="46.1971093" lon="13.506605"><ele>714.0</ele><time>2026-05-02T12:26:29.466Z</time></trkpt><trkpt lat="46.1971173" lon="13.5067045"><ele>714.0</ele><time>2026-05-02T12:26:30.466Z</time></trkpt><trkpt lat="46.197147" lon="13.5068262"><ele>714.0</ele><time>2026-05-02T12:26:31.469Z</time></trkpt><trkpt lat="46.1971628" lon="13.5069595"><ele>714.0</ele><time>2026-05-02T12:26:32.469Z</time></trkpt><trkpt lat="46.197173" lon="13.5070843"><ele>714.0</ele><time>2026-05-02T12:26:33.469Z</time></trkpt><trkpt lat="46.1971937" lon="13.5071998"><ele>714.0</ele><time>2026-05-02T12:26:34.468Z</time></trkpt><trkpt lat="46.1972263" lon="13.5072782"><ele>714.0</ele><time>2026-05-02T12:26:35.468Z</time></trkpt><trkpt lat="46.1973095" lon="13.507392"><ele>714.0</ele><time>2026-05-02T12:26:37.469Z</time></trkpt><trkpt lat="46.1973907" lon="13.5074355"><ele>714.0</ele><time>2026-05-02T12:26:39.469Z</time></trkpt><trkpt lat="46.1974687" lon="13.5073397"><ele>714.0</ele><time>2026-05-02T12:26:41.47Z</time></trkpt><trkpt lat="46.1975192" lon="13.5072477"><ele>714.0</ele><time>2026-05-02T12:26:42.468Z</time></trkpt><trkpt lat="46.1975712" lon="13.5071432"><ele>714.0</ele><time>2026-05-02T12:26:43.467Z</time></trkpt><trkpt lat="46.1976208" lon="13.5070433"><ele>714.0</ele><time>2026-05-02T12:26:44.469Z</time></trkpt><trkpt lat="46.1976652" lon="13.5069503"><ele>714.0</ele><time>2026-05-02T12:26:45.47Z</time></trkpt><trkpt lat="46.1977823" lon="13.5067133"><ele>714.0</ele><time>2026-05-02T12:26:48.469Z</time></trkpt><trkpt lat="46.1978193" lon="13.5066063"><ele>714.0</ele><time>2026-05-02T12:26:49.47Z</time></trkpt><trkpt lat="46.1978505" lon="13.5064887"><ele>714.0</ele><time>2026-05-02T12:26:50.47Z</time></trkpt><trkpt lat="46.1978827" lon="13.5063652"><ele>714.0</ele><time>2026-05-02T12:26:51.468Z</time></trkpt><trkpt lat="46.1979142" lon="13.5062398"><ele>714.0</ele><time>2026-05-02T12:26:52.467Z</time></trkpt><trkpt lat="46.1979375" lon="13.5061137"><ele>714.0</ele><time>2026-05-02T12:26:53.469Z</time></trkpt><trkpt lat="46.1979717" lon="13.5059927"><ele>719.3333333333334</ele><time>2026-05-02T12:26:54.467Z</time></trkpt><trkpt lat="46.1979982" lon="13.5058745"><ele>724.6666666666666</ele><time>2026-05-02T12:26:55.468Z</time></trkpt><trkpt lat="46.1980275" lon="13.5057667"><ele>730.0</ele><time>2026-05-02T12:26:56.468Z</time></trkpt><trkpt lat="46.1980402" lon="13.5056428"><ele>735.3333333333333</ele><time>2026-05-02T12:26:57.468Z</time></trkpt><trkpt lat="46.1980648" lon="13.5055208"><ele>740.6666666666666</ele><time>2026-05-02T12:26:58.467Z</time></trkpt><trkpt lat="46.1980998" lon="13.505393"><ele>746.0</ele><time>2026-05-02T12:26:59.467Z</time></trkpt><trkpt lat="46.1981368" lon="13.5052692"><ele>749.5999999999999</ele><time>2026-05-02T12:27:00.469Z</time></trkpt><trkpt lat="46.1981707" lon="13.5051258"><ele>753.2</ele><time>2026-05-02T12:27:01.469Z</time></trkpt><trkpt lat="46.1981988" lon="13.5049812"><ele>756.8</ele><time>2026-05-02T12:27:02.47Z</time></trkpt><trkpt lat="46.1982222" lon="13.5048322"><ele>760.4000000000001</ele><time>2026-05-02T12:27:03.468Z</time></trkpt><trkpt lat="46.1982417" lon="13.5046807"><ele>764.0</ele><time>2026-05-02T12:27:04.47Z</time></trkpt><trkpt lat="46.1982625" lon="13.5045357"><ele>764.0</ele><time>2026-05-02T12:27:05.47Z</time></trkpt><trkpt lat="46.1982783" lon="13.504385"><ele>764.0</ele><time>2026-05-02T12:27:06.47Z</time></trkpt><trkpt lat="46.1983125" lon="13.5040593"><ele>764.0</ele><time>2026-05-02T12:27:08.471Z</time></trkpt><trkpt lat="46.1983412" lon="13.50389"><ele>763.5</ele><time>2026-05-02T12:27:09.472Z</time></trkpt><trkpt lat="46.1983683" lon="13.5037153"><ele>763.0</ele><time>2026-05-02T12:27:10.47Z</time></trkpt><trkpt lat="46.1983968" lon="13.5035355"><ele>762.5</ele><time>2026-05-02T12:27:11.47Z</time></trkpt><trkpt lat="46.1984218" lon="13.5033518"><ele>762.0</ele><time>2026-05-02T12:27:12.472Z</time></trkpt><trkpt lat="46.1984477" lon="13.5031698"><ele>762.0</ele><time>2026-05-02T12:27:13.47Z</time></trkpt><trkpt lat="46.1984668" lon="13.5029982"><ele>762.0</ele><time>2026-05-02T12:27:14.468Z</time></trkpt><trkpt lat="46.1984693" lon="13.5028472"><ele>762.0</ele><time>2026-05-02T12:27:15.47Z</time></trkpt><trkpt lat="46.1984748" lon="13.50269"><ele>762.0</ele><time>2026-05-02T12:27:16.467Z</time></trkpt><trkpt lat="46.1984867" lon="13.5025333"><ele>762.0</ele><time>2026-05-02T12:27:17.467Z</time></trkpt><trkpt lat="46.1985115" lon="13.5023848"><ele>760.5</ele><time>2026-05-02T12:27:18.468Z</time></trkpt><trkpt lat="46.1985387" lon="13.5022247"><ele>759.0</ele><time>2026-05-02T12:27:19.467Z</time></trkpt><trkpt lat="46.1985625" lon="13.5020573"><ele>757.5</ele><time>2026-05-02T12:27:20.47Z</time></trkpt><trkpt lat="46.1985858" lon="13.5018873"><ele>756.0</ele><time>2026-05-02T12:27:21.471Z</time></trkpt><trkpt lat="46.1985945" lon="13.5017272"><ele>754.8</ele><time>2026-05-02T12:27:22.471Z</time></trkpt><trkpt lat="46.1985868" lon="13.5015637"><ele>753.5999999999999</ele><time>2026-05-02T12:27:23.47Z</time></trkpt><trkpt lat="46.1985835" lon="13.5014107"><ele>752.4</ele><time>2026-05-02T12:27:24.471Z</time></trkpt><trkpt lat="46.1985945" lon="13.5012632"><ele>751.2</ele><time>2026-05-02T12:27:25.47Z</time></trkpt><trkpt lat="46.1986158" lon="13.5011115"><ele>750.0</ele><time>2026-05-02T12:27:26.469Z</time></trkpt><trkpt lat="46.1986363" lon="13.5009598"><ele>749.75</ele><time>2026-05-02T12:27:27.47Z</time></trkpt><trkpt lat="46.1986693" lon="13.5006642"><ele>749.5</ele><time>2026-05-02T12:27:29.47Z</time></trkpt><trkpt lat="46.1986687" lon="13.5005363"><ele>749.25</ele><time>2026-05-02T12:27:30.471Z</time></trkpt><trkpt lat="46.1986562" lon="13.5004082"><ele>749.0</ele><time>2026-05-02T12:27:31.47Z</time></trkpt><trkpt lat="46.1986293" lon="13.5002805"><ele>748.5</ele><time>2026-05-02T12:27:32.471Z</time></trkpt><trkpt lat="46.1986082" lon="13.5001643"><ele>748.0</ele><time>2026-05-02T12:27:33.471Z</time></trkpt><trkpt lat="46.1986078" lon="13.500054"><ele>747.5</ele><time>2026-05-02T12:27:34.47Z</time></trkpt><trkpt lat="46.198621" lon="13.4999457"><ele>747.0</ele><time>2026-05-02T12:27:35.47Z</time></trkpt><trkpt lat="46.1986365" lon="13.4998355"><ele>746.5</ele><time>2026-05-02T12:27:36.471Z</time></trkpt><trkpt lat="46.1986543" lon="13.4997253"><ele>746.0</ele><time>2026-05-02T12:27:37.471Z</time></trkpt><trkpt lat="46.198661" lon="13.4996162"><ele>745.3333333333333</ele><time>2026-05-02T12:27:38.471Z</time></trkpt><trkpt lat="46.198669" lon="13.4995037"><ele>744.6666666666666</ele><time>2026-05-02T12:27:39.471Z</time></trkpt><trkpt lat="46.1986788" lon="13.499384"><ele>744.0</ele><time>2026-05-02T12:27:40.47Z</time></trkpt><trkpt lat="46.198689" lon="13.4992623"><ele>743.3333333333334</ele><time>2026-05-02T12:27:41.469Z</time></trkpt><trkpt lat="46.1986908" lon="13.4991368"><ele>742.6666666666667</ele><time>2026-05-02T12:27:42.472Z</time></trkpt><trkpt lat="46.1986828" lon="13.4990117"><ele>742.0</ele><time>2026-05-02T12:27:43.469Z</time></trkpt><trkpt lat="46.1986675" lon="13.4988818"><ele>743.6</ele><time>2026-05-02T12:27:44.471Z</time></trkpt><trkpt lat="46.1986518" lon="13.498742"><ele>745.2</ele><time>2026-05-02T12:27:45.471Z</time></trkpt><trkpt lat="46.1986388" lon="13.4985937"><ele>746.8</ele><time>2026-05-02T12:27:46.471Z</time></trkpt><trkpt lat="46.1986285" lon="13.4984387"><ele>748.4</ele><time>2026-05-02T12:27:47.471Z</time></trkpt><trkpt lat="46.1986235" lon="13.4982817"><ele>750.0</ele><time>2026-05-02T12:27:48.472Z</time></trkpt><trkpt lat="46.1986417" lon="13.4979527"><ele>750.5</ele><time>2026-05-02T12:27:50.472Z</time></trkpt><trkpt lat="46.1986653" lon="13.4977828"><ele>751.0</ele><time>2026-05-02T12:27:51.473Z</time></trkpt><trkpt lat="46.198695" lon="13.497608"><ele>751.5</ele><time>2026-05-02T12:27:52.473Z</time></trkpt><trkpt lat="46.1987332" lon="13.4974343"><ele>752.0</ele><time>2026-05-02T12:27:53.472Z</time></trkpt><trkpt lat="46.1987818" lon="13.4972647"><ele>752.0</ele><time>2026-05-02T12:27:54.473Z</time></trkpt><trkpt lat="46.198833" lon="13.4970955"><ele>752.0</ele><time>2026-05-02T12:27:55.472Z</time></trkpt><trkpt lat="46.1988672" lon="13.4969215"><ele>752.0</ele><time>2026-05-02T12:27:56.472Z</time></trkpt><trkpt lat="46.1988782" lon="13.496751"><ele>752.0</ele><time>2026-05-02T12:27:57.472Z</time></trkpt><trkpt lat="46.1988695" lon="13.496591"><ele>752.25</ele><time>2026-05-02T12:27:58.472Z</time></trkpt><trkpt lat="46.1988482" lon="13.4964325"><ele>752.5</ele><time>2026-05-02T12:27:59.473Z</time></trkpt><trkpt lat="46.1988307" lon="13.496268"><ele>752.75</ele><time>2026-05-02T12:28:00.472Z</time></trkpt><trkpt lat="46.1988167" lon="13.4961013"><ele>753.0</ele><time>2026-05-02T12:28:01.473Z</time></trkpt><trkpt lat="46.198796" lon="13.495929"><ele>753.0</ele><time>2026-05-02T12:28:02.473Z</time></trkpt><trkpt lat="46.1987682" lon="13.4957573"><ele>753.0</ele><time>2026-05-02T12:28:03.474Z</time></trkpt><trkpt lat="46.1987413" lon="13.4956127"><ele>753.0</ele><time>2026-05-02T12:28:04.473Z</time></trkpt><trkpt lat="46.1987197" lon="13.4954943"><ele>753.0</ele><time>2026-05-02T12:28:05.471Z</time></trkpt><trkpt lat="46.1987015" lon="13.4953772"><ele>753.0</ele><time>2026-05-02T12:28:06.471Z</time></trkpt><trkpt lat="46.1986828" lon="13.4952612"><ele>754.5</ele><time>2026-05-02T12:28:07.469Z</time></trkpt><trkpt lat="46.1986643" lon="13.4951395"><ele>756.0</ele><time>2026-05-02T12:28:08.471Z</time></trkpt><trkpt lat="46.1986492" lon="13.4950178"><ele>757.5</ele><time>2026-05-02T12:28:09.474Z</time></trkpt><trkpt lat="46.1986217" lon="13.4947508"><ele>759.0</ele><time>2026-05-02T12:28:11.474Z</time></trkpt><trkpt lat="46.1986083" lon="13.4946067"><ele>759.8000000000001</ele><time>2026-05-02T12:28:12.473Z</time></trkpt><trkpt lat="46.1986007" lon="13.4944608"><ele>760.6</ele><time>2026-05-02T12:28:13.474Z</time></trkpt><trkpt lat="46.1985997" lon="13.494318"><ele>761.4</ele><time>2026-05-02T12:28:14.473Z</time></trkpt><trkpt lat="46.1986013" lon="13.4941807"><ele>762.2</ele><time>2026-05-02T12:28:15.472Z</time></trkpt><trkpt lat="46.1986105" lon="13.494042"><ele>763.0</ele><time>2026-05-02T12:28:16.473Z</time></trkpt><trkpt lat="46.198606" lon="13.4938912"><ele>763.4</ele><time>2026-05-02T12:28:17.472Z</time></trkpt><trkpt lat="46.1985862" lon="13.4937387"><ele>763.8</ele><time>2026-05-02T12:28:18.472Z</time></trkpt><trkpt lat="46.1985572" lon="13.4935888"><ele>764.2</ele><time>2026-05-02T12:28:19.472Z</time></trkpt><trkpt lat="46.1985225" lon="13.4934425"><ele>764.6</ele><time>2026-05-02T12:28:20.472Z</time></trkpt><trkpt lat="46.1984917" lon="13.4933053"><ele>765.0</ele><time>2026-05-02T12:28:21.474Z</time></trkpt><trkpt lat="46.1984715" lon="13.4931693"><ele>765.0</ele><time>2026-05-02T12:28:22.472Z</time></trkpt><trkpt lat="46.1984622" lon="13.4930213"><ele>765.0</ele><time>2026-05-02T12:28:23.472Z</time></trkpt><trkpt lat="46.1984552" lon="13.4928615"><ele>765.0</ele><time>2026-05-02T12:28:24.473Z</time></trkpt><trkpt lat="46.1984387" lon="13.4927003"><ele>765.0</ele><time>2026-05-02T12:28:25.472Z</time></trkpt><trkpt lat="46.1984058" lon="13.4925408"><ele>765.0</ele><time>2026-05-02T12:28:26.471Z</time></trkpt><trkpt lat="46.1983565" lon="13.4923875"><ele>766.0</ele><time>2026-05-02T12:28:27.472Z</time></trkpt><trkpt lat="46.198302" lon="13.4922405"><ele>767.0</ele><time>2026-05-02T12:28:28.472Z</time></trkpt><trkpt lat="46.1982512" lon="13.4921022"><ele>768.0</ele><time>2026-05-02T12:28:29.471Z</time></trkpt><trkpt lat="46.1982048" lon="13.491962"><ele>769.0</ele><time>2026-05-02T12:28:30.471Z</time></trkpt><trkpt lat="46.198102" lon="13.4916587"><ele>767.6</ele><time>2026-05-02T12:28:32.47Z</time></trkpt><trkpt lat="46.198049" lon="13.4915045"><ele>766.2</ele><time>2026-05-02T12:28:33.471Z</time></trkpt><trkpt lat="46.197998" lon="13.4913567"><ele>764.8000000000001</ele><time>2026-05-02T12:28:34.472Z</time></trkpt><trkpt lat="46.1979465" lon="13.4912222"><ele>763.4000000000001</ele><time>2026-05-02T12:28:35.471Z</time></trkpt><trkpt lat="46.1978877" lon="13.4911008"><ele>762.0</ele><time>2026-05-02T12:28:36.472Z</time></trkpt><trkpt lat="46.1978168" lon="13.4909982"><ele>762.0</ele><time>2026-05-02T12:28:37.472Z</time></trkpt><trkpt lat="46.197752" lon="13.4909152"><ele>762.0</ele><time>2026-05-02T12:28:38.472Z</time></trkpt><trkpt lat="46.1976947" lon="13.4908557"><ele>762.0</ele><time>2026-05-02T12:28:39.472Z</time></trkpt><trkpt lat="46.197602" lon="13.4908715"><ele>762.0</ele><time>2026-05-02T12:28:41.471Z</time></trkpt><trkpt lat="46.1976237" lon="13.4910028"><ele>762.0</ele><time>2026-05-02T12:28:43.471Z</time></trkpt><trkpt lat="46.1976783" lon="13.4910793"><ele>762.0</ele><time>2026-05-02T12:28:44.472Z</time></trkpt><trkpt lat="46.1977332" lon="13.4912242"><ele>758.75</ele><time>2026-05-02T12:28:45.871Z</time></trkpt><trkpt lat="46.1977375" lon="13.4914467"><ele>755.5</ele><time>2026-05-02T12:28:47.471Z</time></trkpt><trkpt lat="46.1977215" lon="13.491605"><ele>752.25</ele><time>2026-05-02T12:28:48.472Z</time></trkpt><trkpt lat="46.1977092" lon="13.491767"><ele>749.0</ele><time>2026-05-02T12:28:49.472Z</time></trkpt><trkpt lat="46.1976958" lon="13.4919243"><ele>749.0</ele><time>2026-05-02T12:28:50.473Z</time></trkpt><trkpt lat="46.1976933" lon="13.4920742"><ele>749.0</ele><time>2026-05-02T12:28:51.472Z</time></trkpt><trkpt lat="46.197748" lon="13.492306"><ele>749.0</ele><time>2026-05-02T12:28:53.476Z</time></trkpt><trkpt lat="46.1977742" lon="13.4924335"><ele>749.0</ele><time>2026-05-02T12:28:55.472Z</time></trkpt><trkpt lat="46.1976923" lon="13.492459"><ele>749.0</ele><time>2026-05-02T12:28:57.471Z</time></trkpt><trkpt lat="46.1976348" lon="13.4923922"><ele>749.0</ele><time>2026-05-02T12:28:58.472Z</time></trkpt><trkpt lat="46.1975635" lon="13.4922947"><ele>749.0</ele><time>2026-05-02T12:28:59.472Z</time></trkpt><trkpt lat="46.197489" lon="13.4921822"><ele>749.0</ele><time>2026-05-02T12:29:00.473Z</time></trkpt><trkpt lat="46.1974223" lon="13.4920538"><ele>749.0</ele><time>2026-05-02T12:29:01.473Z</time></trkpt><trkpt lat="46.1973733" lon="13.4919197"><ele>749.0</ele><time>2026-05-02T12:29:02.472Z</time></trkpt><trkpt lat="46.197329" lon="13.4917903"><ele>740.25</ele><time>2026-05-02T12:29:03.473Z</time></trkpt><trkpt lat="46.1972638" lon="13.4916853"><ele>731.5</ele><time>2026-05-02T12:29:04.472Z</time></trkpt><trkpt lat="46.19717" lon="13.4916058"><ele>722.75</ele><time>2026-05-02T12:29:05.472Z</time></trkpt><trkpt lat="46.1970525" lon="13.4915455"><ele>714.0</ele><time>2026-05-02T12:29:06.472Z</time></trkpt><trkpt lat="46.1969317" lon="13.4914628"><ele>714.0</ele><time>2026-05-02T12:29:07.473Z</time></trkpt><trkpt lat="46.1968163" lon="13.4913477"><ele>714.0</ele><time>2026-05-02T12:29:08.472Z</time></trkpt><trkpt lat="46.1966937" lon="13.491235"><ele>714.0</ele><time>2026-05-02T12:29:09.474Z</time></trkpt><trkpt lat="46.1965622" lon="13.4911395"><ele>714.0</ele><time>2026-05-02T12:29:10.472Z</time></trkpt><trkpt lat="46.1964338" lon="13.4910535"><ele>711.5</ele><time>2026-05-02T12:29:11.472Z</time></trkpt><trkpt lat="46.1963202" lon="13.4909645"><ele>709.0</ele><time>2026-05-02T12:29:12.471Z</time></trkpt><trkpt lat="46.1961238" lon="13.4908215"><ele>706.5</ele><time>2026-05-02T12:29:14.473Z</time></trkpt><trkpt lat="46.196051" lon="13.4907508"><ele>704.0</ele><time>2026-05-02T12:29:15.473Z</time></trkpt><trkpt lat="46.1960055" lon="13.4906428"><ele>704.0</ele><time>2026-05-02T12:29:16.472Z</time></trkpt><trkpt lat="46.1959738" lon="13.4904978"><ele>704.0</ele><time>2026-05-02T12:29:17.472Z</time></trkpt><trkpt lat="46.1959302" lon="13.4903355"><ele>704.0</ele><time>2026-05-02T12:29:18.472Z</time></trkpt><trkpt lat="46.1958757" lon="13.4901648"><ele>704.0</ele><time>2026-05-02T12:29:19.471Z</time></trkpt><trkpt lat="46.1958138" lon="13.4899923"><ele>707.25</ele><time>2026-05-02T12:29:20.471Z</time></trkpt><trkpt lat="46.1957437" lon="13.4898337"><ele>710.5</ele><time>2026-05-02T12:29:21.471Z</time></trkpt><trkpt lat="46.1956763" lon="13.4896952"><ele>713.75</ele><time>2026-05-02T12:29:22.471Z</time></trkpt><trkpt lat="46.1956275" lon="13.4895488"><ele>717.0</ele><time>2026-05-02T12:29:23.472Z</time></trkpt><trkpt lat="46.1955998" lon="13.4893762"><ele>707.0</ele><time>2026-05-02T12:29:24.471Z</time></trkpt><trkpt lat="46.1955842" lon="13.4891793"><ele>697.0</ele><time>2026-05-02T12:29:25.471Z</time></trkpt><trkpt lat="46.1955685" lon="13.4889725"><ele>687.0</ele><time>2026-05-02T12:29:26.471Z</time></trkpt><trkpt lat="46.1955547" lon="13.488763"><ele>677.0</ele><time>2026-05-02T12:29:27.473Z</time></trkpt><trkpt lat="46.195539" lon="13.4885613"><ele>677.0</ele><time>2026-05-02T12:29:28.471Z</time></trkpt><trkpt lat="46.1955273" lon="13.4883565"><ele>677.0</ele><time>2026-05-02T12:29:29.471Z</time></trkpt><trkpt lat="46.1955087" lon="13.4881547"><ele>677.0</ele><time>2026-05-02T12:29:30.472Z</time></trkpt><trkpt lat="46.1954918" lon="13.4879525"><ele>677.0</ele><time>2026-05-02T12:29:31.471Z</time></trkpt><trkpt lat="46.1954655" lon="13.4877547"><ele>676.6666666666666</ele><time>2026-05-02T12:29:32.471Z</time></trkpt><trkpt lat="46.1954192" lon="13.4875702"><ele>676.3333333333334</ele><time>2026-05-02T12:29:33.471Z</time></trkpt><trkpt lat="46.1953267" lon="13.4871805"><ele>676.0</ele><time>2026-05-02T12:29:35.471Z</time></trkpt><trkpt lat="46.1952898" lon="13.4869832"><ele>678.5</ele><time>2026-05-02T12:29:36.473Z</time></trkpt><trkpt lat="46.1952443" lon="13.4868063"><ele>681.0</ele><time>2026-05-02T12:29:37.471Z</time></trkpt><trkpt lat="46.1951855" lon="13.4866428"><ele>683.5</ele><time>2026-05-02T12:29:38.471Z</time></trkpt><trkpt lat="46.1951182" lon="13.486491"><ele>686.0</ele><time>2026-05-02T12:29:39.472Z</time></trkpt><trkpt lat="46.1950373" lon="13.4863605"><ele>687.5</ele><time>2026-05-02T12:29:40.472Z</time></trkpt><trkpt lat="46.1949393" lon="13.486255"><ele>689.0</ele><time>2026-05-02T12:29:41.471Z</time></trkpt><trkpt lat="46.1948398" lon="13.4861562"><ele>690.5</ele><time>2026-05-02T12:29:42.472Z</time></trkpt><trkpt lat="46.1947545" lon="13.4860512"><ele>692.0</ele><time>2026-05-02T12:29:43.469Z</time></trkpt><trkpt lat="46.1946957" lon="13.4859105"><ele>681.75</ele><time>2026-05-02T12:29:44.47Z</time></trkpt><trkpt lat="46.1946525" lon="13.4857375"><ele>671.5</ele><time>2026-05-02T12:29:45.469Z</time></trkpt><trkpt lat="46.1946192" lon="13.4855405"><ele>661.25</ele><time>2026-05-02T12:29:46.468Z</time></trkpt><trkpt lat="46.1946003" lon="13.4853283"><ele>651.0</ele><time>2026-05-02T12:29:47.471Z</time></trkpt><trkpt lat="46.1945918" lon="13.4851147"><ele>651.0</ele><time>2026-05-02T12:29:48.471Z</time></trkpt><trkpt lat="46.1945835" lon="13.4849063"><ele>651.0</ele><time>2026-05-02T12:29:49.47Z</time></trkpt><trkpt lat="46.1945682" lon="13.4847103"><ele>651.0</ele><time>2026-05-02T12:29:50.471Z</time></trkpt><trkpt lat="46.1945413" lon="13.4845245"><ele>651.0</ele><time>2026-05-02T12:29:51.471Z</time></trkpt><trkpt lat="46.1944907" lon="13.4843497"><ele>652.75</ele><time>2026-05-02T12:29:52.471Z</time></trkpt><trkpt lat="46.1944222" lon="13.48419"><ele>654.5</ele><time>2026-05-02T12:29:53.47Z</time></trkpt><trkpt lat="46.194352" lon="13.4840517"><ele>656.25</ele><time>2026-05-02T12:29:54.47Z</time></trkpt><trkpt lat="46.194235" lon="13.4838875"><ele>658.0</ele><time>2026-05-02T12:29:56.47Z</time></trkpt><trkpt lat="46.1941515" lon="13.4839277"><ele>658.0</ele><time>2026-05-02T12:29:58.47Z</time></trkpt><trkpt lat="46.1941902" lon="13.4842452"><ele>658.0</ele><time>2026-05-02T12:30:01.279Z</time></trkpt><trkpt lat="46.194228" lon="13.4844147"><ele>658.0</ele><time>2026-05-02T12:30:02.279Z</time></trkpt><trkpt lat="46.1942567" lon="13.4846107"><ele>655.6666666666667</ele><time>2026-05-02T12:30:03.279Z</time></trkpt><trkpt lat="46.1942713" lon="13.4848267"><ele>653.3333333333334</ele><time>2026-05-02T12:30:04.278Z</time></trkpt><trkpt lat="46.1942662" lon="13.4850593"><ele>651.0</ele><time>2026-05-02T12:30:05.279Z</time></trkpt><trkpt lat="46.1942408" lon="13.4852955"><ele>650.0</ele><time>2026-05-02T12:30:06.281Z</time></trkpt><trkpt lat="46.1942032" lon="13.4855322"><ele>649.0</ele><time>2026-05-02T12:30:07.278Z</time></trkpt><trkpt lat="46.1941657" lon="13.4857698"><ele>648.0</ele><time>2026-05-02T12:30:08.279Z</time></trkpt><trkpt lat="46.1941373" lon="13.486008"><ele>648.0</ele><time>2026-05-02T12:30:09.278Z</time></trkpt><trkpt lat="46.1941232" lon="13.4862445"><ele>648.0</ele><time>2026-05-02T12:30:10.278Z</time></trkpt><trkpt lat="46.1941083" lon="13.4864782"><ele>648.0</ele><time>2026-05-02T12:30:11.28Z</time></trkpt><trkpt lat="46.1940953" lon="13.4867087"><ele>648.0</ele><time>2026-05-02T12:30:12.279Z</time></trkpt><trkpt lat="46.194076" lon="13.4869393"><ele>648.0</ele><time>2026-05-02T12:30:13.28Z</time></trkpt><trkpt lat="46.1940508" lon="13.4871647"><ele>648.0</ele><time>2026-05-02T12:30:14.28Z</time></trkpt><trkpt lat="46.194022" lon="13.4873865"><ele>642.6666666666666</ele><time>2026-05-02T12:30:15.278Z</time></trkpt><trkpt lat="46.19399" lon="13.4877865"><ele>637.3333333333333</ele><time>2026-05-02T12:30:17.277Z</time></trkpt><trkpt lat="46.1939962" lon="13.4879422"><ele>632.0</ele><time>2026-05-02T12:30:18.277Z</time></trkpt><trkpt lat="46.194006" lon="13.4880588"><ele>625.0</ele><time>2026-05-02T12:30:19.276Z</time></trkpt><trkpt lat="46.1939677" lon="13.4881877"><ele>618.0</ele><time>2026-05-02T12:30:21.278Z</time></trkpt><trkpt lat="46.1938913" lon="13.4881138"><ele>611.0</ele><time>2026-05-02T12:30:23.281Z</time></trkpt><trkpt lat="46.193869" lon="13.4879992"><ele>604.0</ele><time>2026-05-02T12:30:24.28Z</time></trkpt><trkpt lat="46.1938535" lon="13.4878472"><ele>597.0</ele><time>2026-05-02T12:30:25.28Z</time></trkpt><trkpt lat="46.1938422" lon="13.487665"><ele>597.0</ele><time>2026-05-02T12:30:26.28Z</time></trkpt><trkpt lat="46.1938323" lon="13.4874648"><ele>597.0</ele><time>2026-05-02T12:30:27.279Z</time></trkpt><trkpt lat="46.1938267" lon="13.4872593"><ele>597.0</ele><time>2026-05-02T12:30:28.278Z</time></trkpt><trkpt lat="46.1938123" lon="13.4870628"><ele>597.0</ele><time>2026-05-02T12:30:29.28Z</time></trkpt><trkpt lat="46.1937737" lon="13.4868753"><ele>599.0</ele><time>2026-05-02T12:30:30.278Z</time></trkpt><trkpt lat="46.1937183" lon="13.486707"><ele>601.0</ele><time>2026-05-02T12:30:31.277Z</time></trkpt><trkpt lat="46.1936658" lon="13.4865477"><ele>603.0</ele><time>2026-05-02T12:30:32.279Z</time></trkpt><trkpt lat="46.1936308" lon="13.4864102"><ele>605.0</ele><time>2026-05-02T12:30:33.277Z</time></trkpt><trkpt lat="46.1936048" lon="13.4863037"><ele>607.0</ele><time>2026-05-02T12:30:34.278Z</time></trkpt><trkpt lat="46.1935023" lon="13.4862338"><ele>607.0</ele><time>2026-05-02T12:30:36.276Z</time></trkpt><trkpt lat="46.1933628" lon="13.4863475"><ele>607.0</ele><time>2026-05-02T12:30:38.276Z</time></trkpt><trkpt lat="46.1932915" lon="13.4864253"><ele>607.0</ele><time>2026-05-02T12:30:39.277Z</time></trkpt><trkpt lat="46.1932145" lon="13.4864675"><ele>607.0</ele><time>2026-05-02T12:30:40.277Z</time></trkpt><trkpt lat="46.1931233" lon="13.4864745"><ele>607.0</ele><time>2026-05-02T12:30:41.278Z</time></trkpt><trkpt lat="46.1930177" lon="13.4864527"><ele>603.0</ele><time>2026-05-02T12:30:42.276Z</time></trkpt><trkpt lat="46.1928945" lon="13.4864113"><ele>599.0</ele><time>2026-05-02T12:30:43.277Z</time></trkpt><trkpt lat="46.1927562" lon="13.4863705"><ele>595.0</ele><time>2026-05-02T12:30:44.276Z</time></trkpt><trkpt lat="46.1926098" lon="13.4863318"><ele>591.0</ele><time>2026-05-02T12:30:45.275Z</time></trkpt><trkpt lat="46.192466" lon="13.4862963"><ele>589.0</ele><time>2026-05-02T12:30:46.28Z</time></trkpt><trkpt lat="46.1923312" lon="13.4862655"><ele>587.0</ele><time>2026-05-02T12:30:47.28Z</time></trkpt><trkpt lat="46.1922115" lon="13.4862382"><ele>585.0</ele><time>2026-05-02T12:30:48.278Z</time></trkpt><trkpt lat="46.1921075" lon="13.486215"><ele>583.0</ele><time>2026-05-02T12:30:49.279Z</time></trkpt><trkpt lat="46.1920192" lon="13.486185"><ele>583.0</ele><time>2026-05-02T12:30:50.281Z</time></trkpt><trkpt lat="46.1919455" lon="13.4861212"><ele>583.0</ele><time>2026-05-02T12:30:51.28Z</time></trkpt><trkpt lat="46.1918852" lon="13.48602"><ele>583.0</ele><time>2026-05-02T12:30:52.281Z</time></trkpt><trkpt lat="46.1918263" lon="13.4859085"><ele>583.0</ele><time>2026-05-02T12:30:53.28Z</time></trkpt><trkpt lat="46.1917558" lon="13.4858078"><ele>583.0</ele><time>2026-05-02T12:30:54.279Z</time></trkpt><trkpt lat="46.191675" lon="13.4857378"><ele>583.0</ele><time>2026-05-02T12:30:55.28Z</time></trkpt><trkpt lat="46.1915925" lon="13.485698"><ele>583.0</ele><time>2026-05-02T12:30:56.281Z</time></trkpt><trkpt lat="46.1915135" lon="13.4856667"><ele>583.0</ele><time>2026-05-02T12:30:57.281Z</time></trkpt><trkpt lat="46.1913452" lon="13.4855642"><ele>583.0</ele><time>2026-05-02T12:30:59.47Z</time></trkpt><trkpt lat="46.1912803" lon="13.4855128"><ele>583.0</ele><time>2026-05-02T12:31:00.471Z</time></trkpt><trkpt lat="46.1912182" lon="13.4854665"><ele>582.1666666666667</ele><time>2026-05-02T12:31:01.472Z</time></trkpt><trkpt lat="46.1911573" lon="13.485427"><ele>581.3333333333334</ele><time>2026-05-02T12:31:02.47Z</time></trkpt><trkpt lat="46.1910487" lon="13.4853717"><ele>580.5</ele><time>2026-05-02T12:31:04.471Z</time></trkpt><trkpt lat="46.1909813" lon="13.4853562"><ele>579.6666666666666</ele><time>2026-05-02T12:31:05.471Z</time></trkpt><trkpt lat="46.1909005" lon="13.4853488"><ele>578.8333333333333</ele><time>2026-05-02T12:31:06.471Z</time></trkpt><trkpt lat="46.190822" lon="13.4853277"><ele>578.0</ele><time>2026-05-02T12:31:07.472Z</time></trkpt><trkpt lat="46.1907582" lon="13.4852765"><ele>578.0</ele><time>2026-05-02T12:31:08.47Z</time></trkpt><trkpt lat="46.1907047" lon="13.4851938"><ele>578.0</ele><time>2026-05-02T12:31:09.471Z</time></trkpt><trkpt lat="46.190667" lon="13.4850893"><ele>578.0</ele><time>2026-05-02T12:31:10.472Z</time></trkpt><trkpt lat="46.190642" lon="13.484974"><ele>578.0</ele><time>2026-05-02T12:31:11.472Z</time></trkpt><trkpt lat="46.1906233" lon="13.4848652"><ele>578.0</ele><time>2026-05-02T12:31:12.473Z</time></trkpt><trkpt lat="46.1906087" lon="13.4847617"><ele>578.0</ele><time>2026-05-02T12:31:13.472Z</time></trkpt><trkpt lat="46.1905895" lon="13.4846678"><ele>574.6</ele><time>2026-05-02T12:31:14.472Z</time></trkpt><trkpt lat="46.1905515" lon="13.4845945"><ele>571.1999999999999</ele><time>2026-05-02T12:31:15.472Z</time></trkpt><trkpt lat="46.1904958" lon="13.484539"><ele>567.8</ele><time>2026-05-02T12:31:16.471Z</time></trkpt><trkpt lat="46.1904453" lon="13.4844783"><ele>564.4</ele><time>2026-05-02T12:31:17.471Z</time></trkpt><trkpt lat="46.1903445" lon="13.4842627"><ele>561.0</ele><time>2026-05-02T12:31:20.473Z</time></trkpt><trkpt lat="46.1902663" lon="13.4840467"><ele>561.0</ele><time>2026-05-02T12:31:22.471Z</time></trkpt><trkpt lat="46.1902115" lon="13.4839423"><ele>561.0</ele><time>2026-05-02T12:31:23.472Z</time></trkpt><trkpt lat="46.1901435" lon="13.483856"><ele>561.0</ele><time>2026-05-02T12:31:24.47Z</time></trkpt><trkpt lat="46.1900742" lon="13.4837788"><ele>561.0</ele><time>2026-05-02T12:31:25.472Z</time></trkpt><trkpt lat="46.1900132" lon="13.4836992"><ele>561.0</ele><time>2026-05-02T12:31:26.473Z</time></trkpt><trkpt lat="46.1899665" lon="13.483611"><ele>561.0</ele><time>2026-05-02T12:31:27.473Z</time></trkpt><trkpt lat="46.1899437" lon="13.4835052"><ele>560.6</ele><time>2026-05-02T12:31:28.472Z</time></trkpt><trkpt lat="46.1899453" lon="13.48338"><ele>560.2</ele><time>2026-05-02T12:31:29.473Z</time></trkpt><trkpt lat="46.1899663" lon="13.483241"><ele>559.8</ele><time>2026-05-02T12:31:30.473Z</time></trkpt><trkpt lat="46.1899855" lon="13.4830837"><ele>559.4</ele><time>2026-05-02T12:31:31.472Z</time></trkpt><trkpt lat="46.1899953" lon="13.4829212"><ele>559.0</ele><time>2026-05-02T12:31:32.473Z</time></trkpt><trkpt lat="46.1900002" lon="13.4827655"><ele>559.0</ele><time>2026-05-02T12:31:33.474Z</time></trkpt><trkpt lat="46.190009" lon="13.4826282"><ele>559.0</ele><time>2026-05-02T12:31:34.473Z</time></trkpt><trkpt lat="46.190016" lon="13.482514"><ele>559.0</ele><time>2026-05-02T12:31:35.473Z</time></trkpt><trkpt lat="46.1900048" lon="13.4824213"><ele>559.0</ele><time>2026-05-02T12:31:36.474Z</time></trkpt><trkpt lat="46.1899227" lon="13.482371"><ele>559.0</ele><time>2026-05-02T12:31:38.472Z</time></trkpt><trkpt lat="46.1898783" lon="13.4825023"><ele>559.0</ele><time>2026-05-02T12:31:40.472Z</time></trkpt><trkpt lat="46.1898848" lon="13.4826147"><ele>559.0</ele><time>2026-05-02T12:31:41.472Z</time></trkpt><trkpt lat="46.189869" lon="13.482911"><ele>559.0</ele><time>2026-05-02T12:31:43.472Z</time></trkpt><trkpt lat="46.1898225" lon="13.4830688"><ele>559.0</ele><time>2026-05-02T12:31:44.472Z</time></trkpt><trkpt lat="46.1897587" lon="13.4832125"><ele>559.0</ele><time>2026-05-02T12:31:45.471Z</time></trkpt><trkpt lat="46.18969" lon="13.4833422"><ele>554.2</ele><time>2026-05-02T12:31:46.471Z</time></trkpt><trkpt lat="46.1896315" lon="13.4834593"><ele>549.4</ele><time>2026-05-02T12:31:47.471Z</time></trkpt><trkpt lat="46.1895868" lon="13.4835777"><ele>544.6</ele><time>2026-05-02T12:31:48.471Z</time></trkpt><trkpt lat="46.189564" lon="13.4837228"><ele>539.8</ele><time>2026-05-02T12:31:49.472Z</time></trkpt><trkpt lat="46.1895545" lon="13.483886"><ele>535.0</ele><time>2026-05-02T12:31:50.473Z</time></trkpt><trkpt lat="46.189555" lon="13.4840465"><ele>534.5</ele><time>2026-05-02T12:31:51.472Z</time></trkpt><trkpt lat="46.189565" lon="13.4841847"><ele>534.0</ele><time>2026-05-02T12:31:52.471Z</time></trkpt><trkpt lat="46.1895755" lon="13.484297"><ele>533.5</ele><time>2026-05-02T12:31:53.472Z</time></trkpt><trkpt lat="46.1895692" lon="13.4843897"><ele>533.0</ele><time>2026-05-02T12:31:54.472Z</time></trkpt><trkpt lat="46.1894882" lon="13.4844563"><ele>532.5</ele><time>2026-05-02T12:31:56.473Z</time></trkpt><trkpt lat="46.1894362" lon="13.48431"><ele>532.0</ele><time>2026-05-02T12:31:58.473Z</time></trkpt><trkpt lat="46.1894187" lon="13.4841762"><ele>532.0</ele><time>2026-05-02T12:31:59.475Z</time></trkpt><trkpt lat="46.1893907" lon="13.4840138"><ele>532.0</ele><time>2026-05-02T12:32:00.473Z</time></trkpt><trkpt lat="46.189347" lon="13.48384"><ele>532.0</ele><time>2026-05-02T12:32:01.474Z</time></trkpt><trkpt lat="46.1893088" lon="13.4836668"><ele>532.0</ele><time>2026-05-02T12:32:02.473Z</time></trkpt><trkpt lat="46.1892717" lon="13.4833328"><ele>532.6</ele><time>2026-05-02T12:32:04.476Z</time></trkpt><trkpt lat="46.1892403" lon="13.4831902"><ele>533.2</ele><time>2026-05-02T12:32:05.473Z</time></trkpt><trkpt lat="46.1891812" lon="13.483075"><ele>533.8</ele><time>2026-05-02T12:32:06.474Z</time></trkpt><trkpt lat="46.1890953" lon="13.4829922"><ele>534.4</ele><time>2026-05-02T12:32:07.474Z</time></trkpt><trkpt lat="46.1889933" lon="13.4829482"><ele>535.0</ele><time>2026-05-02T12:32:08.473Z</time></trkpt><trkpt lat="46.1888868" lon="13.4829437"><ele>530.5</ele><time>2026-05-02T12:32:09.473Z</time></trkpt><trkpt lat="46.1887838" lon="13.482943"><ele>526.0</ele><time>2026-05-02T12:32:10.472Z</time></trkpt><trkpt lat="46.1886848" lon="13.4829052"><ele>521.5</ele><time>2026-05-02T12:32:11.472Z</time></trkpt><trkpt lat="46.1885807" lon="13.4828262"><ele>517.0</ele><time>2026-05-02T12:32:12.471Z</time></trkpt><trkpt lat="46.1884665" lon="13.482733"><ele>517.0</ele><time>2026-05-02T12:32:13.471Z</time></trkpt><trkpt lat="46.1883508" lon="13.4826387"><ele>517.0</ele><time>2026-05-02T12:32:14.474Z</time></trkpt><trkpt lat="46.188246" lon="13.482543"><ele>517.0</ele><time>2026-05-02T12:32:15.474Z</time></trkpt><trkpt lat="46.1881542" lon="13.4824327"><ele>517.0</ele><time>2026-05-02T12:32:16.474Z</time></trkpt><trkpt lat="46.188084" lon="13.4822992"><ele>512.4</ele><time>2026-05-02T12:32:17.474Z</time></trkpt><trkpt lat="46.1880242" lon="13.4821653"><ele>507.80000000000007</ele><time>2026-05-02T12:32:18.473Z</time></trkpt><trkpt lat="46.1879763" lon="13.482041"><ele>503.2</ele><time>2026-05-02T12:32:19.473Z</time></trkpt><trkpt lat="46.1879535" lon="13.4819182"><ele>498.6</ele><time>2026-05-02T12:32:20.473Z</time></trkpt><trkpt lat="46.1879627" lon="13.4817937"><ele>494.0</ele><time>2026-05-02T12:32:21.473Z</time></trkpt><trkpt lat="46.1880078" lon="13.481679"><ele>493.3333333333333</ele><time>2026-05-02T12:32:22.473Z</time></trkpt><trkpt lat="46.1880815" lon="13.4815628"><ele>492.66666666666663</ele><time>2026-05-02T12:32:23.473Z</time></trkpt><trkpt lat="46.1882487" lon="13.4813243"><ele>492.0</ele><time>2026-05-02T12:32:25.472Z</time></trkpt><trkpt lat="46.1883167" lon="13.4812017"><ele>495.6</ele><time>2026-05-02T12:32:26.472Z</time></trkpt><trkpt lat="46.1883615" lon="13.4810665"><ele>499.20000000000005</ele><time>2026-05-02T12:32:27.471Z</time></trkpt><trkpt lat="46.1883758" lon="13.4809208"><ele>502.8</ele><time>2026-05-02T12:32:28.472Z</time></trkpt><trkpt lat="46.1883712" lon="13.4807708"><ele>506.4</ele><time>2026-05-02T12:32:29.471Z</time></trkpt><trkpt lat="46.188352" lon="13.480628"><ele>510.0</ele><time>2026-05-02T12:32:30.472Z</time></trkpt><trkpt lat="46.1883067" lon="13.4804853"><ele>505.5</ele><time>2026-05-02T12:32:31.672Z</time></trkpt><trkpt lat="46.1881918" lon="13.4803523"><ele>501.0</ele><time>2026-05-02T12:32:33.279Z</time></trkpt><trkpt lat="46.188093" lon="13.4803192"><ele>496.5</ele><time>2026-05-02T12:32:34.279Z</time></trkpt><trkpt lat="46.1879823" lon="13.4803268"><ele>492.0</ele><time>2026-05-02T12:32:35.281Z</time></trkpt><trkpt lat="46.1878732" lon="13.4803787"><ele>490.40000000000003</ele><time>2026-05-02T12:32:36.282Z</time></trkpt><trkpt lat="46.1877785" lon="13.480462"><ele>488.80000000000007</ele><time>2026-05-02T12:32:37.28Z</time></trkpt><trkpt lat="46.1877072" lon="13.4805795"><ele>487.2</ele><time>2026-05-02T12:32:38.281Z</time></trkpt><trkpt lat="46.187655" lon="13.4807197"><ele>485.6</ele><time>2026-05-02T12:32:39.281Z</time></trkpt><trkpt lat="46.1876327" lon="13.4808835"><ele>484.0</ele><time>2026-05-02T12:32:40.28Z</time></trkpt><trkpt lat="46.1876032" lon="13.4810483"><ele>484.0</ele><time>2026-05-02T12:32:41.28Z</time></trkpt><trkpt lat="46.1875383" lon="13.4811925"><ele>484.0</ele><time>2026-05-02T12:32:42.279Z</time></trkpt><trkpt lat="46.1874542" lon="13.481327"><ele>484.0</ele><time>2026-05-02T12:32:43.279Z</time></trkpt><trkpt lat="46.187367" lon="13.4814703"><ele>484.0</ele><time>2026-05-02T12:32:44.278Z</time></trkpt><trkpt lat="46.1872333" lon="13.4818142"><ele>477.0</ele><time>2026-05-02T12:32:46.276Z</time></trkpt><trkpt lat="46.187195" lon="13.4820052"><ele>470.0</ele><time>2026-05-02T12:32:47.276Z</time></trkpt><trkpt lat="46.187164" lon="13.4822057"><ele>463.0</ele><time>2026-05-02T12:32:48.278Z</time></trkpt><trkpt lat="46.1871418" lon="13.4824118"><ele>456.0</ele><time>2026-05-02T12:32:49.279Z</time></trkpt><trkpt lat="46.1871275" lon="13.482617"><ele>455.0</ele><time>2026-05-02T12:32:50.278Z</time></trkpt><trkpt lat="46.1871247" lon="13.4828238"><ele>454.0</ele><time>2026-05-02T12:32:51.279Z</time></trkpt><trkpt lat="46.1871403" lon="13.4830275"><ele>453.0</ele><time>2026-05-02T12:32:52.279Z</time></trkpt><trkpt lat="46.1871748" lon="13.4832288"><ele>452.0</ele><time>2026-05-02T12:32:53.277Z</time></trkpt><trkpt lat="46.1872175" lon="13.4834275"><ele>451.0</ele><time>2026-05-02T12:32:54.278Z</time></trkpt><trkpt lat="46.1872455" lon="13.4836337"><ele>450.0</ele><time>2026-05-02T12:32:55.284Z</time></trkpt><trkpt lat="46.1872525" lon="13.4838497"><ele>449.0</ele><time>2026-05-02T12:32:56.278Z</time></trkpt><trkpt lat="46.187253" lon="13.484067"><ele>448.0</ele><time>2026-05-02T12:32:57.278Z</time></trkpt><trkpt lat="46.1872578" lon="13.4843288"><ele>446.75</ele><time>2026-05-02T12:32:58.471Z</time></trkpt><trkpt lat="46.18728" lon="13.4845435"><ele>445.5</ele><time>2026-05-02T12:32:59.469Z</time></trkpt><trkpt lat="46.1873082" lon="13.4847473"><ele>444.25</ele><time>2026-05-02T12:33:00.47Z</time></trkpt><trkpt lat="46.1873295" lon="13.4849382"><ele>443.0</ele><time>2026-05-02T12:33:01.471Z</time></trkpt><trkpt lat="46.1873285" lon="13.485124"><ele>440.4</ele><time>2026-05-02T12:33:02.471Z</time></trkpt><trkpt lat="46.1873227" lon="13.4852963"><ele>437.79999999999995</ele><time>2026-05-02T12:33:03.473Z</time></trkpt><trkpt lat="46.1873303" lon="13.4854412"><ele>435.2</ele><time>2026-05-02T12:33:04.471Z</time></trkpt><trkpt lat="46.1873562" lon="13.4855548"><ele>432.6</ele><time>2026-05-02T12:33:05.472Z</time></trkpt><trkpt lat="46.187369" lon="13.4857552"><ele>430.0</ele><time>2026-05-02T12:33:08.472Z</time></trkpt><trkpt lat="46.1872807" lon="13.4856895"><ele>430.0</ele><time>2026-05-02T12:33:10.472Z</time></trkpt><trkpt lat="46.1872415" lon="13.485577"><ele>430.0</ele><time>2026-05-02T12:33:11.472Z</time></trkpt><trkpt lat="46.187201" lon="13.48543"><ele>430.0</ele><time>2026-05-02T12:33:12.472Z</time></trkpt><trkpt lat="46.1871497" lon="13.4852747"><ele>430.0</ele><time>2026-05-02T12:33:13.471Z</time></trkpt><trkpt lat="46.1870842" lon="13.4851227"><ele>430.0</ele><time>2026-05-02T12:33:14.474Z</time></trkpt><trkpt lat="46.1869952" lon="13.4849858"><ele>430.0</ele><time>2026-05-02T12:33:15.472Z</time></trkpt><trkpt lat="46.1868898" lon="13.4848578"><ele>430.0</ele><time>2026-05-02T12:33:16.471Z</time></trkpt><trkpt lat="46.1867822" lon="13.4847372"><ele>430.0</ele><time>2026-05-02T12:33:17.472Z</time></trkpt><trkpt lat="46.1866967" lon="13.4846003"><ele>430.0</ele><time>2026-05-02T12:33:18.472Z</time></trkpt><trkpt lat="46.1866167" lon="13.4844623"><ele>433.25</ele><time>2026-05-02T12:33:19.472Z</time></trkpt><trkpt lat="46.1865448" lon="13.4843248"><ele>436.5</ele><time>2026-05-02T12:33:20.471Z</time></trkpt><trkpt lat="46.1864795" lon="13.4841577"><ele>439.75</ele><time>2026-05-02T12:33:21.472Z</time></trkpt><trkpt lat="46.1864215" lon="13.4839623"><ele>443.0</ele><time>2026-05-02T12:33:22.472Z</time></trkpt><trkpt lat="46.1863532" lon="13.4837638"><ele>431.3333333333333</ele><time>2026-05-02T12:33:23.471Z</time></trkpt><trkpt lat="46.1862698" lon="13.4835648"><ele>419.66666666666663</ele><time>2026-05-02T12:33:24.47Z</time></trkpt><trkpt lat="46.1861837" lon="13.4833518"><ele>408.0</ele><time>2026-05-02T12:33:25.47Z</time></trkpt><trkpt lat="46.1861003" lon="13.483138"><ele>413.5</ele><time>2026-05-02T12:33:26.47Z</time></trkpt><trkpt lat="46.185918" lon="13.482764"><ele>419.0</ele><time>2026-05-02T12:33:28.471Z</time></trkpt><trkpt lat="46.1858378" lon="13.4825887"><ele>419.0</ele><time>2026-05-02T12:33:29.471Z</time></trkpt><trkpt lat="46.1857815" lon="13.4824113"><ele>419.0</ele><time>2026-05-02T12:33:30.472Z</time></trkpt><trkpt lat="46.1857303" lon="13.4822455"><ele>419.0</ele><time>2026-05-02T12:33:31.471Z</time></trkpt><trkpt lat="46.1856635" lon="13.4821045"><ele>419.0</ele><time>2026-05-02T12:33:32.471Z</time></trkpt><trkpt lat="46.1855698" lon="13.4819978"><ele>414.5</ele><time>2026-05-02T12:33:33.471Z</time></trkpt><trkpt lat="46.185464" lon="13.4819062"><ele>410.0</ele><time>2026-05-02T12:33:34.471Z</time></trkpt><trkpt lat="46.1853548" lon="13.4818292"><ele>405.5</ele><time>2026-05-02T12:33:35.471Z</time></trkpt><trkpt lat="46.1852453" lon="13.4817613"><ele>401.0</ele><time>2026-05-02T12:33:36.471Z</time></trkpt><trkpt lat="46.1851377" lon="13.4817265"><ele>401.0</ele><time>2026-05-02T12:33:37.472Z</time></trkpt><trkpt lat="46.1850425" lon="13.4817405"><ele>401.0</ele><time>2026-05-02T12:33:38.473Z</time></trkpt><trkpt lat="46.1849658" lon="13.4818028"><ele>401.0</ele><time>2026-05-02T12:33:39.471Z</time></trkpt><trkpt lat="46.1849173" lon="13.4819188"><ele>401.0</ele><time>2026-05-02T12:33:40.471Z</time></trkpt><trkpt lat="46.184897" lon="13.4820755"><ele>401.0</ele><time>2026-05-02T12:33:41.471Z</time></trkpt><trkpt lat="46.1848997" lon="13.4822533"><ele>399.5</ele><time>2026-05-02T12:33:42.471Z</time></trkpt><trkpt lat="46.1849057" lon="13.4824573"><ele>398.0</ele><time>2026-05-02T12:33:43.47Z</time></trkpt><trkpt lat="46.1849223" lon="13.4826585"><ele>396.5</ele><time>2026-05-02T12:33:44.47Z</time></trkpt><trkpt lat="46.1849483" lon="13.4828538"><ele>395.0</ele><time>2026-05-02T12:33:45.471Z</time></trkpt><trkpt lat="46.184987" lon="13.4830503"><ele>393.0</ele><time>2026-05-02T12:33:46.47Z</time></trkpt><trkpt lat="46.185034" lon="13.4832422"><ele>391.0</ele><time>2026-05-02T12:33:47.471Z</time></trkpt><trkpt lat="46.1851305" lon="13.483607"><ele>389.0</ele><time>2026-05-02T12:33:49.466Z</time></trkpt><trkpt lat="46.185179" lon="13.4837822"><ele>386.79999999999995</ele><time>2026-05-02T12:33:50.467Z</time></trkpt><trkpt lat="46.185236" lon="13.483939"><ele>384.59999999999997</ele><time>2026-05-02T12:33:51.469Z</time></trkpt><trkpt lat="46.1853047" lon="13.4840747"><ele>382.4</ele><time>2026-05-02T12:33:52.47Z</time></trkpt><trkpt lat="46.1853673" lon="13.4841527"><ele>380.2</ele><time>2026-05-02T12:33:53.469Z</time></trkpt><trkpt lat="46.185407" lon="13.4842878"><ele>378.0</ele><time>2026-05-02T12:33:55.47Z</time></trkpt><trkpt lat="46.1853637" lon="13.484357"><ele>378.0</ele><time>2026-05-02T12:33:56.469Z</time></trkpt><trkpt lat="46.185278" lon="13.4844077"><ele>378.0</ele><time>2026-05-02T12:33:57.47Z</time></trkpt><trkpt lat="46.18517" lon="13.4844232"><ele>378.0</ele><time>2026-05-02T12:33:58.469Z</time></trkpt><trkpt lat="46.1850485" lon="13.4844238"><ele>378.0</ele><time>2026-05-02T12:33:59.47Z</time></trkpt><trkpt lat="46.1849125" lon="13.4844393"><ele>372.25</ele><time>2026-05-02T12:34:00.47Z</time></trkpt><trkpt lat="46.18479" lon="13.4844712"><ele>366.5</ele><time>2026-05-02T12:34:01.471Z</time></trkpt><trkpt lat="46.1846687" lon="13.4845192"><ele>360.75</ele><time>2026-05-02T12:34:02.471Z</time></trkpt><trkpt lat="46.1845532" lon="13.4845482"><ele>355.0</ele><time>2026-05-02T12:34:03.472Z</time></trkpt><trkpt lat="46.1844372" lon="13.4845478"><ele>355.0</ele><time>2026-05-02T12:34:04.471Z</time></trkpt><trkpt lat="46.1843218" lon="13.4845043"><ele>355.0</ele><time>2026-05-02T12:34:05.47Z</time></trkpt><trkpt lat="46.1842233" lon="13.4844202"><ele>355.0</ele><time>2026-05-02T12:34:06.471Z</time></trkpt><trkpt lat="46.184145" lon="13.4842992"><ele>355.0</ele><time>2026-05-02T12:34:07.471Z</time></trkpt><trkpt lat="46.184087" lon="13.4841415"><ele>342.3333333333333</ele><time>2026-05-02T12:34:08.47Z</time></trkpt><trkpt lat="46.184008" lon="13.48379"><ele>329.6666666666667</ele><time>2026-05-02T12:34:10.471Z</time></trkpt><trkpt lat="46.18398" lon="13.483615"><ele>317.0</ele><time>2026-05-02T12:34:11.47Z</time></trkpt><trkpt lat="46.1839668" lon="13.4834452"><ele>317.0</ele><time>2026-05-02T12:34:12.47Z</time></trkpt><trkpt lat="46.183979" lon="13.4832805"><ele>317.0</ele><time>2026-05-02T12:34:13.469Z</time></trkpt><trkpt lat="46.18398" lon="13.4831202"><ele>317.0</ele><time>2026-05-02T12:34:14.469Z</time></trkpt><trkpt lat="46.1839475" lon="13.4829615"><ele>317.0</ele><time>2026-05-02T12:34:15.47Z</time></trkpt><trkpt lat="46.1838858" lon="13.4828028"><ele>316.25</ele><time>2026-05-02T12:34:16.47Z</time></trkpt><trkpt lat="46.1838217" lon="13.4826252"><ele>315.5</ele><time>2026-05-02T12:34:17.471Z</time></trkpt><trkpt lat="46.1837648" lon="13.4824268"><ele>314.75</ele><time>2026-05-02T12:34:18.47Z</time></trkpt><trkpt lat="46.183722" lon="13.4822203"><ele>314.0</ele><time>2026-05-02T12:34:19.47Z</time></trkpt><trkpt lat="46.183699" lon="13.4820137"><ele>315.75</ele><time>2026-05-02T12:34:20.47Z</time></trkpt><trkpt lat="46.1836868" lon="13.4818083"><ele>317.5</ele><time>2026-05-02T12:34:21.471Z</time></trkpt><trkpt lat="46.1836662" lon="13.4816055"><ele>319.25</ele><time>2026-05-02T12:34:22.47Z</time></trkpt><trkpt lat="46.1836313" lon="13.4814075"><ele>321.0</ele><time>2026-05-02T12:34:23.471Z</time></trkpt><trkpt lat="46.1835637" lon="13.4811838"><ele>323.0</ele><time>2026-05-02T12:34:24.671Z</time></trkpt><trkpt lat="46.1834533" lon="13.4809182"><ele>325.0</ele><time>2026-05-02T12:34:26.277Z</time></trkpt><trkpt lat="46.1833972" lon="13.4807535"><ele>327.0</ele><time>2026-05-02T12:34:27.277Z</time></trkpt><trkpt lat="46.1833635" lon="13.4805767"><ele>325.5</ele><time>2026-05-02T12:34:28.278Z</time></trkpt><trkpt lat="46.1833463" lon="13.4803978"><ele>324.0</ele><time>2026-05-02T12:34:29.277Z</time></trkpt><trkpt lat="46.1833743" lon="13.4801065"><ele>322.5</ele><time>2026-05-02T12:34:31.277Z</time></trkpt><trkpt lat="46.1833982" lon="13.4799985"><ele>321.0</ele><time>2026-05-02T12:34:32.277Z</time></trkpt><trkpt lat="46.1833682" lon="13.4798657"><ele>321.0</ele><time>2026-05-02T12:34:34.277Z</time></trkpt><trkpt lat="46.1832943" lon="13.4799175"><ele>321.0</ele><time>2026-05-02T12:34:36.277Z</time></trkpt><trkpt lat="46.1832695" lon="13.4800245"><ele>321.0</ele><time>2026-05-02T12:34:37.276Z</time></trkpt><trkpt lat="46.183263" lon="13.48017"><ele>321.0</ele><time>2026-05-02T12:34:38.277Z</time></trkpt><trkpt lat="46.1832618" lon="13.4803392"><ele>321.0</ele><time>2026-05-02T12:34:39.276Z</time></trkpt><trkpt lat="46.1832553" lon="13.4805235"><ele>321.0</ele><time>2026-05-02T12:34:40.278Z</time></trkpt><trkpt lat="46.1832402" lon="13.4807183"><ele>321.0</ele><time>2026-05-02T12:34:41.278Z</time></trkpt><trkpt lat="46.183221" lon="13.48092"><ele>321.0</ele><time>2026-05-02T12:34:42.279Z</time></trkpt><trkpt lat="46.183205" lon="13.4811295"><ele>321.0</ele><time>2026-05-02T12:34:43.278Z</time></trkpt><trkpt lat="46.1831958" lon="13.4813395"><ele>321.0</ele><time>2026-05-02T12:34:44.279Z</time></trkpt><trkpt lat="46.1831867" lon="13.4815462"><ele>321.0</ele><time>2026-05-02T12:34:45.28Z</time></trkpt><trkpt lat="46.1831755" lon="13.481742"><ele>321.0</ele><time>2026-05-02T12:34:46.278Z</time></trkpt><trkpt lat="46.1831625" lon="13.4819262"><ele>321.0</ele><time>2026-05-02T12:34:47.276Z</time></trkpt><trkpt lat="46.183155" lon="13.4821032"><ele>319.25</ele><time>2026-05-02T12:34:48.276Z</time></trkpt><trkpt lat="46.183168" lon="13.48227"><ele>317.5</ele><time>2026-05-02T12:34:49.277Z</time></trkpt><trkpt lat="46.183204" lon="13.4824205"><ele>315.75</ele><time>2026-05-02T12:34:50.276Z</time></trkpt><trkpt lat="46.1832728" lon="13.4826598"><ele>314.0</ele><time>2026-05-02T12:34:52.278Z</time></trkpt><trkpt lat="46.1832762" lon="13.4827527"><ele>314.0</ele><time>2026-05-02T12:34:53.277Z</time></trkpt><trkpt lat="46.1832388" lon="13.4828278"><ele>314.0</ele><time>2026-05-02T12:34:54.276Z</time></trkpt><trkpt lat="46.1831745" lon="13.4829088"><ele>314.0</ele><time>2026-05-02T12:34:55.276Z</time></trkpt><trkpt lat="46.1831108" lon="13.4830012"><ele>314.0</ele><time>2026-05-02T12:34:56.276Z</time></trkpt><trkpt lat="46.1830572" lon="13.4831048"><ele>314.0</ele><time>2026-05-02T12:34:57.277Z</time></trkpt><trkpt lat="46.1830278" lon="13.4832618"><ele>314.0</ele><time>2026-05-02T12:34:58.47Z</time></trkpt><trkpt lat="46.1830288" lon="13.4834148"><ele>307.0</ele><time>2026-05-02T12:34:59.47Z</time></trkpt><trkpt lat="46.1830398" lon="13.4835977"><ele>300.0</ele><time>2026-05-02T12:35:00.471Z</time></trkpt><trkpt lat="46.1830622" lon="13.4837912"><ele>293.0</ele><time>2026-05-02T12:35:01.469Z</time></trkpt><trkpt lat="46.1830942" lon="13.4839963"><ele>286.0</ele><time>2026-05-02T12:35:02.467Z</time></trkpt><trkpt lat="46.1831217" lon="13.4841955"><ele>282.5</ele><time>2026-05-02T12:35:03.466Z</time></trkpt><trkpt lat="46.1831428" lon="13.4843865"><ele>279.0</ele><time>2026-05-02T12:35:04.466Z</time></trkpt><trkpt lat="46.1831703" lon="13.4845622"><ele>275.5</ele><time>2026-05-02T12:35:05.466Z</time></trkpt><trkpt lat="46.1832085" lon="13.484712"><ele>272.0</ele><time>2026-05-02T12:35:06.467Z</time></trkpt><trkpt lat="46.18325" lon="13.4848282"><ele>272.0</ele><time>2026-05-02T12:35:07.468Z</time></trkpt><trkpt lat="46.183276" lon="13.4849185"><ele>272.0</ele><time>2026-05-02T12:35:08.468Z</time></trkpt><trkpt lat="46.183232" lon="13.4850095"><ele>272.0</ele><time>2026-05-02T12:35:10.469Z</time></trkpt><trkpt lat="46.1831028" lon="13.4847068"><ele>272.0</ele><time>2026-05-02T12:35:13.669Z</time></trkpt><trkpt lat="46.183013" lon="13.4844407"><ele>272.0</ele><time>2026-05-02T12:35:15.273Z</time></trkpt><trkpt lat="46.1829683" lon="13.4842445"><ele>272.0</ele><time>2026-05-02T12:35:16.274Z</time></trkpt><trkpt lat="46.1829308" lon="13.4840512"><ele>272.0</ele><time>2026-05-02T12:35:17.274Z</time></trkpt><trkpt lat="46.182871" lon="13.4838792"><ele>272.0</ele><time>2026-05-02T12:35:18.275Z</time></trkpt><trkpt lat="46.1827962" lon="13.4837313"><ele>274.8</ele><time>2026-05-02T12:35:19.275Z</time></trkpt><trkpt lat="46.1827355" lon="13.4835875"><ele>277.6</ele><time>2026-05-02T12:35:20.275Z</time></trkpt><trkpt lat="46.182703" lon="13.4834485"><ele>280.40000000000003</ele><time>2026-05-02T12:35:21.276Z</time></trkpt><trkpt lat="46.1826967" lon="13.483318"><ele>283.2</ele><time>2026-05-02T12:35:22.276Z</time></trkpt><trkpt lat="46.182716" lon="13.4831898"><ele>286.0</ele><time>2026-05-02T12:35:23.275Z</time></trkpt><trkpt lat="46.1827413" lon="13.4830615"><ele>286.0</ele><time>2026-05-02T12:35:24.275Z</time></trkpt><trkpt lat="46.1827448" lon="13.482944"><ele>286.0</ele><time>2026-05-02T12:35:25.275Z</time></trkpt><trkpt lat="46.1827183" lon="13.4828432"><ele>286.0</ele><time>2026-05-02T12:35:26.275Z</time></trkpt><trkpt lat="46.1826552" lon="13.482757"><ele>286.0</ele><time>2026-05-02T12:35:27.274Z</time></trkpt><trkpt lat="46.1825638" lon="13.4826692"><ele>286.0</ele><time>2026-05-02T12:35:28.276Z</time></trkpt><trkpt lat="46.182476" lon="13.482549"><ele>285.3333333333333</ele><time>2026-05-02T12:35:29.275Z</time></trkpt><trkpt lat="46.1823982" lon="13.4823978"><ele>284.6666666666667</ele><time>2026-05-02T12:35:30.276Z</time></trkpt><trkpt lat="46.1823338" lon="13.482231"><ele>284.0</ele><time>2026-05-02T12:35:31.277Z</time></trkpt><trkpt lat="46.1822492" lon="13.481878"><ele>274.25</ele><time>2026-05-02T12:35:33.277Z</time></trkpt><trkpt lat="46.1822248" lon="13.4816808"><ele>264.5</ele><time>2026-05-02T12:35:34.278Z</time></trkpt><trkpt lat="46.1822005" lon="13.4814852"><ele>254.75</ele><time>2026-05-02T12:35:35.275Z</time></trkpt><trkpt lat="46.1821763" lon="13.4813038"><ele>245.0</ele><time>2026-05-02T12:35:36.274Z</time></trkpt><trkpt lat="46.182146" lon="13.4811307"><ele>244.25</ele><time>2026-05-02T12:35:37.276Z</time></trkpt><trkpt lat="46.1820955" lon="13.480971"><ele>243.5</ele><time>2026-05-02T12:35:38.276Z</time></trkpt><trkpt lat="46.1820245" lon="13.4808265"><ele>242.75</ele><time>2026-05-02T12:35:39.278Z</time></trkpt><trkpt lat="46.1819517" lon="13.4806998"><ele>242.0</ele><time>2026-05-02T12:35:40.278Z</time></trkpt><trkpt lat="46.1818938" lon="13.4805805"><ele>242.0</ele><time>2026-05-02T12:35:41.278Z</time></trkpt><trkpt lat="46.1818597" lon="13.4804552"><ele>242.0</ele><time>2026-05-02T12:35:42.28Z</time></trkpt><trkpt lat="46.1818597" lon="13.4803082"><ele>242.0</ele><time>2026-05-02T12:35:43.277Z</time></trkpt><trkpt lat="46.1818665" lon="13.4801453"><ele>242.0</ele><time>2026-05-02T12:35:44.278Z</time></trkpt><trkpt lat="46.1818647" lon="13.479979"><ele>242.0</ele><time>2026-05-02T12:35:45.279Z</time></trkpt><trkpt lat="46.1818683" lon="13.4798242"><ele>240.8</ele><time>2026-05-02T12:35:46.28Z</time></trkpt><trkpt lat="46.1818902" lon="13.4796938"><ele>239.6</ele><time>2026-05-02T12:35:47.277Z</time></trkpt><trkpt lat="46.1819365" lon="13.4795893"><ele>238.40000000000003</ele><time>2026-05-02T12:35:48.277Z</time></trkpt><trkpt lat="46.1820085" lon="13.4794923"><ele>237.20000000000002</ele><time>2026-05-02T12:35:49.277Z</time></trkpt><trkpt lat="46.1820945" lon="13.479374"><ele>236.0</ele><time>2026-05-02T12:35:50.276Z</time></trkpt><trkpt lat="46.1821963" lon="13.479247"><ele>241.33333333333334</ele><time>2026-05-02T12:35:51.275Z</time></trkpt><trkpt lat="46.1823098" lon="13.4791342"><ele>246.66666666666669</ele><time>2026-05-02T12:35:52.276Z</time></trkpt><trkpt lat="46.182548" lon="13.478957"><ele>252.0</ele><time>2026-05-02T12:35:54.276Z</time></trkpt><trkpt lat="46.1826537" lon="13.4788485"><ele>242.25</ele><time>2026-05-02T12:35:55.275Z</time></trkpt><trkpt lat="46.182752" lon="13.4787217"><ele>232.5</ele><time>2026-05-02T12:35:56.276Z</time></trkpt><trkpt lat="46.1828502" lon="13.4786048"><ele>222.75</ele><time>2026-05-02T12:35:57.276Z</time></trkpt><trkpt lat="46.1829677" lon="13.478485"><ele>213.0</ele><time>2026-05-02T12:35:58.468Z</time></trkpt><trkpt lat="46.1830638" lon="13.478397"><ele>213.0</ele><time>2026-05-02T12:35:59.469Z</time></trkpt><trkpt lat="46.1831647" lon="13.4783152"><ele>213.0</ele><time>2026-05-02T12:36:00.468Z</time></trkpt><trkpt lat="46.1832648" lon="13.4782407"><ele>213.0</ele><time>2026-05-02T12:36:01.469Z</time></trkpt><trkpt lat="46.1833508" lon="13.4781975"><ele>213.0</ele><time>2026-05-02T12:36:02.47Z</time></trkpt><trkpt lat="46.1834932" lon="13.4781368"><ele>210.75</ele><time>2026-05-02T12:36:03.469Z</time></trkpt><trkpt lat="46.1836207" lon="13.4780733"><ele>208.5</ele><time>2026-05-02T12:36:04.468Z</time></trkpt><trkpt lat="46.1837415" lon="13.4780158"><ele>206.25</ele><time>2026-05-02T12:36:05.467Z</time></trkpt><trkpt lat="46.1838543" lon="13.477955"><ele>204.0</ele><time>2026-05-02T12:36:06.467Z</time></trkpt><trkpt lat="46.183964" lon="13.4778863"><ele>208.25</ele><time>2026-05-02T12:36:07.467Z</time></trkpt><trkpt lat="46.1840668" lon="13.4778055"><ele>212.5</ele><time>2026-05-02T12:36:08.467Z</time></trkpt><trkpt lat="46.1841618" lon="13.4777032"><ele>216.75</ele><time>2026-05-02T12:36:09.468Z</time></trkpt><trkpt lat="46.1842438" lon="13.4775765"><ele>221.0</ele><time>2026-05-02T12:36:10.467Z</time></trkpt><trkpt lat="46.1843197" lon="13.4774335"><ele>221.0</ele><time>2026-05-02T12:36:11.468Z</time></trkpt><trkpt lat="46.184403" lon="13.4773163"><ele>221.00000000000003</ele><time>2026-05-02T12:36:12.47Z</time></trkpt><trkpt lat="46.184481" lon="13.4772273"><ele>221.00000000000003</ele><time>2026-05-02T12:36:13.469Z</time></trkpt><trkpt lat="46.1845805" lon="13.4770817"><ele>221.0</ele><time>2026-05-02T12:36:15.468Z</time></trkpt><trkpt lat="46.1845575" lon="13.4769658"><ele>221.0</ele><time>2026-05-02T12:36:17.469Z</time></trkpt><trkpt lat="46.1844628" lon="13.477029"><ele>221.0</ele><time>2026-05-02T12:36:19.469Z</time></trkpt><trkpt lat="46.1844018" lon="13.4771273"><ele>221.0</ele><time>2026-05-02T12:36:20.471Z</time></trkpt><trkpt lat="46.1842265" lon="13.4773597"><ele>221.0</ele><time>2026-05-02T12:36:22.47Z</time></trkpt><trkpt lat="46.1841108" lon="13.4774622"><ele>216.75</ele><time>2026-05-02T12:36:23.469Z</time></trkpt><trkpt lat="46.1839853" lon="13.4775573"><ele>212.5</ele><time>2026-05-02T12:36:24.469Z</time></trkpt><trkpt lat="46.1838535" lon="13.4776353"><ele>208.25</ele><time>2026-05-02T12:36:25.468Z</time></trkpt><trkpt lat="46.1837172" lon="13.4776973"><ele>204.0</ele><time>2026-05-02T12:36:26.469Z</time></trkpt><trkpt lat="46.183577" lon="13.4777398"><ele>204.0</ele><time>2026-05-02T12:36:27.469Z</time></trkpt><trkpt lat="46.1834377" lon="13.4777648"><ele>204.0</ele><time>2026-05-02T12:36:28.467Z</time></trkpt><trkpt lat="46.1833015" lon="13.477781"><ele>204.0</ele><time>2026-05-02T12:36:29.468Z</time></trkpt><trkpt lat="46.1831685" lon="13.4777952"><ele>204.0</ele><time>2026-05-02T12:36:30.468Z</time></trkpt><trkpt lat="46.1830388" lon="13.4778113"><ele>201.5</ele><time>2026-05-02T12:36:31.468Z</time></trkpt><trkpt lat="46.1829082" lon="13.4778233"><ele>199.0</ele><time>2026-05-02T12:36:32.468Z</time></trkpt><trkpt lat="46.1827753" lon="13.4778303"><ele>196.5</ele><time>2026-05-02T12:36:33.469Z</time></trkpt><trkpt lat="46.182643" lon="13.4778413"><ele>194.0</ele><time>2026-05-02T12:36:34.468Z</time></trkpt><trkpt lat="46.182398" lon="13.4778835"><ele>194.2</ele><time>2026-05-02T12:36:36.472Z</time></trkpt><trkpt lat="46.1822873" lon="13.47791"><ele>194.39999999999998</ele><time>2026-05-02T12:36:37.47Z</time></trkpt><trkpt lat="46.1821887" lon="13.4779387"><ele>194.6</ele><time>2026-05-02T12:36:38.471Z</time></trkpt><trkpt lat="46.1820972" lon="13.4779557"><ele>194.8</ele><time>2026-05-02T12:36:39.469Z</time></trkpt><trkpt lat="46.1820155" lon="13.4779613"><ele>195.0</ele><time>2026-05-02T12:36:40.471Z</time></trkpt><trkpt lat="46.1819435" lon="13.4779505"><ele>193.8</ele><time>2026-05-02T12:36:41.467Z</time></trkpt><trkpt lat="46.1818417" lon="13.4778693"><ele>192.6</ele><time>2026-05-02T12:36:43.469Z</time></trkpt><trkpt lat="46.1817882" lon="13.477817"><ele>191.39999999999998</ele><time>2026-05-02T12:36:44.471Z</time></trkpt><trkpt lat="46.1817172" lon="13.4777728"><ele>190.2</ele><time>2026-05-02T12:36:45.471Z</time></trkpt><trkpt lat="46.1816293" lon="13.4777412"><ele>189.0</ele><time>2026-05-02T12:36:46.471Z</time></trkpt><trkpt lat="46.1815275" lon="13.4777168"><ele>189.0</ele><time>2026-05-02T12:36:47.47Z</time></trkpt><trkpt lat="46.1814148" lon="13.477696"><ele>189.0</ele><time>2026-05-02T12:36:48.471Z</time></trkpt><trkpt lat="46.1812965" lon="13.4776725"><ele>189.0</ele><time>2026-05-02T12:36:49.47Z</time></trkpt><trkpt lat="46.1811755" lon="13.477649"><ele>189.0</ele><time>2026-05-02T12:36:50.47Z</time></trkpt><trkpt lat="46.1810552" lon="13.4776227"><ele>189.0</ele><time>2026-05-02T12:36:51.471Z</time></trkpt><trkpt lat="46.1809375" lon="13.4776007"><ele>189.0</ele><time>2026-05-02T12:36:52.47Z</time></trkpt><trkpt lat="46.1808235" lon="13.4775905"><ele>189.0</ele><time>2026-05-02T12:36:53.471Z</time></trkpt><trkpt lat="46.1807183" lon="13.4775898"><ele>189.0</ele><time>2026-05-02T12:36:54.472Z</time></trkpt><trkpt lat="46.1806287" lon="13.4776007"><ele>189.0</ele><time>2026-05-02T12:36:55.47Z</time></trkpt><trkpt lat="46.1804542" lon="13.4775607"><ele>188.79999999999998</ele><time>2026-05-02T12:36:58.47Z</time></trkpt><trkpt lat="46.1804097" lon="13.4773868"><ele>188.6</ele><time>2026-05-02T12:37:00.471Z</time></trkpt><trkpt lat="46.1803937" lon="13.477259"><ele>188.4</ele><time>2026-05-02T12:37:01.471Z</time></trkpt><trkpt lat="46.1803753" lon="13.4771152"><ele>188.2</ele><time>2026-05-02T12:37:02.471Z</time></trkpt><trkpt lat="46.1803512" lon="13.4769588"><ele>188.0</ele><time>2026-05-02T12:37:03.472Z</time></trkpt><trkpt lat="46.1803262" lon="13.4767988"><ele>188.0</ele><time>2026-05-02T12:37:04.468Z</time></trkpt><trkpt lat="46.1803023" lon="13.4766428"><ele>188.0</ele><time>2026-05-02T12:37:05.468Z</time></trkpt><trkpt lat="46.1802797" lon="13.4764997"><ele>188.0</ele><time>2026-05-02T12:37:06.471Z</time></trkpt><trkpt lat="46.1802598" lon="13.476371"><ele>188.0</ele><time>2026-05-02T12:37:07.47Z</time></trkpt><trkpt lat="46.180242" lon="13.4762517"><ele>188.0</ele><time>2026-05-02T12:37:08.472Z</time></trkpt><trkpt lat="46.1802273" lon="13.4761392"><ele>188.28571428571428</ele><time>2026-05-02T12:37:09.473Z</time></trkpt><trkpt lat="46.1802105" lon="13.4760292"><ele>188.57142857142856</ele><time>2026-05-02T12:37:10.473Z</time></trkpt><trkpt lat="46.1801858" lon="13.475924"><ele>188.85714285714286</ele><time>2026-05-02T12:37:11.473Z</time></trkpt><trkpt lat="46.1801512" lon="13.4758255"><ele>189.14285714285714</ele><time>2026-05-02T12:37:12.472Z</time></trkpt><trkpt lat="46.1801103" lon="13.4757407"><ele>189.42857142857144</ele><time>2026-05-02T12:37:13.472Z</time></trkpt><trkpt lat="46.180076" lon="13.4756602"><ele>189.71428571428572</ele><time>2026-05-02T12:37:14.472Z</time></trkpt><trkpt lat="46.1800595" lon="13.475567"><ele>190.0</ele><time>2026-05-02T12:37:15.472Z</time></trkpt><trkpt lat="46.1800688" lon="13.4754562"><ele>192.0</ele><time>2026-05-02T12:37:16.471Z</time></trkpt><trkpt lat="46.1800922" lon="13.4752018"><ele>194.0</ele><time>2026-05-02T12:37:18.472Z</time></trkpt><trkpt lat="46.1800935" lon="13.4750678"><ele>196.0</ele><time>2026-05-02T12:37:19.472Z</time></trkpt><trkpt lat="46.1800877" lon="13.4749318"><ele>198.0</ele><time>2026-05-02T12:37:20.472Z</time></trkpt><trkpt lat="46.1800672" lon="13.474788"><ele>198.0</ele><time>2026-05-02T12:37:21.473Z</time></trkpt><trkpt lat="46.1800435" lon="13.4746377"><ele>198.0</ele><time>2026-05-02T12:37:22.473Z</time></trkpt><trkpt lat="46.180026" lon="13.4744778"><ele>198.0</ele><time>2026-05-02T12:37:23.472Z</time></trkpt><trkpt lat="46.180006" lon="13.4743173"><ele>198.0</ele><time>2026-05-02T12:37:24.472Z</time></trkpt><trkpt lat="46.1799975" lon="13.4741513"><ele>198.0</ele><time>2026-05-02T12:37:25.472Z</time></trkpt><trkpt lat="46.179997" lon="13.473988"><ele>199.25</ele><time>2026-05-02T12:37:26.472Z</time></trkpt><trkpt lat="46.1799967" lon="13.473822"><ele>200.5</ele><time>2026-05-02T12:37:27.472Z</time></trkpt><trkpt lat="46.179992" lon="13.4736512"><ele>201.75</ele><time>2026-05-02T12:37:28.471Z</time></trkpt><trkpt lat="46.179965" lon="13.4734825"><ele>203.0</ele><time>2026-05-02T12:37:29.472Z</time></trkpt><trkpt lat="46.1799175" lon="13.4733273"><ele>204.4</ele><time>2026-05-02T12:37:30.471Z</time></trkpt><trkpt lat="46.1798513" lon="13.4731932"><ele>205.8</ele><time>2026-05-02T12:37:31.47Z</time></trkpt><trkpt lat="46.1797763" lon="13.4730985"><ele>207.2</ele><time>2026-05-02T12:37:32.471Z</time></trkpt><trkpt lat="46.179713" lon="13.4730288"><ele>208.6</ele><time>2026-05-02T12:37:33.472Z</time></trkpt><trkpt lat="46.1796783" lon="13.4728942"><ele>210.0</ele><time>2026-05-02T12:37:35.471Z</time></trkpt><trkpt lat="46.1797608" lon="13.472837"><ele>210.0</ele><time>2026-05-02T12:37:37.471Z</time></trkpt><trkpt lat="46.1799192" lon="13.4728763"><ele>210.0</ele><time>2026-05-02T12:37:39.471Z</time></trkpt><trkpt lat="46.1799785" lon="13.4729367"><ele>210.0</ele><time>2026-05-02T12:37:40.471Z</time></trkpt><trkpt lat="46.1800138" lon="13.473032"><ele>210.0</ele><time>2026-05-02T12:37:41.471Z</time></trkpt><trkpt lat="46.1800385" lon="13.473154"><ele>210.0</ele><time>2026-05-02T12:37:42.47Z</time></trkpt><trkpt lat="46.1800805" lon="13.4732827"><ele>210.0</ele><time>2026-05-02T12:37:43.47Z</time></trkpt><trkpt lat="46.1801553" lon="13.473385"><ele>210.0</ele><time>2026-05-02T12:37:44.471Z</time></trkpt><trkpt lat="46.1802465" lon="13.473446"><ele>210.0</ele><time>2026-05-02T12:37:45.47Z</time></trkpt><trkpt lat="46.1803292" lon="13.4735028"><ele>210.0</ele><time>2026-05-02T12:37:46.469Z</time></trkpt><trkpt lat="46.1803823" lon="13.4735907"><ele>210.0</ele><time>2026-05-02T12:37:47.471Z</time></trkpt><trkpt lat="46.18042" lon="13.4737072"><ele>208.25</ele><time>2026-05-02T12:37:48.471Z</time></trkpt><trkpt lat="46.1804578" lon="13.4738508"><ele>206.5</ele><time>2026-05-02T12:37:49.472Z</time></trkpt><trkpt lat="46.1804827" lon="13.4740342"><ele>204.75</ele><time>2026-05-02T12:37:50.47Z</time></trkpt><trkpt lat="46.1805143" lon="13.4742272"><ele>203.0</ele><time>2026-05-02T12:37:51.469Z</time></trkpt><trkpt lat="46.1805488" lon="13.4744238"><ele>203.0</ele><time>2026-05-02T12:37:52.47Z</time></trkpt><trkpt lat="46.1805777" lon="13.4746017"><ele>203.0</ele><time>2026-05-02T12:37:53.468Z</time></trkpt><trkpt lat="46.1805927" lon="13.4747498"><ele>203.0</ele><time>2026-05-02T12:37:54.47Z</time></trkpt><trkpt lat="46.180611" lon="13.4748557"><ele>203.0</ele><time>2026-05-02T12:37:55.47Z</time></trkpt><trkpt lat="46.1807062" lon="13.4749307"><ele>203.0</ele><time>2026-05-02T12:37:57.471Z</time></trkpt><trkpt lat="46.1807737" lon="13.4748987"><ele>205.75</ele><time>2026-05-02T12:37:58.472Z</time></trkpt><trkpt lat="46.1809698" lon="13.4748095"><ele>208.5</ele><time>2026-05-02T12:38:00.472Z</time></trkpt><trkpt lat="46.1810812" lon="13.4747767"><ele>211.25</ele><time>2026-05-02T12:38:01.471Z</time></trkpt><trkpt lat="46.1811757" lon="13.4747515"><ele>214.0</ele><time>2026-05-02T12:38:02.471Z</time></trkpt><trkpt lat="46.1812435" lon="13.4747142"><ele>213.99999999999997</ele><time>2026-05-02T12:38:03.471Z</time></trkpt><trkpt lat="46.1812647" lon="13.4746037"><ele>214.0</ele><time>2026-05-02T12:38:05.471Z</time></trkpt><trkpt lat="46.1811943" lon="13.4745968"><ele>214.0</ele><time>2026-05-02T12:38:07.471Z</time></trkpt><trkpt lat="46.1811303" lon="13.4746343"><ele>214.0</ele><time>2026-05-02T12:38:08.468Z</time></trkpt><trkpt lat="46.181043" lon="13.4746592"><ele>213.99999999999997</ele><time>2026-05-02T12:38:09.47Z</time></trkpt><trkpt lat="46.1809502" lon="13.4746527"><ele>214.0</ele><time>2026-05-02T12:38:10.47Z</time></trkpt><trkpt lat="46.1808703" lon="13.4745932"><ele>220.5</ele><time>2026-05-02T12:38:11.468Z</time></trkpt><trkpt lat="46.1808078" lon="13.4744842"><ele>227.0</ele><time>2026-05-02T12:38:12.469Z</time></trkpt><trkpt lat="46.1807715" lon="13.4743352"><ele>233.5</ele><time>2026-05-02T12:38:13.469Z</time></trkpt><trkpt lat="46.1807552" lon="13.4741593"><ele>240.0</ele><time>2026-05-02T12:38:14.47Z</time></trkpt><trkpt lat="46.1807475" lon="13.4739708"><ele>240.0</ele><time>2026-05-02T12:38:15.471Z</time></trkpt><trkpt lat="46.1807565" lon="13.4737948"><ele>240.0</ele><time>2026-05-02T12:38:16.47Z</time></trkpt><trkpt lat="46.1807943" lon="13.473635"><ele>240.0</ele><time>2026-05-02T12:38:17.47Z</time></trkpt><trkpt lat="46.1808582" lon="13.4734925"><ele>240.0</ele><time>2026-05-02T12:38:18.47Z</time></trkpt><trkpt lat="46.1809188" lon="13.4733477"><ele>240.33333333333331</ele><time>2026-05-02T12:38:19.469Z</time></trkpt><trkpt lat="46.1809412" lon="13.4730088"><ele>240.66666666666666</ele><time>2026-05-02T12:38:21.47Z</time></trkpt><trkpt lat="46.180911" lon="13.4728252"><ele>241.0</ele><time>2026-05-02T12:38:22.47Z</time></trkpt><trkpt lat="46.1808657" lon="13.4726417"><ele>243.25</ele><time>2026-05-02T12:38:23.471Z</time></trkpt><trkpt lat="46.1808145" lon="13.4724632"><ele>245.5</ele><time>2026-05-02T12:38:24.47Z</time></trkpt><trkpt lat="46.1807743" lon="13.4722935"><ele>247.75</ele><time>2026-05-02T12:38:25.468Z</time></trkpt><trkpt lat="46.1807575" lon="13.4721277"><ele>250.0</ele><time>2026-05-02T12:38:26.469Z</time></trkpt><trkpt lat="46.1807747" lon="13.4719788"><ele>248.99999999999997</ele><time>2026-05-02T12:38:27.47Z</time></trkpt><trkpt lat="46.1808172" lon="13.4718237"><ele>248.0</ele><time>2026-05-02T12:38:28.67Z</time></trkpt><trkpt lat="46.180791" lon="13.4716717"><ele>247.0</ele><time>2026-05-02T12:38:30.47Z</time></trkpt><trkpt lat="46.1807338" lon="13.4716307"><ele>246.0</ele><time>2026-05-02T12:38:31.47Z</time></trkpt><trkpt lat="46.1806622" lon="13.4716073"><ele>244.99999999999997</ele><time>2026-05-02T12:38:32.47Z</time></trkpt><trkpt lat="46.1806045" lon="13.4715433"><ele>244.0</ele><time>2026-05-02T12:38:33.47Z</time></trkpt><trkpt lat="46.1805673" lon="13.4714222"><ele>244.0</ele><time>2026-05-02T12:38:34.47Z</time></trkpt><trkpt lat="46.1805278" lon="13.4712845"><ele>243.99999999999997</ele><time>2026-05-02T12:38:35.471Z</time></trkpt><trkpt lat="46.1804672" lon="13.4711817"><ele>243.99999999999997</ele><time>2026-05-02T12:38:36.47Z</time></trkpt><trkpt lat="46.1803853" lon="13.4711242"><ele>244.0</ele><time>2026-05-02T12:38:37.469Z</time></trkpt><trkpt lat="46.1802977" lon="13.4710953"><ele>244.0</ele><time>2026-05-02T12:38:38.47Z</time></trkpt><trkpt lat="46.1802285" lon="13.4710343"><ele>248.0</ele><time>2026-05-02T12:38:39.469Z</time></trkpt><trkpt lat="46.1801787" lon="13.470929"><ele>252.0</ele><time>2026-05-02T12:38:40.47Z</time></trkpt><trkpt lat="46.1801278" lon="13.470583"><ele>256.0</ele><time>2026-05-02T12:38:42.469Z</time></trkpt><trkpt lat="46.1801295" lon="13.4703573"><ele>261.0</ele><time>2026-05-02T12:38:43.669Z</time></trkpt><trkpt lat="46.1801175" lon="13.470053"><ele>266.0</ele><time>2026-05-02T12:38:45.468Z</time></trkpt><trkpt lat="46.1800747" lon="13.4698957"><ele>271.0</ele><time>2026-05-02T12:38:46.468Z</time></trkpt><trkpt lat="46.180049" lon="13.4697268"><ele>276.0</ele><time>2026-05-02T12:38:47.468Z</time></trkpt><trkpt lat="46.1800263" lon="13.4695763"><ele>277.0</ele><time>2026-05-02T12:38:48.469Z</time></trkpt><trkpt lat="46.1799818" lon="13.469469"><ele>278.0</ele><time>2026-05-02T12:38:49.469Z</time></trkpt><trkpt lat="46.1799162" lon="13.469433"><ele>279.0</ele><time>2026-05-02T12:38:50.47Z</time></trkpt><trkpt lat="46.1798505" lon="13.4694535"><ele>280.0</ele><time>2026-05-02T12:38:51.469Z</time></trkpt><trkpt lat="46.1797767" lon="13.4695153"><ele>281.0</ele><time>2026-05-02T12:38:52.468Z</time></trkpt><trkpt lat="46.1796973" lon="13.4695568"><ele>282.0</ele><time>2026-05-02T12:38:53.47Z</time></trkpt><trkpt lat="46.1796048" lon="13.4695597"><ele>282.0</ele><time>2026-05-02T12:38:54.47Z</time></trkpt><trkpt lat="46.179523" lon="13.46951"><ele>282.0</ele><time>2026-05-02T12:38:55.47Z</time></trkpt><trkpt lat="46.1794515" lon="13.4693997"><ele>282.0</ele><time>2026-05-02T12:38:56.471Z</time></trkpt><trkpt lat="46.1793923" lon="13.4692427"><ele>282.0</ele><time>2026-05-02T12:38:57.47Z</time></trkpt><trkpt lat="46.179351" lon="13.4690828"><ele>282.0</ele><time>2026-05-02T12:38:58.47Z</time></trkpt><trkpt lat="46.1793023" lon="13.4689407"><ele>282.0</ele><time>2026-05-02T12:38:59.471Z</time></trkpt><trkpt lat="46.1792302" lon="13.4688473"><ele>282.0</ele><time>2026-05-02T12:39:00.47Z</time></trkpt><trkpt lat="46.179138" lon="13.4688012"><ele>282.0</ele><time>2026-05-02T12:39:01.469Z</time></trkpt><trkpt lat="46.1789217" lon="13.468761"><ele>282.0</ele><time>2026-05-02T12:39:03.47Z</time></trkpt><trkpt lat="46.1788133" lon="13.4686828"><ele>283.75</ele><time>2026-05-02T12:39:04.47Z</time></trkpt><trkpt lat="46.178719" lon="13.4685747"><ele>285.5</ele><time>2026-05-02T12:39:05.472Z</time></trkpt><trkpt lat="46.1786365" lon="13.4684333"><ele>287.25</ele><time>2026-05-02T12:39:06.469Z</time></trkpt><trkpt lat="46.1785495" lon="13.4683033"><ele>289.0</ele><time>2026-05-02T12:39:07.467Z</time></trkpt><trkpt lat="46.1784703" lon="13.4681865"><ele>289.0</ele><time>2026-05-02T12:39:08.468Z</time></trkpt><trkpt lat="46.1784227" lon="13.4680658"><ele>289.0</ele><time>2026-05-02T12:39:09.469Z</time></trkpt><trkpt lat="46.1784177" lon="13.4679294"><ele>289.0</ele><time>2026-05-02T12:39:10.469Z</time></trkpt><trkpt lat="46.1784444" lon="13.4677733"><ele>289.0</ele><time>2026-05-02T12:39:11.47Z</time></trkpt><trkpt lat="46.1785106" lon="13.4675684"><ele>290.75</ele><time>2026-05-02T12:39:12.671Z</time></trkpt><trkpt lat="46.1786032" lon="13.467299"><ele>292.5</ele><time>2026-05-02T12:39:14.47Z</time></trkpt><trkpt lat="46.1786073" lon="13.4671907"><ele>294.25</ele><time>2026-05-02T12:39:15.47Z</time></trkpt><trkpt lat="46.1785666" lon="13.4670876"><ele>296.0</ele><time>2026-05-02T12:39:16.47Z</time></trkpt><trkpt lat="46.1784807" lon="13.4669941"><ele>299.6</ele><time>2026-05-02T12:39:17.47Z</time></trkpt><trkpt lat="46.1783666" lon="13.4669058"><ele>303.20000000000005</ele><time>2026-05-02T12:39:18.471Z</time></trkpt><trkpt lat="46.1782437" lon="13.4668356"><ele>306.79999999999995</ele><time>2026-05-02T12:39:19.47Z</time></trkpt><trkpt lat="46.1781399" lon="13.4667977"><ele>310.4</ele><time>2026-05-02T12:39:20.469Z</time></trkpt><trkpt lat="46.1780756" lon="13.4667496"><ele>314.0</ele><time>2026-05-02T12:39:21.47Z</time></trkpt><trkpt lat="46.1780874" lon="13.4666279"><ele>314.5</ele><time>2026-05-02T12:39:23.468Z</time></trkpt><trkpt lat="46.1783282" lon="13.4666584"><ele>315.0</ele><time>2026-05-02T12:39:26.469Z</time></trkpt><trkpt lat="46.1784282" lon="13.4667296"><ele>315.5</ele><time>2026-05-02T12:39:27.469Z</time></trkpt><trkpt lat="46.1785019" lon="13.466766"><ele>316.0</ele><time>2026-05-02T12:39:28.468Z</time></trkpt><trkpt lat="46.1785685" lon="13.4666818"><ele>316.0</ele><time>2026-05-02T12:39:30.47Z</time></trkpt><trkpt lat="46.1785055" lon="13.4665345"><ele>316.0</ele><time>2026-05-02T12:39:32.467Z</time></trkpt><trkpt lat="46.1784194" lon="13.4664461"><ele>316.0</ele><time>2026-05-02T12:39:33.468Z</time></trkpt><trkpt lat="46.1783159" lon="13.4663195"><ele>316.0</ele><time>2026-05-02T12:39:34.467Z</time></trkpt><trkpt lat="46.1782111" lon="13.4661948"><ele>319.8</ele><time>2026-05-02T12:39:35.469Z</time></trkpt><trkpt lat="46.1781225" lon="13.4660851"><ele>323.6</ele><time>2026-05-02T12:39:36.47Z</time></trkpt><trkpt lat="46.1780603" lon="13.4659765"><ele>327.4</ele><time>2026-05-02T12:39:37.47Z</time></trkpt><trkpt lat="46.1780277" lon="13.4658534"><ele>331.2</ele><time>2026-05-02T12:39:38.469Z</time></trkpt><trkpt lat="46.1780332" lon="13.4657066"><ele>335.0</ele><time>2026-05-02T12:39:39.471Z</time></trkpt><trkpt lat="46.1780725" lon="13.4655455"><ele>337.25</ele><time>2026-05-02T12:39:40.47Z</time></trkpt><trkpt lat="46.178118" lon="13.4653706"><ele>339.5</ele><time>2026-05-02T12:39:41.471Z</time></trkpt><trkpt lat="46.1781363" lon="13.465174"><ele>341.75</ele><time>2026-05-02T12:39:42.469Z</time></trkpt><trkpt lat="46.1781163" lon="13.4649683"><ele>344.0</ele><time>2026-05-02T12:39:43.47Z</time></trkpt><trkpt lat="46.1780899" lon="13.4647755"><ele>342.75</ele><time>2026-05-02T12:39:44.469Z</time></trkpt><trkpt lat="46.1780877" lon="13.4644909"><ele>341.5</ele><time>2026-05-02T12:39:46.47Z</time></trkpt><trkpt lat="46.1781254" lon="13.4644075"><ele>340.25</ele><time>2026-05-02T12:39:47.471Z</time></trkpt><trkpt lat="46.1781855" lon="13.4643749"><ele>339.0</ele><time>2026-05-02T12:39:48.47Z</time></trkpt><trkpt lat="46.1782931" lon="13.464485"><ele>339.5</ele><time>2026-05-02T12:39:50.469Z</time></trkpt><trkpt lat="46.178334" lon="13.464621"><ele>340.0</ele><time>2026-05-02T12:39:51.471Z</time></trkpt><trkpt lat="46.1783798" lon="13.4647741"><ele>340.5</ele><time>2026-05-02T12:39:52.47Z</time></trkpt><trkpt lat="46.1784304" lon="13.4649421"><ele>341.0</ele><time>2026-05-02T12:39:53.47Z</time></trkpt><trkpt lat="46.1785064" lon="13.4651058"><ele>341.0</ele><time>2026-05-02T12:39:54.47Z</time></trkpt><trkpt lat="46.1786073" lon="13.4652524"><ele>341.0</ele><time>2026-05-02T12:39:55.469Z</time></trkpt><trkpt lat="46.1787225" lon="13.465391"><ele>341.0</ele><time>2026-05-02T12:39:56.469Z</time></trkpt><trkpt lat="46.1788363" lon="13.4655185"><ele>341.0</ele><time>2026-05-02T12:39:57.469Z</time></trkpt><trkpt lat="46.1789479" lon="13.4656104"><ele>344.25</ele><time>2026-05-02T12:39:58.469Z</time></trkpt><trkpt lat="46.1790588" lon="13.4656486"><ele>347.5</ele><time>2026-05-02T12:39:59.471Z</time></trkpt><trkpt lat="46.1791599" lon="13.4656721"><ele>350.75</ele><time>2026-05-02T12:40:00.471Z</time></trkpt><trkpt lat="46.1793196" lon="13.4658489"><ele>354.0</ele><time>2026-05-02T12:40:02.471Z</time></trkpt><trkpt lat="46.1794079" lon="13.4660059"><ele>354.0</ele><time>2026-05-02T12:40:03.471Z</time></trkpt><trkpt lat="46.1795028" lon="13.4661683"><ele>354.0</ele><time>2026-05-02T12:40:04.471Z</time></trkpt><trkpt lat="46.1795854" lon="13.4662942"><ele>354.0</ele><time>2026-05-02T12:40:05.472Z</time></trkpt><trkpt lat="46.1797369" lon="13.4663012"><ele>354.0</ele><time>2026-05-02T12:40:08.47Z</time></trkpt><trkpt lat="46.1796945" lon="13.4661226"><ele>354.0</ele><time>2026-05-02T12:40:10.472Z</time></trkpt><trkpt lat="46.1796332" lon="13.465993"><ele>354.0</ele><time>2026-05-02T12:40:11.471Z</time></trkpt><trkpt lat="46.1795725" lon="13.4658097"><ele>354.0</ele><time>2026-05-02T12:40:12.471Z</time></trkpt><trkpt lat="46.1795169" lon="13.4655768"><ele>354.0</ele><time>2026-05-02T12:40:13.471Z</time></trkpt><trkpt lat="46.1794698" lon="13.4653097"><ele>359.0</ele><time>2026-05-02T12:40:14.47Z</time></trkpt><trkpt lat="46.1794296" lon="13.4650479"><ele>364.0</ele><time>2026-05-02T12:40:15.472Z</time></trkpt><trkpt lat="46.1793909" lon="13.4648043"><ele>369.0</ele><time>2026-05-02T12:40:16.47Z</time></trkpt><trkpt lat="46.1793267" lon="13.4645868"><ele>371.5</ele><time>2026-05-02T12:40:17.47Z</time></trkpt><trkpt lat="46.1792545" lon="13.4643946"><ele>374.0</ele><time>2026-05-02T12:40:18.471Z</time></trkpt><trkpt lat="46.1791982" lon="13.4642262"><ele>376.5</ele><time>2026-05-02T12:40:19.469Z</time></trkpt><trkpt lat="46.1791691" lon="13.4640561"><ele>379.0</ele><time>2026-05-02T12:40:20.467Z</time></trkpt><trkpt lat="46.1791656" lon="13.4638707"><ele>380.66666666666663</ele><time>2026-05-02T12:40:21.467Z</time></trkpt><trkpt lat="46.1791777" lon="13.4636635"><ele>382.3333333333333</ele><time>2026-05-02T12:40:22.468Z</time></trkpt><trkpt lat="46.1791911" lon="13.4634313"><ele>384.0</ele><time>2026-05-02T12:40:23.468Z</time></trkpt><trkpt lat="46.179176" lon="13.4631829"><ele>387.0</ele><time>2026-05-02T12:40:24.47Z</time></trkpt><trkpt lat="46.179142" lon="13.462939"><ele>390.0</ele><time>2026-05-02T12:40:25.47Z</time></trkpt><trkpt lat="46.179096" lon="13.4627387"><ele>393.0</ele><time>2026-05-02T12:40:26.47Z</time></trkpt><trkpt lat="46.1790595" lon="13.4624156"><ele>393.0</ele><time>2026-05-02T12:40:28.468Z</time></trkpt><trkpt lat="46.1790824" lon="13.4622478"><ele>393.0</ele><time>2026-05-02T12:40:29.469Z</time></trkpt><trkpt lat="46.1791164" lon="13.4620688"><ele>393.0</ele><time>2026-05-02T12:40:30.47Z</time></trkpt><trkpt lat="46.179147" lon="13.4618811"><ele>393.0</ele><time>2026-05-02T12:40:31.47Z</time></trkpt><trkpt lat="46.1791543" lon="13.4616943"><ele>392.75</ele><time>2026-05-02T12:40:32.47Z</time></trkpt><trkpt lat="46.1791262" lon="13.4615107"><ele>392.5</ele><time>2026-05-02T12:40:33.47Z</time></trkpt><trkpt lat="46.1790728" lon="13.4613263"><ele>392.25</ele><time>2026-05-02T12:40:34.468Z</time></trkpt><trkpt lat="46.1790137" lon="13.4611426"><ele>392.0</ele><time>2026-05-02T12:40:35.468Z</time></trkpt><trkpt lat="46.1789732" lon="13.4609577"><ele>392.0</ele><time>2026-05-02T12:40:36.469Z</time></trkpt><trkpt lat="46.17894" lon="13.4607789"><ele>392.0</ele><time>2026-05-02T12:40:37.468Z</time></trkpt><trkpt lat="46.1788888" lon="13.4606225"><ele>392.0</ele><time>2026-05-02T12:40:38.47Z</time></trkpt><trkpt lat="46.1788077" lon="13.4604839"><ele>392.0</ele><time>2026-05-02T12:40:39.471Z</time></trkpt><trkpt lat="46.1787044" lon="13.46036"><ele>394.5</ele><time>2026-05-02T12:40:40.47Z</time></trkpt><trkpt lat="46.1786039" lon="13.4602245"><ele>397.0</ele><time>2026-05-02T12:40:41.47Z</time></trkpt><trkpt lat="46.1785222" lon="13.46007"><ele>399.5</ele><time>2026-05-02T12:40:42.47Z</time></trkpt><trkpt lat="46.1784625" lon="13.4598991"><ele>402.0</ele><time>2026-05-02T12:40:43.471Z</time></trkpt><trkpt lat="46.1784167" lon="13.4597325"><ele>405.5</ele><time>2026-05-02T12:40:44.47Z</time></trkpt><trkpt lat="46.1783812" lon="13.4595733"><ele>409.0</ele><time>2026-05-02T12:40:45.469Z</time></trkpt><trkpt lat="46.1783518" lon="13.4594341"><ele>412.5</ele><time>2026-05-02T12:40:46.47Z</time></trkpt><trkpt lat="46.1783404" lon="13.4593171"><ele>416.0</ele><time>2026-05-02T12:40:47.471Z</time></trkpt><trkpt lat="46.1785014" lon="13.4593043"><ele>416.0</ele><time>2026-05-02T12:40:51.47Z</time></trkpt><trkpt lat="46.1785459" lon="13.4594104"><ele>416.0</ele><time>2026-05-02T12:40:52.469Z</time></trkpt><trkpt lat="46.1785895" lon="13.4595531"><ele>416.0</ele><time>2026-05-02T12:40:53.469Z</time></trkpt><trkpt lat="46.1786538" lon="13.4596801"><ele>416.0</ele><time>2026-05-02T12:40:54.47Z</time></trkpt><trkpt lat="46.1787518" lon="13.4597825"><ele>416.0</ele><time>2026-05-02T12:40:55.468Z</time></trkpt><trkpt lat="46.1788572" lon="13.4598604"><ele>418.20000000000005</ele><time>2026-05-02T12:40:56.47Z</time></trkpt><trkpt lat="46.1789743" lon="13.4599129"><ele>420.40000000000003</ele><time>2026-05-02T12:40:57.469Z</time></trkpt><trkpt lat="46.1790843" lon="13.4599594"><ele>422.6</ele><time>2026-05-02T12:40:58.469Z</time></trkpt><trkpt lat="46.1791712" lon="13.4600132"><ele>424.8</ele><time>2026-05-02T12:40:59.471Z</time></trkpt><trkpt lat="46.1792334" lon="13.4600442"><ele>427.0</ele><time>2026-05-02T12:41:00.471Z</time></trkpt><trkpt lat="46.1793092" lon="13.4599991"><ele>427.0</ele><time>2026-05-02T12:41:02.469Z</time></trkpt><trkpt lat="46.1792688" lon="13.4598681"><ele>427.00000000000006</ele><time>2026-05-02T12:41:04.469Z</time></trkpt><trkpt lat="46.1792028" lon="13.4597837"><ele>427.00000000000006</ele><time>2026-05-02T12:41:05.47Z</time></trkpt><trkpt lat="46.1791455" lon="13.459636"><ele>427.0</ele><time>2026-05-02T12:41:06.47Z</time></trkpt><trkpt lat="46.1790929" lon="13.4594457"><ele>427.0</ele><time>2026-05-02T12:41:07.468Z</time></trkpt><trkpt lat="46.1790376" lon="13.4592468"><ele>430.0</ele><time>2026-05-02T12:41:08.468Z</time></trkpt><trkpt lat="46.178933" lon="13.4588879"><ele>433.0</ele><time>2026-05-02T12:41:10.468Z</time></trkpt><trkpt lat="46.1788704" lon="13.4587636"><ele>436.0</ele><time>2026-05-02T12:41:11.468Z</time></trkpt><trkpt lat="46.1787846" lon="13.4586764"><ele>436.0</ele><time>2026-05-02T12:41:12.467Z</time></trkpt><trkpt lat="46.1786789" lon="13.4586146"><ele>436.0</ele><time>2026-05-02T12:41:13.469Z</time></trkpt><trkpt lat="46.1785731" lon="13.4585685"><ele>436.0</ele><time>2026-05-02T12:41:14.469Z</time></trkpt><trkpt lat="46.1784958" lon="13.4585233"><ele>436.0</ele><time>2026-05-02T12:41:15.469Z</time></trkpt><trkpt lat="46.1784805" lon="13.4584264"><ele>436.0</ele><time>2026-05-02T12:41:17.469Z</time></trkpt><trkpt lat="46.1785917" lon="13.458416"><ele>436.0</ele><time>2026-05-02T12:41:19.469Z</time></trkpt><trkpt lat="46.1786629" lon="13.4584573"><ele>436.0</ele><time>2026-05-02T12:41:20.469Z</time></trkpt><trkpt lat="46.1787522" lon="13.458507"><ele>436.0</ele><time>2026-05-02T12:41:21.469Z</time></trkpt><trkpt lat="46.1788523" lon="13.4585883"><ele>436.0</ele><time>2026-05-02T12:41:22.469Z</time></trkpt><trkpt lat="46.1789661" lon="13.4587031"><ele>436.0</ele><time>2026-05-02T12:41:23.469Z</time></trkpt><trkpt lat="46.1791185" lon="13.4588817"><ele>439.0</ele><time>2026-05-02T12:41:24.667Z</time></trkpt><trkpt lat="46.1793698" lon="13.4591639"><ele>442.0</ele><time>2026-05-02T12:41:26.468Z</time></trkpt><trkpt lat="46.1794952" lon="13.4593258"><ele>442.0</ele><time>2026-05-02T12:41:27.468Z</time></trkpt><trkpt lat="46.1795966" lon="13.4594954"><ele>442.0</ele><time>2026-05-02T12:41:28.469Z</time></trkpt><trkpt lat="46.1796716" lon="13.459669"><ele>442.0</ele><time>2026-05-02T12:41:29.469Z</time></trkpt><trkpt lat="46.1797846" lon="13.4599565"><ele>445.75</ele><time>2026-05-02T12:41:31.469Z</time></trkpt><trkpt lat="46.1798717" lon="13.4600527"><ele>449.5</ele><time>2026-05-02T12:41:32.468Z</time></trkpt><trkpt lat="46.1799771" lon="13.4601403"><ele>453.25</ele><time>2026-05-02T12:41:33.471Z</time></trkpt><trkpt lat="46.1800997" lon="13.4601896"><ele>457.0</ele><time>2026-05-02T12:41:34.466Z</time></trkpt><trkpt lat="46.1802183" lon="13.4602382"><ele>457.0</ele><time>2026-05-02T12:41:35.467Z</time></trkpt><trkpt lat="46.1803232" lon="13.4603476"><ele>457.0</ele><time>2026-05-02T12:41:36.468Z</time></trkpt><trkpt lat="46.1804253" lon="13.4604905"><ele>457.0</ele><time>2026-05-02T12:41:37.47Z</time></trkpt><trkpt lat="46.1805195" lon="13.4606325"><ele>457.0</ele><time>2026-05-02T12:41:38.471Z</time></trkpt><trkpt lat="46.1806029" lon="13.4607744"><ele>459.8</ele><time>2026-05-02T12:41:39.475Z</time></trkpt><trkpt lat="46.1806749" lon="13.4609063"><ele>462.6</ele><time>2026-05-02T12:41:40.47Z</time></trkpt><trkpt lat="46.1807476" lon="13.4610183"><ele>465.40000000000003</ele><time>2026-05-02T12:41:41.471Z</time></trkpt><trkpt lat="46.1808346" lon="13.4611095"><ele>468.20000000000005</ele><time>2026-05-02T12:41:42.47Z</time></trkpt><trkpt lat="46.1809275" lon="13.4611815"><ele>471.0</ele><time>2026-05-02T12:41:43.469Z</time></trkpt><trkpt lat="46.1810102" lon="13.461223"><ele>471.0</ele><time>2026-05-02T12:41:44.47Z</time></trkpt><trkpt lat="46.1810926" lon="13.4612298"><ele>471.0</ele><time>2026-05-02T12:41:45.471Z</time></trkpt><trkpt lat="46.1811815" lon="13.461212"><ele>471.0</ele><time>2026-05-02T12:41:46.471Z</time></trkpt><trkpt lat="46.1812783" lon="13.4611782"><ele>471.0</ele><time>2026-05-02T12:41:47.47Z</time></trkpt><trkpt lat="46.1813834" lon="13.4611514"><ele>471.0</ele><time>2026-05-02T12:41:48.47Z</time></trkpt><trkpt lat="46.1814961" lon="13.4611507"><ele>471.0</ele><time>2026-05-02T12:41:49.47Z</time></trkpt><trkpt lat="46.181611" lon="13.4611724"><ele>471.0</ele><time>2026-05-02T12:41:50.469Z</time></trkpt><trkpt lat="46.1818382" lon="13.4612824"><ele>471.0</ele><time>2026-05-02T12:41:52.47Z</time></trkpt><trkpt lat="46.1819385" lon="13.4613876"><ele>471.0</ele><time>2026-05-02T12:41:53.472Z</time></trkpt><trkpt lat="46.1820279" lon="13.4615251"><ele>471.0</ele><time>2026-05-02T12:41:54.471Z</time></trkpt><trkpt lat="46.1821081" lon="13.4616888"><ele>471.0</ele><time>2026-05-02T12:41:55.471Z</time></trkpt><trkpt lat="46.1821729" lon="13.4618683"><ele>471.0</ele><time>2026-05-02T12:41:56.472Z</time></trkpt><trkpt lat="46.1822147" lon="13.4620431"><ele>468.8</ele><time>2026-05-02T12:41:57.471Z</time></trkpt><trkpt lat="46.1822354" lon="13.4622086"><ele>466.6</ele><time>2026-05-02T12:41:58.47Z</time></trkpt><trkpt lat="46.1822329" lon="13.4623614"><ele>464.4</ele><time>2026-05-02T12:41:59.469Z</time></trkpt><trkpt lat="46.1822211" lon="13.4625107"><ele>462.2</ele><time>2026-05-02T12:42:00.469Z</time></trkpt><trkpt lat="46.182206" lon="13.4626545"><ele>460.0</ele><time>2026-05-02T12:42:01.468Z</time></trkpt><trkpt lat="46.1822425" lon="13.4627767"><ele>460.00000000000006</ele><time>2026-05-02T12:42:02.471Z</time></trkpt><trkpt lat="46.1822982" lon="13.4628585"><ele>460.0</ele><time>2026-05-02T12:42:03.471Z</time></trkpt><trkpt lat="46.1823595" lon="13.4628828"><ele>460.0</ele><time>2026-05-02T12:42:04.47Z</time></trkpt><trkpt lat="46.182423" lon="13.462779"><ele>460.0</ele><time>2026-05-02T12:42:06.47Z</time></trkpt><trkpt lat="46.1824082" lon="13.4626838"><ele>460.00000000000006</ele><time>2026-05-02T12:42:07.472Z</time></trkpt><trkpt lat="46.1823817" lon="13.4625647"><ele>460.0</ele><time>2026-05-02T12:42:08.471Z</time></trkpt><trkpt lat="46.1823657" lon="13.4624158"><ele>470.6666666666667</ele><time>2026-05-02T12:42:09.471Z</time></trkpt><trkpt lat="46.1823645" lon="13.462247"><ele>481.33333333333337</ele><time>2026-05-02T12:42:10.471Z</time></trkpt><trkpt lat="46.1823758" lon="13.4620667"><ele>492.0</ele><time>2026-05-02T12:42:11.471Z</time></trkpt><trkpt lat="46.1824248" lon="13.4617563"><ele>491.8</ele><time>2026-05-02T12:42:13.471Z</time></trkpt><trkpt lat="46.1824393" lon="13.4616238"><ele>491.6</ele><time>2026-05-02T12:42:14.471Z</time></trkpt><trkpt lat="46.1824263" lon="13.4615015"><ele>491.40000000000003</ele><time>2026-05-02T12:42:15.47Z</time></trkpt><trkpt lat="46.1823817" lon="13.461377"><ele>491.20000000000005</ele><time>2026-05-02T12:42:16.47Z</time></trkpt><trkpt lat="46.1823235" lon="13.4612367"><ele>491.0</ele><time>2026-05-02T12:42:17.469Z</time></trkpt><trkpt lat="46.182259" lon="13.4610703"><ele>491.0</ele><time>2026-05-02T12:42:18.47Z</time></trkpt><trkpt lat="46.182179" lon="13.460898"><ele>491.0</ele><time>2026-05-02T12:42:19.468Z</time></trkpt><trkpt lat="46.1820752" lon="13.4607317"><ele>491.0</ele><time>2026-05-02T12:42:20.469Z</time></trkpt><trkpt lat="46.1819507" lon="13.460578"><ele>489.25</ele><time>2026-05-02T12:42:21.47Z</time></trkpt><trkpt lat="46.1818197" lon="13.460443"><ele>487.5</ele><time>2026-05-02T12:42:22.468Z</time></trkpt><trkpt lat="46.1816922" lon="13.4603422"><ele>485.75</ele><time>2026-05-02T12:42:23.468Z</time></trkpt><trkpt lat="46.1815762" lon="13.4602532"><ele>484.0</ele><time>2026-05-02T12:42:24.469Z</time></trkpt><trkpt lat="46.181486" lon="13.4601472"><ele>484.0</ele><time>2026-05-02T12:42:25.471Z</time></trkpt><trkpt lat="46.1814283" lon="13.4600195"><ele>484.0</ele><time>2026-05-02T12:42:26.469Z</time></trkpt><trkpt lat="46.1814003" lon="13.4598693"><ele>484.0</ele><time>2026-05-02T12:42:27.47Z</time></trkpt><trkpt lat="46.181384" lon="13.459702"><ele>484.0</ele><time>2026-05-02T12:42:28.47Z</time></trkpt><trkpt lat="46.1813502" lon="13.4595337"><ele>487.0</ele><time>2026-05-02T12:42:29.469Z</time></trkpt><trkpt lat="46.1812872" lon="13.4593742"><ele>490.0</ele><time>2026-05-02T12:42:30.469Z</time></trkpt><trkpt lat="46.1811962" lon="13.4592253"><ele>493.0</ele><time>2026-05-02T12:42:31.469Z</time></trkpt><trkpt lat="46.1811085" lon="13.45908"><ele>496.0</ele><time>2026-05-02T12:42:32.469Z</time></trkpt><trkpt lat="46.1810005" lon="13.4587617"><ele>498.75</ele><time>2026-05-02T12:42:34.469Z</time></trkpt><trkpt lat="46.1809743" lon="13.4585798"><ele>501.5</ele><time>2026-05-02T12:42:35.47Z</time></trkpt><trkpt lat="46.180941" lon="13.4583843"><ele>504.25</ele><time>2026-05-02T12:42:36.471Z</time></trkpt><trkpt lat="46.1809013" lon="13.4581965"><ele>507.0</ele><time>2026-05-02T12:42:37.468Z</time></trkpt><trkpt lat="46.1808438" lon="13.4580217"><ele>506.5</ele><time>2026-05-02T12:42:38.47Z</time></trkpt><trkpt lat="46.180762" lon="13.4578832"><ele>506.0</ele><time>2026-05-02T12:42:39.469Z</time></trkpt><trkpt lat="46.1806647" lon="13.4577535"><ele>505.5</ele><time>2026-05-02T12:42:40.469Z</time></trkpt><trkpt lat="46.1805692" lon="13.4576192"><ele>505.0</ele><time>2026-05-02T12:42:41.469Z</time></trkpt><trkpt lat="46.1804847" lon="13.4574685"><ele>505.0</ele><time>2026-05-02T12:42:42.47Z</time></trkpt><trkpt lat="46.1804138" lon="13.457293"><ele>505.0</ele><time>2026-05-02T12:42:43.469Z</time></trkpt><trkpt lat="46.180341" lon="13.4571095"><ele>505.0</ele><time>2026-05-02T12:42:44.47Z</time></trkpt><trkpt lat="46.1802552" lon="13.456923"><ele>505.0</ele><time>2026-05-02T12:42:45.47Z</time></trkpt><trkpt lat="46.18017" lon="13.4567555"><ele>509.75</ele><time>2026-05-02T12:42:46.469Z</time></trkpt><trkpt lat="46.1800967" lon="13.4566073"><ele>514.5</ele><time>2026-05-02T12:42:47.469Z</time></trkpt><trkpt lat="46.1800413" lon="13.4564538"><ele>519.25</ele><time>2026-05-02T12:42:48.469Z</time></trkpt><trkpt lat="46.1800033" lon="13.456283"><ele>524.0</ele><time>2026-05-02T12:42:49.47Z</time></trkpt><trkpt lat="46.1799717" lon="13.4560972"><ele>527.75</ele><time>2026-05-02T12:42:50.469Z</time></trkpt><trkpt lat="46.1799437" lon="13.4559312"><ele>531.5</ele><time>2026-05-02T12:42:51.473Z</time></trkpt><trkpt lat="46.1799358" lon="13.4557902"><ele>535.25</ele><time>2026-05-02T12:42:52.471Z</time></trkpt><trkpt lat="46.1799573" lon="13.4556678"><ele>539.0</ele><time>2026-05-02T12:42:53.472Z</time></trkpt><trkpt lat="46.1800272" lon="13.4554713"><ele>540.1428571428571</ele><time>2026-05-02T12:42:55.471Z</time></trkpt><trkpt lat="46.180022" lon="13.4553675"><ele>541.2857142857142</ele><time>2026-05-02T12:42:56.471Z</time></trkpt><trkpt lat="46.1799847" lon="13.4552755"><ele>542.4285714285714</ele><time>2026-05-02T12:42:57.47Z</time></trkpt><trkpt lat="46.179933" lon="13.4552095"><ele>543.5714285714286</ele><time>2026-05-02T12:42:58.47Z</time></trkpt><trkpt lat="46.1798708" lon="13.4551727"><ele>544.7142857142857</ele><time>2026-05-02T12:42:59.47Z</time></trkpt><trkpt lat="46.1797992" lon="13.455154"><ele>545.8571428571429</ele><time>2026-05-02T12:43:00.471Z</time></trkpt><trkpt lat="46.1797207" lon="13.4551513"><ele>547.0</ele><time>2026-05-02T12:43:01.47Z</time></trkpt><trkpt lat="46.1796442" lon="13.4551482"><ele>544.0</ele><time>2026-05-02T12:43:02.471Z</time></trkpt><trkpt lat="46.1795787" lon="13.4551245"><ele>541.0</ele><time>2026-05-02T12:43:03.471Z</time></trkpt><trkpt lat="46.1795028" lon="13.4550067"><ele>538.0</ele><time>2026-05-02T12:43:05.471Z</time></trkpt><trkpt lat="46.1794827" lon="13.4549165"><ele>535.0</ele><time>2026-05-02T12:43:06.47Z</time></trkpt><trkpt lat="46.1794753" lon="13.4548"><ele>532.0</ele><time>2026-05-02T12:43:07.47Z</time></trkpt><trkpt lat="46.1794713" lon="13.4546717"><ele>529.0</ele><time>2026-05-02T12:43:08.471Z</time></trkpt><trkpt lat="46.1794673" lon="13.4545443"><ele>529.0</ele><time>2026-05-02T12:43:09.47Z</time></trkpt><trkpt lat="46.1794658" lon="13.4544168"><ele>529.0</ele><time>2026-05-02T12:43:10.47Z</time></trkpt><trkpt lat="46.1794675" lon="13.4542888"><ele>529.0</ele><time>2026-05-02T12:43:11.47Z</time></trkpt><trkpt lat="46.1794677" lon="13.4541593"><ele>529.0</ele><time>2026-05-02T12:43:12.47Z</time></trkpt><trkpt lat="46.1794703" lon="13.4540282"><ele>529.0</ele><time>2026-05-02T12:43:13.469Z</time></trkpt><trkpt lat="46.1794522" lon="13.4538653"><ele>534.0</ele><time>2026-05-02T12:43:14.671Z</time></trkpt><trkpt lat="46.1792827" lon="13.453478"><ele>539.0</ele><time>2026-05-02T12:43:17.47Z</time></trkpt><trkpt lat="46.179209" lon="13.453329"><ele>544.0</ele><time>2026-05-02T12:43:18.47Z</time></trkpt><trkpt lat="46.1791482" lon="13.4531657"><ele>544.0</ele><time>2026-05-02T12:43:19.47Z</time></trkpt><trkpt lat="46.1791098" lon="13.4529878"><ele>544.0</ele><time>2026-05-02T12:43:20.47Z</time></trkpt><trkpt lat="46.1790932" lon="13.4528003"><ele>544.0</ele><time>2026-05-02T12:43:21.471Z</time></trkpt><trkpt lat="46.179078" lon="13.4526067"><ele>544.0</ele><time>2026-05-02T12:43:22.471Z</time></trkpt><trkpt lat="46.179045" lon="13.4524183"><ele>541.2</ele><time>2026-05-02T12:43:23.47Z</time></trkpt><trkpt lat="46.178997" lon="13.4522673"><ele>538.4</ele><time>2026-05-02T12:43:24.472Z</time></trkpt><trkpt lat="46.1789487" lon="13.4521583"><ele>535.6</ele><time>2026-05-02T12:43:25.471Z</time></trkpt><trkpt lat="46.1789273" lon="13.4520705"><ele>532.8</ele><time>2026-05-02T12:43:26.472Z</time></trkpt><trkpt lat="46.1789823" lon="13.4519935"><ele>530.0</ele><time>2026-05-02T12:43:28.47Z</time></trkpt><trkpt lat="46.1790742" lon="13.4521075"><ele>537.25</ele><time>2026-05-02T12:43:30.471Z</time></trkpt><trkpt lat="46.179125" lon="13.4522407"><ele>544.5</ele><time>2026-05-02T12:43:31.469Z</time></trkpt><trkpt lat="46.1791965" lon="13.4524217"><ele>551.75</ele><time>2026-05-02T12:43:32.469Z</time></trkpt><trkpt lat="46.179301" lon="13.4526502"><ele>559.0</ele><time>2026-05-02T12:43:33.47Z</time></trkpt><trkpt lat="46.1794197" lon="13.4528953"><ele>551.5</ele><time>2026-05-02T12:43:34.469Z</time></trkpt><trkpt lat="46.1795303" lon="13.45312"><ele>544.0</ele><time>2026-05-02T12:43:35.469Z</time></trkpt><trkpt lat="46.1797458" lon="13.4534947"><ele>544.0</ele><time>2026-05-02T12:43:37.467Z</time></trkpt><trkpt lat="46.1798497" lon="13.4536323"><ele>544.0</ele><time>2026-05-02T12:43:38.468Z</time></trkpt><trkpt lat="46.1799302" lon="13.4537652"><ele>544.0</ele><time>2026-05-02T12:43:39.469Z</time></trkpt><trkpt lat="46.1799783" lon="13.4538965"><ele>544.0</ele><time>2026-05-02T12:43:40.471Z</time></trkpt><trkpt lat="46.1800013" lon="13.4540117"><ele>544.0</ele><time>2026-05-02T12:43:41.471Z</time></trkpt><trkpt lat="46.1800293" lon="13.454099"><ele>546.2</ele><time>2026-05-02T12:43:42.471Z</time></trkpt><trkpt lat="46.1801197" lon="13.4541315"><ele>548.4</ele><time>2026-05-02T12:43:44.471Z</time></trkpt><trkpt lat="46.180137" lon="13.4539905"><ele>550.6</ele><time>2026-05-02T12:43:46.471Z</time></trkpt><trkpt lat="46.1801017" lon="13.4538755"><ele>552.8</ele><time>2026-05-02T12:43:47.469Z</time></trkpt><trkpt lat="46.1800557" lon="13.4537193"><ele>555.0</ele><time>2026-05-02T12:43:48.47Z</time></trkpt><trkpt lat="46.180001" lon="13.4535237"><ele>556.3333333333334</ele><time>2026-05-02T12:43:49.469Z</time></trkpt><trkpt lat="46.1799322" lon="13.4533017"><ele>557.6666666666667</ele><time>2026-05-02T12:43:50.469Z</time></trkpt><trkpt lat="46.1798553" lon="13.453084"><ele>559.0</ele><time>2026-05-02T12:43:51.471Z</time></trkpt><trkpt lat="46.179785" lon="13.4528872"><ele>559.0</ele><time>2026-05-02T12:43:52.469Z</time></trkpt><trkpt lat="46.179726" lon="13.4527"><ele>559.0</ele><time>2026-05-02T12:43:53.469Z</time></trkpt><trkpt lat="46.1796823" lon="13.4525095"><ele>559.0</ele><time>2026-05-02T12:43:54.469Z</time></trkpt><trkpt lat="46.1796658" lon="13.4523165"><ele>559.0</ele><time>2026-05-02T12:43:55.469Z</time></trkpt><trkpt lat="46.1796723" lon="13.4521257"><ele>560.6</ele><time>2026-05-02T12:43:56.469Z</time></trkpt><trkpt lat="46.1797227" lon="13.4518172"><ele>562.2</ele><time>2026-05-02T12:43:58.469Z</time></trkpt><trkpt lat="46.1797497" lon="13.4517102"><ele>563.8000000000001</ele><time>2026-05-02T12:43:59.469Z</time></trkpt><trkpt lat="46.1797755" lon="13.4515962"><ele>565.4</ele><time>2026-05-02T12:44:01.468Z</time></trkpt><trkpt lat="46.1797793" lon="13.451504"><ele>567.0</ele><time>2026-05-02T12:44:16.469Z</time></trkpt><trkpt lat="46.1797623" lon="13.4514113"><ele>567.0</ele><time>2026-05-02T12:44:19.469Z</time></trkpt><trkpt lat="46.1797583" lon="13.4511637"><ele>567.0</ele><time>2026-05-02T12:44:23.47Z</time></trkpt><trkpt lat="46.1797138" lon="13.4510275"><ele>567.0</ele><time>2026-05-02T12:44:25.468Z</time></trkpt><trkpt lat="46.179655" lon="13.4508933"><ele>567.0</ele><time>2026-05-02T12:44:27.467Z</time></trkpt><trkpt lat="46.179594" lon="13.4507557"><ele>567.0</ele><time>2026-05-02T12:44:29.468Z</time></trkpt><trkpt lat="46.1795302" lon="13.4506265"><ele>567.0</ele><time>2026-05-02T12:44:31.468Z</time></trkpt><trkpt lat="46.1794622" lon="13.450507"><ele>567.0</ele><time>2026-05-02T12:44:33.469Z</time></trkpt><trkpt lat="46.1794187" lon="13.4503605"><ele>567.0</ele><time>2026-05-02T12:44:35.47Z</time></trkpt><trkpt lat="46.1794092" lon="13.4502392"><ele>567.0</ele><time>2026-05-02T12:44:37.47Z</time></trkpt><trkpt lat="46.1794015" lon="13.4501067"><ele>569.8000000000001</ele><time>2026-05-02T12:44:40.469Z</time></trkpt><trkpt lat="46.1793752" lon="13.449806"><ele>572.6</ele><time>2026-05-02T12:44:44.47Z</time></trkpt><trkpt lat="46.1793672" lon="13.449699"><ele>575.4000000000001</ele><time>2026-05-02T12:44:45.47Z</time></trkpt><trkpt lat="46.179347" lon="13.449591"><ele>578.2</ele><time>2026-05-02T12:44:46.47Z</time></trkpt><trkpt lat="46.1793222" lon="13.4494845"><ele>581.0</ele><time>2026-05-02T12:44:47.468Z</time></trkpt><trkpt lat="46.1792955" lon="13.4493893"><ele>584.4</ele><time>2026-05-02T12:44:48.469Z</time></trkpt><trkpt lat="46.1792393" lon="13.4492578"><ele>587.8</ele><time>2026-05-02T12:44:50.466Z</time></trkpt><trkpt lat="46.1791537" lon="13.449221"><ele>591.1999999999999</ele><time>2026-05-02T12:44:52.466Z</time></trkpt><trkpt lat="46.179089" lon="13.4492843"><ele>594.6</ele><time>2026-05-02T12:44:54.469Z</time></trkpt><trkpt lat="46.1790665" lon="13.4494375"><ele>598.0</ele><time>2026-05-02T12:44:56.468Z</time></trkpt><trkpt lat="46.17905" lon="13.4495465"><ele>595.1999999999999</ele><time>2026-05-02T12:44:57.468Z</time></trkpt><trkpt lat="46.1790057" lon="13.4496662"><ele>592.4</ele><time>2026-05-02T12:44:58.469Z</time></trkpt><trkpt lat="46.1789638" lon="13.4497937"><ele>589.5999999999999</ele><time>2026-05-02T12:44:59.468Z</time></trkpt><trkpt lat="46.178906" lon="13.4499167"><ele>586.8</ele><time>2026-05-02T12:45:00.468Z</time></trkpt><trkpt lat="46.1788607" lon="13.4500175"><ele>584.0</ele><time>2026-05-02T12:45:01.467Z</time></trkpt><trkpt lat="46.1787052" lon="13.4501567"><ele>584.0</ele><time>2026-05-02T12:45:04.469Z</time></trkpt><trkpt lat="46.1786317" lon="13.4501405"><ele>584.0</ele><time>2026-05-02T12:45:05.469Z</time></trkpt><trkpt lat="46.1785475" lon="13.4501053"><ele>584.0</ele><time>2026-05-02T12:45:06.469Z</time></trkpt><trkpt lat="46.1784507" lon="13.450065"><ele>584.0</ele><time>2026-05-02T12:45:07.468Z</time></trkpt><trkpt lat="46.1783737" lon="13.450023"><ele>584.0</ele><time>2026-05-02T12:45:08.468Z</time></trkpt><trkpt lat="46.1783137" lon="13.449976"><ele>584.0</ele><time>2026-05-02T12:45:09.469Z</time></trkpt><trkpt lat="46.178244" lon="13.4498323"><ele>584.0</ele><time>2026-05-02T12:45:11.469Z</time></trkpt><trkpt lat="46.1782318" lon="13.4497287"><ele>584.0</ele><time>2026-05-02T12:45:12.469Z</time></trkpt><trkpt lat="46.1782313" lon="13.4496227"><ele>584.0</ele><time>2026-05-02T12:45:13.469Z</time></trkpt><trkpt lat="46.1782352" lon="13.4495303"><ele>584.0</ele><time>2026-05-02T12:45:14.468Z</time></trkpt><trkpt lat="46.1782567" lon="13.4494305"><ele>584.0</ele><time>2026-05-02T12:45:15.468Z</time></trkpt><trkpt lat="46.1782745" lon="13.4493212"><ele>584.0</ele><time>2026-05-02T12:45:16.468Z</time></trkpt><trkpt lat="46.1782868" lon="13.449227"><ele>584.0</ele><time>2026-05-02T12:45:17.468Z</time></trkpt><trkpt lat="46.1782865" lon="13.4491135"><ele>587.4</ele><time>2026-05-02T12:45:18.47Z</time></trkpt><trkpt lat="46.1782852" lon="13.4490073"><ele>590.8</ele><time>2026-05-02T12:45:19.468Z</time></trkpt><trkpt lat="46.1782607" lon="13.4489015"><ele>594.2</ele><time>2026-05-02T12:45:20.469Z</time></trkpt><trkpt lat="46.17822" lon="13.4488303"><ele>597.6</ele><time>2026-05-02T12:45:21.47Z</time></trkpt><trkpt lat="46.1781217" lon="13.4487535"><ele>601.0</ele><time>2026-05-02T12:45:23.467Z</time></trkpt><trkpt lat="46.1781218" lon="13.4489792"><ele>602.1428571428571</ele><time>2026-05-02T12:45:28.468Z</time></trkpt><trkpt lat="46.1781143" lon="13.4490738"><ele>603.2857142857143</ele><time>2026-05-02T12:45:29.469Z</time></trkpt><trkpt lat="46.1780857" lon="13.4491678"><ele>604.4285714285714</ele><time>2026-05-02T12:45:30.468Z</time></trkpt><trkpt lat="46.178057" lon="13.4492505"><ele>605.5714285714286</ele><time>2026-05-02T12:45:31.468Z</time></trkpt><trkpt lat="46.1780142" lon="13.4493257"><ele>606.7142857142858</ele><time>2026-05-02T12:45:32.469Z</time></trkpt><trkpt lat="46.1779622" lon="13.449405"><ele>607.8571428571429</ele><time>2026-05-02T12:45:33.469Z</time></trkpt><trkpt lat="46.177894" lon="13.4494912"><ele>609.0</ele><time>2026-05-02T12:45:34.468Z</time></trkpt><trkpt lat="46.1778263" lon="13.4495687"><ele>609.0</ele><time>2026-05-02T12:45:35.47Z</time></trkpt><trkpt lat="46.1777558" lon="13.4496167"><ele>609.0</ele><time>2026-05-02T12:45:36.469Z</time></trkpt><trkpt lat="46.1776852" lon="13.4496618"><ele>609.0</ele><time>2026-05-02T12:45:37.469Z</time></trkpt><trkpt lat="46.1776138" lon="13.4497085"><ele>609.0</ele><time>2026-05-02T12:45:38.468Z</time></trkpt><trkpt lat="46.1775265" lon="13.4497455"><ele>609.0</ele><time>2026-05-02T12:45:39.467Z</time></trkpt><trkpt lat="46.1774492" lon="13.4497877"><ele>609.0</ele><time>2026-05-02T12:45:40.467Z</time></trkpt><trkpt lat="46.1773825" lon="13.4498167"><ele>613.0</ele><time>2026-05-02T12:45:41.467Z</time></trkpt><trkpt lat="46.177337" lon="13.4499085"><ele>617.0</ele><time>2026-05-02T12:45:43.469Z</time></trkpt><trkpt lat="46.1773917" lon="13.450022"><ele>621.0</ele><time>2026-05-02T12:45:45.469Z</time></trkpt><trkpt lat="46.1773818" lon="13.4503358"><ele>625.0</ele><time>2026-05-02T12:45:49.468Z</time></trkpt><trkpt lat="46.1773613" lon="13.4504437"><ele>622.5</ele><time>2026-05-02T12:45:50.468Z</time></trkpt><trkpt lat="46.1773408" lon="13.4505503"><ele>620.0</ele><time>2026-05-02T12:45:51.469Z</time></trkpt><trkpt lat="46.1773103" lon="13.4506565"><ele>617.5</ele><time>2026-05-02T12:45:52.468Z</time></trkpt><trkpt lat="46.1772615" lon="13.4507652"><ele>615.0</ele><time>2026-05-02T12:45:53.468Z</time></trkpt><trkpt lat="46.1772092" lon="13.4508788"><ele>612.5</ele><time>2026-05-02T12:45:54.468Z</time></trkpt><trkpt lat="46.1771547" lon="13.4509995"><ele>610.0</ele><time>2026-05-02T12:45:55.468Z</time></trkpt><trkpt lat="46.177095" lon="13.451111"><ele>610.0</ele><time>2026-05-02T12:45:56.468Z</time></trkpt><trkpt lat="46.1770517" lon="13.4512282"><ele>610.0</ele><time>2026-05-02T12:45:57.469Z</time></trkpt><trkpt lat="46.177023" lon="13.4513532"><ele>610.0</ele><time>2026-05-02T12:45:58.467Z</time></trkpt><trkpt lat="46.1769967" lon="13.4514743"><ele>610.0</ele><time>2026-05-02T12:45:59.467Z</time></trkpt><trkpt lat="46.1769705" lon="13.4515682"><ele>610.0</ele><time>2026-05-02T12:46:00.468Z</time></trkpt><trkpt lat="46.1769027" lon="13.4516863"><ele>610.0</ele><time>2026-05-02T12:46:02.468Z</time></trkpt><trkpt lat="46.1768507" lon="13.451749"><ele>608.2</ele><time>2026-05-02T12:46:03.466Z</time></trkpt><trkpt lat="46.1767892" lon="13.451814"><ele>606.4</ele><time>2026-05-02T12:46:04.466Z</time></trkpt><trkpt lat="46.1767247" lon="13.4518707"><ele>604.6</ele><time>2026-05-02T12:46:05.467Z</time></trkpt><trkpt lat="46.1766537" lon="13.4519205"><ele>602.8</ele><time>2026-05-02T12:46:06.466Z</time></trkpt><trkpt lat="46.1764933" lon="13.4520135"><ele>601.0</ele><time>2026-05-02T12:46:08.468Z</time></trkpt><trkpt lat="46.1764205" lon="13.4520417"><ele>601.0</ele><time>2026-05-02T12:46:09.468Z</time></trkpt><trkpt lat="46.1763487" lon="13.4520653"><ele>601.0</ele><time>2026-05-02T12:46:10.468Z</time></trkpt><trkpt lat="46.1762703" lon="13.452078"><ele>601.0</ele><time>2026-05-02T12:46:11.47Z</time></trkpt><trkpt lat="46.1761915" lon="13.4520737"><ele>601.0</ele><time>2026-05-02T12:46:12.469Z</time></trkpt><trkpt lat="46.1760858" lon="13.4520613"><ele>601.0</ele><time>2026-05-02T12:46:13.468Z</time></trkpt><trkpt lat="46.1759787" lon="13.452042"><ele>601.0</ele><time>2026-05-02T12:46:14.469Z</time></trkpt><trkpt lat="46.175871" lon="13.4520195"><ele>601.0</ele><time>2026-05-02T12:46:15.469Z</time></trkpt><trkpt lat="46.1757745" lon="13.4519923"><ele>601.0</ele><time>2026-05-02T12:46:16.468Z</time></trkpt><trkpt lat="46.1756892" lon="13.4519707"><ele>601.0</ele><time>2026-05-02T12:46:17.468Z</time></trkpt><trkpt lat="46.1756" lon="13.4519385"><ele>601.0</ele><time>2026-05-02T12:46:18.47Z</time></trkpt><trkpt lat="46.175511" lon="13.4519185"><ele>601.0</ele><time>2026-05-02T12:46:19.468Z</time></trkpt><trkpt lat="46.175426" lon="13.4519055"><ele>602.2</ele><time>2026-05-02T12:46:20.469Z</time></trkpt><trkpt lat="46.1753498" lon="13.4519048"><ele>603.4000000000001</ele><time>2026-05-02T12:46:21.469Z</time></trkpt><trkpt lat="46.1752507" lon="13.451968"><ele>604.6</ele><time>2026-05-02T12:46:23.467Z</time></trkpt><trkpt lat="46.1752113" lon="13.4520915"><ele>605.8000000000001</ele><time>2026-05-02T12:46:25.468Z</time></trkpt><trkpt lat="46.175246" lon="13.4522382"><ele>607.0</ele><time>2026-05-02T12:46:27.468Z</time></trkpt><trkpt lat="46.175311" lon="13.452422"><ele>607.3333333333334</ele><time>2026-05-02T12:46:29.467Z</time></trkpt><trkpt lat="46.175347" lon="13.4525165"><ele>607.6666666666667</ele><time>2026-05-02T12:46:30.467Z</time></trkpt><trkpt lat="46.1753922" lon="13.4526015"><ele>608.0</ele><time>2026-05-02T12:46:31.466Z</time></trkpt><trkpt lat="46.1754288" lon="13.4526987"><ele>608.3333333333334</ele><time>2026-05-02T12:46:32.467Z</time></trkpt><trkpt lat="46.1754778" lon="13.4528085"><ele>608.6666666666666</ele><time>2026-05-02T12:46:33.468Z</time></trkpt><trkpt lat="46.1755178" lon="13.4529073"><ele>609.0</ele><time>2026-05-02T12:46:34.466Z</time></trkpt><trkpt lat="46.1755542" lon="13.4530022"><ele>607.5</ele><time>2026-05-02T12:46:35.468Z</time></trkpt><trkpt lat="46.1755908" lon="13.4530973"><ele>606.0</ele><time>2026-05-02T12:46:36.468Z</time></trkpt><trkpt lat="46.1756337" lon="13.4531965"><ele>604.5</ele><time>2026-05-02T12:46:37.467Z</time></trkpt><trkpt lat="46.1756738" lon="13.4533067"><ele>603.0</ele><time>2026-05-02T12:46:38.468Z</time></trkpt><trkpt lat="46.1757205" lon="13.4534177"><ele>601.5</ele><time>2026-05-02T12:46:39.467Z</time></trkpt><trkpt lat="46.1757742" lon="13.4535188"><ele>600.0</ele><time>2026-05-02T12:46:40.468Z</time></trkpt><trkpt lat="46.1758303" lon="13.4536147"><ele>596.3333333333334</ele><time>2026-05-02T12:46:41.468Z</time></trkpt><trkpt lat="46.1758653" lon="13.4537185"><ele>592.6666666666666</ele><time>2026-05-02T12:46:42.469Z</time></trkpt><trkpt lat="46.175909" lon="13.4538382"><ele>589.0</ele><time>2026-05-02T12:46:43.469Z</time></trkpt><trkpt lat="46.1759495" lon="13.4539535"><ele>585.3333333333333</ele><time>2026-05-02T12:46:44.468Z</time></trkpt><trkpt lat="46.175986" lon="13.45406"><ele>581.6666666666666</ele><time>2026-05-02T12:46:45.47Z</time></trkpt><trkpt lat="46.176025" lon="13.4541563"><ele>578.0</ele><time>2026-05-02T12:46:46.47Z</time></trkpt><trkpt lat="46.1760488" lon="13.4542427"><ele>578.0</ele><time>2026-05-02T12:46:47.471Z</time></trkpt><trkpt lat="46.1760408" lon="13.4544055"><ele>578.0</ele><time>2026-05-02T12:46:49.469Z</time></trkpt><trkpt lat="46.1759458" lon="13.4545928"><ele>578.0</ele><time>2026-05-02T12:46:51.471Z</time></trkpt><trkpt lat="46.1758885" lon="13.4546843"><ele>578.0</ele><time>2026-05-02T12:46:52.469Z</time></trkpt><trkpt lat="46.1758318" lon="13.4547417"><ele>578.0</ele><time>2026-05-02T12:46:53.468Z</time></trkpt><trkpt lat="46.175752" lon="13.4547832"><ele>580.6</ele><time>2026-05-02T12:46:54.468Z</time></trkpt><trkpt lat="46.1756613" lon="13.4548217"><ele>583.1999999999999</ele><time>2026-05-02T12:46:55.469Z</time></trkpt><trkpt lat="46.1755673" lon="13.454852"><ele>585.8</ele><time>2026-05-02T12:46:56.47Z</time></trkpt><trkpt lat="46.1754743" lon="13.4548808"><ele>588.4</ele><time>2026-05-02T12:46:57.47Z</time></trkpt><trkpt lat="46.1753893" lon="13.4549178"><ele>591.0</ele><time>2026-05-02T12:46:58.47Z</time></trkpt><trkpt lat="46.1753062" lon="13.4549662"><ele>591.0</ele><time>2026-05-02T12:46:59.47Z</time></trkpt><trkpt lat="46.1752288" lon="13.4550135"><ele>591.0</ele><time>2026-05-02T12:47:00.47Z</time></trkpt><trkpt lat="46.1751518" lon="13.4550472"><ele>591.0</ele><time>2026-05-02T12:47:01.469Z</time></trkpt><trkpt lat="46.1750677" lon="13.4550667"><ele>591.0</ele><time>2026-05-02T12:47:02.469Z</time></trkpt><trkpt lat="46.17499" lon="13.4550622"><ele>591.0</ele><time>2026-05-02T12:47:03.47Z</time></trkpt><trkpt lat="46.1749087" lon="13.4550445"><ele>591.0</ele><time>2026-05-02T12:47:04.47Z</time></trkpt><trkpt lat="46.1748232" lon="13.4550133"><ele>596.8</ele><time>2026-05-02T12:47:05.468Z</time></trkpt><trkpt lat="46.1747562" lon="13.454996"><ele>602.6</ele><time>2026-05-02T12:47:06.469Z</time></trkpt><trkpt lat="46.174651" lon="13.4550105"><ele>608.4</ele><time>2026-05-02T12:47:08.468Z</time></trkpt><trkpt lat="46.1745952" lon="13.4550532"><ele>614.2</ele><time>2026-05-02T12:47:09.468Z</time></trkpt><trkpt lat="46.1745188" lon="13.455116"><ele>620.0</ele><time>2026-05-02T12:47:10.468Z</time></trkpt><trkpt lat="46.1743777" lon="13.4552668"><ele>620.0</ele><time>2026-05-02T12:47:12.469Z</time></trkpt><trkpt lat="46.1743412" lon="13.4553683"><ele>620.0</ele><time>2026-05-02T12:47:14.469Z</time></trkpt><trkpt lat="46.17439" lon="13.455492"><ele>620.0</ele><time>2026-05-02T12:47:16.468Z</time></trkpt><trkpt lat="46.174418" lon="13.4555903"><ele>620.0</ele><time>2026-05-02T12:47:17.472Z</time></trkpt><trkpt lat="46.1744135" lon="13.455701"><ele>620.0</ele><time>2026-05-02T12:47:18.468Z</time></trkpt><trkpt lat="46.1744417" lon="13.455864"><ele>620.0</ele><time>2026-05-02T12:47:20.468Z</time></trkpt><trkpt lat="46.1745082" lon="13.4559955"><ele>619.0</ele><time>2026-05-02T12:47:22.469Z</time></trkpt><trkpt lat="46.1745503" lon="13.4560773"><ele>618.0</ele><time>2026-05-02T12:47:23.469Z</time></trkpt><trkpt lat="46.1746008" lon="13.4561772"><ele>617.0</ele><time>2026-05-02T12:47:24.469Z</time></trkpt><trkpt lat="46.1746607" lon="13.4562825"><ele>616.0</ele><time>2026-05-02T12:47:25.469Z</time></trkpt><trkpt lat="46.1747222" lon="13.4563903"><ele>615.0</ele><time>2026-05-02T12:47:26.468Z</time></trkpt><trkpt lat="46.1747947" lon="13.4565028"><ele>617.0</ele><time>2026-05-02T12:47:27.468Z</time></trkpt><trkpt lat="46.1748303" lon="13.4566265"><ele>619.0</ele><time>2026-05-02T12:47:28.468Z</time></trkpt><trkpt lat="46.1748672" lon="13.4567387"><ele>621.0</ele><time>2026-05-02T12:47:29.47Z</time></trkpt><trkpt lat="46.174903" lon="13.4568537"><ele>623.0</ele><time>2026-05-02T12:47:30.469Z</time></trkpt><trkpt lat="46.1749363" lon="13.4569788"><ele>625.0</ele><time>2026-05-02T12:47:31.467Z</time></trkpt><trkpt lat="46.1749907" lon="13.4572808"><ele>618.5</ele><time>2026-05-02T12:47:33.469Z</time></trkpt><trkpt lat="46.1750242" lon="13.4574512"><ele>612.0</ele><time>2026-05-02T12:47:34.467Z</time></trkpt><trkpt lat="46.1750493" lon="13.4576117"><ele>605.5</ele><time>2026-05-02T12:47:35.469Z</time></trkpt><trkpt lat="46.1750697" lon="13.4577715"><ele>599.0</ele><time>2026-05-02T12:47:36.468Z</time></trkpt><trkpt lat="46.175092" lon="13.4579237"><ele>601.2</ele><time>2026-05-02T12:47:37.468Z</time></trkpt><trkpt lat="46.1751107" lon="13.458058"><ele>603.4</ele><time>2026-05-02T12:47:38.468Z</time></trkpt><trkpt lat="46.1751302" lon="13.4581922"><ele>605.6</ele><time>2026-05-02T12:47:39.469Z</time></trkpt><trkpt lat="46.1751427" lon="13.4583428"><ele>607.8</ele><time>2026-05-02T12:47:40.467Z</time></trkpt><trkpt lat="46.1751647" lon="13.458505"><ele>610.0</ele><time>2026-05-02T12:47:41.467Z</time></trkpt><trkpt lat="46.1751763" lon="13.458675"><ele>610.0</ele><time>2026-05-02T12:47:42.467Z</time></trkpt><trkpt lat="46.1751725" lon="13.4588423"><ele>610.0</ele><time>2026-05-02T12:47:43.466Z</time></trkpt><trkpt lat="46.1751928" lon="13.4590035"><ele>610.0</ele><time>2026-05-02T12:47:44.466Z</time></trkpt><trkpt lat="46.175184" lon="13.4591648"><ele>610.0</ele><time>2026-05-02T12:47:45.468Z</time></trkpt><trkpt lat="46.1751803" lon="13.4593222"><ele>610.0</ele><time>2026-05-02T12:47:46.468Z</time></trkpt><trkpt lat="46.1752033" lon="13.4594677"><ele>610.0</ele><time>2026-05-02T12:47:47.467Z</time></trkpt><trkpt lat="46.1752218" lon="13.4596122"><ele>610.0</ele><time>2026-05-02T12:47:48.468Z</time></trkpt><trkpt lat="46.1752287" lon="13.4597585"><ele>610.0</ele><time>2026-05-02T12:47:49.469Z</time></trkpt><trkpt lat="46.1752613" lon="13.4598953"><ele>610.0</ele><time>2026-05-02T12:47:50.469Z</time></trkpt><trkpt lat="46.1752838" lon="13.4600237"><ele>609.8333333333334</ele><time>2026-05-02T12:47:51.47Z</time></trkpt><trkpt lat="46.175284" lon="13.4601343"><ele>609.6666666666667</ele><time>2026-05-02T12:47:52.47Z</time></trkpt><trkpt lat="46.175206" lon="13.4603338"><ele>609.5</ele><time>2026-05-02T12:47:56.47Z</time></trkpt><trkpt lat="46.1751378" lon="13.4603875"><ele>609.3333333333334</ele><time>2026-05-02T12:48:02.471Z</time></trkpt><trkpt lat="46.175078" lon="13.460426"><ele>609.1666666666666</ele><time>2026-05-02T12:48:07.47Z</time></trkpt><trkpt lat="46.1750245" lon="13.4604833"><ele>609.0</ele><time>2026-05-02T12:48:15.472Z</time></trkpt><trkpt lat="46.1748237" lon="13.460498"><ele>607.3333333333334</ele><time>2026-05-02T12:48:20.277Z</time></trkpt><trkpt lat="46.1747192" lon="13.4604698"><ele>605.6666666666666</ele><time>2026-05-02T12:48:22.277Z</time></trkpt><trkpt lat="46.1745948" lon="13.4605087"><ele>604.0</ele><time>2026-05-02T12:48:24.279Z</time></trkpt><trkpt lat="46.1745283" lon="13.4605552"><ele>602.3333333333333</ele><time>2026-05-02T12:48:25.277Z</time></trkpt><trkpt lat="46.1744692" lon="13.4605963"><ele>600.6666666666666</ele><time>2026-05-02T12:48:26.277Z</time></trkpt><trkpt lat="46.174401" lon="13.4606398"><ele>599.0</ele><time>2026-05-02T12:48:27.278Z</time></trkpt><trkpt lat="46.1742977" lon="13.460684"><ele>599.0</ele><time>2026-05-02T12:48:29.277Z</time></trkpt><trkpt lat="46.1741808" lon="13.4606673"><ele>599.0</ele><time>2026-05-02T12:48:31.275Z</time></trkpt><trkpt lat="46.174069" lon="13.4606992"><ele>599.0</ele><time>2026-05-02T12:48:33.276Z</time></trkpt><trkpt lat="46.1739955" lon="13.4608008"><ele>599.0</ele><time>2026-05-02T12:48:35.277Z</time></trkpt><trkpt lat="46.1739145" lon="13.4609138"><ele>599.0</ele><time>2026-05-02T12:48:37.277Z</time></trkpt><trkpt lat="46.1737252" lon="13.4609815"><ele>598.0</ele><time>2026-05-02T12:48:40.274Z</time></trkpt><trkpt lat="46.1736475" lon="13.4609883"><ele>597.0</ele><time>2026-05-02T12:48:41.273Z</time></trkpt><trkpt lat="46.1735698" lon="13.460987"><ele>596.0</ele><time>2026-05-02T12:48:42.274Z</time></trkpt><trkpt lat="46.1734915" lon="13.4609773"><ele>595.0</ele><time>2026-05-02T12:48:43.277Z</time></trkpt><trkpt lat="46.1734193" lon="13.460944"><ele>594.0</ele><time>2026-05-02T12:48:44.278Z</time></trkpt><trkpt lat="46.1733482" lon="13.4609017"><ele>593.0</ele><time>2026-05-02T12:48:45.275Z</time></trkpt><trkpt lat="46.173291" lon="13.4608593"><ele>593.0</ele><time>2026-05-02T12:48:46.275Z</time></trkpt><trkpt lat="46.1732332" lon="13.4608213"><ele>593.0</ele><time>2026-05-02T12:48:47.275Z</time></trkpt><trkpt lat="46.1731693" lon="13.4607845"><ele>593.0</ele><time>2026-05-02T12:48:48.28Z</time></trkpt><trkpt lat="46.1730562" lon="13.4607672"><ele>593.0</ele><time>2026-05-02T12:48:50.275Z</time></trkpt><trkpt lat="46.1729633" lon="13.460792"><ele>593.0</ele><time>2026-05-02T12:48:52.274Z</time></trkpt><trkpt lat="46.172897" lon="13.4608958"><ele>593.0</ele><time>2026-05-02T12:48:54.275Z</time></trkpt><trkpt lat="46.1728035" lon="13.4610273"><ele>593.75</ele><time>2026-05-02T12:48:56.273Z</time></trkpt><trkpt lat="46.1727417" lon="13.4611077"><ele>594.5</ele><time>2026-05-02T12:48:57.274Z</time></trkpt><trkpt lat="46.1726643" lon="13.461223"><ele>595.25</ele><time>2026-05-02T12:48:58.47Z</time></trkpt><trkpt lat="46.1725512" lon="13.4614428"><ele>596.0</ele><time>2026-05-02T12:49:00.467Z</time></trkpt><trkpt lat="46.1725108" lon="13.4615563"><ele>596.6666666666666</ele><time>2026-05-02T12:49:01.467Z</time></trkpt><trkpt lat="46.1724675" lon="13.461671"><ele>597.3333333333333</ele><time>2026-05-02T12:49:02.467Z</time></trkpt><trkpt lat="46.172444" lon="13.4617695"><ele>598.0</ele><time>2026-05-02T12:49:03.467Z</time></trkpt><trkpt lat="46.1723828" lon="13.4618703"><ele>598.6666666666666</ele><time>2026-05-02T12:49:04.467Z</time></trkpt><trkpt lat="46.1723295" lon="13.4619653"><ele>599.3333333333334</ele><time>2026-05-02T12:49:05.467Z</time></trkpt><trkpt lat="46.1722838" lon="13.4620502"><ele>600.0</ele><time>2026-05-02T12:49:06.468Z</time></trkpt><trkpt lat="46.172229" lon="13.462138"><ele>593.75</ele><time>2026-05-02T12:49:07.468Z</time></trkpt><trkpt lat="46.1721422" lon="13.4622152"><ele>587.5</ele><time>2026-05-02T12:49:08.468Z</time></trkpt><trkpt lat="46.1720525" lon="13.4623015"><ele>581.25</ele><time>2026-05-02T12:49:09.469Z</time></trkpt><trkpt lat="46.1719505" lon="13.462405"><ele>575.0</ele><time>2026-05-02T12:49:10.468Z</time></trkpt><trkpt lat="46.1718402" lon="13.4625205"><ele>575.0</ele><time>2026-05-02T12:49:11.468Z</time></trkpt><trkpt lat="46.1717372" lon="13.4626397"><ele>575.0</ele><time>2026-05-02T12:49:12.468Z</time></trkpt><trkpt lat="46.1716315" lon="13.4627513"><ele>575.0</ele><time>2026-05-02T12:49:13.467Z</time></trkpt><trkpt lat="46.1715275" lon="13.462849"><ele>575.0</ele><time>2026-05-02T12:49:14.468Z</time></trkpt><trkpt lat="46.1714213" lon="13.4629363"><ele>577.25</ele><time>2026-05-02T12:49:15.468Z</time></trkpt><trkpt lat="46.1713142" lon="13.4630183"><ele>579.5</ele><time>2026-05-02T12:49:16.468Z</time></trkpt><trkpt lat="46.1712085" lon="13.4631132"><ele>581.75</ele><time>2026-05-02T12:49:17.468Z</time></trkpt><trkpt lat="46.1710968" lon="13.4632163"><ele>584.0</ele><time>2026-05-02T12:49:18.469Z</time></trkpt><trkpt lat="46.1710032" lon="13.4633152"><ele>584.0</ele><time>2026-05-02T12:49:19.466Z</time></trkpt><trkpt lat="46.1708638" lon="13.4635073"><ele>584.0</ele><time>2026-05-02T12:49:21.466Z</time></trkpt><trkpt lat="46.1708043" lon="13.4636317"><ele>584.0</ele><time>2026-05-02T12:49:22.466Z</time></trkpt><trkpt lat="46.1707513" lon="13.463772"><ele>584.0</ele><time>2026-05-02T12:49:23.468Z</time></trkpt><trkpt lat="46.1706925" lon="13.4639012"><ele>587.4</ele><time>2026-05-02T12:49:24.47Z</time></trkpt><trkpt lat="46.1706193" lon="13.4640273"><ele>590.8</ele><time>2026-05-02T12:49:25.468Z</time></trkpt><trkpt lat="46.1705498" lon="13.4641662"><ele>594.2</ele><time>2026-05-02T12:49:26.469Z</time></trkpt><trkpt lat="46.1705012" lon="13.4642787"><ele>597.6</ele><time>2026-05-02T12:49:27.469Z</time></trkpt><trkpt lat="46.1704405" lon="13.4643828"><ele>601.0</ele><time>2026-05-02T12:49:28.469Z</time></trkpt><trkpt lat="46.1703895" lon="13.4644748"><ele>601.0</ele><time>2026-05-02T12:49:29.467Z</time></trkpt><trkpt lat="46.1703337" lon="13.4645667"><ele>601.0</ele><time>2026-05-02T12:49:30.468Z</time></trkpt><trkpt lat="46.1702735" lon="13.4646453"><ele>601.0</ele><time>2026-05-02T12:49:31.468Z</time></trkpt><trkpt lat="46.1701965" lon="13.4647252"><ele>601.0</ele><time>2026-05-02T12:49:32.468Z</time></trkpt><trkpt lat="46.1701243" lon="13.464816"><ele>601.0</ele><time>2026-05-02T12:49:33.469Z</time></trkpt><trkpt lat="46.1700633" lon="13.4649115"><ele>601.0</ele><time>2026-05-02T12:49:34.469Z</time></trkpt><trkpt lat="46.1700015" lon="13.4650415"><ele>595.8</ele><time>2026-05-02T12:49:35.469Z</time></trkpt><trkpt lat="46.1699623" lon="13.4651718"><ele>590.6</ele><time>2026-05-02T12:49:36.47Z</time></trkpt><trkpt lat="46.1699443" lon="13.465295"><ele>585.4</ele><time>2026-05-02T12:49:37.469Z</time></trkpt><trkpt lat="46.1699147" lon="13.4653948"><ele>580.2</ele><time>2026-05-02T12:49:38.468Z</time></trkpt><trkpt lat="46.1698733" lon="13.4654777"><ele>575.0</ele><time>2026-05-02T12:49:39.469Z</time></trkpt><trkpt lat="46.1697852" lon="13.4655975"><ele>573.5</ele><time>2026-05-02T12:49:41.468Z</time></trkpt><trkpt lat="46.1695995" lon="13.4656442"><ele>572.0</ele><time>2026-05-02T12:49:43.469Z</time></trkpt><trkpt lat="46.1694807" lon="13.4656625"><ele>570.5</ele><time>2026-05-02T12:49:44.467Z</time></trkpt><trkpt lat="46.1693522" lon="13.4656703"><ele>569.0</ele><time>2026-05-02T12:49:45.468Z</time></trkpt><trkpt lat="46.1692083" lon="13.4656883"><ele>569.0</ele><time>2026-05-02T12:49:46.468Z</time></trkpt><trkpt lat="46.1690807" lon="13.4657045"><ele>569.0</ele><time>2026-05-02T12:49:47.47Z</time></trkpt><trkpt lat="46.1689578" lon="13.4657212"><ele>569.0</ele><time>2026-05-02T12:49:48.468Z</time></trkpt><trkpt lat="46.1688427" lon="13.4657288"><ele>569.0</ele><time>2026-05-02T12:49:49.468Z</time></trkpt><trkpt lat="46.168736" lon="13.4657223"><ele>570.4</ele><time>2026-05-02T12:49:50.468Z</time></trkpt><trkpt lat="46.1686385" lon="13.4657153"><ele>571.8</ele><time>2026-05-02T12:49:51.468Z</time></trkpt><trkpt lat="46.168556" lon="13.4656808"><ele>573.2</ele><time>2026-05-02T12:49:52.468Z</time></trkpt><trkpt lat="46.168464" lon="13.4656207"><ele>574.6</ele><time>2026-05-02T12:49:53.469Z</time></trkpt><trkpt lat="46.1683758" lon="13.4655262"><ele>576.0</ele><time>2026-05-02T12:49:54.468Z</time></trkpt><trkpt lat="46.168294" lon="13.4654102"><ele>576.0</ele><time>2026-05-02T12:49:55.469Z</time></trkpt><trkpt lat="46.1682195" lon="13.4652833"><ele>576.0</ele><time>2026-05-02T12:49:56.469Z</time></trkpt><trkpt lat="46.1681615" lon="13.4651573"><ele>576.0</ele><time>2026-05-02T12:49:57.469Z</time></trkpt><trkpt lat="46.168115" lon="13.4650287"><ele>576.0</ele><time>2026-05-02T12:49:58.469Z</time></trkpt><trkpt lat="46.1680797" lon="13.4648907"><ele>576.0</ele><time>2026-05-02T12:49:59.468Z</time></trkpt><trkpt lat="46.1680493" lon="13.4647442"><ele>570.6</ele><time>2026-05-02T12:50:00.468Z</time></trkpt><trkpt lat="46.168022" lon="13.4646067"><ele>565.2</ele><time>2026-05-02T12:50:01.467Z</time></trkpt><trkpt lat="46.1679918" lon="13.4644747"><ele>559.8</ele><time>2026-05-02T12:50:02.467Z</time></trkpt><trkpt lat="46.167969" lon="13.464255"><ele>554.4</ele><time>2026-05-02T12:50:04.467Z</time></trkpt><trkpt lat="46.1679823" lon="13.464157"><ele>549.0</ele><time>2026-05-02T12:50:05.468Z</time></trkpt><trkpt lat="46.1679902" lon="13.4640303"><ele>549.0</ele><time>2026-05-02T12:50:06.468Z</time></trkpt><trkpt lat="46.1679945" lon="13.463916"><ele>549.0</ele><time>2026-05-02T12:50:07.468Z</time></trkpt><trkpt lat="46.1679928" lon="13.4637993"><ele>549.0</ele><time>2026-05-02T12:50:08.466Z</time></trkpt><trkpt lat="46.1679713" lon="13.4636902"><ele>549.0</ele><time>2026-05-02T12:50:09.467Z</time></trkpt><trkpt lat="46.1679415" lon="13.4635818"><ele>549.0</ele><time>2026-05-02T12:50:10.466Z</time></trkpt><trkpt lat="46.1679103" lon="13.4634505"><ele>549.0</ele><time>2026-05-02T12:50:11.466Z</time></trkpt><trkpt lat="46.1678782" lon="13.4633197"><ele>551.0</ele><time>2026-05-02T12:50:12.468Z</time></trkpt><trkpt lat="46.1678553" lon="13.4631973"><ele>553.0</ele><time>2026-05-02T12:50:13.467Z</time></trkpt><trkpt lat="46.1678432" lon="13.4630657"><ele>555.0</ele><time>2026-05-02T12:50:14.467Z</time></trkpt><trkpt lat="46.1678278" lon="13.462935"><ele>557.0</ele><time>2026-05-02T12:50:15.467Z</time></trkpt><trkpt lat="46.1678035" lon="13.462828"><ele>559.0</ele><time>2026-05-02T12:50:16.469Z</time></trkpt><trkpt lat="46.1677613" lon="13.4627172"><ele>561.0</ele><time>2026-05-02T12:50:18.469Z</time></trkpt><trkpt lat="46.1678297" lon="13.4627128"><ele>561.0</ele><time>2026-05-02T12:50:31.467Z</time></trkpt><trkpt lat="46.1679383" lon="13.4629308"><ele>561.0</ele><time>2026-05-02T12:50:35.465Z</time></trkpt><trkpt lat="46.1679657" lon="13.463023"><ele>561.0</ele><time>2026-05-02T12:50:36.466Z</time></trkpt><trkpt lat="46.1680047" lon="13.4631097"><ele>561.0</ele><time>2026-05-02T12:50:37.467Z</time></trkpt><trkpt lat="46.1680547" lon="13.4631903"><ele>561.0</ele><time>2026-05-02T12:50:38.467Z</time></trkpt><trkpt lat="46.168105" lon="13.4632477"><ele>561.0</ele><time>2026-05-02T12:50:39.467Z</time></trkpt><trkpt lat="46.168166" lon="13.463302"><ele>561.0</ele><time>2026-05-02T12:50:40.467Z</time></trkpt><trkpt lat="46.1682247" lon="13.4633602"><ele>561.0</ele><time>2026-05-02T12:50:41.467Z</time></trkpt><trkpt lat="46.1682825" lon="13.463405"><ele>561.0</ele><time>2026-05-02T12:50:42.472Z</time></trkpt><trkpt lat="46.1683913" lon="13.4634605"><ele>561.0</ele><time>2026-05-02T12:50:44.467Z</time></trkpt><trkpt lat="46.1684738" lon="13.4635618"><ele>561.0</ele><time>2026-05-02T12:50:46.468Z</time></trkpt><trkpt lat="46.1685132" lon="13.4636415"><ele>564.6666666666666</ele><time>2026-05-02T12:50:47.468Z</time></trkpt><trkpt lat="46.1685645" lon="13.4637125"><ele>568.3333333333334</ele><time>2026-05-02T12:50:48.467Z</time></trkpt><trkpt lat="46.1686268" lon="13.463772"><ele>572.0</ele><time>2026-05-02T12:50:49.467Z</time></trkpt><trkpt lat="46.1686932" lon="13.4638365"><ele>575.6666666666667</ele><time>2026-05-02T12:50:50.468Z</time></trkpt><trkpt lat="46.1687538" lon="13.463886"><ele>579.3333333333334</ele><time>2026-05-02T12:50:51.47Z</time></trkpt><trkpt lat="46.1688095" lon="13.4639338"><ele>583.0</ele><time>2026-05-02T12:50:52.468Z</time></trkpt><trkpt lat="46.1690077" lon="13.4640158"><ele>587.4</ele><time>2026-05-02T12:50:55.468Z</time></trkpt><trkpt lat="46.1690728" lon="13.464031"><ele>591.8</ele><time>2026-05-02T12:50:56.469Z</time></trkpt><trkpt lat="46.169189" lon="13.4639977"><ele>596.2</ele><time>2026-05-02T12:50:58.467Z</time></trkpt><trkpt lat="46.1693123" lon="13.463958"><ele>600.6</ele><time>2026-05-02T12:51:00.469Z</time></trkpt><trkpt lat="46.1694078" lon="13.463912"><ele>605.0</ele><time>2026-05-02T12:51:02.469Z</time></trkpt><trkpt lat="46.1693435" lon="13.4638648"><ele>605.0</ele><time>2026-05-02T12:51:06.47Z</time></trkpt><trkpt lat="46.1692495" lon="13.4638657"><ele>605.0</ele><time>2026-05-02T12:51:08.47Z</time></trkpt><trkpt lat="46.1691617" lon="13.4638352"><ele>605.0</ele><time>2026-05-02T12:51:10.469Z</time></trkpt><trkpt lat="46.169117" lon="13.463747"><ele>605.0</ele><time>2026-05-02T12:51:12.471Z</time></trkpt><trkpt lat="46.169092" lon="13.463579"><ele>605.0</ele><time>2026-05-02T12:51:14.47Z</time></trkpt><trkpt lat="46.1690678" lon="13.4633735"><ele>604.6666666666666</ele><time>2026-05-02T12:51:16.47Z</time></trkpt><trkpt lat="46.1690433" lon="13.4632692"><ele>604.3333333333333</ele><time>2026-05-02T12:51:17.47Z</time></trkpt><trkpt lat="46.1690165" lon="13.4631753"><ele>604.0</ele><time>2026-05-02T12:51:18.469Z</time></trkpt><trkpt lat="46.1689882" lon="13.4630868"><ele>603.6666666666666</ele><time>2026-05-02T12:51:19.468Z</time></trkpt><trkpt lat="46.1689647" lon="13.4630018"><ele>603.3333333333334</ele><time>2026-05-02T12:51:20.468Z</time></trkpt><trkpt lat="46.1689558" lon="13.4628363"><ele>603.0</ele><time>2026-05-02T12:51:22.467Z</time></trkpt><trkpt lat="46.1689855" lon="13.4626697"><ele>603.0</ele><time>2026-05-02T12:51:24.469Z</time></trkpt><trkpt lat="46.1690067" lon="13.4625792"><ele>603.0</ele><time>2026-05-02T12:51:25.468Z</time></trkpt><trkpt lat="46.1690222" lon="13.462395"><ele>603.0</ele><time>2026-05-02T12:51:27.47Z</time></trkpt><trkpt lat="46.1690045" lon="13.4622995"><ele>603.0</ele><time>2026-05-02T12:51:28.469Z</time></trkpt><trkpt lat="46.1689785" lon="13.4622128"><ele>603.0</ele><time>2026-05-02T12:51:29.47Z</time></trkpt><trkpt lat="46.1689472" lon="13.462097"><ele>603.0</ele><time>2026-05-02T12:51:31.47Z</time></trkpt><trkpt lat="46.1690092" lon="13.4620607"><ele>609.4</ele><time>2026-05-02T12:51:34.469Z</time></trkpt><trkpt lat="46.1690753" lon="13.4621442"><ele>615.8</ele><time>2026-05-02T12:51:36.47Z</time></trkpt><trkpt lat="46.1691473" lon="13.4623233"><ele>622.2</ele><time>2026-05-02T12:51:38.474Z</time></trkpt><trkpt lat="46.1691897" lon="13.4624082"><ele>628.6</ele><time>2026-05-02T12:51:39.469Z</time></trkpt><trkpt lat="46.1692415" lon="13.4624855"><ele>635.0</ele><time>2026-05-02T12:51:40.47Z</time></trkpt><trkpt lat="46.1693042" lon="13.4625583"><ele>634.9999999999999</ele><time>2026-05-02T12:51:41.468Z</time></trkpt><trkpt lat="46.169368" lon="13.4626307"><ele>635.0</ele><time>2026-05-02T12:51:42.47Z</time></trkpt><trkpt lat="46.1694268" lon="13.4627012"><ele>635.0</ele><time>2026-05-02T12:51:43.47Z</time></trkpt><trkpt lat="46.1694842" lon="13.4627535"><ele>635.0</ele><time>2026-05-02T12:51:44.469Z</time></trkpt><trkpt lat="46.1695537" lon="13.4627898"><ele>635.0</ele><time>2026-05-02T12:51:45.47Z</time></trkpt><trkpt lat="46.1696202" lon="13.4628155"><ele>634.9999999999999</ele><time>2026-05-02T12:51:46.468Z</time></trkpt><trkpt lat="46.1696923" lon="13.4628377"><ele>635.0</ele><time>2026-05-02T12:51:47.468Z</time></trkpt><trkpt lat="46.1697875" lon="13.462828"><ele>634.9999999999999</ele><time>2026-05-02T12:51:49.467Z</time></trkpt><trkpt lat="46.169827" lon="13.4627483"><ele>635.0</ele><time>2026-05-02T12:51:51.47Z</time></trkpt><trkpt lat="46.1697655" lon="13.462682"><ele>635.0</ele><time>2026-05-02T12:51:53.47Z</time></trkpt><trkpt lat="46.1697095" lon="13.4626287"><ele>635.0</ele><time>2026-05-02T12:51:54.471Z</time></trkpt><trkpt lat="46.1696518" lon="13.4625445"><ele>635.0</ele><time>2026-05-02T12:51:55.471Z</time></trkpt><trkpt lat="46.1696052" lon="13.4624585"><ele>634.9999999999999</ele><time>2026-05-02T12:51:56.471Z</time></trkpt><trkpt lat="46.1695702" lon="13.46236"><ele>635.0</ele><time>2026-05-02T12:51:57.47Z</time></trkpt><trkpt lat="46.169534" lon="13.462153"><ele>636.8333333333333</ele><time>2026-05-02T12:51:59.469Z</time></trkpt><trkpt lat="46.1695248" lon="13.4620453"><ele>638.6666666666666</ele><time>2026-05-02T12:52:00.469Z</time></trkpt><trkpt lat="46.1695088" lon="13.461943"><ele>640.5</ele><time>2026-05-02T12:52:01.468Z</time></trkpt><trkpt lat="46.1694985" lon="13.461842"><ele>642.3333333333334</ele><time>2026-05-02T12:52:02.469Z</time></trkpt><trkpt lat="46.1694818" lon="13.4617402"><ele>644.1666666666667</ele><time>2026-05-02T12:52:03.47Z</time></trkpt><trkpt lat="46.1694718" lon="13.461621"><ele>646.0</ele><time>2026-05-02T12:52:04.469Z</time></trkpt><trkpt lat="46.1694518" lon="13.4614955"><ele>646.0</ele><time>2026-05-02T12:52:05.469Z</time></trkpt><trkpt lat="46.1694313" lon="13.4613823"><ele>646.0</ele><time>2026-05-02T12:52:06.468Z</time></trkpt><trkpt lat="46.1694065" lon="13.4612552"><ele>646.0</ele><time>2026-05-02T12:52:07.468Z</time></trkpt><trkpt lat="46.169383" lon="13.4611312"><ele>646.0</ele><time>2026-05-02T12:52:08.468Z</time></trkpt><trkpt lat="46.1693665" lon="13.4609952"><ele>646.0</ele><time>2026-05-02T12:52:09.469Z</time></trkpt><trkpt lat="46.1693487" lon="13.4608485"><ele>648.0</ele><time>2026-05-02T12:52:10.467Z</time></trkpt><trkpt lat="46.1693242" lon="13.4607228"><ele>650.0</ele><time>2026-05-02T12:52:11.467Z</time></trkpt><trkpt lat="46.1693068" lon="13.4606148"><ele>652.0</ele><time>2026-05-02T12:52:12.467Z</time></trkpt><trkpt lat="46.1693072" lon="13.4605028"><ele>654.0</ele><time>2026-05-02T12:52:13.466Z</time></trkpt><trkpt lat="46.1693157" lon="13.460409"><ele>656.0</ele><time>2026-05-02T12:52:14.468Z</time></trkpt><trkpt lat="46.1693063" lon="13.460234"><ele>658.0</ele><time>2026-05-02T12:52:16.467Z</time></trkpt><trkpt lat="46.169233" lon="13.4601053"><ele>657.0</ele><time>2026-05-02T12:52:18.468Z</time></trkpt><trkpt lat="46.169121" lon="13.459998"><ele>656.0</ele><time>2026-05-02T12:52:20.47Z</time></trkpt><trkpt lat="46.1690673" lon="13.4599285"><ele>655.0</ele><time>2026-05-02T12:52:21.469Z</time></trkpt><trkpt lat="46.1690173" lon="13.4598575"><ele>654.0</ele><time>2026-05-02T12:52:22.467Z</time></trkpt><trkpt lat="46.1689748" lon="13.4597775"><ele>653.0</ele><time>2026-05-02T12:52:23.467Z</time></trkpt><trkpt lat="46.1689342" lon="13.4596815"><ele>652.0</ele><time>2026-05-02T12:52:24.468Z</time></trkpt><trkpt lat="46.16889" lon="13.4595758"><ele>655.8</ele><time>2026-05-02T12:52:25.467Z</time></trkpt><trkpt lat="46.1688408" lon="13.4594887"><ele>659.6</ele><time>2026-05-02T12:52:26.468Z</time></trkpt><trkpt lat="46.1687625" lon="13.459367"><ele>663.4</ele><time>2026-05-02T12:52:28.468Z</time></trkpt><trkpt lat="46.1687558" lon="13.4592593"><ele>667.1999999999999</ele><time>2026-05-02T12:52:30.469Z</time></trkpt><trkpt lat="46.1688033" lon="13.4591448"><ele>671.0</ele><time>2026-05-02T12:52:32.467Z</time></trkpt><trkpt lat="46.1688538" lon="13.4590227"><ele>671.0</ele><time>2026-05-02T12:52:34.468Z</time></trkpt><trkpt lat="46.1688477" lon="13.4588523"><ele>671.0</ele><time>2026-05-02T12:52:36.467Z</time></trkpt><trkpt lat="46.1687945" lon="13.4586935"><ele>671.0</ele><time>2026-05-02T12:52:38.467Z</time></trkpt><trkpt lat="46.1687085" lon="13.4585627"><ele>671.0</ele><time>2026-05-02T12:52:40.467Z</time></trkpt><trkpt lat="46.1686127" lon="13.4584177"><ele>673.8571428571428</ele><time>2026-05-02T12:52:42.469Z</time></trkpt><trkpt lat="46.1685675" lon="13.4582947"><ele>676.7142857142858</ele><time>2026-05-02T12:52:44.468Z</time></trkpt><trkpt lat="46.1685722" lon="13.4582038"><ele>679.5714285714286</ele><time>2026-05-02T12:52:45.469Z</time></trkpt><trkpt lat="46.168585" lon="13.4581075"><ele>682.4285714285713</ele><time>2026-05-02T12:52:46.468Z</time></trkpt><trkpt lat="46.168584" lon="13.4580012"><ele>685.2857142857142</ele><time>2026-05-02T12:52:47.468Z</time></trkpt><trkpt lat="46.1685617" lon="13.4579035"><ele>688.1428571428571</ele><time>2026-05-02T12:52:48.468Z</time></trkpt><trkpt lat="46.168528" lon="13.4578197"><ele>691.0</ele><time>2026-05-02T12:52:49.467Z</time></trkpt><trkpt lat="46.168468" lon="13.4576493"><ele>693.0</ele><time>2026-05-02T12:52:51.468Z</time></trkpt><trkpt lat="46.1684478" lon="13.4574783"><ele>695.0</ele><time>2026-05-02T12:52:53.467Z</time></trkpt><trkpt lat="46.1684507" lon="13.4573278"><ele>697.0</ele><time>2026-05-02T12:52:55.468Z</time></trkpt><trkpt lat="46.1684358" lon="13.4572037"><ele>699.0</ele><time>2026-05-02T12:52:57.468Z</time></trkpt><trkpt lat="46.168367" lon="13.4571315"><ele>701.0</ele><time>2026-05-02T12:52:59.468Z</time></trkpt><trkpt lat="46.1682995" lon="13.4570625"><ele>699.75</ele><time>2026-05-02T12:53:01.468Z</time></trkpt><trkpt lat="46.1681543" lon="13.4569137"><ele>698.5</ele><time>2026-05-02T12:53:04.469Z</time></trkpt><trkpt lat="46.1680632" lon="13.4567985"><ele>697.25</ele><time>2026-05-02T12:53:06.47Z</time></trkpt><trkpt lat="46.1680175" lon="13.4567035"><ele>696.0</ele><time>2026-05-02T12:53:07.469Z</time></trkpt><trkpt lat="46.1679742" lon="13.4565725"><ele>696.0</ele><time>2026-05-02T12:53:08.469Z</time></trkpt><trkpt lat="46.167934" lon="13.4564613"><ele>696.0</ele><time>2026-05-02T12:53:09.47Z</time></trkpt><trkpt lat="46.1678928" lon="13.4563555"><ele>696.0</ele><time>2026-05-02T12:53:10.469Z</time></trkpt><trkpt lat="46.1678702" lon="13.456228"><ele>696.0</ele><time>2026-05-02T12:53:11.469Z</time></trkpt><trkpt lat="46.167863" lon="13.4560955"><ele>696.0</ele><time>2026-05-02T12:53:12.472Z</time></trkpt><trkpt lat="46.1678657" lon="13.4559673"><ele>696.0</ele><time>2026-05-02T12:53:13.469Z</time></trkpt><trkpt lat="46.167877" lon="13.455861"><ele>698.4</ele><time>2026-05-02T12:53:14.47Z</time></trkpt><trkpt lat="46.1679025" lon="13.4557215"><ele>700.8</ele><time>2026-05-02T12:53:15.47Z</time></trkpt><trkpt lat="46.1679317" lon="13.4555793"><ele>703.1999999999999</ele><time>2026-05-02T12:53:16.47Z</time></trkpt><trkpt lat="46.1679578" lon="13.4554593"><ele>705.5999999999999</ele><time>2026-05-02T12:53:17.471Z</time></trkpt><trkpt lat="46.1679752" lon="13.4553638"><ele>708.0</ele><time>2026-05-02T12:53:18.47Z</time></trkpt><trkpt lat="46.1679583" lon="13.4552015"><ele>709.75</ele><time>2026-05-02T12:53:20.469Z</time></trkpt><trkpt lat="46.167877" lon="13.4550663"><ele>711.5</ele><time>2026-05-02T12:53:22.469Z</time></trkpt><trkpt lat="46.1677145" lon="13.454921"><ele>713.25</ele><time>2026-05-02T12:53:24.468Z</time></trkpt><trkpt lat="46.1676323" lon="13.4548427"><ele>715.0</ele><time>2026-05-02T12:53:25.468Z</time></trkpt><trkpt lat="46.1675422" lon="13.454759"><ele>715.0</ele><time>2026-05-02T12:53:26.468Z</time></trkpt><trkpt lat="46.1674522" lon="13.454674"><ele>715.0</ele><time>2026-05-02T12:53:27.469Z</time></trkpt><trkpt lat="46.1673472" lon="13.4545703"><ele>715.0</ele><time>2026-05-02T12:53:28.469Z</time></trkpt><trkpt lat="46.1672412" lon="13.4544675"><ele>715.0</ele><time>2026-05-02T12:53:29.47Z</time></trkpt><trkpt lat="46.1671305" lon="13.4543708"><ele>715.3333333333334</ele><time>2026-05-02T12:53:30.473Z</time></trkpt><trkpt lat="46.167035" lon="13.454285"><ele>715.6666666666667</ele><time>2026-05-02T12:53:31.47Z</time></trkpt><trkpt lat="46.166955" lon="13.4542017"><ele>716.0</ele><time>2026-05-02T12:53:32.47Z</time></trkpt><trkpt lat="46.1668868" lon="13.454132"><ele>716.3333333333334</ele><time>2026-05-02T12:53:33.47Z</time></trkpt><trkpt lat="46.1668238" lon="13.4540773"><ele>716.6666666666666</ele><time>2026-05-02T12:53:34.469Z</time></trkpt><trkpt lat="46.1667628" lon="13.4540345"><ele>717.0</ele><time>2026-05-02T12:53:35.469Z</time></trkpt><trkpt lat="46.1666473" lon="13.4540107"><ele>714.4000000000001</ele><time>2026-05-02T12:53:37.469Z</time></trkpt><trkpt lat="46.1665192" lon="13.4540458"><ele>711.8000000000001</ele><time>2026-05-02T12:53:39.47Z</time></trkpt><trkpt lat="46.1664512" lon="13.4540745"><ele>709.2</ele><time>2026-05-02T12:53:40.47Z</time></trkpt><trkpt lat="46.1663867" lon="13.4541047"><ele>706.6</ele><time>2026-05-02T12:53:41.471Z</time></trkpt><trkpt lat="46.1663272" lon="13.4541518"><ele>704.0</ele><time>2026-05-02T12:53:42.471Z</time></trkpt><trkpt lat="46.1661937" lon="13.4543803"><ele>704.0</ele><time>2026-05-02T12:53:46.469Z</time></trkpt><trkpt lat="46.1661967" lon="13.4545568"><ele>704.0</ele><time>2026-05-02T12:53:48.469Z</time></trkpt><trkpt lat="46.1661778" lon="13.4547315"><ele>704.0</ele><time>2026-05-02T12:53:50.467Z</time></trkpt><trkpt lat="46.166106" lon="13.4548463"><ele>704.0</ele><time>2026-05-02T12:53:52.468Z</time></trkpt><trkpt lat="46.1660197" lon="13.4548885"><ele>704.0</ele><time>2026-05-02T12:53:54.468Z</time></trkpt><trkpt lat="46.1659197" lon="13.4548407"><ele>704.0</ele><time>2026-05-02T12:53:56.469Z</time></trkpt><trkpt lat="46.1658282" lon="13.454733"><ele>704.0</ele><time>2026-05-02T12:53:58.471Z</time></trkpt><trkpt lat="46.1657745" lon="13.4546572"><ele>704.0</ele><time>2026-05-02T12:53:59.469Z</time></trkpt><trkpt lat="46.16572" lon="13.4545822"><ele>704.0</ele><time>2026-05-02T12:54:00.47Z</time></trkpt><trkpt lat="46.1656653" lon="13.4545097"><ele>704.0</ele><time>2026-05-02T12:54:01.47Z</time></trkpt><trkpt lat="46.1655688" lon="13.4543868"><ele>701.6</ele><time>2026-05-02T12:54:03.47Z</time></trkpt><trkpt lat="46.1654358" lon="13.4542953"><ele>699.2</ele><time>2026-05-02T12:54:05.469Z</time></trkpt><trkpt lat="46.1653627" lon="13.4542722"><ele>696.8000000000001</ele><time>2026-05-02T12:54:06.469Z</time></trkpt><trkpt lat="46.1652757" lon="13.4542642"><ele>694.4000000000001</ele><time>2026-05-02T12:54:07.468Z</time></trkpt><trkpt lat="46.1651902" lon="13.4542655"><ele>692.0</ele><time>2026-05-02T12:54:08.47Z</time></trkpt><trkpt lat="46.165108" lon="13.454256"><ele>692.0</ele><time>2026-05-02T12:54:09.469Z</time></trkpt><trkpt lat="46.1650222" lon="13.4542455"><ele>692.0</ele><time>2026-05-02T12:54:10.469Z</time></trkpt><trkpt lat="46.1649452" lon="13.4542213"><ele>692.0</ele><time>2026-05-02T12:54:11.469Z</time></trkpt><trkpt lat="46.1648687" lon="13.4542022"><ele>692.0</ele><time>2026-05-02T12:54:12.47Z</time></trkpt><trkpt lat="46.1647483" lon="13.454191"><ele>692.0</ele><time>2026-05-02T12:54:14.467Z</time></trkpt><trkpt lat="46.1646472" lon="13.454247"><ele>690.0</ele><time>2026-05-02T12:54:16.465Z</time></trkpt><trkpt lat="46.1645342" lon="13.454327"><ele>688.0</ele><time>2026-05-02T12:54:18.468Z</time></trkpt><trkpt lat="46.1644165" lon="13.4543363"><ele>686.0</ele><time>2026-05-02T12:54:20.468Z</time></trkpt><trkpt lat="46.1643255" lon="13.4543278"><ele>684.0</ele><time>2026-05-02T12:54:22.468Z</time></trkpt><trkpt lat="46.1642817" lon="13.4544507"><ele>682.0</ele><time>2026-05-02T12:54:25.468Z</time></trkpt><trkpt lat="46.1641327" lon="13.4544822"><ele>682.0</ele><time>2026-05-02T12:54:30.47Z</time></trkpt><trkpt lat="46.1640737" lon="13.4544357"><ele>682.0</ele><time>2026-05-02T12:54:31.469Z</time></trkpt><trkpt lat="46.1640183" lon="13.4543845"><ele>682.0</ele><time>2026-05-02T12:54:32.469Z</time></trkpt><trkpt lat="46.1639182" lon="13.4542817"><ele>682.0</ele><time>2026-05-02T12:54:34.468Z</time></trkpt><trkpt lat="46.1638242" lon="13.454241"><ele>682.0</ele><time>2026-05-02T12:54:36.469Z</time></trkpt><trkpt lat="46.1637388" lon="13.4542652"><ele>682.0</ele><time>2026-05-02T12:54:38.467Z</time></trkpt><trkpt lat="46.1636407" lon="13.4543608"><ele>679.0</ele><time>2026-05-02T12:54:40.467Z</time></trkpt><trkpt lat="46.1635435" lon="13.4544237"><ele>676.0</ele><time>2026-05-02T12:54:42.469Z</time></trkpt><trkpt lat="46.1634533" lon="13.4544777"><ele>673.0</ele><time>2026-05-02T12:54:44.469Z</time></trkpt><trkpt lat="46.1634738" lon="13.4546172"><ele>670.0</ele><time>2026-05-02T12:54:47.47Z</time></trkpt><trkpt lat="46.1635872" lon="13.4547975"><ele>665.6</ele><time>2026-05-02T12:54:50.47Z</time></trkpt><trkpt lat="46.1636482" lon="13.454961"><ele>661.2</ele><time>2026-05-02T12:54:52.469Z</time></trkpt><trkpt lat="46.1636875" lon="13.455124"><ele>656.8</ele><time>2026-05-02T12:54:54.473Z</time></trkpt><trkpt lat="46.163727" lon="13.4552258"><ele>652.4</ele><time>2026-05-02T12:54:56.472Z</time></trkpt><trkpt lat="46.16371" lon="13.4553148"><ele>648.0</ele><time>2026-05-02T12:54:58.471Z</time></trkpt><trkpt lat="46.163648" lon="13.4553517"><ele>648.0</ele><time>2026-05-02T12:55:00.472Z</time></trkpt><trkpt lat="46.1635625" lon="13.4553228"><ele>648.0</ele><time>2026-05-02T12:55:02.469Z</time></trkpt><trkpt lat="46.1634718" lon="13.4552387"><ele>648.0</ele><time>2026-05-02T12:55:04.469Z</time></trkpt><trkpt lat="46.1634212" lon="13.4551742"><ele>648.0</ele><time>2026-05-02T12:55:05.468Z</time></trkpt><trkpt lat="46.1633697" lon="13.4551017"><ele>648.0</ele><time>2026-05-02T12:55:06.471Z</time></trkpt><trkpt lat="46.1633073" lon="13.4550387"><ele>648.0</ele><time>2026-05-02T12:55:07.472Z</time></trkpt><trkpt lat="46.1632368" lon="13.4549843"><ele>645.8</ele><time>2026-05-02T12:55:08.471Z</time></trkpt><trkpt lat="46.1630968" lon="13.4549383"><ele>643.5999999999999</ele><time>2026-05-02T12:55:10.47Z</time></trkpt><trkpt lat="46.1630243" lon="13.4549362"><ele>641.4000000000001</ele><time>2026-05-02T12:55:11.471Z</time></trkpt><trkpt lat="46.162944" lon="13.4549503"><ele>639.2</ele><time>2026-05-02T12:55:12.469Z</time></trkpt><trkpt lat="46.1628597" lon="13.454949"><ele>637.0</ele><time>2026-05-02T12:55:13.47Z</time></trkpt><trkpt lat="46.1627857" lon="13.4549405"><ele>637.0</ele><time>2026-05-02T12:55:14.471Z</time></trkpt><trkpt lat="46.1626838" lon="13.4549235"><ele>637.0</ele><time>2026-05-02T12:55:16.469Z</time></trkpt><trkpt lat="46.1626047" lon="13.4549275"><ele>637.0</ele><time>2026-05-02T12:55:18.472Z</time></trkpt><trkpt lat="46.1625192" lon="13.4549345"><ele>637.0</ele><time>2026-05-02T12:55:20.47Z</time></trkpt><trkpt lat="46.1624457" lon="13.4549215"><ele>637.0</ele><time>2026-05-02T12:55:22.469Z</time></trkpt><trkpt lat="46.1623557" lon="13.454924"><ele>637.0</ele><time>2026-05-02T12:55:24.469Z</time></trkpt><trkpt lat="46.162238" lon="13.4549397"><ele>641.0</ele><time>2026-05-02T12:55:26.468Z</time></trkpt><trkpt lat="46.1621787" lon="13.4549913"><ele>645.0</ele><time>2026-05-02T12:55:27.467Z</time></trkpt><trkpt lat="46.1621145" lon="13.455043"><ele>649.0</ele><time>2026-05-02T12:55:28.467Z</time></trkpt><trkpt lat="46.1620463" lon="13.455085"><ele>653.0</ele><time>2026-05-02T12:55:29.467Z</time></trkpt><trkpt lat="46.1619017" lon="13.4551807"><ele>657.0</ele><time>2026-05-02T12:55:31.469Z</time></trkpt><trkpt lat="46.1618315" lon="13.4552235"><ele>657.0</ele><time>2026-05-02T12:55:32.469Z</time></trkpt><trkpt lat="46.161761" lon="13.4552638"><ele>657.0</ele><time>2026-05-02T12:55:33.471Z</time></trkpt><trkpt lat="46.1616887" lon="13.4552993"><ele>657.0</ele><time>2026-05-02T12:55:34.469Z</time></trkpt><trkpt lat="46.1616152" lon="13.4553145"><ele>657.0</ele><time>2026-05-02T12:55:35.469Z</time></trkpt><trkpt lat="46.1615387" lon="13.4553298"><ele>657.0</ele><time>2026-05-02T12:55:36.47Z</time></trkpt><trkpt lat="46.1614597" lon="13.455349"><ele>657.0</ele><time>2026-05-02T12:55:37.47Z</time></trkpt><trkpt lat="46.1613763" lon="13.4553645"><ele>659.0</ele><time>2026-05-02T12:55:38.47Z</time></trkpt><trkpt lat="46.1612923" lon="13.4553797"><ele>661.0</ele><time>2026-05-02T12:55:39.471Z</time></trkpt><trkpt lat="46.1612058" lon="13.4553862"><ele>663.0</ele><time>2026-05-02T12:55:40.471Z</time></trkpt><trkpt lat="46.1611212" lon="13.4554002"><ele>665.0</ele><time>2026-05-02T12:55:41.469Z</time></trkpt><trkpt lat="46.1610377" lon="13.4554283"><ele>667.0</ele><time>2026-05-02T12:55:42.47Z</time></trkpt><trkpt lat="46.160964" lon="13.4554587"><ele>669.0</ele><time>2026-05-02T12:55:43.469Z</time></trkpt><trkpt lat="46.160901" lon="13.4554727"><ele>669.0</ele><time>2026-05-02T12:55:44.47Z</time></trkpt><trkpt lat="46.1608197" lon="13.4554655"><ele>669.0</ele><time>2026-05-02T12:55:45.87Z</time></trkpt><trkpt lat="46.1607083" lon="13.4554353"><ele>669.0</ele><time>2026-05-02T12:55:47.47Z</time></trkpt><trkpt lat="46.1606377" lon="13.4554172"><ele>669.0</ele><time>2026-05-02T12:55:48.47Z</time></trkpt><trkpt lat="46.1605258" lon="13.4554328"><ele>669.0</ele><time>2026-05-02T12:55:50.47Z</time></trkpt><trkpt lat="46.160357" lon="13.4555702"><ele>668.3333333333334</ele><time>2026-05-02T12:55:53.468Z</time></trkpt><trkpt lat="46.1603002" lon="13.4556367"><ele>667.6666666666666</ele><time>2026-05-02T12:55:54.468Z</time></trkpt><trkpt lat="46.160238" lon="13.4556898"><ele>667.0</ele><time>2026-05-02T12:55:55.47Z</time></trkpt><trkpt lat="46.1601693" lon="13.4557545"><ele>666.3333333333333</ele><time>2026-05-02T12:55:56.471Z</time></trkpt><trkpt lat="46.1600962" lon="13.455836"><ele>665.6666666666666</ele><time>2026-05-02T12:55:57.471Z</time></trkpt><trkpt lat="46.1600438" lon="13.4559187"><ele>665.0</ele><time>2026-05-02T12:55:58.471Z</time></trkpt><trkpt lat="46.1600083" lon="13.456008"><ele>665.0</ele><time>2026-05-02T12:55:59.472Z</time></trkpt><trkpt lat="46.1599945" lon="13.456101"><ele>665.0</ele><time>2026-05-02T12:56:00.473Z</time></trkpt><trkpt lat="46.1600055" lon="13.4562067"><ele>665.0</ele><time>2026-05-02T12:56:01.472Z</time></trkpt><trkpt lat="46.1599903" lon="13.4563138"><ele>665.0</ele><time>2026-05-02T12:56:02.471Z</time></trkpt><trkpt lat="46.1599578" lon="13.4564132"><ele>665.0</ele><time>2026-05-02T12:56:03.473Z</time></trkpt><trkpt lat="46.1599095" lon="13.4564915"><ele>665.0</ele><time>2026-05-02T12:56:04.471Z</time></trkpt><trkpt lat="46.1598572" lon="13.4565423"><ele>665.0</ele><time>2026-05-02T12:56:05.47Z</time></trkpt><trkpt lat="46.1597927" lon="13.4565725"><ele>665.0</ele><time>2026-05-02T12:56:06.471Z</time></trkpt><trkpt lat="46.1597137" lon="13.456584"><ele>665.0</ele><time>2026-05-02T12:56:07.471Z</time></trkpt><trkpt lat="46.159623" lon="13.4565778"><ele>665.0</ele><time>2026-05-02T12:56:08.471Z</time></trkpt><trkpt lat="46.1595395" lon="13.456559"><ele>665.0</ele><time>2026-05-02T12:56:09.471Z</time></trkpt><trkpt lat="46.1594517" lon="13.456521"><ele>665.0</ele><time>2026-05-02T12:56:10.472Z</time></trkpt><trkpt lat="46.1593725" lon="13.456468"><ele>665.0</ele><time>2026-05-02T12:56:11.472Z</time></trkpt><trkpt lat="46.1592182" lon="13.4564048"><ele>665.0</ele><time>2026-05-02T12:56:13.471Z</time></trkpt><trkpt lat="46.1591358" lon="13.4564032"><ele>665.0</ele><time>2026-05-02T12:56:14.471Z</time></trkpt><trkpt lat="46.159054" lon="13.4564115"><ele>665.0</ele><time>2026-05-02T12:56:15.471Z</time></trkpt><trkpt lat="46.158974" lon="13.4564087"><ele>665.0</ele><time>2026-05-02T12:56:16.47Z</time></trkpt><trkpt lat="46.1588968" lon="13.4563803"><ele>665.0</ele><time>2026-05-02T12:56:17.469Z</time></trkpt><trkpt lat="46.1588322" lon="13.456337"><ele>665.0</ele><time>2026-05-02T12:56:18.471Z</time></trkpt><trkpt lat="46.1587843" lon="13.4562748"><ele>665.0</ele><time>2026-05-02T12:56:19.472Z</time></trkpt><trkpt lat="46.1587393" lon="13.4561978"><ele>665.0</ele><time>2026-05-02T12:56:20.472Z</time></trkpt><trkpt lat="46.1586933" lon="13.4561062"><ele>665.0</ele><time>2026-05-02T12:56:21.473Z</time></trkpt><trkpt lat="46.1586492" lon="13.4559782"><ele>665.0</ele><time>2026-05-02T12:56:22.473Z</time></trkpt><trkpt lat="46.1585968" lon="13.4558468"><ele>665.0</ele><time>2026-05-02T12:56:23.472Z</time></trkpt><trkpt lat="46.1585427" lon="13.4557075"><ele>665.0</ele><time>2026-05-02T12:56:24.472Z</time></trkpt><trkpt lat="46.158489" lon="13.4555623"><ele>665.0</ele><time>2026-05-02T12:56:25.472Z</time></trkpt><trkpt lat="46.158429" lon="13.4554337"><ele>665.0</ele><time>2026-05-02T12:56:26.47Z</time></trkpt><trkpt lat="46.1583898" lon="13.4553183"><ele>665.0</ele><time>2026-05-02T12:56:27.47Z</time></trkpt><trkpt lat="46.15835" lon="13.4551905"><ele>665.0</ele><time>2026-05-02T12:56:28.469Z</time></trkpt><trkpt lat="46.1583155" lon="13.4550545"><ele>667.8</ele><time>2026-05-02T12:56:29.469Z</time></trkpt><trkpt lat="46.158294" lon="13.4549262"><ele>670.6</ele><time>2026-05-02T12:56:30.471Z</time></trkpt><trkpt lat="46.1582585" lon="13.45481"><ele>673.4000000000001</ele><time>2026-05-02T12:56:31.471Z</time></trkpt><trkpt lat="46.1582245" lon="13.4546983"><ele>676.2</ele><time>2026-05-02T12:56:32.471Z</time></trkpt><trkpt lat="46.1581273" lon="13.4545027"><ele>679.0</ele><time>2026-05-02T12:56:35.468Z</time></trkpt><trkpt lat="46.1580335" lon="13.454536"><ele>678.5</ele><time>2026-05-02T12:56:38.468Z</time></trkpt><trkpt lat="46.1579637" lon="13.4546575"><ele>678.0</ele><time>2026-05-02T12:56:40.467Z</time></trkpt><trkpt lat="46.1579143" lon="13.4547158"><ele>677.5</ele><time>2026-05-02T12:56:41.468Z</time></trkpt><trkpt lat="46.1578657" lon="13.4547868"><ele>677.0</ele><time>2026-05-02T12:56:42.468Z</time></trkpt><trkpt lat="46.1578233" lon="13.4548735"><ele>676.5</ele><time>2026-05-02T12:56:43.468Z</time></trkpt><trkpt lat="46.1577872" lon="13.4549535"><ele>676.0</ele><time>2026-05-02T12:56:44.47Z</time></trkpt><trkpt lat="46.1577215" lon="13.455061"><ele>676.0</ele><time>2026-05-02T12:56:46.471Z</time></trkpt><trkpt lat="46.1576157" lon="13.4550615"><ele>676.0</ele><time>2026-05-02T12:56:48.471Z</time></trkpt><trkpt lat="46.1575425" lon="13.4550192"><ele>676.0</ele><time>2026-05-02T12:56:50.474Z</time></trkpt><trkpt lat="46.1574353" lon="13.4550077"><ele>676.0</ele><time>2026-05-02T12:57:00.472Z</time></trkpt><trkpt lat="46.1572288" lon="13.4550465"><ele>675.0</ele><time>2026-05-02T12:57:05.47Z</time></trkpt><trkpt lat="46.1571498" lon="13.4550445"><ele>674.0</ele><time>2026-05-02T12:57:06.47Z</time></trkpt><trkpt lat="46.1570607" lon="13.45504"><ele>673.0</ele><time>2026-05-02T12:57:07.47Z</time></trkpt><trkpt lat="46.1569608" lon="13.4550363"><ele>672.0</ele><time>2026-05-02T12:57:08.471Z</time></trkpt><trkpt lat="46.1568588" lon="13.4550253"><ele>671.0</ele><time>2026-05-02T12:57:09.474Z</time></trkpt><trkpt lat="46.1567618" lon="13.4550075"><ele>671.0</ele><time>2026-05-02T12:57:10.472Z</time></trkpt><trkpt lat="46.1566635" lon="13.4549852"><ele>671.0</ele><time>2026-05-02T12:57:11.472Z</time></trkpt><trkpt lat="46.1565707" lon="13.4549538"><ele>671.0</ele><time>2026-05-02T12:57:12.471Z</time></trkpt><trkpt lat="46.1564893" lon="13.4549298"><ele>671.0</ele><time>2026-05-02T12:57:13.471Z</time></trkpt><trkpt lat="46.1564097" lon="13.454913"><ele>671.0</ele><time>2026-05-02T12:57:14.472Z</time></trkpt><trkpt lat="46.1563388" lon="13.454915"><ele>671.0</ele><time>2026-05-02T12:57:15.472Z</time></trkpt><trkpt lat="46.1562697" lon="13.454928"><ele>671.5</ele><time>2026-05-02T12:57:16.472Z</time></trkpt><trkpt lat="46.1561975" lon="13.4549317"><ele>672.0</ele><time>2026-05-02T12:57:17.472Z</time></trkpt><trkpt lat="46.156117" lon="13.454929"><ele>672.5</ele><time>2026-05-02T12:57:18.472Z</time></trkpt><trkpt lat="46.1560282" lon="13.454907"><ele>673.0</ele><time>2026-05-02T12:57:19.472Z</time></trkpt><trkpt lat="46.1559318" lon="13.454868"><ele>673.5</ele><time>2026-05-02T12:57:20.472Z</time></trkpt><trkpt lat="46.1558417" lon="13.4548145"><ele>674.0</ele><time>2026-05-02T12:57:21.472Z</time></trkpt><trkpt lat="46.155691" lon="13.4547185"><ele>676.6</ele><time>2026-05-02T12:57:23.473Z</time></trkpt><trkpt lat="46.1555848" lon="13.454656"><ele>679.2</ele><time>2026-05-02T12:57:25.472Z</time></trkpt><trkpt lat="46.155478" lon="13.4546322"><ele>681.8000000000001</ele><time>2026-05-02T12:57:27.472Z</time></trkpt><trkpt lat="46.1554085" lon="13.4546875"><ele>684.4000000000001</ele><time>2026-05-02T12:57:29.47Z</time></trkpt><trkpt lat="46.155335" lon="13.4548547"><ele>687.0</ele><time>2026-05-02T12:57:31.469Z</time></trkpt><trkpt lat="46.1552853" lon="13.454957"><ele>687.0</ele><time>2026-05-02T12:57:32.47Z</time></trkpt><trkpt lat="46.1552303" lon="13.4550663"><ele>687.0</ele><time>2026-05-02T12:57:33.472Z</time></trkpt><trkpt lat="46.1551938" lon="13.4551773"><ele>687.0</ele><time>2026-05-02T12:57:34.471Z</time></trkpt><trkpt lat="46.1551522" lon="13.4552962"><ele>687.0</ele><time>2026-05-02T12:57:35.471Z</time></trkpt><trkpt lat="46.1551177" lon="13.4554032"><ele>687.0</ele><time>2026-05-02T12:57:36.472Z</time></trkpt><trkpt lat="46.1550792" lon="13.4554967"><ele>687.0</ele><time>2026-05-02T12:57:37.472Z</time></trkpt><trkpt lat="46.1549938" lon="13.4556615"><ele>687.5</ele><time>2026-05-02T12:57:39.671Z</time></trkpt><trkpt lat="46.154905" lon="13.4557565"><ele>688.0</ele><time>2026-05-02T12:57:41.472Z</time></trkpt><trkpt lat="46.154834" lon="13.4558038"><ele>688.5</ele><time>2026-05-02T12:57:42.472Z</time></trkpt><trkpt lat="46.1546572" lon="13.4558912"><ele>689.0</ele><time>2026-05-02T12:57:44.472Z</time></trkpt><trkpt lat="46.1545693" lon="13.4559323"><ele>689.0</ele><time>2026-05-02T12:57:45.472Z</time></trkpt><trkpt lat="46.154484" lon="13.455974"><ele>689.0</ele><time>2026-05-02T12:57:46.471Z</time></trkpt><trkpt lat="46.1544083" lon="13.4560333"><ele>689.0</ele><time>2026-05-02T12:57:47.472Z</time></trkpt><trkpt lat="46.1543273" lon="13.4560973"><ele>689.0</ele><time>2026-05-02T12:57:48.473Z</time></trkpt><trkpt lat="46.154248" lon="13.456159"><ele>689.0</ele><time>2026-05-02T12:57:49.472Z</time></trkpt><trkpt lat="46.1541787" lon="13.4562097"><ele>689.0</ele><time>2026-05-02T12:57:50.472Z</time></trkpt><trkpt lat="46.1541092" lon="13.4562537"><ele>689.2</ele><time>2026-05-02T12:57:51.472Z</time></trkpt><trkpt lat="46.1540265" lon="13.4562798"><ele>689.4000000000001</ele><time>2026-05-02T12:57:52.472Z</time></trkpt><trkpt lat="46.1539295" lon="13.4562857"><ele>689.6</ele><time>2026-05-02T12:57:53.473Z</time></trkpt><trkpt lat="46.1538215" lon="13.4562788"><ele>689.8</ele><time>2026-05-02T12:57:54.471Z</time></trkpt><trkpt lat="46.1536988" lon="13.4562665"><ele>690.0</ele><time>2026-05-02T12:57:55.472Z</time></trkpt><trkpt lat="46.1535702" lon="13.4562512"><ele>690.0</ele><time>2026-05-02T12:57:56.473Z</time></trkpt><trkpt lat="46.1534527" lon="13.4562385"><ele>690.0</ele><time>2026-05-02T12:57:57.473Z</time></trkpt><trkpt lat="46.1533495" lon="13.4562288"><ele>690.0</ele><time>2026-05-02T12:57:58.472Z</time></trkpt><trkpt lat="46.1532648" lon="13.4562322"><ele>690.0</ele><time>2026-05-02T12:57:59.473Z</time></trkpt><trkpt lat="46.1531885" lon="13.4562393"><ele>690.0</ele><time>2026-05-02T12:58:00.473Z</time></trkpt><trkpt lat="46.1531202" lon="13.456255"><ele>688.0</ele><time>2026-05-02T12:58:01.473Z</time></trkpt><trkpt lat="46.1530527" lon="13.456299"><ele>686.0</ele><time>2026-05-02T12:58:02.472Z</time></trkpt><trkpt lat="46.1529917" lon="13.4563697"><ele>684.0</ele><time>2026-05-02T12:58:03.671Z</time></trkpt><trkpt lat="46.1528858" lon="13.456598"><ele>682.0</ele><time>2026-05-02T12:58:06.277Z</time></trkpt><trkpt lat="46.152837" lon="13.4566962"><ele>680.0</ele><time>2026-05-02T12:58:07.279Z</time></trkpt><trkpt lat="46.1527883" lon="13.456798"><ele>680.0</ele><time>2026-05-02T12:58:08.28Z</time></trkpt><trkpt lat="46.1527452" lon="13.4568985"><ele>680.0</ele><time>2026-05-02T12:58:09.278Z</time></trkpt><trkpt lat="46.1527" lon="13.4569965"><ele>680.0</ele><time>2026-05-02T12:58:10.279Z</time></trkpt><trkpt lat="46.1526505" lon="13.457091"><ele>680.0</ele><time>2026-05-02T12:58:11.278Z</time></trkpt><trkpt lat="46.1526088" lon="13.4571807"><ele>680.0</ele><time>2026-05-02T12:58:12.278Z</time></trkpt><trkpt lat="46.1525665" lon="13.4572698"><ele>680.0</ele><time>2026-05-02T12:58:13.279Z</time></trkpt><trkpt lat="46.152516" lon="13.4573442"><ele>680.3333333333333</ele><time>2026-05-02T12:58:14.28Z</time></trkpt><trkpt lat="46.1524563" lon="13.4574058"><ele>680.6666666666666</ele><time>2026-05-02T12:58:15.278Z</time></trkpt><trkpt lat="46.1523827" lon="13.4574588"><ele>681.0</ele><time>2026-05-02T12:58:16.281Z</time></trkpt><trkpt lat="46.1523005" lon="13.4574893"><ele>681.3333333333334</ele><time>2026-05-02T12:58:17.28Z</time></trkpt><trkpt lat="46.1522167" lon="13.4575193"><ele>681.6666666666667</ele><time>2026-05-02T12:58:18.281Z</time></trkpt><trkpt lat="46.1521383" lon="13.4575578"><ele>682.0</ele><time>2026-05-02T12:58:19.28Z</time></trkpt><trkpt lat="46.1520555" lon="13.4575815"><ele>682.0</ele><time>2026-05-02T12:58:20.282Z</time></trkpt><trkpt lat="46.151973" lon="13.4575773"><ele>682.0</ele><time>2026-05-02T12:58:21.282Z</time></trkpt><trkpt lat="46.1518998" lon="13.457551"><ele>682.0</ele><time>2026-05-02T12:58:22.281Z</time></trkpt><trkpt lat="46.1518328" lon="13.4575057"><ele>682.0</ele><time>2026-05-02T12:58:23.281Z</time></trkpt><trkpt lat="46.1517767" lon="13.4574552"><ele>682.0</ele><time>2026-05-02T12:58:24.282Z</time></trkpt><trkpt lat="46.1516053" lon="13.4573535"><ele>682.0</ele><time>2026-05-02T12:58:28.277Z</time></trkpt><trkpt lat="46.1515172" lon="13.4573798"><ele>682.0</ele><time>2026-05-02T12:58:30.278Z</time></trkpt><trkpt lat="46.1514195" lon="13.4574515"><ele>682.0</ele><time>2026-05-02T12:58:32.281Z</time></trkpt><trkpt lat="46.1513623" lon="13.4575212"><ele>682.0</ele><time>2026-05-02T12:58:34.281Z</time></trkpt><trkpt lat="46.151291" lon="13.4575755"><ele>682.0</ele><time>2026-05-02T12:58:36.281Z</time></trkpt><trkpt lat="46.1511872" lon="13.4575902"><ele>682.0</ele><time>2026-05-02T12:58:38.281Z</time></trkpt><trkpt lat="46.151115" lon="13.457585"><ele>682.0</ele><time>2026-05-02T12:58:39.281Z</time></trkpt><trkpt lat="46.151027" lon="13.457577"><ele>682.0</ele><time>2026-05-02T12:58:40.279Z</time></trkpt><trkpt lat="46.1509358" lon="13.4575573"><ele>682.0</ele><time>2026-05-02T12:58:41.28Z</time></trkpt><trkpt lat="46.1508377" lon="13.4575403"><ele>682.0</ele><time>2026-05-02T12:58:42.28Z</time></trkpt><trkpt lat="46.1507378" lon="13.4575435"><ele>681.25</ele><time>2026-05-02T12:58:43.278Z</time></trkpt><trkpt lat="46.1506373" lon="13.4575633"><ele>680.5</ele><time>2026-05-02T12:58:44.279Z</time></trkpt><trkpt lat="46.1505395" lon="13.4575832"><ele>679.75</ele><time>2026-05-02T12:58:45.278Z</time></trkpt><trkpt lat="46.1504427" lon="13.4575827"><ele>679.0</ele><time>2026-05-02T12:58:46.278Z</time></trkpt><trkpt lat="46.150272" lon="13.457549"><ele>679.0</ele><time>2026-05-02T12:58:48.278Z</time></trkpt><trkpt lat="46.1501928" lon="13.4575452"><ele>679.0</ele><time>2026-05-02T12:58:49.28Z</time></trkpt><trkpt lat="46.1501168" lon="13.4575683"><ele>679.0</ele><time>2026-05-02T12:58:50.28Z</time></trkpt><trkpt lat="46.1500438" lon="13.4576155"><ele>679.0</ele><time>2026-05-02T12:58:51.279Z</time></trkpt><trkpt lat="46.1499648" lon="13.4576908"><ele>679.0</ele><time>2026-05-02T12:58:52.276Z</time></trkpt><trkpt lat="46.1498725" lon="13.4577732"><ele>679.0</ele><time>2026-05-02T12:58:53.276Z</time></trkpt><trkpt lat="46.1497633" lon="13.457864"><ele>677.25</ele><time>2026-05-02T12:58:54.276Z</time></trkpt><trkpt lat="46.1496515" lon="13.4579597"><ele>675.5</ele><time>2026-05-02T12:58:55.277Z</time></trkpt><trkpt lat="46.1495387" lon="13.4580462"><ele>673.75</ele><time>2026-05-02T12:58:56.278Z</time></trkpt><trkpt lat="46.1494303" lon="13.4581098"><ele>672.0</ele><time>2026-05-02T12:58:57.279Z</time></trkpt><trkpt lat="46.1493147" lon="13.45817"><ele>672.0</ele><time>2026-05-02T12:58:58.47Z</time></trkpt><trkpt lat="46.14923" lon="13.4582433"><ele>672.0</ele><time>2026-05-02T12:58:59.47Z</time></trkpt><trkpt lat="46.1491515" lon="13.458339"><ele>672.0</ele><time>2026-05-02T12:59:00.469Z</time></trkpt><trkpt lat="46.149085" lon="13.4584543"><ele>672.0</ele><time>2026-05-02T12:59:01.469Z</time></trkpt><trkpt lat="46.1490372" lon="13.4585822"><ele>672.0</ele><time>2026-05-02T12:59:02.469Z</time></trkpt><trkpt lat="46.1490122" lon="13.4587348"><ele>670.0</ele><time>2026-05-02T12:59:03.47Z</time></trkpt><trkpt lat="46.1489948" lon="13.4588838"><ele>668.0</ele><time>2026-05-02T12:59:04.47Z</time></trkpt><trkpt lat="46.1489603" lon="13.4590142"><ele>666.0</ele><time>2026-05-02T12:59:05.471Z</time></trkpt><trkpt lat="46.148901" lon="13.459106"><ele>664.0</ele><time>2026-05-02T12:59:06.47Z</time></trkpt><trkpt lat="46.1488225" lon="13.4591755"><ele>662.0</ele><time>2026-05-02T12:59:07.468Z</time></trkpt><trkpt lat="46.14864" lon="13.4592902"><ele>662.0</ele><time>2026-05-02T12:59:09.468Z</time></trkpt><trkpt lat="46.1485148" lon="13.459345"><ele>662.0</ele><time>2026-05-02T12:59:10.468Z</time></trkpt><trkpt lat="46.1483828" lon="13.459415"><ele>662.0</ele><time>2026-05-02T12:59:11.47Z</time></trkpt><trkpt lat="46.148255" lon="13.4594837"><ele>662.0</ele><time>2026-05-02T12:59:12.47Z</time></trkpt><trkpt lat="46.148131" lon="13.459554"><ele>663.25</ele><time>2026-05-02T12:59:13.471Z</time></trkpt><trkpt lat="46.1480072" lon="13.459623"><ele>664.5</ele><time>2026-05-02T12:59:14.469Z</time></trkpt><trkpt lat="46.1478937" lon="13.4597175"><ele>665.75</ele><time>2026-05-02T12:59:15.47Z</time></trkpt><trkpt lat="46.1477705" lon="13.45982"><ele>667.0</ele><time>2026-05-02T12:59:16.469Z</time></trkpt><trkpt lat="46.1476585" lon="13.4599395"><ele>667.0</ele><time>2026-05-02T12:59:17.47Z</time></trkpt><trkpt lat="46.1475557" lon="13.4600592"><ele>667.0</ele><time>2026-05-02T12:59:18.469Z</time></trkpt><trkpt lat="46.1474623" lon="13.4601697"><ele>667.0</ele><time>2026-05-02T12:59:19.469Z</time></trkpt><trkpt lat="46.1473682" lon="13.460264"><ele>667.0</ele><time>2026-05-02T12:59:20.468Z</time></trkpt><trkpt lat="46.147277" lon="13.4603348"><ele>666.0</ele><time>2026-05-02T12:59:21.468Z</time></trkpt><trkpt lat="46.1471595" lon="13.4603797"><ele>665.0</ele><time>2026-05-02T12:59:22.468Z</time></trkpt><trkpt lat="46.1470343" lon="13.4604092"><ele>664.0</ele><time>2026-05-02T12:59:23.468Z</time></trkpt><trkpt lat="46.1469135" lon="13.4604465"><ele>663.0</ele><time>2026-05-02T12:59:24.47Z</time></trkpt><trkpt lat="46.1467947" lon="13.4604852"><ele>663.0</ele><time>2026-05-02T12:59:25.47Z</time></trkpt><trkpt lat="46.1466725" lon="13.4605187"><ele>663.0</ele><time>2026-05-02T12:59:26.471Z</time></trkpt><trkpt lat="46.146553" lon="13.4605463"><ele>663.0</ele><time>2026-05-02T12:59:27.471Z</time></trkpt><trkpt lat="46.1464513" lon="13.4605863"><ele>663.0</ele><time>2026-05-02T12:59:28.471Z</time></trkpt><trkpt lat="46.146314" lon="13.4606582"><ele>661.8</ele><time>2026-05-02T12:59:30.471Z</time></trkpt><trkpt lat="46.1462423" lon="13.4606707"><ele>660.5999999999999</ele><time>2026-05-02T12:59:32.469Z</time></trkpt><trkpt lat="46.146182" lon="13.4606993"><ele>659.4000000000001</ele><time>2026-05-02T12:59:43.471Z</time></trkpt><trkpt lat="46.1461067" lon="13.4606638"><ele>658.2</ele><time>2026-05-02T13:00:04.483Z</time></trkpt><trkpt lat="46.1459185" lon="13.4605185"><ele>657.0</ele><time>2026-05-02T13:00:08.474Z</time></trkpt><trkpt lat="46.1458093" lon="13.4604735"><ele>655.0</ele><time>2026-05-02T13:00:10.473Z</time></trkpt><trkpt lat="46.1457327" lon="13.4604197"><ele>653.0</ele><time>2026-05-02T13:00:12.472Z</time></trkpt><trkpt lat="46.1456697" lon="13.460361"><ele>651.0</ele><time>2026-05-02T13:00:14.471Z</time></trkpt><trkpt lat="46.1455998" lon="13.4603353"><ele>649.0</ele><time>2026-05-02T13:00:16.472Z</time></trkpt><trkpt lat="46.1455138" lon="13.4603537"><ele>647.0</ele><time>2026-05-02T13:00:18.473Z</time></trkpt><trkpt lat="46.145442" lon="13.4603822"><ele>645.0</ele><time>2026-05-02T13:00:20.471Z</time></trkpt><trkpt lat="46.1453583" lon="13.4603718"><ele>645.0</ele><time>2026-05-02T13:00:22.47Z</time></trkpt><trkpt lat="46.145254" lon="13.4603315"><ele>645.0</ele><time>2026-05-02T13:00:24.47Z</time></trkpt><trkpt lat="46.14515" lon="13.4602847"><ele>645.0</ele><time>2026-05-02T13:00:26.47Z</time></trkpt><trkpt lat="46.1449387" lon="13.4601455"><ele>645.0</ele><time>2026-05-02T13:00:30.469Z</time></trkpt><trkpt lat="46.1448518" lon="13.4600583"><ele>646.0</ele><time>2026-05-02T13:00:32.47Z</time></trkpt><trkpt lat="46.14477" lon="13.4599335"><ele>647.0</ele><time>2026-05-02T13:00:34.471Z</time></trkpt><trkpt lat="46.1447362" lon="13.4598493"><ele>648.0</ele><time>2026-05-02T13:00:35.471Z</time></trkpt><trkpt lat="46.1446942" lon="13.4596888"><ele>649.0</ele><time>2026-05-02T13:00:37.471Z</time></trkpt><trkpt lat="46.1446587" lon="13.4595907"><ele>650.0</ele><time>2026-05-02T13:00:38.471Z</time></trkpt><trkpt lat="46.1446187" lon="13.4595028"><ele>650.0</ele><time>2026-05-02T13:00:39.471Z</time></trkpt><trkpt lat="46.1445758" lon="13.459413"><ele>650.0</ele><time>2026-05-02T13:00:40.471Z</time></trkpt><trkpt lat="46.144519" lon="13.459254"><ele>650.0</ele><time>2026-05-02T13:00:42.471Z</time></trkpt><trkpt lat="46.1444522" lon="13.4591083"><ele>650.0</ele><time>2026-05-02T13:00:44.47Z</time></trkpt><trkpt lat="46.1443615" lon="13.4589905"><ele>650.0</ele><time>2026-05-02T13:00:46.468Z</time></trkpt><trkpt lat="46.1442952" lon="13.4588597"><ele>647.5</ele><time>2026-05-02T13:00:48.469Z</time></trkpt><trkpt lat="46.1441117" lon="13.4586332"><ele>645.0</ele><time>2026-05-02T13:00:52.47Z</time></trkpt><trkpt lat="46.1440507" lon="13.4585872"><ele>642.5</ele><time>2026-05-02T13:00:53.47Z</time></trkpt><trkpt lat="46.1439892" lon="13.4585502"><ele>640.0</ele><time>2026-05-02T13:00:54.47Z</time></trkpt><trkpt lat="46.1438562" lon="13.4584813"><ele>640.0</ele><time>2026-05-02T13:00:56.469Z</time></trkpt><trkpt lat="46.1437833" lon="13.4584413"><ele>640.0</ele><time>2026-05-02T13:00:57.468Z</time></trkpt><trkpt lat="46.1437077" lon="13.4584017"><ele>640.0</ele><time>2026-05-02T13:00:58.469Z</time></trkpt><trkpt lat="46.1436348" lon="13.4583572"><ele>640.0</ele><time>2026-05-02T13:00:59.47Z</time></trkpt><trkpt lat="46.1435717" lon="13.458319"><ele>640.0</ele><time>2026-05-02T13:01:00.469Z</time></trkpt><trkpt lat="46.1435103" lon="13.4582857"><ele>640.0</ele><time>2026-05-02T13:01:01.469Z</time></trkpt><trkpt lat="46.1433798" lon="13.4581945"><ele>640.0</ele><time>2026-05-02T13:01:03.47Z</time></trkpt><trkpt lat="46.1433025" lon="13.4581592"><ele>640.0</ele><time>2026-05-02T13:01:04.469Z</time></trkpt><trkpt lat="46.1432275" lon="13.4581212"><ele>640.0</ele><time>2026-05-02T13:01:05.47Z</time></trkpt><trkpt lat="46.143153" lon="13.458081"><ele>640.0</ele><time>2026-05-02T13:01:06.47Z</time></trkpt><trkpt lat="46.1430768" lon="13.4580365"><ele>640.0</ele><time>2026-05-02T13:01:07.469Z</time></trkpt><trkpt lat="46.1430045" lon="13.4580025"><ele>640.0</ele><time>2026-05-02T13:01:08.468Z</time></trkpt><trkpt lat="46.1428817" lon="13.4579082"><ele>631.0</ele><time>2026-05-02T13:01:10.466Z</time></trkpt><trkpt lat="46.1426578" lon="13.4577663"><ele>622.0</ele><time>2026-05-02T13:01:14.468Z</time></trkpt><trkpt lat="46.1424872" lon="13.4577925"><ele>613.0</ele><time>2026-05-02T13:01:17.277Z</time></trkpt><trkpt lat="46.1424242" lon="13.4578387"><ele>610.0</ele><time>2026-05-02T13:01:18.275Z</time></trkpt><trkpt lat="46.1423605" lon="13.4578785"><ele>607.0</ele><time>2026-05-02T13:01:19.274Z</time></trkpt><trkpt lat="46.142236" lon="13.457918"><ele>604.0</ele><time>2026-05-02T13:01:21.275Z</time></trkpt><trkpt lat="46.142113" lon="13.4579522"><ele>601.0</ele><time>2026-05-02T13:01:23.277Z</time></trkpt><trkpt lat="46.1420455" lon="13.457969"><ele>598.0</ele><time>2026-05-02T13:01:24.276Z</time></trkpt><trkpt lat="46.1419395" lon="13.4580035"><ele>600.5</ele><time>2026-05-02T13:01:26.277Z</time></trkpt><trkpt lat="46.1418202" lon="13.4580448"><ele>603.0</ele><time>2026-05-02T13:01:28.276Z</time></trkpt><trkpt lat="46.1417337" lon="13.4581"><ele>605.5</ele><time>2026-05-02T13:01:30.277Z</time></trkpt><trkpt lat="46.1416458" lon="13.4581692"><ele>608.0</ele><time>2026-05-02T13:01:32.277Z</time></trkpt><trkpt lat="46.141429" lon="13.4582552"><ele>608.0</ele><time>2026-05-02T13:01:36.278Z</time></trkpt><trkpt lat="46.1413373" lon="13.4582712"><ele>608.0</ele><time>2026-05-02T13:01:38.277Z</time></trkpt><trkpt lat="46.141228" lon="13.4582923"><ele>608.0</ele><time>2026-05-02T13:01:40.276Z</time></trkpt><trkpt lat="46.141164" lon="13.4582952"><ele>608.0</ele><time>2026-05-02T13:01:41.278Z</time></trkpt><trkpt lat="46.1410585" lon="13.4583177"><ele>608.0</ele><time>2026-05-02T13:01:43.275Z</time></trkpt><trkpt lat="46.1409462" lon="13.4583268"><ele>608.0</ele><time>2026-05-02T13:01:45.275Z</time></trkpt><trkpt lat="46.1408232" lon="13.4583143"><ele>608.0</ele><time>2026-05-02T13:01:47.278Z</time></trkpt><trkpt lat="46.1407123" lon="13.4582825"><ele>608.0</ele><time>2026-05-02T13:01:49.276Z</time></trkpt><trkpt lat="46.1406058" lon="13.4582385"><ele>608.0</ele><time>2026-05-02T13:01:51.276Z</time></trkpt><trkpt lat="46.1404855" lon="13.4582053"><ele>607.25</ele><time>2026-05-02T13:01:53.278Z</time></trkpt><trkpt lat="46.1402453" lon="13.4581542"><ele>606.5</ele><time>2026-05-02T13:01:57.279Z</time></trkpt><trkpt lat="46.140156" lon="13.4581472"><ele>605.75</ele><time>2026-05-02T13:01:58.469Z</time></trkpt><trkpt lat="46.1400838" lon="13.4581443"><ele>605.0</ele><time>2026-05-02T13:01:59.469Z</time></trkpt><trkpt lat="46.1400107" lon="13.4581448"><ele>605.0</ele><time>2026-05-02T13:02:00.469Z</time></trkpt><trkpt lat="46.1399353" lon="13.4581503"><ele>605.0</ele><time>2026-05-02T13:02:01.469Z</time></trkpt><trkpt lat="46.1398595" lon="13.4581605"><ele>605.0</ele><time>2026-05-02T13:02:02.469Z</time></trkpt><trkpt lat="46.1397852" lon="13.4581742"><ele>605.0</ele><time>2026-05-02T13:02:03.472Z</time></trkpt><trkpt lat="46.1397195" lon="13.4581852"><ele>605.0</ele><time>2026-05-02T13:02:04.47Z</time></trkpt><trkpt lat="46.1396153" lon="13.4582173"><ele>605.0</ele><time>2026-05-02T13:02:06.47Z</time></trkpt><trkpt lat="46.139515" lon="13.4582562"><ele>601.4</ele><time>2026-05-02T13:02:08.47Z</time></trkpt><trkpt lat="46.1394447" lon="13.45829"><ele>597.8</ele><time>2026-05-02T13:02:09.87Z</time></trkpt><trkpt lat="46.1393692" lon="13.4583418"><ele>594.2</ele><time>2026-05-02T13:02:11.469Z</time></trkpt><trkpt lat="46.1392848" lon="13.4583978"><ele>590.6</ele><time>2026-05-02T13:02:13.47Z</time></trkpt><trkpt lat="46.1392035" lon="13.4584507"><ele>587.0</ele><time>2026-05-02T13:02:15.469Z</time></trkpt><trkpt lat="46.1390297" lon="13.458568"><ele>583.6666666666666</ele><time>2026-05-02T13:02:19.47Z</time></trkpt><trkpt lat="46.138921" lon="13.4585855"><ele>580.3333333333333</ele><time>2026-05-02T13:02:21.47Z</time></trkpt><trkpt lat="46.1387978" lon="13.4585528"><ele>577.0</ele><time>2026-05-02T13:02:23.468Z</time></trkpt><trkpt lat="46.1387342" lon="13.4585338"><ele>573.6666666666666</ele><time>2026-05-02T13:02:24.468Z</time></trkpt><trkpt lat="46.1386635" lon="13.4585235"><ele>570.3333333333334</ele><time>2026-05-02T13:02:25.468Z</time></trkpt><trkpt lat="46.1385978" lon="13.4585093"><ele>567.0</ele><time>2026-05-02T13:02:26.468Z</time></trkpt><trkpt lat="46.1384652" lon="13.4584705"><ele>567.0</ele><time>2026-05-02T13:02:28.47Z</time></trkpt><trkpt lat="46.138389" lon="13.4584508"><ele>567.0</ele><time>2026-05-02T13:02:29.47Z</time></trkpt><trkpt lat="46.1383177" lon="13.4584297"><ele>567.0</ele><time>2026-05-02T13:02:30.47Z</time></trkpt><trkpt lat="46.138251" lon="13.458412"><ele>567.0</ele><time>2026-05-02T13:02:31.47Z</time></trkpt><trkpt lat="46.1381303" lon="13.4584015"><ele>567.0</ele><time>2026-05-02T13:02:33.47Z</time></trkpt><trkpt lat="46.1380225" lon="13.4584153"><ele>567.0</ele><time>2026-05-02T13:02:35.47Z</time></trkpt><trkpt lat="46.137889" lon="13.458423"><ele>565.5</ele><time>2026-05-02T13:02:37.47Z</time></trkpt><trkpt lat="46.1377618" lon="13.4584458"><ele>564.0</ele><time>2026-05-02T13:02:39.471Z</time></trkpt><trkpt lat="46.1376462" lon="13.4584823"><ele>562.5</ele><time>2026-05-02T13:02:41.471Z</time></trkpt><trkpt lat="46.1375388" lon="13.4585138"><ele>561.0</ele><time>2026-05-02T13:02:43.469Z</time></trkpt><trkpt lat="46.137445" lon="13.4585373"><ele>558.6</ele><time>2026-05-02T13:02:45.47Z</time></trkpt><trkpt lat="46.1373563" lon="13.458576"><ele>556.2</ele><time>2026-05-02T13:02:47.471Z</time></trkpt><trkpt lat="46.1372532" lon="13.4586112"><ele>553.8</ele><time>2026-05-02T13:02:49.468Z</time></trkpt><trkpt lat="46.1371372" lon="13.4586517"><ele>551.4</ele><time>2026-05-02T13:02:51.47Z</time></trkpt><trkpt lat="46.1370117" lon="13.458686"><ele>549.0</ele><time>2026-05-02T13:02:53.47Z</time></trkpt><trkpt lat="46.1369087" lon="13.4587277"><ele>552.0</ele><time>2026-05-02T13:02:55.471Z</time></trkpt><trkpt lat="46.1368013" lon="13.458791"><ele>555.0</ele><time>2026-05-02T13:02:57.471Z</time></trkpt><trkpt lat="46.1366998" lon="13.458854"><ele>558.0</ele><time>2026-05-02T13:02:59.47Z</time></trkpt><trkpt lat="46.1365493" lon="13.4589285"><ele>561.0</ele><time>2026-05-02T13:03:02.47Z</time></trkpt><trkpt lat="46.1364797" lon="13.4589263"><ele>561.0</ele><time>2026-05-02T13:03:03.47Z</time></trkpt><trkpt lat="46.1363727" lon="13.4589075"><ele>561.0</ele><time>2026-05-02T13:03:05.469Z</time></trkpt><trkpt lat="46.1362853" lon="13.4588838"><ele>561.0</ele><time>2026-05-02T13:03:07.469Z</time></trkpt><trkpt lat="46.1362218" lon="13.4588612"><ele>561.0</ele><time>2026-05-02T13:03:08.869Z</time></trkpt><trkpt lat="46.136153" lon="13.4588027"><ele>561.0</ele><time>2026-05-02T13:03:10.47Z</time></trkpt><trkpt lat="46.1360967" lon="13.4586843"><ele>561.0</ele><time>2026-05-02T13:03:12.468Z</time></trkpt><trkpt lat="46.1360842" lon="13.4585407"><ele>561.0</ele><time>2026-05-02T13:03:14.467Z</time></trkpt><trkpt lat="46.1361008" lon="13.4584452"><ele>561.0</ele><time>2026-05-02T13:03:15.468Z</time></trkpt><trkpt lat="46.1361283" lon="13.4583387"><ele>561.0</ele><time>2026-05-02T13:03:16.47Z</time></trkpt><trkpt lat="46.1361487" lon="13.458222"><ele>561.0</ele><time>2026-05-02T13:03:17.47Z</time></trkpt><trkpt lat="46.136158" lon="13.458101"><ele>561.0</ele><time>2026-05-02T13:03:18.472Z</time></trkpt><trkpt lat="46.136158" lon="13.4579858"><ele>561.0</ele><time>2026-05-02T13:03:19.471Z</time></trkpt><trkpt lat="46.136157" lon="13.4578792"><ele>561.0</ele><time>2026-05-02T13:03:20.471Z</time></trkpt><trkpt lat="46.1361583" lon="13.4576283"><ele>561.0</ele><time>2026-05-02T13:03:22.47Z</time></trkpt><trkpt lat="46.1361598" lon="13.4573797"><ele>561.0</ele><time>2026-05-02T13:03:24.471Z</time></trkpt><trkpt lat="46.136161" lon="13.4572467"><ele>561.0</ele><time>2026-05-02T13:03:25.47Z</time></trkpt><trkpt lat="46.13616" lon="13.4571228"><ele>560.1666666666666</ele><time>2026-05-02T13:03:26.472Z</time></trkpt><trkpt lat="46.1361518" lon="13.4570115"><ele>559.3333333333334</ele><time>2026-05-02T13:03:27.47Z</time></trkpt><trkpt lat="46.1361443" lon="13.4568915"><ele>558.5</ele><time>2026-05-02T13:03:28.471Z</time></trkpt><trkpt lat="46.1361452" lon="13.4567813"><ele>557.6666666666667</ele><time>2026-05-02T13:03:29.471Z</time></trkpt><trkpt lat="46.1361505" lon="13.4566702"><ele>556.8333333333334</ele><time>2026-05-02T13:03:30.472Z</time></trkpt><trkpt lat="46.1361445" lon="13.456537"><ele>556.0</ele><time>2026-05-02T13:03:31.471Z</time></trkpt><trkpt lat="46.1361603" lon="13.4563842"><ele>554.8</ele><time>2026-05-02T13:03:32.471Z</time></trkpt><trkpt lat="46.1361672" lon="13.4562447"><ele>553.6</ele><time>2026-05-02T13:03:33.472Z</time></trkpt><trkpt lat="46.1361792" lon="13.4561243"><ele>552.4</ele><time>2026-05-02T13:03:34.472Z</time></trkpt><trkpt lat="46.1361852" lon="13.4560228"><ele>551.2</ele><time>2026-05-02T13:03:35.471Z</time></trkpt><trkpt lat="46.1361705" lon="13.4558492"><ele>550.0</ele><time>2026-05-02T13:03:37.468Z</time></trkpt><trkpt lat="46.136101" lon="13.455692"><ele>550.0</ele><time>2026-05-02T13:03:39.47Z</time></trkpt><trkpt lat="46.1360537" lon="13.4556055"><ele>550.0</ele><time>2026-05-02T13:03:40.469Z</time></trkpt><trkpt lat="46.1359942" lon="13.4555132"><ele>550.0</ele><time>2026-05-02T13:03:41.471Z</time></trkpt><trkpt lat="46.1358778" lon="13.455338"><ele>550.0</ele><time>2026-05-02T13:03:43.471Z</time></trkpt><trkpt lat="46.1358332" lon="13.4552585"><ele>550.0</ele><time>2026-05-02T13:03:44.469Z</time></trkpt><trkpt lat="46.135761" lon="13.4551203"><ele>548.4</ele><time>2026-05-02T13:03:46.469Z</time></trkpt><trkpt lat="46.1356825" lon="13.4549678"><ele>546.8</ele><time>2026-05-02T13:03:48.469Z</time></trkpt><trkpt lat="46.1356363" lon="13.4548893"><ele>545.2</ele><time>2026-05-02T13:03:49.47Z</time></trkpt><trkpt lat="46.1355948" lon="13.4548048"><ele>543.6</ele><time>2026-05-02T13:03:50.47Z</time></trkpt><trkpt lat="46.1355262" lon="13.4546663"><ele>542.0</ele><time>2026-05-02T13:03:52.469Z</time></trkpt><trkpt lat="46.1354575" lon="13.4545755"><ele>538.2</ele><time>2026-05-02T13:03:54.47Z</time></trkpt><trkpt lat="46.1353802" lon="13.4545087"><ele>534.4000000000001</ele><time>2026-05-02T13:03:57.47Z</time></trkpt><trkpt lat="46.1353018" lon="13.4544762"><ele>530.5999999999999</ele><time>2026-05-02T13:03:59.469Z</time></trkpt><trkpt lat="46.1351877" lon="13.4544447"><ele>526.8</ele><time>2026-05-02T13:04:01.468Z</time></trkpt><trkpt lat="46.1350777" lon="13.4544117"><ele>523.0</ele><time>2026-05-02T13:04:03.468Z</time></trkpt><trkpt lat="46.134923" lon="13.4543025"><ele>523.0</ele><time>2026-05-02T13:04:07.471Z</time></trkpt><trkpt lat="46.134911" lon="13.4541492"><ele>523.0</ele><time>2026-05-02T13:04:09.471Z</time></trkpt><trkpt lat="46.1349285" lon="13.4540562"><ele>523.0</ele><time>2026-05-02T13:04:10.47Z</time></trkpt><trkpt lat="46.134969" lon="13.45396"><ele>523.0</ele><time>2026-05-02T13:04:11.472Z</time></trkpt><trkpt lat="46.1350153" lon="13.4538592"><ele>523.0</ele><time>2026-05-02T13:04:12.472Z</time></trkpt><trkpt lat="46.1350615" lon="13.4537653"><ele>523.0</ele><time>2026-05-02T13:04:13.471Z</time></trkpt><trkpt lat="46.135105" lon="13.4536628"><ele>521.0</ele><time>2026-05-02T13:04:14.47Z</time></trkpt><trkpt lat="46.1351555" lon="13.4535493"><ele>519.0</ele><time>2026-05-02T13:04:15.472Z</time></trkpt><trkpt lat="46.1352032" lon="13.4534322"><ele>517.0</ele><time>2026-05-02T13:04:16.471Z</time></trkpt><trkpt lat="46.1352465" lon="13.453322"><ele>515.0</ele><time>2026-05-02T13:04:17.47Z</time></trkpt><trkpt lat="46.1352773" lon="13.4532178"><ele>513.0</ele><time>2026-05-02T13:04:18.471Z</time></trkpt><trkpt lat="46.1352998" lon="13.4531127"><ele>511.0</ele><time>2026-05-02T13:04:19.47Z</time></trkpt><trkpt lat="46.1353127" lon="13.4530027"><ele>510.0</ele><time>2026-05-02T13:04:20.471Z</time></trkpt><trkpt lat="46.1353177" lon="13.452892"><ele>509.0</ele><time>2026-05-02T13:04:21.471Z</time></trkpt><trkpt lat="46.135319" lon="13.4527822"><ele>508.0</ele><time>2026-05-02T13:04:22.47Z</time></trkpt><trkpt lat="46.135322" lon="13.4526893"><ele>507.0</ele><time>2026-05-02T13:04:23.469Z</time></trkpt><trkpt lat="46.1352778" lon="13.4525612"><ele>506.0</ele><time>2026-05-02T13:04:25.468Z</time></trkpt><trkpt lat="46.135076" lon="13.4524332"><ele>505.99999999999994</ele><time>2026-05-02T13:04:29.472Z</time></trkpt><trkpt lat="46.1350637" lon="13.4523368"><ele>506.0</ele><time>2026-05-02T13:04:37.47Z</time></trkpt><trkpt lat="46.1351413" lon="13.4522537"><ele>506.0</ele><time>2026-05-02T13:04:40.472Z</time></trkpt><trkpt lat="46.1352118" lon="13.4521868"><ele>506.0</ele><time>2026-05-02T13:04:42.669Z</time></trkpt><trkpt lat="46.135273" lon="13.452142"><ele>505.99999999999994</ele><time>2026-05-02T13:04:44.47Z</time></trkpt><trkpt lat="46.135342" lon="13.452146"><ele>506.0</ele><time>2026-05-02T13:04:46.473Z</time></trkpt><trkpt lat="46.1354807" lon="13.45231"><ele>506.00000000000006</ele><time>2026-05-02T13:04:50.469Z</time></trkpt><trkpt lat="46.1355272" lon="13.452402"><ele>506.0</ele><time>2026-05-02T13:04:51.47Z</time></trkpt><trkpt lat="46.135567" lon="13.4525035"><ele>506.00000000000006</ele><time>2026-05-02T13:04:52.47Z</time></trkpt><trkpt lat="46.1356055" lon="13.452598"><ele>506.00000000000006</ele><time>2026-05-02T13:04:53.468Z</time></trkpt><trkpt lat="46.1356333" lon="13.4526873"><ele>506.0</ele><time>2026-05-02T13:04:54.47Z</time></trkpt><trkpt lat="46.135653" lon="13.4527778"><ele>506.00000000000006</ele><time>2026-05-02T13:04:55.47Z</time></trkpt><trkpt lat="46.135664" lon="13.4528782"><ele>506.00000000000006</ele><time>2026-05-02T13:04:56.47Z</time></trkpt><trkpt lat="46.1356628" lon="13.4529793"><ele>506.8333333333333</ele><time>2026-05-02T13:04:57.47Z</time></trkpt><trkpt lat="46.1356557" lon="13.4530773"><ele>507.66666666666663</ele><time>2026-05-02T13:04:58.473Z</time></trkpt><trkpt lat="46.135637" lon="13.4531713"><ele>508.5</ele><time>2026-05-02T13:04:59.47Z</time></trkpt><trkpt lat="46.1356238" lon="13.4533267"><ele>509.33333333333337</ele><time>2026-05-02T13:05:01.47Z</time></trkpt><trkpt lat="46.1356865" lon="13.4533877"><ele>510.1666666666667</ele><time>2026-05-02T13:05:04.47Z</time></trkpt><trkpt lat="46.1357673" lon="13.4533725"><ele>511.0</ele><time>2026-05-02T13:05:06.47Z</time></trkpt><trkpt lat="46.135891" lon="13.453376"><ele>506.20000000000005</ele><time>2026-05-02T13:05:08.469Z</time></trkpt><trkpt lat="46.1360198" lon="13.453431"><ele>501.40000000000003</ele><time>2026-05-02T13:05:10.469Z</time></trkpt><trkpt lat="46.1360965" lon="13.4534912"><ele>496.6</ele><time>2026-05-02T13:05:11.468Z</time></trkpt><trkpt lat="46.1361757" lon="13.4535497"><ele>491.8</ele><time>2026-05-02T13:05:12.468Z</time></trkpt><trkpt lat="46.1362358" lon="13.4536043"><ele>487.0</ele><time>2026-05-02T13:05:13.468Z</time></trkpt><trkpt lat="46.1363473" lon="13.453688"><ele>487.0</ele><time>2026-05-02T13:05:15.468Z</time></trkpt><trkpt lat="46.1364723" lon="13.4537188"><ele>487.00000000000006</ele><time>2026-05-02T13:05:17.469Z</time></trkpt><trkpt lat="46.1365375" lon="13.453702"><ele>487.00000000000006</ele><time>2026-05-02T13:05:18.47Z</time></trkpt><trkpt lat="46.1366353" lon="13.4536712"><ele>487.0</ele><time>2026-05-02T13:05:20.471Z</time></trkpt><trkpt lat="46.136731" lon="13.4537615"><ele>487.0</ele><time>2026-05-02T13:05:22.47Z</time></trkpt><trkpt lat="46.1367862" lon="13.453844"><ele>487.00000000000006</ele><time>2026-05-02T13:05:23.471Z</time></trkpt><trkpt lat="46.1368438" lon="13.453935"><ele>487.0</ele><time>2026-05-02T13:05:24.472Z</time></trkpt><trkpt lat="46.1369037" lon="13.4540213"><ele>487.0</ele><time>2026-05-02T13:05:25.472Z</time></trkpt><trkpt lat="46.1369668" lon="13.4541143"><ele>487.0</ele><time>2026-05-02T13:05:26.473Z</time></trkpt><trkpt lat="46.137027" lon="13.4542038"><ele>487.00000000000006</ele><time>2026-05-02T13:05:27.473Z</time></trkpt><trkpt lat="46.1370872" lon="13.4542837"><ele>487.0</ele><time>2026-05-02T13:05:28.471Z</time></trkpt><trkpt lat="46.1371492" lon="13.4543565"><ele>487.0</ele><time>2026-05-02T13:05:29.472Z</time></trkpt><trkpt lat="46.1372705" lon="13.4545313"><ele>487.0</ele><time>2026-05-02T13:05:31.669Z</time></trkpt><trkpt lat="46.137348" lon="13.4546703"><ele>487.0</ele><time>2026-05-02T13:05:33.277Z</time></trkpt><trkpt lat="46.137382" lon="13.454782"><ele>487.0</ele><time>2026-05-02T13:05:34.278Z</time></trkpt><trkpt lat="46.1373995" lon="13.4549068"><ele>484.6666666666667</ele><time>2026-05-02T13:05:35.28Z</time></trkpt><trkpt lat="46.1374067" lon="13.4550228"><ele>482.33333333333337</ele><time>2026-05-02T13:05:36.279Z</time></trkpt><trkpt lat="46.137398" lon="13.4551273"><ele>480.0</ele><time>2026-05-02T13:05:37.28Z</time></trkpt><trkpt lat="46.137397" lon="13.4552215"><ele>477.66666666666663</ele><time>2026-05-02T13:05:38.278Z</time></trkpt><trkpt lat="46.137416" lon="13.4553117"><ele>475.3333333333333</ele><time>2026-05-02T13:05:39.276Z</time></trkpt><trkpt lat="46.1374803" lon="13.4554418"><ele>473.0</ele><time>2026-05-02T13:05:41.276Z</time></trkpt><trkpt lat="46.1375523" lon="13.4554632"><ele>471.66666666666663</ele><time>2026-05-02T13:05:43.277Z</time></trkpt><trkpt lat="46.137645" lon="13.4553832"><ele>470.3333333333333</ele><time>2026-05-02T13:05:45.276Z</time></trkpt><trkpt lat="46.1376908" lon="13.4553153"><ele>469.0</ele><time>2026-05-02T13:05:46.276Z</time></trkpt><trkpt lat="46.1377342" lon="13.4552265"><ele>467.66666666666663</ele><time>2026-05-02T13:05:47.277Z</time></trkpt><trkpt lat="46.1377828" lon="13.4551267"><ele>466.3333333333333</ele><time>2026-05-02T13:05:48.275Z</time></trkpt><trkpt lat="46.137836" lon="13.4550285"><ele>465.0</ele><time>2026-05-02T13:05:49.274Z</time></trkpt><trkpt lat="46.137889" lon="13.454933"><ele>465.0</ele><time>2026-05-02T13:05:50.275Z</time></trkpt><trkpt lat="46.1379962" lon="13.4547552"><ele>465.0</ele><time>2026-05-02T13:05:52.275Z</time></trkpt><trkpt lat="46.1380543" lon="13.4546848"><ele>465.0</ele><time>2026-05-02T13:05:53.277Z</time></trkpt><trkpt lat="46.1381187" lon="13.4546263"><ele>465.0</ele><time>2026-05-02T13:05:54.277Z</time></trkpt><trkpt lat="46.1381878" lon="13.4545692"><ele>465.0</ele><time>2026-05-02T13:05:55.278Z</time></trkpt><trkpt lat="46.1382598" lon="13.4545198"><ele>460.8333333333333</ele><time>2026-05-02T13:05:56.28Z</time></trkpt><trkpt lat="46.138327" lon="13.4544785"><ele>456.66666666666663</ele><time>2026-05-02T13:05:57.279Z</time></trkpt><trkpt lat="46.1384087" lon="13.4544437"><ele>452.5</ele><time>2026-05-02T13:05:58.471Z</time></trkpt><trkpt lat="46.1384867" lon="13.4544228"><ele>448.3333333333333</ele><time>2026-05-02T13:05:59.47Z</time></trkpt><trkpt lat="46.1385763" lon="13.454393"><ele>444.16666666666663</ele><time>2026-05-02T13:06:00.471Z</time></trkpt><trkpt lat="46.1386672" lon="13.4543572"><ele>440.0</ele><time>2026-05-02T13:06:01.47Z</time></trkpt><trkpt lat="46.1387505" lon="13.4543185"><ele>439.99999999999994</ele><time>2026-05-02T13:06:02.471Z</time></trkpt><trkpt lat="46.1388248" lon="13.4542727"><ele>440.0</ele><time>2026-05-02T13:06:03.469Z</time></trkpt><trkpt lat="46.1388967" lon="13.4542175"><ele>440.0</ele><time>2026-05-02T13:06:04.467Z</time></trkpt><trkpt lat="46.138964" lon="13.4541395"><ele>440.0</ele><time>2026-05-02T13:06:05.468Z</time></trkpt><trkpt lat="46.1390312" lon="13.45406"><ele>439.99999999999994</ele><time>2026-05-02T13:06:06.468Z</time></trkpt><trkpt lat="46.1390933" lon="13.4539852"><ele>440.0</ele><time>2026-05-02T13:06:07.469Z</time></trkpt><trkpt lat="46.1391648" lon="13.4539202"><ele>441.75</ele><time>2026-05-02T13:06:08.471Z</time></trkpt><trkpt lat="46.1392437" lon="13.4538538"><ele>443.5</ele><time>2026-05-02T13:06:09.47Z</time></trkpt><trkpt lat="46.1393207" lon="13.4537942"><ele>445.25</ele><time>2026-05-02T13:06:10.468Z</time></trkpt><trkpt lat="46.1394047" lon="13.4537455"><ele>447.0</ele><time>2026-05-02T13:06:11.469Z</time></trkpt><trkpt lat="46.1395912" lon="13.4536767"><ele>443.6</ele><time>2026-05-02T13:06:13.469Z</time></trkpt><trkpt lat="46.1396765" lon="13.4536488"><ele>440.20000000000005</ele><time>2026-05-02T13:06:14.469Z</time></trkpt><trkpt lat="46.139755" lon="13.4536127"><ele>436.8</ele><time>2026-05-02T13:06:15.47Z</time></trkpt><trkpt lat="46.1398382" lon="13.4535742"><ele>433.4</ele><time>2026-05-02T13:06:16.469Z</time></trkpt><trkpt lat="46.1399328" lon="13.4535558"><ele>430.0</ele><time>2026-05-02T13:06:17.468Z</time></trkpt><trkpt lat="46.1400345" lon="13.4535413"><ele>430.00000000000006</ele><time>2026-05-02T13:06:18.47Z</time></trkpt><trkpt lat="46.140133" lon="13.4535342"><ele>430.0</ele><time>2026-05-02T13:06:19.468Z</time></trkpt><trkpt lat="46.1402178" lon="13.4535307"><ele>430.0</ele><time>2026-05-02T13:06:20.468Z</time></trkpt><trkpt lat="46.140293" lon="13.4535213"><ele>430.0</ele><time>2026-05-02T13:06:21.467Z</time></trkpt><trkpt lat="46.140356" lon="13.4535"><ele>430.00000000000006</ele><time>2026-05-02T13:06:22.467Z</time></trkpt><trkpt lat="46.1404637" lon="13.453416"><ele>430.0</ele><time>2026-05-02T13:06:24.467Z</time></trkpt><trkpt lat="46.140518" lon="13.4533463"><ele>430.00000000000006</ele><time>2026-05-02T13:06:25.467Z</time></trkpt><trkpt lat="46.14058" lon="13.4532863"><ele>430.0</ele><time>2026-05-02T13:06:26.467Z</time></trkpt><trkpt lat="46.1406483" lon="13.4532022"><ele>430.0</ele><time>2026-05-02T13:06:27.468Z</time></trkpt><trkpt lat="46.140729" lon="13.453126"><ele>430.0</ele><time>2026-05-02T13:06:28.467Z</time></trkpt><trkpt lat="46.1407963" lon="13.4530508"><ele>430.00000000000006</ele><time>2026-05-02T13:06:29.467Z</time></trkpt><trkpt lat="46.1408535" lon="13.4529557"><ele>430.0</ele><time>2026-05-02T13:06:30.468Z</time></trkpt><trkpt lat="46.1409093" lon="13.452842"><ele>429.6</ele><time>2026-05-02T13:06:31.469Z</time></trkpt><trkpt lat="46.1409633" lon="13.4527255"><ele>429.2</ele><time>2026-05-02T13:06:32.469Z</time></trkpt><trkpt lat="46.1410737" lon="13.4524997"><ele>428.79999999999995</ele><time>2026-05-02T13:06:34.47Z</time></trkpt><trkpt lat="46.1411243" lon="13.452399"><ele>428.4</ele><time>2026-05-02T13:06:35.47Z</time></trkpt><trkpt lat="46.1411712" lon="13.4523155"><ele>428.0</ele><time>2026-05-02T13:06:36.471Z</time></trkpt><trkpt lat="46.1412122" lon="13.4522422"><ele>427.99999999999994</ele><time>2026-05-02T13:06:37.47Z</time></trkpt><trkpt lat="46.1412502" lon="13.4521662"><ele>428.0</ele><time>2026-05-02T13:06:38.472Z</time></trkpt><trkpt lat="46.1412905" lon="13.4520938"><ele>428.0</ele><time>2026-05-02T13:06:39.471Z</time></trkpt><trkpt lat="46.1413798" lon="13.4519823"><ele>428.0</ele><time>2026-05-02T13:06:41.47Z</time></trkpt><trkpt lat="46.1414605" lon="13.4519067"><ele>427.99999999999994</ele><time>2026-05-02T13:06:43.471Z</time></trkpt><trkpt lat="46.1415422" lon="13.4518672"><ele>428.0</ele><time>2026-05-02T13:06:45.472Z</time></trkpt><trkpt lat="46.1416375" lon="13.451848"><ele>428.0</ele><time>2026-05-02T13:06:47.47Z</time></trkpt><trkpt lat="46.1417367" lon="13.4518277"><ele>428.0</ele><time>2026-05-02T13:06:49.47Z</time></trkpt><trkpt lat="46.1418088" lon="13.4517313"><ele>428.0</ele><time>2026-05-02T13:06:51.47Z</time></trkpt><trkpt lat="46.1418932" lon="13.4516037"><ele>428.0</ele><time>2026-05-02T13:06:53.469Z</time></trkpt><trkpt lat="46.1421238" lon="13.4515008"><ele>427.99999999999994</ele><time>2026-05-02T13:06:57.47Z</time></trkpt><trkpt lat="46.1421848" lon="13.4514777"><ele>428.0</ele><time>2026-05-02T13:06:58.47Z</time></trkpt><trkpt lat="46.1422462" lon="13.4514373"><ele>428.0</ele><time>2026-05-02T13:06:59.47Z</time></trkpt><trkpt lat="46.1422908" lon="13.4513688"><ele>428.0</ele><time>2026-05-02T13:07:00.47Z</time></trkpt><trkpt lat="46.1423407" lon="13.4512832"><ele>427.99999999999994</ele><time>2026-05-02T13:07:01.469Z</time></trkpt><trkpt lat="46.1423858" lon="13.4511692"><ele>428.0</ele><time>2026-05-02T13:07:02.469Z</time></trkpt><trkpt lat="46.1424325" lon="13.4510437"><ele>426.4</ele><time>2026-05-02T13:07:03.47Z</time></trkpt><trkpt lat="46.1424868" lon="13.450911"><ele>424.79999999999995</ele><time>2026-05-02T13:07:04.469Z</time></trkpt><trkpt lat="46.1425387" lon="13.4507725"><ele>423.2</ele><time>2026-05-02T13:07:05.469Z</time></trkpt><trkpt lat="46.1425918" lon="13.4506408"><ele>421.6</ele><time>2026-05-02T13:07:06.47Z</time></trkpt><trkpt lat="46.1426383" lon="13.4505117"><ele>420.0</ele><time>2026-05-02T13:07:07.469Z</time></trkpt><trkpt lat="46.1426715" lon="13.450383"><ele>417.1666666666667</ele><time>2026-05-02T13:07:08.47Z</time></trkpt><trkpt lat="46.1427048" lon="13.4502568"><ele>414.33333333333337</ele><time>2026-05-02T13:07:09.469Z</time></trkpt><trkpt lat="46.1427353" lon="13.4501385"><ele>411.5</ele><time>2026-05-02T13:07:10.47Z</time></trkpt><trkpt lat="46.1427723" lon="13.450037"><ele>408.6666666666667</ele><time>2026-05-02T13:07:11.47Z</time></trkpt><trkpt lat="46.142809" lon="13.4499425"><ele>405.83333333333337</ele><time>2026-05-02T13:07:12.47Z</time></trkpt><trkpt lat="46.1428607" lon="13.4498773"><ele>403.0</ele><time>2026-05-02T13:07:13.471Z</time></trkpt><trkpt lat="46.1429502" lon="13.4497853"><ele>403.0</ele><time>2026-05-02T13:07:15.472Z</time></trkpt><trkpt lat="46.1428518" lon="13.4496558"><ele>403.0</ele><time>2026-05-02T13:07:19.469Z</time></trkpt><trkpt lat="46.142754" lon="13.449719"><ele>403.0</ele><time>2026-05-02T13:07:21.47Z</time></trkpt><trkpt lat="46.142649" lon="13.4498548"><ele>403.0</ele><time>2026-05-02T13:07:23.47Z</time></trkpt><trkpt lat="46.1425875" lon="13.4499517"><ele>403.00000000000006</ele><time>2026-05-02T13:07:24.471Z</time></trkpt><trkpt lat="46.1425368" lon="13.4500472"><ele>403.0</ele><time>2026-05-02T13:07:25.47Z</time></trkpt><trkpt lat="46.1424872" lon="13.4501438"><ele>403.0</ele><time>2026-05-02T13:07:26.469Z</time></trkpt><trkpt lat="46.1424407" lon="13.4502335"><ele>403.0</ele><time>2026-05-02T13:07:27.47Z</time></trkpt><trkpt lat="46.142384" lon="13.4503738"><ele>403.00000000000006</ele><time>2026-05-02T13:07:29.47Z</time></trkpt><trkpt lat="46.1423333" lon="13.4504492"><ele>403.0</ele><time>2026-05-02T13:07:31.47Z</time></trkpt><trkpt lat="46.1423153" lon="13.4503335"><ele>403.0</ele><time>2026-05-02T13:07:34.47Z</time></trkpt><trkpt lat="46.1423483" lon="13.4502507"><ele>403.0</ele><time>2026-05-02T13:07:35.47Z</time></trkpt><trkpt lat="46.1423867" lon="13.4501528"><ele>403.0</ele><time>2026-05-02T13:07:36.469Z</time></trkpt><trkpt lat="46.1424597" lon="13.4499242"><ele>403.0</ele><time>2026-05-02T13:07:38.47Z</time></trkpt><trkpt lat="46.1424928" lon="13.4497997"><ele>403.0</ele><time>2026-05-02T13:07:39.47Z</time></trkpt><trkpt lat="46.1425233" lon="13.4496747"><ele>400.33333333333337</ele><time>2026-05-02T13:07:40.47Z</time></trkpt><trkpt lat="46.1425562" lon="13.449551"><ele>397.6666666666667</ele><time>2026-05-02T13:07:41.469Z</time></trkpt><trkpt lat="46.1425835" lon="13.4494295"><ele>395.0</ele><time>2026-05-02T13:07:42.469Z</time></trkpt><trkpt lat="46.1426215" lon="13.4493302"><ele>392.33333333333337</ele><time>2026-05-02T13:07:43.469Z</time></trkpt><trkpt lat="46.1426527" lon="13.4492233"><ele>389.6666666666667</ele><time>2026-05-02T13:07:44.469Z</time></trkpt><trkpt lat="46.1426905" lon="13.4491142"><ele>387.0</ele><time>2026-05-02T13:07:45.47Z</time></trkpt><trkpt lat="46.1427317" lon="13.4490163"><ele>387.0</ele><time>2026-05-02T13:07:46.47Z</time></trkpt><trkpt lat="46.1427808" lon="13.4489367"><ele>387.0</ele><time>2026-05-02T13:07:47.475Z</time></trkpt><trkpt lat="46.1428355" lon="13.4488747"><ele>387.0</ele><time>2026-05-02T13:07:48.471Z</time></trkpt><trkpt lat="46.1428927" lon="13.4488307"><ele>387.0</ele><time>2026-05-02T13:07:49.47Z</time></trkpt><trkpt lat="46.142962" lon="13.4487947"><ele>387.0</ele><time>2026-05-02T13:07:50.469Z</time></trkpt><trkpt lat="46.1430315" lon="13.4487603"><ele>387.0</ele><time>2026-05-02T13:07:51.47Z</time></trkpt><trkpt lat="46.1430925" lon="13.4487093"><ele>387.0</ele><time>2026-05-02T13:07:52.47Z</time></trkpt><trkpt lat="46.143142" lon="13.4486477"><ele>387.8</ele><time>2026-05-02T13:07:53.47Z</time></trkpt><trkpt lat="46.1431817" lon="13.448571"><ele>388.6</ele><time>2026-05-02T13:07:54.47Z</time></trkpt><trkpt lat="46.1432108" lon="13.4484875"><ele>389.40000000000003</ele><time>2026-05-02T13:07:55.47Z</time></trkpt><trkpt lat="46.1432195" lon="13.4483845"><ele>390.20000000000005</ele><time>2026-05-02T13:07:56.47Z</time></trkpt><trkpt lat="46.1432245" lon="13.4482775"><ele>391.0</ele><time>2026-05-02T13:07:57.471Z</time></trkpt><trkpt lat="46.1432507" lon="13.4479943"><ele>388.00000000000006</ele><time>2026-05-02T13:08:00.47Z</time></trkpt><trkpt lat="46.1432735" lon="13.4479045"><ele>385.0</ele><time>2026-05-02T13:08:01.471Z</time></trkpt><trkpt lat="46.1433065" lon="13.447823"><ele>382.0</ele><time>2026-05-02T13:08:02.471Z</time></trkpt><trkpt lat="46.1434037" lon="13.4477338"><ele>379.0</ele><time>2026-05-02T13:08:04.471Z</time></trkpt><trkpt lat="46.1434695" lon="13.4477168"><ele>376.0</ele><time>2026-05-02T13:08:05.47Z</time></trkpt><trkpt lat="46.143539" lon="13.4477037"><ele>373.0</ele><time>2026-05-02T13:08:06.468Z</time></trkpt><trkpt lat="46.1436133" lon="13.447683"><ele>373.0</ele><time>2026-05-02T13:08:07.469Z</time></trkpt><trkpt lat="46.1436873" lon="13.447647"><ele>373.0</ele><time>2026-05-02T13:08:08.469Z</time></trkpt><trkpt lat="46.1437522" lon="13.4476087"><ele>373.0</ele><time>2026-05-02T13:08:09.47Z</time></trkpt><trkpt lat="46.1438315" lon="13.4475403"><ele>373.0</ele><time>2026-05-02T13:08:10.47Z</time></trkpt><trkpt lat="46.1439073" lon="13.4474607"><ele>373.0</ele><time>2026-05-02T13:08:11.47Z</time></trkpt><trkpt lat="46.1439745" lon="13.447373"><ele>373.0</ele><time>2026-05-02T13:08:12.47Z</time></trkpt><trkpt lat="46.1440347" lon="13.4472855"><ele>370.59999999999997</ele><time>2026-05-02T13:08:13.471Z</time></trkpt><trkpt lat="46.1440875" lon="13.4471997"><ele>368.2</ele><time>2026-05-02T13:08:14.47Z</time></trkpt><trkpt lat="46.1441372" lon="13.4471207"><ele>365.8</ele><time>2026-05-02T13:08:15.471Z</time></trkpt><trkpt lat="46.1442213" lon="13.4470242"><ele>363.4</ele><time>2026-05-02T13:08:17.469Z</time></trkpt><trkpt lat="46.1442937" lon="13.4469593"><ele>361.0</ele><time>2026-05-02T13:08:20.471Z</time></trkpt><trkpt lat="46.1444492" lon="13.4470105"><ele>361.0</ele><time>2026-05-02T13:08:24.47Z</time></trkpt><trkpt lat="46.1445538" lon="13.4470912"><ele>361.0</ele><time>2026-05-02T13:08:26.47Z</time></trkpt><trkpt lat="46.1446735" lon="13.4471107"><ele>361.0</ele><time>2026-05-02T13:08:28.47Z</time></trkpt><trkpt lat="46.1447362" lon="13.4470983"><ele>361.0</ele><time>2026-05-02T13:08:29.47Z</time></trkpt><trkpt lat="46.1448058" lon="13.4470882"><ele>361.0</ele><time>2026-05-02T13:08:30.469Z</time></trkpt><trkpt lat="46.1448693" lon="13.4470627"><ele>361.0</ele><time>2026-05-02T13:08:31.468Z</time></trkpt><trkpt lat="46.1449312" lon="13.4470337"><ele>360.14285714285717</ele><time>2026-05-02T13:08:32.468Z</time></trkpt><trkpt lat="46.144997" lon="13.4470207"><ele>359.2857142857143</ele><time>2026-05-02T13:08:33.468Z</time></trkpt><trkpt lat="46.145062" lon="13.4470078"><ele>358.42857142857144</ele><time>2026-05-02T13:08:34.468Z</time></trkpt><trkpt lat="46.1451272" lon="13.446994"><ele>357.57142857142856</ele><time>2026-05-02T13:08:35.47Z</time></trkpt><trkpt lat="46.1451958" lon="13.4469703"><ele>356.7142857142857</ele><time>2026-05-02T13:08:36.47Z</time></trkpt><trkpt lat="46.1452742" lon="13.446936"><ele>355.85714285714283</ele><time>2026-05-02T13:08:37.469Z</time></trkpt><trkpt lat="46.1453643" lon="13.446894"><ele>355.0</ele><time>2026-05-02T13:08:38.47Z</time></trkpt><trkpt lat="46.145461" lon="13.44685"><ele>355.0</ele><time>2026-05-02T13:08:39.472Z</time></trkpt><trkpt lat="46.1455653" lon="13.4468038"><ele>355.0</ele><time>2026-05-02T13:08:40.472Z</time></trkpt><trkpt lat="46.1456632" lon="13.4467438"><ele>355.0</ele><time>2026-05-02T13:08:41.472Z</time></trkpt><trkpt lat="46.1458482" lon="13.4465742"><ele>355.0</ele><time>2026-05-02T13:08:43.473Z</time></trkpt><trkpt lat="46.1459295" lon="13.4464438"><ele>347.25</ele><time>2026-05-02T13:08:44.471Z</time></trkpt><trkpt lat="46.1460058" lon="13.446289"><ele>339.5</ele><time>2026-05-02T13:08:45.472Z</time></trkpt><trkpt lat="46.146077" lon="13.4461147"><ele>331.75</ele><time>2026-05-02T13:08:46.471Z</time></trkpt><trkpt lat="46.1461425" lon="13.4459317"><ele>324.0</ele><time>2026-05-02T13:08:47.473Z</time></trkpt><trkpt lat="46.146199" lon="13.445741"><ele>324.0</ele><time>2026-05-02T13:08:48.472Z</time></trkpt><trkpt lat="46.1462452" lon="13.4455448"><ele>324.0</ele><time>2026-05-02T13:08:49.471Z</time></trkpt><trkpt lat="46.1462852" lon="13.4453555"><ele>324.0</ele><time>2026-05-02T13:08:50.472Z</time></trkpt><trkpt lat="46.1463237" lon="13.4451835"><ele>324.0</ele><time>2026-05-02T13:08:51.473Z</time></trkpt><trkpt lat="46.1463645" lon="13.4450322"><ele>320.2</ele><time>2026-05-02T13:08:52.471Z</time></trkpt><trkpt lat="46.146417" lon="13.4449165"><ele>316.4</ele><time>2026-05-02T13:08:53.471Z</time></trkpt><trkpt lat="46.1464653" lon="13.4448215"><ele>312.6</ele><time>2026-05-02T13:08:54.472Z</time></trkpt><trkpt lat="46.1464877" lon="13.444732"><ele>308.8</ele><time>2026-05-02T13:08:55.469Z</time></trkpt><trkpt lat="46.1464318" lon="13.4446125"><ele>305.0</ele><time>2026-05-02T13:08:57.469Z</time></trkpt><trkpt lat="46.146307" lon="13.4446923"><ele>305.0</ele><time>2026-05-02T13:08:59.471Z</time></trkpt><trkpt lat="46.1462352" lon="13.4447897"><ele>305.0</ele><time>2026-05-02T13:09:00.471Z</time></trkpt><trkpt lat="46.1461548" lon="13.4449133"><ele>305.0</ele><time>2026-05-02T13:09:01.472Z</time></trkpt><trkpt lat="46.146073" lon="13.4450432"><ele>305.0</ele><time>2026-05-02T13:09:02.471Z</time></trkpt><trkpt lat="46.1459375" lon="13.4452725"><ele>305.0</ele><time>2026-05-02T13:09:04.47Z</time></trkpt><trkpt lat="46.145887" lon="13.445342"><ele>305.0</ele><time>2026-05-02T13:09:05.469Z</time></trkpt><trkpt lat="46.1457937" lon="13.4453413"><ele>305.0</ele><time>2026-05-02T13:09:07.469Z</time></trkpt><trkpt lat="46.1457947" lon="13.445162"><ele>305.0</ele><time>2026-05-02T13:09:09.469Z</time></trkpt><trkpt lat="46.1458382" lon="13.4450308"><ele>305.0</ele><time>2026-05-02T13:09:10.468Z</time></trkpt><trkpt lat="46.1458838" lon="13.4448737"><ele>305.0</ele><time>2026-05-02T13:09:11.468Z</time></trkpt><trkpt lat="46.1459317" lon="13.4446972"><ele>305.0</ele><time>2026-05-02T13:09:12.469Z</time></trkpt><trkpt lat="46.145981" lon="13.4445058"><ele>305.0</ele><time>2026-05-02T13:09:13.469Z</time></trkpt><trkpt lat="46.1460265" lon="13.4443092"><ele>305.0</ele><time>2026-05-02T13:09:14.468Z</time></trkpt><trkpt lat="46.1460707" lon="13.4441118"><ele>299.25</ele><time>2026-05-02T13:09:15.469Z</time></trkpt><trkpt lat="46.1461203" lon="13.4439315"><ele>293.5</ele><time>2026-05-02T13:09:16.469Z</time></trkpt><trkpt lat="46.1461858" lon="13.4437675"><ele>287.75</ele><time>2026-05-02T13:09:17.47Z</time></trkpt><trkpt lat="46.1462582" lon="13.4436282"><ele>282.0</ele><time>2026-05-02T13:09:18.47Z</time></trkpt><trkpt lat="46.146331" lon="13.443523"><ele>280.4</ele><time>2026-05-02T13:09:19.469Z</time></trkpt><trkpt lat="46.1464037" lon="13.4434637"><ele>278.79999999999995</ele><time>2026-05-02T13:09:20.468Z</time></trkpt><trkpt lat="46.1464787" lon="13.4434555"><ele>277.2</ele><time>2026-05-02T13:09:21.468Z</time></trkpt><trkpt lat="46.1465493" lon="13.4434993"><ele>275.59999999999997</ele><time>2026-05-02T13:09:22.468Z</time></trkpt><trkpt lat="46.1466257" lon="13.4435822"><ele>274.0</ele><time>2026-05-02T13:09:23.47Z</time></trkpt><trkpt lat="46.1467808" lon="13.4437823"><ele>274.0</ele><time>2026-05-02T13:09:25.47Z</time></trkpt><trkpt lat="46.1468397" lon="13.4438712"><ele>274.0</ele><time>2026-05-02T13:09:26.469Z</time></trkpt><trkpt lat="46.1468892" lon="13.4439453"><ele>274.0</ele><time>2026-05-02T13:09:27.469Z</time></trkpt><trkpt lat="46.1469608" lon="13.4439885"><ele>274.0</ele><time>2026-05-02T13:09:29.468Z</time></trkpt><trkpt lat="46.1469725" lon="13.4438633"><ele>274.0</ele><time>2026-05-02T13:09:32.469Z</time></trkpt><trkpt lat="46.1468737" lon="13.4437077"><ele>274.0</ele><time>2026-05-02T13:09:34.469Z</time></trkpt><trkpt lat="46.1468057" lon="13.4435958"><ele>274.0</ele><time>2026-05-02T13:09:35.47Z</time></trkpt><trkpt lat="46.1467468" lon="13.4434675"><ele>274.0</ele><time>2026-05-02T13:09:36.469Z</time></trkpt><trkpt lat="46.1467035" lon="13.4433432"><ele>274.0</ele><time>2026-05-02T13:09:37.47Z</time></trkpt><trkpt lat="46.146682" lon="13.4432257"><ele>274.0</ele><time>2026-05-02T13:09:38.47Z</time></trkpt><trkpt lat="46.1466903" lon="13.4431085"><ele>274.0</ele><time>2026-05-02T13:09:39.472Z</time></trkpt><trkpt lat="46.1467073" lon="13.4429828"><ele>274.0</ele><time>2026-05-02T13:09:40.47Z</time></trkpt><trkpt lat="46.1467102" lon="13.442846"><ele>274.0</ele><time>2026-05-02T13:09:41.472Z</time></trkpt><trkpt lat="46.146694" lon="13.44271"><ele>274.0</ele><time>2026-05-02T13:09:42.471Z</time></trkpt><trkpt lat="46.1466485" lon="13.4425822"><ele>274.0</ele><time>2026-05-02T13:09:43.47Z</time></trkpt><trkpt lat="46.146589" lon="13.4424592"><ele>269.59999999999997</ele><time>2026-05-02T13:09:44.469Z</time></trkpt><trkpt lat="46.1465112" lon="13.4422257"><ele>265.2</ele><time>2026-05-02T13:09:46.469Z</time></trkpt><trkpt lat="46.146459" lon="13.4421432"><ele>260.79999999999995</ele><time>2026-05-02T13:09:47.469Z</time></trkpt><trkpt lat="46.1463945" lon="13.4421073"><ele>256.4</ele><time>2026-05-02T13:09:48.472Z</time></trkpt><trkpt lat="46.1463245" lon="13.4421225"><ele>252.0</ele><time>2026-05-02T13:09:49.47Z</time></trkpt><trkpt lat="46.1462658" lon="13.4421917"><ele>252.0</ele><time>2026-05-02T13:09:50.47Z</time></trkpt><trkpt lat="46.1462173" lon="13.4423042"><ele>252.0</ele><time>2026-05-02T13:09:51.471Z</time></trkpt><trkpt lat="46.1461752" lon="13.4424497"><ele>252.0</ele><time>2026-05-02T13:09:52.471Z</time></trkpt><trkpt lat="46.146134" lon="13.4426115"><ele>252.0</ele><time>2026-05-02T13:09:53.472Z</time></trkpt><trkpt lat="46.1460873" lon="13.4427677"><ele>252.0</ele><time>2026-05-02T13:09:54.471Z</time></trkpt><trkpt lat="46.1460185" lon="13.4428978"><ele>253.25</ele><time>2026-05-02T13:09:55.471Z</time></trkpt><trkpt lat="46.1459182" lon="13.4429943"><ele>254.5</ele><time>2026-05-02T13:09:56.469Z</time></trkpt><trkpt lat="46.1457925" lon="13.4430733"><ele>255.75</ele><time>2026-05-02T13:09:57.47Z</time></trkpt><trkpt lat="46.1456672" lon="13.443149"><ele>257.0</ele><time>2026-05-02T13:09:58.47Z</time></trkpt><trkpt lat="46.1455578" lon="13.4432127"><ele>257.0</ele><time>2026-05-02T13:09:59.47Z</time></trkpt><trkpt lat="46.1454685" lon="13.4432377"><ele>257.0</ele><time>2026-05-02T13:10:00.47Z</time></trkpt><trkpt lat="46.145385" lon="13.4432093"><ele>257.0</ele><time>2026-05-02T13:10:01.469Z</time></trkpt><trkpt lat="46.1453167" lon="13.4431255"><ele>257.0</ele><time>2026-05-02T13:10:02.469Z</time></trkpt><trkpt lat="46.1452488" lon="13.4430042"><ele>257.0</ele><time>2026-05-02T13:10:03.469Z</time></trkpt><trkpt lat="46.1451692" lon="13.442876"><ele>252.33333333333334</ele><time>2026-05-02T13:10:04.47Z</time></trkpt><trkpt lat="46.145066" lon="13.4427633"><ele>247.66666666666669</ele><time>2026-05-02T13:10:05.47Z</time></trkpt><trkpt lat="46.144809" lon="13.442633"><ele>243.0</ele><time>2026-05-02T13:10:07.469Z</time></trkpt><trkpt lat="46.1446628" lon="13.4425662"><ele>239.0</ele><time>2026-05-02T13:10:08.469Z</time></trkpt><trkpt lat="46.1445185" lon="13.4424655"><ele>235.0</ele><time>2026-05-02T13:10:09.47Z</time></trkpt><trkpt lat="46.1443708" lon="13.4423523"><ele>231.0</ele><time>2026-05-02T13:10:10.469Z</time></trkpt><trkpt lat="46.1442207" lon="13.4422498"><ele>231.0</ele><time>2026-05-02T13:10:11.47Z</time></trkpt><trkpt lat="46.1440665" lon="13.4421758"><ele>231.0</ele><time>2026-05-02T13:10:12.472Z</time></trkpt><trkpt lat="46.1439103" lon="13.4421295"><ele>231.0</ele><time>2026-05-02T13:10:13.472Z</time></trkpt><trkpt lat="46.1437562" lon="13.4420958"><ele>230.75</ele><time>2026-05-02T13:10:14.473Z</time></trkpt><trkpt lat="46.1436132" lon="13.442057"><ele>230.5</ele><time>2026-05-02T13:10:15.473Z</time></trkpt><trkpt lat="46.1434927" lon="13.4419987"><ele>230.25</ele><time>2026-05-02T13:10:16.471Z</time></trkpt><trkpt lat="46.1433915" lon="13.4419052"><ele>230.0</ele><time>2026-05-02T13:10:17.472Z</time></trkpt><trkpt lat="46.1432988" lon="13.4417777"><ele>229.25</ele><time>2026-05-02T13:10:18.473Z</time></trkpt><trkpt lat="46.1432075" lon="13.4416347"><ele>228.5</ele><time>2026-05-02T13:10:19.472Z</time></trkpt><trkpt lat="46.1431183" lon="13.441491"><ele>227.75</ele><time>2026-05-02T13:10:20.473Z</time></trkpt><trkpt lat="46.1430335" lon="13.4413677"><ele>227.0</ele><time>2026-05-02T13:10:21.472Z</time></trkpt><trkpt lat="46.1429435" lon="13.4412772"><ele>226.75</ele><time>2026-05-02T13:10:22.472Z</time></trkpt><trkpt lat="46.142836" lon="13.4412205"><ele>226.5</ele><time>2026-05-02T13:10:23.472Z</time></trkpt><trkpt lat="46.1427118" lon="13.4411915"><ele>226.25</ele><time>2026-05-02T13:10:24.472Z</time></trkpt><trkpt lat="46.1425752" lon="13.4411792"><ele>226.0</ele><time>2026-05-02T13:10:25.471Z</time></trkpt><trkpt lat="46.1424302" lon="13.4411672"><ele>224.5</ele><time>2026-05-02T13:10:26.472Z</time></trkpt><trkpt lat="46.1421225" lon="13.4411453"><ele>223.0</ele><time>2026-05-02T13:10:28.471Z</time></trkpt><trkpt lat="46.1419607" lon="13.44114"><ele>223.0</ele><time>2026-05-02T13:10:29.471Z</time></trkpt><trkpt lat="46.1418023" lon="13.4411347"><ele>223.0</ele><time>2026-05-02T13:10:30.471Z</time></trkpt><trkpt lat="46.1416533" lon="13.4411292"><ele>223.0</ele><time>2026-05-02T13:10:31.472Z</time></trkpt><trkpt lat="46.1415158" lon="13.4411295"><ele>223.0</ele><time>2026-05-02T13:10:32.471Z</time></trkpt><trkpt lat="46.1413848" lon="13.4411497"><ele>222.5</ele><time>2026-05-02T13:10:33.469Z</time></trkpt><trkpt lat="46.141255" lon="13.4412018"><ele>222.0</ele><time>2026-05-02T13:10:34.47Z</time></trkpt><trkpt lat="46.1411313" lon="13.4412633"><ele>221.5</ele><time>2026-05-02T13:10:35.47Z</time></trkpt><trkpt lat="46.141012" lon="13.4413207"><ele>221.0</ele><time>2026-05-02T13:10:36.47Z</time></trkpt><trkpt lat="46.1408872" lon="13.4413613"><ele>220.5</ele><time>2026-05-02T13:10:37.471Z</time></trkpt><trkpt lat="46.1407628" lon="13.4413827"><ele>220.0</ele><time>2026-05-02T13:10:38.471Z</time></trkpt><trkpt lat="46.1406465" lon="13.4413963"><ele>219.5</ele><time>2026-05-02T13:10:39.472Z</time></trkpt><trkpt lat="46.1405293" lon="13.4413955"><ele>219.0</ele><time>2026-05-02T13:10:40.471Z</time></trkpt><trkpt lat="46.1404058" lon="13.4413772"><ele>219.0</ele><time>2026-05-02T13:10:41.471Z</time></trkpt><trkpt lat="46.1402737" lon="13.4413442"><ele>219.0</ele><time>2026-05-02T13:10:42.471Z</time></trkpt><trkpt lat="46.1401368" lon="13.4413108"><ele>219.0</ele><time>2026-05-02T13:10:43.471Z</time></trkpt><trkpt lat="46.1399928" lon="13.4412838"><ele>219.0</ele><time>2026-05-02T13:10:44.471Z</time></trkpt><trkpt lat="46.1398435" lon="13.4412623"><ele>216.66666666666669</ele><time>2026-05-02T13:10:45.472Z</time></trkpt><trkpt lat="46.1396908" lon="13.4412405"><ele>214.33333333333334</ele><time>2026-05-02T13:10:46.471Z</time></trkpt><trkpt lat="46.139535" lon="13.441215"><ele>212.0</ele><time>2026-05-02T13:10:47.471Z</time></trkpt><trkpt lat="46.13922" lon="13.4411528"><ele>212.0</ele><time>2026-05-02T13:10:49.471Z</time></trkpt><trkpt lat="46.139062" lon="13.4411127"><ele>212.0</ele><time>2026-05-02T13:10:50.471Z</time></trkpt><trkpt lat="46.1389062" lon="13.4410653"><ele>212.0</ele><time>2026-05-02T13:10:51.471Z</time></trkpt><trkpt lat="46.1387548" lon="13.4410173"><ele>211.0</ele><time>2026-05-02T13:10:52.471Z</time></trkpt><trkpt lat="46.1386108" lon="13.4409732"><ele>210.0</ele><time>2026-05-02T13:10:53.47Z</time></trkpt><trkpt lat="46.1384792" lon="13.4409245"><ele>209.0</ele><time>2026-05-02T13:10:54.471Z</time></trkpt><trkpt lat="46.1383653" lon="13.4408542"><ele>208.0</ele><time>2026-05-02T13:10:55.472Z</time></trkpt><trkpt lat="46.138277" lon="13.4407587"><ele>208.0</ele><time>2026-05-02T13:10:56.472Z</time></trkpt><trkpt lat="46.1382182" lon="13.4406387"><ele>208.0</ele><time>2026-05-02T13:10:57.47Z</time></trkpt><trkpt lat="46.1381858" lon="13.4404947"><ele>208.0</ele><time>2026-05-02T13:10:58.469Z</time></trkpt><trkpt lat="46.138177" lon="13.4403322"><ele>208.0</ele><time>2026-05-02T13:10:59.469Z</time></trkpt><trkpt lat="46.1381825" lon="13.440157"><ele>208.0</ele><time>2026-05-02T13:11:00.469Z</time></trkpt><trkpt lat="46.1381903" lon="13.4399717"><ele>207.5</ele><time>2026-05-02T13:11:01.469Z</time></trkpt><trkpt lat="46.1381987" lon="13.4397717"><ele>207.0</ele><time>2026-05-02T13:11:02.47Z</time></trkpt><trkpt lat="46.1382073" lon="13.4395648"><ele>206.5</ele><time>2026-05-02T13:11:03.47Z</time></trkpt><trkpt lat="46.1382145" lon="13.43937"><ele>206.0</ele><time>2026-05-02T13:11:04.471Z</time></trkpt><trkpt lat="46.1382237" lon="13.4391952"><ele>206.60000000000002</ele><time>2026-05-02T13:11:05.471Z</time></trkpt><trkpt lat="46.138232" lon="13.439047"><ele>207.2</ele><time>2026-05-02T13:11:06.471Z</time></trkpt><trkpt lat="46.138239" lon="13.4389375"><ele>207.8</ele><time>2026-05-02T13:11:07.472Z</time></trkpt><trkpt lat="46.1382868" lon="13.4387978"><ele>208.39999999999998</ele><time>2026-05-02T13:11:09.471Z</time></trkpt><trkpt lat="46.1384228" lon="13.4387017"><ele>209.0</ele><time>2026-05-02T13:11:11.473Z</time></trkpt><trkpt lat="46.1385162" lon="13.4386397"><ele>209.0</ele><time>2026-05-02T13:11:12.472Z</time></trkpt><trkpt lat="46.1386162" lon="13.4385625"><ele>209.0</ele><time>2026-05-02T13:11:13.472Z</time></trkpt><trkpt lat="46.1387213" lon="13.4384777"><ele>209.0</ele><time>2026-05-02T13:11:14.472Z</time></trkpt><trkpt lat="46.1388262" lon="13.4383967"><ele>209.0</ele><time>2026-05-02T13:11:15.472Z</time></trkpt><trkpt lat="46.1389162" lon="13.4383358"><ele>209.0</ele><time>2026-05-02T13:11:16.472Z</time></trkpt><trkpt lat="46.138993" lon="13.4382848"><ele>209.0</ele><time>2026-05-02T13:11:18.472Z</time></trkpt><trkpt lat="46.1389852" lon="13.4381385"><ele>209.0</ele><time>2026-05-02T13:11:22.468Z</time></trkpt><trkpt lat="46.138962" lon="13.4379923"><ele>209.0</ele><time>2026-05-02T13:11:24.47Z</time></trkpt><trkpt lat="46.1389473" lon="13.4378493"><ele>209.0</ele><time>2026-05-02T13:11:26.471Z</time></trkpt><trkpt lat="46.1389433" lon="13.4377338"><ele>210.0</ele><time>2026-05-02T13:11:28.47Z</time></trkpt><trkpt lat="46.1389388" lon="13.43764"><ele>211.0</ele><time>2026-05-02T13:11:30.472Z</time></trkpt><trkpt lat="46.1388833" lon="13.4374335"><ele>211.99999999999997</ele><time>2026-05-02T13:11:34.471Z</time></trkpt><trkpt lat="46.138895" lon="13.4373278"><ele>213.0</ele><time>2026-05-02T13:11:37.471Z</time></trkpt><trkpt lat="46.1388567" lon="13.4372097"><ele>214.0</ele><time>2026-05-02T13:21:50.472Z</time></trkpt><trkpt lat="46.1389062" lon="13.4370225"><ele>215.66666666666666</ele><time>2026-05-02T13:21:55.473Z</time></trkpt><trkpt lat="46.1389768" lon="13.4370078"><ele>217.33333333333331</ele><time>2026-05-02T13:21:56.473Z</time></trkpt><trkpt lat="46.1390585" lon="13.436995"><ele>219.0</ele><time>2026-05-02T13:21:57.474Z</time></trkpt><trkpt lat="46.1391325" lon="13.4369963"><ele>220.66666666666669</ele><time>2026-05-02T13:21:58.479Z</time></trkpt><trkpt lat="46.1392028" lon="13.4370148"><ele>222.33333333333334</ele><time>2026-05-02T13:21:59.47Z</time></trkpt><trkpt lat="46.1392703" lon="13.4370378"><ele>224.0</ele><time>2026-05-02T13:22:00.47Z</time></trkpt><trkpt lat="46.1393828" lon="13.4370898"><ele>224.2</ele><time>2026-05-02T13:22:02.469Z</time></trkpt><trkpt lat="46.1394725" lon="13.4371462"><ele>224.39999999999998</ele><time>2026-05-02T13:22:04.472Z</time></trkpt><trkpt lat="46.1395383" lon="13.4372727"><ele>224.6</ele><time>2026-05-02T13:22:06.471Z</time></trkpt><trkpt lat="46.1395583" lon="13.4373637"><ele>224.8</ele><time>2026-05-02T13:22:07.472Z</time></trkpt><trkpt lat="46.1395752" lon="13.4374602"><ele>225.0</ele><time>2026-05-02T13:22:08.473Z</time></trkpt><trkpt lat="46.1396327" lon="13.4375965"><ele>225.0</ele><time>2026-05-02T13:22:10.472Z</time></trkpt><trkpt lat="46.1397183" lon="13.4376407"><ele>225.0</ele><time>2026-05-02T13:22:13.473Z</time></trkpt><trkpt lat="46.13993" lon="13.4376378"><ele>225.0</ele><time>2026-05-02T13:22:17.472Z</time></trkpt><trkpt lat="46.1400003" lon="13.437627"><ele>225.0</ele><time>2026-05-02T13:22:18.473Z</time></trkpt><trkpt lat="46.1400842" lon="13.4376197"><ele>229.2</ele><time>2026-05-02T13:22:19.472Z</time></trkpt><trkpt lat="46.1401718" lon="13.4376125"><ele>233.4</ele><time>2026-05-02T13:22:20.472Z</time></trkpt><trkpt lat="46.1402702" lon="13.4375973"><ele>237.60000000000002</ele><time>2026-05-02T13:22:21.471Z</time></trkpt><trkpt lat="46.1403652" lon="13.4375855"><ele>241.8</ele><time>2026-05-02T13:22:22.471Z</time></trkpt><trkpt lat="46.1404645" lon="13.4375702"><ele>246.0</ele><time>2026-05-02T13:22:23.47Z</time></trkpt><trkpt lat="46.1405612" lon="13.4375598"><ele>246.0</ele><time>2026-05-02T13:22:24.469Z</time></trkpt><trkpt lat="46.140656" lon="13.437547"><ele>246.0</ele><time>2026-05-02T13:22:25.469Z</time></trkpt><trkpt lat="46.1407395" lon="13.437534"><ele>246.0</ele><time>2026-05-02T13:22:26.469Z</time></trkpt><trkpt lat="46.1408347" lon="13.4375113"><ele>246.0</ele><time>2026-05-02T13:22:27.47Z</time></trkpt><trkpt lat="46.14092" lon="13.4374988"><ele>246.0</ele><time>2026-05-02T13:22:28.47Z</time></trkpt><trkpt lat="46.1410058" lon="13.4374833"><ele>246.0</ele><time>2026-05-02T13:22:29.47Z</time></trkpt><trkpt lat="46.1410927" lon="13.437482"><ele>249.8</ele><time>2026-05-02T13:22:30.472Z</time></trkpt><trkpt lat="46.1411822" lon="13.437478"><ele>253.60000000000002</ele><time>2026-05-02T13:22:31.47Z</time></trkpt><trkpt lat="46.1412722" lon="13.4374822"><ele>257.4</ele><time>2026-05-02T13:22:32.47Z</time></trkpt><trkpt lat="46.1413653" lon="13.4374865"><ele>261.2</ele><time>2026-05-02T13:22:33.47Z</time></trkpt><trkpt lat="46.1414475" lon="13.4374968"><ele>265.0</ele><time>2026-05-02T13:22:34.47Z</time></trkpt><trkpt lat="46.1416263" lon="13.4375172"><ele>265.57142857142856</ele><time>2026-05-02T13:22:36.47Z</time></trkpt><trkpt lat="46.1417138" lon="13.4375215"><ele>266.1428571428571</ele><time>2026-05-02T13:22:37.469Z</time></trkpt><trkpt lat="46.1417993" lon="13.4375138"><ele>266.7142857142857</ele><time>2026-05-02T13:22:38.47Z</time></trkpt><trkpt lat="46.1418655" lon="13.4375168"><ele>267.2857142857143</ele><time>2026-05-02T13:22:39.47Z</time></trkpt><trkpt lat="46.1419285" lon="13.4375123"><ele>267.8571428571429</ele><time>2026-05-02T13:22:40.47Z</time></trkpt><trkpt lat="46.1419983" lon="13.4375007"><ele>268.42857142857144</ele><time>2026-05-02T13:22:41.47Z</time></trkpt><trkpt lat="46.1420692" lon="13.4375012"><ele>269.0</ele><time>2026-05-02T13:22:42.471Z</time></trkpt><trkpt lat="46.1421335" lon="13.437526"><ele>269.0</ele><time>2026-05-02T13:22:43.471Z</time></trkpt><trkpt lat="46.1421998" lon="13.437565"><ele>269.0</ele><time>2026-05-02T13:22:44.472Z</time></trkpt><trkpt lat="46.1422633" lon="13.437612"><ele>269.0</ele><time>2026-05-02T13:22:45.471Z</time></trkpt><trkpt lat="46.1423293" lon="13.4376532"><ele>269.0</ele><time>2026-05-02T13:22:46.471Z</time></trkpt><trkpt lat="46.1423962" lon="13.4376937"><ele>269.0</ele><time>2026-05-02T13:22:47.471Z</time></trkpt><trkpt lat="46.142478" lon="13.4377138"><ele>269.0</ele><time>2026-05-02T13:22:48.469Z</time></trkpt><trkpt lat="46.1425647" lon="13.4377097"><ele>271.8</ele><time>2026-05-02T13:22:49.469Z</time></trkpt><trkpt lat="46.142655" lon="13.4376923"><ele>274.59999999999997</ele><time>2026-05-02T13:22:50.469Z</time></trkpt><trkpt lat="46.1427453" lon="13.4376787"><ele>277.4</ele><time>2026-05-02T13:22:51.469Z</time></trkpt><trkpt lat="46.142827" lon="13.4376625"><ele>280.2</ele><time>2026-05-02T13:22:52.47Z</time></trkpt><trkpt lat="46.1429378" lon="13.4376648"><ele>283.0</ele><time>2026-05-02T13:22:54.472Z</time></trkpt><trkpt lat="46.1430558" lon="13.4377173"><ele>283.0</ele><time>2026-05-02T13:22:56.47Z</time></trkpt><trkpt lat="46.1432022" lon="13.437759"><ele>283.0</ele><time>2026-05-02T13:22:58.471Z</time></trkpt><trkpt lat="46.14327" lon="13.4377622"><ele>283.0</ele><time>2026-05-02T13:22:59.471Z</time></trkpt><trkpt lat="46.1433855" lon="13.4377847"><ele>283.0</ele><time>2026-05-02T13:23:01.471Z</time></trkpt><trkpt lat="46.143497" lon="13.4378068"><ele>283.0</ele><time>2026-05-02T13:23:03.471Z</time></trkpt><trkpt lat="46.1436157" lon="13.4377383"><ele>284.3333333333333</ele><time>2026-05-02T13:23:05.472Z</time></trkpt><trkpt lat="46.1436832" lon="13.437676"><ele>285.66666666666663</ele><time>2026-05-02T13:23:06.47Z</time></trkpt><trkpt lat="46.1437513" lon="13.4376052"><ele>287.0</ele><time>2026-05-02T13:23:07.47Z</time></trkpt><trkpt lat="46.143823" lon="13.4375333"><ele>288.3333333333333</ele><time>2026-05-02T13:23:08.471Z</time></trkpt><trkpt lat="46.1438978" lon="13.437457"><ele>289.6666666666667</ele><time>2026-05-02T13:23:09.471Z</time></trkpt><trkpt lat="46.1439815" lon="13.4373945"><ele>291.0</ele><time>2026-05-02T13:23:10.47Z</time></trkpt><trkpt lat="46.1440628" lon="13.4373357"><ele>291.0</ele><time>2026-05-02T13:23:11.469Z</time></trkpt><trkpt lat="46.1441427" lon="13.437279"><ele>291.0</ele><time>2026-05-02T13:23:12.469Z</time></trkpt><trkpt lat="46.1442185" lon="13.437213"><ele>291.0</ele><time>2026-05-02T13:23:13.469Z</time></trkpt><trkpt lat="46.1442978" lon="13.4371598"><ele>291.0</ele><time>2026-05-02T13:23:14.468Z</time></trkpt><trkpt lat="46.1443848" lon="13.437119"><ele>291.0</ele><time>2026-05-02T13:23:15.469Z</time></trkpt><trkpt lat="46.1444782" lon="13.4370882"><ele>295.40000000000003</ele><time>2026-05-02T13:23:16.47Z</time></trkpt><trkpt lat="46.1445617" lon="13.4370443"><ele>299.8</ele><time>2026-05-02T13:23:17.47Z</time></trkpt><trkpt lat="46.1447498" lon="13.4369855"><ele>304.20000000000005</ele><time>2026-05-02T13:23:20.47Z</time></trkpt><trkpt lat="46.1448197" lon="13.437012"><ele>308.6</ele><time>2026-05-02T13:23:21.471Z</time></trkpt><trkpt lat="46.1448887" lon="13.4370542"><ele>313.0</ele><time>2026-05-02T13:23:22.47Z</time></trkpt><trkpt lat="46.1449603" lon="13.4371165"><ele>308.6</ele><time>2026-05-02T13:23:23.47Z</time></trkpt><trkpt lat="46.1450188" lon="13.4371917"><ele>304.20000000000005</ele><time>2026-05-02T13:23:24.471Z</time></trkpt><trkpt lat="46.1450827" lon="13.437253"><ele>299.8</ele><time>2026-05-02T13:23:25.471Z</time></trkpt><trkpt lat="46.1451873" lon="13.4373298"><ele>295.40000000000003</ele><time>2026-05-02T13:23:27.47Z</time></trkpt><trkpt lat="46.145309" lon="13.4373187"><ele>291.0</ele><time>2026-05-02T13:23:29.471Z</time></trkpt><trkpt lat="46.145381" lon="13.4372753"><ele>291.0</ele><time>2026-05-02T13:23:30.47Z</time></trkpt><trkpt lat="46.145457" lon="13.4372293"><ele>291.0</ele><time>2026-05-02T13:23:31.47Z</time></trkpt><trkpt lat="46.1455303" lon="13.437183"><ele>291.0</ele><time>2026-05-02T13:23:32.469Z</time></trkpt><trkpt lat="46.1456095" lon="13.4371402"><ele>291.0</ele><time>2026-05-02T13:23:33.471Z</time></trkpt><trkpt lat="46.145678" lon="13.437102"><ele>291.0</ele><time>2026-05-02T13:23:34.468Z</time></trkpt><trkpt lat="46.1457387" lon="13.4370563"><ele>291.0</ele><time>2026-05-02T13:23:35.469Z</time></trkpt><trkpt lat="46.1458008" lon="13.4370032"><ele>297.4</ele><time>2026-05-02T13:23:36.469Z</time></trkpt><trkpt lat="46.1458605" lon="13.4369257"><ele>303.8</ele><time>2026-05-02T13:23:37.468Z</time></trkpt><trkpt lat="46.1459177" lon="13.4368335"><ele>310.2</ele><time>2026-05-02T13:23:38.468Z</time></trkpt><trkpt lat="46.146035" lon="13.4366203"><ele>316.59999999999997</ele><time>2026-05-02T13:23:40.468Z</time></trkpt><trkpt lat="46.1460853" lon="13.436515"><ele>323.0</ele><time>2026-05-02T13:23:41.471Z</time></trkpt><trkpt lat="46.1461248" lon="13.436413"><ele>325.0</ele><time>2026-05-02T13:23:42.471Z</time></trkpt><trkpt lat="46.1461977" lon="13.4362785"><ele>327.0</ele><time>2026-05-02T13:23:44.47Z</time></trkpt><trkpt lat="46.1463063" lon="13.4362192"><ele>329.0</ele><time>2026-05-02T13:23:46.47Z</time></trkpt><trkpt lat="46.1463818" lon="13.4362188"><ele>331.0</ele><time>2026-05-02T13:23:47.469Z</time></trkpt><trkpt lat="46.1464632" lon="13.4361965"><ele>333.0</ele><time>2026-05-02T13:23:48.471Z</time></trkpt><trkpt lat="46.1465507" lon="13.4361717"><ele>333.0</ele><time>2026-05-02T13:23:49.47Z</time></trkpt><trkpt lat="46.1466473" lon="13.4361295"><ele>333.0</ele><time>2026-05-02T13:23:50.469Z</time></trkpt><trkpt lat="46.1467507" lon="13.4360663"><ele>333.0</ele><time>2026-05-02T13:23:51.471Z</time></trkpt><trkpt lat="46.1468553" lon="13.435999"><ele>333.0</ele><time>2026-05-02T13:23:52.47Z</time></trkpt><trkpt lat="46.1469617" lon="13.4359338"><ele>333.0</ele><time>2026-05-02T13:23:53.469Z</time></trkpt><trkpt lat="46.1470713" lon="13.4358773"><ele>333.0</ele><time>2026-05-02T13:23:54.471Z</time></trkpt><trkpt lat="46.1471798" lon="13.4358188"><ele>333.0</ele><time>2026-05-02T13:23:55.47Z</time></trkpt><trkpt lat="46.1472748" lon="13.4357593"><ele>333.0</ele><time>2026-05-02T13:23:56.469Z</time></trkpt><trkpt lat="46.1473707" lon="13.4356977"><ele>333.0</ele><time>2026-05-02T13:23:57.468Z</time></trkpt><trkpt lat="46.147459" lon="13.4356393"><ele>333.0</ele><time>2026-05-02T13:23:58.468Z</time></trkpt><trkpt lat="46.1475345" lon="13.4355968"><ele>330.4</ele><time>2026-05-02T13:23:59.469Z</time></trkpt><trkpt lat="46.1476938" lon="13.4355932"><ele>327.79999999999995</ele><time>2026-05-02T13:24:01.468Z</time></trkpt><trkpt lat="46.1477882" lon="13.4355863"><ele>325.2</ele><time>2026-05-02T13:24:02.466Z</time></trkpt><trkpt lat="46.1478888" lon="13.4355927"><ele>322.6</ele><time>2026-05-02T13:24:03.466Z</time></trkpt><trkpt lat="46.1479673" lon="13.4356068"><ele>320.0</ele><time>2026-05-02T13:24:04.466Z</time></trkpt><trkpt lat="46.1480432" lon="13.4356125"><ele>320.0</ele><time>2026-05-02T13:24:05.467Z</time></trkpt><trkpt lat="46.148135" lon="13.4355972"><ele>320.0</ele><time>2026-05-02T13:24:06.469Z</time></trkpt><trkpt lat="46.1482203" lon="13.4355745"><ele>320.0</ele><time>2026-05-02T13:24:07.468Z</time></trkpt><trkpt lat="46.1483328" lon="13.4355048"><ele>320.0</ele><time>2026-05-02T13:24:08.468Z</time></trkpt><trkpt lat="46.148428" lon="13.4354318"><ele>320.0</ele><time>2026-05-02T13:24:09.469Z</time></trkpt><trkpt lat="46.1485085" lon="13.4353672"><ele>327.8</ele><time>2026-05-02T13:24:10.469Z</time></trkpt><trkpt lat="46.1485812" lon="13.43531"><ele>335.6</ele><time>2026-05-02T13:24:11.469Z</time></trkpt><trkpt lat="46.1486457" lon="13.4352627"><ele>343.4</ele><time>2026-05-02T13:24:12.469Z</time></trkpt><trkpt lat="46.1487447" lon="13.4351532"><ele>351.2</ele><time>2026-05-02T13:24:14.469Z</time></trkpt><trkpt lat="46.148795" lon="13.4350798"><ele>359.0</ele><time>2026-05-02T13:24:15.473Z</time></trkpt><trkpt lat="46.1488633" lon="13.4349668"><ele>359.0</ele><time>2026-05-02T13:24:16.47Z</time></trkpt><trkpt lat="46.1489122" lon="13.4348412"><ele>359.0</ele><time>2026-05-02T13:24:17.47Z</time></trkpt><trkpt lat="46.1489767" lon="13.4347133"><ele>359.0</ele><time>2026-05-02T13:24:18.469Z</time></trkpt><trkpt lat="46.1490628" lon="13.4345843"><ele>359.0</ele><time>2026-05-02T13:24:19.47Z</time></trkpt><trkpt lat="46.1491145" lon="13.4344698"><ele>359.0</ele><time>2026-05-02T13:24:20.47Z</time></trkpt><trkpt lat="46.149167" lon="13.4342593"><ele>359.33333333333337</ele><time>2026-05-02T13:24:22.47Z</time></trkpt><trkpt lat="46.1491832" lon="13.4341017"><ele>359.6666666666667</ele><time>2026-05-02T13:24:24.469Z</time></trkpt><trkpt lat="46.149211" lon="13.4340108"><ele>360.0</ele><time>2026-05-02T13:24:26.468Z</time></trkpt><trkpt lat="46.1492857" lon="13.4340015"><ele>360.3333333333333</ele><time>2026-05-02T13:24:29.469Z</time></trkpt><trkpt lat="46.1493837" lon="13.4340717"><ele>360.66666666666663</ele><time>2026-05-02T13:24:31.469Z</time></trkpt><trkpt lat="46.1494537" lon="13.4341238"><ele>361.0</ele><time>2026-05-02T13:24:32.471Z</time></trkpt><trkpt lat="46.1495362" lon="13.4341582"><ele>361.0</ele><time>2026-05-02T13:24:33.472Z</time></trkpt><trkpt lat="46.1496278" lon="13.4341855"><ele>361.0</ele><time>2026-05-02T13:24:34.471Z</time></trkpt><trkpt lat="46.1497187" lon="13.4341573"><ele>361.0</ele><time>2026-05-02T13:24:35.471Z</time></trkpt><trkpt lat="46.1497913" lon="13.434121"><ele>361.0</ele><time>2026-05-02T13:24:36.469Z</time></trkpt><trkpt lat="46.149869" lon="13.4340545"><ele>361.0</ele><time>2026-05-02T13:24:37.469Z</time></trkpt><trkpt lat="46.1499558" lon="13.4339877"><ele>357.5</ele><time>2026-05-02T13:24:38.469Z</time></trkpt><trkpt lat="46.1500445" lon="13.4339235"><ele>354.0</ele><time>2026-05-02T13:24:39.47Z</time></trkpt><trkpt lat="46.1501315" lon="13.4338572"><ele>350.5</ele><time>2026-05-02T13:24:40.47Z</time></trkpt><trkpt lat="46.1502175" lon="13.433785"><ele>347.0</ele><time>2026-05-02T13:24:41.47Z</time></trkpt><trkpt lat="46.1503618" lon="13.433645"><ele>354.0</ele><time>2026-05-02T13:24:43.47Z</time></trkpt><trkpt lat="46.1504467" lon="13.4335413"><ele>361.0</ele><time>2026-05-02T13:24:44.67Z</time></trkpt><trkpt lat="46.1505367" lon="13.4333928"><ele>368.0</ele><time>2026-05-02T13:24:46.277Z</time></trkpt><trkpt lat="46.1505758" lon="13.4332935"><ele>375.0</ele><time>2026-05-02T13:24:47.278Z</time></trkpt><trkpt lat="46.1506095" lon="13.4331725"><ele>382.0</ele><time>2026-05-02T13:24:48.276Z</time></trkpt><trkpt lat="46.150641" lon="13.4330478"><ele>381.0</ele><time>2026-05-02T13:24:49.278Z</time></trkpt><trkpt lat="46.1506605" lon="13.4329227"><ele>380.0</ele><time>2026-05-02T13:24:50.277Z</time></trkpt><trkpt lat="46.1506812" lon="13.4327773"><ele>379.0</ele><time>2026-05-02T13:24:51.276Z</time></trkpt><trkpt lat="46.1507033" lon="13.432635"><ele>378.0</ele><time>2026-05-02T13:24:52.278Z</time></trkpt><trkpt lat="46.1507223" lon="13.4324903"><ele>377.0</ele><time>2026-05-02T13:24:53.278Z</time></trkpt><trkpt lat="46.1507403" lon="13.4323598"><ele>377.0</ele><time>2026-05-02T13:24:54.281Z</time></trkpt><trkpt lat="46.1507588" lon="13.4322468"><ele>377.0</ele><time>2026-05-02T13:24:55.277Z</time></trkpt><trkpt lat="46.1507843" lon="13.4321425"><ele>377.0</ele><time>2026-05-02T13:24:56.278Z</time></trkpt><trkpt lat="46.1508183" lon="13.4320427"><ele>377.0</ele><time>2026-05-02T13:24:57.277Z</time></trkpt><trkpt lat="46.1508325" lon="13.4319325"><ele>377.0</ele><time>2026-05-02T13:24:58.471Z</time></trkpt><trkpt lat="46.150811" lon="13.43177"><ele>377.0</ele><time>2026-05-02T13:25:00.471Z</time></trkpt><trkpt lat="46.1507712" lon="13.4316842"><ele>379.20000000000005</ele><time>2026-05-02T13:25:01.47Z</time></trkpt><trkpt lat="46.1507182" lon="13.4315207"><ele>381.4</ele><time>2026-05-02T13:25:03.471Z</time></trkpt><trkpt lat="46.1507068" lon="13.4313333"><ele>383.6</ele><time>2026-05-02T13:25:05.469Z</time></trkpt><trkpt lat="46.150738" lon="13.4311775"><ele>385.79999999999995</ele><time>2026-05-02T13:25:07.469Z</time></trkpt><trkpt lat="46.1507728" lon="13.4310858"><ele>388.0</ele><time>2026-05-02T13:25:08.47Z</time></trkpt><trkpt lat="46.1508237" lon="13.430989"><ele>389.59999999999997</ele><time>2026-05-02T13:25:09.469Z</time></trkpt><trkpt lat="46.1508825" lon="13.4308818"><ele>391.2</ele><time>2026-05-02T13:25:10.469Z</time></trkpt><trkpt lat="46.1509365" lon="13.4307547"><ele>392.8</ele><time>2026-05-02T13:25:11.468Z</time></trkpt><trkpt lat="46.1509927" lon="13.4306267"><ele>394.4</ele><time>2026-05-02T13:25:12.47Z</time></trkpt><trkpt lat="46.1510412" lon="13.4304963"><ele>396.0</ele><time>2026-05-02T13:25:13.47Z</time></trkpt><trkpt lat="46.1510845" lon="13.4303683"><ele>400.0</ele><time>2026-05-02T13:25:14.469Z</time></trkpt><trkpt lat="46.1511258" lon="13.4302423"><ele>404.0</ele><time>2026-05-02T13:25:15.468Z</time></trkpt><trkpt lat="46.1511668" lon="13.4301182"><ele>408.0</ele><time>2026-05-02T13:25:16.468Z</time></trkpt><trkpt lat="46.1512102" lon="13.4299992"><ele>412.0</ele><time>2026-05-02T13:25:17.468Z</time></trkpt><trkpt lat="46.1512602" lon="13.429884"><ele>416.0</ele><time>2026-05-02T13:25:18.469Z</time></trkpt><trkpt lat="46.1513135" lon="13.4297783"><ele>416.0</ele><time>2026-05-02T13:25:19.47Z</time></trkpt><trkpt lat="46.151368" lon="13.4296755"><ele>416.0</ele><time>2026-05-02T13:25:20.471Z</time></trkpt><trkpt lat="46.1514255" lon="13.4295893"><ele>416.0</ele><time>2026-05-02T13:25:21.47Z</time></trkpt><trkpt lat="46.1514775" lon="13.4295128"><ele>416.0</ele><time>2026-05-02T13:25:22.47Z</time></trkpt><trkpt lat="46.1515502" lon="13.4294505"><ele>416.0</ele><time>2026-05-02T13:25:24.47Z</time></trkpt><trkpt lat="46.151543" lon="13.4296915"><ele>409.5</ele><time>2026-05-02T13:25:31.473Z</time></trkpt><trkpt lat="46.1515997" lon="13.4298647"><ele>403.0</ele><time>2026-05-02T13:25:33.469Z</time></trkpt><trkpt lat="46.1516442" lon="13.4299667"><ele>396.5</ele><time>2026-05-02T13:25:34.47Z</time></trkpt><trkpt lat="46.1517087" lon="13.4300847"><ele>390.0</ele><time>2026-05-02T13:25:35.47Z</time></trkpt><trkpt lat="46.1517972" lon="13.4302208"><ele>390.0</ele><time>2026-05-02T13:25:36.471Z</time></trkpt><trkpt lat="46.151897" lon="13.4303447"><ele>390.0</ele><time>2026-05-02T13:25:37.471Z</time></trkpt><trkpt lat="46.1519768" lon="13.4304458"><ele>390.0</ele><time>2026-05-02T13:25:38.471Z</time></trkpt><trkpt lat="46.1520398" lon="13.4305127"><ele>390.0</ele><time>2026-05-02T13:25:39.47Z</time></trkpt><trkpt lat="46.1521037" lon="13.4305555"><ele>390.0</ele><time>2026-05-02T13:25:40.469Z</time></trkpt><trkpt lat="46.1521695" lon="13.4305653"><ele>388.8</ele><time>2026-05-02T13:25:41.47Z</time></trkpt><trkpt lat="46.1522437" lon="13.4305502"><ele>387.6</ele><time>2026-05-02T13:25:42.47Z</time></trkpt><trkpt lat="46.152335" lon="13.4305118"><ele>386.4</ele><time>2026-05-02T13:25:43.471Z</time></trkpt><trkpt lat="46.1524225" lon="13.4304865"><ele>385.2</ele><time>2026-05-02T13:25:44.471Z</time></trkpt><trkpt lat="46.152511" lon="13.4304693"><ele>384.0</ele><time>2026-05-02T13:25:45.471Z</time></trkpt><trkpt lat="46.1527165" lon="13.4304512"><ele>389.0</ele><time>2026-05-02T13:25:47.471Z</time></trkpt><trkpt lat="46.1528073" lon="13.4304497"><ele>394.0</ele><time>2026-05-02T13:25:48.471Z</time></trkpt><trkpt lat="46.1529" lon="13.43044"><ele>399.0</ele><time>2026-05-02T13:25:49.471Z</time></trkpt><trkpt lat="46.1529908" lon="13.430421"><ele>404.0</ele><time>2026-05-02T13:25:50.47Z</time></trkpt><trkpt lat="46.1530828" lon="13.4303967"><ele>409.0</ele><time>2026-05-02T13:25:51.47Z</time></trkpt><trkpt lat="46.1531627" lon="13.4303677"><ele>410.2</ele><time>2026-05-02T13:25:52.47Z</time></trkpt><trkpt lat="46.153273" lon="13.4303553"><ele>411.4</ele><time>2026-05-02T13:25:54.471Z</time></trkpt><trkpt lat="46.153355" lon="13.4304293"><ele>412.6</ele><time>2026-05-02T13:25:56.471Z</time></trkpt><trkpt lat="46.153395" lon="13.4305072"><ele>413.8</ele><time>2026-05-02T13:25:57.471Z</time></trkpt><trkpt lat="46.1534783" lon="13.4306078"><ele>415.0</ele><time>2026-05-02T13:25:59.47Z</time></trkpt><trkpt lat="46.1535908" lon="13.4306687"><ele>412.1666666666667</ele><time>2026-05-02T13:26:01.47Z</time></trkpt><trkpt lat="46.1536698" lon="13.4306813"><ele>409.33333333333337</ele><time>2026-05-02T13:26:02.471Z</time></trkpt><trkpt lat="46.1537457" lon="13.4306895"><ele>406.5</ele><time>2026-05-02T13:26:03.471Z</time></trkpt><trkpt lat="46.1538203" lon="13.4307042"><ele>403.66666666666663</ele><time>2026-05-02T13:26:04.47Z</time></trkpt><trkpt lat="46.1538982" lon="13.4307008"><ele>400.8333333333333</ele><time>2026-05-02T13:26:05.47Z</time></trkpt><trkpt lat="46.1539617" lon="13.4306798"><ele>398.0</ele><time>2026-05-02T13:26:06.469Z</time></trkpt><trkpt lat="46.154085" lon="13.4305907"><ele>398.0</ele><time>2026-05-02T13:26:08.47Z</time></trkpt><trkpt lat="46.1541595" lon="13.430509"><ele>398.0</ele><time>2026-05-02T13:26:09.471Z</time></trkpt><trkpt lat="46.1542422" lon="13.4304203"><ele>398.0</ele><time>2026-05-02T13:26:10.47Z</time></trkpt><trkpt lat="46.1543343" lon="13.4303343"><ele>398.0</ele><time>2026-05-02T13:26:11.47Z</time></trkpt><trkpt lat="46.1544258" lon="13.4302795"><ele>398.0</ele><time>2026-05-02T13:26:12.471Z</time></trkpt><trkpt lat="46.1545253" lon="13.4301987"><ele>401.59999999999997</ele><time>2026-05-02T13:26:13.471Z</time></trkpt><trkpt lat="46.1546238" lon="13.4301245"><ele>405.2</ele><time>2026-05-02T13:26:14.471Z</time></trkpt><trkpt lat="46.1547088" lon="13.430041"><ele>408.8</ele><time>2026-05-02T13:26:15.471Z</time></trkpt><trkpt lat="46.1547933" lon="13.4299632"><ele>412.4</ele><time>2026-05-02T13:26:16.47Z</time></trkpt><trkpt lat="46.1548813" lon="13.4299113"><ele>416.0</ele><time>2026-05-02T13:26:17.473Z</time></trkpt><trkpt lat="46.1549702" lon="13.4298667"><ele>415.99999999999994</ele><time>2026-05-02T13:26:18.471Z</time></trkpt><trkpt lat="46.1550538" lon="13.4298202"><ele>416.0</ele><time>2026-05-02T13:26:19.47Z</time></trkpt><trkpt lat="46.1551243" lon="13.4297707"><ele>416.0</ele><time>2026-05-02T13:26:20.47Z</time></trkpt><trkpt lat="46.1551847" lon="13.4297077"><ele>416.0</ele><time>2026-05-02T13:26:21.471Z</time></trkpt><trkpt lat="46.1552387" lon="13.4296143"><ele>415.99999999999994</ele><time>2026-05-02T13:26:22.471Z</time></trkpt><trkpt lat="46.1553068" lon="13.4295048"><ele>416.0</ele><time>2026-05-02T13:26:23.471Z</time></trkpt><trkpt lat="46.1553445" lon="13.429403"><ele>423.20000000000005</ele><time>2026-05-02T13:26:24.47Z</time></trkpt><trkpt lat="46.1553877" lon="13.429309"><ele>430.40000000000003</ele><time>2026-05-02T13:26:25.47Z</time></trkpt><trkpt lat="46.1554352" lon="13.4292157"><ele>437.6</ele><time>2026-05-02T13:26:26.47Z</time></trkpt><trkpt lat="46.1554927" lon="13.4291248"><ele>444.8</ele><time>2026-05-02T13:26:27.471Z</time></trkpt><trkpt lat="46.1556002" lon="13.4289228"><ele>452.0</ele><time>2026-05-02T13:26:29.468Z</time></trkpt><trkpt lat="46.1556528" lon="13.4288013"><ele>450.99999999999994</ele><time>2026-05-02T13:26:30.467Z</time></trkpt><trkpt lat="46.1556945" lon="13.4286878"><ele>450.0</ele><time>2026-05-02T13:26:31.468Z</time></trkpt><trkpt lat="46.1557297" lon="13.4285752"><ele>449.0</ele><time>2026-05-02T13:26:32.47Z</time></trkpt><trkpt lat="46.1557827" lon="13.4284687"><ele>448.0</ele><time>2026-05-02T13:26:33.47Z</time></trkpt><trkpt lat="46.1558332" lon="13.4283888"><ele>446.99999999999994</ele><time>2026-05-02T13:26:34.47Z</time></trkpt><trkpt lat="46.1558807" lon="13.4283147"><ele>446.0</ele><time>2026-05-02T13:26:35.47Z</time></trkpt><trkpt lat="46.1559405" lon="13.4282665"><ele>446.0</ele><time>2026-05-02T13:26:36.47Z</time></trkpt><trkpt lat="46.1560195" lon="13.428239"><ele>446.0</ele><time>2026-05-02T13:26:37.47Z</time></trkpt><trkpt lat="46.1561128" lon="13.4282325"><ele>446.0</ele><time>2026-05-02T13:26:38.469Z</time></trkpt><trkpt lat="46.1562013" lon="13.4282243"><ele>446.0</ele><time>2026-05-02T13:26:39.469Z</time></trkpt><trkpt lat="46.1563043" lon="13.4282077"><ele>446.0</ele><time>2026-05-02T13:26:40.47Z</time></trkpt><trkpt lat="46.1564103" lon="13.4281758"><ele>445.99999999999994</ele><time>2026-05-02T13:26:41.469Z</time></trkpt><trkpt lat="46.1564998" lon="13.4281288"><ele>446.0</ele><time>2026-05-02T13:26:42.471Z</time></trkpt><trkpt lat="46.1565745" lon="13.428084"><ele>446.0</ele><time>2026-05-02T13:26:43.47Z</time></trkpt><trkpt lat="46.1566452" lon="13.4280308"><ele>446.0</ele><time>2026-05-02T13:26:44.47Z</time></trkpt><trkpt lat="46.1566948" lon="13.4279648"><ele>445.99999999999994</ele><time>2026-05-02T13:26:45.471Z</time></trkpt><trkpt lat="46.1567375" lon="13.4278935"><ele>446.0</ele><time>2026-05-02T13:26:46.47Z</time></trkpt><trkpt lat="46.1567702" lon="13.4278038"><ele>448.4</ele><time>2026-05-02T13:26:47.471Z</time></trkpt><trkpt lat="46.156799" lon="13.4277042"><ele>450.8</ele><time>2026-05-02T13:26:48.471Z</time></trkpt><trkpt lat="46.1568957" lon="13.4274735"><ele>453.19999999999993</ele><time>2026-05-02T13:26:50.472Z</time></trkpt><trkpt lat="46.1569472" lon="13.4273642"><ele>455.59999999999997</ele><time>2026-05-02T13:26:51.471Z</time></trkpt><trkpt lat="46.1570028" lon="13.427273"><ele>458.0</ele><time>2026-05-02T13:26:52.47Z</time></trkpt><trkpt lat="46.1570553" lon="13.4271993"><ele>461.49999999999994</ele><time>2026-05-02T13:26:53.469Z</time></trkpt><trkpt lat="46.157117" lon="13.427143"><ele>465.0</ele><time>2026-05-02T13:26:54.469Z</time></trkpt><trkpt lat="46.1571815" lon="13.4271197"><ele>468.5</ele><time>2026-05-02T13:26:55.468Z</time></trkpt><trkpt lat="46.1572685" lon="13.4271002"><ele>472.0</ele><time>2026-05-02T13:26:56.469Z</time></trkpt><trkpt lat="46.1573578" lon="13.4270853"><ele>475.49999999999994</ele><time>2026-05-02T13:26:57.471Z</time></trkpt><trkpt lat="46.1574573" lon="13.4270568"><ele>479.0</ele><time>2026-05-02T13:26:58.471Z</time></trkpt><trkpt lat="46.1575458" lon="13.4270067"><ele>479.0</ele><time>2026-05-02T13:26:59.471Z</time></trkpt><trkpt lat="46.1576175" lon="13.4269755"><ele>479.0</ele><time>2026-05-02T13:27:00.472Z</time></trkpt><trkpt lat="46.1577262" lon="13.4269398"><ele>479.0</ele><time>2026-05-02T13:27:02.472Z</time></trkpt><trkpt lat="46.1578418" lon="13.4269728"><ele>479.0</ele><time>2026-05-02T13:27:04.471Z</time></trkpt><trkpt lat="46.1579142" lon="13.4270003"><ele>479.0</ele><time>2026-05-02T13:27:05.471Z</time></trkpt><trkpt lat="46.1579823" lon="13.4270385"><ele>479.0</ele><time>2026-05-02T13:27:06.471Z</time></trkpt><trkpt lat="46.1580215" lon="13.4271097"><ele>479.0</ele><time>2026-05-02T13:27:07.47Z</time></trkpt><trkpt lat="46.1580763" lon="13.4271603"><ele>479.0</ele><time>2026-05-02T13:27:08.47Z</time></trkpt><trkpt lat="46.1581563" lon="13.4272008"><ele>479.0</ele><time>2026-05-02T13:27:09.47Z</time></trkpt><trkpt lat="46.1583392" lon="13.4272387"><ele>479.0</ele><time>2026-05-02T13:27:11.471Z</time></trkpt><trkpt lat="46.1584147" lon="13.4272453"><ele>478.0</ele><time>2026-05-02T13:27:12.47Z</time></trkpt><trkpt lat="46.1584998" lon="13.4272235"><ele>477.0</ele><time>2026-05-02T13:27:13.471Z</time></trkpt><trkpt lat="46.1585695" lon="13.427186"><ele>476.0</ele><time>2026-05-02T13:27:14.471Z</time></trkpt><trkpt lat="46.1586678" lon="13.4270873"><ele>475.0</ele><time>2026-05-02T13:27:16.471Z</time></trkpt><trkpt lat="46.1587307" lon="13.4269773"><ele>474.0</ele><time>2026-05-02T13:27:17.468Z</time></trkpt><trkpt lat="46.1587945" lon="13.4268497"><ele>474.0</ele><time>2026-05-02T13:27:18.47Z</time></trkpt><trkpt lat="46.1588618" lon="13.426721"><ele>474.0</ele><time>2026-05-02T13:27:19.47Z</time></trkpt><trkpt lat="46.1589173" lon="13.4265868"><ele>474.0</ele><time>2026-05-02T13:27:20.469Z</time></trkpt><trkpt lat="46.158971" lon="13.426443"><ele>474.0</ele><time>2026-05-02T13:27:21.471Z</time></trkpt><trkpt lat="46.1590087" lon="13.426298"><ele>474.0</ele><time>2026-05-02T13:27:22.47Z</time></trkpt><trkpt lat="46.159038" lon="13.4261435"><ele>474.5</ele><time>2026-05-02T13:27:23.47Z</time></trkpt><trkpt lat="46.1590607" lon="13.4259847"><ele>475.0</ele><time>2026-05-02T13:27:24.47Z</time></trkpt><trkpt lat="46.1590782" lon="13.4258172"><ele>475.5</ele><time>2026-05-02T13:27:25.47Z</time></trkpt><trkpt lat="46.1590967" lon="13.4256412"><ele>476.0</ele><time>2026-05-02T13:27:26.47Z</time></trkpt><trkpt lat="46.1591138" lon="13.4254832"><ele>478.5</ele><time>2026-05-02T13:27:27.47Z</time></trkpt><trkpt lat="46.1591347" lon="13.4253352"><ele>481.0</ele><time>2026-05-02T13:27:28.469Z</time></trkpt><trkpt lat="46.1591442" lon="13.4252065"><ele>483.5</ele><time>2026-05-02T13:27:29.47Z</time></trkpt><trkpt lat="46.1591422" lon="13.4250785"><ele>486.0</ele><time>2026-05-02T13:27:30.469Z</time></trkpt><trkpt lat="46.1590947" lon="13.424816"><ele>486.0</ele><time>2026-05-02T13:27:33.47Z</time></trkpt><trkpt lat="46.1591075" lon="13.424695"><ele>486.0</ele><time>2026-05-02T13:27:35.469Z</time></trkpt><trkpt lat="46.1591955" lon="13.4245645"><ele>486.0</ele><time>2026-05-02T13:27:37.469Z</time></trkpt><trkpt lat="46.1592403" lon="13.424487"><ele>486.0</ele><time>2026-05-02T13:27:38.469Z</time></trkpt><trkpt lat="46.1592665" lon="13.4243983"><ele>486.0</ele><time>2026-05-02T13:27:39.469Z</time></trkpt><trkpt lat="46.1592913" lon="13.4242925"><ele>486.0</ele><time>2026-05-02T13:27:40.47Z</time></trkpt><trkpt lat="46.1593108" lon="13.4241748"><ele>488.8</ele><time>2026-05-02T13:27:41.469Z</time></trkpt><trkpt lat="46.1593222" lon="13.4240697"><ele>491.6</ele><time>2026-05-02T13:27:42.468Z</time></trkpt><trkpt lat="46.1593262" lon="13.4239725"><ele>494.4</ele><time>2026-05-02T13:27:43.468Z</time></trkpt><trkpt lat="46.1592977" lon="13.4238028"><ele>497.2</ele><time>2026-05-02T13:27:45.468Z</time></trkpt><trkpt lat="46.1592757" lon="13.4236545"><ele>500.0</ele><time>2026-05-02T13:27:47.47Z</time></trkpt><trkpt lat="46.1592475" lon="13.4235385"><ele>500.66666666666663</ele><time>2026-05-02T13:27:49.469Z</time></trkpt><trkpt lat="46.1592145" lon="13.4233903"><ele>501.33333333333337</ele><time>2026-05-02T13:27:51.47Z</time></trkpt><trkpt lat="46.1590858" lon="13.423102"><ele>502.0</ele><time>2026-05-02T13:27:55.469Z</time></trkpt><trkpt lat="46.1590732" lon="13.4229347"><ele>499.6</ele><time>2026-05-02T13:27:57.471Z</time></trkpt><trkpt lat="46.1590797" lon="13.4228227"><ele>497.20000000000005</ele><time>2026-05-02T13:27:58.469Z</time></trkpt><trkpt lat="46.1590862" lon="13.4227192"><ele>494.8</ele><time>2026-05-02T13:27:59.469Z</time></trkpt><trkpt lat="46.1590847" lon="13.4226148"><ele>492.4</ele><time>2026-05-02T13:28:00.47Z</time></trkpt><trkpt lat="46.1591052" lon="13.4224193"><ele>490.0</ele><time>2026-05-02T13:28:02.47Z</time></trkpt><trkpt lat="46.1591365" lon="13.4222833"><ele>490.0</ele><time>2026-05-02T13:28:03.469Z</time></trkpt><trkpt lat="46.1591577" lon="13.4221658"><ele>490.0</ele><time>2026-05-02T13:28:04.469Z</time></trkpt><trkpt lat="46.159181" lon="13.422068"><ele>490.0</ele><time>2026-05-02T13:28:05.469Z</time></trkpt><trkpt lat="46.159195" lon="13.4218945"><ele>490.0</ele><time>2026-05-02T13:28:07.468Z</time></trkpt><trkpt lat="46.1591328" lon="13.4217333"><ele>490.0</ele><time>2026-05-02T13:28:09.47Z</time></trkpt><trkpt lat="46.1590947" lon="13.4216557"><ele>490.75</ele><time>2026-05-02T13:28:10.468Z</time></trkpt><trkpt lat="46.1590635" lon="13.4215087"><ele>491.5</ele><time>2026-05-02T13:28:12.47Z</time></trkpt><trkpt lat="46.1591633" lon="13.4212647"><ele>492.25</ele><time>2026-05-02T13:28:16.469Z</time></trkpt><trkpt lat="46.159218" lon="13.4211922"><ele>493.0</ele><time>2026-05-02T13:28:17.47Z</time></trkpt><trkpt lat="46.1592867" lon="13.4211168"><ele>495.50000000000006</ele><time>2026-05-02T13:28:18.47Z</time></trkpt><trkpt lat="46.1593472" lon="13.4210367"><ele>498.0</ele><time>2026-05-02T13:28:19.469Z</time></trkpt><trkpt lat="46.1594028" lon="13.4209733"><ele>500.5</ele><time>2026-05-02T13:28:20.469Z</time></trkpt><trkpt lat="46.1594692" lon="13.4208673"><ele>503.0</ele><time>2026-05-02T13:28:21.471Z</time></trkpt><trkpt lat="46.1595223" lon="13.4207503"><ele>505.50000000000006</ele><time>2026-05-02T13:28:22.471Z</time></trkpt><trkpt lat="46.1595695" lon="13.4206405"><ele>508.0</ele><time>2026-05-02T13:28:23.47Z</time></trkpt><trkpt lat="46.1596137" lon="13.4205283"><ele>512.1999999999999</ele><time>2026-05-02T13:28:24.47Z</time></trkpt><trkpt lat="46.1596588" lon="13.420409"><ele>516.4</ele><time>2026-05-02T13:28:25.469Z</time></trkpt><trkpt lat="46.1596998" lon="13.4202825"><ele>520.5999999999999</ele><time>2026-05-02T13:28:26.468Z</time></trkpt><trkpt lat="46.1597382" lon="13.4201385"><ele>524.8</ele><time>2026-05-02T13:28:27.468Z</time></trkpt><trkpt lat="46.1597735" lon="13.4200037"><ele>529.0</ele><time>2026-05-02T13:28:28.468Z</time></trkpt><trkpt lat="46.1598" lon="13.4198562"><ele>529.0</ele><time>2026-05-02T13:28:29.468Z</time></trkpt><trkpt lat="46.1598195" lon="13.4197335"><ele>529.0</ele><time>2026-05-02T13:28:30.468Z</time></trkpt><trkpt lat="46.1598352" lon="13.4196087"><ele>529.0</ele><time>2026-05-02T13:28:31.468Z</time></trkpt><trkpt lat="46.1598563" lon="13.4194533"><ele>529.0</ele><time>2026-05-02T13:28:32.467Z</time></trkpt><trkpt lat="46.1598835" lon="13.4192968"><ele>529.0</ele><time>2026-05-02T13:28:33.467Z</time></trkpt><trkpt lat="46.1599527" lon="13.418987"><ele>525.8333333333334</ele><time>2026-05-02T13:28:35.469Z</time></trkpt><trkpt lat="46.1599875" lon="13.4188525"><ele>522.6666666666667</ele><time>2026-05-02T13:28:36.469Z</time></trkpt><trkpt lat="46.1600092" lon="13.4187273"><ele>519.5</ele><time>2026-05-02T13:28:37.469Z</time></trkpt><trkpt lat="46.1600283" lon="13.4186068"><ele>516.3333333333334</ele><time>2026-05-02T13:28:38.47Z</time></trkpt><trkpt lat="46.160055" lon="13.4185162"><ele>513.1666666666666</ele><time>2026-05-02T13:28:39.47Z</time></trkpt><trkpt lat="46.1601125" lon="13.4184538"><ele>510.0</ele><time>2026-05-02T13:28:41.469Z</time></trkpt><trkpt lat="46.1601712" lon="13.418524"><ele>510.0</ele><time>2026-05-02T13:28:43.469Z</time></trkpt><trkpt lat="46.1601782" lon="13.4186967"><ele>510.0</ele><time>2026-05-02T13:28:45.468Z</time></trkpt><trkpt lat="46.1601607" lon="13.4187875"><ele>510.0</ele><time>2026-05-02T13:28:46.467Z</time></trkpt><trkpt lat="46.160162" lon="13.418893"><ele>510.0</ele><time>2026-05-02T13:28:47.467Z</time></trkpt><trkpt lat="46.1601647" lon="13.4189998"><ele>510.0</ele><time>2026-05-02T13:28:48.468Z</time></trkpt><trkpt lat="46.160184" lon="13.4190962"><ele>510.0</ele><time>2026-05-02T13:28:49.47Z</time></trkpt><trkpt lat="46.1602087" lon="13.4192118"><ele>507.8</ele><time>2026-05-02T13:28:50.469Z</time></trkpt><trkpt lat="46.1602518" lon="13.4193385"><ele>505.6</ele><time>2026-05-02T13:28:51.469Z</time></trkpt><trkpt lat="46.1602927" lon="13.4194623"><ele>503.4</ele><time>2026-05-02T13:28:52.469Z</time></trkpt><trkpt lat="46.1603193" lon="13.4195772"><ele>501.2</ele><time>2026-05-02T13:28:53.469Z</time></trkpt><trkpt lat="46.160337" lon="13.4196922"><ele>499.0</ele><time>2026-05-02T13:28:54.471Z</time></trkpt><trkpt lat="46.1603303" lon="13.419926"><ele>496.0</ele><time>2026-05-02T13:28:56.468Z</time></trkpt><trkpt lat="46.160335" lon="13.4200795"><ele>493.0</ele><time>2026-05-02T13:28:58.467Z</time></trkpt><trkpt lat="46.1603943" lon="13.4202193"><ele>490.0</ele><time>2026-05-02T13:29:00.469Z</time></trkpt><trkpt lat="46.1604485" lon="13.4202732"><ele>487.0</ele><time>2026-05-02T13:29:01.47Z</time></trkpt><trkpt lat="46.1605498" lon="13.4203648"><ele>484.0</ele><time>2026-05-02T13:29:03.47Z</time></trkpt><trkpt lat="46.1606078" lon="13.4204302"><ele>484.0</ele><time>2026-05-02T13:29:05.471Z</time></trkpt><trkpt lat="46.1606613" lon="13.4204788"><ele>484.0</ele><time>2026-05-02T13:29:09.472Z</time></trkpt><trkpt lat="46.1607168" lon="13.420543"><ele>484.0</ele><time>2026-05-02T13:29:13.472Z</time></trkpt><trkpt lat="46.1608068" lon="13.420607"><ele>484.0</ele><time>2026-05-02T13:29:15.472Z</time></trkpt><trkpt lat="46.16094" lon="13.4207088"><ele>484.0</ele><time>2026-05-02T13:29:17.471Z</time></trkpt><trkpt lat="46.1610188" lon="13.4207768"><ele>485.6</ele><time>2026-05-02T13:29:18.472Z</time></trkpt><trkpt lat="46.1611123" lon="13.4208382"><ele>487.2</ele><time>2026-05-02T13:29:19.472Z</time></trkpt><trkpt lat="46.1612127" lon="13.4209022"><ele>488.80000000000007</ele><time>2026-05-02T13:29:20.471Z</time></trkpt><trkpt lat="46.1613115" lon="13.4209812"><ele>490.40000000000003</ele><time>2026-05-02T13:29:21.471Z</time></trkpt><trkpt lat="46.161402" lon="13.4210787"><ele>492.0</ele><time>2026-05-02T13:29:22.469Z</time></trkpt><trkpt lat="46.1614827" lon="13.4211785"><ele>495.0</ele><time>2026-05-02T13:29:23.469Z</time></trkpt><trkpt lat="46.1615427" lon="13.4213167"><ele>498.0</ele><time>2026-05-02T13:29:24.47Z</time></trkpt><trkpt lat="46.1615838" lon="13.421464"><ele>501.0</ele><time>2026-05-02T13:29:25.47Z</time></trkpt><trkpt lat="46.1616158" lon="13.4216268"><ele>504.0</ele><time>2026-05-02T13:29:26.47Z</time></trkpt><trkpt lat="46.161654" lon="13.4217972"><ele>504.0</ele><time>2026-05-02T13:29:27.471Z</time></trkpt><trkpt lat="46.1617062" lon="13.4219552"><ele>504.0</ele><time>2026-05-02T13:29:28.47Z</time></trkpt><trkpt lat="46.1617598" lon="13.422109"><ele>504.0</ele><time>2026-05-02T13:29:29.472Z</time></trkpt><trkpt lat="46.1618155" lon="13.4222667"><ele>504.0</ele><time>2026-05-02T13:29:30.471Z</time></trkpt><trkpt lat="46.1618798" lon="13.4224145"><ele>499.25</ele><time>2026-05-02T13:29:31.471Z</time></trkpt><trkpt lat="46.1619552" lon="13.4225542"><ele>494.5</ele><time>2026-05-02T13:29:32.473Z</time></trkpt><trkpt lat="46.1620357" lon="13.4226917"><ele>489.75</ele><time>2026-05-02T13:29:33.472Z</time></trkpt><trkpt lat="46.1621175" lon="13.4228303"><ele>485.0</ele><time>2026-05-02T13:29:34.471Z</time></trkpt><trkpt lat="46.162187" lon="13.4229633"><ele>480.25</ele><time>2026-05-02T13:29:35.471Z</time></trkpt><trkpt lat="46.1622565" lon="13.4230737"><ele>475.5</ele><time>2026-05-02T13:29:36.47Z</time></trkpt><trkpt lat="46.1623982" lon="13.4232195"><ele>470.75</ele><time>2026-05-02T13:29:38.47Z</time></trkpt><trkpt lat="46.1624465" lon="13.4232832"><ele>466.0</ele><time>2026-05-02T13:29:39.47Z</time></trkpt><trkpt lat="46.1624475" lon="13.423479"><ele>466.4</ele><time>2026-05-02T13:29:41.469Z</time></trkpt><trkpt lat="46.1624132" lon="13.4235928"><ele>466.8</ele><time>2026-05-02T13:29:42.471Z</time></trkpt><trkpt lat="46.1623715" lon="13.4237247"><ele>467.19999999999993</ele><time>2026-05-02T13:29:43.469Z</time></trkpt><trkpt lat="46.1623475" lon="13.423881"><ele>467.59999999999997</ele><time>2026-05-02T13:29:44.467Z</time></trkpt><trkpt lat="46.1623368" lon="13.424055"><ele>468.0</ele><time>2026-05-02T13:29:45.467Z</time></trkpt><trkpt lat="46.1623202" lon="13.4242418"><ele>468.0</ele><time>2026-05-02T13:29:46.467Z</time></trkpt><trkpt lat="46.1623022" lon="13.4244335"><ele>468.0</ele><time>2026-05-02T13:29:47.466Z</time></trkpt><trkpt lat="46.1622875" lon="13.4246272"><ele>468.0</ele><time>2026-05-02T13:29:48.468Z</time></trkpt><trkpt lat="46.1622795" lon="13.4248307"><ele>468.0</ele><time>2026-05-02T13:29:49.469Z</time></trkpt><trkpt lat="46.1622693" lon="13.425026"><ele>468.5</ele><time>2026-05-02T13:29:50.469Z</time></trkpt><trkpt lat="46.1622642" lon="13.4251953"><ele>469.0</ele><time>2026-05-02T13:29:51.47Z</time></trkpt><trkpt lat="46.16226" lon="13.4253268"><ele>469.5</ele><time>2026-05-02T13:29:52.47Z</time></trkpt><trkpt lat="46.1622668" lon="13.425445"><ele>470.0</ele><time>2026-05-02T13:29:53.471Z</time></trkpt><trkpt lat="46.1622847" lon="13.4255625"><ele>470.5</ele><time>2026-05-02T13:29:54.473Z</time></trkpt><trkpt lat="46.1623035" lon="13.4256542"><ele>471.0</ele><time>2026-05-02T13:29:55.472Z</time></trkpt><trkpt lat="46.162373" lon="13.4257033"><ele>487.5</ele><time>2026-05-02T13:29:57.473Z</time></trkpt><trkpt lat="46.1623942" lon="13.425383"><ele>504.0</ele><time>2026-05-02T13:30:01.476Z</time></trkpt><trkpt lat="46.1624058" lon="13.4252462"><ele>520.5</ele><time>2026-05-02T13:30:02.472Z</time></trkpt><trkpt lat="46.1624375" lon="13.4250953"><ele>537.0</ele><time>2026-05-02T13:30:03.472Z</time></trkpt><trkpt lat="46.162474" lon="13.424926"><ele>537.0</ele><time>2026-05-02T13:30:04.472Z</time></trkpt><trkpt lat="46.1625088" lon="13.4247498"><ele>537.0</ele><time>2026-05-02T13:30:05.472Z</time></trkpt><trkpt lat="46.1625452" lon="13.4245702"><ele>537.0</ele><time>2026-05-02T13:30:06.475Z</time></trkpt><trkpt lat="46.1625883" lon="13.424392"><ele>537.0</ele><time>2026-05-02T13:30:07.472Z</time></trkpt><trkpt lat="46.1626422" lon="13.4242162"><ele>534.5</ele><time>2026-05-02T13:30:08.471Z</time></trkpt><trkpt lat="46.1627065" lon="13.4240427"><ele>532.0</ele><time>2026-05-02T13:30:09.471Z</time></trkpt><trkpt lat="46.1627767" lon="13.423872"><ele>529.5</ele><time>2026-05-02T13:30:10.469Z</time></trkpt><trkpt lat="46.1628487" lon="13.423703"><ele>527.0</ele><time>2026-05-02T13:30:11.47Z</time></trkpt><trkpt lat="46.1629237" lon="13.4235463"><ele>525.1666666666666</ele><time>2026-05-02T13:30:12.468Z</time></trkpt><trkpt lat="46.1629893" lon="13.4234145"><ele>523.3333333333333</ele><time>2026-05-02T13:30:13.47Z</time></trkpt><trkpt lat="46.1630378" lon="13.4233038"><ele>521.5</ele><time>2026-05-02T13:30:14.47Z</time></trkpt><trkpt lat="46.1630633" lon="13.4232053"><ele>519.6666666666666</ele><time>2026-05-02T13:30:15.47Z</time></trkpt><trkpt lat="46.1630517" lon="13.42311"><ele>517.8333333333334</ele><time>2026-05-02T13:30:16.469Z</time></trkpt><trkpt lat="46.1630085" lon="13.423024"><ele>516.0</ele><time>2026-05-02T13:30:17.471Z</time></trkpt><trkpt lat="46.1629528" lon="13.4229388"><ele>516.0</ele><time>2026-05-02T13:30:18.473Z</time></trkpt><trkpt lat="46.1628227" lon="13.4227435"><ele>516.0</ele><time>2026-05-02T13:30:20.472Z</time></trkpt><trkpt lat="46.1627545" lon="13.4226263"><ele>516.0</ele><time>2026-05-02T13:30:21.475Z</time></trkpt><trkpt lat="46.1627005" lon="13.4225013"><ele>516.0</ele><time>2026-05-02T13:30:22.47Z</time></trkpt><trkpt lat="46.162661" lon="13.4223623"><ele>516.0</ele><time>2026-05-02T13:30:23.471Z</time></trkpt><trkpt lat="46.1626372" lon="13.4222115"><ele>516.0</ele><time>2026-05-02T13:30:24.471Z</time></trkpt><trkpt lat="46.1626252" lon="13.422051"><ele>516.0</ele><time>2026-05-02T13:30:25.48Z</time></trkpt><trkpt lat="46.1626203" lon="13.4218815"><ele>516.0</ele><time>2026-05-02T13:30:26.47Z</time></trkpt><trkpt lat="46.1626247" lon="13.421706"><ele>524.0</ele><time>2026-05-02T13:30:27.47Z</time></trkpt><trkpt lat="46.162636" lon="13.4215237"><ele>532.0</ele><time>2026-05-02T13:30:28.471Z</time></trkpt><trkpt lat="46.1626543" lon="13.4213398"><ele>540.0</ele><time>2026-05-02T13:30:29.47Z</time></trkpt><trkpt lat="46.1626748" lon="13.4211623"><ele>548.0</ele><time>2026-05-02T13:30:30.472Z</time></trkpt><trkpt lat="46.1626988" lon="13.4209838"><ele>548.0</ele><time>2026-05-02T13:30:31.473Z</time></trkpt><trkpt lat="46.1627267" lon="13.4208058"><ele>548.0</ele><time>2026-05-02T13:30:32.471Z</time></trkpt><trkpt lat="46.1627525" lon="13.4206263"><ele>548.0</ele><time>2026-05-02T13:30:33.47Z</time></trkpt><trkpt lat="46.1627778" lon="13.420447"><ele>548.0</ele><time>2026-05-02T13:30:34.47Z</time></trkpt><trkpt lat="46.1628033" lon="13.4202735"><ele>548.6</ele><time>2026-05-02T13:30:35.47Z</time></trkpt><trkpt lat="46.1628262" lon="13.4201137"><ele>549.1999999999999</ele><time>2026-05-02T13:30:36.47Z</time></trkpt><trkpt lat="46.1628495" lon="13.4199607"><ele>549.8</ele><time>2026-05-02T13:30:37.471Z</time></trkpt><trkpt lat="46.1628645" lon="13.4198055"><ele>550.4</ele><time>2026-05-02T13:30:38.472Z</time></trkpt><trkpt lat="46.162865" lon="13.4196458"><ele>551.0</ele><time>2026-05-02T13:30:39.472Z</time></trkpt><trkpt lat="46.162819" lon="13.4193198"><ele>556.5</ele><time>2026-05-02T13:30:41.471Z</time></trkpt><trkpt lat="46.1627928" lon="13.4191515"><ele>562.0</ele><time>2026-05-02T13:30:42.471Z</time></trkpt><trkpt lat="46.1627793" lon="13.418982"><ele>567.5</ele><time>2026-05-02T13:30:43.47Z</time></trkpt><trkpt lat="46.162783" lon="13.4188067"><ele>573.0</ele><time>2026-05-02T13:30:44.47Z</time></trkpt><trkpt lat="46.162802" lon="13.4186225"><ele>574.75</ele><time>2026-05-02T13:30:45.469Z</time></trkpt><trkpt lat="46.1628312" lon="13.4184275"><ele>576.5</ele><time>2026-05-02T13:30:46.468Z</time></trkpt><trkpt lat="46.162864" lon="13.4182325"><ele>578.25</ele><time>2026-05-02T13:30:47.469Z</time></trkpt><trkpt lat="46.1629095" lon="13.4180365"><ele>580.0</ele><time>2026-05-02T13:30:48.469Z</time></trkpt><trkpt lat="46.1629602" lon="13.4178582"><ele>580.0</ele><time>2026-05-02T13:30:49.469Z</time></trkpt><trkpt lat="46.1630087" lon="13.4176938"><ele>580.0</ele><time>2026-05-02T13:30:50.469Z</time></trkpt><trkpt lat="46.163056" lon="13.4175415"><ele>580.0</ele><time>2026-05-02T13:30:51.47Z</time></trkpt><trkpt lat="46.1631117" lon="13.4174033"><ele>580.0</ele><time>2026-05-02T13:30:52.47Z</time></trkpt><trkpt lat="46.1631812" lon="13.417281"><ele>586.25</ele><time>2026-05-02T13:30:53.47Z</time></trkpt><trkpt lat="46.1632663" lon="13.4171915"><ele>592.5</ele><time>2026-05-02T13:30:54.47Z</time></trkpt><trkpt lat="46.1633632" lon="13.4171152"><ele>598.75</ele><time>2026-05-02T13:30:55.469Z</time></trkpt><trkpt lat="46.1634735" lon="13.4170552"><ele>605.0</ele><time>2026-05-02T13:30:56.469Z</time></trkpt><trkpt lat="46.1635878" lon="13.4169972"><ele>605.0</ele><time>2026-05-02T13:30:57.469Z</time></trkpt><trkpt lat="46.1636975" lon="13.4169358"><ele>605.0</ele><time>2026-05-02T13:30:58.466Z</time></trkpt><trkpt lat="46.1638035" lon="13.4168663"><ele>605.0</ele><time>2026-05-02T13:30:59.466Z</time></trkpt><trkpt lat="46.1639007" lon="13.4167802"><ele>605.0</ele><time>2026-05-02T13:31:00.474Z</time></trkpt><trkpt lat="46.164064" lon="13.416574"><ele>604.6666666666666</ele><time>2026-05-02T13:31:02.468Z</time></trkpt><trkpt lat="46.1641223" lon="13.4164852"><ele>604.3333333333333</ele><time>2026-05-02T13:31:03.468Z</time></trkpt><trkpt lat="46.1641572" lon="13.4164025"><ele>604.0</ele><time>2026-05-02T13:31:04.468Z</time></trkpt><trkpt lat="46.1641128" lon="13.4162422"><ele>603.6666666666666</ele><time>2026-05-02T13:31:06.468Z</time></trkpt><trkpt lat="46.1640557" lon="13.4161752"><ele>603.3333333333334</ele><time>2026-05-02T13:31:07.466Z</time></trkpt><trkpt lat="46.1639843" lon="13.4160988"><ele>603.0</ele><time>2026-05-02T13:31:08.467Z</time></trkpt><trkpt lat="46.1639003" lon="13.4160343"><ele>603.0</ele><time>2026-05-02T13:31:09.468Z</time></trkpt><trkpt lat="46.1638187" lon="13.4159512"><ele>603.0</ele><time>2026-05-02T13:31:10.468Z</time></trkpt><trkpt lat="46.1637515" lon="13.415827"><ele>603.0</ele><time>2026-05-02T13:31:11.468Z</time></trkpt><trkpt lat="46.1636833" lon="13.4156945"><ele>603.0</ele><time>2026-05-02T13:31:12.47Z</time></trkpt><trkpt lat="46.1636138" lon="13.4155795"><ele>603.0</ele><time>2026-05-02T13:31:13.47Z</time></trkpt><trkpt lat="46.1635428" lon="13.4154907"><ele>603.0</ele><time>2026-05-02T13:31:14.47Z</time></trkpt><trkpt lat="46.1634827" lon="13.4153928"><ele>603.0</ele><time>2026-05-02T13:31:15.471Z</time></trkpt><trkpt lat="46.1634407" lon="13.4152737"><ele>603.0</ele><time>2026-05-02T13:31:16.47Z</time></trkpt><trkpt lat="46.1633933" lon="13.4151532"><ele>603.0</ele><time>2026-05-02T13:31:17.47Z</time></trkpt><trkpt lat="46.163324" lon="13.4150538"><ele>603.0</ele><time>2026-05-02T13:31:18.469Z</time></trkpt><trkpt lat="46.1632493" lon="13.4149667"><ele>602.8</ele><time>2026-05-02T13:31:19.47Z</time></trkpt><trkpt lat="46.1631957" lon="13.41487"><ele>602.5999999999999</ele><time>2026-05-02T13:31:20.47Z</time></trkpt><trkpt lat="46.1631707" lon="13.4147585"><ele>602.4000000000001</ele><time>2026-05-02T13:31:21.472Z</time></trkpt><trkpt lat="46.1631843" lon="13.4145153"><ele>602.2</ele><time>2026-05-02T13:31:23.471Z</time></trkpt><trkpt lat="46.1631758" lon="13.4144028"><ele>602.0</ele><time>2026-05-02T13:31:24.47Z</time></trkpt><trkpt lat="46.1631385" lon="13.4143067"><ele>608.0</ele><time>2026-05-02T13:31:25.468Z</time></trkpt><trkpt lat="46.1630747" lon="13.4142262"><ele>614.0</ele><time>2026-05-02T13:31:26.468Z</time></trkpt><trkpt lat="46.1629862" lon="13.414162"><ele>620.0</ele><time>2026-05-02T13:31:27.472Z</time></trkpt><trkpt lat="46.1628885" lon="13.4140985"><ele>626.0</ele><time>2026-05-02T13:31:28.471Z</time></trkpt><trkpt lat="46.162786" lon="13.4140233"><ele>632.0</ele><time>2026-05-02T13:31:29.47Z</time></trkpt><trkpt lat="46.162679" lon="13.4139328"><ele>632.0</ele><time>2026-05-02T13:31:30.471Z</time></trkpt><trkpt lat="46.1625757" lon="13.4138352"><ele>632.0</ele><time>2026-05-02T13:31:31.472Z</time></trkpt><trkpt lat="46.1624742" lon="13.4137428"><ele>632.0</ele><time>2026-05-02T13:31:32.472Z</time></trkpt><trkpt lat="46.1623925" lon="13.4136433"><ele>632.0</ele><time>2026-05-02T13:31:33.473Z</time></trkpt><trkpt lat="46.1623135" lon="13.4135458"><ele>632.0</ele><time>2026-05-02T13:31:34.472Z</time></trkpt><trkpt lat="46.1622265" lon="13.4134542"><ele>632.0</ele><time>2026-05-02T13:31:35.471Z</time></trkpt><trkpt lat="46.1621375" lon="13.4133623"><ele>632.0</ele><time>2026-05-02T13:31:36.472Z</time></trkpt><trkpt lat="46.1620577" lon="13.4132707"><ele>632.0</ele><time>2026-05-02T13:31:37.472Z</time></trkpt><trkpt lat="46.1619863" lon="13.413179"><ele>632.0</ele><time>2026-05-02T13:31:38.472Z</time></trkpt><trkpt lat="46.1619227" lon="13.41307"><ele>634.5</ele><time>2026-05-02T13:31:39.472Z</time></trkpt><trkpt lat="46.1618733" lon="13.4129397"><ele>637.0</ele><time>2026-05-02T13:31:40.47Z</time></trkpt><trkpt lat="46.1618433" lon="13.4127915"><ele>639.5</ele><time>2026-05-02T13:31:41.471Z</time></trkpt><trkpt lat="46.161832" lon="13.4126197"><ele>642.0</ele><time>2026-05-02T13:31:42.473Z</time></trkpt><trkpt lat="46.1618158" lon="13.412271"><ele>641.6</ele><time>2026-05-02T13:31:44.472Z</time></trkpt><trkpt lat="46.1618148" lon="13.4121133"><ele>641.2</ele><time>2026-05-02T13:31:45.472Z</time></trkpt><trkpt lat="46.161823" lon="13.4119632"><ele>640.8</ele><time>2026-05-02T13:31:46.473Z</time></trkpt><trkpt lat="46.1618518" lon="13.4118127"><ele>640.4</ele><time>2026-05-02T13:31:47.471Z</time></trkpt><trkpt lat="46.1618935" lon="13.4116543"><ele>640.0</ele><time>2026-05-02T13:31:48.471Z</time></trkpt><trkpt lat="46.1619438" lon="13.4114835"><ele>641.0</ele><time>2026-05-02T13:31:49.471Z</time></trkpt><trkpt lat="46.1619927" lon="13.4113067"><ele>642.0</ele><time>2026-05-02T13:31:50.471Z</time></trkpt><trkpt lat="46.1620387" lon="13.4111327"><ele>643.0</ele><time>2026-05-02T13:31:51.472Z</time></trkpt><trkpt lat="46.1620765" lon="13.4109723"><ele>644.0</ele><time>2026-05-02T13:31:52.472Z</time></trkpt><trkpt lat="46.1620997" lon="13.410827"><ele>644.0</ele><time>2026-05-02T13:31:53.471Z</time></trkpt><trkpt lat="46.1620995" lon="13.4106885"><ele>644.0</ele><time>2026-05-02T13:31:54.471Z</time></trkpt><trkpt lat="46.1620725" lon="13.4105567"><ele>644.0</ele><time>2026-05-02T13:31:55.472Z</time></trkpt><trkpt lat="46.1620335" lon="13.4104302"><ele>644.0</ele><time>2026-05-02T13:31:56.472Z</time></trkpt><trkpt lat="46.1620053" lon="13.410311"><ele>644.0</ele><time>2026-05-02T13:31:57.472Z</time></trkpt><trkpt lat="46.1619925" lon="13.4101885"><ele>644.8000000000001</ele><time>2026-05-02T13:31:58.471Z</time></trkpt><trkpt lat="46.1619975" lon="13.4100545"><ele>645.6</ele><time>2026-05-02T13:31:59.471Z</time></trkpt><trkpt lat="46.1620178" lon="13.409905"><ele>646.4</ele><time>2026-05-02T13:32:00.47Z</time></trkpt><trkpt lat="46.1620543" lon="13.4097465"><ele>647.2</ele><time>2026-05-02T13:32:01.471Z</time></trkpt><trkpt lat="46.162102" lon="13.4095842"><ele>648.0</ele><time>2026-05-02T13:32:02.471Z</time></trkpt><trkpt lat="46.1621568" lon="13.4094213"><ele>651.0</ele><time>2026-05-02T13:32:03.471Z</time></trkpt><trkpt lat="46.1622972" lon="13.4090882"><ele>654.0</ele><time>2026-05-02T13:32:05.47Z</time></trkpt><trkpt lat="46.1623733" lon="13.4089312"><ele>657.0</ele><time>2026-05-02T13:32:06.471Z</time></trkpt><trkpt lat="46.1624398" lon="13.408788"><ele>662.1666666666666</ele><time>2026-05-02T13:32:07.472Z</time></trkpt><trkpt lat="46.1624928" lon="13.4086718"><ele>667.3333333333334</ele><time>2026-05-02T13:32:08.47Z</time></trkpt><trkpt lat="46.1625403" lon="13.4085753"><ele>672.5</ele><time>2026-05-02T13:32:09.47Z</time></trkpt><trkpt lat="46.1625887" lon="13.408479"><ele>677.6666666666667</ele><time>2026-05-02T13:32:10.47Z</time></trkpt><trkpt lat="46.1626247" lon="13.408393"><ele>682.8333333333334</ele><time>2026-05-02T13:32:11.467Z</time></trkpt><trkpt lat="46.1626507" lon="13.4082462"><ele>688.0</ele><time>2026-05-02T13:32:13.465Z</time></trkpt><trkpt lat="46.1625925" lon="13.408143"><ele>688.0</ele><time>2026-05-02T13:32:15.467Z</time></trkpt><trkpt lat="46.1624988" lon="13.4080762"><ele>688.0</ele><time>2026-05-02T13:32:17.468Z</time></trkpt><trkpt lat="46.1624293" lon="13.407975"><ele>688.0</ele><time>2026-05-02T13:32:19.467Z</time></trkpt><trkpt lat="46.16239" lon="13.4078507"><ele>688.0</ele><time>2026-05-02T13:32:21.468Z</time></trkpt><trkpt lat="46.1623308" lon="13.4078158"><ele>688.0</ele><time>2026-05-02T13:32:23.469Z</time></trkpt><trkpt lat="46.1622423" lon="13.4078683"><ele>687.2</ele><time>2026-05-02T13:32:25.468Z</time></trkpt><trkpt lat="46.1621092" lon="13.4080295"><ele>686.4</ele><time>2026-05-02T13:32:27.472Z</time></trkpt><trkpt lat="46.1620433" lon="13.4081292"><ele>685.6</ele><time>2026-05-02T13:32:28.469Z</time></trkpt><trkpt lat="46.1619927" lon="13.4082038"><ele>684.8000000000001</ele><time>2026-05-02T13:32:29.47Z</time></trkpt><trkpt lat="46.161916" lon="13.408295"><ele>684.0</ele><time>2026-05-02T13:32:31.47Z</time></trkpt><trkpt lat="46.1618033" lon="13.4083293"><ele>684.0</ele><time>2026-05-02T13:32:33.471Z</time></trkpt><trkpt lat="46.1617355" lon="13.4083283"><ele>684.0</ele><time>2026-05-02T13:32:34.471Z</time></trkpt><trkpt lat="46.1616205" lon="13.4083283"><ele>684.0</ele><time>2026-05-02T13:32:36.469Z</time></trkpt><trkpt lat="46.1615132" lon="13.4082765"><ele>684.0</ele><time>2026-05-02T13:32:38.469Z</time></trkpt><trkpt lat="46.1614492" lon="13.4082345"><ele>684.0</ele><time>2026-05-02T13:32:39.469Z</time></trkpt><trkpt lat="46.1613327" lon="13.4082022"><ele>686.25</ele><time>2026-05-02T13:32:41.47Z</time></trkpt><trkpt lat="46.1612328" lon="13.4082462"><ele>688.5</ele><time>2026-05-02T13:32:43.471Z</time></trkpt><trkpt lat="46.1611402" lon="13.4083588"><ele>690.75</ele><time>2026-05-02T13:32:45.471Z</time></trkpt><trkpt lat="46.1610587" lon="13.4084857"><ele>693.0</ele><time>2026-05-02T13:32:47.471Z</time></trkpt><trkpt lat="46.1608423" lon="13.408674"><ele>693.0</ele><time>2026-05-02T13:32:51.468Z</time></trkpt><trkpt lat="46.1608018" lon="13.4087517"><ele>693.0</ele><time>2026-05-02T13:32:52.47Z</time></trkpt><trkpt lat="46.1607687" lon="13.4088383"><ele>693.0</ele><time>2026-05-02T13:32:53.469Z</time></trkpt><trkpt lat="46.1607395" lon="13.4089253"><ele>693.0</ele><time>2026-05-02T13:32:54.469Z</time></trkpt><trkpt lat="46.1607295" lon="13.4090153"><ele>693.0</ele><time>2026-05-02T13:32:55.468Z</time></trkpt><trkpt lat="46.1606957" lon="13.4091137"><ele>693.0</ele><time>2026-05-02T13:32:56.47Z</time></trkpt><trkpt lat="46.160625" lon="13.409236"><ele>695.3333333333334</ele><time>2026-05-02T13:32:58.469Z</time></trkpt><trkpt lat="46.160529" lon="13.4093248"><ele>697.6666666666666</ele><time>2026-05-02T13:33:00.468Z</time></trkpt><trkpt lat="46.1604685" lon="13.4093612"><ele>700.0</ele><time>2026-05-02T13:33:01.468Z</time></trkpt><trkpt lat="46.1604015" lon="13.4093973"><ele>702.3333333333333</ele><time>2026-05-02T13:33:02.467Z</time></trkpt><trkpt lat="46.1603388" lon="13.4094302"><ele>704.6666666666666</ele><time>2026-05-02T13:33:03.468Z</time></trkpt><trkpt lat="46.1602632" lon="13.4094667"><ele>707.0</ele><time>2026-05-02T13:33:04.468Z</time></trkpt><trkpt lat="46.1601868" lon="13.4095245"><ele>707.0</ele><time>2026-05-02T13:33:05.47Z</time></trkpt><trkpt lat="46.1601238" lon="13.409592"><ele>707.0</ele><time>2026-05-02T13:33:06.469Z</time></trkpt><trkpt lat="46.1600357" lon="13.4097513"><ele>707.0</ele><time>2026-05-02T13:33:08.468Z</time></trkpt><trkpt lat="46.159933" lon="13.4098917"><ele>707.0</ele><time>2026-05-02T13:33:10.47Z</time></trkpt><trkpt lat="46.159877" lon="13.409965"><ele>707.0</ele><time>2026-05-02T13:33:11.47Z</time></trkpt><trkpt lat="46.1598132" lon="13.410065"><ele>707.1666666666666</ele><time>2026-05-02T13:33:12.47Z</time></trkpt><trkpt lat="46.1597513" lon="13.4101585"><ele>707.3333333333333</ele><time>2026-05-02T13:33:13.47Z</time></trkpt><trkpt lat="46.1596843" lon="13.410277"><ele>707.5</ele><time>2026-05-02T13:33:15.469Z</time></trkpt><trkpt lat="46.1596582" lon="13.410361"><ele>707.6666666666666</ele><time>2026-05-02T13:33:17.469Z</time></trkpt><trkpt lat="46.1595932" lon="13.410336"><ele>707.8333333333334</ele><time>2026-05-02T13:33:25.466Z</time></trkpt><trkpt lat="46.159527" lon="13.4103143"><ele>708.0</ele><time>2026-05-02T13:33:34.468Z</time></trkpt><trkpt lat="46.1594135" lon="13.410529"><ele>708.0</ele><time>2026-05-02T13:33:41.467Z</time></trkpt><trkpt lat="46.1593825" lon="13.4106083"><ele>708.0</ele><time>2026-05-02T13:33:43.467Z</time></trkpt><trkpt lat="46.1593643" lon="13.4107113"><ele>708.0</ele><time>2026-05-02T13:33:46.467Z</time></trkpt><trkpt lat="46.1592862" lon="13.4107122"><ele>708.0</ele><time>2026-05-02T13:33:48.468Z</time></trkpt><trkpt lat="46.1592153" lon="13.4106975"><ele>708.0</ele><time>2026-05-02T13:33:50.467Z</time></trkpt><trkpt lat="46.1591868" lon="13.410609"><ele>708.0</ele><time>2026-05-02T13:33:56.468Z</time></trkpt><trkpt lat="46.159262" lon="13.4104172"><ele>710.8</ele><time>2026-05-02T13:34:01.468Z</time></trkpt><trkpt lat="46.1593035" lon="13.4103353"><ele>713.5999999999999</ele><time>2026-05-02T13:34:03.468Z</time></trkpt><trkpt lat="46.1593653" lon="13.4102358"><ele>716.4000000000001</ele><time>2026-05-02T13:34:05.469Z</time></trkpt><trkpt lat="46.1594392" lon="13.4101293"><ele>719.2</ele><time>2026-05-02T13:34:07.469Z</time></trkpt><trkpt lat="46.1595143" lon="13.4099962"><ele>722.0</ele><time>2026-05-02T13:34:09.468Z</time></trkpt><trkpt lat="46.159592" lon="13.4098955"><ele>722.0</ele><time>2026-05-02T13:34:11.469Z</time></trkpt><trkpt lat="46.1596647" lon="13.4097713"><ele>722.0</ele><time>2026-05-02T13:34:13.468Z</time></trkpt><trkpt lat="46.1597342" lon="13.4096378"><ele>722.0</ele><time>2026-05-02T13:34:15.467Z</time></trkpt><trkpt lat="46.1597893" lon="13.409572"><ele>722.0</ele><time>2026-05-02T13:34:16.468Z</time></trkpt><trkpt lat="46.1598937" lon="13.4094693"><ele>722.0</ele><time>2026-05-02T13:34:18.472Z</time></trkpt><trkpt lat="46.1600253" lon="13.4094148"><ele>719.5</ele><time>2026-05-02T13:34:20.471Z</time></trkpt><trkpt lat="46.160119" lon="13.4093558"><ele>717.0</ele><time>2026-05-02T13:34:22.471Z</time></trkpt><trkpt lat="46.160198" lon="13.4092688"><ele>714.5</ele><time>2026-05-02T13:34:24.471Z</time></trkpt><trkpt lat="46.1602548" lon="13.4091867"><ele>712.0</ele><time>2026-05-02T13:34:26.47Z</time></trkpt><trkpt lat="46.1603013" lon="13.4090785"><ele>709.5</ele><time>2026-05-02T13:34:28.47Z</time></trkpt><trkpt lat="46.1603343" lon="13.4089772"><ele>707.0</ele><time>2026-05-02T13:34:30.471Z</time></trkpt><trkpt lat="46.1603707" lon="13.4088682"><ele>704.2</ele><time>2026-05-02T13:34:33.471Z</time></trkpt><trkpt lat="46.1604117" lon="13.4087598"><ele>701.4000000000001</ele><time>2026-05-02T13:34:37.469Z</time></trkpt><trkpt lat="46.1604543" lon="13.408662"><ele>698.5999999999999</ele><time>2026-05-02T13:34:39.469Z</time></trkpt><trkpt lat="46.1606075" lon="13.4085592"><ele>695.8</ele><time>2026-05-02T13:34:43.47Z</time></trkpt><trkpt lat="46.1606665" lon="13.4085118"><ele>693.0</ele><time>2026-05-02T13:34:44.47Z</time></trkpt><trkpt lat="46.1607255" lon="13.408444"><ele>693.0</ele><time>2026-05-02T13:34:45.469Z</time></trkpt><trkpt lat="46.1608133" lon="13.4083438"><ele>693.0</ele><time>2026-05-02T13:34:47.47Z</time></trkpt><trkpt lat="46.160892" lon="13.4082898"><ele>693.0</ele><time>2026-05-02T13:34:49.47Z</time></trkpt><trkpt lat="46.1610063" lon="13.4083065"><ele>693.0</ele><time>2026-05-02T13:34:51.47Z</time></trkpt><trkpt lat="46.1610623" lon="13.40837"><ele>693.0</ele><time>2026-05-02T13:34:54.471Z</time></trkpt><trkpt lat="46.1609925" lon="13.4084363"><ele>693.0</ele><time>2026-05-02T13:34:58.469Z</time></trkpt><trkpt lat="46.160916" lon="13.4084983"><ele>693.0</ele><time>2026-05-02T13:35:00.471Z</time></trkpt><trkpt lat="46.160777" lon="13.4087432"><ele>693.0</ele><time>2026-05-02T13:35:04.467Z</time></trkpt><trkpt lat="46.1607532" lon="13.4088593"><ele>693.0</ele><time>2026-05-02T13:35:06.468Z</time></trkpt><trkpt lat="46.1607583" lon="13.409009"><ele>690.3333333333334</ele><time>2026-05-02T13:35:08.47Z</time></trkpt><trkpt lat="46.1607653" lon="13.4091172"><ele>687.6666666666666</ele><time>2026-05-02T13:35:09.47Z</time></trkpt><trkpt lat="46.1607735" lon="13.4092208"><ele>685.0</ele><time>2026-05-02T13:35:10.47Z</time></trkpt><trkpt lat="46.1607738" lon="13.4093138"><ele>682.3333333333333</ele><time>2026-05-02T13:35:11.469Z</time></trkpt><trkpt lat="46.1607863" lon="13.4094982"><ele>679.6666666666666</ele><time>2026-05-02T13:35:13.47Z</time></trkpt><trkpt lat="46.1607727" lon="13.4095978"><ele>677.0</ele><time>2026-05-02T13:35:14.469Z</time></trkpt><trkpt lat="46.1607457" lon="13.4096878"><ele>679.25</ele><time>2026-05-02T13:35:15.469Z</time></trkpt><trkpt lat="46.1607103" lon="13.4098267"><ele>681.5</ele><time>2026-05-02T13:35:17.47Z</time></trkpt><trkpt lat="46.1606638" lon="13.4099307"><ele>683.75</ele><time>2026-05-02T13:35:19.47Z</time></trkpt><trkpt lat="46.1605772" lon="13.4100445"><ele>686.0</ele><time>2026-05-02T13:35:21.469Z</time></trkpt><trkpt lat="46.1604377" lon="13.4101635"><ele>686.0</ele><time>2026-05-02T13:35:23.469Z</time></trkpt><trkpt lat="46.1603977" lon="13.4102473"><ele>686.0</ele><time>2026-05-02T13:35:24.471Z</time></trkpt><trkpt lat="46.1603632" lon="13.4103313"><ele>686.0</ele><time>2026-05-02T13:35:25.469Z</time></trkpt><trkpt lat="46.1603225" lon="13.4104123"><ele>686.0</ele><time>2026-05-02T13:35:26.469Z</time></trkpt><trkpt lat="46.1602587" lon="13.4105542"><ele>686.0</ele><time>2026-05-02T13:35:28.466Z</time></trkpt><trkpt lat="46.1601642" lon="13.4106705"><ele>686.0</ele><time>2026-05-02T13:35:30.468Z</time></trkpt><trkpt lat="46.1600953" lon="13.410806"><ele>682.4</ele><time>2026-05-02T13:35:32.469Z</time></trkpt><trkpt lat="46.1600817" lon="13.4109458"><ele>678.8</ele><time>2026-05-02T13:35:34.468Z</time></trkpt><trkpt lat="46.1601018" lon="13.4111213"><ele>675.1999999999999</ele><time>2026-05-02T13:35:36.469Z</time></trkpt><trkpt lat="46.1601153" lon="13.4112153"><ele>671.5999999999999</ele><time>2026-05-02T13:35:37.469Z</time></trkpt><trkpt lat="46.1601212" lon="13.4113128"><ele>668.0</ele><time>2026-05-02T13:35:38.469Z</time></trkpt><trkpt lat="46.1601223" lon="13.4114843"><ele>665.0</ele><time>2026-05-02T13:35:40.468Z</time></trkpt><trkpt lat="46.1600763" lon="13.4116523"><ele>662.0</ele><time>2026-05-02T13:35:42.468Z</time></trkpt><trkpt lat="46.1600318" lon="13.4118308"><ele>659.0</ele><time>2026-05-02T13:35:44.469Z</time></trkpt><trkpt lat="46.1599958" lon="13.4119338"><ele>656.0</ele><time>2026-05-02T13:35:45.469Z</time></trkpt><trkpt lat="46.1599758" lon="13.4120417"><ele>653.0</ele><time>2026-05-02T13:35:46.468Z</time></trkpt><trkpt lat="46.159948" lon="13.4121478"><ele>650.6666666666666</ele><time>2026-05-02T13:35:47.468Z</time></trkpt><trkpt lat="46.1599295" lon="13.4122565"><ele>648.3333333333333</ele><time>2026-05-02T13:35:48.468Z</time></trkpt><trkpt lat="46.1598938" lon="13.4123667"><ele>646.0</ele><time>2026-05-02T13:35:49.469Z</time></trkpt><trkpt lat="46.1598535" lon="13.4124692"><ele>643.6666666666666</ele><time>2026-05-02T13:35:50.469Z</time></trkpt><trkpt lat="46.1598137" lon="13.4125637"><ele>641.3333333333334</ele><time>2026-05-02T13:35:51.469Z</time></trkpt><trkpt lat="46.1597785" lon="13.4126517"><ele>639.0</ele><time>2026-05-02T13:35:52.467Z</time></trkpt><trkpt lat="46.1597352" lon="13.4127292"><ele>644.6666666666666</ele><time>2026-05-02T13:35:53.467Z</time></trkpt><trkpt lat="46.1596438" lon="13.412809"><ele>650.3333333333334</ele><time>2026-05-02T13:35:55.468Z</time></trkpt><trkpt lat="46.159581" lon="13.412836"><ele>656.0</ele><time>2026-05-02T13:35:56.469Z</time></trkpt><trkpt lat="46.1595098" lon="13.4128635"><ele>661.6666666666667</ele><time>2026-05-02T13:35:57.469Z</time></trkpt><trkpt lat="46.159437" lon="13.4128858"><ele>667.3333333333334</ele><time>2026-05-02T13:35:58.469Z</time></trkpt><trkpt lat="46.1593483" lon="13.4129195"><ele>673.0</ele><time>2026-05-02T13:35:59.469Z</time></trkpt><trkpt lat="46.1592547" lon="13.412952"><ele>673.0</ele><time>2026-05-02T13:36:00.471Z</time></trkpt><trkpt lat="46.1591602" lon="13.4129855"><ele>673.0</ele><time>2026-05-02T13:36:01.469Z</time></trkpt><trkpt lat="46.1590562" lon="13.4130068"><ele>673.0</ele><time>2026-05-02T13:36:02.469Z</time></trkpt><trkpt lat="46.158967" lon="13.4130277"><ele>673.0</ele><time>2026-05-02T13:36:03.47Z</time></trkpt><trkpt lat="46.1588257" lon="13.4130918"><ele>673.0</ele><time>2026-05-02T13:36:05.468Z</time></trkpt><trkpt lat="46.1587112" lon="13.4131597"><ele>672.0</ele><time>2026-05-02T13:36:07.468Z</time></trkpt><trkpt lat="46.158652" lon="13.4131957"><ele>671.0</ele><time>2026-05-02T13:36:08.468Z</time></trkpt><trkpt lat="46.1586163" lon="13.413273"><ele>670.0</ele><time>2026-05-02T13:36:09.469Z</time></trkpt><trkpt lat="46.1585827" lon="13.4133592"><ele>669.0</ele><time>2026-05-02T13:36:10.468Z</time></trkpt><trkpt lat="46.1585462" lon="13.4134683"><ele>668.0</ele><time>2026-05-02T13:36:11.469Z</time></trkpt><trkpt lat="46.1585262" lon="13.4135768"><ele>667.0</ele><time>2026-05-02T13:36:12.469Z</time></trkpt><trkpt lat="46.1585057" lon="13.4136668"><ele>666.0</ele><time>2026-05-02T13:36:13.468Z</time></trkpt><trkpt lat="46.1584797" lon="13.4138093"><ele>661.0</ele><time>2026-05-02T13:36:15.471Z</time></trkpt><trkpt lat="46.1585025" lon="13.4139637"><ele>656.0</ele><time>2026-05-02T13:36:17.466Z</time></trkpt><trkpt lat="46.1585143" lon="13.414053"><ele>651.0</ele><time>2026-05-02T13:36:18.467Z</time></trkpt><trkpt lat="46.158512" lon="13.4141482"><ele>646.0</ele><time>2026-05-02T13:36:19.467Z</time></trkpt><trkpt lat="46.1585393" lon="13.4142998"><ele>641.0</ele><time>2026-05-02T13:36:21.468Z</time></trkpt><trkpt lat="46.1585665" lon="13.4144467"><ele>641.0</ele><time>2026-05-02T13:36:23.468Z</time></trkpt><trkpt lat="46.1585507" lon="13.4145563"><ele>641.0</ele><time>2026-05-02T13:36:25.468Z</time></trkpt><trkpt lat="46.1584478" lon="13.4147572"><ele>641.0</ele><time>2026-05-02T13:36:28.468Z</time></trkpt><trkpt lat="46.1583777" lon="13.4148523"><ele>641.0</ele><time>2026-05-02T13:36:29.469Z</time></trkpt><trkpt lat="46.1582792" lon="13.4149635"><ele>639.8333333333333</ele><time>2026-05-02T13:36:30.47Z</time></trkpt><trkpt lat="46.1582022" lon="13.4150722"><ele>638.6666666666666</ele><time>2026-05-02T13:36:31.469Z</time></trkpt><trkpt lat="46.1581728" lon="13.4151797"><ele>637.5</ele><time>2026-05-02T13:36:32.469Z</time></trkpt><trkpt lat="46.1581547" lon="13.4152887"><ele>636.3333333333334</ele><time>2026-05-02T13:36:33.469Z</time></trkpt><trkpt lat="46.1581387" lon="13.415399"><ele>635.1666666666667</ele><time>2026-05-02T13:36:34.468Z</time></trkpt><trkpt lat="46.1581183" lon="13.4155133"><ele>634.0</ele><time>2026-05-02T13:36:35.468Z</time></trkpt><trkpt lat="46.1581127" lon="13.4156223"><ele>639.6</ele><time>2026-05-02T13:36:36.468Z</time></trkpt><trkpt lat="46.1581113" lon="13.4157133"><ele>645.2</ele><time>2026-05-02T13:36:37.468Z</time></trkpt><trkpt lat="46.1581292" lon="13.415857"><ele>650.8000000000001</ele><time>2026-05-02T13:36:39.468Z</time></trkpt><trkpt lat="46.1581477" lon="13.4160007"><ele>656.4</ele><time>2026-05-02T13:36:41.466Z</time></trkpt><trkpt lat="46.158137" lon="13.416185"><ele>662.0</ele><time>2026-05-02T13:36:43.465Z</time></trkpt><trkpt lat="46.1581237" lon="13.4162913"><ele>664.5</ele><time>2026-05-02T13:36:44.465Z</time></trkpt><trkpt lat="46.1580927" lon="13.4164312"><ele>667.0</ele><time>2026-05-02T13:36:46.468Z</time></trkpt><trkpt lat="46.1582383" lon="13.4166705"><ele>669.5</ele><time>2026-05-02T13:36:50.47Z</time></trkpt><trkpt lat="46.1583142" lon="13.4167625"><ele>672.0</ele><time>2026-05-02T13:36:52.467Z</time></trkpt><trkpt lat="46.158347" lon="13.4168497"><ele>667.6666666666666</ele><time>2026-05-02T13:36:56.468Z</time></trkpt><trkpt lat="46.1583595" lon="13.4169452"><ele>663.3333333333334</ele><time>2026-05-02T13:37:00.469Z</time></trkpt><trkpt lat="46.1583713" lon="13.4170642"><ele>659.0</ele><time>2026-05-02T13:37:02.469Z</time></trkpt><trkpt lat="46.1583858" lon="13.4172103"><ele>654.6666666666667</ele><time>2026-05-02T13:37:04.468Z</time></trkpt><trkpt lat="46.1583897" lon="13.417304"><ele>650.3333333333334</ele><time>2026-05-02T13:37:05.468Z</time></trkpt><trkpt lat="46.1583995" lon="13.4174188"><ele>646.0</ele><time>2026-05-02T13:37:06.469Z</time></trkpt><trkpt lat="46.1583945" lon="13.4175393"><ele>646.0</ele><time>2026-05-02T13:37:07.467Z</time></trkpt><trkpt lat="46.1583855" lon="13.4177875"><ele>646.0</ele><time>2026-05-02T13:37:09.469Z</time></trkpt><trkpt lat="46.158356" lon="13.4179097"><ele>646.0</ele><time>2026-05-02T13:37:10.469Z</time></trkpt><trkpt lat="46.1583395" lon="13.4180288"><ele>646.0</ele><time>2026-05-02T13:37:11.468Z</time></trkpt><trkpt lat="46.1583127" lon="13.4181508"><ele>646.0</ele><time>2026-05-02T13:37:12.469Z</time></trkpt><trkpt lat="46.158287" lon="13.4182692"><ele>644.0</ele><time>2026-05-02T13:37:13.468Z</time></trkpt><trkpt lat="46.1582588" lon="13.4183757"><ele>642.0</ele><time>2026-05-02T13:37:14.469Z</time></trkpt><trkpt lat="46.1582223" lon="13.4184772"><ele>640.0</ele><time>2026-05-02T13:37:15.469Z</time></trkpt><trkpt lat="46.1581775" lon="13.418565"><ele>638.0</ele><time>2026-05-02T13:37:16.467Z</time></trkpt><trkpt lat="46.1581322" lon="13.4186422"><ele>636.0</ele><time>2026-05-02T13:37:17.468Z</time></trkpt><trkpt lat="46.158082" lon="13.4187187"><ele>634.0</ele><time>2026-05-02T13:37:18.469Z</time></trkpt><trkpt lat="46.1580198" lon="13.4187927"><ele>635.1666666666667</ele><time>2026-05-02T13:37:19.469Z</time></trkpt><trkpt lat="46.1579597" lon="13.4188583"><ele>636.3333333333334</ele><time>2026-05-02T13:37:20.468Z</time></trkpt><trkpt lat="46.1578818" lon="13.418932"><ele>637.5</ele><time>2026-05-02T13:37:21.468Z</time></trkpt><trkpt lat="46.1578195" lon="13.4189853"><ele>638.6666666666666</ele><time>2026-05-02T13:37:22.468Z</time></trkpt><trkpt lat="46.1577538" lon="13.4190358"><ele>639.8333333333333</ele><time>2026-05-02T13:37:23.468Z</time></trkpt><trkpt lat="46.1576772" lon="13.4190795"><ele>641.0</ele><time>2026-05-02T13:37:24.467Z</time></trkpt><trkpt lat="46.1576" lon="13.4191228"><ele>641.0</ele><time>2026-05-02T13:37:25.467Z</time></trkpt><trkpt lat="46.1575367" lon="13.41917"><ele>641.0</ele><time>2026-05-02T13:37:26.468Z</time></trkpt><trkpt lat="46.157476" lon="13.4192237"><ele>641.0</ele><time>2026-05-02T13:37:27.469Z</time></trkpt><trkpt lat="46.1574152" lon="13.419279"><ele>641.0</ele><time>2026-05-02T13:37:28.468Z</time></trkpt><trkpt lat="46.15726" lon="13.4194295"><ele>641.0</ele><time>2026-05-02T13:37:30.467Z</time></trkpt><trkpt lat="46.1571863" lon="13.419495"><ele>640.3333333333333</ele><time>2026-05-02T13:37:31.467Z</time></trkpt><trkpt lat="46.1571177" lon="13.4195587"><ele>639.6666666666666</ele><time>2026-05-02T13:37:32.465Z</time></trkpt><trkpt lat="46.1570523" lon="13.4196267"><ele>639.0</ele><time>2026-05-02T13:37:33.467Z</time></trkpt><trkpt lat="46.1569858" lon="13.4196738"><ele>638.3333333333334</ele><time>2026-05-02T13:37:34.468Z</time></trkpt><trkpt lat="46.1569293" lon="13.4197293"><ele>637.6666666666667</ele><time>2026-05-02T13:37:35.467Z</time></trkpt><trkpt lat="46.156879" lon="13.4197867"><ele>637.0</ele><time>2026-05-02T13:37:36.467Z</time></trkpt><trkpt lat="46.1567982" lon="13.4199165"><ele>637.0</ele><time>2026-05-02T13:37:38.467Z</time></trkpt><trkpt lat="46.1567652" lon="13.4200008"><ele>637.0</ele><time>2026-05-02T13:37:39.468Z</time></trkpt><trkpt lat="46.1567427" lon="13.4200862"><ele>637.0</ele><time>2026-05-02T13:37:40.467Z</time></trkpt><trkpt lat="46.1568015" lon="13.4201998"><ele>637.0</ele><time>2026-05-02T13:37:42.467Z</time></trkpt><trkpt lat="46.1568375" lon="13.4203365"><ele>637.0</ele><time>2026-05-02T13:37:44.467Z</time></trkpt><trkpt lat="46.1569152" lon="13.4204868"><ele>637.0</ele><time>2026-05-02T13:37:46.466Z</time></trkpt><trkpt lat="46.1569733" lon="13.4206245"><ele>637.0</ele><time>2026-05-02T13:37:48.466Z</time></trkpt><trkpt lat="46.1570287" lon="13.4207043"><ele>637.0</ele><time>2026-05-02T13:37:50.466Z</time></trkpt><trkpt lat="46.1571823" lon="13.4207667"><ele>637.0</ele><time>2026-05-02T13:37:54.467Z</time></trkpt><trkpt lat="46.1572125" lon="13.420847"><ele>637.0</ele><time>2026-05-02T13:37:55.465Z</time></trkpt><trkpt lat="46.157235" lon="13.4209327"><ele>637.0</ele><time>2026-05-02T13:37:56.466Z</time></trkpt><trkpt lat="46.1572528" lon="13.4210263"><ele>637.0</ele><time>2026-05-02T13:37:57.465Z</time></trkpt><trkpt lat="46.1572595" lon="13.4211213"><ele>637.0</ele><time>2026-05-02T13:37:58.467Z</time></trkpt><trkpt lat="46.1572485" lon="13.4212217"><ele>637.0</ele><time>2026-05-02T13:37:59.468Z</time></trkpt><trkpt lat="46.1572743" lon="13.4213357"><ele>637.0</ele><time>2026-05-02T13:38:01.468Z</time></trkpt><trkpt lat="46.1573252" lon="13.4213957"><ele>637.0</ele><time>2026-05-02T13:38:03.468Z</time></trkpt><trkpt lat="46.1574223" lon="13.421439"><ele>633.8000000000001</ele><time>2026-05-02T13:38:05.466Z</time></trkpt><trkpt lat="46.1575048" lon="13.4214823"><ele>630.6</ele><time>2026-05-02T13:38:07.467Z</time></trkpt><trkpt lat="46.15757" lon="13.4216102"><ele>627.4000000000001</ele><time>2026-05-02T13:38:09.469Z</time></trkpt><trkpt lat="46.1576" lon="13.421705"><ele>624.2</ele><time>2026-05-02T13:38:10.471Z</time></trkpt><trkpt lat="46.1576172" lon="13.4218053"><ele>621.0</ele><time>2026-05-02T13:38:11.469Z</time></trkpt><trkpt lat="46.1576343" lon="13.4220382"><ele>621.8333333333334</ele><time>2026-05-02T13:38:13.468Z</time></trkpt><trkpt lat="46.1576167" lon="13.422168"><ele>622.6666666666666</ele><time>2026-05-02T13:38:14.469Z</time></trkpt><trkpt lat="46.1576028" lon="13.4222912"><ele>623.5</ele><time>2026-05-02T13:38:15.469Z</time></trkpt><trkpt lat="46.1576005" lon="13.422409"><ele>624.3333333333333</ele><time>2026-05-02T13:38:16.468Z</time></trkpt><trkpt lat="46.157598" lon="13.422516"><ele>625.1666666666666</ele><time>2026-05-02T13:38:17.469Z</time></trkpt><trkpt lat="46.1575963" lon="13.4226213"><ele>626.0</ele><time>2026-05-02T13:38:18.468Z</time></trkpt><trkpt lat="46.1575837" lon="13.4227362"><ele>626.0</ele><time>2026-05-02T13:38:19.468Z</time></trkpt><trkpt lat="46.1575668" lon="13.4228453"><ele>626.0</ele><time>2026-05-02T13:38:20.468Z</time></trkpt><trkpt lat="46.1575365" lon="13.4229668"><ele>626.0</ele><time>2026-05-02T13:38:21.468Z</time></trkpt><trkpt lat="46.157517" lon="13.4230945"><ele>626.0</ele><time>2026-05-02T13:38:22.468Z</time></trkpt><trkpt lat="46.1574933" lon="13.423218"><ele>626.0</ele><time>2026-05-02T13:38:23.468Z</time></trkpt><trkpt lat="46.1574615" lon="13.4233417"><ele>626.0</ele><time>2026-05-02T13:38:24.468Z</time></trkpt><trkpt lat="46.1574218" lon="13.4234477"><ele>625.4285714285714</ele><time>2026-05-02T13:38:25.468Z</time></trkpt><trkpt lat="46.1573798" lon="13.4235467"><ele>624.8571428571429</ele><time>2026-05-02T13:38:26.469Z</time></trkpt><trkpt lat="46.1573347" lon="13.4236257"><ele>624.2857142857142</ele><time>2026-05-02T13:38:27.468Z</time></trkpt><trkpt lat="46.157288" lon="13.4236913"><ele>623.7142857142858</ele><time>2026-05-02T13:38:28.469Z</time></trkpt><trkpt lat="46.157231" lon="13.4237423"><ele>623.1428571428572</ele><time>2026-05-02T13:38:29.469Z</time></trkpt><trkpt lat="46.157169" lon="13.4237667"><ele>622.5714285714286</ele><time>2026-05-02T13:38:30.469Z</time></trkpt><trkpt lat="46.157092" lon="13.4237548"><ele>622.0</ele><time>2026-05-02T13:38:31.469Z</time></trkpt><trkpt lat="46.1570183" lon="13.4237278"><ele>622.0</ele><time>2026-05-02T13:38:32.47Z</time></trkpt><trkpt lat="46.156876" lon="13.4236418"><ele>622.0</ele><time>2026-05-02T13:38:34.47Z</time></trkpt><trkpt lat="46.1568098" lon="13.4236087"><ele>622.0</ele><time>2026-05-02T13:38:35.469Z</time></trkpt><trkpt lat="46.1567008" lon="13.4235477"><ele>622.0</ele><time>2026-05-02T13:38:37.47Z</time></trkpt><trkpt lat="46.1566022" lon="13.4235395"><ele>622.0</ele><time>2026-05-02T13:38:39.469Z</time></trkpt><trkpt lat="46.1564872" lon="13.4236112"><ele>624.0</ele><time>2026-05-02T13:38:41.469Z</time></trkpt><trkpt lat="46.1564143" lon="13.423646"><ele>626.0</ele><time>2026-05-02T13:38:42.469Z</time></trkpt><trkpt lat="46.1563512" lon="13.423696"><ele>628.0</ele><time>2026-05-02T13:38:43.468Z</time></trkpt><trkpt lat="46.1562968" lon="13.423745"><ele>630.0</ele><time>2026-05-02T13:38:44.467Z</time></trkpt><trkpt lat="46.1562348" lon="13.423813"><ele>632.0</ele><time>2026-05-02T13:38:45.466Z</time></trkpt><trkpt lat="46.1561708" lon="13.4238738"><ele>634.0</ele><time>2026-05-02T13:38:46.468Z</time></trkpt><trkpt lat="46.1561122" lon="13.4239408"><ele>636.0</ele><time>2026-05-02T13:38:47.468Z</time></trkpt><trkpt lat="46.1560535" lon="13.4239967"><ele>629.8333333333334</ele><time>2026-05-02T13:38:48.469Z</time></trkpt><trkpt lat="46.1559872" lon="13.4240573"><ele>623.6666666666666</ele><time>2026-05-02T13:38:49.468Z</time></trkpt><trkpt lat="46.155932" lon="13.4241205"><ele>617.5</ele><time>2026-05-02T13:38:50.469Z</time></trkpt><trkpt lat="46.1558873" lon="13.4241867"><ele>611.3333333333333</ele><time>2026-05-02T13:38:51.469Z</time></trkpt><trkpt lat="46.1558395" lon="13.4242542"><ele>605.1666666666666</ele><time>2026-05-02T13:38:52.468Z</time></trkpt><trkpt lat="46.155786" lon="13.4243085"><ele>599.0</ele><time>2026-05-02T13:38:53.469Z</time></trkpt><trkpt lat="46.1556723" lon="13.424485"><ele>599.0</ele><time>2026-05-02T13:38:57.469Z</time></trkpt><trkpt lat="46.1557433" lon="13.4245032"><ele>599.0</ele><time>2026-05-02T13:39:00.469Z</time></trkpt><trkpt lat="46.1558198" lon="13.4244563"><ele>599.0</ele><time>2026-05-02T13:39:02.469Z</time></trkpt><trkpt lat="46.1559097" lon="13.424403"><ele>599.0</ele><time>2026-05-02T13:39:04.469Z</time></trkpt><trkpt lat="46.1560058" lon="13.4243658"><ele>599.0</ele><time>2026-05-02T13:39:06.471Z</time></trkpt><trkpt lat="46.1561038" lon="13.4242908"><ele>599.0</ele><time>2026-05-02T13:39:08.467Z</time></trkpt><trkpt lat="46.1562123" lon="13.4242698"><ele>599.0</ele><time>2026-05-02T13:39:10.467Z</time></trkpt><trkpt lat="46.1562987" lon="13.4243198"><ele>599.0</ele><time>2026-05-02T13:39:12.469Z</time></trkpt><trkpt lat="46.1563788" lon="13.4244107"><ele>599.0</ele><time>2026-05-02T13:39:14.468Z</time></trkpt><trkpt lat="46.1564523" lon="13.424609"><ele>599.0</ele><time>2026-05-02T13:39:18.469Z</time></trkpt><trkpt lat="46.1563678" lon="13.4245485"><ele>599.0</ele><time>2026-05-02T13:39:22.469Z</time></trkpt><trkpt lat="46.1563095" lon="13.424481"><ele>599.0</ele><time>2026-05-02T13:39:24.471Z</time></trkpt><trkpt lat="46.1562252" lon="13.4245087"><ele>599.0</ele><time>2026-05-02T13:39:26.469Z</time></trkpt><trkpt lat="46.1561752" lon="13.4245685"><ele>599.0</ele><time>2026-05-02T13:39:27.471Z</time></trkpt><trkpt lat="46.1561157" lon="13.4246335"><ele>599.0</ele><time>2026-05-02T13:39:28.469Z</time></trkpt><trkpt lat="46.1560457" lon="13.4246947"><ele>594.0</ele><time>2026-05-02T13:39:29.469Z</time></trkpt><trkpt lat="46.1559692" lon="13.424753"><ele>589.0</ele><time>2026-05-02T13:39:30.471Z</time></trkpt><trkpt lat="46.1558925" lon="13.4248195"><ele>584.0</ele><time>2026-05-02T13:39:31.47Z</time></trkpt><trkpt lat="46.1558187" lon="13.4248713"><ele>579.0</ele><time>2026-05-02T13:39:32.468Z</time></trkpt><trkpt lat="46.1557437" lon="13.4249167"><ele>574.0</ele><time>2026-05-02T13:39:33.468Z</time></trkpt><trkpt lat="46.1556713" lon="13.4249732"><ele>569.0</ele><time>2026-05-02T13:39:34.467Z</time></trkpt><trkpt lat="46.1555865" lon="13.4250192"><ele>567.8</ele><time>2026-05-02T13:39:35.468Z</time></trkpt><trkpt lat="46.155434" lon="13.4251063"><ele>566.5999999999999</ele><time>2026-05-02T13:39:37.469Z</time></trkpt><trkpt lat="46.1553565" lon="13.4251212"><ele>565.4</ele><time>2026-05-02T13:39:38.471Z</time></trkpt><trkpt lat="46.1552862" lon="13.4251302"><ele>564.1999999999999</ele><time>2026-05-02T13:39:39.471Z</time></trkpt><trkpt lat="46.1552142" lon="13.4251312"><ele>563.0</ele><time>2026-05-02T13:39:40.469Z</time></trkpt><trkpt lat="46.1551417" lon="13.4251353"><ele>563.0</ele><time>2026-05-02T13:39:41.469Z</time></trkpt><trkpt lat="46.1550648" lon="13.425131"><ele>563.0</ele><time>2026-05-02T13:39:42.472Z</time></trkpt><trkpt lat="46.1549882" lon="13.4250998"><ele>563.0</ele><time>2026-05-02T13:39:43.47Z</time></trkpt><trkpt lat="46.1549167" lon="13.425054"><ele>563.0</ele><time>2026-05-02T13:39:44.47Z</time></trkpt><trkpt lat="46.1548443" lon="13.4250185"><ele>563.0</ele><time>2026-05-02T13:39:45.468Z</time></trkpt><trkpt lat="46.1547588" lon="13.4249942"><ele>563.0</ele><time>2026-05-02T13:39:46.468Z</time></trkpt><trkpt lat="46.1546817" lon="13.4249755"><ele>561.5</ele><time>2026-05-02T13:39:47.47Z</time></trkpt><trkpt lat="46.1546095" lon="13.4249398"><ele>560.0</ele><time>2026-05-02T13:39:48.471Z</time></trkpt><trkpt lat="46.1545558" lon="13.4248895"><ele>558.5</ele><time>2026-05-02T13:39:49.469Z</time></trkpt><trkpt lat="46.1544808" lon="13.424764"><ele>557.0</ele><time>2026-05-02T13:39:51.472Z</time></trkpt><trkpt lat="46.1544172" lon="13.4246645"><ele>555.5</ele><time>2026-05-02T13:39:53.469Z</time></trkpt><trkpt lat="46.1543493" lon="13.4247057"><ele>554.0</ele><time>2026-05-02T13:39:55.469Z</time></trkpt><trkpt lat="46.154303" lon="13.4248173"><ele>554.0</ele><time>2026-05-02T13:39:57.467Z</time></trkpt><trkpt lat="46.1542552" lon="13.4250032"><ele>554.0</ele><time>2026-05-02T13:39:59.468Z</time></trkpt><trkpt lat="46.1542283" lon="13.4250855"><ele>554.0</ele><time>2026-05-02T13:40:00.469Z</time></trkpt><trkpt lat="46.154188" lon="13.4251608"><ele>554.0</ele><time>2026-05-02T13:40:01.472Z</time></trkpt><trkpt lat="46.1541213" lon="13.4252523"><ele>554.0</ele><time>2026-05-02T13:40:02.472Z</time></trkpt><trkpt lat="46.1540618" lon="13.4253453"><ele>554.0</ele><time>2026-05-02T13:40:03.471Z</time></trkpt><trkpt lat="46.154005" lon="13.4254425"><ele>550.0</ele><time>2026-05-02T13:40:04.47Z</time></trkpt><trkpt lat="46.1539402" lon="13.4255503"><ele>546.0</ele><time>2026-05-02T13:40:05.469Z</time></trkpt><trkpt lat="46.1538842" lon="13.4256442"><ele>542.0</ele><time>2026-05-02T13:40:06.469Z</time></trkpt><trkpt lat="46.1538327" lon="13.4257312"><ele>538.0</ele><time>2026-05-02T13:40:07.468Z</time></trkpt><trkpt lat="46.1537877" lon="13.4257948"><ele>534.0</ele><time>2026-05-02T13:40:08.469Z</time></trkpt><trkpt lat="46.1537035" lon="13.4258713"><ele>530.0</ele><time>2026-05-02T13:40:10.469Z</time></trkpt><trkpt lat="46.1536118" lon="13.4258595"><ele>530.0</ele><time>2026-05-02T13:40:12.471Z</time></trkpt><trkpt lat="46.1535495" lon="13.4257527"><ele>530.0</ele><time>2026-05-02T13:40:14.47Z</time></trkpt><trkpt lat="46.1535137" lon="13.425568"><ele>530.0</ele><time>2026-05-02T13:40:16.47Z</time></trkpt><trkpt lat="46.1534992" lon="13.4254697"><ele>530.0</ele><time>2026-05-02T13:40:17.468Z</time></trkpt><trkpt lat="46.1534785" lon="13.425361"><ele>530.0</ele><time>2026-05-02T13:40:18.469Z</time></trkpt><trkpt lat="46.1534067" lon="13.4251192"><ele>528.5</ele><time>2026-05-02T13:40:20.468Z</time></trkpt><trkpt lat="46.1533567" lon="13.4250108"><ele>527.0</ele><time>2026-05-02T13:40:21.468Z</time></trkpt><trkpt lat="46.1532983" lon="13.4249325"><ele>525.5</ele><time>2026-05-02T13:40:22.468Z</time></trkpt><trkpt lat="46.1532312" lon="13.4248792"><ele>524.0</ele><time>2026-05-02T13:40:23.467Z</time></trkpt><trkpt lat="46.1531455" lon="13.4248702"><ele>522.5</ele><time>2026-05-02T13:40:24.468Z</time></trkpt><trkpt lat="46.1530565" lon="13.4248907"><ele>521.0</ele><time>2026-05-02T13:40:25.468Z</time></trkpt><trkpt lat="46.1529595" lon="13.424913"><ele>521.0</ele><time>2026-05-02T13:40:26.469Z</time></trkpt><trkpt lat="46.1528647" lon="13.424932"><ele>521.0</ele><time>2026-05-02T13:40:27.469Z</time></trkpt><trkpt lat="46.1527742" lon="13.4249502"><ele>521.0</ele><time>2026-05-02T13:40:28.468Z</time></trkpt><trkpt lat="46.152689" lon="13.4249712"><ele>521.0</ele><time>2026-05-02T13:40:29.468Z</time></trkpt><trkpt lat="46.152602" lon="13.4250022"><ele>521.0</ele><time>2026-05-02T13:40:30.469Z</time></trkpt><trkpt lat="46.1525312" lon="13.4250282"><ele>521.0</ele><time>2026-05-02T13:40:31.47Z</time></trkpt><trkpt lat="46.1524667" lon="13.4250378"><ele>521.0</ele><time>2026-05-02T13:40:32.472Z</time></trkpt><trkpt lat="46.1523743" lon="13.4249665"><ele>521.0</ele><time>2026-05-02T13:40:34.469Z</time></trkpt><trkpt lat="46.1523022" lon="13.424834"><ele>521.0</ele><time>2026-05-02T13:40:36.471Z</time></trkpt><trkpt lat="46.1522068" lon="13.4247252"><ele>521.0</ele><time>2026-05-02T13:40:38.471Z</time></trkpt><trkpt lat="46.1521377" lon="13.4247057"><ele>521.0</ele><time>2026-05-02T13:40:39.469Z</time></trkpt><trkpt lat="46.151942" lon="13.4248063"><ele>521.0</ele><time>2026-05-02T13:40:42.471Z</time></trkpt><trkpt lat="46.1518682" lon="13.4248695"><ele>521.0</ele><time>2026-05-02T13:40:43.47Z</time></trkpt><trkpt lat="46.1517938" lon="13.4249345"><ele>521.0</ele><time>2026-05-02T13:40:44.469Z</time></trkpt><trkpt lat="46.1517015" lon="13.425007"><ele>521.0</ele><time>2026-05-02T13:40:45.469Z</time></trkpt><trkpt lat="46.1516065" lon="13.4250735"><ele>521.0</ele><time>2026-05-02T13:40:46.467Z</time></trkpt><trkpt lat="46.1515155" lon="13.425121"><ele>530.8</ele><time>2026-05-02T13:40:47.466Z</time></trkpt><trkpt lat="46.151428" lon="13.4251733"><ele>540.6</ele><time>2026-05-02T13:40:48.466Z</time></trkpt><trkpt lat="46.1513467" lon="13.425223"><ele>550.4</ele><time>2026-05-02T13:40:49.468Z</time></trkpt><trkpt lat="46.1512673" lon="13.4252667"><ele>560.2</ele><time>2026-05-02T13:40:50.468Z</time></trkpt><trkpt lat="46.1511785" lon="13.425303"><ele>570.0</ele><time>2026-05-02T13:40:51.469Z</time></trkpt><trkpt lat="46.1510887" lon="13.4253433"><ele>570.0</ele><time>2026-05-02T13:40:52.469Z</time></trkpt><trkpt lat="46.1510078" lon="13.425376"><ele>570.0</ele><time>2026-05-02T13:40:53.468Z</time></trkpt><trkpt lat="46.1509387" lon="13.4253838"><ele>570.0</ele><time>2026-05-02T13:40:54.468Z</time></trkpt><trkpt lat="46.1508327" lon="13.425422"><ele>570.0</ele><time>2026-05-02T13:40:56.468Z</time></trkpt><trkpt lat="46.1507832" lon="13.4255115"><ele>570.0</ele><time>2026-05-02T13:40:58.468Z</time></trkpt><trkpt lat="46.1507887" lon="13.4256647"><ele>570.0</ele><time>2026-05-02T13:41:00.468Z</time></trkpt><trkpt lat="46.150783" lon="13.4258687"><ele>572.8</ele><time>2026-05-02T13:41:02.466Z</time></trkpt><trkpt lat="46.1507725" lon="13.4259838"><ele>575.6</ele><time>2026-05-02T13:41:03.467Z</time></trkpt><trkpt lat="46.1507628" lon="13.4261168"><ele>578.4</ele><time>2026-05-02T13:41:04.466Z</time></trkpt><trkpt lat="46.150746" lon="13.4262432"><ele>581.2</ele><time>2026-05-02T13:41:05.466Z</time></trkpt><trkpt lat="46.1507218" lon="13.4263737"><ele>584.0</ele><time>2026-05-02T13:41:06.468Z</time></trkpt><trkpt lat="46.1507002" lon="13.4265197"><ele>584.0</ele><time>2026-05-02T13:41:07.467Z</time></trkpt><trkpt lat="46.1506757" lon="13.4266707"><ele>584.0</ele><time>2026-05-02T13:41:08.467Z</time></trkpt><trkpt lat="46.1506567" lon="13.426823"><ele>584.0</ele><time>2026-05-02T13:41:09.468Z</time></trkpt><trkpt lat="46.1506278" lon="13.4269688"><ele>584.0</ele><time>2026-05-02T13:41:10.466Z</time></trkpt><trkpt lat="46.1506015" lon="13.4271187"><ele>584.0</ele><time>2026-05-02T13:41:11.467Z</time></trkpt><trkpt lat="46.1505918" lon="13.4272725"><ele>580.0</ele><time>2026-05-02T13:41:12.468Z</time></trkpt><trkpt lat="46.150578" lon="13.427424"><ele>576.0</ele><time>2026-05-02T13:41:13.467Z</time></trkpt><trkpt lat="46.1505725" lon="13.4275778"><ele>572.0</ele><time>2026-05-02T13:41:14.467Z</time></trkpt><trkpt lat="46.1505703" lon="13.4277238"><ele>568.0</ele><time>2026-05-02T13:41:15.467Z</time></trkpt><trkpt lat="46.1505595" lon="13.4278502"><ele>564.0</ele><time>2026-05-02T13:41:16.468Z</time></trkpt><trkpt lat="46.150542" lon="13.4279662"><ele>558.8</ele><time>2026-05-02T13:41:17.468Z</time></trkpt><trkpt lat="46.1505088" lon="13.428091"><ele>553.5999999999999</ele><time>2026-05-02T13:41:18.469Z</time></trkpt><trkpt lat="46.1504783" lon="13.4282242"><ele>548.4</ele><time>2026-05-02T13:41:19.468Z</time></trkpt><trkpt lat="46.1504502" lon="13.4283573"><ele>543.1999999999999</ele><time>2026-05-02T13:41:20.469Z</time></trkpt><trkpt lat="46.1504232" lon="13.4284895"><ele>538.0</ele><time>2026-05-02T13:41:21.469Z</time></trkpt><trkpt lat="46.1503058" lon="13.4287652"><ele>529.0</ele><time>2026-05-02T13:41:23.468Z</time></trkpt><trkpt lat="46.1502483" lon="13.428918"><ele>520.0</ele><time>2026-05-02T13:41:24.468Z</time></trkpt><trkpt lat="46.1501723" lon="13.4290653"><ele>511.0</ele><time>2026-05-02T13:41:25.468Z</time></trkpt><trkpt lat="46.150103" lon="13.4292047"><ele>502.0</ele><time>2026-05-02T13:41:26.469Z</time></trkpt><trkpt lat="46.1500372" lon="13.4293212"><ele>502.0</ele><time>2026-05-02T13:41:27.47Z</time></trkpt><trkpt lat="46.1499563" lon="13.4294343"><ele>502.0</ele><time>2026-05-02T13:41:28.671Z</time></trkpt><trkpt lat="46.1497935" lon="13.4295673"><ele>502.0</ele><time>2026-05-02T13:41:30.471Z</time></trkpt><trkpt lat="46.1497073" lon="13.4296258"><ele>502.0</ele><time>2026-05-02T13:41:31.471Z</time></trkpt><trkpt lat="46.1496292" lon="13.4296632"><ele>502.50000000000006</ele><time>2026-05-02T13:41:32.469Z</time></trkpt><trkpt lat="46.1495638" lon="13.429704"><ele>503.0</ele><time>2026-05-02T13:41:33.469Z</time></trkpt><trkpt lat="46.149481" lon="13.4298318"><ele>503.5</ele><time>2026-05-02T13:41:35.466Z</time></trkpt><trkpt lat="46.149449" lon="13.4299102"><ele>504.0</ele><time>2026-05-02T13:41:36.468Z</time></trkpt><trkpt lat="46.1494112" lon="13.4299907"><ele>504.50000000000006</ele><time>2026-05-02T13:41:37.467Z</time></trkpt><trkpt lat="46.1493653" lon="13.4300635"><ele>505.0</ele><time>2026-05-02T13:41:38.467Z</time></trkpt><trkpt lat="46.1493158" lon="13.4301418"><ele>505.0</ele><time>2026-05-02T13:41:39.47Z</time></trkpt><trkpt lat="46.1492707" lon="13.4302053"><ele>505.0</ele><time>2026-05-02T13:41:40.471Z</time></trkpt><trkpt lat="46.1492113" lon="13.4302557"><ele>505.0</ele><time>2026-05-02T13:41:41.472Z</time></trkpt><trkpt lat="46.1491497" lon="13.4302923"><ele>505.0</ele><time>2026-05-02T13:41:42.472Z</time></trkpt><trkpt lat="46.149003" lon="13.4303363"><ele>505.0</ele><time>2026-05-02T13:41:44.47Z</time></trkpt><trkpt lat="46.148872" lon="13.4304045"><ele>502.1666666666667</ele><time>2026-05-02T13:41:46.471Z</time></trkpt><trkpt lat="46.1488157" lon="13.4304495"><ele>499.33333333333337</ele><time>2026-05-02T13:41:47.47Z</time></trkpt><trkpt lat="46.1487625" lon="13.4305108"><ele>496.5</ele><time>2026-05-02T13:41:48.471Z</time></trkpt><trkpt lat="46.148719" lon="13.430601"><ele>493.66666666666663</ele><time>2026-05-02T13:41:49.471Z</time></trkpt><trkpt lat="46.1486913" lon="13.4306982"><ele>490.8333333333333</ele><time>2026-05-02T13:41:50.471Z</time></trkpt><trkpt lat="46.148664" lon="13.4307857"><ele>488.0</ele><time>2026-05-02T13:41:51.477Z</time></trkpt><trkpt lat="46.148576" lon="13.4309365"><ele>488.0</ele><time>2026-05-02T13:41:53.47Z</time></trkpt><trkpt lat="46.1485113" lon="13.4310253"><ele>487.99999999999994</ele><time>2026-05-02T13:41:54.472Z</time></trkpt><trkpt lat="46.148439" lon="13.431118"><ele>487.99999999999994</ele><time>2026-05-02T13:41:55.469Z</time></trkpt><trkpt lat="46.1483657" lon="13.431213"><ele>488.0</ele><time>2026-05-02T13:41:56.469Z</time></trkpt><trkpt lat="46.148277" lon="13.4313057"><ele>488.0</ele><time>2026-05-02T13:41:57.469Z</time></trkpt><trkpt lat="46.1481958" lon="13.4314003"><ele>487.79999999999995</ele><time>2026-05-02T13:41:58.47Z</time></trkpt><trkpt lat="46.1481362" lon="13.431511"><ele>487.59999999999997</ele><time>2026-05-02T13:41:59.469Z</time></trkpt><trkpt lat="46.1480442" lon="13.4316232"><ele>487.40000000000003</ele><time>2026-05-02T13:42:00.468Z</time></trkpt><trkpt lat="46.147945" lon="13.4317212"><ele>487.20000000000005</ele><time>2026-05-02T13:42:01.469Z</time></trkpt><trkpt lat="46.147853" lon="13.431801"><ele>487.0</ele><time>2026-05-02T13:42:02.469Z</time></trkpt><trkpt lat="46.1477733" lon="13.431862"><ele>487.0</ele><time>2026-05-02T13:42:03.472Z</time></trkpt><trkpt lat="46.1475725" lon="13.4319223"><ele>487.0</ele><time>2026-05-02T13:42:05.47Z</time></trkpt><trkpt lat="46.1474797" lon="13.4319423"><ele>487.0</ele><time>2026-05-02T13:42:06.472Z</time></trkpt><trkpt lat="46.147379" lon="13.4319573"><ele>487.0</ele><time>2026-05-02T13:42:07.47Z</time></trkpt><trkpt lat="46.14728" lon="13.4319808"><ele>488.33333333333337</ele><time>2026-05-02T13:42:08.47Z</time></trkpt><trkpt lat="46.1471972" lon="13.4320187"><ele>489.6666666666667</ele><time>2026-05-02T13:42:09.469Z</time></trkpt><trkpt lat="46.1471277" lon="13.4320732"><ele>491.0</ele><time>2026-05-02T13:42:10.47Z</time></trkpt><trkpt lat="46.1470668" lon="13.4321582"><ele>492.33333333333337</ele><time>2026-05-02T13:42:11.47Z</time></trkpt><trkpt lat="46.1470182" lon="13.4322562"><ele>493.6666666666667</ele><time>2026-05-02T13:42:12.469Z</time></trkpt><trkpt lat="46.1469708" lon="13.4323678"><ele>495.0</ele><time>2026-05-02T13:42:13.47Z</time></trkpt><trkpt lat="46.1468958" lon="13.432471"><ele>492.2</ele><time>2026-05-02T13:42:14.47Z</time></trkpt><trkpt lat="46.1468247" lon="13.4325607"><ele>489.4</ele><time>2026-05-02T13:42:15.469Z</time></trkpt><trkpt lat="46.146742" lon="13.4326238"><ele>486.6</ele><time>2026-05-02T13:42:16.469Z</time></trkpt><trkpt lat="46.1466623" lon="13.4326728"><ele>483.8</ele><time>2026-05-02T13:42:17.47Z</time></trkpt><trkpt lat="46.1465585" lon="13.4327223"><ele>481.0</ele><time>2026-05-02T13:42:18.47Z</time></trkpt><trkpt lat="46.1464417" lon="13.4327733"><ele>481.0</ele><time>2026-05-02T13:42:19.471Z</time></trkpt><trkpt lat="46.1462993" lon="13.4328223"><ele>481.0</ele><time>2026-05-02T13:42:20.471Z</time></trkpt><trkpt lat="46.146167" lon="13.4328678"><ele>481.0</ele><time>2026-05-02T13:42:21.473Z</time></trkpt><trkpt lat="46.1460577" lon="13.4329178"><ele>481.0</ele><time>2026-05-02T13:42:22.471Z</time></trkpt><trkpt lat="46.145937" lon="13.4329392"><ele>481.0</ele><time>2026-05-02T13:42:23.472Z</time></trkpt><trkpt lat="46.1458077" lon="13.432956"><ele>481.0</ele><time>2026-05-02T13:42:24.47Z</time></trkpt><trkpt lat="46.1455168" lon="13.4330023"><ele>481.0</ele><time>2026-05-02T13:42:26.469Z</time></trkpt><trkpt lat="46.1453722" lon="13.4330337"><ele>475.0</ele><time>2026-05-02T13:42:27.469Z</time></trkpt><trkpt lat="46.145242" lon="13.4330682"><ele>469.0</ele><time>2026-05-02T13:42:28.469Z</time></trkpt><trkpt lat="46.1451278" lon="13.433111"><ele>463.0</ele><time>2026-05-02T13:42:29.47Z</time></trkpt><trkpt lat="46.1450295" lon="13.4331468"><ele>457.0</ele><time>2026-05-02T13:42:30.47Z</time></trkpt><trkpt lat="46.14496" lon="13.4331717"><ele>451.0</ele><time>2026-05-02T13:42:31.47Z</time></trkpt><trkpt lat="46.144889" lon="13.433174"><ele>451.83333333333337</ele><time>2026-05-02T13:42:32.475Z</time></trkpt><trkpt lat="46.1448143" lon="13.4331552"><ele>452.6666666666667</ele><time>2026-05-02T13:42:33.472Z</time></trkpt><trkpt lat="46.1447388" lon="13.4331017"><ele>453.5</ele><time>2026-05-02T13:42:34.471Z</time></trkpt><trkpt lat="46.1446695" lon="13.4330302"><ele>454.33333333333337</ele><time>2026-05-02T13:42:35.471Z</time></trkpt><trkpt lat="46.144617" lon="13.4329557"><ele>455.1666666666667</ele><time>2026-05-02T13:42:36.471Z</time></trkpt><trkpt lat="46.1445758" lon="13.4328813"><ele>456.0</ele><time>2026-05-02T13:42:37.472Z</time></trkpt><trkpt lat="46.1445413" lon="13.4327007"><ele>458.8</ele><time>2026-05-02T13:42:39.47Z</time></trkpt><trkpt lat="46.1445315" lon="13.4325927"><ele>461.6</ele><time>2026-05-02T13:42:40.472Z</time></trkpt><trkpt lat="46.1445185" lon="13.4325027"><ele>464.4</ele><time>2026-05-02T13:42:41.469Z</time></trkpt><trkpt lat="46.1444678" lon="13.4323835"><ele>467.2</ele><time>2026-05-02T13:42:43.47Z</time></trkpt><trkpt lat="46.1443718" lon="13.4323063"><ele>470.0</ele><time>2026-05-02T13:42:45.468Z</time></trkpt><trkpt lat="46.1442107" lon="13.4322262"><ele>470.0</ele><time>2026-05-02T13:42:47.47Z</time></trkpt><trkpt lat="46.144134" lon="13.4321763"><ele>470.0</ele><time>2026-05-02T13:42:48.468Z</time></trkpt><trkpt lat="46.144033" lon="13.4320957"><ele>470.0</ele><time>2026-05-02T13:42:49.469Z</time></trkpt><trkpt lat="46.1439427" lon="13.4320218"><ele>470.0</ele><time>2026-05-02T13:42:50.47Z</time></trkpt><trkpt lat="46.1438703" lon="13.4319565"><ele>470.0</ele><time>2026-05-02T13:42:51.467Z</time></trkpt><trkpt lat="46.1438178" lon="13.4318787"><ele>468.49999999999994</ele><time>2026-05-02T13:42:52.469Z</time></trkpt><trkpt lat="46.1437773" lon="13.4318022"><ele>467.0</ele><time>2026-05-02T13:42:53.47Z</time></trkpt><trkpt lat="46.1437785" lon="13.4316483"><ele>465.5</ele><time>2026-05-02T13:42:55.469Z</time></trkpt><trkpt lat="46.1438393" lon="13.4315078"><ele>464.0</ele><time>2026-05-02T13:42:57.47Z</time></trkpt><trkpt lat="46.1438402" lon="13.4314065"><ele>462.49999999999994</ele><time>2026-05-02T13:42:59.468Z</time></trkpt><trkpt lat="46.1437652" lon="13.4313623"><ele>461.0</ele><time>2026-05-02T13:43:01.469Z</time></trkpt><trkpt lat="46.1436617" lon="13.4313088"><ele>463.0</ele><time>2026-05-02T13:43:03.47Z</time></trkpt><trkpt lat="46.1435802" lon="13.4312207"><ele>465.0</ele><time>2026-05-02T13:43:05.468Z</time></trkpt><trkpt lat="46.143473" lon="13.4311968"><ele>467.0</ele><time>2026-05-02T13:43:07.468Z</time></trkpt><trkpt lat="46.1433038" lon="13.4311652"><ele>469.0</ele><time>2026-05-02T13:43:09.469Z</time></trkpt><trkpt lat="46.1432183" lon="13.43112"><ele>467.2</ele><time>2026-05-02T13:43:10.469Z</time></trkpt><trkpt lat="46.1431587" lon="13.4310788"><ele>465.4</ele><time>2026-05-02T13:43:11.469Z</time></trkpt><trkpt lat="46.1430977" lon="13.4309652"><ele>463.6</ele><time>2026-05-02T13:43:13.468Z</time></trkpt><trkpt lat="46.1430398" lon="13.430815"><ele>461.8</ele><time>2026-05-02T13:43:15.47Z</time></trkpt><trkpt lat="46.143015" lon="13.4306795"><ele>460.0</ele><time>2026-05-02T13:43:17.468Z</time></trkpt><trkpt lat="46.1429592" lon="13.430605"><ele>460.0</ele><time>2026-05-02T13:43:19.469Z</time></trkpt><trkpt lat="46.1428612" lon="13.4306098"><ele>460.0</ele><time>2026-05-02T13:43:21.469Z</time></trkpt><trkpt lat="46.1427378" lon="13.4305545"><ele>460.0</ele><time>2026-05-02T13:43:23.469Z</time></trkpt><trkpt lat="46.1426657" lon="13.430491"><ele>460.0</ele><time>2026-05-02T13:43:24.469Z</time></trkpt><trkpt lat="46.1425968" lon="13.4304148"><ele>460.0</ele><time>2026-05-02T13:43:25.468Z</time></trkpt><trkpt lat="46.1425188" lon="13.4303385"><ele>461.0</ele><time>2026-05-02T13:43:26.47Z</time></trkpt><trkpt lat="46.142456" lon="13.4302568"><ele>462.0</ele><time>2026-05-02T13:43:27.47Z</time></trkpt><trkpt lat="46.1423953" lon="13.4301547"><ele>463.0</ele><time>2026-05-02T13:43:28.468Z</time></trkpt><trkpt lat="46.1422828" lon="13.4299012"><ele>464.0</ele><time>2026-05-02T13:43:30.47Z</time></trkpt><trkpt lat="46.1422397" lon="13.4297795"><ele>464.0</ele><time>2026-05-02T13:43:31.469Z</time></trkpt><trkpt lat="46.1422187" lon="13.4296648"><ele>464.0</ele><time>2026-05-02T13:43:32.47Z</time></trkpt><trkpt lat="46.1422045" lon="13.4294793"><ele>464.0</ele><time>2026-05-02T13:43:34.47Z</time></trkpt><trkpt lat="46.142211" lon="13.4293787"><ele>464.0</ele><time>2026-05-02T13:43:35.469Z</time></trkpt><trkpt lat="46.1422045" lon="13.429267"><ele>464.0</ele><time>2026-05-02T13:43:36.469Z</time></trkpt><trkpt lat="46.142188" lon="13.4291285"><ele>465.3333333333333</ele><time>2026-05-02T13:43:37.469Z</time></trkpt><trkpt lat="46.1421623" lon="13.429001"><ele>466.66666666666663</ele><time>2026-05-02T13:43:38.468Z</time></trkpt><trkpt lat="46.1421265" lon="13.4288737"><ele>468.0</ele><time>2026-05-02T13:43:39.468Z</time></trkpt><trkpt lat="46.1420817" lon="13.4287628"><ele>469.33333333333337</ele><time>2026-05-02T13:43:40.468Z</time></trkpt><trkpt lat="46.1420317" lon="13.4286587"><ele>470.6666666666667</ele><time>2026-05-02T13:43:41.469Z</time></trkpt><trkpt lat="46.141972" lon="13.4285853"><ele>472.0</ele><time>2026-05-02T13:43:42.47Z</time></trkpt><trkpt lat="46.1419075" lon="13.4285162"><ele>473.00000000000006</ele><time>2026-05-02T13:43:43.47Z</time></trkpt><trkpt lat="46.1418537" lon="13.4284403"><ele>474.0</ele><time>2026-05-02T13:43:44.47Z</time></trkpt><trkpt lat="46.1418173" lon="13.4283552"><ele>475.0</ele><time>2026-05-02T13:43:45.47Z</time></trkpt><trkpt lat="46.141792" lon="13.4282472"><ele>476.0</ele><time>2026-05-02T13:43:46.47Z</time></trkpt><trkpt lat="46.1417767" lon="13.4281257"><ele>477.00000000000006</ele><time>2026-05-02T13:43:47.47Z</time></trkpt><trkpt lat="46.1417653" lon="13.4280042"><ele>478.0</ele><time>2026-05-02T13:43:48.472Z</time></trkpt><trkpt lat="46.1417547" lon="13.4278975"><ele>481.0</ele><time>2026-05-02T13:43:49.472Z</time></trkpt><trkpt lat="46.1416178" lon="13.4277127"><ele>484.0</ele><time>2026-05-02T13:43:53.468Z</time></trkpt><trkpt lat="46.1415007" lon="13.427736"><ele>487.0</ele><time>2026-05-02T13:43:55.469Z</time></trkpt><trkpt lat="46.1413328" lon="13.4277977"><ele>487.00000000000006</ele><time>2026-05-02T13:43:57.47Z</time></trkpt><trkpt lat="46.1412288" lon="13.4278387"><ele>487.0</ele><time>2026-05-02T13:43:58.469Z</time></trkpt><trkpt lat="46.1411443" lon="13.4278623"><ele>487.0</ele><time>2026-05-02T13:43:59.469Z</time></trkpt><trkpt lat="46.1410643" lon="13.427871"><ele>487.0</ele><time>2026-05-02T13:44:00.47Z</time></trkpt><trkpt lat="46.140995" lon="13.4278612"><ele>487.00000000000006</ele><time>2026-05-02T13:44:01.469Z</time></trkpt><trkpt lat="46.140919" lon="13.4278523"><ele>487.0</ele><time>2026-05-02T13:44:02.468Z</time></trkpt><trkpt lat="46.1408395" lon="13.427805"><ele>487.00000000000006</ele><time>2026-05-02T13:44:03.469Z</time></trkpt><trkpt lat="46.1407547" lon="13.4277295"><ele>487.0</ele><time>2026-05-02T13:44:04.469Z</time></trkpt><trkpt lat="46.1406947" lon="13.427648"><ele>487.0</ele><time>2026-05-02T13:44:05.47Z</time></trkpt><trkpt lat="46.1406488" lon="13.4275602"><ele>487.0</ele><time>2026-05-02T13:44:06.472Z</time></trkpt><trkpt lat="46.1406142" lon="13.427476"><ele>487.00000000000006</ele><time>2026-05-02T13:44:07.47Z</time></trkpt><trkpt lat="46.1405905" lon="13.4273842"><ele>487.0</ele><time>2026-05-02T13:44:08.469Z</time></trkpt><trkpt lat="46.1405727" lon="13.4272633"><ele>484.75</ele><time>2026-05-02T13:44:09.469Z</time></trkpt><trkpt lat="46.140551" lon="13.4271272"><ele>482.5</ele><time>2026-05-02T13:44:10.469Z</time></trkpt><trkpt lat="46.1405005" lon="13.4268985"><ele>480.25</ele><time>2026-05-02T13:44:12.469Z</time></trkpt><trkpt lat="46.140482" lon="13.4267298"><ele>478.0</ele><time>2026-05-02T13:44:14.469Z</time></trkpt><trkpt lat="46.1404963" lon="13.4266292"><ele>478.0</ele><time>2026-05-02T13:44:15.471Z</time></trkpt><trkpt lat="46.140523" lon="13.4265428"><ele>477.99999999999994</ele><time>2026-05-02T13:44:16.469Z</time></trkpt><trkpt lat="46.1405957" lon="13.4264183"><ele>477.99999999999994</ele><time>2026-05-02T13:44:18.47Z</time></trkpt><trkpt lat="46.1406195" lon="13.4263172"><ele>478.0</ele><time>2026-05-02T13:44:20.468Z</time></trkpt><trkpt lat="46.1405533" lon="13.426205"><ele>478.0</ele><time>2026-05-02T13:44:22.47Z</time></trkpt><trkpt lat="46.1404327" lon="13.4261505"><ele>479.33333333333337</ele><time>2026-05-02T13:44:24.47Z</time></trkpt><trkpt lat="46.1403578" lon="13.4261333"><ele>480.6666666666667</ele><time>2026-05-02T13:44:25.47Z</time></trkpt><trkpt lat="46.1402605" lon="13.4261152"><ele>482.0</ele><time>2026-05-02T13:44:26.469Z</time></trkpt><trkpt lat="46.1401727" lon="13.4260875"><ele>483.33333333333337</ele><time>2026-05-02T13:44:27.47Z</time></trkpt><trkpt lat="46.140104" lon="13.4260463"><ele>484.6666666666667</ele><time>2026-05-02T13:44:28.469Z</time></trkpt><trkpt lat="46.1400275" lon="13.4259767"><ele>486.0</ele><time>2026-05-02T13:44:29.469Z</time></trkpt><trkpt lat="46.139955" lon="13.4258862"><ele>486.0</ele><time>2026-05-02T13:44:30.469Z</time></trkpt><trkpt lat="46.1398857" lon="13.425802"><ele>486.0</ele><time>2026-05-02T13:44:31.47Z</time></trkpt><trkpt lat="46.1397545" lon="13.425625"><ele>486.0</ele><time>2026-05-02T13:44:33.47Z</time></trkpt><trkpt lat="46.1396953" lon="13.4255485"><ele>486.0</ele><time>2026-05-02T13:44:34.47Z</time></trkpt><trkpt lat="46.1396547" lon="13.4254577"><ele>486.0</ele><time>2026-05-02T13:44:35.471Z</time></trkpt><trkpt lat="46.1396255" lon="13.4253695"><ele>483.8333333333333</ele><time>2026-05-02T13:44:36.472Z</time></trkpt><trkpt lat="46.1396058" lon="13.4252807"><ele>481.66666666666663</ele><time>2026-05-02T13:44:37.47Z</time></trkpt><trkpt lat="46.139611" lon="13.4251013"><ele>479.5</ele><time>2026-05-02T13:44:39.47Z</time></trkpt><trkpt lat="46.1396352" lon="13.425007"><ele>477.3333333333333</ele><time>2026-05-02T13:44:40.469Z</time></trkpt><trkpt lat="46.1396628" lon="13.4249177"><ele>475.16666666666663</ele><time>2026-05-02T13:44:41.47Z</time></trkpt><trkpt lat="46.1396732" lon="13.4247493"><ele>473.0</ele><time>2026-05-02T13:44:43.471Z</time></trkpt><trkpt lat="46.1396455" lon="13.4246583"><ele>473.8333333333333</ele><time>2026-05-02T13:44:44.47Z</time></trkpt><trkpt lat="46.1395978" lon="13.4245592"><ele>474.66666666666663</ele><time>2026-05-02T13:44:45.47Z</time></trkpt><trkpt lat="46.1395602" lon="13.4244555"><ele>475.5</ele><time>2026-05-02T13:44:46.47Z</time></trkpt><trkpt lat="46.1395325" lon="13.4243377"><ele>476.33333333333337</ele><time>2026-05-02T13:44:47.47Z</time></trkpt><trkpt lat="46.1395188" lon="13.4242108"><ele>477.1666666666667</ele><time>2026-05-02T13:44:48.468Z</time></trkpt><trkpt lat="46.1395018" lon="13.4240928"><ele>478.0</ele><time>2026-05-02T13:44:49.471Z</time></trkpt><trkpt lat="46.139481" lon="13.4239547"><ele>479.25</ele><time>2026-05-02T13:44:50.47Z</time></trkpt><trkpt lat="46.1394485" lon="13.42381"><ele>480.5</ele><time>2026-05-02T13:44:51.467Z</time></trkpt><trkpt lat="46.139413" lon="13.423666"><ele>481.75</ele><time>2026-05-02T13:44:52.468Z</time></trkpt><trkpt lat="46.139362" lon="13.4233945"><ele>483.0</ele><time>2026-05-02T13:44:54.469Z</time></trkpt><trkpt lat="46.13934" lon="13.4232458"><ele>483.0</ele><time>2026-05-02T13:44:55.47Z</time></trkpt><trkpt lat="46.1393192" lon="13.4231163"><ele>483.0</ele><time>2026-05-02T13:44:56.47Z</time></trkpt><trkpt lat="46.139298" lon="13.4230157"><ele>483.0</ele><time>2026-05-02T13:44:57.469Z</time></trkpt><trkpt lat="46.1392337" lon="13.4228652"><ele>483.0</ele><time>2026-05-02T13:44:59.47Z</time></trkpt><trkpt lat="46.1391845" lon="13.4227915"><ele>483.0</ele><time>2026-05-02T13:45:00.47Z</time></trkpt><trkpt lat="46.139125" lon="13.4227202"><ele>483.0</ele><time>2026-05-02T13:45:01.469Z</time></trkpt><trkpt lat="46.139065" lon="13.4226625"><ele>480.59999999999997</ele><time>2026-05-02T13:45:02.47Z</time></trkpt><trkpt lat="46.1390145" lon="13.4226052"><ele>478.19999999999993</ele><time>2026-05-02T13:45:03.471Z</time></trkpt><trkpt lat="46.1389405" lon="13.4224612"><ele>475.8</ele><time>2026-05-02T13:45:05.47Z</time></trkpt><trkpt lat="46.1388837" lon="13.4223127"><ele>473.4</ele><time>2026-05-02T13:45:07.47Z</time></trkpt><trkpt lat="46.1387965" lon="13.4222462"><ele>471.0</ele><time>2026-05-02T13:45:09.47Z</time></trkpt><trkpt lat="46.1386727" lon="13.4222478"><ele>471.0</ele><time>2026-05-02T13:45:11.469Z</time></trkpt><trkpt lat="46.1385875" lon="13.4222838"><ele>471.0</ele><time>2026-05-02T13:45:12.47Z</time></trkpt><trkpt lat="46.1385012" lon="13.4223203"><ele>471.0</ele><time>2026-05-02T13:45:13.47Z</time></trkpt><trkpt lat="46.138352" lon="13.4223517"><ele>471.0</ele><time>2026-05-02T13:45:15.47Z</time></trkpt><trkpt lat="46.138276" lon="13.4223522"><ele>471.0</ele><time>2026-05-02T13:45:16.468Z</time></trkpt><trkpt lat="46.1381903" lon="13.4223412"><ele>469.6</ele><time>2026-05-02T13:45:17.468Z</time></trkpt><trkpt lat="46.1380935" lon="13.4223217"><ele>468.20000000000005</ele><time>2026-05-02T13:45:18.467Z</time></trkpt><trkpt lat="46.137984" lon="13.4223203"><ele>466.79999999999995</ele><time>2026-05-02T13:45:19.469Z</time></trkpt><trkpt lat="46.1378763" lon="13.4223247"><ele>465.4</ele><time>2026-05-02T13:45:20.47Z</time></trkpt><trkpt lat="46.1377727" lon="13.4223323"><ele>464.0</ele><time>2026-05-02T13:45:21.469Z</time></trkpt><trkpt lat="46.1376863" lon="13.4223343"><ele>464.0</ele><time>2026-05-02T13:45:22.468Z</time></trkpt><trkpt lat="46.1376145" lon="13.4223265"><ele>464.0</ele><time>2026-05-02T13:45:23.469Z</time></trkpt><trkpt lat="46.1375402" lon="13.42226"><ele>464.0</ele><time>2026-05-02T13:45:25.469Z</time></trkpt><trkpt lat="46.1375157" lon="13.4221348"><ele>464.0</ele><time>2026-05-02T13:45:27.47Z</time></trkpt><trkpt lat="46.1375108" lon="13.4219542"><ele>464.0</ele><time>2026-05-02T13:45:29.471Z</time></trkpt><trkpt lat="46.1374837" lon="13.4217953"><ele>463.4</ele><time>2026-05-02T13:45:31.471Z</time></trkpt><trkpt lat="46.1373972" lon="13.4216518"><ele>462.79999999999995</ele><time>2026-05-02T13:45:33.47Z</time></trkpt><trkpt lat="46.1373457" lon="13.4215837"><ele>462.20000000000005</ele><time>2026-05-02T13:45:34.47Z</time></trkpt><trkpt lat="46.1373003" lon="13.4215097"><ele>461.6</ele><time>2026-05-02T13:45:35.471Z</time></trkpt><trkpt lat="46.1372517" lon="13.4213257"><ele>461.0</ele><time>2026-05-02T13:45:37.472Z</time></trkpt><trkpt lat="46.1372483" lon="13.4212172"><ele>461.99999999999994</ele><time>2026-05-02T13:45:38.473Z</time></trkpt><trkpt lat="46.1372485" lon="13.421109"><ele>463.0</ele><time>2026-05-02T13:45:39.469Z</time></trkpt><trkpt lat="46.1372528" lon="13.4209928"><ele>464.0</ele><time>2026-05-02T13:45:40.469Z</time></trkpt><trkpt lat="46.1372558" lon="13.420867"><ele>465.0</ele><time>2026-05-02T13:45:41.468Z</time></trkpt><trkpt lat="46.1372625" lon="13.4207653"><ele>465.99999999999994</ele><time>2026-05-02T13:45:42.468Z</time></trkpt><trkpt lat="46.1372302" lon="13.4206023"><ele>467.0</ele><time>2026-05-02T13:45:44.47Z</time></trkpt><trkpt lat="46.1371288" lon="13.4205085"><ele>467.0</ele><time>2026-05-02T13:45:46.47Z</time></trkpt><trkpt lat="46.1370542" lon="13.4204847"><ele>467.00000000000006</ele><time>2026-05-02T13:45:47.47Z</time></trkpt><trkpt lat="46.1369642" lon="13.42045"><ele>467.00000000000006</ele><time>2026-05-02T13:45:48.47Z</time></trkpt><trkpt lat="46.1368702" lon="13.4204032"><ele>467.0</ele><time>2026-05-02T13:45:49.47Z</time></trkpt><trkpt lat="46.1367757" lon="13.4203482"><ele>467.0</ele><time>2026-05-02T13:45:50.471Z</time></trkpt><trkpt lat="46.1366845" lon="13.4202825"><ele>469.3333333333333</ele><time>2026-05-02T13:45:51.47Z</time></trkpt><trkpt lat="46.1365977" lon="13.4202103"><ele>471.66666666666663</ele><time>2026-05-02T13:45:52.47Z</time></trkpt><trkpt lat="46.1365172" lon="13.4201438"><ele>474.0</ele><time>2026-05-02T13:45:53.47Z</time></trkpt><trkpt lat="46.1364467" lon="13.4200852"><ele>476.33333333333337</ele><time>2026-05-02T13:45:54.471Z</time></trkpt><trkpt lat="46.136397" lon="13.4200232"><ele>478.6666666666667</ele><time>2026-05-02T13:45:55.47Z</time></trkpt><trkpt lat="46.1363412" lon="13.4198968"><ele>481.0</ele><time>2026-05-02T13:45:57.471Z</time></trkpt><trkpt lat="46.1363007" lon="13.419627"><ele>481.00000000000006</ele><time>2026-05-02T13:46:00.47Z</time></trkpt><trkpt lat="46.1362472" lon="13.4195237"><ele>481.0</ele><time>2026-05-02T13:46:02.47Z</time></trkpt><trkpt lat="46.136176" lon="13.4195367"><ele>481.0</ele><time>2026-05-02T13:46:05.468Z</time></trkpt><trkpt lat="46.1361607" lon="13.419643"><ele>481.0</ele><time>2026-05-02T13:46:07.468Z</time></trkpt><trkpt lat="46.1361327" lon="13.4198152"><ele>481.00000000000006</ele><time>2026-05-02T13:46:09.47Z</time></trkpt><trkpt lat="46.1361118" lon="13.4199018"><ele>481.0</ele><time>2026-05-02T13:46:10.47Z</time></trkpt><trkpt lat="46.1360792" lon="13.4199853"><ele>481.0</ele><time>2026-05-02T13:46:11.47Z</time></trkpt><trkpt lat="46.136026" lon="13.4200657"><ele>481.0</ele><time>2026-05-02T13:46:12.47Z</time></trkpt><trkpt lat="46.1359703" lon="13.420142"><ele>481.0</ele><time>2026-05-02T13:46:13.672Z</time></trkpt><trkpt lat="46.1358855" lon="13.4201863"><ele>481.0</ele><time>2026-05-02T13:46:16.275Z</time></trkpt><trkpt lat="46.1358132" lon="13.4201905"><ele>481.0</ele><time>2026-05-02T13:46:18.276Z</time></trkpt><trkpt lat="46.1356338" lon="13.4201713"><ele>482.33333333333337</ele><time>2026-05-02T13:46:21.276Z</time></trkpt><trkpt lat="46.1355645" lon="13.4201952"><ele>483.6666666666667</ele><time>2026-05-02T13:46:22.277Z</time></trkpt><trkpt lat="46.1354908" lon="13.4202382"><ele>485.0</ele><time>2026-05-02T13:46:23.278Z</time></trkpt><trkpt lat="46.1354212" lon="13.4202827"><ele>486.33333333333337</ele><time>2026-05-02T13:46:24.277Z</time></trkpt><trkpt lat="46.135349" lon="13.4203295"><ele>487.6666666666667</ele><time>2026-05-02T13:46:25.278Z</time></trkpt><trkpt lat="46.1352548" lon="13.42039"><ele>489.0</ele><time>2026-05-02T13:46:26.279Z</time></trkpt><trkpt lat="46.1351828" lon="13.4204615"><ele>484.4</ele><time>2026-05-02T13:46:27.28Z</time></trkpt><trkpt lat="46.1351138" lon="13.4205407"><ele>479.79999999999995</ele><time>2026-05-02T13:46:28.278Z</time></trkpt><trkpt lat="46.1350403" lon="13.4206238"><ele>475.20000000000005</ele><time>2026-05-02T13:46:29.279Z</time></trkpt><trkpt lat="46.1349635" lon="13.4207132"><ele>470.6</ele><time>2026-05-02T13:46:30.278Z</time></trkpt><trkpt lat="46.1349043" lon="13.4208057"><ele>466.0</ele><time>2026-05-02T13:46:31.277Z</time></trkpt><trkpt lat="46.134847" lon="13.4208905"><ele>466.0</ele><time>2026-05-02T13:46:32.277Z</time></trkpt><trkpt lat="46.134764" lon="13.4210087"><ele>466.0</ele><time>2026-05-02T13:46:34.278Z</time></trkpt><trkpt lat="46.1346918" lon="13.4210553"><ele>466.0</ele><time>2026-05-02T13:46:35.278Z</time></trkpt><trkpt lat="46.1346003" lon="13.4210983"><ele>466.0</ele><time>2026-05-02T13:46:36.277Z</time></trkpt><trkpt lat="46.1345122" lon="13.4211498"><ele>466.0</ele><time>2026-05-02T13:46:37.279Z</time></trkpt><trkpt lat="46.134427" lon="13.4212115"><ele>466.0</ele><time>2026-05-02T13:46:38.278Z</time></trkpt><trkpt lat="46.1343383" lon="13.4212827"><ele>466.0</ele><time>2026-05-02T13:46:39.277Z</time></trkpt><trkpt lat="46.1341647" lon="13.4214333"><ele>466.0</ele><time>2026-05-02T13:46:41.277Z</time></trkpt><trkpt lat="46.1340883" lon="13.4215142"><ele>466.0</ele><time>2026-05-02T13:46:42.276Z</time></trkpt><trkpt lat="46.13402" lon="13.4215915"><ele>462.2857142857143</ele><time>2026-05-02T13:46:43.277Z</time></trkpt><trkpt lat="46.1339622" lon="13.4216512"><ele>458.57142857142856</ele><time>2026-05-02T13:46:44.279Z</time></trkpt><trkpt lat="46.133907" lon="13.4217097"><ele>454.85714285714283</ele><time>2026-05-02T13:46:45.278Z</time></trkpt><trkpt lat="46.1338515" lon="13.4217642"><ele>451.1428571428571</ele><time>2026-05-02T13:46:46.278Z</time></trkpt><trkpt lat="46.133791" lon="13.4218023"><ele>447.42857142857144</ele><time>2026-05-02T13:46:47.28Z</time></trkpt><trkpt lat="46.1337257" lon="13.4218267"><ele>443.71428571428567</ele><time>2026-05-02T13:46:48.277Z</time></trkpt><trkpt lat="46.133656" lon="13.4218428"><ele>440.0</ele><time>2026-05-02T13:46:49.28Z</time></trkpt><trkpt lat="46.1335835" lon="13.4218527"><ele>439.99999999999994</ele><time>2026-05-02T13:46:50.279Z</time></trkpt><trkpt lat="46.1335095" lon="13.421853"><ele>440.0</ele><time>2026-05-02T13:46:51.278Z</time></trkpt><trkpt lat="46.1334372" lon="13.42183"><ele>440.0</ele><time>2026-05-02T13:46:52.279Z</time></trkpt><trkpt lat="46.1333845" lon="13.4217668"><ele>440.0</ele><time>2026-05-02T13:46:53.278Z</time></trkpt><trkpt lat="46.1333248" lon="13.4216172"><ele>439.99999999999994</ele><time>2026-05-02T13:46:55.279Z</time></trkpt><trkpt lat="46.1333017" lon="13.4214992"><ele>440.0</ele><time>2026-05-02T13:46:56.278Z</time></trkpt><trkpt lat="46.133284" lon="13.4213642"><ele>442.2</ele><time>2026-05-02T13:46:57.279Z</time></trkpt><trkpt lat="46.1332728" lon="13.4212063"><ele>444.4</ele><time>2026-05-02T13:46:58.471Z</time></trkpt><trkpt lat="46.1332633" lon="13.4210853"><ele>446.6</ele><time>2026-05-02T13:46:59.47Z</time></trkpt><trkpt lat="46.1332503" lon="13.4209738"><ele>448.8</ele><time>2026-05-02T13:47:00.47Z</time></trkpt><trkpt lat="46.1332023" lon="13.4207935"><ele>451.0</ele><time>2026-05-02T13:47:02.469Z</time></trkpt><trkpt lat="46.1331183" lon="13.4206765"><ele>444.1666666666667</ele><time>2026-05-02T13:47:04.469Z</time></trkpt><trkpt lat="46.1329978" lon="13.4206522"><ele>437.33333333333337</ele><time>2026-05-02T13:47:06.47Z</time></trkpt><trkpt lat="46.132934" lon="13.4206855"><ele>430.5</ele><time>2026-05-02T13:47:07.468Z</time></trkpt><trkpt lat="46.1328683" lon="13.4207228"><ele>423.66666666666663</ele><time>2026-05-02T13:47:08.469Z</time></trkpt><trkpt lat="46.1328078" lon="13.4207502"><ele>416.8333333333333</ele><time>2026-05-02T13:47:09.47Z</time></trkpt><trkpt lat="46.132696" lon="13.4207433"><ele>410.0</ele><time>2026-05-02T13:47:11.47Z</time></trkpt><trkpt lat="46.1326097" lon="13.4205883"><ele>410.66666666666663</ele><time>2026-05-02T13:47:13.47Z</time></trkpt><trkpt lat="46.1325727" lon="13.4204808"><ele>411.3333333333333</ele><time>2026-05-02T13:47:14.471Z</time></trkpt><trkpt lat="46.1325423" lon="13.420383"><ele>412.0</ele><time>2026-05-02T13:47:15.471Z</time></trkpt><trkpt lat="46.1325222" lon="13.4202817"><ele>412.66666666666663</ele><time>2026-05-02T13:47:16.471Z</time></trkpt><trkpt lat="46.1325063" lon="13.420158"><ele>413.3333333333333</ele><time>2026-05-02T13:47:17.471Z</time></trkpt><trkpt lat="46.1324942" lon="13.4200233"><ele>414.0</ele><time>2026-05-02T13:47:18.469Z</time></trkpt><trkpt lat="46.1324838" lon="13.4198835"><ele>414.0</ele><time>2026-05-02T13:47:19.469Z</time></trkpt><trkpt lat="46.1324787" lon="13.4197442"><ele>414.0</ele><time>2026-05-02T13:47:20.468Z</time></trkpt><trkpt lat="46.1324798" lon="13.4196128"><ele>414.0</ele><time>2026-05-02T13:47:21.468Z</time></trkpt><trkpt lat="46.1324807" lon="13.4194747"><ele>414.0</ele><time>2026-05-02T13:47:22.469Z</time></trkpt><trkpt lat="46.1324682" lon="13.4191913"><ele>412.6</ele><time>2026-05-02T13:47:24.468Z</time></trkpt><trkpt lat="46.1324543" lon="13.419043"><ele>411.2</ele><time>2026-05-02T13:47:25.467Z</time></trkpt><trkpt lat="46.1324377" lon="13.4188897"><ele>409.8</ele><time>2026-05-02T13:47:26.468Z</time></trkpt><trkpt lat="46.1324192" lon="13.4187458"><ele>408.40000000000003</ele><time>2026-05-02T13:47:27.469Z</time></trkpt><trkpt lat="46.132395" lon="13.4186087"><ele>407.0</ele><time>2026-05-02T13:47:28.468Z</time></trkpt><trkpt lat="46.1323742" lon="13.4184703"><ele>398.8</ele><time>2026-05-02T13:47:29.47Z</time></trkpt><trkpt lat="46.132354" lon="13.4183295"><ele>390.6</ele><time>2026-05-02T13:47:30.469Z</time></trkpt><trkpt lat="46.132336" lon="13.4181882"><ele>382.40000000000003</ele><time>2026-05-02T13:47:31.468Z</time></trkpt><trkpt lat="46.1323148" lon="13.4180498"><ele>374.20000000000005</ele><time>2026-05-02T13:47:32.468Z</time></trkpt><trkpt lat="46.1322927" lon="13.4179167"><ele>366.0</ele><time>2026-05-02T13:47:33.469Z</time></trkpt><trkpt lat="46.1322715" lon="13.4177872"><ele>366.0</ele><time>2026-05-02T13:47:34.468Z</time></trkpt><trkpt lat="46.1322435" lon="13.4176655"><ele>366.0</ele><time>2026-05-02T13:47:35.469Z</time></trkpt><trkpt lat="46.1322083" lon="13.4175385"><ele>366.0</ele><time>2026-05-02T13:47:36.469Z</time></trkpt><trkpt lat="46.1321787" lon="13.4174378"><ele>366.0</ele><time>2026-05-02T13:47:37.468Z</time></trkpt><trkpt lat="46.1321553" lon="13.417352"><ele>366.0</ele><time>2026-05-02T13:47:38.469Z</time></trkpt><trkpt lat="46.1320798" lon="13.4172552"><ele>366.0</ele><time>2026-05-02T13:47:40.47Z</time></trkpt><trkpt lat="46.1319882" lon="13.4172707"><ele>366.0</ele><time>2026-05-02T13:47:42.468Z</time></trkpt><trkpt lat="46.1318507" lon="13.4173375"><ele>366.0</ele><time>2026-05-02T13:47:44.469Z</time></trkpt><trkpt lat="46.131661" lon="13.4174167"><ele>366.0</ele><time>2026-05-02T13:47:46.47Z</time></trkpt><trkpt lat="46.1315612" lon="13.4174565"><ele>366.0</ele><time>2026-05-02T13:47:47.471Z</time></trkpt><trkpt lat="46.1314582" lon="13.4175072"><ele>362.8</ele><time>2026-05-02T13:47:48.471Z</time></trkpt><trkpt lat="46.1313542" lon="13.4175678"><ele>359.6</ele><time>2026-05-02T13:47:49.471Z</time></trkpt><trkpt lat="46.1312525" lon="13.4176415"><ele>356.4</ele><time>2026-05-02T13:47:50.471Z</time></trkpt><trkpt lat="46.1311515" lon="13.4177097"><ele>353.2</ele><time>2026-05-02T13:47:51.472Z</time></trkpt><trkpt lat="46.1310547" lon="13.417779"><ele>350.0</ele><time>2026-05-02T13:47:52.472Z</time></trkpt><trkpt lat="46.13096" lon="13.4178435"><ele>350.0</ele><time>2026-05-02T13:47:53.473Z</time></trkpt><trkpt lat="46.1308728" lon="13.4179012"><ele>350.0</ele><time>2026-05-02T13:47:54.473Z</time></trkpt><trkpt lat="46.1308028" lon="13.4179425"><ele>350.0</ele><time>2026-05-02T13:47:55.472Z</time></trkpt><trkpt lat="46.1307043" lon="13.4179502"><ele>350.0</ele><time>2026-05-02T13:47:57.473Z</time></trkpt><trkpt lat="46.1306593" lon="13.417829"><ele>350.0</ele><time>2026-05-02T13:47:59.474Z</time></trkpt><trkpt lat="46.1306543" lon="13.4177338"><ele>350.0</ele><time>2026-05-02T13:48:00.473Z</time></trkpt><trkpt lat="46.1306517" lon="13.4176277"><ele>345.4</ele><time>2026-05-02T13:48:01.472Z</time></trkpt><trkpt lat="46.1306433" lon="13.4175155"><ele>340.8</ele><time>2026-05-02T13:48:02.473Z</time></trkpt><trkpt lat="46.1306172" lon="13.4174183"><ele>336.20000000000005</ele><time>2026-05-02T13:48:03.473Z</time></trkpt><trkpt lat="46.1305745" lon="13.4173383"><ele>331.6</ele><time>2026-05-02T13:48:04.472Z</time></trkpt><trkpt lat="46.1305248" lon="13.4172655"><ele>327.0</ele><time>2026-05-02T13:48:05.472Z</time></trkpt><trkpt lat="46.1303667" lon="13.4171248"><ele>327.0</ele><time>2026-05-02T13:48:08.47Z</time></trkpt><trkpt lat="46.1302615" lon="13.417132"><ele>327.0</ele><time>2026-05-02T13:48:10.472Z</time></trkpt><trkpt lat="46.1301583" lon="13.4172125"><ele>327.0</ele><time>2026-05-02T13:48:12.473Z</time></trkpt><trkpt lat="46.130064" lon="13.4172568"><ele>327.0</ele><time>2026-05-02T13:48:14.47Z</time></trkpt><trkpt lat="46.1299895" lon="13.4172235"><ele>327.0</ele><time>2026-05-02T13:48:16.472Z</time></trkpt><trkpt lat="46.1299443" lon="13.4171395"><ele>327.0</ele><time>2026-05-02T13:48:18.471Z</time></trkpt><trkpt lat="46.1299105" lon="13.4170078"><ele>327.0</ele><time>2026-05-02T13:48:20.472Z</time></trkpt><trkpt lat="46.1298993" lon="13.4168307"><ele>327.0</ele><time>2026-05-02T13:48:22.472Z</time></trkpt><trkpt lat="46.1299065" lon="13.4167378"><ele>327.0</ele><time>2026-05-02T13:48:23.472Z</time></trkpt><trkpt lat="46.1299183" lon="13.4166432"><ele>327.0</ele><time>2026-05-02T13:48:24.473Z</time></trkpt><trkpt lat="46.1299295" lon="13.416548"><ele>327.0</ele><time>2026-05-02T13:48:25.471Z</time></trkpt><trkpt lat="46.129946" lon="13.4164517"><ele>329.1666666666667</ele><time>2026-05-02T13:48:26.47Z</time></trkpt><trkpt lat="46.1299648" lon="13.4162658"><ele>331.3333333333333</ele><time>2026-05-02T13:48:28.47Z</time></trkpt><trkpt lat="46.1299523" lon="13.4161712"><ele>333.5</ele><time>2026-05-02T13:48:29.47Z</time></trkpt><trkpt lat="46.1299358" lon="13.416079"><ele>335.66666666666663</ele><time>2026-05-02T13:48:30.47Z</time></trkpt><trkpt lat="46.1299132" lon="13.4159772"><ele>337.8333333333333</ele><time>2026-05-02T13:48:31.468Z</time></trkpt><trkpt lat="46.1298813" lon="13.4158698"><ele>340.0</ele><time>2026-05-02T13:48:32.467Z</time></trkpt><trkpt lat="46.1298527" lon="13.4157623"><ele>337.0</ele><time>2026-05-02T13:48:33.468Z</time></trkpt><trkpt lat="46.1298098" lon="13.4156663"><ele>334.0</ele><time>2026-05-02T13:48:34.468Z</time></trkpt><trkpt lat="46.1297627" lon="13.415577"><ele>331.0</ele><time>2026-05-02T13:48:35.47Z</time></trkpt><trkpt lat="46.1297063" lon="13.4155042"><ele>328.0</ele><time>2026-05-02T13:48:36.47Z</time></trkpt><trkpt lat="46.1296483" lon="13.4154568"><ele>325.0</ele><time>2026-05-02T13:48:37.471Z</time></trkpt><trkpt lat="46.1295813" lon="13.4154393"><ele>322.0</ele><time>2026-05-02T13:48:38.471Z</time></trkpt><trkpt lat="46.1295107" lon="13.415446"><ele>319.0</ele><time>2026-05-02T13:48:39.472Z</time></trkpt><trkpt lat="46.129438" lon="13.4154777"><ele>314.59999999999997</ele><time>2026-05-02T13:48:40.472Z</time></trkpt><trkpt lat="46.1293548" lon="13.4155275"><ele>310.2</ele><time>2026-05-02T13:48:41.472Z</time></trkpt><trkpt lat="46.1292605" lon="13.4155757"><ele>305.79999999999995</ele><time>2026-05-02T13:48:42.472Z</time></trkpt><trkpt lat="46.1291595" lon="13.4156158"><ele>301.4</ele><time>2026-05-02T13:48:43.472Z</time></trkpt><trkpt lat="46.129069" lon="13.4156435"><ele>297.0</ele><time>2026-05-02T13:48:44.473Z</time></trkpt><trkpt lat="46.1289682" lon="13.4156605"><ele>296.5</ele><time>2026-05-02T13:48:45.471Z</time></trkpt><trkpt lat="46.1288685" lon="13.4156768"><ele>296.0</ele><time>2026-05-02T13:48:46.471Z</time></trkpt><trkpt lat="46.1287705" lon="13.4157105"><ele>295.5</ele><time>2026-05-02T13:48:47.47Z</time></trkpt><trkpt lat="46.128617" lon="13.4158377"><ele>295.0</ele><time>2026-05-02T13:48:49.471Z</time></trkpt><trkpt lat="46.1285407" lon="13.415906"><ele>295.0</ele><time>2026-05-02T13:48:50.472Z</time></trkpt><trkpt lat="46.1284552" lon="13.4159668"><ele>295.0</ele><time>2026-05-02T13:48:51.473Z</time></trkpt><trkpt lat="46.1283683" lon="13.4160217"><ele>295.0</ele><time>2026-05-02T13:48:52.471Z</time></trkpt><trkpt lat="46.1282772" lon="13.4160762"><ele>295.0</ele><time>2026-05-02T13:48:53.471Z</time></trkpt><trkpt lat="46.1281877" lon="13.416139"><ele>295.0</ele><time>2026-05-02T13:48:54.472Z</time></trkpt><trkpt lat="46.1280968" lon="13.4162073"><ele>294.8</ele><time>2026-05-02T13:48:55.472Z</time></trkpt><trkpt lat="46.1279997" lon="13.4162705"><ele>294.6</ele><time>2026-05-02T13:48:56.469Z</time></trkpt><trkpt lat="46.1278972" lon="13.4163315"><ele>294.4</ele><time>2026-05-02T13:48:57.469Z</time></trkpt><trkpt lat="46.1277973" lon="13.4163842"><ele>294.2</ele><time>2026-05-02T13:48:58.47Z</time></trkpt><trkpt lat="46.1277037" lon="13.4164375"><ele>294.0</ele><time>2026-05-02T13:48:59.47Z</time></trkpt><trkpt lat="46.1276213" lon="13.4164775"><ele>289.0</ele><time>2026-05-02T13:49:00.473Z</time></trkpt><trkpt lat="46.1275382" lon="13.4164945"><ele>284.0</ele><time>2026-05-02T13:49:01.472Z</time></trkpt><trkpt lat="46.1274518" lon="13.4164935"><ele>279.0</ele><time>2026-05-02T13:49:02.473Z</time></trkpt><trkpt lat="46.1273837" lon="13.4164792"><ele>274.0</ele><time>2026-05-02T13:49:03.473Z</time></trkpt><trkpt lat="46.1272735" lon="13.4163853"><ele>269.0</ele><time>2026-05-02T13:49:05.472Z</time></trkpt><trkpt lat="46.1272197" lon="13.4163078"><ele>264.0</ele><time>2026-05-02T13:49:06.472Z</time></trkpt><trkpt lat="46.1271602" lon="13.4162243"><ele>264.0</ele><time>2026-05-02T13:49:07.471Z</time></trkpt><trkpt lat="46.1271005" lon="13.4161408"><ele>264.0</ele><time>2026-05-02T13:49:08.47Z</time></trkpt><trkpt lat="46.1269743" lon="13.415992"><ele>264.0</ele><time>2026-05-02T13:49:10.47Z</time></trkpt><trkpt lat="46.1269128" lon="13.415926"><ele>264.0</ele><time>2026-05-02T13:49:11.47Z</time></trkpt><trkpt lat="46.1268518" lon="13.4158735"><ele>264.0</ele><time>2026-05-02T13:49:12.47Z</time></trkpt><trkpt lat="46.126785" lon="13.4158452"><ele>264.0</ele><time>2026-05-02T13:49:13.47Z</time></trkpt><trkpt lat="46.1267207" lon="13.4158567"><ele>264.0</ele><time>2026-05-02T13:49:14.47Z</time></trkpt><trkpt lat="46.1266473" lon="13.4158835"><ele>264.0</ele><time>2026-05-02T13:49:15.471Z</time></trkpt><trkpt lat="46.1265748" lon="13.4159067"><ele>264.0</ele><time>2026-05-02T13:49:16.471Z</time></trkpt><trkpt lat="46.1264963" lon="13.4159268"><ele>264.0</ele><time>2026-05-02T13:49:17.472Z</time></trkpt><trkpt lat="46.1264208" lon="13.4159375"><ele>264.0</ele><time>2026-05-02T13:49:18.476Z</time></trkpt><trkpt lat="46.1263472" lon="13.4159508"><ele>264.0</ele><time>2026-05-02T13:49:19.473Z</time></trkpt><trkpt lat="46.1262455" lon="13.41591"><ele>261.59999999999997</ele><time>2026-05-02T13:49:21.47Z</time></trkpt><trkpt lat="46.1262008" lon="13.4158005"><ele>259.2</ele><time>2026-05-02T13:49:23.47Z</time></trkpt><trkpt lat="46.1261917" lon="13.415641"><ele>256.79999999999995</ele><time>2026-05-02T13:49:25.471Z</time></trkpt><trkpt lat="46.1262038" lon="13.4155478"><ele>254.39999999999998</ele><time>2026-05-02T13:49:26.47Z</time></trkpt><trkpt lat="46.1262027" lon="13.4153722"><ele>252.0</ele><time>2026-05-02T13:49:28.47Z</time></trkpt><trkpt lat="46.126137" lon="13.4152362"><ele>252.0</ele><time>2026-05-02T13:49:30.472Z</time></trkpt><trkpt lat="46.1259847" lon="13.4150697"><ele>252.0</ele><time>2026-05-02T13:49:33.471Z</time></trkpt><trkpt lat="46.1259187" lon="13.4150265"><ele>252.0</ele><time>2026-05-02T13:49:34.47Z</time></trkpt><trkpt lat="46.1258435" lon="13.4149965"><ele>252.0</ele><time>2026-05-02T13:49:35.471Z</time></trkpt><trkpt lat="46.1257693" lon="13.4149597"><ele>252.0</ele><time>2026-05-02T13:49:36.47Z</time></trkpt><trkpt lat="46.1256838" lon="13.4149092"><ele>248.16666666666666</ele><time>2026-05-02T13:49:37.469Z</time></trkpt><trkpt lat="46.1256028" lon="13.4148578"><ele>244.33333333333331</ele><time>2026-05-02T13:49:38.469Z</time></trkpt><trkpt lat="46.1255233" lon="13.4148237"><ele>240.5</ele><time>2026-05-02T13:49:39.47Z</time></trkpt><trkpt lat="46.1254488" lon="13.4148143"><ele>236.66666666666666</ele><time>2026-05-02T13:49:40.47Z</time></trkpt><trkpt lat="46.1253777" lon="13.414829"><ele>232.83333333333331</ele><time>2026-05-02T13:49:41.47Z</time></trkpt><trkpt lat="46.125308" lon="13.4148552"><ele>229.0</ele><time>2026-05-02T13:49:42.47Z</time></trkpt><trkpt lat="46.1252463" lon="13.4148747"><ele>229.0</ele><time>2026-05-02T13:49:43.471Z</time></trkpt><trkpt lat="46.1251275" lon="13.414892"><ele>228.99999999999997</ele><time>2026-05-02T13:49:45.47Z</time></trkpt><trkpt lat="46.1250188" lon="13.4148285"><ele>228.99999999999997</ele><time>2026-05-02T13:49:47.469Z</time></trkpt><trkpt lat="46.1249542" lon="13.4147777"><ele>229.0</ele><time>2026-05-02T13:49:48.47Z</time></trkpt><trkpt lat="46.1248805" lon="13.4147102"><ele>229.0</ele><time>2026-05-02T13:49:49.471Z</time></trkpt><trkpt lat="46.1247852" lon="13.4146275"><ele>229.0</ele><time>2026-05-02T13:49:50.472Z</time></trkpt><trkpt lat="46.1246907" lon="13.4145452"><ele>228.99999999999997</ele><time>2026-05-02T13:49:51.471Z</time></trkpt><trkpt lat="46.1245392" lon="13.4143917"><ele>228.99999999999997</ele><time>2026-05-02T13:49:53.472Z</time></trkpt><trkpt lat="46.1244798" lon="13.4143205"><ele>229.0</ele><time>2026-05-02T13:49:54.471Z</time></trkpt><trkpt lat="46.1244343" lon="13.4142387"><ele>229.0</ele><time>2026-05-02T13:49:55.47Z</time></trkpt><trkpt lat="46.124381" lon="13.4141402"><ele>228.99999999999997</ele><time>2026-05-02T13:49:56.47Z</time></trkpt><trkpt lat="46.1243203" lon="13.414056"><ele>229.0</ele><time>2026-05-02T13:49:57.471Z</time></trkpt><trkpt lat="46.1242572" lon="13.4139782"><ele>229.0</ele><time>2026-05-02T13:49:58.472Z</time></trkpt><trkpt lat="46.124197" lon="13.4139093"><ele>229.0</ele><time>2026-05-02T13:49:59.471Z</time></trkpt><trkpt lat="46.1241335" lon="13.4138575"><ele>228.99999999999997</ele><time>2026-05-02T13:50:00.471Z</time></trkpt><trkpt lat="46.1240507" lon="13.4138208"><ele>229.0</ele><time>2026-05-02T13:50:01.471Z</time></trkpt><trkpt lat="46.1239692" lon="13.413789"><ele>226.16666666666666</ele><time>2026-05-02T13:50:02.472Z</time></trkpt><trkpt lat="46.1238865" lon="13.4137782"><ele>223.33333333333331</ele><time>2026-05-02T13:50:03.471Z</time></trkpt><trkpt lat="46.1238053" lon="13.4137588"><ele>220.5</ele><time>2026-05-02T13:50:04.471Z</time></trkpt><trkpt lat="46.1237218" lon="13.4137438"><ele>217.66666666666669</ele><time>2026-05-02T13:50:05.471Z</time></trkpt><trkpt lat="46.1236368" lon="13.413749"><ele>214.83333333333334</ele><time>2026-05-02T13:50:06.472Z</time></trkpt><trkpt lat="46.1235383" lon="13.4137738"><ele>212.0</ele><time>2026-05-02T13:50:07.471Z</time></trkpt><trkpt lat="46.123437" lon="13.4138083"><ele>210.8</ele><time>2026-05-02T13:50:08.472Z</time></trkpt><trkpt lat="46.1233393" lon="13.4138388"><ele>209.6</ele><time>2026-05-02T13:50:09.47Z</time></trkpt><trkpt lat="46.1232452" lon="13.4138628"><ele>208.4</ele><time>2026-05-02T13:50:10.469Z</time></trkpt><trkpt lat="46.123155" lon="13.4138803"><ele>207.20000000000002</ele><time>2026-05-02T13:50:11.47Z</time></trkpt><trkpt lat="46.1230777" lon="13.4138883"><ele>206.0</ele><time>2026-05-02T13:50:12.471Z</time></trkpt><trkpt lat="46.122933" lon="13.4138398"><ele>203.60000000000002</ele><time>2026-05-02T13:50:15.473Z</time></trkpt><trkpt lat="46.1229167" lon="13.4137393"><ele>201.2</ele><time>2026-05-02T13:50:17.472Z</time></trkpt><trkpt lat="46.1229812" lon="13.4136333"><ele>198.8</ele><time>2026-05-02T13:50:19.47Z</time></trkpt><trkpt lat="46.123065" lon="13.4135"><ele>196.39999999999998</ele><time>2026-05-02T13:50:21.471Z</time></trkpt><trkpt lat="46.1231028" lon="13.4134222"><ele>194.0</ele><time>2026-05-02T13:50:22.472Z</time></trkpt><trkpt lat="46.1231833" lon="13.4133023"><ele>195.2</ele><time>2026-05-02T13:50:24.474Z</time></trkpt><trkpt lat="46.1233027" lon="13.4132315"><ele>196.39999999999998</ele><time>2026-05-02T13:50:26.471Z</time></trkpt><trkpt lat="46.1233692" lon="13.4131842"><ele>197.6</ele><time>2026-05-02T13:50:27.47Z</time></trkpt><trkpt lat="46.1234257" lon="13.4131287"><ele>198.8</ele><time>2026-05-02T13:50:28.47Z</time></trkpt><trkpt lat="46.1234775" lon="13.4130682"><ele>200.0</ele><time>2026-05-02T13:50:29.47Z</time></trkpt><trkpt lat="46.1235647" lon="13.4129407"><ele>200.0</ele><time>2026-05-02T13:50:31.469Z</time></trkpt><trkpt lat="46.123622" lon="13.4128095"><ele>200.0</ele><time>2026-05-02T13:50:33.469Z</time></trkpt><trkpt lat="46.1235712" lon="13.4125492"><ele>200.0</ele><time>2026-05-02T13:50:37.466Z</time></trkpt><trkpt lat="46.1235338" lon="13.4124672"><ele>200.0</ele><time>2026-05-02T13:50:38.468Z</time></trkpt><trkpt lat="46.123499" lon="13.4123857"><ele>200.0</ele><time>2026-05-02T13:50:39.469Z</time></trkpt><trkpt lat="46.123455" lon="13.4122853"><ele>200.0</ele><time>2026-05-02T13:50:41.469Z</time></trkpt><trkpt lat="46.1234467" lon="13.412163"><ele>200.0</ele><time>2026-05-02T13:50:44.473Z</time></trkpt><trkpt lat="46.1234818" lon="13.412058"><ele>200.0</ele><time>2026-05-02T13:50:46.47Z</time></trkpt><trkpt lat="46.1235073" lon="13.4118857"><ele>200.0</ele><time>2026-05-02T13:50:48.469Z</time></trkpt><trkpt lat="46.1235505" lon="13.4117212"><ele>200.0</ele><time>2026-05-02T13:50:50.469Z</time></trkpt><trkpt lat="46.1235862" lon="13.41164"><ele>199.4</ele><time>2026-05-02T13:50:51.47Z</time></trkpt><trkpt lat="46.1236352" lon="13.411562"><ele>198.8</ele><time>2026-05-02T13:50:52.47Z</time></trkpt><trkpt lat="46.1236982" lon="13.4114933"><ele>198.2</ele><time>2026-05-02T13:50:53.47Z</time></trkpt><trkpt lat="46.1237708" lon="13.411436"><ele>197.6</ele><time>2026-05-02T13:50:54.47Z</time></trkpt><trkpt lat="46.123928" lon="13.4113585"><ele>197.0</ele><time>2026-05-02T13:50:56.47Z</time></trkpt><trkpt lat="46.1240117" lon="13.4113303"><ele>199.00000000000003</ele><time>2026-05-02T13:50:57.47Z</time></trkpt><trkpt lat="46.1240917" lon="13.411305"><ele>201.0</ele><time>2026-05-02T13:50:58.469Z</time></trkpt><trkpt lat="46.1241708" lon="13.4113032"><ele>203.0</ele><time>2026-05-02T13:50:59.468Z</time></trkpt><trkpt lat="46.1242423" lon="13.4113077"><ele>205.0</ele><time>2026-05-02T13:51:00.468Z</time></trkpt><trkpt lat="46.1243123" lon="13.41133"><ele>207.00000000000003</ele><time>2026-05-02T13:51:01.468Z</time></trkpt><trkpt lat="46.1243928" lon="13.411381"><ele>209.0</ele><time>2026-05-02T13:51:03.47Z</time></trkpt><trkpt lat="46.1244437" lon="13.411442"><ele>209.0</ele><time>2026-05-02T13:51:06.469Z</time></trkpt><trkpt lat="46.1244645" lon="13.4113533"><ele>209.0</ele><time>2026-05-02T13:51:10.469Z</time></trkpt><trkpt lat="46.124378" lon="13.4113233"><ele>209.0</ele><time>2026-05-02T13:51:13.47Z</time></trkpt><trkpt lat="46.1242855" lon="13.4113007"><ele>209.0</ele><time>2026-05-02T13:51:15.471Z</time></trkpt><trkpt lat="46.1241095" lon="13.4112705"><ele>209.0</ele><time>2026-05-02T13:51:18.47Z</time></trkpt><trkpt lat="46.1239767" lon="13.4112922"><ele>207.28571428571428</ele><time>2026-05-02T13:51:20.471Z</time></trkpt><trkpt lat="46.1239045" lon="13.4113147"><ele>205.57142857142856</ele><time>2026-05-02T13:51:21.47Z</time></trkpt><trkpt lat="46.1238338" lon="13.4113438"><ele>203.85714285714286</ele><time>2026-05-02T13:51:22.47Z</time></trkpt><trkpt lat="46.1237618" lon="13.4113792"><ele>202.14285714285714</ele><time>2026-05-02T13:51:23.468Z</time></trkpt><trkpt lat="46.123698" lon="13.4114287"><ele>200.42857142857144</ele><time>2026-05-02T13:51:24.47Z</time></trkpt><trkpt lat="46.1236408" lon="13.4114925"><ele>198.71428571428572</ele><time>2026-05-02T13:51:25.468Z</time></trkpt><trkpt lat="46.123592" lon="13.4115577"><ele>197.0</ele><time>2026-05-02T13:51:26.468Z</time></trkpt><trkpt lat="46.1235245" lon="13.4117023"><ele>197.00000000000003</ele><time>2026-05-02T13:51:28.47Z</time></trkpt><trkpt lat="46.1235008" lon="13.4117877"><ele>197.0</ele><time>2026-05-02T13:51:29.47Z</time></trkpt><trkpt lat="46.1234802" lon="13.41188"><ele>197.0</ele><time>2026-05-02T13:51:30.47Z</time></trkpt><trkpt lat="46.1234527" lon="13.4120297"><ele>197.0</ele><time>2026-05-02T13:51:32.47Z</time></trkpt><trkpt lat="46.1233877" lon="13.412105"><ele>197.00000000000003</ele><time>2026-05-02T13:51:34.47Z</time></trkpt><trkpt lat="46.123324" lon="13.4120545"><ele>197.0</ele><time>2026-05-02T13:51:36.47Z</time></trkpt><trkpt lat="46.1232325" lon="13.411904"><ele>193.33333333333334</ele><time>2026-05-02T13:51:38.47Z</time></trkpt><trkpt lat="46.1231763" lon="13.4118333"><ele>189.66666666666669</ele><time>2026-05-02T13:51:39.47Z</time></trkpt><trkpt lat="46.1231082" lon="13.411789"><ele>186.0</ele><time>2026-05-02T13:51:40.47Z</time></trkpt><trkpt lat="46.1230272" lon="13.4117575"><ele>182.33333333333334</ele><time>2026-05-02T13:51:41.47Z</time></trkpt><trkpt lat="46.1229383" lon="13.4117385"><ele>178.66666666666669</ele><time>2026-05-02T13:51:42.471Z</time></trkpt><trkpt lat="46.1228472" lon="13.4117163"><ele>175.0</ele><time>2026-05-02T13:51:43.47Z</time></trkpt><trkpt lat="46.1227498" lon="13.4116805"><ele>175.0</ele><time>2026-05-02T13:51:44.47Z</time></trkpt><trkpt lat="46.122649" lon="13.4116283"><ele>175.0</ele><time>2026-05-02T13:51:45.471Z</time></trkpt><trkpt lat="46.122544" lon="13.4115635"><ele>175.0</ele><time>2026-05-02T13:51:46.471Z</time></trkpt><trkpt lat="46.1224392" lon="13.4114835"><ele>175.0</ele><time>2026-05-02T13:51:47.469Z</time></trkpt><trkpt lat="46.1223368" lon="13.4113865"><ele>171.5</ele><time>2026-05-02T13:51:48.47Z</time></trkpt><trkpt lat="46.1222332" lon="13.4112862"><ele>168.0</ele><time>2026-05-02T13:51:49.469Z</time></trkpt><trkpt lat="46.1221303" lon="13.4111825"><ele>164.5</ele><time>2026-05-02T13:51:50.469Z</time></trkpt><trkpt lat="46.1220297" lon="13.4110712"><ele>161.0</ele><time>2026-05-02T13:51:51.47Z</time></trkpt><trkpt lat="46.1219322" lon="13.4109555"><ele>161.0</ele><time>2026-05-02T13:51:52.471Z</time></trkpt><trkpt lat="46.121835" lon="13.4108412"><ele>161.0</ele><time>2026-05-02T13:51:53.471Z</time></trkpt><trkpt lat="46.1217175" lon="13.4107112"><ele>161.0</ele><time>2026-05-02T13:51:54.671Z</time></trkpt><trkpt lat="46.1216102" lon="13.4106093"><ele>161.0</ele><time>2026-05-02T13:51:55.671Z</time></trkpt><trkpt lat="46.1213885" lon="13.41044"><ele>161.0</ele><time>2026-05-02T13:51:57.473Z</time></trkpt><trkpt lat="46.1211302" lon="13.4102592"><ele>161.0</ele><time>2026-05-02T13:51:59.472Z</time></trkpt><trkpt lat="46.1210218" lon="13.4101862"><ele>161.0</ele><time>2026-05-02T13:52:00.471Z</time></trkpt><trkpt lat="46.1209303" lon="13.4101188"><ele>161.0</ele><time>2026-05-02T13:52:01.471Z</time></trkpt><trkpt lat="46.1208503" lon="13.4100382"><ele>161.0</ele><time>2026-05-02T13:52:02.471Z</time></trkpt><trkpt lat="46.1207753" lon="13.4099403"><ele>161.0</ele><time>2026-05-02T13:52:03.471Z</time></trkpt><trkpt lat="46.1207015" lon="13.4098178"><ele>161.0</ele><time>2026-05-02T13:52:04.471Z</time></trkpt><trkpt lat="46.1206283" lon="13.4096968"><ele>161.0</ele><time>2026-05-02T13:52:05.471Z</time></trkpt><trkpt lat="46.1205773" lon="13.4095773"><ele>160.4</ele><time>2026-05-02T13:52:06.473Z</time></trkpt><trkpt lat="46.1205458" lon="13.409435"><ele>159.8</ele><time>2026-05-02T13:52:07.471Z</time></trkpt><trkpt lat="46.1205202" lon="13.4092675"><ele>159.20000000000002</ele><time>2026-05-02T13:52:08.472Z</time></trkpt><trkpt lat="46.1204773" lon="13.4091103"><ele>158.60000000000002</ele><time>2026-05-02T13:52:09.473Z</time></trkpt><trkpt lat="46.120425" lon="13.4089835"><ele>158.0</ele><time>2026-05-02T13:52:10.474Z</time></trkpt><trkpt lat="46.1203677" lon="13.4088905"><ele>158.0</ele><time>2026-05-02T13:52:11.473Z</time></trkpt><trkpt lat="46.1203043" lon="13.4088278"><ele>158.0</ele><time>2026-05-02T13:52:12.472Z</time></trkpt><trkpt lat="46.1202337" lon="13.4087778"><ele>158.0</ele><time>2026-05-02T13:52:13.47Z</time></trkpt><trkpt lat="46.1201655" lon="13.4087395"><ele>158.0</ele><time>2026-05-02T13:52:14.47Z</time></trkpt><trkpt lat="46.1200573" lon="13.4086938"><ele>158.0</ele><time>2026-05-02T13:52:16.472Z</time></trkpt><trkpt lat="46.1199562" lon="13.4086707"><ele>158.0</ele><time>2026-05-02T13:52:18.473Z</time></trkpt><trkpt lat="46.11983" lon="13.4087252"><ele>156.83333333333331</ele><time>2026-05-02T13:52:20.472Z</time></trkpt><trkpt lat="46.1197638" lon="13.4087745"><ele>155.66666666666666</ele><time>2026-05-02T13:52:21.472Z</time></trkpt><trkpt lat="46.1196935" lon="13.4088297"><ele>154.5</ele><time>2026-05-02T13:52:22.471Z</time></trkpt><trkpt lat="46.1196197" lon="13.4088853"><ele>153.33333333333334</ele><time>2026-05-02T13:52:23.472Z</time></trkpt><trkpt lat="46.1195468" lon="13.4089423"><ele>152.16666666666669</ele><time>2026-05-02T13:52:24.473Z</time></trkpt><trkpt lat="46.119481" lon="13.4089985"><ele>151.0</ele><time>2026-05-02T13:52:25.473Z</time></trkpt><trkpt lat="46.1194213" lon="13.4090525"><ele>151.0</ele><time>2026-05-02T13:52:26.473Z</time></trkpt><trkpt lat="46.119366" lon="13.4091017"><ele>151.0</ele><time>2026-05-02T13:52:27.473Z</time></trkpt><trkpt lat="46.1192687" lon="13.409175"><ele>151.0</ele><time>2026-05-02T13:52:29.472Z</time></trkpt><trkpt lat="46.1191968" lon="13.4092275"><ele>151.0</ele><time>2026-05-02T13:52:31.472Z</time></trkpt><trkpt lat="46.1191317" lon="13.4092957"><ele>151.0</ele><time>2026-05-02T13:52:34.471Z</time></trkpt><trkpt lat="46.1191247" lon="13.4093967"><ele>151.0</ele><time>2026-05-02T13:52:36.473Z</time></trkpt><trkpt lat="46.1191663" lon="13.4095868"><ele>152.25</ele><time>2026-05-02T13:52:38.469Z</time></trkpt><trkpt lat="46.1191845" lon="13.4097142"><ele>153.5</ele><time>2026-05-02T13:52:39.469Z</time></trkpt><trkpt lat="46.1191837" lon="13.4099887"><ele>154.75</ele><time>2026-05-02T13:52:41.473Z</time></trkpt><trkpt lat="46.1191653" lon="13.4101392"><ele>156.0</ele><time>2026-05-02T13:52:42.473Z</time></trkpt><trkpt lat="46.1191418" lon="13.410296"><ele>156.0</ele><time>2026-05-02T13:52:43.474Z</time></trkpt><trkpt lat="46.1191207" lon="13.4104545"><ele>156.0</ele><time>2026-05-02T13:52:44.472Z</time></trkpt><trkpt lat="46.1191065" lon="13.4106162"><ele>156.0</ele><time>2026-05-02T13:52:45.472Z</time></trkpt><trkpt lat="46.1190992" lon="13.4107842"><ele>156.0</ele><time>2026-05-02T13:52:46.473Z</time></trkpt><trkpt lat="46.1190983" lon="13.410959"><ele>154.5</ele><time>2026-05-02T13:52:47.472Z</time></trkpt><trkpt lat="46.1191038" lon="13.4111385"><ele>153.0</ele><time>2026-05-02T13:52:48.473Z</time></trkpt><trkpt lat="46.1191182" lon="13.4113195"><ele>151.5</ele><time>2026-05-02T13:52:49.473Z</time></trkpt><trkpt lat="46.119142" lon="13.4114997"><ele>150.0</ele><time>2026-05-02T13:52:50.472Z</time></trkpt><trkpt lat="46.1191732" lon="13.4116782"><ele>149.75</ele><time>2026-05-02T13:52:51.473Z</time></trkpt><trkpt lat="46.1192048" lon="13.411857"><ele>149.5</ele><time>2026-05-02T13:52:52.472Z</time></trkpt><trkpt lat="46.1192365" lon="13.4120367"><ele>149.25</ele><time>2026-05-02T13:52:53.474Z</time></trkpt><trkpt lat="46.1192685" lon="13.4122173"><ele>149.0</ele><time>2026-05-02T13:52:54.473Z</time></trkpt><trkpt lat="46.119301" lon="13.412401"><ele>149.0</ele><time>2026-05-02T13:52:55.472Z</time></trkpt><trkpt lat="46.119333" lon="13.4125877"><ele>149.0</ele><time>2026-05-02T13:52:56.472Z</time></trkpt><trkpt lat="46.119364" lon="13.4127778"><ele>149.0</ele><time>2026-05-02T13:52:57.472Z</time></trkpt><trkpt lat="46.1193853" lon="13.4129702"><ele>149.0</ele><time>2026-05-02T13:52:58.47Z</time></trkpt><trkpt lat="46.119395" lon="13.4131652"><ele>148.0</ele><time>2026-05-02T13:52:59.472Z</time></trkpt><trkpt lat="46.119398" lon="13.4133627"><ele>147.0</ele><time>2026-05-02T13:53:00.471Z</time></trkpt><trkpt lat="46.1194168" lon="13.4137545"><ele>146.0</ele><time>2026-05-02T13:53:02.469Z</time></trkpt><trkpt lat="46.1194338" lon="13.4139457"><ele>146.0</ele><time>2026-05-02T13:53:03.469Z</time></trkpt><trkpt lat="46.1194538" lon="13.4141337"><ele>146.0</ele><time>2026-05-02T13:53:04.469Z</time></trkpt><trkpt lat="46.1194768" lon="13.414319"><ele>146.0</ele><time>2026-05-02T13:53:05.472Z</time></trkpt><trkpt lat="46.1195013" lon="13.4145023"><ele>146.0</ele><time>2026-05-02T13:53:06.472Z</time></trkpt><trkpt lat="46.1195247" lon="13.414687"><ele>146.0</ele><time>2026-05-02T13:53:07.474Z</time></trkpt><trkpt lat="46.1195458" lon="13.4148723"><ele>146.0</ele><time>2026-05-02T13:53:08.473Z</time></trkpt><trkpt lat="46.1195648" lon="13.4150613"><ele>146.0</ele><time>2026-05-02T13:53:09.473Z</time></trkpt><trkpt lat="46.1195832" lon="13.4152542"><ele>146.0</ele><time>2026-05-02T13:53:10.473Z</time></trkpt><trkpt lat="46.119604" lon="13.415451"><ele>146.25</ele><time>2026-05-02T13:53:11.474Z</time></trkpt><trkpt lat="46.1196307" lon="13.4156457"><ele>146.5</ele><time>2026-05-02T13:53:12.474Z</time></trkpt><trkpt lat="46.1196635" lon="13.4158397"><ele>146.75</ele><time>2026-05-02T13:53:13.472Z</time></trkpt><trkpt lat="46.1197022" lon="13.4160367"><ele>147.0</ele><time>2026-05-02T13:53:14.473Z</time></trkpt><trkpt lat="46.1197485" lon="13.4162348"><ele>147.66666666666666</ele><time>2026-05-02T13:53:15.481Z</time></trkpt><trkpt lat="46.1198" lon="13.4164348"><ele>148.33333333333331</ele><time>2026-05-02T13:53:16.472Z</time></trkpt><trkpt lat="46.1198542" lon="13.4166375"><ele>149.0</ele><time>2026-05-02T13:53:17.475Z</time></trkpt><trkpt lat="46.1199093" lon="13.416841"><ele>149.0</ele><time>2026-05-02T13:53:18.473Z</time></trkpt><trkpt lat="46.119964" lon="13.4170442"><ele>149.0</ele><time>2026-05-02T13:53:19.473Z</time></trkpt><trkpt lat="46.1200153" lon="13.4172493"><ele>149.0</ele><time>2026-05-02T13:53:20.473Z</time></trkpt><trkpt lat="46.1200637" lon="13.4174553"><ele>149.0</ele><time>2026-05-02T13:53:21.474Z</time></trkpt><trkpt lat="46.1201543" lon="13.4178458"><ele>149.0</ele><time>2026-05-02T13:53:23.472Z</time></trkpt><trkpt lat="46.1201937" lon="13.4180158"><ele>149.0</ele><time>2026-05-02T13:53:24.473Z</time></trkpt><trkpt lat="46.1202305" lon="13.4181725"><ele>149.5</ele><time>2026-05-02T13:53:25.471Z</time></trkpt><trkpt lat="46.1202663" lon="13.4183272"><ele>150.0</ele><time>2026-05-02T13:53:26.471Z</time></trkpt><trkpt lat="46.1202992" lon="13.4184893"><ele>150.5</ele><time>2026-05-02T13:53:27.471Z</time></trkpt><trkpt lat="46.120331" lon="13.4186497"><ele>151.0</ele><time>2026-05-02T13:53:28.469Z</time></trkpt><trkpt lat="46.1203632" lon="13.4188047"><ele>151.8</ele><time>2026-05-02T13:53:29.471Z</time></trkpt><trkpt lat="46.1203983" lon="13.4189607"><ele>152.6</ele><time>2026-05-02T13:53:30.471Z</time></trkpt><trkpt lat="46.1204275" lon="13.4191123"><ele>153.4</ele><time>2026-05-02T13:53:31.47Z</time></trkpt><trkpt lat="46.1204453" lon="13.4192578"><ele>154.2</ele><time>2026-05-02T13:53:32.469Z</time></trkpt><trkpt lat="46.1204508" lon="13.4194023"><ele>155.0</ele><time>2026-05-02T13:53:33.468Z</time></trkpt><trkpt lat="46.1204387" lon="13.4195373"><ele>155.0</ele><time>2026-05-02T13:53:34.469Z</time></trkpt><trkpt lat="46.120421" lon="13.4196697"><ele>155.0</ele><time>2026-05-02T13:53:35.469Z</time></trkpt><trkpt lat="46.1204288" lon="13.4197913"><ele>155.0</ele><time>2026-05-02T13:53:36.469Z</time></trkpt><trkpt lat="46.1204243" lon="13.4199268"><ele>155.0</ele><time>2026-05-02T13:53:37.471Z</time></trkpt><trkpt lat="46.1203915" lon="13.4200547"><ele>155.0</ele><time>2026-05-02T13:53:38.471Z</time></trkpt><trkpt lat="46.1203457" lon="13.4201802"><ele>155.0</ele><time>2026-05-02T13:53:39.473Z</time></trkpt><trkpt lat="46.120292" lon="13.4203045"><ele>155.0</ele><time>2026-05-02T13:53:40.472Z</time></trkpt><trkpt lat="46.1202353" lon="13.4204293"><ele>155.0</ele><time>2026-05-02T13:53:41.47Z</time></trkpt><trkpt lat="46.1201772" lon="13.420553"><ele>155.0</ele><time>2026-05-02T13:53:42.472Z</time></trkpt><trkpt lat="46.1200655" lon="13.4207997"><ele>155.0</ele><time>2026-05-02T13:53:44.47Z</time></trkpt><trkpt lat="46.1200157" lon="13.4209182"><ele>155.0</ele><time>2026-05-02T13:53:45.471Z</time></trkpt><trkpt lat="46.1199363" lon="13.4211008"><ele>155.0</ele><time>2026-05-02T13:53:47.472Z</time></trkpt><trkpt lat="46.1198958" lon="13.421196"><ele>155.0</ele><time>2026-05-02T13:53:49.471Z</time></trkpt><trkpt lat="46.1198638" lon="13.42128"><ele>155.0</ele><time>2026-05-02T13:53:52.469Z</time></trkpt><trkpt lat="46.1198843" lon="13.4213915"><ele>155.0</ele><time>2026-05-02T13:53:54.472Z</time></trkpt><trkpt lat="46.1199597" lon="13.421529"><ele>155.0</ele><time>2026-05-02T13:53:56.471Z</time></trkpt><trkpt lat="46.120031" lon="13.4216432"><ele>155.0</ele><time>2026-05-02T13:53:58.472Z</time></trkpt><trkpt lat="46.1200645" lon="13.4217235"><ele>155.0</ele><time>2026-05-02T13:54:00.473Z</time></trkpt><trkpt lat="46.1200648" lon="13.4218342"><ele>155.0</ele><time>2026-05-02T13:54:03.474Z</time></trkpt><trkpt lat="46.1199205" lon="13.4216748"><ele>154.4</ele><time>2026-05-02T13:54:08.472Z</time></trkpt><trkpt lat="46.1198332" lon="13.4215793"><ele>153.8</ele><time>2026-05-02T13:54:10.47Z</time></trkpt><trkpt lat="46.1197498" lon="13.4215558"><ele>153.2</ele><time>2026-05-02T13:54:12.472Z</time></trkpt><trkpt lat="46.119677" lon="13.4216103"><ele>152.6</ele><time>2026-05-02T13:54:14.471Z</time></trkpt><trkpt lat="46.119615" lon="13.4217082"><ele>152.0</ele><time>2026-05-02T13:54:16.471Z</time></trkpt><trkpt lat="46.1195512" lon="13.4218162"><ele>152.0</ele><time>2026-05-02T13:54:18.471Z</time></trkpt><trkpt lat="46.1195042" lon="13.42201"><ele>152.0</ele><time>2026-05-02T13:54:21.473Z</time></trkpt><trkpt lat="46.1195393" lon="13.4220998"><ele>152.0</ele><time>2026-05-02T13:54:23.472Z</time></trkpt><trkpt lat="46.1196415" lon="13.4221722"><ele>152.0</ele><time>2026-05-02T13:54:25.471Z</time></trkpt><trkpt lat="46.1197792" lon="13.4222848"><ele>151.83333333333331</ele><time>2026-05-02T13:54:27.473Z</time></trkpt><trkpt lat="46.1198395" lon="13.4223575"><ele>151.66666666666666</ele><time>2026-05-02T13:54:28.473Z</time></trkpt><trkpt lat="46.1198933" lon="13.4224405"><ele>151.5</ele><time>2026-05-02T13:54:29.474Z</time></trkpt><trkpt lat="46.1199453" lon="13.4225402"><ele>151.33333333333334</ele><time>2026-05-02T13:54:30.473Z</time></trkpt><trkpt lat="46.1199913" lon="13.42265"><ele>151.16666666666669</ele><time>2026-05-02T13:54:31.476Z</time></trkpt><trkpt lat="46.1200318" lon="13.422772"><ele>151.0</ele><time>2026-05-02T13:54:32.474Z</time></trkpt><trkpt lat="46.1200587" lon="13.4228872"><ele>151.16666666666669</ele><time>2026-05-02T13:54:33.472Z</time></trkpt><trkpt lat="46.1200687" lon="13.4229945"><ele>151.33333333333334</ele><time>2026-05-02T13:54:34.472Z</time></trkpt><trkpt lat="46.1200603" lon="13.4230947"><ele>151.5</ele><time>2026-05-02T13:54:35.471Z</time></trkpt><trkpt lat="46.120035" lon="13.423182"><ele>151.66666666666666</ele><time>2026-05-02T13:54:36.472Z</time></trkpt><trkpt lat="46.119986" lon="13.4232567"><ele>151.83333333333331</ele><time>2026-05-02T13:54:37.473Z</time></trkpt><trkpt lat="46.1199168" lon="13.423327"><ele>152.0</ele><time>2026-05-02T13:54:38.472Z</time></trkpt><trkpt lat="46.1198398" lon="13.4233957"><ele>152.0</ele><time>2026-05-02T13:54:39.472Z</time></trkpt><trkpt lat="46.1197708" lon="13.4234618"><ele>152.0</ele><time>2026-05-02T13:54:40.471Z</time></trkpt><trkpt lat="46.1197203" lon="13.4235332"><ele>152.0</ele><time>2026-05-02T13:54:41.474Z</time></trkpt><trkpt lat="46.1196745" lon="13.423705"><ele>152.0</ele><time>2026-05-02T13:54:43.473Z</time></trkpt><trkpt lat="46.1196695" lon="13.4238273"><ele>152.0</ele><time>2026-05-02T13:54:44.473Z</time></trkpt><trkpt lat="46.1196672" lon="13.4239707"><ele>152.66666666666666</ele><time>2026-05-02T13:54:45.474Z</time></trkpt><trkpt lat="46.119667" lon="13.4241303"><ele>153.33333333333334</ele><time>2026-05-02T13:54:46.472Z</time></trkpt><trkpt lat="46.1196643" lon="13.4244758"><ele>154.0</ele><time>2026-05-02T13:54:48.473Z</time></trkpt><trkpt lat="46.1196498" lon="13.424656"><ele>154.25</ele><time>2026-05-02T13:54:49.472Z</time></trkpt><trkpt lat="46.1196217" lon="13.4248393"><ele>154.5</ele><time>2026-05-02T13:54:50.473Z</time></trkpt><trkpt lat="46.1195895" lon="13.4250103"><ele>154.75</ele><time>2026-05-02T13:54:51.472Z</time></trkpt><trkpt lat="46.1195593" lon="13.4251642"><ele>155.0</ele><time>2026-05-02T13:54:52.473Z</time></trkpt><trkpt lat="46.1195337" lon="13.4253057"><ele>155.0</ele><time>2026-05-02T13:54:53.473Z</time></trkpt><trkpt lat="46.1195123" lon="13.4254332"><ele>155.0</ele><time>2026-05-02T13:54:54.473Z</time></trkpt><trkpt lat="46.1194892" lon="13.4255362"><ele>155.0</ele><time>2026-05-02T13:54:55.473Z</time></trkpt><trkpt lat="46.1194032" lon="13.4256625"><ele>155.0</ele><time>2026-05-02T13:54:57.473Z</time></trkpt><trkpt lat="46.11934" lon="13.425704"><ele>155.0</ele><time>2026-05-02T13:54:58.473Z</time></trkpt><trkpt lat="46.1192838" lon="13.4257455"><ele>155.0</ele><time>2026-05-02T13:54:59.473Z</time></trkpt><trkpt lat="46.1192463" lon="13.4258715"><ele>155.2</ele><time>2026-05-02T13:55:01.472Z</time></trkpt><trkpt lat="46.1192605" lon="13.4259625"><ele>155.4</ele><time>2026-05-02T13:55:02.473Z</time></trkpt><trkpt lat="46.1192922" lon="13.426069"><ele>155.6</ele><time>2026-05-02T13:55:03.472Z</time></trkpt><trkpt lat="46.1193458" lon="13.4261903"><ele>155.8</ele><time>2026-05-02T13:55:04.471Z</time></trkpt><trkpt lat="46.1194157" lon="13.4263225"><ele>156.0</ele><time>2026-05-02T13:55:05.47Z</time></trkpt><trkpt lat="46.1194945" lon="13.4264625"><ele>156.0</ele><time>2026-05-02T13:55:06.471Z</time></trkpt><trkpt lat="46.1195815" lon="13.4266038"><ele>156.0</ele><time>2026-05-02T13:55:07.472Z</time></trkpt><trkpt lat="46.1198587" lon="13.4270272"><ele>156.5</ele><time>2026-05-02T13:55:10.472Z</time></trkpt><trkpt lat="46.1199538" lon="13.427171"><ele>157.0</ele><time>2026-05-02T13:55:11.473Z</time></trkpt><trkpt lat="46.12005" lon="13.4273178"><ele>157.5</ele><time>2026-05-02T13:55:12.473Z</time></trkpt><trkpt lat="46.1201457" lon="13.4274657"><ele>158.0</ele><time>2026-05-02T13:55:13.476Z</time></trkpt><trkpt lat="46.1202393" lon="13.4276153"><ele>158.0</ele><time>2026-05-02T13:55:14.473Z</time></trkpt><trkpt lat="46.1203288" lon="13.427765"><ele>158.0</ele><time>2026-05-02T13:55:15.475Z</time></trkpt><trkpt lat="46.1204088" lon="13.4279038"><ele>158.0</ele><time>2026-05-02T13:55:16.475Z</time></trkpt><trkpt lat="46.1204785" lon="13.4280273"><ele>158.0</ele><time>2026-05-02T13:55:17.473Z</time></trkpt><trkpt lat="46.1205403" lon="13.4281245"><ele>158.0</ele><time>2026-05-02T13:55:18.473Z</time></trkpt><trkpt lat="46.1205952" lon="13.4281897"><ele>158.0</ele><time>2026-05-02T13:55:19.472Z</time></trkpt><trkpt lat="46.1207155" lon="13.4282223"><ele>158.0</ele><time>2026-05-02T13:55:21.473Z</time></trkpt><trkpt lat="46.1207923" lon="13.428195"><ele>158.0</ele><time>2026-05-02T13:55:22.473Z</time></trkpt><trkpt lat="46.1208827" lon="13.4281638"><ele>158.0</ele><time>2026-05-02T13:55:23.473Z</time></trkpt><trkpt lat="46.121119" lon="13.4281553"><ele>158.75</ele><time>2026-05-02T13:55:25.473Z</time></trkpt><trkpt lat="46.1212548" lon="13.4281637"><ele>159.5</ele><time>2026-05-02T13:55:26.473Z</time></trkpt><trkpt lat="46.1213953" lon="13.4281662"><ele>160.25</ele><time>2026-05-02T13:55:27.473Z</time></trkpt><trkpt lat="46.1215358" lon="13.4281623"><ele>161.0</ele><time>2026-05-02T13:55:28.47Z</time></trkpt><trkpt lat="46.121798" lon="13.4281547"><ele>161.0</ele><time>2026-05-02T13:55:30.473Z</time></trkpt><trkpt lat="46.1219112" lon="13.4281622"><ele>161.0</ele><time>2026-05-02T13:55:31.47Z</time></trkpt><trkpt lat="46.1220238" lon="13.4281808"><ele>161.0</ele><time>2026-05-02T13:55:32.473Z</time></trkpt><trkpt lat="46.122137" lon="13.4282125"><ele>161.0</ele><time>2026-05-02T13:55:33.474Z</time></trkpt><trkpt lat="46.1222495" lon="13.4282503"><ele>161.0</ele><time>2026-05-02T13:55:34.474Z</time></trkpt><trkpt lat="46.1223528" lon="13.4282843"><ele>161.0</ele><time>2026-05-02T13:55:35.473Z</time></trkpt><trkpt lat="46.122444" lon="13.4283217"><ele>161.0</ele><time>2026-05-02T13:55:36.473Z</time></trkpt><trkpt lat="46.1225282" lon="13.4283872"><ele>161.0</ele><time>2026-05-02T13:55:37.473Z</time></trkpt><trkpt lat="46.122611" lon="13.428486"><ele>161.0</ele><time>2026-05-02T13:55:38.473Z</time></trkpt><trkpt lat="46.1226955" lon="13.4286053"><ele>161.0</ele><time>2026-05-02T13:55:39.474Z</time></trkpt><trkpt lat="46.1227837" lon="13.4287357"><ele>161.0</ele><time>2026-05-02T13:55:40.473Z</time></trkpt><trkpt lat="46.122873" lon="13.4288727"><ele>161.0</ele><time>2026-05-02T13:55:41.474Z</time></trkpt><trkpt lat="46.1229622" lon="13.4290162"><ele>161.0</ele><time>2026-05-02T13:55:42.475Z</time></trkpt><trkpt lat="46.1230563" lon="13.4291622"><ele>161.25</ele><time>2026-05-02T13:55:43.475Z</time></trkpt><trkpt lat="46.123161" lon="13.4293023"><ele>161.5</ele><time>2026-05-02T13:55:44.475Z</time></trkpt><trkpt lat="46.1232697" lon="13.4294307"><ele>161.75</ele><time>2026-05-02T13:55:45.476Z</time></trkpt><trkpt lat="46.1233702" lon="13.4295587"><ele>162.0</ele><time>2026-05-02T13:55:46.475Z</time></trkpt><trkpt lat="46.1234622" lon="13.4296938"><ele>163.33333333333334</ele><time>2026-05-02T13:55:47.473Z</time></trkpt><trkpt lat="46.1235517" lon="13.4298183"><ele>164.66666666666669</ele><time>2026-05-02T13:55:48.475Z</time></trkpt><trkpt lat="46.1236493" lon="13.4299178"><ele>166.0</ele><time>2026-05-02T13:55:49.473Z</time></trkpt><trkpt lat="46.1238843" lon="13.4300292"><ele>166.0</ele><time>2026-05-02T13:55:51.474Z</time></trkpt><trkpt lat="46.124011" lon="13.4300418"><ele>166.0</ele><time>2026-05-02T13:55:52.472Z</time></trkpt><trkpt lat="46.1241285" lon="13.4300255"><ele>166.0</ele><time>2026-05-02T13:55:53.471Z</time></trkpt><trkpt lat="46.1242338" lon="13.4299798"><ele>166.0</ele><time>2026-05-02T13:55:54.472Z</time></trkpt><trkpt lat="46.1243298" lon="13.4299032"><ele>166.20000000000002</ele><time>2026-05-02T13:55:55.472Z</time></trkpt><trkpt lat="46.1244205" lon="13.4297965"><ele>166.4</ele><time>2026-05-02T13:55:56.472Z</time></trkpt><trkpt lat="46.1245065" lon="13.4296795"><ele>166.6</ele><time>2026-05-02T13:55:57.477Z</time></trkpt><trkpt lat="46.124585" lon="13.4295737"><ele>166.8</ele><time>2026-05-02T13:55:58.473Z</time></trkpt><trkpt lat="46.1246577" lon="13.4294858"><ele>167.0</ele><time>2026-05-02T13:55:59.475Z</time></trkpt><trkpt lat="46.1247273" lon="13.4294233"><ele>167.0</ele><time>2026-05-02T13:56:00.473Z</time></trkpt><trkpt lat="46.1247967" lon="13.4294"><ele>167.0</ele><time>2026-05-02T13:56:01.473Z</time></trkpt><trkpt lat="46.1248613" lon="13.429427"><ele>167.0</ele><time>2026-05-02T13:56:02.473Z</time></trkpt><trkpt lat="46.124933" lon="13.4295022"><ele>167.0</ele><time>2026-05-02T13:56:03.474Z</time></trkpt><trkpt lat="46.1250127" lon="13.4296098"><ele>167.0</ele><time>2026-05-02T13:56:04.475Z</time></trkpt><trkpt lat="46.1250975" lon="13.42973"><ele>167.5</ele><time>2026-05-02T13:56:05.474Z</time></trkpt><trkpt lat="46.1251772" lon="13.429837"><ele>168.0</ele><time>2026-05-02T13:56:06.474Z</time></trkpt><trkpt lat="46.1252522" lon="13.4299222"><ele>168.5</ele><time>2026-05-02T13:56:07.473Z</time></trkpt><trkpt lat="46.1253158" lon="13.4299962"><ele>169.0</ele><time>2026-05-02T13:56:08.473Z</time></trkpt><trkpt lat="46.1253678" lon="13.430061"><ele>169.5</ele><time>2026-05-02T13:56:09.474Z</time></trkpt><trkpt lat="46.1254537" lon="13.4301133"><ele>170.0</ele><time>2026-05-02T13:56:11.474Z</time></trkpt><trkpt lat="46.1256505" lon="13.4298488"><ele>170.0</ele><time>2026-05-02T13:56:15.282Z</time></trkpt><trkpt lat="46.125726" lon="13.4297457"><ele>170.0</ele><time>2026-05-02T13:56:16.282Z</time></trkpt><trkpt lat="46.125813" lon="13.4296387"><ele>170.0</ele><time>2026-05-02T13:56:17.281Z</time></trkpt><trkpt lat="46.1259042" lon="13.4295432"><ele>170.0</ele><time>2026-05-02T13:56:18.281Z</time></trkpt><trkpt lat="46.1259902" lon="13.4294693"><ele>170.0</ele><time>2026-05-02T13:56:19.281Z</time></trkpt><trkpt lat="46.1260667" lon="13.4294143"><ele>170.2</ele><time>2026-05-02T13:56:20.281Z</time></trkpt><trkpt lat="46.1261322" lon="13.4293813"><ele>170.4</ele><time>2026-05-02T13:56:21.279Z</time></trkpt><trkpt lat="46.1262192" lon="13.4293765"><ele>170.60000000000002</ele><time>2026-05-02T13:56:22.674Z</time></trkpt><trkpt lat="46.1263287" lon="13.4294565"><ele>170.8</ele><time>2026-05-02T13:56:24.279Z</time></trkpt><trkpt lat="46.1264028" lon="13.4295488"><ele>171.0</ele><time>2026-05-02T13:56:25.281Z</time></trkpt><trkpt lat="46.1264878" lon="13.4296567"><ele>171.5</ele><time>2026-05-02T13:56:26.279Z</time></trkpt><trkpt lat="46.1265862" lon="13.4297627"><ele>172.0</ele><time>2026-05-02T13:56:27.278Z</time></trkpt><trkpt lat="46.1266973" lon="13.429865"><ele>172.5</ele><time>2026-05-02T13:56:28.276Z</time></trkpt><trkpt lat="46.1268177" lon="13.4299577"><ele>173.0</ele><time>2026-05-02T13:56:29.278Z</time></trkpt><trkpt lat="46.1269407" lon="13.430038"><ele>173.0</ele><time>2026-05-02T13:56:30.276Z</time></trkpt><trkpt lat="46.1270638" lon="13.4301288"><ele>173.0</ele><time>2026-05-02T13:56:31.28Z</time></trkpt><trkpt lat="46.127188" lon="13.43022"><ele>173.0</ele><time>2026-05-02T13:56:32.28Z</time></trkpt><trkpt lat="46.1274217" lon="13.4304218"><ele>173.75</ele><time>2026-05-02T13:56:34.279Z</time></trkpt><trkpt lat="46.12753" lon="13.4305408"><ele>174.5</ele><time>2026-05-02T13:56:35.28Z</time></trkpt><trkpt lat="46.1276325" lon="13.4306705"><ele>175.25</ele><time>2026-05-02T13:56:36.281Z</time></trkpt><trkpt lat="46.1277345" lon="13.4308002"><ele>176.0</ele><time>2026-05-02T13:56:37.282Z</time></trkpt><trkpt lat="46.127837" lon="13.430928"><ele>176.0</ele><time>2026-05-02T13:56:38.281Z</time></trkpt><trkpt lat="46.1279412" lon="13.4310565"><ele>176.0</ele><time>2026-05-02T13:56:39.281Z</time></trkpt><trkpt lat="46.128047" lon="13.4311882"><ele>176.0</ele><time>2026-05-02T13:56:40.284Z</time></trkpt><trkpt lat="46.1281557" lon="13.4313247"><ele>176.0</ele><time>2026-05-02T13:56:41.28Z</time></trkpt><trkpt lat="46.1282647" lon="13.4314653"><ele>176.33333333333331</ele><time>2026-05-02T13:56:42.282Z</time></trkpt><trkpt lat="46.1283773" lon="13.431608"><ele>176.66666666666666</ele><time>2026-05-02T13:56:43.281Z</time></trkpt><trkpt lat="46.1284923" lon="13.4317513"><ele>177.0</ele><time>2026-05-02T13:56:44.282Z</time></trkpt><trkpt lat="46.1286137" lon="13.4318893"><ele>177.0</ele><time>2026-05-02T13:56:45.28Z</time></trkpt><trkpt lat="46.1287422" lon="13.4320142"><ele>177.0</ele><time>2026-05-02T13:56:46.281Z</time></trkpt><trkpt lat="46.128882" lon="13.4321152"><ele>177.0</ele><time>2026-05-02T13:56:47.281Z</time></trkpt><trkpt lat="46.1290317" lon="13.432195"><ele>179.0</ele><time>2026-05-02T13:56:48.281Z</time></trkpt><trkpt lat="46.1291845" lon="13.4322627"><ele>181.0</ele><time>2026-05-02T13:56:49.28Z</time></trkpt><trkpt lat="46.1293373" lon="13.432332"><ele>183.0</ele><time>2026-05-02T13:56:50.279Z</time></trkpt><trkpt lat="46.1294868" lon="13.4324045"><ele>183.0</ele><time>2026-05-02T13:56:51.278Z</time></trkpt><trkpt lat="46.1296337" lon="13.4324737"><ele>183.0</ele><time>2026-05-02T13:56:52.278Z</time></trkpt><trkpt lat="46.1297797" lon="13.4325415"><ele>183.0</ele><time>2026-05-02T13:56:53.277Z</time></trkpt><trkpt lat="46.1300663" lon="13.4326763"><ele>183.0</ele><time>2026-05-02T13:56:55.278Z</time></trkpt><trkpt lat="46.1302075" lon="13.4327438"><ele>183.0</ele><time>2026-05-02T13:56:56.28Z</time></trkpt><trkpt lat="46.130348" lon="13.4328087"><ele>183.0</ele><time>2026-05-02T13:56:57.28Z</time></trkpt><trkpt lat="46.1305158" lon="13.4328853"><ele>183.0</ele><time>2026-05-02T13:56:58.473Z</time></trkpt><trkpt lat="46.1306512" lon="13.4329497"><ele>183.0</ele><time>2026-05-02T13:56:59.472Z</time></trkpt><trkpt lat="46.1307763" lon="13.4330293"><ele>183.0</ele><time>2026-05-02T13:57:00.472Z</time></trkpt><trkpt lat="46.1308998" lon="13.433126"><ele>183.0</ele><time>2026-05-02T13:57:01.472Z</time></trkpt><trkpt lat="46.1310205" lon="13.433228"><ele>185.0</ele><time>2026-05-02T13:57:02.47Z</time></trkpt><trkpt lat="46.1311448" lon="13.4333432"><ele>187.0</ele><time>2026-05-02T13:57:03.472Z</time></trkpt><trkpt lat="46.1312737" lon="13.4334622"><ele>189.0</ele><time>2026-05-02T13:57:04.472Z</time></trkpt><trkpt lat="46.1314027" lon="13.4335772"><ele>189.0</ele><time>2026-05-02T13:57:05.47Z</time></trkpt><trkpt lat="46.1315305" lon="13.433688"><ele>189.0</ele><time>2026-05-02T13:57:06.469Z</time></trkpt><trkpt lat="46.1316537" lon="13.433796"><ele>189.0</ele><time>2026-05-02T13:57:07.469Z</time></trkpt><trkpt lat="46.1317673" lon="13.4338952"><ele>189.0</ele><time>2026-05-02T13:57:08.469Z</time></trkpt><trkpt lat="46.1318732" lon="13.4339845"><ele>189.2</ele><time>2026-05-02T13:57:09.472Z</time></trkpt><trkpt lat="46.1319685" lon="13.4340672"><ele>189.39999999999998</ele><time>2026-05-02T13:57:10.472Z</time></trkpt><trkpt lat="46.132046" lon="13.4341403"><ele>189.6</ele><time>2026-05-02T13:57:11.471Z</time></trkpt><trkpt lat="46.1321153" lon="13.434231"><ele>189.8</ele><time>2026-05-02T13:57:12.472Z</time></trkpt><trkpt lat="46.1321713" lon="13.4343602"><ele>190.0</ele><time>2026-05-02T13:57:13.471Z</time></trkpt><trkpt lat="46.1322305" lon="13.4345067"><ele>190.0</ele><time>2026-05-02T13:57:14.47Z</time></trkpt><trkpt lat="46.1323598" lon="13.4348297"><ele>190.0</ele><time>2026-05-02T13:57:16.472Z</time></trkpt><trkpt lat="46.1324238" lon="13.4349868"><ele>190.0</ele><time>2026-05-02T13:57:17.471Z</time></trkpt><trkpt lat="46.1324913" lon="13.4351273"><ele>190.2</ele><time>2026-05-02T13:57:18.473Z</time></trkpt><trkpt lat="46.1325615" lon="13.4352448"><ele>190.4</ele><time>2026-05-02T13:57:19.472Z</time></trkpt><trkpt lat="46.132627" lon="13.4353373"><ele>190.60000000000002</ele><time>2026-05-02T13:57:20.472Z</time></trkpt><trkpt lat="46.1326822" lon="13.4354087"><ele>190.8</ele><time>2026-05-02T13:57:21.471Z</time></trkpt><trkpt lat="46.132745" lon="13.4355273"><ele>191.0</ele><time>2026-05-02T13:57:23.471Z</time></trkpt><trkpt lat="46.1327395" lon="13.4356507"><ele>191.0</ele><time>2026-05-02T13:57:25.471Z</time></trkpt><trkpt lat="46.1326867" lon="13.435791"><ele>191.0</ele><time>2026-05-02T13:57:27.471Z</time></trkpt><trkpt lat="46.1326168" lon="13.4359358"><ele>191.0</ele><time>2026-05-02T13:57:29.471Z</time></trkpt><trkpt lat="46.1325785" lon="13.4360198"><ele>191.0</ele><time>2026-05-02T13:57:30.469Z</time></trkpt><trkpt lat="46.1325343" lon="13.4361188"><ele>191.0</ele><time>2026-05-02T13:57:31.47Z</time></trkpt><trkpt lat="46.1324832" lon="13.4362293"><ele>191.5</ele><time>2026-05-02T13:57:32.471Z</time></trkpt><trkpt lat="46.1324245" lon="13.4363463"><ele>192.0</ele><time>2026-05-02T13:57:33.471Z</time></trkpt><trkpt lat="46.1323653" lon="13.4364623"><ele>192.5</ele><time>2026-05-02T13:57:34.471Z</time></trkpt><trkpt lat="46.1323058" lon="13.4365702"><ele>193.0</ele><time>2026-05-02T13:57:35.471Z</time></trkpt><trkpt lat="46.1321963" lon="13.4367367"><ele>194.83333333333331</ele><time>2026-05-02T13:57:37.472Z</time></trkpt><trkpt lat="46.1321133" lon="13.436803"><ele>196.66666666666666</ele><time>2026-05-02T13:57:39.471Z</time></trkpt><trkpt lat="46.1320037" lon="13.4367777"><ele>198.5</ele><time>2026-05-02T13:57:41.472Z</time></trkpt><trkpt lat="46.1319282" lon="13.4367492"><ele>200.33333333333331</ele><time>2026-05-02T13:57:42.472Z</time></trkpt><trkpt lat="46.131853" lon="13.4367257"><ele>202.16666666666666</ele><time>2026-05-02T13:57:43.472Z</time></trkpt><trkpt lat="46.1317828" lon="13.4367128"><ele>204.0</ele><time>2026-05-02T13:57:44.473Z</time></trkpt><trkpt lat="46.1317032" lon="13.4367202"><ele>204.0</ele><time>2026-05-02T13:57:45.47Z</time></trkpt><trkpt lat="46.1316192" lon="13.4367365"><ele>204.0</ele><time>2026-05-02T13:57:46.47Z</time></trkpt><trkpt lat="46.1315313" lon="13.4367587"><ele>204.0</ele><time>2026-05-02T13:57:47.47Z</time></trkpt><trkpt lat="46.131457" lon="13.4368008"><ele>204.0</ele><time>2026-05-02T13:57:48.47Z</time></trkpt><trkpt lat="46.1313933" lon="13.4368385"><ele>204.0</ele><time>2026-05-02T13:57:49.471Z</time></trkpt><trkpt lat="46.1312837" lon="13.4368492"><ele>204.0</ele><time>2026-05-02T13:57:51.471Z</time></trkpt><trkpt lat="46.1312203" lon="13.4368397"><ele>204.75</ele><time>2026-05-02T13:57:52.471Z</time></trkpt><trkpt lat="46.1311525" lon="13.4368627"><ele>205.5</ele><time>2026-05-02T13:57:54.47Z</time></trkpt><trkpt lat="46.1310763" lon="13.4369088"><ele>206.25</ele><time>2026-05-02T13:57:58.468Z</time></trkpt><trkpt lat="46.1312983" lon="13.4370015"><ele>207.0</ele><time>2026-05-02T13:59:34.468Z</time></trkpt><trkpt lat="46.131377" lon="13.4370193"><ele>207.0</ele><time>2026-05-02T13:59:35.468Z</time></trkpt><trkpt lat="46.1314492" lon="13.4370565"><ele>207.0</ele><time>2026-05-02T13:59:36.468Z</time></trkpt><trkpt lat="46.1315135" lon="13.4370868"><ele>207.0</ele><time>2026-05-02T13:59:37.469Z</time></trkpt><trkpt lat="46.1315745" lon="13.437132"><ele>207.0</ele><time>2026-05-02T13:59:38.47Z</time></trkpt><trkpt lat="46.1316667" lon="13.4372483"><ele>207.0</ele><time>2026-05-02T13:59:40.469Z</time></trkpt><trkpt lat="46.1317497" lon="13.4373982"><ele>210.2</ele><time>2026-05-02T13:59:42.469Z</time></trkpt><trkpt lat="46.1318027" lon="13.4374875"><ele>213.39999999999998</ele><time>2026-05-02T13:59:43.47Z</time></trkpt><trkpt lat="46.131862" lon="13.4375885"><ele>216.60000000000002</ele><time>2026-05-02T13:59:44.468Z</time></trkpt><trkpt lat="46.131929" lon="13.437712"><ele>219.8</ele><time>2026-05-02T13:59:45.469Z</time></trkpt><trkpt lat="46.1319863" lon="13.4378412"><ele>223.0</ele><time>2026-05-02T13:59:46.468Z</time></trkpt><trkpt lat="46.1320398" lon="13.4379665"><ele>228.25</ele><time>2026-05-02T13:59:47.469Z</time></trkpt><trkpt lat="46.1320962" lon="13.4380995"><ele>233.5</ele><time>2026-05-02T13:59:48.47Z</time></trkpt><trkpt lat="46.1321585" lon="13.4382292"><ele>238.75</ele><time>2026-05-02T13:59:49.469Z</time></trkpt><trkpt lat="46.1322317" lon="13.4383737"><ele>244.0</ele><time>2026-05-02T13:59:50.468Z</time></trkpt><trkpt lat="46.132311" lon="13.438508"><ele>244.0</ele><time>2026-05-02T13:59:51.469Z</time></trkpt><trkpt lat="46.1323805" lon="13.4386172"><ele>243.99999999999997</ele><time>2026-05-02T13:59:52.468Z</time></trkpt><trkpt lat="46.132442" lon="13.4387075"><ele>243.99999999999997</ele><time>2026-05-02T13:59:53.469Z</time></trkpt><trkpt lat="46.1325653" lon="13.4388192"><ele>244.0</ele><time>2026-05-02T13:59:55.469Z</time></trkpt><trkpt lat="46.132631" lon="13.4388888"><ele>244.0</ele><time>2026-05-02T13:59:56.469Z</time></trkpt><trkpt lat="46.1326873" lon="13.4389847"><ele>245.99999999999997</ele><time>2026-05-02T13:59:57.47Z</time></trkpt><trkpt lat="46.132745" lon="13.4390788"><ele>248.0</ele><time>2026-05-02T13:59:58.468Z</time></trkpt><trkpt lat="46.1327982" lon="13.4391842"><ele>250.0</ele><time>2026-05-02T13:59:59.468Z</time></trkpt><trkpt lat="46.1328433" lon="13.4392688"><ele>252.0</ele><time>2026-05-02T14:00:00.47Z</time></trkpt><trkpt lat="46.1328915" lon="13.4393655"><ele>253.99999999999997</ele><time>2026-05-02T14:00:01.47Z</time></trkpt><trkpt lat="46.1329312" lon="13.4394457"><ele>256.0</ele><time>2026-05-02T14:00:02.47Z</time></trkpt><trkpt lat="46.1329552" lon="13.4395668"><ele>256.0</ele><time>2026-05-02T14:00:04.47Z</time></trkpt><trkpt lat="46.1329222" lon="13.4396447"><ele>256.0</ele><time>2026-05-02T14:00:06.471Z</time></trkpt><trkpt lat="46.1328277" lon="13.4395913"><ele>256.0</ele><time>2026-05-02T14:00:09.471Z</time></trkpt><trkpt lat="46.1327267" lon="13.4395178"><ele>256.0</ele><time>2026-05-02T14:00:11.47Z</time></trkpt><trkpt lat="46.1326425" lon="13.4394573"><ele>256.0</ele><time>2026-05-02T14:00:12.47Z</time></trkpt><trkpt lat="46.1325377" lon="13.4394032"><ele>256.0</ele><time>2026-05-02T14:00:13.47Z</time></trkpt><trkpt lat="46.1324472" lon="13.4393602"><ele>256.0</ele><time>2026-05-02T14:00:14.47Z</time></trkpt><trkpt lat="46.1322673" lon="13.4392838"><ele>256.0</ele><time>2026-05-02T14:00:16.47Z</time></trkpt><trkpt lat="46.1321742" lon="13.439261"><ele>256.0</ele><time>2026-05-02T14:00:17.47Z</time></trkpt><trkpt lat="46.1320785" lon="13.4392325"><ele>257.66666666666663</ele><time>2026-05-02T14:00:18.47Z</time></trkpt><trkpt lat="46.131976" lon="13.4392098"><ele>259.3333333333333</ele><time>2026-05-02T14:00:19.47Z</time></trkpt><trkpt lat="46.1318972" lon="13.4392078"><ele>261.0</ele><time>2026-05-02T14:00:20.471Z</time></trkpt><trkpt lat="46.131828" lon="13.4392315"><ele>262.6666666666667</ele><time>2026-05-02T14:00:21.471Z</time></trkpt><trkpt lat="46.1317507" lon="13.4392697"><ele>264.33333333333337</ele><time>2026-05-02T14:00:22.469Z</time></trkpt><trkpt lat="46.1316673" lon="13.4393083"><ele>266.0</ele><time>2026-05-02T14:00:23.47Z</time></trkpt><trkpt lat="46.1315837" lon="13.4393547"><ele>266.0</ele><time>2026-05-02T14:00:24.47Z</time></trkpt><trkpt lat="46.1315027" lon="13.4393848"><ele>266.0</ele><time>2026-05-02T14:00:25.469Z</time></trkpt><trkpt lat="46.1314187" lon="13.4394655"><ele>266.0</ele><time>2026-05-02T14:00:27.47Z</time></trkpt><trkpt lat="46.1314835" lon="13.4395372"><ele>266.0</ele><time>2026-05-02T14:00:30.47Z</time></trkpt><trkpt lat="46.1315668" lon="13.4395002"><ele>266.0</ele><time>2026-05-02T14:00:32.471Z</time></trkpt><trkpt lat="46.1316957" lon="13.4394465"><ele>266.0</ele><time>2026-05-02T14:00:34.47Z</time></trkpt><trkpt lat="46.131768" lon="13.4394483"><ele>266.0</ele><time>2026-05-02T14:00:35.471Z</time></trkpt><trkpt lat="46.1319283" lon="13.4395292"><ele>266.0</ele><time>2026-05-02T14:00:37.471Z</time></trkpt><trkpt lat="46.1320038" lon="13.4395922"><ele>266.0</ele><time>2026-05-02T14:00:38.471Z</time></trkpt><trkpt lat="46.1320715" lon="13.4396647"><ele>266.0</ele><time>2026-05-02T14:00:39.472Z</time></trkpt><trkpt lat="46.132141" lon="13.4397467"><ele>268.0</ele><time>2026-05-02T14:00:40.47Z</time></trkpt><trkpt lat="46.1322078" lon="13.4398298"><ele>270.0</ele><time>2026-05-02T14:00:41.471Z</time></trkpt><trkpt lat="46.1322673" lon="13.4399062"><ele>272.0</ele><time>2026-05-02T14:00:42.472Z</time></trkpt><trkpt lat="46.1323238" lon="13.440001"><ele>274.0</ele><time>2026-05-02T14:00:43.471Z</time></trkpt><trkpt lat="46.132371" lon="13.440114"><ele>276.0</ele><time>2026-05-02T14:00:44.472Z</time></trkpt><trkpt lat="46.1324122" lon="13.4402247"><ele>278.0</ele><time>2026-05-02T14:00:45.474Z</time></trkpt><trkpt lat="46.1324542" lon="13.4403395"><ele>278.0</ele><time>2026-05-02T14:00:46.469Z</time></trkpt><trkpt lat="46.1324995" lon="13.4404495"><ele>278.0</ele><time>2026-05-02T14:00:47.469Z</time></trkpt><trkpt lat="46.1325313" lon="13.4405622"><ele>278.0</ele><time>2026-05-02T14:00:48.47Z</time></trkpt><trkpt lat="46.1325522" lon="13.4406652"><ele>278.0</ele><time>2026-05-02T14:00:49.469Z</time></trkpt><trkpt lat="46.1325552" lon="13.4407752"><ele>278.0</ele><time>2026-05-02T14:00:50.471Z</time></trkpt><trkpt lat="46.1325483" lon="13.4408688"><ele>278.0</ele><time>2026-05-02T14:00:51.472Z</time></trkpt><trkpt lat="46.1324962" lon="13.4410557"><ele>281.2</ele><time>2026-05-02T14:00:53.471Z</time></trkpt><trkpt lat="46.1324687" lon="13.4411558"><ele>284.4</ele><time>2026-05-02T14:00:54.472Z</time></trkpt><trkpt lat="46.132454" lon="13.4412685"><ele>287.59999999999997</ele><time>2026-05-02T14:00:55.471Z</time></trkpt><trkpt lat="46.1324323" lon="13.4413992"><ele>290.8</ele><time>2026-05-02T14:00:56.471Z</time></trkpt><trkpt lat="46.1324092" lon="13.4416567"><ele>294.0</ele><time>2026-05-02T14:00:58.471Z</time></trkpt><trkpt lat="46.1323975" lon="13.4417623"><ele>295.8</ele><time>2026-05-02T14:00:59.471Z</time></trkpt><trkpt lat="46.1324033" lon="13.44187"><ele>297.59999999999997</ele><time>2026-05-02T14:01:00.472Z</time></trkpt><trkpt lat="46.1324402" lon="13.4420242"><ele>299.4</ele><time>2026-05-02T14:01:02.471Z</time></trkpt><trkpt lat="46.1325182" lon="13.442178"><ele>301.2</ele><time>2026-05-02T14:01:04.472Z</time></trkpt><trkpt lat="46.132564" lon="13.4423007"><ele>303.0</ele><time>2026-05-02T14:01:05.472Z</time></trkpt><trkpt lat="46.1325967" lon="13.4424467"><ele>304.1666666666667</ele><time>2026-05-02T14:01:06.472Z</time></trkpt><trkpt lat="46.1326252" lon="13.4426043"><ele>305.3333333333333</ele><time>2026-05-02T14:01:07.472Z</time></trkpt><trkpt lat="46.1326522" lon="13.4427428"><ele>306.5</ele><time>2026-05-02T14:01:08.473Z</time></trkpt><trkpt lat="46.1326612" lon="13.4428522"><ele>307.66666666666663</ele><time>2026-05-02T14:01:09.472Z</time></trkpt><trkpt lat="46.132657" lon="13.442954"><ele>308.8333333333333</ele><time>2026-05-02T14:01:10.47Z</time></trkpt><trkpt lat="46.1326413" lon="13.4430602"><ele>310.0</ele><time>2026-05-02T14:01:11.47Z</time></trkpt><trkpt lat="46.1326093" lon="13.4431712"><ele>312.25</ele><time>2026-05-02T14:01:12.47Z</time></trkpt><trkpt lat="46.1325935" lon="13.4432757"><ele>314.5</ele><time>2026-05-02T14:01:13.47Z</time></trkpt><trkpt lat="46.1326008" lon="13.443411"><ele>316.75</ele><time>2026-05-02T14:01:15.471Z</time></trkpt><trkpt lat="46.132707" lon="13.4434103"><ele>319.0</ele><time>2026-05-02T14:01:18.471Z</time></trkpt><trkpt lat="46.1329115" lon="13.4433042"><ele>319.0</ele><time>2026-05-02T14:01:21.471Z</time></trkpt><trkpt lat="46.132975" lon="13.4433045"><ele>319.0</ele><time>2026-05-02T14:01:22.471Z</time></trkpt><trkpt lat="46.1330412" lon="13.4433425"><ele>319.0</ele><time>2026-05-02T14:01:23.471Z</time></trkpt><trkpt lat="46.1331053" lon="13.4434135"><ele>319.0</ele><time>2026-05-02T14:01:24.471Z</time></trkpt><trkpt lat="46.1331698" lon="13.4435142"><ele>319.0</ele><time>2026-05-02T14:01:25.471Z</time></trkpt><trkpt lat="46.1332378" lon="13.4436347"><ele>319.0</ele><time>2026-05-02T14:01:26.47Z</time></trkpt><trkpt lat="46.1333067" lon="13.4437728"><ele>318.8333333333333</ele><time>2026-05-02T14:01:27.47Z</time></trkpt><trkpt lat="46.133361" lon="13.443905"><ele>318.66666666666663</ele><time>2026-05-02T14:01:28.471Z</time></trkpt><trkpt lat="46.1333977" lon="13.4440353"><ele>318.5</ele><time>2026-05-02T14:01:29.469Z</time></trkpt><trkpt lat="46.1334268" lon="13.4441588"><ele>318.3333333333333</ele><time>2026-05-02T14:01:30.47Z</time></trkpt><trkpt lat="46.1334558" lon="13.4442473"><ele>318.1666666666667</ele><time>2026-05-02T14:01:31.47Z</time></trkpt><trkpt lat="46.1334893" lon="13.4443253"><ele>318.0</ele><time>2026-05-02T14:01:32.469Z</time></trkpt><trkpt lat="46.133544" lon="13.4443947"><ele>318.0</ele><time>2026-05-02T14:01:33.47Z</time></trkpt><trkpt lat="46.1336583" lon="13.4444457"><ele>318.0</ele><time>2026-05-02T14:01:35.469Z</time></trkpt><trkpt lat="46.1337958" lon="13.4443885"><ele>318.0</ele><time>2026-05-02T14:01:37.467Z</time></trkpt><trkpt lat="46.1339125" lon="13.4443263"><ele>318.0</ele><time>2026-05-02T14:01:38.67Z</time></trkpt><trkpt lat="46.1340827" lon="13.444251"><ele>315.75</ele><time>2026-05-02T14:01:40.276Z</time></trkpt><trkpt lat="46.1342773" lon="13.4440935"><ele>313.5</ele><time>2026-05-02T14:01:42.277Z</time></trkpt><trkpt lat="46.1343633" lon="13.4440142"><ele>311.25</ele><time>2026-05-02T14:01:43.277Z</time></trkpt><trkpt lat="46.1344505" lon="13.4439362"><ele>309.0</ele><time>2026-05-02T14:01:44.277Z</time></trkpt><trkpt lat="46.1345125" lon="13.4438612"><ele>307.5</ele><time>2026-05-02T14:01:45.275Z</time></trkpt><trkpt lat="46.134561" lon="13.4437865"><ele>306.0</ele><time>2026-05-02T14:01:46.275Z</time></trkpt><trkpt lat="46.1346045" lon="13.4436248"><ele>304.5</ele><time>2026-05-02T14:01:48.275Z</time></trkpt><trkpt lat="46.1346263" lon="13.4435333"><ele>303.0</ele><time>2026-05-02T14:01:49.278Z</time></trkpt><trkpt lat="46.1346425" lon="13.4434172"><ele>301.5</ele><time>2026-05-02T14:01:50.278Z</time></trkpt><trkpt lat="46.134653" lon="13.4432827"><ele>300.0</ele><time>2026-05-02T14:01:51.277Z</time></trkpt><trkpt lat="46.1346597" lon="13.4431515"><ele>300.0</ele><time>2026-05-02T14:01:52.278Z</time></trkpt><trkpt lat="46.1346757" lon="13.4430443"><ele>300.0</ele><time>2026-05-02T14:01:53.278Z</time></trkpt><trkpt lat="46.134705" lon="13.4429588"><ele>300.0</ele><time>2026-05-02T14:01:54.276Z</time></trkpt><trkpt lat="46.1347842" lon="13.4428582"><ele>300.0</ele><time>2026-05-02T14:01:56.278Z</time></trkpt><trkpt lat="46.1348898" lon="13.442861"><ele>300.0</ele><time>2026-05-02T14:01:58.472Z</time></trkpt><trkpt lat="46.1349663" lon="13.4429708"><ele>301.6</ele><time>2026-05-02T14:02:00.47Z</time></trkpt><trkpt lat="46.1350115" lon="13.4431688"><ele>303.2</ele><time>2026-05-02T14:02:02.47Z</time></trkpt><trkpt lat="46.1350253" lon="13.4432783"><ele>304.8</ele><time>2026-05-02T14:02:03.471Z</time></trkpt><trkpt lat="46.1350273" lon="13.443384"><ele>306.4</ele><time>2026-05-02T14:02:04.471Z</time></trkpt><trkpt lat="46.1350183" lon="13.4435005"><ele>308.0</ele><time>2026-05-02T14:02:05.471Z</time></trkpt><trkpt lat="46.1350007" lon="13.4436193"><ele>308.0</ele><time>2026-05-02T14:02:06.471Z</time></trkpt><trkpt lat="46.1349765" lon="13.4437345"><ele>308.0</ele><time>2026-05-02T14:02:07.472Z</time></trkpt><trkpt lat="46.1349532" lon="13.4438347"><ele>308.0</ele><time>2026-05-02T14:02:08.471Z</time></trkpt><trkpt lat="46.1349657" lon="13.4439973"><ele>308.0</ele><time>2026-05-02T14:02:10.47Z</time></trkpt><trkpt lat="46.1350192" lon="13.4441957"><ele>308.0</ele><time>2026-05-02T14:02:12.471Z</time></trkpt><trkpt lat="46.1350407" lon="13.4443225"><ele>309.0</ele><time>2026-05-02T14:02:13.471Z</time></trkpt><trkpt lat="46.1350525" lon="13.4444558"><ele>310.0</ele><time>2026-05-02T14:02:14.471Z</time></trkpt><trkpt lat="46.135061" lon="13.4445962"><ele>311.0</ele><time>2026-05-02T14:02:15.471Z</time></trkpt><trkpt lat="46.1350628" lon="13.4447338"><ele>312.0</ele><time>2026-05-02T14:02:16.471Z</time></trkpt><trkpt lat="46.1350512" lon="13.4448485"><ele>313.0</ele><time>2026-05-02T14:02:17.472Z</time></trkpt><trkpt lat="46.1350443" lon="13.4449548"><ele>314.0</ele><time>2026-05-02T14:02:18.472Z</time></trkpt><trkpt lat="46.1350515" lon="13.4450565"><ele>316.5</ele><time>2026-05-02T14:02:19.471Z</time></trkpt><trkpt lat="46.1350665" lon="13.4451457"><ele>319.0</ele><time>2026-05-02T14:02:20.471Z</time></trkpt><trkpt lat="46.1351197" lon="13.4452817"><ele>321.5</ele><time>2026-05-02T14:02:22.471Z</time></trkpt><trkpt lat="46.135332" lon="13.4453845"><ele>324.0</ele><time>2026-05-02T14:02:26.469Z</time></trkpt><trkpt lat="46.1353962" lon="13.4454388"><ele>326.79999999999995</ele><time>2026-05-02T14:02:27.47Z</time></trkpt><trkpt lat="46.1354675" lon="13.445528"><ele>329.59999999999997</ele><time>2026-05-02T14:02:28.47Z</time></trkpt><trkpt lat="46.1355533" lon="13.445637"><ele>332.4</ele><time>2026-05-02T14:02:29.47Z</time></trkpt><trkpt lat="46.135641" lon="13.4457567"><ele>335.2</ele><time>2026-05-02T14:02:30.47Z</time></trkpt><trkpt lat="46.1357267" lon="13.4458725"><ele>338.0</ele><time>2026-05-02T14:02:31.47Z</time></trkpt><trkpt lat="46.1357963" lon="13.4459987"><ele>338.0</ele><time>2026-05-02T14:02:32.471Z</time></trkpt><trkpt lat="46.1358577" lon="13.4461325"><ele>338.0</ele><time>2026-05-02T14:02:33.469Z</time></trkpt><trkpt lat="46.135898" lon="13.4462598"><ele>338.0</ele><time>2026-05-02T14:02:34.47Z</time></trkpt><trkpt lat="46.1359265" lon="13.4463992"><ele>338.0</ele><time>2026-05-02T14:02:35.47Z</time></trkpt><trkpt lat="46.1359448" lon="13.4465585"><ele>338.0</ele><time>2026-05-02T14:02:36.47Z</time></trkpt><trkpt lat="46.1359457" lon="13.4466875"><ele>342.0</ele><time>2026-05-02T14:02:37.47Z</time></trkpt><trkpt lat="46.1359243" lon="13.4467897"><ele>346.0</ele><time>2026-05-02T14:02:38.469Z</time></trkpt><trkpt lat="46.1358862" lon="13.4469383"><ele>350.0</ele><time>2026-05-02T14:02:40.469Z</time></trkpt><trkpt lat="46.1358888" lon="13.4470653"><ele>354.0</ele><time>2026-05-02T14:02:42.469Z</time></trkpt><trkpt lat="46.1359565" lon="13.4470973"><ele>358.0</ele><time>2026-05-02T14:02:44.469Z</time></trkpt><trkpt lat="46.1360898" lon="13.4469662"><ele>358.0</ele><time>2026-05-02T14:02:47.67Z</time></trkpt><trkpt lat="46.1361713" lon="13.4468652"><ele>358.0</ele><time>2026-05-02T14:02:49.468Z</time></trkpt><trkpt lat="46.1362227" lon="13.446808"><ele>358.0</ele><time>2026-05-02T14:02:50.468Z</time></trkpt><trkpt lat="46.1363232" lon="13.4467557"><ele>358.0</ele><time>2026-05-02T14:02:52.469Z</time></trkpt><trkpt lat="46.1364375" lon="13.4467862"><ele>358.0</ele><time>2026-05-02T14:02:54.471Z</time></trkpt><trkpt lat="46.1365373" lon="13.4469055"><ele>358.66666666666663</ele><time>2026-05-02T14:02:56.47Z</time></trkpt><trkpt lat="46.1365887" lon="13.446983"><ele>359.3333333333333</ele><time>2026-05-02T14:02:57.47Z</time></trkpt><trkpt lat="46.1366398" lon="13.4470688"><ele>360.0</ele><time>2026-05-02T14:02:58.471Z</time></trkpt><trkpt lat="46.1366853" lon="13.4471632"><ele>360.6666666666667</ele><time>2026-05-02T14:02:59.47Z</time></trkpt><trkpt lat="46.1367202" lon="13.4472607"><ele>361.33333333333337</ele><time>2026-05-02T14:03:00.469Z</time></trkpt><trkpt lat="46.1367538" lon="13.447364"><ele>362.0</ele><time>2026-05-02T14:03:01.471Z</time></trkpt><trkpt lat="46.1367815" lon="13.4474767"><ele>362.0</ele><time>2026-05-02T14:03:02.469Z</time></trkpt><trkpt lat="46.1367995" lon="13.4476065"><ele>362.0</ele><time>2026-05-02T14:03:03.469Z</time></trkpt><trkpt lat="46.1368185" lon="13.4477537"><ele>362.0</ele><time>2026-05-02T14:03:04.471Z</time></trkpt><trkpt lat="46.1368368" lon="13.4479012"><ele>362.0</ele><time>2026-05-02T14:03:05.471Z</time></trkpt><trkpt lat="46.1368563" lon="13.4480467"><ele>362.0</ele><time>2026-05-02T14:03:06.471Z</time></trkpt><trkpt lat="46.1368715" lon="13.4483443"><ele>364.8</ele><time>2026-05-02T14:03:08.47Z</time></trkpt><trkpt lat="46.1368717" lon="13.4484845"><ele>367.6</ele><time>2026-05-02T14:03:09.471Z</time></trkpt><trkpt lat="46.1368833" lon="13.448622"><ele>370.40000000000003</ele><time>2026-05-02T14:03:10.47Z</time></trkpt><trkpt lat="46.1368828" lon="13.448755"><ele>373.20000000000005</ele><time>2026-05-02T14:03:11.47Z</time></trkpt><trkpt lat="46.1368743" lon="13.4488882"><ele>376.0</ele><time>2026-05-02T14:03:12.471Z</time></trkpt><trkpt lat="46.1368588" lon="13.4490305"><ele>378.3333333333333</ele><time>2026-05-02T14:03:13.469Z</time></trkpt><trkpt lat="46.1368388" lon="13.4491553"><ele>380.66666666666663</ele><time>2026-05-02T14:03:14.469Z</time></trkpt><trkpt lat="46.1368092" lon="13.4492622"><ele>383.0</ele><time>2026-05-02T14:03:15.469Z</time></trkpt><trkpt lat="46.136782" lon="13.4493577"><ele>385.3333333333333</ele><time>2026-05-02T14:03:16.468Z</time></trkpt><trkpt lat="46.1367627" lon="13.4495105"><ele>387.6666666666667</ele><time>2026-05-02T14:03:18.471Z</time></trkpt><trkpt lat="46.1368105" lon="13.4496047"><ele>390.0</ele><time>2026-05-02T14:03:20.472Z</time></trkpt><trkpt lat="46.1369148" lon="13.449601"><ele>390.0</ele><time>2026-05-02T14:03:22.47Z</time></trkpt><trkpt lat="46.136992" lon="13.4496023"><ele>390.0</ele><time>2026-05-02T14:03:23.47Z</time></trkpt><trkpt lat="46.1370723" lon="13.4496232"><ele>390.0</ele><time>2026-05-02T14:03:24.471Z</time></trkpt><trkpt lat="46.1371395" lon="13.4496763"><ele>390.0</ele><time>2026-05-02T14:03:25.472Z</time></trkpt><trkpt lat="46.1371963" lon="13.4498695"><ele>390.0</ele><time>2026-05-02T14:03:27.471Z</time></trkpt><trkpt lat="46.1371918" lon="13.449985"><ele>393.0</ele><time>2026-05-02T14:03:28.471Z</time></trkpt><trkpt lat="46.1371758" lon="13.4500975"><ele>396.0</ele><time>2026-05-02T14:03:29.469Z</time></trkpt><trkpt lat="46.1371188" lon="13.4503363"><ele>399.0</ele><time>2026-05-02T14:03:31.47Z</time></trkpt><trkpt lat="46.1370762" lon="13.4504532"><ele>402.0</ele><time>2026-05-02T14:03:32.474Z</time></trkpt><trkpt lat="46.1370307" lon="13.4505687"><ele>405.0</ele><time>2026-05-02T14:03:33.468Z</time></trkpt><trkpt lat="46.1369947" lon="13.4506797"><ele>408.0</ele><time>2026-05-02T14:03:34.469Z</time></trkpt><trkpt lat="46.136985" lon="13.4507707"><ele>411.0</ele><time>2026-05-02T14:03:35.469Z</time></trkpt><trkpt lat="46.1370342" lon="13.4508977"><ele>414.0</ele><time>2026-05-02T14:03:37.468Z</time></trkpt><trkpt lat="46.1371512" lon="13.4509408"><ele>417.0</ele><time>2026-05-02T14:03:39.468Z</time></trkpt><trkpt lat="46.1372515" lon="13.4509902"><ele>420.0</ele><time>2026-05-02T14:03:41.468Z</time></trkpt><trkpt lat="46.1372672" lon="13.4511013"><ele>420.0</ele><time>2026-05-02T14:03:44.47Z</time></trkpt><trkpt lat="46.137205" lon="13.4511545"><ele>420.0</ele><time>2026-05-02T14:03:46.469Z</time></trkpt><trkpt lat="46.1370747" lon="13.4511482"><ele>420.0</ele><time>2026-05-02T14:03:48.469Z</time></trkpt><trkpt lat="46.1369925" lon="13.451149"><ele>420.0</ele><time>2026-05-02T14:03:49.47Z</time></trkpt><trkpt lat="46.1369207" lon="13.4511572"><ele>420.0</ele><time>2026-05-02T14:03:50.47Z</time></trkpt><trkpt lat="46.1368183" lon="13.4509235"><ele>420.0</ele><time>2026-05-02T14:03:54.471Z</time></trkpt><trkpt lat="46.1367968" lon="13.4508128"><ele>420.0</ele><time>2026-05-02T14:03:55.469Z</time></trkpt><trkpt lat="46.1367602" lon="13.4507045"><ele>420.0</ele><time>2026-05-02T14:03:56.469Z</time></trkpt><trkpt lat="46.1367073" lon="13.4506177"><ele>420.0</ele><time>2026-05-02T14:03:57.47Z</time></trkpt><trkpt lat="46.1366398" lon="13.4505275"><ele>420.0</ele><time>2026-05-02T14:03:58.469Z</time></trkpt><trkpt lat="46.1365503" lon="13.4504142"><ele>423.2</ele><time>2026-05-02T14:03:59.469Z</time></trkpt><trkpt lat="46.1364577" lon="13.4503002"><ele>426.4</ele><time>2026-05-02T14:04:00.47Z</time></trkpt><trkpt lat="46.1363728" lon="13.4501968"><ele>429.6</ele><time>2026-05-02T14:04:01.469Z</time></trkpt><trkpt lat="46.1363037" lon="13.4500822"><ele>432.8</ele><time>2026-05-02T14:04:02.469Z</time></trkpt><trkpt lat="46.1362403" lon="13.4499917"><ele>436.0</ele><time>2026-05-02T14:04:03.468Z</time></trkpt><trkpt lat="46.1361852" lon="13.4498727"><ele>436.00000000000006</ele><time>2026-05-02T14:04:04.469Z</time></trkpt><trkpt lat="46.1361367" lon="13.4497615"><ele>436.0</ele><time>2026-05-02T14:04:05.468Z</time></trkpt><trkpt lat="46.1361092" lon="13.4496642"><ele>436.0</ele><time>2026-05-02T14:04:06.47Z</time></trkpt><trkpt lat="46.1360662" lon="13.4495907"><ele>436.0</ele><time>2026-05-02T14:04:07.469Z</time></trkpt><trkpt lat="46.1360207" lon="13.4495257"><ele>436.00000000000006</ele><time>2026-05-02T14:04:08.469Z</time></trkpt><trkpt lat="46.1358985" lon="13.449449"><ele>436.0</ele><time>2026-05-02T14:04:10.468Z</time></trkpt><trkpt lat="46.1357962" lon="13.4494057"><ele>436.25</ele><time>2026-05-02T14:04:11.469Z</time></trkpt><trkpt lat="46.1356165" lon="13.4493377"><ele>436.5</ele><time>2026-05-02T14:04:13.47Z</time></trkpt><trkpt lat="46.1355003" lon="13.449307"><ele>436.75</ele><time>2026-05-02T14:04:14.469Z</time></trkpt><trkpt lat="46.1354092" lon="13.449273"><ele>437.0</ele><time>2026-05-02T14:04:15.471Z</time></trkpt><trkpt lat="46.1353397" lon="13.4492403"><ele>436.99999999999994</ele><time>2026-05-02T14:04:16.471Z</time></trkpt><trkpt lat="46.1352743" lon="13.4492023"><ele>437.0</ele><time>2026-05-02T14:04:17.471Z</time></trkpt><trkpt lat="46.1352257" lon="13.449139"><ele>437.0</ele><time>2026-05-02T14:04:18.47Z</time></trkpt><trkpt lat="46.1351825" lon="13.4490527"><ele>437.0</ele><time>2026-05-02T14:04:19.47Z</time></trkpt><trkpt lat="46.1351455" lon="13.4489473"><ele>436.99999999999994</ele><time>2026-05-02T14:04:20.47Z</time></trkpt><trkpt lat="46.1350832" lon="13.44884"><ele>437.0</ele><time>2026-05-02T14:04:21.47Z</time></trkpt><trkpt lat="46.1350137" lon="13.4487385"><ele>437.20000000000005</ele><time>2026-05-02T14:04:22.47Z</time></trkpt><trkpt lat="46.1349422" lon="13.4486465"><ele>437.40000000000003</ele><time>2026-05-02T14:04:23.47Z</time></trkpt><trkpt lat="46.1348612" lon="13.4485837"><ele>437.59999999999997</ele><time>2026-05-02T14:04:24.471Z</time></trkpt><trkpt lat="46.1347638" lon="13.4485288"><ele>437.79999999999995</ele><time>2026-05-02T14:04:25.47Z</time></trkpt><trkpt lat="46.1346502" lon="13.4484783"><ele>438.0</ele><time>2026-05-02T14:04:26.471Z</time></trkpt><trkpt lat="46.1345153" lon="13.4484243"><ele>438.0</ele><time>2026-05-02T14:04:27.47Z</time></trkpt><trkpt lat="46.134372" lon="13.4483622"><ele>438.0</ele><time>2026-05-02T14:04:28.469Z</time></trkpt><trkpt lat="46.1342325" lon="13.4483158"><ele>438.0</ele><time>2026-05-02T14:04:29.468Z</time></trkpt><trkpt lat="46.1341055" lon="13.448275"><ele>438.0</ele><time>2026-05-02T14:04:30.469Z</time></trkpt><trkpt lat="46.1340038" lon="13.4482445"><ele>440.0</ele><time>2026-05-02T14:04:31.47Z</time></trkpt><trkpt lat="46.1339155" lon="13.4482105"><ele>442.0</ele><time>2026-05-02T14:04:32.471Z</time></trkpt><trkpt lat="46.1336855" lon="13.448293"><ele>444.0</ele><time>2026-05-02T14:04:36.472Z</time></trkpt><trkpt lat="46.133614" lon="13.4483758"><ele>446.0</ele><time>2026-05-02T14:04:37.469Z</time></trkpt><trkpt lat="46.1335315" lon="13.4484648"><ele>446.0</ele><time>2026-05-02T14:04:38.472Z</time></trkpt><trkpt lat="46.1334408" lon="13.4485453"><ele>446.0</ele><time>2026-05-02T14:04:39.47Z</time></trkpt><trkpt lat="46.1333703" lon="13.4486068"><ele>446.0</ele><time>2026-05-02T14:04:40.469Z</time></trkpt><trkpt lat="46.133304" lon="13.448646"><ele>446.0</ele><time>2026-05-02T14:04:41.469Z</time></trkpt><trkpt lat="46.1331687" lon="13.448629"><ele>446.0</ele><time>2026-05-02T14:04:43.47Z</time></trkpt><trkpt lat="46.1330982" lon="13.4485657"><ele>448.4</ele><time>2026-05-02T14:04:44.469Z</time></trkpt><trkpt lat="46.1330498" lon="13.4484788"><ele>450.8</ele><time>2026-05-02T14:04:45.469Z</time></trkpt><trkpt lat="46.1329938" lon="13.448379"><ele>453.19999999999993</ele><time>2026-05-02T14:04:46.47Z</time></trkpt><trkpt lat="46.1329392" lon="13.4482563"><ele>455.59999999999997</ele><time>2026-05-02T14:04:47.47Z</time></trkpt><trkpt lat="46.132859" lon="13.4481293"><ele>458.0</ele><time>2026-05-02T14:04:48.47Z</time></trkpt><trkpt lat="46.1327782" lon="13.448"><ele>457.0</ele><time>2026-05-02T14:04:49.469Z</time></trkpt><trkpt lat="46.1326843" lon="13.4478718"><ele>456.0</ele><time>2026-05-02T14:04:50.469Z</time></trkpt><trkpt lat="46.1325863" lon="13.447749"><ele>455.0</ele><time>2026-05-02T14:04:51.468Z</time></trkpt><trkpt lat="46.132489" lon="13.4476428"><ele>454.0</ele><time>2026-05-02T14:04:52.468Z</time></trkpt><trkpt lat="46.1323838" lon="13.4475562"><ele>454.0</ele><time>2026-05-02T14:04:53.468Z</time></trkpt><trkpt lat="46.132147" lon="13.4474152"><ele>454.0</ele><time>2026-05-02T14:04:55.47Z</time></trkpt><trkpt lat="46.1320363" lon="13.447379"><ele>454.0</ele><time>2026-05-02T14:04:56.47Z</time></trkpt><trkpt lat="46.1319362" lon="13.4473672"><ele>454.0</ele><time>2026-05-02T14:04:57.471Z</time></trkpt><trkpt lat="46.13184" lon="13.4473755"><ele>454.0</ele><time>2026-05-02T14:04:58.468Z</time></trkpt><trkpt lat="46.1317503" lon="13.4473978"><ele>454.0</ele><time>2026-05-02T14:04:59.469Z</time></trkpt><trkpt lat="46.1316452" lon="13.4474485"><ele>454.0</ele><time>2026-05-02T14:05:00.468Z</time></trkpt><trkpt lat="46.1315305" lon="13.4475292"><ele>454.0</ele><time>2026-05-02T14:05:01.468Z</time></trkpt><trkpt lat="46.1314263" lon="13.447607"><ele>454.1666666666667</ele><time>2026-05-02T14:05:02.469Z</time></trkpt><trkpt lat="46.1313353" lon="13.447662"><ele>454.33333333333337</ele><time>2026-05-02T14:05:03.47Z</time></trkpt><trkpt lat="46.13126" lon="13.4476907"><ele>454.5</ele><time>2026-05-02T14:05:04.469Z</time></trkpt><trkpt lat="46.131191" lon="13.4477103"><ele>454.66666666666663</ele><time>2026-05-02T14:05:05.469Z</time></trkpt><trkpt lat="46.1311205" lon="13.447726"><ele>454.8333333333333</ele><time>2026-05-02T14:05:06.47Z</time></trkpt><trkpt lat="46.1310522" lon="13.4477428"><ele>455.0</ele><time>2026-05-02T14:05:07.469Z</time></trkpt><trkpt lat="46.130976" lon="13.4477563"><ele>455.0</ele><time>2026-05-02T14:05:08.469Z</time></trkpt><trkpt lat="46.1308617" lon="13.447751"><ele>455.0</ele><time>2026-05-02T14:05:10.47Z</time></trkpt><trkpt lat="46.1307827" lon="13.4476565"><ele>455.0</ele><time>2026-05-02T14:05:12.472Z</time></trkpt><trkpt lat="46.1307557" lon="13.4475732"><ele>455.0</ele><time>2026-05-02T14:05:13.47Z</time></trkpt><trkpt lat="46.1307352" lon="13.4474157"><ele>455.0</ele><time>2026-05-02T14:05:15.471Z</time></trkpt><trkpt lat="46.1307552" lon="13.4470743"><ele>456.4</ele><time>2026-05-02T14:05:19.469Z</time></trkpt><trkpt lat="46.130752" lon="13.4469"><ele>457.8</ele><time>2026-05-02T14:05:21.47Z</time></trkpt><trkpt lat="46.1307262" lon="13.4467378"><ele>459.20000000000005</ele><time>2026-05-02T14:05:23.472Z</time></trkpt><trkpt lat="46.130677" lon="13.4465722"><ele>460.6</ele><time>2026-05-02T14:05:25.47Z</time></trkpt><trkpt lat="46.1306313" lon="13.4464968"><ele>462.0</ele><time>2026-05-02T14:05:26.47Z</time></trkpt><trkpt lat="46.1305035" lon="13.4463452"><ele>457.8</ele><time>2026-05-02T14:05:29.469Z</time></trkpt><trkpt lat="46.1304043" lon="13.4462788"><ele>453.6</ele><time>2026-05-02T14:05:31.469Z</time></trkpt><trkpt lat="46.1302962" lon="13.446229"><ele>449.40000000000003</ele><time>2026-05-02T14:05:33.47Z</time></trkpt><trkpt lat="46.1301793" lon="13.4461847"><ele>445.20000000000005</ele><time>2026-05-02T14:05:35.469Z</time></trkpt><trkpt lat="46.1301103" lon="13.4461495"><ele>441.0</ele><time>2026-05-02T14:05:36.47Z</time></trkpt><trkpt lat="46.1298735" lon="13.4460555"><ele>440.4</ele><time>2026-05-02T14:05:40.67Z</time></trkpt><trkpt lat="46.1297743" lon="13.446044"><ele>439.8</ele><time>2026-05-02T14:05:42.275Z</time></trkpt><trkpt lat="46.129636" lon="13.4460255"><ele>439.19999999999993</ele><time>2026-05-02T14:05:44.277Z</time></trkpt><trkpt lat="46.1295467" lon="13.4460138"><ele>438.59999999999997</ele><time>2026-05-02T14:05:45.278Z</time></trkpt><trkpt lat="46.1294428" lon="13.4459935"><ele>438.0</ele><time>2026-05-02T14:05:46.276Z</time></trkpt><trkpt lat="46.1293598" lon="13.4459843"><ele>438.0</ele><time>2026-05-02T14:05:47.276Z</time></trkpt><trkpt lat="46.1292642" lon="13.4459718"><ele>438.0</ele><time>2026-05-02T14:05:48.276Z</time></trkpt><trkpt lat="46.1291712" lon="13.4459572"><ele>438.0</ele><time>2026-05-02T14:05:49.276Z</time></trkpt><trkpt lat="46.1290853" lon="13.4459365"><ele>438.0</ele><time>2026-05-02T14:05:50.275Z</time></trkpt><trkpt lat="46.1289977" lon="13.4459188"><ele>438.0</ele><time>2026-05-02T14:05:51.274Z</time></trkpt><trkpt lat="46.1289232" lon="13.445902"><ele>438.0</ele><time>2026-05-02T14:05:52.274Z</time></trkpt><trkpt lat="46.1288558" lon="13.4458913"><ele>437.79999999999995</ele><time>2026-05-02T14:05:53.274Z</time></trkpt><trkpt lat="46.1287938" lon="13.4458588"><ele>437.59999999999997</ele><time>2026-05-02T14:05:54.276Z</time></trkpt><trkpt lat="46.1287068" lon="13.445836"><ele>437.40000000000003</ele><time>2026-05-02T14:05:55.276Z</time></trkpt><trkpt lat="46.1286318" lon="13.4458158"><ele>437.20000000000005</ele><time>2026-05-02T14:05:56.277Z</time></trkpt><trkpt lat="46.128517" lon="13.4457843"><ele>437.0</ele><time>2026-05-02T14:05:58.469Z</time></trkpt><trkpt lat="46.1283413" lon="13.4456778"><ele>436.99999999999994</ele><time>2026-05-02T14:06:01.469Z</time></trkpt><trkpt lat="46.1282787" lon="13.4456502"><ele>437.0</ele><time>2026-05-02T14:06:02.469Z</time></trkpt><trkpt lat="46.1281983" lon="13.4455758"><ele>437.0</ele><time>2026-05-02T14:06:04.469Z</time></trkpt><trkpt lat="46.1281055" lon="13.4455253"><ele>437.0</ele><time>2026-05-02T14:06:06.468Z</time></trkpt><trkpt lat="46.1280093" lon="13.44547"><ele>436.99999999999994</ele><time>2026-05-02T14:06:08.468Z</time></trkpt><trkpt lat="46.1279558" lon="13.445422"><ele>437.0</ele><time>2026-05-02T14:06:09.473Z</time></trkpt><trkpt lat="46.1278605" lon="13.4453215"><ele>433.66666666666663</ele><time>2026-05-02T14:06:11.47Z</time></trkpt><trkpt lat="46.1277795" lon="13.4452677"><ele>430.3333333333333</ele><time>2026-05-02T14:06:12.476Z</time></trkpt><trkpt lat="46.1277248" lon="13.4452145"><ele>427.0</ele><time>2026-05-02T14:06:13.469Z</time></trkpt><trkpt lat="46.1276587" lon="13.4451025"><ele>423.66666666666663</ele><time>2026-05-02T14:06:15.471Z</time></trkpt><trkpt lat="46.1275727" lon="13.445037"><ele>420.3333333333333</ele><time>2026-05-02T14:06:16.469Z</time></trkpt><trkpt lat="46.127499" lon="13.4449602"><ele>417.0</ele><time>2026-05-02T14:06:17.47Z</time></trkpt><trkpt lat="46.1274417" lon="13.444877"><ele>417.25</ele><time>2026-05-02T14:06:18.469Z</time></trkpt><trkpt lat="46.1273877" lon="13.444807"><ele>417.5</ele><time>2026-05-02T14:06:19.469Z</time></trkpt><trkpt lat="46.1272675" lon="13.4446118"><ele>417.75</ele><time>2026-05-02T14:06:22.469Z</time></trkpt><trkpt lat="46.127178" lon="13.444497"><ele>418.0</ele><time>2026-05-02T14:06:24.47Z</time></trkpt><trkpt lat="46.127087" lon="13.4443987"><ele>415.6666666666667</ele><time>2026-05-02T14:06:26.471Z</time></trkpt><trkpt lat="46.1270288" lon="13.4443485"><ele>413.33333333333337</ele><time>2026-05-02T14:06:27.471Z</time></trkpt><trkpt lat="46.1269723" lon="13.4443053"><ele>411.0</ele><time>2026-05-02T14:06:28.47Z</time></trkpt><trkpt lat="46.1268715" lon="13.444209"><ele>408.66666666666663</ele><time>2026-05-02T14:06:30.469Z</time></trkpt><trkpt lat="46.1267763" lon="13.4441367"><ele>406.3333333333333</ele><time>2026-05-02T14:06:32.47Z</time></trkpt><trkpt lat="46.1267098" lon="13.4440602"><ele>404.0</ele><time>2026-05-02T14:06:34.47Z</time></trkpt><trkpt lat="46.1266492" lon="13.444007"><ele>404.5</ele><time>2026-05-02T14:06:35.471Z</time></trkpt><trkpt lat="46.1265542" lon="13.4439043"><ele>405.0</ele><time>2026-05-02T14:06:37.47Z</time></trkpt><trkpt lat="46.1264925" lon="13.443855"><ele>405.5</ele><time>2026-05-02T14:06:38.471Z</time></trkpt><trkpt lat="46.126394" lon="13.4437635"><ele>406.0</ele><time>2026-05-02T14:06:40.471Z</time></trkpt><trkpt lat="46.1262187" lon="13.4435335"><ele>404.20000000000005</ele><time>2026-05-02T14:06:44.47Z</time></trkpt><trkpt lat="46.1261405" lon="13.4434275"><ele>402.40000000000003</ele><time>2026-05-02T14:06:45.47Z</time></trkpt><trkpt lat="46.1260752" lon="13.4433032"><ele>400.6</ele><time>2026-05-02T14:06:46.47Z</time></trkpt><trkpt lat="46.1260017" lon="13.4431687"><ele>398.8</ele><time>2026-05-02T14:06:47.47Z</time></trkpt><trkpt lat="46.1259308" lon="13.4430485"><ele>397.0</ele><time>2026-05-02T14:06:48.472Z</time></trkpt><trkpt lat="46.1258425" lon="13.4428475"><ele>398.0</ele><time>2026-05-02T14:06:50.469Z</time></trkpt><trkpt lat="46.1257968" lon="13.4426992"><ele>399.0</ele><time>2026-05-02T14:06:52.47Z</time></trkpt><trkpt lat="46.1257512" lon="13.4425722"><ele>400.0</ele><time>2026-05-02T14:06:54.469Z</time></trkpt><trkpt lat="46.1257175" lon="13.4424238"><ele>401.0</ele><time>2026-05-02T14:06:56.469Z</time></trkpt><trkpt lat="46.1256827" lon="13.4422795"><ele>402.0</ele><time>2026-05-02T14:06:58.469Z</time></trkpt><trkpt lat="46.125648" lon="13.4421342"><ele>402.75</ele><time>2026-05-02T14:07:00.47Z</time></trkpt><trkpt lat="46.1255968" lon="13.44199"><ele>403.5</ele><time>2026-05-02T14:07:02.469Z</time></trkpt><trkpt lat="46.1255092" lon="13.4417392"><ele>404.25</ele><time>2026-05-02T14:07:05.469Z</time></trkpt><trkpt lat="46.1254853" lon="13.441646"><ele>405.0</ele><time>2026-05-02T14:07:06.471Z</time></trkpt><trkpt lat="46.1254605" lon="13.4414785"><ele>404.99999999999994</ele><time>2026-05-02T14:07:08.469Z</time></trkpt><trkpt lat="46.1254752" lon="13.441382"><ele>405.0</ele><time>2026-05-02T14:07:09.469Z</time></trkpt><trkpt lat="46.1254895" lon="13.4412762"><ele>405.0</ele><time>2026-05-02T14:07:10.469Z</time></trkpt><trkpt lat="46.1254983" lon="13.4411833"><ele>405.0</ele><time>2026-05-02T14:07:11.468Z</time></trkpt><trkpt lat="46.1254958" lon="13.4410795"><ele>405.0</ele><time>2026-05-02T14:07:12.469Z</time></trkpt><trkpt lat="46.1254862" lon="13.440986"><ele>404.99999999999994</ele><time>2026-05-02T14:07:13.473Z</time></trkpt><trkpt lat="46.1254877" lon="13.440888"><ele>405.0</ele><time>2026-05-02T14:07:14.469Z</time></trkpt><trkpt lat="46.12548" lon="13.4407237"><ele>403.1666666666667</ele><time>2026-05-02T14:07:16.469Z</time></trkpt><trkpt lat="46.1254643" lon="13.4406318"><ele>401.33333333333337</ele><time>2026-05-02T14:07:17.469Z</time></trkpt><trkpt lat="46.1254435" lon="13.4405418"><ele>399.5</ele><time>2026-05-02T14:07:18.468Z</time></trkpt><trkpt lat="46.1254002" lon="13.4404605"><ele>397.6666666666667</ele><time>2026-05-02T14:07:19.467Z</time></trkpt><trkpt lat="46.1253623" lon="13.440384"><ele>395.83333333333337</ele><time>2026-05-02T14:07:20.467Z</time></trkpt><trkpt lat="46.1253142" lon="13.4402388"><ele>394.0</ele><time>2026-05-02T14:07:22.468Z</time></trkpt><trkpt lat="46.1252523" lon="13.440094"><ele>391.79999999999995</ele><time>2026-05-02T14:07:24.469Z</time></trkpt><trkpt lat="46.1251412" lon="13.4399355"><ele>389.59999999999997</ele><time>2026-05-02T14:07:26.469Z</time></trkpt><trkpt lat="46.1250777" lon="13.439852"><ele>387.4</ele><time>2026-05-02T14:07:27.469Z</time></trkpt><trkpt lat="46.1250332" lon="13.4397705"><ele>385.2</ele><time>2026-05-02T14:07:28.469Z</time></trkpt><trkpt lat="46.1249923" lon="13.4396918"><ele>383.0</ele><time>2026-05-02T14:07:29.47Z</time></trkpt><trkpt lat="46.1249303" lon="13.4395207"><ele>380.0</ele><time>2026-05-02T14:07:31.469Z</time></trkpt><trkpt lat="46.1249035" lon="13.4394338"><ele>377.0</ele><time>2026-05-02T14:07:32.469Z</time></trkpt><trkpt lat="46.1248553" lon="13.4392768"><ele>374.0</ele><time>2026-05-02T14:07:34.469Z</time></trkpt><trkpt lat="46.1247682" lon="13.4391578"><ele>371.0</ele><time>2026-05-02T14:07:36.469Z</time></trkpt><trkpt lat="46.124661" lon="13.4391032"><ele>368.0</ele><time>2026-05-02T14:07:38.469Z</time></trkpt><trkpt lat="46.1245385" lon="13.439072"><ele>367.4</ele><time>2026-05-02T14:07:40.469Z</time></trkpt><trkpt lat="46.1244738" lon="13.4390743"><ele>366.79999999999995</ele><time>2026-05-02T14:07:41.469Z</time></trkpt><trkpt lat="46.1244065" lon="13.4390883"><ele>366.2</ele><time>2026-05-02T14:07:42.47Z</time></trkpt><trkpt lat="46.1243008" lon="13.4391315"><ele>365.6</ele><time>2026-05-02T14:07:44.468Z</time></trkpt><trkpt lat="46.1242383" lon="13.4391777"><ele>365.0</ele><time>2026-05-02T14:07:45.468Z</time></trkpt><trkpt lat="46.1241017" lon="13.4392803"><ele>362.6</ele><time>2026-05-02T14:07:48.469Z</time></trkpt><trkpt lat="46.1239963" lon="13.439314"><ele>360.2</ele><time>2026-05-02T14:07:50.468Z</time></trkpt><trkpt lat="46.1238893" lon="13.4393358"><ele>357.79999999999995</ele><time>2026-05-02T14:07:52.469Z</time></trkpt><trkpt lat="46.123777" lon="13.4393252"><ele>355.4</ele><time>2026-05-02T14:07:54.47Z</time></trkpt><trkpt lat="46.1236823" lon="13.439301"><ele>353.0</ele><time>2026-05-02T14:07:56.468Z</time></trkpt><trkpt lat="46.1235833" lon="13.4392637"><ele>353.0</ele><time>2026-05-02T14:07:58.468Z</time></trkpt><trkpt lat="46.1234732" lon="13.4392378"><ele>353.0</ele><time>2026-05-02T14:08:00.469Z</time></trkpt><trkpt lat="46.1233592" lon="13.4392133"><ele>353.0</ele><time>2026-05-02T14:08:02.47Z</time></trkpt><trkpt lat="46.1232623" lon="13.4391858"><ele>353.0</ele><time>2026-05-02T14:08:04.47Z</time></trkpt><trkpt lat="46.1231688" lon="13.4391345"><ele>353.0</ele><time>2026-05-02T14:08:06.469Z</time></trkpt><trkpt lat="46.1229725" lon="13.439093"><ele>353.4</ele><time>2026-05-02T14:08:10.468Z</time></trkpt><trkpt lat="46.1228603" lon="13.4390807"><ele>353.79999999999995</ele><time>2026-05-02T14:08:12.47Z</time></trkpt><trkpt lat="46.1227403" lon="13.4390583"><ele>354.2</ele><time>2026-05-02T14:08:14.468Z</time></trkpt><trkpt lat="46.1226442" lon="13.4390288"><ele>354.6</ele><time>2026-05-02T14:08:16.468Z</time></trkpt><trkpt lat="46.1225538" lon="13.4390037"><ele>355.0</ele><time>2026-05-02T14:08:18.469Z</time></trkpt><trkpt lat="46.1224505" lon="13.4389838"><ele>355.16666666666663</ele><time>2026-05-02T14:08:20.468Z</time></trkpt><trkpt lat="46.1223358" lon="13.4389737"><ele>355.3333333333333</ele><time>2026-05-02T14:08:22.469Z</time></trkpt><trkpt lat="46.122269" lon="13.4389773"><ele>355.5</ele><time>2026-05-02T14:08:23.469Z</time></trkpt><trkpt lat="46.122197" lon="13.438973"><ele>355.6666666666667</ele><time>2026-05-02T14:08:24.469Z</time></trkpt><trkpt lat="46.1220992" lon="13.4389473"><ele>355.83333333333337</ele><time>2026-05-02T14:08:26.468Z</time></trkpt><trkpt lat="46.1220343" lon="13.4388885"><ele>356.0</ele><time>2026-05-02T14:08:27.868Z</time></trkpt><trkpt lat="46.1218593" lon="13.4387735"><ele>351.6</ele><time>2026-05-02T14:08:31.468Z</time></trkpt><trkpt lat="46.1217487" lon="13.4387532"><ele>347.20000000000005</ele><time>2026-05-02T14:08:33.467Z</time></trkpt><trkpt lat="46.121651" lon="13.4387528"><ele>342.79999999999995</ele><time>2026-05-02T14:08:35.466Z</time></trkpt><trkpt lat="46.121569" lon="13.4387145"><ele>338.4</ele><time>2026-05-02T14:08:37.469Z</time></trkpt><trkpt lat="46.1214805" lon="13.4386353"><ele>334.0</ele><time>2026-05-02T14:08:39.468Z</time></trkpt><trkpt lat="46.1214178" lon="13.4385125"><ele>334.0</ele><time>2026-05-02T14:08:41.468Z</time></trkpt><trkpt lat="46.1213528" lon="13.4384217"><ele>334.0</ele><time>2026-05-02T14:08:43.468Z</time></trkpt><trkpt lat="46.1212842" lon="13.4383827"><ele>334.0</ele><time>2026-05-02T14:08:45.469Z</time></trkpt><trkpt lat="46.121182" lon="13.4383473"><ele>334.0</ele><time>2026-05-02T14:08:47.468Z</time></trkpt><trkpt lat="46.1211207" lon="13.4383217"><ele>334.0</ele><time>2026-05-02T14:08:48.469Z</time></trkpt><trkpt lat="46.1209852" lon="13.4381778"><ele>334.0</ele><time>2026-05-02T14:08:51.469Z</time></trkpt><trkpt lat="46.120926" lon="13.4380043"><ele>334.0</ele><time>2026-05-02T14:08:53.469Z</time></trkpt><trkpt lat="46.1209048" lon="13.4379158"><ele>334.0</ele><time>2026-05-02T14:08:54.47Z</time></trkpt><trkpt lat="46.120897" lon="13.4377478"><ele>334.0</ele><time>2026-05-02T14:08:56.47Z</time></trkpt><trkpt lat="46.1209038" lon="13.437656"><ele>334.0</ele><time>2026-05-02T14:08:57.467Z</time></trkpt><trkpt lat="46.120886" lon="13.4375602"><ele>334.0</ele><time>2026-05-02T14:08:58.468Z</time></trkpt><trkpt lat="46.1208725" lon="13.4374663"><ele>331.85714285714283</ele><time>2026-05-02T14:08:59.468Z</time></trkpt><trkpt lat="46.1208502" lon="13.4373733"><ele>329.7142857142857</ele><time>2026-05-02T14:09:00.468Z</time></trkpt><trkpt lat="46.1208" lon="13.4372782"><ele>327.57142857142856</ele><time>2026-05-02T14:09:01.469Z</time></trkpt><trkpt lat="46.1207575" lon="13.4371843"><ele>325.42857142857144</ele><time>2026-05-02T14:09:02.469Z</time></trkpt><trkpt lat="46.1207342" lon="13.4370928"><ele>323.2857142857143</ele><time>2026-05-02T14:09:03.47Z</time></trkpt><trkpt lat="46.1207003" lon="13.436989"><ele>321.14285714285717</ele><time>2026-05-02T14:09:04.469Z</time></trkpt><trkpt lat="46.1206757" lon="13.4368913"><ele>319.0</ele><time>2026-05-02T14:09:05.469Z</time></trkpt><trkpt lat="46.120657" lon="13.4367955"><ele>319.0</ele><time>2026-05-02T14:09:06.47Z</time></trkpt><trkpt lat="46.120614" lon="13.436626"><ele>319.0</ele><time>2026-05-02T14:09:08.472Z</time></trkpt><trkpt lat="46.1205607" lon="13.43655"><ele>319.0</ele><time>2026-05-02T14:09:09.471Z</time></trkpt><trkpt lat="46.120436" lon="13.43635"><ele>319.0</ele><time>2026-05-02T14:09:12.47Z</time></trkpt><trkpt lat="46.1203493" lon="13.4362495"><ele>315.16666666666663</ele><time>2026-05-02T14:09:14.471Z</time></trkpt><trkpt lat="46.1202702" lon="13.4362042"><ele>311.3333333333333</ele><time>2026-05-02T14:09:16.47Z</time></trkpt><trkpt lat="46.120157" lon="13.4361928"><ele>307.5</ele><time>2026-05-02T14:09:18.47Z</time></trkpt><trkpt lat="46.1200925" lon="13.4362082"><ele>303.6666666666667</ele><time>2026-05-02T14:09:19.471Z</time></trkpt><trkpt lat="46.1200302" lon="13.4362293"><ele>299.83333333333337</ele><time>2026-05-02T14:09:20.471Z</time></trkpt><trkpt lat="46.1199563" lon="13.4362368"><ele>296.0</ele><time>2026-05-02T14:09:21.469Z</time></trkpt><trkpt lat="46.1198882" lon="13.4362507"><ele>297.33333333333337</ele><time>2026-05-02T14:09:22.469Z</time></trkpt><trkpt lat="46.1198163" lon="13.4362643"><ele>298.6666666666667</ele><time>2026-05-02T14:09:23.469Z</time></trkpt><trkpt lat="46.1197528" lon="13.4362907"><ele>300.0</ele><time>2026-05-02T14:09:24.469Z</time></trkpt><trkpt lat="46.119663" lon="13.4363132"><ele>301.3333333333333</ele><time>2026-05-02T14:09:25.47Z</time></trkpt><trkpt lat="46.1195905" lon="13.4363383"><ele>302.66666666666663</ele><time>2026-05-02T14:09:26.47Z</time></trkpt><trkpt lat="46.119518" lon="13.4363618"><ele>304.0</ele><time>2026-05-02T14:09:27.47Z</time></trkpt><trkpt lat="46.1194402" lon="13.436387"><ele>304.0</ele><time>2026-05-02T14:09:28.47Z</time></trkpt><trkpt lat="46.1193667" lon="13.4364037"><ele>304.0</ele><time>2026-05-02T14:09:29.47Z</time></trkpt><trkpt lat="46.1193" lon="13.436426"><ele>304.0</ele><time>2026-05-02T14:09:30.471Z</time></trkpt><trkpt lat="46.1192323" lon="13.4364485"><ele>304.0</ele><time>2026-05-02T14:09:31.47Z</time></trkpt><trkpt lat="46.1190422" lon="13.4365302"><ele>304.0</ele><time>2026-05-02T14:09:34.47Z</time></trkpt><trkpt lat="46.1189382" lon="13.4365922"><ele>301.59999999999997</ele><time>2026-05-02T14:09:36.472Z</time></trkpt><trkpt lat="46.1188415" lon="13.4366257"><ele>299.2</ele><time>2026-05-02T14:09:38.47Z</time></trkpt><trkpt lat="46.118746" lon="13.4366263"><ele>296.79999999999995</ele><time>2026-05-02T14:09:40.471Z</time></trkpt><trkpt lat="46.118651" lon="13.4366107"><ele>294.4</ele><time>2026-05-02T14:09:42.47Z</time></trkpt><trkpt lat="46.1185592" lon="13.4365653"><ele>292.0</ele><time>2026-05-02T14:09:44.471Z</time></trkpt><trkpt lat="46.1184693" lon="13.4365295"><ele>292.0</ele><time>2026-05-02T14:09:46.468Z</time></trkpt><trkpt lat="46.1183507" lon="13.4364758"><ele>292.0</ele><time>2026-05-02T14:09:48.469Z</time></trkpt><trkpt lat="46.1182903" lon="13.4364453"><ele>292.0</ele><time>2026-05-02T14:09:49.469Z</time></trkpt><trkpt lat="46.118229" lon="13.4364143"><ele>292.0</ele><time>2026-05-02T14:09:50.47Z</time></trkpt><trkpt lat="46.1181657" lon="13.4363777"><ele>292.0</ele><time>2026-05-02T14:09:51.47Z</time></trkpt><trkpt lat="46.1181037" lon="13.4363535"><ele>292.0</ele><time>2026-05-02T14:09:52.471Z</time></trkpt><trkpt lat="46.1179592" lon="13.4363252"><ele>291.8333333333333</ele><time>2026-05-02T14:09:54.47Z</time></trkpt><trkpt lat="46.1178817" lon="13.4363312"><ele>291.66666666666663</ele><time>2026-05-02T14:09:55.469Z</time></trkpt><trkpt lat="46.1178117" lon="13.4363225"><ele>291.5</ele><time>2026-05-02T14:09:56.469Z</time></trkpt><trkpt lat="46.117746" lon="13.4362915"><ele>291.3333333333333</ele><time>2026-05-02T14:09:57.47Z</time></trkpt><trkpt lat="46.1176308" lon="13.4362087"><ele>291.1666666666667</ele><time>2026-05-02T14:09:59.469Z</time></trkpt><trkpt lat="46.11757" lon="13.4361403"><ele>291.0</ele><time>2026-05-02T14:10:00.469Z</time></trkpt><trkpt lat="46.1175023" lon="13.4360625"><ele>291.1666666666667</ele><time>2026-05-02T14:10:01.47Z</time></trkpt><trkpt lat="46.1174478" lon="13.435971"><ele>291.3333333333333</ele><time>2026-05-02T14:10:02.47Z</time></trkpt><trkpt lat="46.1173938" lon="13.4358785"><ele>291.5</ele><time>2026-05-02T14:10:03.471Z</time></trkpt><trkpt lat="46.117345" lon="13.4357913"><ele>291.66666666666663</ele><time>2026-05-02T14:10:04.471Z</time></trkpt><trkpt lat="46.117286" lon="13.435708"><ele>291.8333333333333</ele><time>2026-05-02T14:10:05.471Z</time></trkpt><trkpt lat="46.1172365" lon="13.4356303"><ele>292.0</ele><time>2026-05-02T14:10:06.47Z</time></trkpt><trkpt lat="46.1171738" lon="13.435556"><ele>292.0</ele><time>2026-05-02T14:10:07.47Z</time></trkpt><trkpt lat="46.1171033" lon="13.4354907"><ele>292.0</ele><time>2026-05-02T14:10:08.47Z</time></trkpt><trkpt lat="46.1170277" lon="13.4354238"><ele>292.0</ele><time>2026-05-02T14:10:09.47Z</time></trkpt><trkpt lat="46.1169573" lon="13.4353595"><ele>292.0</ele><time>2026-05-02T14:10:10.468Z</time></trkpt><trkpt lat="46.1168893" lon="13.4353167"><ele>292.0</ele><time>2026-05-02T14:10:11.468Z</time></trkpt><trkpt lat="46.1168193" lon="13.43527"><ele>292.0</ele><time>2026-05-02T14:10:12.468Z</time></trkpt><trkpt lat="46.1167517" lon="13.4352313"><ele>292.6</ele><time>2026-05-02T14:10:13.468Z</time></trkpt><trkpt lat="46.1166128" lon="13.4351542"><ele>293.2</ele><time>2026-05-02T14:10:15.469Z</time></trkpt><trkpt lat="46.1164927" lon="13.4350828"><ele>293.8</ele><time>2026-05-02T14:10:17.471Z</time></trkpt><trkpt lat="46.1164387" lon="13.4350355"><ele>294.4</ele><time>2026-05-02T14:10:18.471Z</time></trkpt><trkpt lat="46.1163835" lon="13.4349815"><ele>295.0</ele><time>2026-05-02T14:10:19.47Z</time></trkpt><trkpt lat="46.1163297" lon="13.4349245"><ele>295.0</ele><time>2026-05-02T14:10:20.47Z</time></trkpt><trkpt lat="46.1162648" lon="13.4348427"><ele>295.0</ele><time>2026-05-02T14:10:21.47Z</time></trkpt><trkpt lat="46.1162278" lon="13.4347538"><ele>295.0</ele><time>2026-05-02T14:10:22.47Z</time></trkpt><trkpt lat="46.1161967" lon="13.4346482"><ele>295.0</ele><time>2026-05-02T14:10:23.471Z</time></trkpt><trkpt lat="46.1161755" lon="13.4345403"><ele>295.0</ele><time>2026-05-02T14:10:24.47Z</time></trkpt><trkpt lat="46.1161522" lon="13.4344203"><ele>295.0</ele><time>2026-05-02T14:10:25.47Z</time></trkpt><trkpt lat="46.1161347" lon="13.4342907"><ele>293.0</ele><time>2026-05-02T14:10:26.47Z</time></trkpt><trkpt lat="46.116092" lon="13.4341733"><ele>291.0</ele><time>2026-05-02T14:10:27.47Z</time></trkpt><trkpt lat="46.116048" lon="13.4340623"><ele>289.0</ele><time>2026-05-02T14:10:28.469Z</time></trkpt><trkpt lat="46.1160042" lon="13.433949"><ele>287.0</ele><time>2026-05-02T14:10:29.469Z</time></trkpt><trkpt lat="46.1159738" lon="13.4338452"><ele>285.0</ele><time>2026-05-02T14:10:30.468Z</time></trkpt><trkpt lat="46.1159515" lon="13.4337578"><ele>283.0</ele><time>2026-05-02T14:10:31.469Z</time></trkpt><trkpt lat="46.1158675" lon="13.43363"><ele>285.8</ele><time>2026-05-02T14:10:33.469Z</time></trkpt><trkpt lat="46.1158063" lon="13.4335865"><ele>288.6</ele><time>2026-05-02T14:10:34.468Z</time></trkpt><trkpt lat="46.11574" lon="13.4335533"><ele>291.4</ele><time>2026-05-02T14:10:35.467Z</time></trkpt><trkpt lat="46.1155843" lon="13.4334195"><ele>294.2</ele><time>2026-05-02T14:10:38.468Z</time></trkpt><trkpt lat="46.1155333" lon="13.4333243"><ele>297.0</ele><time>2026-05-02T14:10:39.47Z</time></trkpt><trkpt lat="46.1154943" lon="13.4332113"><ele>297.0</ele><time>2026-05-02T14:10:40.469Z</time></trkpt><trkpt lat="46.1154553" lon="13.4330915"><ele>297.0</ele><time>2026-05-02T14:10:41.469Z</time></trkpt><trkpt lat="46.1154155" lon="13.4329712"><ele>297.0</ele><time>2026-05-02T14:10:42.469Z</time></trkpt><trkpt lat="46.1153797" lon="13.4328618"><ele>297.0</ele><time>2026-05-02T14:10:43.469Z</time></trkpt><trkpt lat="46.115351" lon="13.4327695"><ele>297.0</ele><time>2026-05-02T14:10:44.469Z</time></trkpt><trkpt lat="46.1153055" lon="13.4326868"><ele>297.0</ele><time>2026-05-02T14:10:45.47Z</time></trkpt><trkpt lat="46.1152507" lon="13.4325045"><ele>293.2</ele><time>2026-05-02T14:10:47.469Z</time></trkpt><trkpt lat="46.115221" lon="13.4324198"><ele>289.4</ele><time>2026-05-02T14:10:48.469Z</time></trkpt><trkpt lat="46.115205" lon="13.4323282"><ele>285.6</ele><time>2026-05-02T14:10:49.469Z</time></trkpt><trkpt lat="46.1151878" lon="13.432177"><ele>281.8</ele><time>2026-05-02T14:10:51.47Z</time></trkpt><trkpt lat="46.1151778" lon="13.4320195"><ele>278.0</ele><time>2026-05-02T14:10:53.471Z</time></trkpt><trkpt lat="46.1152132" lon="13.4318477"><ele>276.75</ele><time>2026-05-02T14:10:55.468Z</time></trkpt><trkpt lat="46.1152293" lon="13.4316853"><ele>275.5</ele><time>2026-05-02T14:10:57.471Z</time></trkpt><trkpt lat="46.1152547" lon="13.4314243"><ele>274.25</ele><time>2026-05-02T14:10:59.467Z</time></trkpt><trkpt lat="46.1152798" lon="13.4312687"><ele>273.0</ele><time>2026-05-02T14:11:00.468Z</time></trkpt><trkpt lat="46.1152983" lon="13.4311533"><ele>271.8</ele><time>2026-05-02T14:11:01.467Z</time></trkpt><trkpt lat="46.1152752" lon="13.4309975"><ele>270.6</ele><time>2026-05-02T14:11:03.469Z</time></trkpt><trkpt lat="46.1152495" lon="13.4309083"><ele>269.4</ele><time>2026-05-02T14:11:04.468Z</time></trkpt><trkpt lat="46.1152025" lon="13.4308433"><ele>268.2</ele><time>2026-05-02T14:11:05.468Z</time></trkpt><trkpt lat="46.1150945" lon="13.4307927"><ele>267.0</ele><time>2026-05-02T14:11:07.468Z</time></trkpt><trkpt lat="46.1149607" lon="13.430771"><ele>267.2</ele><time>2026-05-02T14:11:09.47Z</time></trkpt><trkpt lat="46.1148893" lon="13.4307555"><ele>267.4</ele><time>2026-05-02T14:11:10.47Z</time></trkpt><trkpt lat="46.1148207" lon="13.4307282"><ele>267.6</ele><time>2026-05-02T14:11:11.469Z</time></trkpt><trkpt lat="46.11474" lon="13.4307155"><ele>267.8</ele><time>2026-05-02T14:11:12.47Z</time></trkpt><trkpt lat="46.1146263" lon="13.4307313"><ele>268.0</ele><time>2026-05-02T14:11:14.47Z</time></trkpt><trkpt lat="46.1145182" lon="13.4307942"><ele>268.0</ele><time>2026-05-02T14:11:16.487Z</time></trkpt><trkpt lat="46.1144435" lon="13.4308558"><ele>268.0</ele><time>2026-05-02T14:11:18.47Z</time></trkpt><trkpt lat="46.1142995" lon="13.4310312"><ele>268.0</ele><time>2026-05-02T14:11:22.47Z</time></trkpt><trkpt lat="46.1142172" lon="13.4311092"><ele>268.0</ele><time>2026-05-02T14:11:24.467Z</time></trkpt><trkpt lat="46.1141482" lon="13.4311448"><ele>268.0</ele><time>2026-05-02T14:11:25.467Z</time></trkpt><trkpt lat="46.1140343" lon="13.431166"><ele>264.6</ele><time>2026-05-02T14:11:27.469Z</time></trkpt><trkpt lat="46.1139387" lon="13.4311822"><ele>261.20000000000005</ele><time>2026-05-02T14:11:29.468Z</time></trkpt><trkpt lat="46.1138555" lon="13.4312217"><ele>257.8</ele><time>2026-05-02T14:11:31.468Z</time></trkpt><trkpt lat="46.1137733" lon="13.4312778"><ele>254.4</ele><time>2026-05-02T14:11:33.469Z</time></trkpt><trkpt lat="46.1136758" lon="13.4312725"><ele>251.0</ele><time>2026-05-02T14:11:35.468Z</time></trkpt><trkpt lat="46.1135935" lon="13.4312097"><ele>251.0</ele><time>2026-05-02T14:11:37.469Z</time></trkpt><trkpt lat="46.1134822" lon="13.431104"><ele>251.0</ele><time>2026-05-02T14:11:39.468Z</time></trkpt><trkpt lat="46.1132967" lon="13.4309895"><ele>251.0</ele><time>2026-05-02T14:11:42.47Z</time></trkpt><trkpt lat="46.1131518" lon="13.430975"><ele>250.8</ele><time>2026-05-02T14:11:44.469Z</time></trkpt><trkpt lat="46.1130793" lon="13.4309738"><ele>250.60000000000002</ele><time>2026-05-02T14:11:45.469Z</time></trkpt><trkpt lat="46.1130125" lon="13.430978"><ele>250.4</ele><time>2026-05-02T14:11:46.469Z</time></trkpt><trkpt lat="46.1129062" lon="13.4309387"><ele>250.2</ele><time>2026-05-02T14:11:48.467Z</time></trkpt><trkpt lat="46.112822" lon="13.4308522"><ele>250.0</ele><time>2026-05-02T14:11:50.467Z</time></trkpt><trkpt lat="46.1127162" lon="13.4307075"><ele>250.0</ele><time>2026-05-02T14:11:52.469Z</time></trkpt><trkpt lat="46.1126568" lon="13.4306288"><ele>250.0</ele><time>2026-05-02T14:11:53.468Z</time></trkpt><trkpt lat="46.1126072" lon="13.4305557"><ele>250.0</ele><time>2026-05-02T14:11:54.47Z</time></trkpt><trkpt lat="46.1125203" lon="13.4304657"><ele>250.0</ele><time>2026-05-02T14:11:56.469Z</time></trkpt><trkpt lat="46.1124352" lon="13.4303807"><ele>250.0</ele><time>2026-05-02T14:11:58.469Z</time></trkpt><trkpt lat="46.1123553" lon="13.4302875"><ele>248.8</ele><time>2026-05-02T14:12:00.469Z</time></trkpt><trkpt lat="46.112224" lon="13.4301657"><ele>247.6</ele><time>2026-05-02T14:12:02.469Z</time></trkpt><trkpt lat="46.1121557" lon="13.4300888"><ele>246.39999999999998</ele><time>2026-05-02T14:12:03.47Z</time></trkpt><trkpt lat="46.1120908" lon="13.4300175"><ele>245.2</ele><time>2026-05-02T14:12:04.471Z</time></trkpt><trkpt lat="46.1120088" lon="13.4299535"><ele>244.0</ele><time>2026-05-02T14:12:05.469Z</time></trkpt><trkpt lat="46.1119198" lon="13.4298952"><ele>243.99999999999997</ele><time>2026-05-02T14:12:06.47Z</time></trkpt><trkpt lat="46.1118365" lon="13.4298333"><ele>244.0</ele><time>2026-05-02T14:12:07.469Z</time></trkpt><trkpt lat="46.1117607" lon="13.4297728"><ele>244.0</ele><time>2026-05-02T14:12:08.47Z</time></trkpt><trkpt lat="46.1116865" lon="13.4297158"><ele>244.0</ele><time>2026-05-02T14:12:09.47Z</time></trkpt><trkpt lat="46.1116207" lon="13.4296688"><ele>243.99999999999997</ele><time>2026-05-02T14:12:10.47Z</time></trkpt><trkpt lat="46.1115503" lon="13.429631"><ele>244.0</ele><time>2026-05-02T14:12:11.47Z</time></trkpt><trkpt lat="46.111478" lon="13.429596"><ele>243.0</ele><time>2026-05-02T14:12:12.468Z</time></trkpt><trkpt lat="46.1114092" lon="13.4295668"><ele>241.99999999999997</ele><time>2026-05-02T14:12:13.468Z</time></trkpt><trkpt lat="46.1113422" lon="13.4295302"><ele>240.99999999999997</ele><time>2026-05-02T14:12:14.468Z</time></trkpt><trkpt lat="46.1112208" lon="13.4294465"><ele>240.0</ele><time>2026-05-02T14:12:16.469Z</time></trkpt><trkpt lat="46.1110905" lon="13.4293202"><ele>239.0</ele><time>2026-05-02T14:12:19.469Z</time></trkpt><trkpt lat="46.1110083" lon="13.4292223"><ele>239.0</ele><time>2026-05-02T14:12:21.47Z</time></trkpt><trkpt lat="46.1109748" lon="13.4289477"><ele>239.0</ele><time>2026-05-02T14:12:25.471Z</time></trkpt><trkpt lat="46.1109483" lon="13.4288483"><ele>239.0</ele><time>2026-05-02T14:12:27.472Z</time></trkpt><trkpt lat="46.1110082" lon="13.4287428"><ele>239.0</ele><time>2026-05-02T14:12:30.469Z</time></trkpt><trkpt lat="46.1110733" lon="13.4286343"><ele>237.66666666666669</ele><time>2026-05-02T14:12:32.67Z</time></trkpt><trkpt lat="46.1110983" lon="13.4285202"><ele>236.33333333333334</ele><time>2026-05-02T14:12:34.275Z</time></trkpt><trkpt lat="46.1110888" lon="13.4283752"><ele>235.0</ele><time>2026-05-02T14:12:36.276Z</time></trkpt><trkpt lat="46.111048" lon="13.4282455"><ele>233.66666666666669</ele><time>2026-05-02T14:12:38.278Z</time></trkpt><trkpt lat="46.111009" lon="13.4281633"><ele>232.33333333333334</ele><time>2026-05-02T14:12:39.277Z</time></trkpt><trkpt lat="46.1109668" lon="13.4280653"><ele>231.0</ele><time>2026-05-02T14:12:40.279Z</time></trkpt><trkpt lat="46.1109278" lon="13.4279642"><ele>228.8</ele><time>2026-05-02T14:12:41.279Z</time></trkpt><trkpt lat="46.1108905" lon="13.4278652"><ele>226.60000000000002</ele><time>2026-05-02T14:12:42.278Z</time></trkpt><trkpt lat="46.110795" lon="13.4277237"><ele>224.4</ele><time>2026-05-02T14:12:44.278Z</time></trkpt><trkpt lat="46.110687" lon="13.4276755"><ele>222.2</ele><time>2026-05-02T14:12:46.276Z</time></trkpt><trkpt lat="46.1106195" lon="13.4276762"><ele>220.0</ele><time>2026-05-02T14:12:47.276Z</time></trkpt><trkpt lat="46.1105442" lon="13.4276947"><ele>219.99999999999997</ele><time>2026-05-02T14:12:48.276Z</time></trkpt><trkpt lat="46.1104745" lon="13.4276867"><ele>220.0</ele><time>2026-05-02T14:12:49.276Z</time></trkpt><trkpt lat="46.110405" lon="13.4276607"><ele>220.0</ele><time>2026-05-02T14:12:50.277Z</time></trkpt><trkpt lat="46.1103445" lon="13.427632"><ele>220.0</ele><time>2026-05-02T14:12:51.277Z</time></trkpt><trkpt lat="46.1102417" lon="13.427556"><ele>219.99999999999997</ele><time>2026-05-02T14:12:53.277Z</time></trkpt><trkpt lat="46.1101848" lon="13.427501"><ele>220.0</ele><time>2026-05-02T14:12:54.276Z</time></trkpt><trkpt lat="46.1101292" lon="13.4274505"><ele>220.0</ele><time>2026-05-02T14:12:55.278Z</time></trkpt><trkpt lat="46.1100348" lon="13.4273445"><ele>220.0</ele><time>2026-05-02T14:12:57.277Z</time></trkpt><trkpt lat="46.1099612" lon="13.4272022"><ele>220.0</ele><time>2026-05-02T14:12:59.471Z</time></trkpt><trkpt lat="46.1099317" lon="13.4271083"><ele>220.0</ele><time>2026-05-02T14:13:00.471Z</time></trkpt><trkpt lat="46.1099105" lon="13.4270177"><ele>220.0</ele><time>2026-05-02T14:13:01.469Z</time></trkpt><trkpt lat="46.1098878" lon="13.4268677"><ele>220.5</ele><time>2026-05-02T14:13:03.469Z</time></trkpt><trkpt lat="46.1098547" lon="13.4266063"><ele>221.0</ele><time>2026-05-02T14:13:07.469Z</time></trkpt><trkpt lat="46.1098517" lon="13.4264687"><ele>221.5</ele><time>2026-05-02T14:13:09.47Z</time></trkpt><trkpt lat="46.1098673" lon="13.4263165"><ele>222.0</ele><time>2026-05-02T14:13:11.469Z</time></trkpt><trkpt lat="46.1098755" lon="13.426207"><ele>222.0</ele><time>2026-05-02T14:13:13.47Z</time></trkpt><trkpt lat="46.1098567" lon="13.4261122"><ele>222.0</ele><time>2026-05-02T14:13:17.469Z</time></trkpt><trkpt lat="46.1098043" lon="13.4262075"><ele>222.0</ele><time>2026-05-02T14:13:31.469Z</time></trkpt><trkpt lat="46.1097702" lon="13.4264935"><ele>222.0</ele><time>2026-05-02T14:13:35.47Z</time></trkpt><trkpt lat="46.1097897" lon="13.426668"><ele>222.0</ele><time>2026-05-02T14:13:37.469Z</time></trkpt><trkpt lat="46.1098167" lon="13.4267617"><ele>222.0</ele><time>2026-05-02T14:13:38.468Z</time></trkpt><trkpt lat="46.109835" lon="13.4268612"><ele>222.0</ele><time>2026-05-02T14:13:39.47Z</time></trkpt><trkpt lat="46.109861" lon="13.4269578"><ele>222.0</ele><time>2026-05-02T14:13:40.47Z</time></trkpt><trkpt lat="46.109888" lon="13.4270503"><ele>222.0</ele><time>2026-05-02T14:13:41.469Z</time></trkpt><trkpt lat="46.1099767" lon="13.427156"><ele>222.0</ele><time>2026-05-02T14:13:43.473Z</time></trkpt><trkpt lat="46.109945" lon="13.427246"><ele>222.0</ele><time>2026-05-02T14:14:12.47Z</time></trkpt><trkpt lat="46.1097882" lon="13.4271228"><ele>222.0</ele><time>2026-05-02T14:14:18.469Z</time></trkpt><trkpt lat="46.1097125" lon="13.4270458"><ele>222.0</ele><time>2026-05-02T14:14:20.47Z</time></trkpt><trkpt lat="46.1096168" lon="13.4269713"><ele>222.0</ele><time>2026-05-02T14:14:22.47Z</time></trkpt><trkpt lat="46.109538" lon="13.426924"><ele>222.0</ele><time>2026-05-02T14:14:24.472Z</time></trkpt><trkpt lat="46.1094628" lon="13.4268558"><ele>222.0</ele><time>2026-05-02T14:14:26.472Z</time></trkpt><trkpt lat="46.1093763" lon="13.4267915"><ele>222.0</ele><time>2026-05-02T14:14:28.471Z</time></trkpt><trkpt lat="46.1093103" lon="13.4267237"><ele>222.0</ele><time>2026-05-02T14:14:30.472Z</time></trkpt><trkpt lat="46.109243" lon="13.4266423"><ele>222.0</ele><time>2026-05-02T14:14:32.471Z</time></trkpt><trkpt lat="46.1091968" lon="13.4265293"><ele>222.0</ele><time>2026-05-02T14:14:34.471Z</time></trkpt><trkpt lat="46.1091277" lon="13.4262297"><ele>220.6</ele><time>2026-05-02T14:14:38.47Z</time></trkpt><trkpt lat="46.109053" lon="13.4261278"><ele>219.2</ele><time>2026-05-02T14:14:40.468Z</time></trkpt><trkpt lat="46.1089535" lon="13.426063"><ele>217.8</ele><time>2026-05-02T14:14:42.468Z</time></trkpt><trkpt lat="46.108846" lon="13.4259967"><ele>216.4</ele><time>2026-05-02T14:14:44.469Z</time></trkpt><trkpt lat="46.108788" lon="13.4259602"><ele>215.0</ele><time>2026-05-02T14:14:45.469Z</time></trkpt><trkpt lat="46.1087285" lon="13.425922"><ele>215.0</ele><time>2026-05-02T14:14:46.469Z</time></trkpt><trkpt lat="46.1086653" lon="13.4258832"><ele>215.0</ele><time>2026-05-02T14:14:47.469Z</time></trkpt><trkpt lat="46.1085402" lon="13.4258557"><ele>215.0</ele><time>2026-05-02T14:14:49.87Z</time></trkpt><trkpt lat="46.1084372" lon="13.4258422"><ele>215.0</ele><time>2026-05-02T14:14:51.469Z</time></trkpt><trkpt lat="46.1083587" lon="13.4258235"><ele>215.0</ele><time>2026-05-02T14:14:53.469Z</time></trkpt><trkpt lat="46.1082868" lon="13.4257698"><ele>213.5</ele><time>2026-05-02T14:14:55.468Z</time></trkpt><trkpt lat="46.1081402" lon="13.4256112"><ele>212.0</ele><time>2026-05-02T14:14:59.469Z</time></trkpt><trkpt lat="46.1080707" lon="13.4255033"><ele>210.5</ele><time>2026-05-02T14:15:01.47Z</time></trkpt><trkpt lat="46.108032" lon="13.4253548"><ele>209.0</ele><time>2026-05-02T14:15:03.47Z</time></trkpt><trkpt lat="46.1079843" lon="13.4252148"><ele>209.0</ele><time>2026-05-02T14:15:05.467Z</time></trkpt><trkpt lat="46.1079343" lon="13.4250798"><ele>209.0</ele><time>2026-05-02T14:15:07.468Z</time></trkpt><trkpt lat="46.1078843" lon="13.4249595"><ele>209.0</ele><time>2026-05-02T14:15:09.47Z</time></trkpt><trkpt lat="46.10783" lon="13.4248318"><ele>209.0</ele><time>2026-05-02T14:15:11.468Z</time></trkpt><trkpt lat="46.1077557" lon="13.4246913"><ele>209.0</ele><time>2026-05-02T14:15:13.469Z</time></trkpt><trkpt lat="46.1076692" lon="13.4245837"><ele>209.6</ele><time>2026-05-02T14:15:15.471Z</time></trkpt><trkpt lat="46.1076127" lon="13.4245083"><ele>210.2</ele><time>2026-05-02T14:15:17.473Z</time></trkpt><trkpt lat="46.1074665" lon="13.4243545"><ele>210.79999999999998</ele><time>2026-05-02T14:15:23.473Z</time></trkpt><trkpt lat="46.1073515" lon="13.4243232"><ele>211.39999999999998</ele><time>2026-05-02T14:15:25.473Z</time></trkpt><trkpt lat="46.1072812" lon="13.424323"><ele>212.0</ele><time>2026-05-02T14:15:26.472Z</time></trkpt><trkpt lat="46.1072015" lon="13.424327"><ele>210.8</ele><time>2026-05-02T14:15:27.472Z</time></trkpt><trkpt lat="46.107119" lon="13.4243342"><ele>209.6</ele><time>2026-05-02T14:15:28.47Z</time></trkpt><trkpt lat="46.1070257" lon="13.4243367"><ele>208.4</ele><time>2026-05-02T14:15:29.471Z</time></trkpt><trkpt lat="46.106929" lon="13.424345"><ele>207.20000000000002</ele><time>2026-05-02T14:15:30.472Z</time></trkpt><trkpt lat="46.1068302" lon="13.424363"><ele>206.0</ele><time>2026-05-02T14:15:31.471Z</time></trkpt><trkpt lat="46.1067317" lon="13.424389"><ele>206.0</ele><time>2026-05-02T14:15:32.472Z</time></trkpt><trkpt lat="46.1066395" lon="13.424428"><ele>206.0</ele><time>2026-05-02T14:15:33.474Z</time></trkpt><trkpt lat="46.106555" lon="13.4244928"><ele>206.0</ele><time>2026-05-02T14:15:34.476Z</time></trkpt><trkpt lat="46.10647" lon="13.4245628"><ele>206.0</ele><time>2026-05-02T14:15:35.474Z</time></trkpt><trkpt lat="46.1063805" lon="13.424623"><ele>206.0</ele><time>2026-05-02T14:15:36.475Z</time></trkpt><trkpt lat="46.106283" lon="13.4246602"><ele>208.0</ele><time>2026-05-02T14:15:37.472Z</time></trkpt><trkpt lat="46.1059748" lon="13.4247443"><ele>210.0</ele><time>2026-05-02T14:15:40.472Z</time></trkpt><trkpt lat="46.1058728" lon="13.4247838"><ele>212.0</ele><time>2026-05-02T14:15:41.472Z</time></trkpt><trkpt lat="46.1057692" lon="13.4248197"><ele>212.2</ele><time>2026-05-02T14:15:42.473Z</time></trkpt><trkpt lat="46.1056642" lon="13.4248387"><ele>212.39999999999998</ele><time>2026-05-02T14:15:43.473Z</time></trkpt><trkpt lat="46.1055595" lon="13.424829"><ele>212.60000000000002</ele><time>2026-05-02T14:15:44.473Z</time></trkpt><trkpt lat="46.1054563" lon="13.4248007"><ele>212.8</ele><time>2026-05-02T14:15:45.475Z</time></trkpt><trkpt lat="46.1053523" lon="13.424767"><ele>213.0</ele><time>2026-05-02T14:15:46.473Z</time></trkpt><trkpt lat="46.1052455" lon="13.4247418"><ele>213.0</ele><time>2026-05-02T14:15:47.472Z</time></trkpt><trkpt lat="46.1051317" lon="13.424728"><ele>213.0</ele><time>2026-05-02T14:15:48.473Z</time></trkpt><trkpt lat="46.1050107" lon="13.4247243"><ele>213.0</ele><time>2026-05-02T14:15:49.472Z</time></trkpt><trkpt lat="46.104887" lon="13.4247253"><ele>213.0</ele><time>2026-05-02T14:15:50.473Z</time></trkpt><trkpt lat="46.1047642" lon="13.4247133"><ele>212.25</ele><time>2026-05-02T14:15:51.474Z</time></trkpt><trkpt lat="46.1046415" lon="13.4246827"><ele>211.5</ele><time>2026-05-02T14:15:52.473Z</time></trkpt><trkpt lat="46.1045213" lon="13.4246442"><ele>210.75</ele><time>2026-05-02T14:15:53.47Z</time></trkpt><trkpt lat="46.1044018" lon="13.4246157"><ele>210.0</ele><time>2026-05-02T14:15:54.471Z</time></trkpt><trkpt lat="46.1042858" lon="13.4245982"><ele>207.2</ele><time>2026-05-02T14:15:55.469Z</time></trkpt><trkpt lat="46.1041828" lon="13.4245815"><ele>204.4</ele><time>2026-05-02T14:15:56.47Z</time></trkpt><trkpt lat="46.1040848" lon="13.4245492"><ele>201.60000000000002</ele><time>2026-05-02T14:15:57.471Z</time></trkpt><trkpt lat="46.1039873" lon="13.4245105"><ele>198.8</ele><time>2026-05-02T14:15:58.471Z</time></trkpt><trkpt lat="46.1038937" lon="13.4244717"><ele>196.0</ele><time>2026-05-02T14:15:59.47Z</time></trkpt><trkpt lat="46.1037138" lon="13.4244733"><ele>194.83333333333331</ele><time>2026-05-02T14:16:01.47Z</time></trkpt><trkpt lat="46.1036222" lon="13.4245098"><ele>193.66666666666666</ele><time>2026-05-02T14:16:02.47Z</time></trkpt><trkpt lat="46.1035488" lon="13.4245357"><ele>192.5</ele><time>2026-05-02T14:16:03.471Z</time></trkpt><trkpt lat="46.1034818" lon="13.4245355"><ele>191.33333333333331</ele><time>2026-05-02T14:16:04.469Z</time></trkpt><trkpt lat="46.1033543" lon="13.4245095"><ele>190.16666666666666</ele><time>2026-05-02T14:16:06.47Z</time></trkpt><trkpt lat="46.103292" lon="13.424541"><ele>189.0</ele><time>2026-05-02T14:16:07.469Z</time></trkpt><trkpt lat="46.103216" lon="13.4245722"><ele>187.83333333333334</ele><time>2026-05-02T14:16:08.47Z</time></trkpt><trkpt lat="46.1031382" lon="13.424579"><ele>186.66666666666666</ele><time>2026-05-02T14:16:09.47Z</time></trkpt><trkpt lat="46.1030572" lon="13.4245647"><ele>185.5</ele><time>2026-05-02T14:16:10.47Z</time></trkpt><trkpt lat="46.1029727" lon="13.4245205"><ele>184.33333333333331</ele><time>2026-05-02T14:16:11.47Z</time></trkpt><trkpt lat="46.102883" lon="13.424466"><ele>183.16666666666666</ele><time>2026-05-02T14:16:12.471Z</time></trkpt><trkpt lat="46.1027897" lon="13.424412"><ele>182.0</ele><time>2026-05-02T14:16:13.47Z</time></trkpt><trkpt lat="46.1026955" lon="13.424362"><ele>182.0</ele><time>2026-05-02T14:16:14.47Z</time></trkpt><trkpt lat="46.1026075" lon="13.4243183"><ele>182.0</ele><time>2026-05-02T14:16:15.469Z</time></trkpt><trkpt lat="46.1025305" lon="13.4242845"><ele>182.0</ele><time>2026-05-02T14:16:16.469Z</time></trkpt><trkpt lat="46.1024618" lon="13.4242687"><ele>182.0</ele><time>2026-05-02T14:16:17.467Z</time></trkpt><trkpt lat="46.1023943" lon="13.4242793"><ele>182.0</ele><time>2026-05-02T14:16:18.467Z</time></trkpt><trkpt lat="46.1023252" lon="13.4242738"><ele>182.0</ele><time>2026-05-02T14:16:19.467Z</time></trkpt><trkpt lat="46.102259" lon="13.4242433"><ele>180.39999999999998</ele><time>2026-05-02T14:16:20.467Z</time></trkpt><trkpt lat="46.1021153" lon="13.4241807"><ele>178.79999999999998</ele><time>2026-05-02T14:16:22.468Z</time></trkpt><trkpt lat="46.1020433" lon="13.4241505"><ele>177.2</ele><time>2026-05-02T14:16:23.669Z</time></trkpt><trkpt lat="46.1019407" lon="13.4241113"><ele>175.6</ele><time>2026-05-02T14:16:25.469Z</time></trkpt><trkpt lat="46.1018648" lon="13.4240862"><ele>174.0</ele><time>2026-05-02T14:16:26.47Z</time></trkpt><trkpt lat="46.1017795" lon="13.4240607"><ele>174.0</ele><time>2026-05-02T14:16:27.47Z</time></trkpt><trkpt lat="46.1016902" lon="13.4240252"><ele>174.0</ele><time>2026-05-02T14:16:28.472Z</time></trkpt><trkpt lat="46.1016032" lon="13.4239598"><ele>174.0</ele><time>2026-05-02T14:16:29.471Z</time></trkpt><trkpt lat="46.1015215" lon="13.4238683"><ele>174.0</ele><time>2026-05-02T14:16:30.471Z</time></trkpt><trkpt lat="46.1014398" lon="13.4237702"><ele>174.0</ele><time>2026-05-02T14:16:31.469Z</time></trkpt><trkpt lat="46.1013597" lon="13.4236707"><ele>172.79999999999998</ele><time>2026-05-02T14:16:32.469Z</time></trkpt><trkpt lat="46.1012797" lon="13.4235747"><ele>171.6</ele><time>2026-05-02T14:16:33.47Z</time></trkpt><trkpt lat="46.1011935" lon="13.4234912"><ele>170.4</ele><time>2026-05-02T14:16:34.471Z</time></trkpt><trkpt lat="46.1011028" lon="13.4234343"><ele>169.2</ele><time>2026-05-02T14:16:35.468Z</time></trkpt><trkpt lat="46.1010092" lon="13.4234065"><ele>168.0</ele><time>2026-05-02T14:16:36.47Z</time></trkpt><trkpt lat="46.1009118" lon="13.4234115"><ele>168.0</ele><time>2026-05-02T14:16:37.47Z</time></trkpt><trkpt lat="46.1008147" lon="13.4234515"><ele>168.0</ele><time>2026-05-02T14:16:38.47Z</time></trkpt><trkpt lat="46.1007245" lon="13.4235375"><ele>168.0</ele><time>2026-05-02T14:16:39.471Z</time></trkpt><trkpt lat="46.1006423" lon="13.4236493"><ele>168.0</ele><time>2026-05-02T14:16:40.471Z</time></trkpt><trkpt lat="46.1005638" lon="13.4237775"><ele>168.0</ele><time>2026-05-02T14:16:41.47Z</time></trkpt><trkpt lat="46.1004052" lon="13.424047"><ele>164.0</ele><time>2026-05-02T14:16:43.468Z</time></trkpt><trkpt lat="46.1003387" lon="13.4241935"><ele>160.0</ele><time>2026-05-02T14:16:44.469Z</time></trkpt><trkpt lat="46.1002865" lon="13.4243488"><ele>156.0</ele><time>2026-05-02T14:16:45.469Z</time></trkpt><trkpt lat="46.1002532" lon="13.424516"><ele>152.0</ele><time>2026-05-02T14:16:46.468Z</time></trkpt><trkpt lat="46.1002293" lon="13.4246925"><ele>151.25</ele><time>2026-05-02T14:16:47.468Z</time></trkpt><trkpt lat="46.100208" lon="13.4248772"><ele>150.5</ele><time>2026-05-02T14:16:48.468Z</time></trkpt><trkpt lat="46.1001812" lon="13.4250598"><ele>149.75</ele><time>2026-05-02T14:16:49.468Z</time></trkpt><trkpt lat="46.1001615" lon="13.4252433"><ele>149.0</ele><time>2026-05-02T14:16:50.469Z</time></trkpt><trkpt lat="46.1001573" lon="13.4254277"><ele>148.5</ele><time>2026-05-02T14:16:51.469Z</time></trkpt><trkpt lat="46.1001737" lon="13.4256075"><ele>148.0</ele><time>2026-05-02T14:16:52.47Z</time></trkpt><trkpt lat="46.1001937" lon="13.4257817"><ele>147.5</ele><time>2026-05-02T14:16:53.47Z</time></trkpt><trkpt lat="46.1002043" lon="13.4259537"><ele>147.0</ele><time>2026-05-02T14:16:54.472Z</time></trkpt><trkpt lat="46.100203" lon="13.4261177"><ele>147.0</ele><time>2026-05-02T14:16:55.471Z</time></trkpt><trkpt lat="46.1001793" lon="13.4262778"><ele>147.0</ele><time>2026-05-02T14:16:56.471Z</time></trkpt><trkpt lat="46.100129" lon="13.4264287"><ele>147.0</ele><time>2026-05-02T14:16:57.472Z</time></trkpt><trkpt lat="46.1000548" lon="13.4265698"><ele>147.0</ele><time>2026-05-02T14:16:58.472Z</time></trkpt><trkpt lat="46.0999668" lon="13.4267035"><ele>144.25</ele><time>2026-05-02T14:16:59.471Z</time></trkpt><trkpt lat="46.0998793" lon="13.426832"><ele>141.5</ele><time>2026-05-02T14:17:00.473Z</time></trkpt><trkpt lat="46.0997998" lon="13.4269477"><ele>138.75</ele><time>2026-05-02T14:17:01.471Z</time></trkpt><trkpt lat="46.099719" lon="13.427041"><ele>136.0</ele><time>2026-05-02T14:17:02.472Z</time></trkpt><trkpt lat="46.0995367" lon="13.427138"><ele>136.0</ele><time>2026-05-02T14:17:04.472Z</time></trkpt><trkpt lat="46.099433" lon="13.4271513"><ele>136.0</ele><time>2026-05-02T14:17:05.472Z</time></trkpt><trkpt lat="46.099326" lon="13.4271358"><ele>136.0</ele><time>2026-05-02T14:17:06.471Z</time></trkpt><trkpt lat="46.0992193" lon="13.4270987"><ele>136.0</ele><time>2026-05-02T14:17:07.47Z</time></trkpt><trkpt lat="46.0991118" lon="13.4270568"><ele>136.0</ele><time>2026-05-02T14:17:08.471Z</time></trkpt><trkpt lat="46.0990053" lon="13.4270213"><ele>135.8</ele><time>2026-05-02T14:17:09.47Z</time></trkpt><trkpt lat="46.0989012" lon="13.4269867"><ele>135.6</ele><time>2026-05-02T14:17:10.471Z</time></trkpt><trkpt lat="46.098795" lon="13.4269478"><ele>135.4</ele><time>2026-05-02T14:17:11.472Z</time></trkpt><trkpt lat="46.098688" lon="13.4269087"><ele>135.2</ele><time>2026-05-02T14:17:12.472Z</time></trkpt><trkpt lat="46.0985818" lon="13.4268728"><ele>135.0</ele><time>2026-05-02T14:17:13.472Z</time></trkpt><trkpt lat="46.0984795" lon="13.4268323"><ele>135.0</ele><time>2026-05-02T14:17:14.474Z</time></trkpt><trkpt lat="46.0983835" lon="13.4267828"><ele>135.0</ele><time>2026-05-02T14:17:15.473Z</time></trkpt><trkpt lat="46.0982938" lon="13.4267297"><ele>135.0</ele><time>2026-05-02T14:17:16.473Z</time></trkpt><trkpt lat="46.0982123" lon="13.4266792"><ele>135.0</ele><time>2026-05-02T14:17:17.471Z</time></trkpt><trkpt lat="46.0981377" lon="13.4266272"><ele>135.0</ele><time>2026-05-02T14:17:18.472Z</time></trkpt><trkpt lat="46.0980703" lon="13.4265737"><ele>135.0</ele><time>2026-05-02T14:17:19.469Z</time></trkpt><trkpt lat="46.0980097" lon="13.4265263"><ele>135.2</ele><time>2026-05-02T14:17:20.47Z</time></trkpt><trkpt lat="46.0979148" lon="13.4264538"><ele>135.4</ele><time>2026-05-02T14:17:22.471Z</time></trkpt><trkpt lat="46.0978343" lon="13.4263908"><ele>135.6</ele><time>2026-05-02T14:17:24.47Z</time></trkpt><trkpt lat="46.0977" lon="13.4263492"><ele>135.8</ele><time>2026-05-02T14:17:29.472Z</time></trkpt><trkpt lat="46.0976337" lon="13.426412"><ele>136.0</ele><time>2026-05-02T14:17:31.471Z</time></trkpt><trkpt lat="46.0975152" lon="13.4265088"><ele>136.0</ele><time>2026-05-02T14:17:33.47Z</time></trkpt><trkpt lat="46.0974348" lon="13.4265415"><ele>136.0</ele><time>2026-05-02T14:17:34.47Z</time></trkpt><trkpt lat="46.097344" lon="13.4265743"><ele>136.0</ele><time>2026-05-02T14:17:35.471Z</time></trkpt><trkpt lat="46.097244" lon="13.426614"><ele>136.0</ele><time>2026-05-02T14:17:36.471Z</time></trkpt><trkpt lat="46.0971387" lon="13.4266577"><ele>136.0</ele><time>2026-05-02T14:17:37.473Z</time></trkpt><trkpt lat="46.0970305" lon="13.4267037"><ele>135.8</ele><time>2026-05-02T14:17:38.472Z</time></trkpt><trkpt lat="46.096919" lon="13.42675"><ele>135.6</ele><time>2026-05-02T14:17:39.473Z</time></trkpt><trkpt lat="46.09681" lon="13.4267938"><ele>135.4</ele><time>2026-05-02T14:17:40.472Z</time></trkpt><trkpt lat="46.096717" lon="13.4268287"><ele>135.2</ele><time>2026-05-02T14:17:41.472Z</time></trkpt><trkpt lat="46.0966375" lon="13.426856"><ele>135.0</ele><time>2026-05-02T14:17:42.476Z</time></trkpt><trkpt lat="46.0965723" lon="13.4268778"><ele>134.75</ele><time>2026-05-02T14:17:43.472Z</time></trkpt><trkpt lat="46.0964725" lon="13.4269175"><ele>134.5</ele><time>2026-05-02T14:17:45.472Z</time></trkpt><trkpt lat="46.0962543" lon="13.4270383"><ele>134.25</ele><time>2026-05-02T14:17:49.471Z</time></trkpt><trkpt lat="46.096189" lon="13.4270693"><ele>134.0</ele><time>2026-05-02T14:17:50.471Z</time></trkpt><trkpt lat="46.0960775" lon="13.4270862"><ele>134.0</ele><time>2026-05-02T14:17:52.472Z</time></trkpt><trkpt lat="46.0959537" lon="13.4270265"><ele>134.0</ele><time>2026-05-02T14:17:54.473Z</time></trkpt><trkpt lat="46.0959" lon="13.4269505"><ele>134.0</ele><time>2026-05-02T14:17:55.47Z</time></trkpt><trkpt lat="46.0958583" lon="13.4268487"><ele>134.0</ele><time>2026-05-02T14:17:56.47Z</time></trkpt><trkpt lat="46.0958328" lon="13.4267273"><ele>134.0</ele><time>2026-05-02T14:17:57.471Z</time></trkpt><trkpt lat="46.0958212" lon="13.426593"><ele>134.0</ele><time>2026-05-02T14:17:58.472Z</time></trkpt><trkpt lat="46.095818" lon="13.4264605"><ele>134.0</ele><time>2026-05-02T14:17:59.472Z</time></trkpt><trkpt lat="46.0958182" lon="13.4263253"><ele>134.0</ele><time>2026-05-02T14:18:00.474Z</time></trkpt><trkpt lat="46.0958187" lon="13.4261805"><ele>134.0</ele><time>2026-05-02T14:18:01.473Z</time></trkpt><trkpt lat="46.0958168" lon="13.4260278"><ele>134.0</ele><time>2026-05-02T14:18:02.473Z</time></trkpt><trkpt lat="46.0958127" lon="13.4258735"><ele>134.0</ele><time>2026-05-02T14:18:03.473Z</time></trkpt><trkpt lat="46.0958085" lon="13.4257177"><ele>134.0</ele><time>2026-05-02T14:18:04.473Z</time></trkpt><trkpt lat="46.0958047" lon="13.42553"><ele>134.0</ele><time>2026-05-02T14:18:05.672Z</time></trkpt><trkpt lat="46.0958035" lon="13.4253735"><ele>134.0</ele><time>2026-05-02T14:18:06.673Z</time></trkpt><trkpt lat="46.0958253" lon="13.4249938"><ele>134.0</ele><time>2026-05-02T14:18:09.474Z</time></trkpt><trkpt lat="46.0958448" lon="13.4248792"><ele>134.0</ele><time>2026-05-02T14:18:10.472Z</time></trkpt><trkpt lat="46.0958768" lon="13.4247713"><ele>134.0</ele><time>2026-05-02T14:18:11.472Z</time></trkpt><trkpt lat="46.0959187" lon="13.4246693"><ele>134.0</ele><time>2026-05-02T14:18:12.473Z</time></trkpt><trkpt lat="46.0959542" lon="13.4245615"><ele>134.0</ele><time>2026-05-02T14:18:13.472Z</time></trkpt><trkpt lat="46.0959652" lon="13.4244535"><ele>134.0</ele><time>2026-05-02T14:18:14.473Z</time></trkpt><trkpt lat="46.0959485" lon="13.4243575"><ele>133.66666666666666</ele><time>2026-05-02T14:18:15.471Z</time></trkpt><trkpt lat="46.0959063" lon="13.4242818"><ele>133.33333333333331</ele><time>2026-05-02T14:18:16.471Z</time></trkpt><trkpt lat="46.0958455" lon="13.4242355"><ele>133.0</ele><time>2026-05-02T14:18:17.473Z</time></trkpt><trkpt lat="46.0957753" lon="13.424227"><ele>132.66666666666666</ele><time>2026-05-02T14:18:18.472Z</time></trkpt><trkpt lat="46.0957027" lon="13.4242543"><ele>132.33333333333334</ele><time>2026-05-02T14:18:19.473Z</time></trkpt><trkpt lat="46.0956243" lon="13.424293"><ele>132.0</ele><time>2026-05-02T14:18:20.471Z</time></trkpt><trkpt lat="46.0955407" lon="13.424322"><ele>132.0</ele><time>2026-05-02T14:18:21.471Z</time></trkpt><trkpt lat="46.0954502" lon="13.4243417"><ele>132.0</ele><time>2026-05-02T14:18:22.47Z</time></trkpt><trkpt lat="46.09536" lon="13.4243578"><ele>132.0</ele><time>2026-05-02T14:18:23.471Z</time></trkpt><trkpt lat="46.095268" lon="13.4243722"><ele>132.0</ele><time>2026-05-02T14:18:24.473Z</time></trkpt><trkpt lat="46.0951778" lon="13.4243803"><ele>132.0</ele><time>2026-05-02T14:18:25.473Z</time></trkpt><trkpt lat="46.095094" lon="13.424378"><ele>132.0</ele><time>2026-05-02T14:18:26.473Z</time></trkpt><trkpt lat="46.0950172" lon="13.4243577"><ele>132.0</ele><time>2026-05-02T14:18:27.474Z</time></trkpt><trkpt lat="46.094904" lon="13.4242362"><ele>132.0</ele><time>2026-05-02T14:18:29.473Z</time></trkpt><trkpt lat="46.0948712" lon="13.4241327"><ele>132.0</ele><time>2026-05-02T14:18:30.475Z</time></trkpt><trkpt lat="46.0948433" lon="13.4240083"><ele>132.0</ele><time>2026-05-02T14:18:31.471Z</time></trkpt><trkpt lat="46.0948142" lon="13.423873"><ele>132.0</ele><time>2026-05-02T14:18:32.472Z</time></trkpt><trkpt lat="46.0947813" lon="13.4237345"><ele>132.0</ele><time>2026-05-02T14:18:33.472Z</time></trkpt><trkpt lat="46.094742" lon="13.4235913"><ele>132.0</ele><time>2026-05-02T14:18:34.472Z</time></trkpt><trkpt lat="46.0946978" lon="13.4234463"><ele>132.0</ele><time>2026-05-02T14:18:35.472Z</time></trkpt><trkpt lat="46.0946512" lon="13.4232995"><ele>132.0</ele><time>2026-05-02T14:18:36.472Z</time></trkpt><trkpt lat="46.0945985" lon="13.4231557"><ele>132.0</ele><time>2026-05-02T14:18:37.473Z</time></trkpt><trkpt lat="46.0945405" lon="13.4230085"><ele>132.0</ele><time>2026-05-02T14:18:38.472Z</time></trkpt><trkpt lat="46.0944033" lon="13.4227212"><ele>132.0</ele><time>2026-05-02T14:18:40.472Z</time></trkpt><trkpt lat="46.0943255" lon="13.422585"><ele>132.0</ele><time>2026-05-02T14:18:41.471Z</time></trkpt><trkpt lat="46.0942417" lon="13.4224573"><ele>132.0</ele><time>2026-05-02T14:18:42.471Z</time></trkpt><trkpt lat="46.0941522" lon="13.422335"><ele>132.0</ele><time>2026-05-02T14:18:43.473Z</time></trkpt><trkpt lat="46.0940752" lon="13.4222457"><ele>132.0</ele><time>2026-05-02T14:18:44.469Z</time></trkpt><trkpt lat="46.0939558" lon="13.4221165"><ele>132.0</ele><time>2026-05-02T14:18:45.47Z</time></trkpt><trkpt lat="46.093855" lon="13.4220113"><ele>132.33333333333334</ele><time>2026-05-02T14:18:46.47Z</time></trkpt><trkpt lat="46.093753" lon="13.4219017"><ele>132.66666666666669</ele><time>2026-05-02T14:18:47.47Z</time></trkpt><trkpt lat="46.0936487" lon="13.4217938"><ele>133.0</ele><time>2026-05-02T14:18:48.472Z</time></trkpt><trkpt lat="46.0934348" lon="13.4215767"><ele>133.0</ele><time>2026-05-02T14:18:50.473Z</time></trkpt><trkpt lat="46.093327" lon="13.4214668"><ele>133.0</ele><time>2026-05-02T14:18:51.474Z</time></trkpt><trkpt lat="46.093218" lon="13.421357"><ele>133.0</ele><time>2026-05-02T14:18:52.473Z</time></trkpt><trkpt lat="46.0931083" lon="13.4212472"><ele>133.0</ele><time>2026-05-02T14:18:53.473Z</time></trkpt><trkpt lat="46.0929987" lon="13.4211372"><ele>133.25</ele><time>2026-05-02T14:18:54.473Z</time></trkpt><trkpt lat="46.0928898" lon="13.4210275"><ele>133.5</ele><time>2026-05-02T14:18:55.473Z</time></trkpt><trkpt lat="46.0927865" lon="13.4209227"><ele>133.75</ele><time>2026-05-02T14:18:56.471Z</time></trkpt><trkpt lat="46.0926907" lon="13.4208272"><ele>134.0</ele><time>2026-05-02T14:18:57.473Z</time></trkpt><trkpt lat="46.0926052" lon="13.4207452"><ele>134.0</ele><time>2026-05-02T14:18:58.473Z</time></trkpt><trkpt lat="46.092535" lon="13.4206715"><ele>134.0</ele><time>2026-05-02T14:18:59.472Z</time></trkpt><trkpt lat="46.0924603" lon="13.4205287"><ele>134.0</ele><time>2026-05-02T14:19:01.474Z</time></trkpt><trkpt lat="46.0924473" lon="13.4204282"><ele>134.0</ele><time>2026-05-02T14:19:03.473Z</time></trkpt><trkpt lat="46.092426" lon="13.4203393"><ele>134.0</ele><time>2026-05-02T14:19:06.471Z</time></trkpt><trkpt lat="46.0923907" lon="13.420264"><ele>134.0</ele><time>2026-05-02T14:19:34.47Z</time></trkpt><trkpt lat="46.0923178" lon="13.420413"><ele>134.0</ele><time>2026-05-02T14:22:29.474Z</time></trkpt><trkpt lat="46.0923975" lon="13.42053"><ele>134.0</ele><time>2026-05-02T14:22:31.477Z</time></trkpt><trkpt lat="46.0924543" lon="13.4205955"><ele>134.0</ele><time>2026-05-02T14:22:32.476Z</time></trkpt><trkpt lat="46.092517" lon="13.4206645"><ele>134.0</ele><time>2026-05-02T14:22:33.476Z</time></trkpt><trkpt lat="46.0925815" lon="13.4207347"><ele>134.0</ele><time>2026-05-02T14:22:34.476Z</time></trkpt><trkpt lat="46.0927078" lon="13.4208747"><ele>134.0</ele><time>2026-05-02T14:22:36.474Z</time></trkpt><trkpt lat="46.0927733" lon="13.4209448"><ele>134.0</ele><time>2026-05-02T14:22:37.475Z</time></trkpt><trkpt lat="46.0928412" lon="13.4210175"><ele>134.0</ele><time>2026-05-02T14:22:38.474Z</time></trkpt><trkpt lat="46.092911" lon="13.4210932"><ele>134.0</ele><time>2026-05-02T14:22:39.475Z</time></trkpt><trkpt lat="46.0929762" lon="13.4211833"><ele>134.0</ele><time>2026-05-02T14:22:40.475Z</time></trkpt><trkpt lat="46.093027" lon="13.4213008"><ele>134.0</ele><time>2026-05-02T14:22:41.474Z</time></trkpt><trkpt lat="46.0930647" lon="13.4214378"><ele>133.75</ele><time>2026-05-02T14:22:42.475Z</time></trkpt><trkpt lat="46.093099" lon="13.4215912"><ele>133.5</ele><time>2026-05-02T14:22:43.475Z</time></trkpt><trkpt lat="46.0931375" lon="13.4217537"><ele>133.25</ele><time>2026-05-02T14:22:44.474Z</time></trkpt><trkpt lat="46.093181" lon="13.4219228"><ele>133.0</ele><time>2026-05-02T14:22:45.473Z</time></trkpt><trkpt lat="46.0932287" lon="13.4220903"><ele>133.0</ele><time>2026-05-02T14:22:46.474Z</time></trkpt><trkpt lat="46.0932795" lon="13.422249"><ele>133.0</ele><time>2026-05-02T14:22:47.476Z</time></trkpt><trkpt lat="46.0933282" lon="13.4223983"><ele>133.0</ele><time>2026-05-02T14:22:48.476Z</time></trkpt><trkpt lat="46.0933753" lon="13.4225398"><ele>133.0</ele><time>2026-05-02T14:22:49.473Z</time></trkpt><trkpt lat="46.0934237" lon="13.4226788"><ele>133.0</ele><time>2026-05-02T14:22:50.474Z</time></trkpt><trkpt lat="46.0934692" lon="13.4228073"><ele>133.0</ele><time>2026-05-02T14:22:51.474Z</time></trkpt><trkpt lat="46.09351" lon="13.422923"><ele>133.0</ele><time>2026-05-02T14:22:52.473Z</time></trkpt><trkpt lat="46.093549" lon="13.4230438"><ele>133.0</ele><time>2026-05-02T14:22:53.473Z</time></trkpt><trkpt lat="46.0935887" lon="13.4231682"><ele>133.0</ele><time>2026-05-02T14:22:54.474Z</time></trkpt><trkpt lat="46.0936295" lon="13.4232958"><ele>133.0</ele><time>2026-05-02T14:22:55.474Z</time></trkpt><trkpt lat="46.0937105" lon="13.4235507"><ele>133.0</ele><time>2026-05-02T14:22:57.475Z</time></trkpt><trkpt lat="46.0937477" lon="13.4236647"><ele>133.0</ele><time>2026-05-02T14:22:58.474Z</time></trkpt><trkpt lat="46.0938168" lon="13.4238762"><ele>133.0</ele><time>2026-05-02T14:23:00.474Z</time></trkpt><trkpt lat="46.0938483" lon="13.4239732"><ele>133.0</ele><time>2026-05-02T14:23:01.473Z</time></trkpt><trkpt lat="46.0938995" lon="13.4241078"><ele>133.0</ele><time>2026-05-02T14:23:03.473Z</time></trkpt><trkpt lat="46.0939373" lon="13.4242122"><ele>133.0</ele><time>2026-05-02T14:23:05.473Z</time></trkpt><trkpt lat="46.0939537" lon="13.4243038"><ele>133.0</ele><time>2026-05-02T14:23:07.473Z</time></trkpt><trkpt lat="46.0939422" lon="13.424431"><ele>133.0</ele><time>2026-05-02T14:23:10.471Z</time></trkpt><trkpt lat="46.0938453" lon="13.4244787"><ele>133.0</ele><time>2026-05-02T14:23:12.473Z</time></trkpt><trkpt lat="46.0937535" lon="13.4244878"><ele>133.0</ele><time>2026-05-02T14:23:13.472Z</time></trkpt><trkpt lat="46.0936432" lon="13.4244867"><ele>133.0</ele><time>2026-05-02T14:23:14.47Z</time></trkpt><trkpt lat="46.0935185" lon="13.4244867"><ele>133.0</ele><time>2026-05-02T14:23:15.47Z</time></trkpt><trkpt lat="46.0933838" lon="13.4244932"><ele>133.0</ele><time>2026-05-02T14:23:16.47Z</time></trkpt><trkpt lat="46.093096" lon="13.4245122"><ele>133.4</ele><time>2026-05-02T14:23:18.472Z</time></trkpt><trkpt lat="46.092966" lon="13.4245225"><ele>133.8</ele><time>2026-05-02T14:23:19.471Z</time></trkpt><trkpt lat="46.0928522" lon="13.4245375"><ele>134.2</ele><time>2026-05-02T14:23:20.472Z</time></trkpt><trkpt lat="46.0927502" lon="13.4245598"><ele>134.6</ele><time>2026-05-02T14:23:21.473Z</time></trkpt><trkpt lat="46.0926548" lon="13.4245987"><ele>135.0</ele><time>2026-05-02T14:23:22.473Z</time></trkpt><trkpt lat="46.0925688" lon="13.4246588"><ele>135.0</ele><time>2026-05-02T14:23:23.474Z</time></trkpt><trkpt lat="46.0924858" lon="13.424743"><ele>135.0</ele><time>2026-05-02T14:23:24.475Z</time></trkpt><trkpt lat="46.0924042" lon="13.4248513"><ele>135.0</ele><time>2026-05-02T14:23:25.474Z</time></trkpt><trkpt lat="46.0923147" lon="13.4249697"><ele>135.0</ele><time>2026-05-02T14:23:26.473Z</time></trkpt><trkpt lat="46.0922057" lon="13.4250783"><ele>135.33333333333334</ele><time>2026-05-02T14:23:27.473Z</time></trkpt><trkpt lat="46.0920778" lon="13.4251713"><ele>135.66666666666669</ele><time>2026-05-02T14:23:28.473Z</time></trkpt><trkpt lat="46.091939" lon="13.4252585"><ele>136.0</ele><time>2026-05-02T14:23:29.474Z</time></trkpt><trkpt lat="46.0917925" lon="13.4253428"><ele>136.0</ele><time>2026-05-02T14:23:30.474Z</time></trkpt><trkpt lat="46.0916423" lon="13.4254267"><ele>136.0</ele><time>2026-05-02T14:23:31.473Z</time></trkpt><trkpt lat="46.0914893" lon="13.4255102"><ele>136.0</ele><time>2026-05-02T14:23:32.474Z</time></trkpt><trkpt lat="46.0913362" lon="13.4255957"><ele>134.66666666666669</ele><time>2026-05-02T14:23:33.472Z</time></trkpt><trkpt lat="46.0911858" lon="13.4256822"><ele>133.33333333333334</ele><time>2026-05-02T14:23:34.471Z</time></trkpt><trkpt lat="46.091039" lon="13.425764"><ele>132.0</ele><time>2026-05-02T14:23:35.472Z</time></trkpt><trkpt lat="46.0908885" lon="13.4258382"><ele>128.0</ele><time>2026-05-02T14:23:36.473Z</time></trkpt><trkpt lat="46.0907347" lon="13.425905"><ele>124.0</ele><time>2026-05-02T14:23:37.475Z</time></trkpt><trkpt lat="46.090428" lon="13.4260157"><ele>124.0</ele><time>2026-05-02T14:23:39.473Z</time></trkpt><trkpt lat="46.0902757" lon="13.4260637"><ele>124.0</ele><time>2026-05-02T14:23:40.472Z</time></trkpt><trkpt lat="46.0901247" lon="13.4261103"><ele>124.0</ele><time>2026-05-02T14:23:41.472Z</time></trkpt><trkpt lat="46.08997" lon="13.4261572"><ele>124.33333333333334</ele><time>2026-05-02T14:23:42.474Z</time></trkpt><trkpt lat="46.0898113" lon="13.4262095"><ele>124.66666666666666</ele><time>2026-05-02T14:23:43.475Z</time></trkpt><trkpt lat="46.0896472" lon="13.426262"><ele>125.0</ele><time>2026-05-02T14:23:44.475Z</time></trkpt><trkpt lat="46.0894783" lon="13.4263095"><ele>125.0</ele><time>2026-05-02T14:23:45.477Z</time></trkpt><trkpt lat="46.0893088" lon="13.4263505"><ele>125.0</ele><time>2026-05-02T14:23:46.475Z</time></trkpt><trkpt lat="46.0891437" lon="13.4263805"><ele>125.0</ele><time>2026-05-02T14:23:47.475Z</time></trkpt><trkpt lat="46.088981" lon="13.4264007"><ele>125.0</ele><time>2026-05-02T14:23:48.475Z</time></trkpt><trkpt lat="46.0888258" lon="13.4264165"><ele>125.0</ele><time>2026-05-02T14:23:49.474Z</time></trkpt><trkpt lat="46.0886795" lon="13.4264318"><ele>125.0</ele><time>2026-05-02T14:23:50.474Z</time></trkpt><trkpt lat="46.0885417" lon="13.4264525"><ele>125.0</ele><time>2026-05-02T14:23:51.476Z</time></trkpt><trkpt lat="46.0884097" lon="13.4264862"><ele>125.0</ele><time>2026-05-02T14:23:52.477Z</time></trkpt><trkpt lat="46.088287" lon="13.4265388"><ele>125.0</ele><time>2026-05-02T14:23:53.475Z</time></trkpt><trkpt lat="46.0881693" lon="13.4266082"><ele>125.0</ele><time>2026-05-02T14:23:54.476Z</time></trkpt><trkpt lat="46.0880603" lon="13.4266917"><ele>125.0</ele><time>2026-05-02T14:23:55.476Z</time></trkpt><trkpt lat="46.0879622" lon="13.4267882"><ele>125.33333333333333</ele><time>2026-05-02T14:23:56.477Z</time></trkpt><trkpt lat="46.0878708" lon="13.4268962"><ele>125.66666666666666</ele><time>2026-05-02T14:23:57.475Z</time></trkpt><trkpt lat="46.087791" lon="13.4270167"><ele>126.0</ele><time>2026-05-02T14:23:58.475Z</time></trkpt><trkpt lat="46.0876555" lon="13.4272632"><ele>127.4</ele><time>2026-05-02T14:24:00.476Z</time></trkpt><trkpt lat="46.0875972" lon="13.4273868"><ele>128.8</ele><time>2026-05-02T14:24:01.475Z</time></trkpt><trkpt lat="46.0875387" lon="13.427513"><ele>130.20000000000002</ele><time>2026-05-02T14:24:02.475Z</time></trkpt><trkpt lat="46.0874833" lon="13.4276378"><ele>131.6</ele><time>2026-05-02T14:24:03.473Z</time></trkpt><trkpt lat="46.0874285" lon="13.427759"><ele>133.0</ele><time>2026-05-02T14:24:04.473Z</time></trkpt><trkpt lat="46.0873793" lon="13.4278777"><ele>133.0</ele><time>2026-05-02T14:24:05.473Z</time></trkpt><trkpt lat="46.0873357" lon="13.4279825"><ele>133.0</ele><time>2026-05-02T14:24:06.474Z</time></trkpt><trkpt lat="46.0873035" lon="13.428064"><ele>133.0</ele><time>2026-05-02T14:24:07.474Z</time></trkpt><trkpt lat="46.0872272" lon="13.4281995"><ele>133.0</ele><time>2026-05-02T14:24:09.477Z</time></trkpt><trkpt lat="46.0871712" lon="13.428324"><ele>133.0</ele><time>2026-05-02T14:24:11.474Z</time></trkpt><trkpt lat="46.0871917" lon="13.428449"><ele>133.0</ele><time>2026-05-02T14:24:13.474Z</time></trkpt><trkpt lat="46.087233" lon="13.4285177"><ele>133.0</ele><time>2026-05-02T14:24:14.475Z</time></trkpt><trkpt lat="46.0872905" lon="13.4285907"><ele>133.0</ele><time>2026-05-02T14:24:15.477Z</time></trkpt><trkpt lat="46.0873597" lon="13.4286705"><ele>133.0</ele><time>2026-05-02T14:24:16.476Z</time></trkpt><trkpt lat="46.087436" lon="13.428759"><ele>133.0</ele><time>2026-05-02T14:24:17.476Z</time></trkpt><trkpt lat="46.0875188" lon="13.4288595"><ele>133.0</ele><time>2026-05-02T14:24:18.475Z</time></trkpt><trkpt lat="46.0876063" lon="13.4289715"><ele>132.66666666666669</ele><time>2026-05-02T14:24:19.474Z</time></trkpt><trkpt lat="46.087794" lon="13.4292298"><ele>132.33333333333334</ele><time>2026-05-02T14:24:21.475Z</time></trkpt><trkpt lat="46.0878973" lon="13.4293907"><ele>132.0</ele><time>2026-05-02T14:24:22.475Z</time></trkpt><trkpt lat="46.0879972" lon="13.4295763"><ele>132.0</ele><time>2026-05-02T14:24:23.475Z</time></trkpt><trkpt lat="46.0880908" lon="13.4297822"><ele>132.0</ele><time>2026-05-02T14:24:24.476Z</time></trkpt><trkpt lat="46.0881803" lon="13.4300025"><ele>132.0</ele><time>2026-05-02T14:24:25.474Z</time></trkpt><trkpt lat="46.0882672" lon="13.4302232"><ele>132.66666666666666</ele><time>2026-05-02T14:24:26.474Z</time></trkpt><trkpt lat="46.088351" lon="13.430441"><ele>133.33333333333331</ele><time>2026-05-02T14:24:27.473Z</time></trkpt><trkpt lat="46.0884333" lon="13.4306532"><ele>134.0</ele><time>2026-05-02T14:24:28.471Z</time></trkpt><trkpt lat="46.0885155" lon="13.4308593"><ele>134.0</ele><time>2026-05-02T14:24:29.472Z</time></trkpt><trkpt lat="46.0885967" lon="13.4310612"><ele>134.0</ele><time>2026-05-02T14:24:30.472Z</time></trkpt><trkpt lat="46.0886777" lon="13.431259"><ele>134.0</ele><time>2026-05-02T14:24:31.475Z</time></trkpt><trkpt lat="46.0887567" lon="13.4314558"><ele>134.33333333333331</ele><time>2026-05-02T14:24:32.474Z</time></trkpt><trkpt lat="46.0888372" lon="13.4316522"><ele>134.66666666666666</ele><time>2026-05-02T14:24:33.475Z</time></trkpt><trkpt lat="46.088918" lon="13.4318473"><ele>135.0</ele><time>2026-05-02T14:24:34.475Z</time></trkpt><trkpt lat="46.0889933" lon="13.432036"><ele>135.5</ele><time>2026-05-02T14:24:35.475Z</time></trkpt><trkpt lat="46.0890633" lon="13.4322112"><ele>136.0</ele><time>2026-05-02T14:24:36.476Z</time></trkpt><trkpt lat="46.0891288" lon="13.43237"><ele>136.5</ele><time>2026-05-02T14:24:37.477Z</time></trkpt><trkpt lat="46.0891898" lon="13.432516"><ele>137.0</ele><time>2026-05-02T14:24:38.475Z</time></trkpt><trkpt lat="46.089243" lon="13.4326492"><ele>137.2</ele><time>2026-05-02T14:24:39.475Z</time></trkpt><trkpt lat="46.089291" lon="13.4327677"><ele>137.39999999999998</ele><time>2026-05-02T14:24:40.475Z</time></trkpt><trkpt lat="46.089376" lon="13.432976"><ele>137.60000000000002</ele><time>2026-05-02T14:24:42.474Z</time></trkpt><trkpt lat="46.089415" lon="13.433067"><ele>137.8</ele><time>2026-05-02T14:24:43.473Z</time></trkpt><trkpt lat="46.0894493" lon="13.433146"><ele>138.0</ele><time>2026-05-02T14:24:44.473Z</time></trkpt><trkpt lat="46.0895" lon="13.4332575"><ele>137.4</ele><time>2026-05-02T14:24:46.472Z</time></trkpt><trkpt lat="46.0895492" lon="13.4333257"><ele>136.8</ele><time>2026-05-02T14:24:48.473Z</time></trkpt><trkpt lat="46.0896237" lon="13.4333372"><ele>136.2</ele><time>2026-05-02T14:24:50.473Z</time></trkpt><trkpt lat="46.0897117" lon="13.4332925"><ele>135.6</ele><time>2026-05-02T14:24:52.472Z</time></trkpt><trkpt lat="46.0898065" lon="13.433205"><ele>135.0</ele><time>2026-05-02T14:24:54.472Z</time></trkpt><trkpt lat="46.0898953" lon="13.4331267"><ele>135.0</ele><time>2026-05-02T14:24:56.474Z</time></trkpt><trkpt lat="46.0899932" lon="13.433026"><ele>135.0</ele><time>2026-05-02T14:24:59.474Z</time></trkpt><trkpt lat="46.0900645" lon="13.4329277"><ele>135.0</ele><time>2026-05-02T14:25:01.473Z</time></trkpt><trkpt lat="46.0902027" lon="13.43278"><ele>135.0</ele><time>2026-05-02T14:25:04.473Z</time></trkpt><trkpt lat="46.0902635" lon="13.4327102"><ele>135.0</ele><time>2026-05-02T14:25:05.474Z</time></trkpt><trkpt lat="46.0903287" lon="13.4326378"><ele>135.0</ele><time>2026-05-02T14:25:06.474Z</time></trkpt><trkpt lat="46.0903972" lon="13.4325705"><ele>135.0</ele><time>2026-05-02T14:25:07.472Z</time></trkpt><trkpt lat="46.0904665" lon="13.4324977"><ele>135.0</ele><time>2026-05-02T14:25:08.47Z</time></trkpt><trkpt lat="46.0905412" lon="13.4324225"><ele>135.0</ele><time>2026-05-02T14:25:09.461Z</time></trkpt><trkpt lat="46.0906075" lon="13.4323522"><ele>135.0</ele><time>2026-05-02T14:25:10.47Z</time></trkpt><trkpt lat="46.0906742" lon="13.4322938"><ele>135.0</ele><time>2026-05-02T14:25:11.468Z</time></trkpt><trkpt lat="46.0907363" lon="13.4322435"><ele>135.0</ele><time>2026-05-02T14:25:12.469Z</time></trkpt><trkpt lat="46.0907957" lon="13.4321963"><ele>135.0</ele><time>2026-05-02T14:25:13.47Z</time></trkpt><trkpt lat="46.0909022" lon="13.4321175"><ele>135.0</ele><time>2026-05-02T14:25:15.469Z</time></trkpt><trkpt lat="46.090996" lon="13.4320525"><ele>135.0</ele><time>2026-05-02T14:25:17.469Z</time></trkpt><trkpt lat="46.091059" lon="13.4319898"><ele>135.0</ele><time>2026-05-02T14:25:19.47Z</time></trkpt><trkpt lat="46.091108" lon="13.4319133"><ele>135.25</ele><time>2026-05-02T14:25:49.473Z</time></trkpt><trkpt lat="46.0912775" lon="13.4319003"><ele>135.5</ele><time>2026-05-02T14:25:55.479Z</time></trkpt><trkpt lat="46.0913453" lon="13.4318727"><ele>135.75</ele><time>2026-05-02T14:25:58.479Z</time></trkpt><trkpt lat="46.0914057" lon="13.4319008"><ele>136.0</ele><time>2026-05-02T14:49:34.476Z</time></trkpt><trkpt lat="46.091099" lon="13.4319977"><ele>136.0</ele><time>2026-05-02T14:51:00.472Z</time></trkpt><trkpt lat="46.0910042" lon="13.4320812"><ele>136.0</ele><time>2026-05-02T14:51:01.471Z</time></trkpt><trkpt lat="46.0909135" lon="13.4321625"><ele>136.0</ele><time>2026-05-02T14:51:02.471Z</time></trkpt><trkpt lat="46.0908233" lon="13.4322338"><ele>136.0</ele><time>2026-05-02T14:51:03.472Z</time></trkpt><trkpt lat="46.0907403" lon="13.432308"><ele>136.0</ele><time>2026-05-02T14:51:04.473Z</time></trkpt><trkpt lat="46.0906528" lon="13.4323738"><ele>135.8</ele><time>2026-05-02T14:51:05.472Z</time></trkpt><trkpt lat="46.0905615" lon="13.432444"><ele>135.6</ele><time>2026-05-02T14:51:06.471Z</time></trkpt><trkpt lat="46.0904743" lon="13.43252"><ele>135.4</ele><time>2026-05-02T14:51:07.474Z</time></trkpt><trkpt lat="46.0903897" lon="13.4326027"><ele>135.2</ele><time>2026-05-02T14:51:08.473Z</time></trkpt><trkpt lat="46.090304" lon="13.432682"><ele>135.0</ele><time>2026-05-02T14:51:09.472Z</time></trkpt><trkpt lat="46.0902222" lon="13.4327637"><ele>135.0</ele><time>2026-05-02T14:51:10.478Z</time></trkpt><trkpt lat="46.0901428" lon="13.432852"><ele>135.0</ele><time>2026-05-02T14:51:11.477Z</time></trkpt><trkpt lat="46.0900635" lon="13.4329428"><ele>135.0</ele><time>2026-05-02T14:51:12.478Z</time></trkpt><trkpt lat="46.0899787" lon="13.4330272"><ele>135.0</ele><time>2026-05-02T14:51:13.471Z</time></trkpt><trkpt lat="46.0898947" lon="13.433104"><ele>135.0</ele><time>2026-05-02T14:51:14.47Z</time></trkpt><trkpt lat="46.0898203" lon="13.4331738"><ele>135.0</ele><time>2026-05-02T14:51:15.471Z</time></trkpt><trkpt lat="46.089758" lon="13.4332275"><ele>135.0</ele><time>2026-05-02T14:51:16.471Z</time></trkpt><trkpt lat="46.0896825" lon="13.433279"><ele>135.0</ele><time>2026-05-02T14:51:18.471Z</time></trkpt><trkpt lat="46.0896208" lon="13.433311"><ele>135.0</ele><time>2026-05-02T14:51:58.473Z</time></trkpt><trkpt lat="46.089516" lon="13.433549"><ele>135.0</ele><time>2026-05-02T14:52:01.473Z</time></trkpt><trkpt lat="46.0894882" lon="13.4336763"><ele>135.5</ele><time>2026-05-02T14:52:02.472Z</time></trkpt><trkpt lat="46.0894722" lon="13.4338252"><ele>136.0</ele><time>2026-05-02T14:52:03.473Z</time></trkpt><trkpt lat="46.0894665" lon="13.4339913"><ele>136.5</ele><time>2026-05-02T14:52:04.472Z</time></trkpt><trkpt lat="46.0894602" lon="13.434174"><ele>137.0</ele><time>2026-05-02T14:52:05.478Z</time></trkpt><trkpt lat="46.0894528" lon="13.4343678"><ele>137.0</ele><time>2026-05-02T14:52:06.473Z</time></trkpt><trkpt lat="46.0894405" lon="13.434571"><ele>137.0</ele><time>2026-05-02T14:52:07.472Z</time></trkpt><trkpt lat="46.0894312" lon="13.434783"><ele>137.0</ele><time>2026-05-02T14:52:08.473Z</time></trkpt><trkpt lat="46.0894188" lon="13.4350015"><ele>137.0</ele><time>2026-05-02T14:52:09.472Z</time></trkpt><trkpt lat="46.0894083" lon="13.4352225"><ele>137.25</ele><time>2026-05-02T14:52:10.472Z</time></trkpt><trkpt lat="46.0893975" lon="13.4354352"><ele>137.5</ele><time>2026-05-02T14:52:11.472Z</time></trkpt><trkpt lat="46.0893858" lon="13.4356442"><ele>137.75</ele><time>2026-05-02T14:52:12.476Z</time></trkpt><trkpt lat="46.089376" lon="13.435848"><ele>138.0</ele><time>2026-05-02T14:52:13.471Z</time></trkpt><trkpt lat="46.089369" lon="13.436045"><ele>138.0</ele><time>2026-05-02T14:52:14.471Z</time></trkpt><trkpt lat="46.0893598" lon="13.4362347"><ele>138.0</ele><time>2026-05-02T14:52:15.473Z</time></trkpt><trkpt lat="46.0893512" lon="13.4364165"><ele>138.0</ele><time>2026-05-02T14:52:16.472Z</time></trkpt><trkpt lat="46.0893413" lon="13.4365875"><ele>138.0</ele><time>2026-05-02T14:52:17.473Z</time></trkpt><trkpt lat="46.0893348" lon="13.4367525"><ele>138.0</ele><time>2026-05-02T14:52:18.475Z</time></trkpt><trkpt lat="46.0893325" lon="13.4369123"><ele>138.0</ele><time>2026-05-02T14:52:19.472Z</time></trkpt><trkpt lat="46.0893242" lon="13.4372117"><ele>138.0</ele><time>2026-05-02T14:52:21.474Z</time></trkpt><trkpt lat="46.0893132" lon="13.4373415"><ele>138.0</ele><time>2026-05-02T14:52:22.473Z</time></trkpt><trkpt lat="46.089303" lon="13.4374468"><ele>138.33333333333334</ele><time>2026-05-02T14:52:23.471Z</time></trkpt><trkpt lat="46.0893375" lon="13.437585"><ele>138.66666666666666</ele><time>2026-05-02T14:52:25.473Z</time></trkpt><trkpt lat="46.089412" lon="13.437601"><ele>139.0</ele><time>2026-05-02T14:52:27.472Z</time></trkpt><trkpt lat="46.089454" lon="13.4375255"><ele>139.33333333333331</ele><time>2026-05-02T14:52:29.472Z</time></trkpt><trkpt lat="46.0894305" lon="13.4374192"><ele>139.66666666666666</ele><time>2026-05-02T14:52:31.474Z</time></trkpt><trkpt lat="46.089339" lon="13.4373967"><ele>140.0</ele><time>2026-05-02T14:52:33.474Z</time></trkpt><trkpt lat="46.0892887" lon="13.4374788"><ele>140.0</ele><time>2026-05-02T14:52:34.874Z</time></trkpt><trkpt lat="46.0892777" lon="13.4376133"><ele>140.0</ele><time>2026-05-02T14:52:36.281Z</time></trkpt><trkpt lat="46.089275" lon="13.4377282"><ele>140.0</ele><time>2026-05-02T14:52:37.281Z</time></trkpt><trkpt lat="46.0892537" lon="13.4378438"><ele>140.0</ele><time>2026-05-02T14:52:38.28Z</time></trkpt><trkpt lat="46.0891738" lon="13.4380617"><ele>140.0</ele><time>2026-05-02T14:52:40.283Z</time></trkpt><trkpt lat="46.0890985" lon="13.4382517"><ele>140.0</ele><time>2026-05-02T14:52:42.282Z</time></trkpt><trkpt lat="46.0890923" lon="13.4384127"><ele>140.0</ele><time>2026-05-02T14:52:44.282Z</time></trkpt><trkpt lat="46.08919" lon="13.4385227"><ele>140.0</ele><time>2026-05-02T14:52:46.282Z</time></trkpt><trkpt lat="46.0892692" lon="13.438563"><ele>140.0</ele><time>2026-05-02T14:52:47.28Z</time></trkpt><trkpt lat="46.0893578" lon="13.4385973"><ele>140.0</ele><time>2026-05-02T14:52:48.279Z</time></trkpt><trkpt lat="46.0894495" lon="13.4386175"><ele>140.0</ele><time>2026-05-02T14:52:49.279Z</time></trkpt><trkpt lat="46.0895413" lon="13.4386188"><ele>140.0</ele><time>2026-05-02T14:52:50.279Z</time></trkpt><trkpt lat="46.0896333" lon="13.4386028"><ele>140.0</ele><time>2026-05-02T14:52:51.28Z</time></trkpt><trkpt lat="46.0897195" lon="13.438574"><ele>140.0</ele><time>2026-05-02T14:52:52.28Z</time></trkpt><trkpt lat="46.089799" lon="13.4385528"><ele>140.0</ele><time>2026-05-02T14:52:53.282Z</time></trkpt><trkpt lat="46.0898742" lon="13.4385635"><ele>140.0</ele><time>2026-05-02T14:52:54.281Z</time></trkpt><trkpt lat="46.089942" lon="13.4386168"><ele>140.0</ele><time>2026-05-02T14:52:55.28Z</time></trkpt><trkpt lat="46.0899975" lon="13.4387107"><ele>140.0</ele><time>2026-05-02T14:52:56.282Z</time></trkpt><trkpt lat="46.0900423" lon="13.438837"><ele>140.0</ele><time>2026-05-02T14:52:57.281Z</time></trkpt><trkpt lat="46.090095" lon="13.4390167"><ele>140.0</ele><time>2026-05-02T14:52:58.474Z</time></trkpt><trkpt lat="46.0901408" lon="13.4391743"><ele>140.0</ele><time>2026-05-02T14:52:59.473Z</time></trkpt><trkpt lat="46.090187" lon="13.4393308"><ele>139.66666666666666</ele><time>2026-05-02T14:53:00.474Z</time></trkpt><trkpt lat="46.0902332" lon="13.4394882"><ele>139.33333333333334</ele><time>2026-05-02T14:53:01.474Z</time></trkpt><trkpt lat="46.0903208" lon="13.4397988"><ele>139.0</ele><time>2026-05-02T14:53:03.472Z</time></trkpt><trkpt lat="46.0903633" lon="13.439955"><ele>139.0</ele><time>2026-05-02T14:53:04.472Z</time></trkpt><trkpt lat="46.0904047" lon="13.440116"><ele>139.0</ele><time>2026-05-02T14:53:05.472Z</time></trkpt><trkpt lat="46.090445" lon="13.4402805"><ele>139.0</ele><time>2026-05-02T14:53:06.472Z</time></trkpt><trkpt lat="46.0904832" lon="13.4404495"><ele>139.0</ele><time>2026-05-02T14:53:07.473Z</time></trkpt><trkpt lat="46.0905205" lon="13.4406242"><ele>138.5</ele><time>2026-05-02T14:53:08.473Z</time></trkpt><trkpt lat="46.0905582" lon="13.4408032"><ele>138.0</ele><time>2026-05-02T14:53:09.473Z</time></trkpt><trkpt lat="46.0905967" lon="13.4409852"><ele>137.5</ele><time>2026-05-02T14:53:10.473Z</time></trkpt><trkpt lat="46.0906373" lon="13.4411717"><ele>137.0</ele><time>2026-05-02T14:53:11.473Z</time></trkpt><trkpt lat="46.0906795" lon="13.4413612"><ele>137.0</ele><time>2026-05-02T14:53:12.474Z</time></trkpt><trkpt lat="46.0907195" lon="13.4415483"><ele>137.0</ele><time>2026-05-02T14:53:13.474Z</time></trkpt><trkpt lat="46.0907577" lon="13.441734"><ele>137.0</ele><time>2026-05-02T14:53:14.474Z</time></trkpt><trkpt lat="46.0907955" lon="13.4419148"><ele>137.0</ele><time>2026-05-02T14:53:15.474Z</time></trkpt><trkpt lat="46.0908335" lon="13.4420877"><ele>137.25</ele><time>2026-05-02T14:53:16.474Z</time></trkpt><trkpt lat="46.090873" lon="13.442264"><ele>137.5</ele><time>2026-05-02T14:53:17.474Z</time></trkpt><trkpt lat="46.0909135" lon="13.442445"><ele>137.75</ele><time>2026-05-02T14:53:18.475Z</time></trkpt><trkpt lat="46.090957" lon="13.442628"><ele>138.0</ele><time>2026-05-02T14:53:19.474Z</time></trkpt><trkpt lat="46.0910065" lon="13.4428113"><ele>138.25</ele><time>2026-05-02T14:53:20.473Z</time></trkpt><trkpt lat="46.0910605" lon="13.442993"><ele>138.5</ele><time>2026-05-02T14:53:21.474Z</time></trkpt><trkpt lat="46.0911168" lon="13.4431715"><ele>138.75</ele><time>2026-05-02T14:53:22.475Z</time></trkpt><trkpt lat="46.0911757" lon="13.4433475"><ele>139.0</ele><time>2026-05-02T14:53:23.475Z</time></trkpt><trkpt lat="46.0912903" lon="13.443709"><ele>138.75</ele><time>2026-05-02T14:53:25.474Z</time></trkpt><trkpt lat="46.0913443" lon="13.4438955"><ele>138.5</ele><time>2026-05-02T14:53:26.475Z</time></trkpt><trkpt lat="46.091396" lon="13.4440863"><ele>138.25</ele><time>2026-05-02T14:53:27.472Z</time></trkpt><trkpt lat="46.0914435" lon="13.4442815"><ele>138.0</ele><time>2026-05-02T14:53:28.472Z</time></trkpt><trkpt lat="46.0914843" lon="13.4444802"><ele>138.5</ele><time>2026-05-02T14:53:29.48Z</time></trkpt><trkpt lat="46.0915175" lon="13.4446785"><ele>139.0</ele><time>2026-05-02T14:53:30.473Z</time></trkpt><trkpt lat="46.0915448" lon="13.4448712"><ele>139.5</ele><time>2026-05-02T14:53:31.473Z</time></trkpt><trkpt lat="46.0915693" lon="13.445063"><ele>140.0</ele><time>2026-05-02T14:53:32.473Z</time></trkpt><trkpt lat="46.0915923" lon="13.4452523"><ele>140.25</ele><time>2026-05-02T14:53:33.474Z</time></trkpt><trkpt lat="46.091614" lon="13.4454403"><ele>140.5</ele><time>2026-05-02T14:53:34.473Z</time></trkpt><trkpt lat="46.091637" lon="13.445621"><ele>140.75</ele><time>2026-05-02T14:53:35.474Z</time></trkpt><trkpt lat="46.0916612" lon="13.4457835"><ele>141.0</ele><time>2026-05-02T14:53:36.473Z</time></trkpt><trkpt lat="46.0916885" lon="13.445932"><ele>141.0</ele><time>2026-05-02T14:53:37.473Z</time></trkpt><trkpt lat="46.091719" lon="13.4460667"><ele>141.0</ele><time>2026-05-02T14:53:38.473Z</time></trkpt><trkpt lat="46.0917527" lon="13.4461888"><ele>141.0</ele><time>2026-05-02T14:53:39.473Z</time></trkpt><trkpt lat="46.0917885" lon="13.4462983"><ele>141.0</ele><time>2026-05-02T14:53:40.473Z</time></trkpt><trkpt lat="46.0918212" lon="13.4464"><ele>141.0</ele><time>2026-05-02T14:53:41.473Z</time></trkpt><trkpt lat="46.0918475" lon="13.4465093"><ele>141.0</ele><time>2026-05-02T14:53:42.473Z</time></trkpt><trkpt lat="46.0918678" lon="13.4466287"><ele>141.25</ele><time>2026-05-02T14:53:43.473Z</time></trkpt><trkpt lat="46.0918853" lon="13.4467547"><ele>141.5</ele><time>2026-05-02T14:53:44.473Z</time></trkpt><trkpt lat="46.0919307" lon="13.4470205"><ele>141.75</ele><time>2026-05-02T14:53:46.473Z</time></trkpt><trkpt lat="46.0919635" lon="13.4471572"><ele>142.0</ele><time>2026-05-02T14:53:47.473Z</time></trkpt><trkpt lat="46.0920012" lon="13.4472978"><ele>142.6</ele><time>2026-05-02T14:53:48.474Z</time></trkpt><trkpt lat="46.092044" lon="13.4474423"><ele>143.2</ele><time>2026-05-02T14:53:49.473Z</time></trkpt><trkpt lat="46.0920918" lon="13.4475887"><ele>143.8</ele><time>2026-05-02T14:53:50.472Z</time></trkpt><trkpt lat="46.0921413" lon="13.4477292"><ele>144.4</ele><time>2026-05-02T14:53:51.472Z</time></trkpt><trkpt lat="46.0921883" lon="13.4478662"><ele>145.0</ele><time>2026-05-02T14:53:52.471Z</time></trkpt><trkpt lat="46.092274" lon="13.4481343"><ele>146.0</ele><time>2026-05-02T14:53:54.472Z</time></trkpt><trkpt lat="46.0923055" lon="13.4482723"><ele>147.0</ele><time>2026-05-02T14:53:55.472Z</time></trkpt><trkpt lat="46.092319" lon="13.4484183"><ele>148.0</ele><time>2026-05-02T14:53:56.473Z</time></trkpt><trkpt lat="46.0923068" lon="13.4485733"><ele>149.0</ele><time>2026-05-02T14:53:57.474Z</time></trkpt><trkpt lat="46.0922728" lon="13.4487293"><ele>150.0</ele><time>2026-05-02T14:53:58.472Z</time></trkpt><trkpt lat="46.0922313" lon="13.4488892"><ele>150.4</ele><time>2026-05-02T14:53:59.472Z</time></trkpt><trkpt lat="46.0921925" lon="13.4490458"><ele>150.8</ele><time>2026-05-02T14:54:00.474Z</time></trkpt><trkpt lat="46.09216" lon="13.4491858"><ele>151.2</ele><time>2026-05-02T14:54:01.474Z</time></trkpt><trkpt lat="46.0921337" lon="13.4493215"><ele>151.6</ele><time>2026-05-02T14:54:02.473Z</time></trkpt><trkpt lat="46.0921062" lon="13.449469"><ele>152.0</ele><time>2026-05-02T14:54:03.472Z</time></trkpt><trkpt lat="46.0920832" lon="13.4495938"><ele>153.5</ele><time>2026-05-02T14:54:04.473Z</time></trkpt><trkpt lat="46.0920637" lon="13.449713"><ele>155.0</ele><time>2026-05-02T14:54:05.474Z</time></trkpt><trkpt lat="46.09202" lon="13.449972"><ele>156.5</ele><time>2026-05-02T14:54:07.473Z</time></trkpt><trkpt lat="46.091996" lon="13.4501063"><ele>158.0</ele><time>2026-05-02T14:54:08.476Z</time></trkpt><trkpt lat="46.0919698" lon="13.450245"><ele>158.0</ele><time>2026-05-02T14:54:09.476Z</time></trkpt><trkpt lat="46.0919458" lon="13.4503863"><ele>158.0</ele><time>2026-05-02T14:54:10.473Z</time></trkpt><trkpt lat="46.0919318" lon="13.4505348"><ele>158.0</ele><time>2026-05-02T14:54:11.472Z</time></trkpt><trkpt lat="46.091923" lon="13.4506878"><ele>158.0</ele><time>2026-05-02T14:54:12.473Z</time></trkpt><trkpt lat="46.0919152" lon="13.4508445"><ele>158.0</ele><time>2026-05-02T14:54:13.473Z</time></trkpt><trkpt lat="46.0919022" lon="13.4510013"><ele>159.60000000000002</ele><time>2026-05-02T14:54:14.473Z</time></trkpt><trkpt lat="46.091884" lon="13.4511537"><ele>161.20000000000002</ele><time>2026-05-02T14:54:15.471Z</time></trkpt><trkpt lat="46.0918588" lon="13.4512992"><ele>162.8</ele><time>2026-05-02T14:54:16.47Z</time></trkpt><trkpt lat="46.0918295" lon="13.4514362"><ele>164.4</ele><time>2026-05-02T14:54:17.471Z</time></trkpt><trkpt lat="46.091801" lon="13.4515663"><ele>166.0</ele><time>2026-05-02T14:54:18.47Z</time></trkpt><trkpt lat="46.0917768" lon="13.4516968"><ele>166.8</ele><time>2026-05-02T14:54:19.471Z</time></trkpt><trkpt lat="46.0917605" lon="13.4518313"><ele>167.60000000000002</ele><time>2026-05-02T14:54:20.472Z</time></trkpt><trkpt lat="46.0917653" lon="13.4519772"><ele>168.4</ele><time>2026-05-02T14:54:21.473Z</time></trkpt><trkpt lat="46.0917882" lon="13.4521288"><ele>169.2</ele><time>2026-05-02T14:54:22.472Z</time></trkpt><trkpt lat="46.091829" lon="13.452278"><ele>170.0</ele><time>2026-05-02T14:54:23.473Z</time></trkpt><trkpt lat="46.0918748" lon="13.4524262"><ele>170.0</ele><time>2026-05-02T14:54:24.474Z</time></trkpt><trkpt lat="46.0919215" lon="13.4525728"><ele>170.0</ele><time>2026-05-02T14:54:25.475Z</time></trkpt><trkpt lat="46.0919682" lon="13.4527233"><ele>170.0</ele><time>2026-05-02T14:54:26.473Z</time></trkpt><trkpt lat="46.0920445" lon="13.4530462"><ele>169.25</ele><time>2026-05-02T14:54:28.475Z</time></trkpt><trkpt lat="46.0920737" lon="13.4532047"><ele>168.5</ele><time>2026-05-02T14:54:29.475Z</time></trkpt><trkpt lat="46.0920973" lon="13.4533637"><ele>167.75</ele><time>2026-05-02T14:54:30.48Z</time></trkpt><trkpt lat="46.0921142" lon="13.4535267"><ele>167.0</ele><time>2026-05-02T14:54:31.474Z</time></trkpt><trkpt lat="46.0921215" lon="13.4536895"><ele>167.6</ele><time>2026-05-02T14:54:32.475Z</time></trkpt><trkpt lat="46.0921243" lon="13.4538502"><ele>168.2</ele><time>2026-05-02T14:54:33.473Z</time></trkpt><trkpt lat="46.092124" lon="13.4540117"><ele>168.8</ele><time>2026-05-02T14:54:34.472Z</time></trkpt><trkpt lat="46.0921242" lon="13.4541733"><ele>169.4</ele><time>2026-05-02T14:54:35.472Z</time></trkpt><trkpt lat="46.0921233" lon="13.4543343"><ele>170.0</ele><time>2026-05-02T14:54:36.473Z</time></trkpt><trkpt lat="46.0921238" lon="13.4544943"><ele>171.4</ele><time>2026-05-02T14:54:37.477Z</time></trkpt><trkpt lat="46.0921225" lon="13.4546528"><ele>172.8</ele><time>2026-05-02T14:54:38.473Z</time></trkpt><trkpt lat="46.0921162" lon="13.4548087"><ele>174.2</ele><time>2026-05-02T14:54:39.473Z</time></trkpt><trkpt lat="46.0921025" lon="13.4549597"><ele>175.6</ele><time>2026-05-02T14:54:40.471Z</time></trkpt><trkpt lat="46.0920872" lon="13.4551157"><ele>177.0</ele><time>2026-05-02T14:54:41.47Z</time></trkpt><trkpt lat="46.0920692" lon="13.4552748"><ele>177.0</ele><time>2026-05-02T14:54:42.471Z</time></trkpt><trkpt lat="46.0920505" lon="13.4554368"><ele>177.0</ele><time>2026-05-02T14:54:43.472Z</time></trkpt><trkpt lat="46.0920303" lon="13.4556023"><ele>177.0</ele><time>2026-05-02T14:54:44.474Z</time></trkpt><trkpt lat="46.0920097" lon="13.4557753"><ele>177.0</ele><time>2026-05-02T14:54:45.473Z</time></trkpt><trkpt lat="46.0919885" lon="13.4559593"><ele>180.0</ele><time>2026-05-02T14:54:46.474Z</time></trkpt><trkpt lat="46.0919583" lon="13.4561532"><ele>183.0</ele><time>2026-05-02T14:54:47.473Z</time></trkpt><trkpt lat="46.0918978" lon="13.4565648"><ele>186.0</ele><time>2026-05-02T14:54:49.474Z</time></trkpt><trkpt lat="46.0918675" lon="13.4567772"><ele>189.0</ele><time>2026-05-02T14:54:50.473Z</time></trkpt><trkpt lat="46.0918393" lon="13.4569925"><ele>192.0</ele><time>2026-05-02T14:54:51.473Z</time></trkpt><trkpt lat="46.0918235" lon="13.4572098"><ele>195.0</ele><time>2026-05-02T14:54:52.472Z</time></trkpt><trkpt lat="46.0918192" lon="13.4574332"><ele>195.66666666666669</ele><time>2026-05-02T14:54:53.473Z</time></trkpt><trkpt lat="46.0918155" lon="13.4576612"><ele>196.33333333333334</ele><time>2026-05-02T14:54:54.474Z</time></trkpt><trkpt lat="46.0918025" lon="13.457903"><ele>197.0</ele><time>2026-05-02T14:54:55.473Z</time></trkpt><trkpt lat="46.0917757" lon="13.4581645"><ele>199.66666666666669</ele><time>2026-05-02T14:54:56.473Z</time></trkpt><trkpt lat="46.091735" lon="13.4584073"><ele>202.33333333333331</ele><time>2026-05-02T14:54:57.476Z</time></trkpt><trkpt lat="46.0916802" lon="13.4586337"><ele>205.0</ele><time>2026-05-02T14:54:58.474Z</time></trkpt><trkpt lat="46.0916195" lon="13.4588412"><ele>201.25</ele><time>2026-05-02T14:54:59.474Z</time></trkpt><trkpt lat="46.0915573" lon="13.4590248"><ele>197.5</ele><time>2026-05-02T14:55:00.474Z</time></trkpt><trkpt lat="46.091491" lon="13.4591933"><ele>193.75</ele><time>2026-05-02T14:55:01.474Z</time></trkpt><trkpt lat="46.0914238" lon="13.4593525"><ele>190.0</ele><time>2026-05-02T14:55:02.473Z</time></trkpt><trkpt lat="46.0913622" lon="13.4595202"><ele>192.75</ele><time>2026-05-02T14:55:03.475Z</time></trkpt><trkpt lat="46.0913137" lon="13.4597035"><ele>195.5</ele><time>2026-05-02T14:55:04.473Z</time></trkpt><trkpt lat="46.0912747" lon="13.4598822"><ele>198.25</ele><time>2026-05-02T14:55:05.473Z</time></trkpt><trkpt lat="46.0912418" lon="13.4600535"><ele>201.0</ele><time>2026-05-02T14:55:06.472Z</time></trkpt><trkpt lat="46.0912145" lon="13.4602375"><ele>201.0</ele><time>2026-05-02T14:55:07.471Z</time></trkpt><trkpt lat="46.091184" lon="13.4604477"><ele>201.0</ele><time>2026-05-02T14:55:08.472Z</time></trkpt><trkpt lat="46.0910855" lon="13.4609082"><ele>204.66666666666669</ele><time>2026-05-02T14:55:10.474Z</time></trkpt><trkpt lat="46.0910262" lon="13.4611378"><ele>208.33333333333334</ele><time>2026-05-02T14:55:11.474Z</time></trkpt><trkpt lat="46.0909612" lon="13.4613543"><ele>212.0</ele><time>2026-05-02T14:55:12.474Z</time></trkpt><trkpt lat="46.0908867" lon="13.4615583"><ele>215.33333333333334</ele><time>2026-05-02T14:55:13.473Z</time></trkpt><trkpt lat="46.0908145" lon="13.4617577"><ele>218.66666666666669</ele><time>2026-05-02T14:55:14.473Z</time></trkpt><trkpt lat="46.0907638" lon="13.461963"><ele>222.0</ele><time>2026-05-02T14:55:15.474Z</time></trkpt><trkpt lat="46.0907397" lon="13.462168"><ele>227.6</ele><time>2026-05-02T14:55:16.474Z</time></trkpt><trkpt lat="46.0907365" lon="13.4623593"><ele>233.2</ele><time>2026-05-02T14:55:17.473Z</time></trkpt><trkpt lat="46.0907463" lon="13.4625175"><ele>238.8</ele><time>2026-05-02T14:55:18.475Z</time></trkpt><trkpt lat="46.0907473" lon="13.4626345"><ele>244.4</ele><time>2026-05-02T14:55:19.473Z</time></trkpt><trkpt lat="46.0906725" lon="13.4627342"><ele>250.0</ele><time>2026-05-02T14:55:21.474Z</time></trkpt><trkpt lat="46.0905948" lon="13.462623"><ele>250.0</ele><time>2026-05-02T14:55:23.472Z</time></trkpt><trkpt lat="46.0905788" lon="13.4625028"><ele>250.0</ele><time>2026-05-02T14:55:24.472Z</time></trkpt><trkpt lat="46.0905588" lon="13.4623587"><ele>250.0</ele><time>2026-05-02T14:55:25.472Z</time></trkpt><trkpt lat="46.0905135" lon="13.4622243"><ele>250.0</ele><time>2026-05-02T14:55:26.472Z</time></trkpt><trkpt lat="46.0904493" lon="13.4621288"><ele>250.0</ele><time>2026-05-02T14:55:27.474Z</time></trkpt><trkpt lat="46.0903788" lon="13.4620892"><ele>250.0</ele><time>2026-05-02T14:55:28.473Z</time></trkpt><trkpt lat="46.0902887" lon="13.4621698"><ele>250.0</ele><time>2026-05-02T14:55:30.471Z</time></trkpt><trkpt lat="46.090393" lon="13.4624323"><ele>250.0</ele><time>2026-05-02T14:55:33.474Z</time></trkpt><trkpt lat="46.0904043" lon="13.4625447"><ele>250.0</ele><time>2026-05-02T14:55:34.473Z</time></trkpt><trkpt lat="46.0903883" lon="13.4626883"><ele>250.0</ele><time>2026-05-02T14:55:35.471Z</time></trkpt><trkpt lat="46.0903545" lon="13.4628518"><ele>250.0</ele><time>2026-05-02T14:55:36.473Z</time></trkpt><trkpt lat="46.0903033" lon="13.4630345"><ele>250.0</ele><time>2026-05-02T14:55:37.473Z</time></trkpt><trkpt lat="46.0902325" lon="13.4632168"><ele>250.0</ele><time>2026-05-02T14:55:38.473Z</time></trkpt><trkpt lat="46.0901433" lon="13.4633912"><ele>250.5</ele><time>2026-05-02T14:55:39.474Z</time></trkpt><trkpt lat="46.0900575" lon="13.4635412"><ele>251.0</ele><time>2026-05-02T14:55:40.472Z</time></trkpt><trkpt lat="46.0899868" lon="13.463684"><ele>251.5</ele><time>2026-05-02T14:55:41.472Z</time></trkpt><trkpt lat="46.0899502" lon="13.4638275"><ele>252.0</ele><time>2026-05-02T14:55:42.472Z</time></trkpt><trkpt lat="46.0899387" lon="13.4639627"><ele>256.0</ele><time>2026-05-02T14:55:43.47Z</time></trkpt><trkpt lat="46.0899107" lon="13.4640562"><ele>260.0</ele><time>2026-05-02T14:55:44.47Z</time></trkpt><trkpt lat="46.0898335" lon="13.4641197"><ele>264.0</ele><time>2026-05-02T14:55:46.472Z</time></trkpt><trkpt lat="46.0897682" lon="13.4640413"><ele>268.0</ele><time>2026-05-02T14:55:48.473Z</time></trkpt><trkpt lat="46.0897897" lon="13.4639188"><ele>272.0</ele><time>2026-05-02T14:55:50.472Z</time></trkpt><trkpt lat="46.0897848" lon="13.4637728"><ele>276.0</ele><time>2026-05-02T14:57:06.473Z</time></trkpt><trkpt lat="46.089812" lon="13.4634592"><ele>276.0</ele><time>2026-05-02T14:57:09.469Z</time></trkpt><trkpt lat="46.0898105" lon="13.4633392"><ele>276.0</ele><time>2026-05-02T14:57:10.469Z</time></trkpt><trkpt lat="46.0897975" lon="13.463215"><ele>276.0</ele><time>2026-05-02T14:57:11.473Z</time></trkpt><trkpt lat="46.0897562" lon="13.463093"><ele>276.0</ele><time>2026-05-02T14:57:12.472Z</time></trkpt><trkpt lat="46.0896935" lon="13.4629972"><ele>276.0</ele><time>2026-05-02T14:57:13.473Z</time></trkpt><trkpt lat="46.0896082" lon="13.462914"><ele>273.40000000000003</ele><time>2026-05-02T14:57:14.473Z</time></trkpt><trkpt lat="46.0895163" lon="13.4628325"><ele>270.8</ele><time>2026-05-02T14:57:15.473Z</time></trkpt><trkpt lat="46.0894228" lon="13.462755"><ele>268.20000000000005</ele><time>2026-05-02T14:57:16.473Z</time></trkpt><trkpt lat="46.089329" lon="13.462688"><ele>265.6</ele><time>2026-05-02T14:57:17.473Z</time></trkpt><trkpt lat="46.0892448" lon="13.4626538"><ele>263.0</ele><time>2026-05-02T14:57:18.473Z</time></trkpt><trkpt lat="46.089164" lon="13.4626573"><ele>262.33333333333337</ele><time>2026-05-02T14:57:19.475Z</time></trkpt><trkpt lat="46.0890828" lon="13.4627113"><ele>261.6666666666667</ele><time>2026-05-02T14:57:20.473Z</time></trkpt><trkpt lat="46.0890057" lon="13.462799"><ele>261.0</ele><time>2026-05-02T14:57:21.473Z</time></trkpt><trkpt lat="46.0889457" lon="13.4629022"><ele>260.3333333333333</ele><time>2026-05-02T14:57:22.473Z</time></trkpt><trkpt lat="46.0889132" lon="13.4630167"><ele>259.66666666666663</ele><time>2026-05-02T14:57:23.473Z</time></trkpt><trkpt lat="46.0889202" lon="13.4631255"><ele>259.0</ele><time>2026-05-02T14:57:24.473Z</time></trkpt><trkpt lat="46.0889668" lon="13.463211"><ele>263.25</ele><time>2026-05-02T14:57:25.472Z</time></trkpt><trkpt lat="46.0890372" lon="13.4632757"><ele>267.5</ele><time>2026-05-02T14:57:26.472Z</time></trkpt><trkpt lat="46.0891217" lon="13.4633355"><ele>271.75</ele><time>2026-05-02T14:57:27.473Z</time></trkpt><trkpt lat="46.0891965" lon="13.4634165"><ele>276.0</ele><time>2026-05-02T14:57:28.472Z</time></trkpt><trkpt lat="46.0892783" lon="13.4636777"><ele>278.5</ele><time>2026-05-02T14:57:30.472Z</time></trkpt><trkpt lat="46.0893015" lon="13.4638302"><ele>281.0</ele><time>2026-05-02T14:57:31.473Z</time></trkpt><trkpt lat="46.0892872" lon="13.4639995"><ele>283.5</ele><time>2026-05-02T14:57:32.472Z</time></trkpt><trkpt lat="46.0892498" lon="13.4641765"><ele>286.0</ele><time>2026-05-02T14:57:33.474Z</time></trkpt><trkpt lat="46.089191" lon="13.4643562"><ele>286.0</ele><time>2026-05-02T14:57:34.471Z</time></trkpt><trkpt lat="46.0891205" lon="13.4645313"><ele>286.0</ele><time>2026-05-02T14:57:35.471Z</time></trkpt><trkpt lat="46.0890367" lon="13.4646952"><ele>286.0</ele><time>2026-05-02T14:57:36.473Z</time></trkpt><trkpt lat="46.0889428" lon="13.4648482"><ele>286.0</ele><time>2026-05-02T14:57:37.472Z</time></trkpt><trkpt lat="46.0888387" lon="13.4649858"><ele>289.0</ele><time>2026-05-02T14:57:38.473Z</time></trkpt><trkpt lat="46.0887228" lon="13.4650972"><ele>292.0</ele><time>2026-05-02T14:57:39.476Z</time></trkpt><trkpt lat="46.0886005" lon="13.4651932"><ele>295.0</ele><time>2026-05-02T14:57:40.473Z</time></trkpt><trkpt lat="46.0884772" lon="13.4652913"><ele>298.0</ele><time>2026-05-02T14:57:41.473Z</time></trkpt><trkpt lat="46.0883482" lon="13.4653923"><ele>302.66666666666663</ele><time>2026-05-02T14:57:42.472Z</time></trkpt><trkpt lat="46.0882225" lon="13.4655043"><ele>307.3333333333333</ele><time>2026-05-02T14:57:43.472Z</time></trkpt><trkpt lat="46.088098" lon="13.4656362"><ele>312.0</ele><time>2026-05-02T14:57:44.472Z</time></trkpt><trkpt lat="46.0879725" lon="13.4657837"><ele>312.0</ele><time>2026-05-02T14:57:45.473Z</time></trkpt><trkpt lat="46.0878448" lon="13.4659402"><ele>312.0</ele><time>2026-05-02T14:57:46.473Z</time></trkpt><trkpt lat="46.0877168" lon="13.4661007"><ele>312.0</ele><time>2026-05-02T14:57:47.471Z</time></trkpt><trkpt lat="46.0875823" lon="13.4662618"><ele>308.5</ele><time>2026-05-02T14:57:48.473Z</time></trkpt><trkpt lat="46.0874623" lon="13.466446"><ele>305.0</ele><time>2026-05-02T14:57:49.47Z</time></trkpt><trkpt lat="46.0872633" lon="13.466805"><ele>310.8</ele><time>2026-05-02T14:57:51.472Z</time></trkpt><trkpt lat="46.087205" lon="13.4669495"><ele>316.6</ele><time>2026-05-02T14:57:52.472Z</time></trkpt><trkpt lat="46.0871788" lon="13.4670832"><ele>322.4</ele><time>2026-05-02T14:57:53.476Z</time></trkpt><trkpt lat="46.0871863" lon="13.46723"><ele>328.2</ele><time>2026-05-02T14:57:54.47Z</time></trkpt><trkpt lat="46.0872218" lon="13.4673842"><ele>334.0</ele><time>2026-05-02T14:57:55.47Z</time></trkpt><trkpt lat="46.08726" lon="13.4675507"><ele>334.0</ele><time>2026-05-02T14:57:56.468Z</time></trkpt><trkpt lat="46.0872922" lon="13.467726"><ele>334.0</ele><time>2026-05-02T14:57:57.469Z</time></trkpt><trkpt lat="46.0873182" lon="13.4678788"><ele>334.0</ele><time>2026-05-02T14:57:58.47Z</time></trkpt><trkpt lat="46.0873647" lon="13.4679763"><ele>334.0</ele><time>2026-05-02T14:57:59.47Z</time></trkpt><trkpt lat="46.0874277" lon="13.4680285"><ele>334.0</ele><time>2026-05-02T14:58:00.471Z</time></trkpt><trkpt lat="46.087499" lon="13.468026"><ele>331.6</ele><time>2026-05-02T14:58:01.471Z</time></trkpt><trkpt lat="46.0875945" lon="13.4680117"><ele>329.2</ele><time>2026-05-02T14:58:02.471Z</time></trkpt><trkpt lat="46.0876928" lon="13.4679878"><ele>326.8</ele><time>2026-05-02T14:58:03.472Z</time></trkpt><trkpt lat="46.0878018" lon="13.4679973"><ele>324.40000000000003</ele><time>2026-05-02T14:58:04.471Z</time></trkpt><trkpt lat="46.087916" lon="13.4680372"><ele>322.0</ele><time>2026-05-02T14:58:05.471Z</time></trkpt><trkpt lat="46.0880432" lon="13.4681145"><ele>322.0</ele><time>2026-05-02T14:58:06.471Z</time></trkpt><trkpt lat="46.0881717" lon="13.4682198"><ele>322.0</ele><time>2026-05-02T14:58:07.471Z</time></trkpt><trkpt lat="46.0883122" lon="13.4683433"><ele>322.0</ele><time>2026-05-02T14:58:08.471Z</time></trkpt><trkpt lat="46.0884423" lon="13.4684712"><ele>321.0</ele><time>2026-05-02T14:58:09.472Z</time></trkpt><trkpt lat="46.0885688" lon="13.4685867"><ele>320.0</ele><time>2026-05-02T14:58:10.473Z</time></trkpt><trkpt lat="46.0887602" lon="13.4687658"><ele>319.0</ele><time>2026-05-02T14:58:12.475Z</time></trkpt><trkpt lat="46.0888192" lon="13.4688513"><ele>319.0</ele><time>2026-05-02T14:58:13.471Z</time></trkpt><trkpt lat="46.0888457" lon="13.4689567"><ele>319.0</ele><time>2026-05-02T14:58:14.472Z</time></trkpt><trkpt lat="46.0888343" lon="13.4690782"><ele>319.0</ele><time>2026-05-02T14:58:15.475Z</time></trkpt><trkpt lat="46.0887907" lon="13.4691893"><ele>319.0</ele><time>2026-05-02T14:58:16.472Z</time></trkpt><trkpt lat="46.0887082" lon="13.469264"><ele>319.0</ele><time>2026-05-02T14:58:17.472Z</time></trkpt><trkpt lat="46.088593" lon="13.469328"><ele>319.0</ele><time>2026-05-02T14:58:18.472Z</time></trkpt><trkpt lat="46.088461" lon="13.4693912"><ele>319.0</ele><time>2026-05-02T14:58:19.471Z</time></trkpt><trkpt lat="46.0883138" lon="13.4694492"><ele>319.0</ele><time>2026-05-02T14:58:20.471Z</time></trkpt><trkpt lat="46.0881577" lon="13.4695308"><ele>315.66666666666663</ele><time>2026-05-02T14:58:21.47Z</time></trkpt><trkpt lat="46.0880047" lon="13.4696307"><ele>312.3333333333333</ele><time>2026-05-02T14:58:22.47Z</time></trkpt><trkpt lat="46.087856" lon="13.4697253"><ele>309.0</ele><time>2026-05-02T14:58:23.47Z</time></trkpt><trkpt lat="46.0877082" lon="13.4698023"><ele>309.0</ele><time>2026-05-02T14:58:24.471Z</time></trkpt><trkpt lat="46.087563" lon="13.4698713"><ele>309.0</ele><time>2026-05-02T14:58:25.47Z</time></trkpt><trkpt lat="46.087425" lon="13.4699517"><ele>309.0</ele><time>2026-05-02T14:58:26.471Z</time></trkpt><trkpt lat="46.0873042" lon="13.4700663"><ele>309.0</ele><time>2026-05-02T14:58:27.475Z</time></trkpt><trkpt lat="46.0871973" lon="13.4702022"><ele>308.3333333333333</ele><time>2026-05-02T14:58:28.47Z</time></trkpt><trkpt lat="46.0871023" lon="13.4703642"><ele>307.66666666666663</ele><time>2026-05-02T14:58:29.469Z</time></trkpt><trkpt lat="46.0870263" lon="13.4705532"><ele>307.0</ele><time>2026-05-02T14:58:30.473Z</time></trkpt><trkpt lat="46.0869663" lon="13.4707643"><ele>307.0</ele><time>2026-05-02T14:58:31.472Z</time></trkpt><trkpt lat="46.0868885" lon="13.471235"><ele>307.0</ele><time>2026-05-02T14:58:33.472Z</time></trkpt><trkpt lat="46.0868497" lon="13.471473"><ele>303.0</ele><time>2026-05-02T14:58:34.471Z</time></trkpt><trkpt lat="46.086804" lon="13.4717025"><ele>299.0</ele><time>2026-05-02T14:58:35.471Z</time></trkpt><trkpt lat="46.0867488" lon="13.4719207"><ele>295.0</ele><time>2026-05-02T14:58:36.472Z</time></trkpt><trkpt lat="46.0866828" lon="13.4721195"><ele>290.3333333333333</ele><time>2026-05-02T14:58:37.471Z</time></trkpt><trkpt lat="46.0865953" lon="13.4723053"><ele>285.6666666666667</ele><time>2026-05-02T14:58:38.472Z</time></trkpt><trkpt lat="46.086485" lon="13.472485"><ele>281.0</ele><time>2026-05-02T14:58:39.472Z</time></trkpt><trkpt lat="46.0863592" lon="13.4726583"><ele>280.6666666666667</ele><time>2026-05-02T14:58:40.475Z</time></trkpt><trkpt lat="46.0862227" lon="13.4728293"><ele>280.3333333333333</ele><time>2026-05-02T14:58:41.473Z</time></trkpt><trkpt lat="46.08609" lon="13.4730003"><ele>280.0</ele><time>2026-05-02T14:58:42.473Z</time></trkpt><trkpt lat="46.0859607" lon="13.4731752"><ele>278.3333333333333</ele><time>2026-05-02T14:58:43.472Z</time></trkpt><trkpt lat="46.0858388" lon="13.4733608"><ele>276.6666666666667</ele><time>2026-05-02T14:58:44.474Z</time></trkpt><trkpt lat="46.085729" lon="13.473553"><ele>275.0</ele><time>2026-05-02T14:58:45.471Z</time></trkpt><trkpt lat="46.0856317" lon="13.4737448"><ele>273.75</ele><time>2026-05-02T14:58:46.471Z</time></trkpt><trkpt lat="46.0855423" lon="13.4739268"><ele>272.5</ele><time>2026-05-02T14:58:47.47Z</time></trkpt><trkpt lat="46.0854595" lon="13.4740942"><ele>271.25</ele><time>2026-05-02T14:58:48.469Z</time></trkpt><trkpt lat="46.0853902" lon="13.4742508"><ele>270.0</ele><time>2026-05-02T14:58:49.472Z</time></trkpt><trkpt lat="46.0853398" lon="13.4744092"><ele>270.0</ele><time>2026-05-02T14:58:50.472Z</time></trkpt><trkpt lat="46.0853137" lon="13.4745772"><ele>270.0</ele><time>2026-05-02T14:58:51.471Z</time></trkpt><trkpt lat="46.0853102" lon="13.4747458"><ele>270.0</ele><time>2026-05-02T14:58:52.471Z</time></trkpt><trkpt lat="46.0853738" lon="13.4751253"><ele>270.3333333333333</ele><time>2026-05-02T14:58:54.472Z</time></trkpt><trkpt lat="46.0854237" lon="13.4753323"><ele>270.66666666666663</ele><time>2026-05-02T14:58:55.471Z</time></trkpt><trkpt lat="46.0854725" lon="13.4755442"><ele>271.0</ele><time>2026-05-02T14:58:56.472Z</time></trkpt><trkpt lat="46.085518" lon="13.475765"><ele>271.0</ele><time>2026-05-02T14:58:57.473Z</time></trkpt><trkpt lat="46.0855603" lon="13.4759932"><ele>271.0</ele><time>2026-05-02T14:58:58.473Z</time></trkpt><trkpt lat="46.085606" lon="13.4762223"><ele>271.0</ele><time>2026-05-02T14:58:59.472Z</time></trkpt><trkpt lat="46.0856552" lon="13.4764562"><ele>270.66666666666663</ele><time>2026-05-02T14:59:00.474Z</time></trkpt><trkpt lat="46.0856962" lon="13.4766943"><ele>270.3333333333333</ele><time>2026-05-02T14:59:01.474Z</time></trkpt><trkpt lat="46.085722" lon="13.4769425"><ele>270.0</ele><time>2026-05-02T14:59:02.473Z</time></trkpt><trkpt lat="46.0857313" lon="13.4771975"><ele>269.0</ele><time>2026-05-02T14:59:03.474Z</time></trkpt><trkpt lat="46.0857333" lon="13.4774522"><ele>268.0</ele><time>2026-05-02T14:59:04.474Z</time></trkpt><trkpt lat="46.0857372" lon="13.4777082"><ele>267.0</ele><time>2026-05-02T14:59:05.474Z</time></trkpt><trkpt lat="46.0857552" lon="13.4779605"><ele>275.0</ele><time>2026-05-02T14:59:06.474Z</time></trkpt><trkpt lat="46.085796" lon="13.4782047"><ele>283.0</ele><time>2026-05-02T14:59:07.473Z</time></trkpt><trkpt lat="46.0858557" lon="13.4784402"><ele>291.0</ele><time>2026-05-02T14:59:08.473Z</time></trkpt><trkpt lat="46.0859232" lon="13.478669"><ele>292.0</ele><time>2026-05-02T14:59:09.473Z</time></trkpt><trkpt lat="46.085993" lon="13.4788895"><ele>293.0</ele><time>2026-05-02T14:59:10.471Z</time></trkpt><trkpt lat="46.086058" lon="13.4791075"><ele>294.0</ele><time>2026-05-02T14:59:11.471Z</time></trkpt><trkpt lat="46.0861135" lon="13.4793257"><ele>294.0</ele><time>2026-05-02T14:59:12.471Z</time></trkpt><trkpt lat="46.0861602" lon="13.4795408"><ele>294.0</ele><time>2026-05-02T14:59:13.47Z</time></trkpt><trkpt lat="46.0862382" lon="13.4799693"><ele>294.0</ele><time>2026-05-02T14:59:15.473Z</time></trkpt><trkpt lat="46.0862725" lon="13.4801755"><ele>294.0</ele><time>2026-05-02T14:59:16.473Z</time></trkpt><trkpt lat="46.0863072" lon="13.4803602"><ele>294.0</ele><time>2026-05-02T14:59:17.473Z</time></trkpt><trkpt lat="46.0863287" lon="13.4805237"><ele>294.0</ele><time>2026-05-02T14:59:18.474Z</time></trkpt><trkpt lat="46.0863398" lon="13.4806938"><ele>295.0</ele><time>2026-05-02T14:59:19.473Z</time></trkpt><trkpt lat="46.0863318" lon="13.480878"><ele>296.0</ele><time>2026-05-02T14:59:20.473Z</time></trkpt><trkpt lat="46.0863167" lon="13.4810742"><ele>297.0</ele><time>2026-05-02T14:59:21.474Z</time></trkpt><trkpt lat="46.0863015" lon="13.481279"><ele>298.0</ele><time>2026-05-02T14:59:22.473Z</time></trkpt><trkpt lat="46.0862873" lon="13.4814907"><ele>300.25</ele><time>2026-05-02T14:59:23.473Z</time></trkpt><trkpt lat="46.0862735" lon="13.4816942"><ele>302.5</ele><time>2026-05-02T14:59:24.474Z</time></trkpt><trkpt lat="46.0862753" lon="13.4818783"><ele>304.75</ele><time>2026-05-02T14:59:25.472Z</time></trkpt><trkpt lat="46.0863025" lon="13.4820575"><ele>307.0</ele><time>2026-05-02T14:59:26.472Z</time></trkpt><trkpt lat="46.0863532" lon="13.4822423"><ele>307.66666666666663</ele><time>2026-05-02T14:59:27.473Z</time></trkpt><trkpt lat="46.0864312" lon="13.482425"><ele>308.3333333333333</ele><time>2026-05-02T14:59:28.475Z</time></trkpt><trkpt lat="46.086508" lon="13.4826177"><ele>309.0</ele><time>2026-05-02T14:59:29.472Z</time></trkpt><trkpt lat="46.0866893" lon="13.4829927"><ele>313.3333333333333</ele><time>2026-05-02T14:59:31.472Z</time></trkpt><trkpt lat="46.0867932" lon="13.4831715"><ele>317.66666666666663</ele><time>2026-05-02T14:59:32.471Z</time></trkpt><trkpt lat="46.0868958" lon="13.4833478"><ele>322.0</ele><time>2026-05-02T14:59:33.472Z</time></trkpt><trkpt lat="46.086993" lon="13.483519"><ele>319.0</ele><time>2026-05-02T14:59:34.47Z</time></trkpt><trkpt lat="46.0871422" lon="13.4838807"><ele>316.0</ele><time>2026-05-02T14:59:36.472Z</time></trkpt><trkpt lat="46.087187" lon="13.4840552"><ele>313.0</ele><time>2026-05-02T14:59:37.47Z</time></trkpt><trkpt lat="46.0872247" lon="13.4842098"><ele>313.0</ele><time>2026-05-02T14:59:38.472Z</time></trkpt><trkpt lat="46.0872663" lon="13.4843302"><ele>313.0</ele><time>2026-05-02T14:59:39.473Z</time></trkpt><trkpt lat="46.0873187" lon="13.48444"><ele>313.0</ele><time>2026-05-02T14:59:40.476Z</time></trkpt><trkpt lat="46.0873753" lon="13.484529"><ele>313.0</ele><time>2026-05-02T14:59:41.472Z</time></trkpt><trkpt lat="46.0874383" lon="13.4846038"><ele>313.0</ele><time>2026-05-02T14:59:42.473Z</time></trkpt><trkpt lat="46.0875153" lon="13.4846517"><ele>313.0</ele><time>2026-05-02T14:59:43.472Z</time></trkpt><trkpt lat="46.0876027" lon="13.4846898"><ele>317.8</ele><time>2026-05-02T14:59:44.472Z</time></trkpt><trkpt lat="46.0876947" lon="13.4847293"><ele>322.6</ele><time>2026-05-02T14:59:45.475Z</time></trkpt><trkpt lat="46.0877877" lon="13.4847697"><ele>327.40000000000003</ele><time>2026-05-02T14:59:46.472Z</time></trkpt><trkpt lat="46.0878818" lon="13.4848072"><ele>332.20000000000005</ele><time>2026-05-02T14:59:47.472Z</time></trkpt><trkpt lat="46.0879773" lon="13.4848432"><ele>337.0</ele><time>2026-05-02T14:59:48.472Z</time></trkpt><trkpt lat="46.0880732" lon="13.4848852"><ele>337.0</ele><time>2026-05-02T14:59:49.471Z</time></trkpt><trkpt lat="46.0881653" lon="13.4849375"><ele>337.0</ele><time>2026-05-02T14:59:50.472Z</time></trkpt><trkpt lat="46.0882573" lon="13.4849958"><ele>337.0</ele><time>2026-05-02T14:59:51.471Z</time></trkpt><trkpt lat="46.088351" lon="13.4850652"><ele>337.0</ele><time>2026-05-02T14:59:52.471Z</time></trkpt><trkpt lat="46.08845" lon="13.4851447"><ele>337.0</ele><time>2026-05-02T14:59:53.47Z</time></trkpt><trkpt lat="46.0885647" lon="13.4852403"><ele>334.5</ele><time>2026-05-02T14:59:54.471Z</time></trkpt><trkpt lat="46.0886962" lon="13.4853763"><ele>332.0</ele><time>2026-05-02T14:59:55.471Z</time></trkpt><trkpt lat="46.0889772" lon="13.4856957"><ele>342.0</ele><time>2026-05-02T14:59:57.481Z</time></trkpt><trkpt lat="46.089094" lon="13.48586"><ele>352.0</ele><time>2026-05-02T14:59:58.477Z</time></trkpt><trkpt lat="46.0891882" lon="13.4860452"><ele>362.0</ele><time>2026-05-02T14:59:59.477Z</time></trkpt><trkpt lat="46.08926" lon="13.486249"><ele>358.0</ele><time>2026-05-02T15:00:00.477Z</time></trkpt><trkpt lat="46.089305" lon="13.4864555"><ele>354.0</ele><time>2026-05-02T15:00:01.483Z</time></trkpt><trkpt lat="46.089322" lon="13.4866493"><ele>350.0</ele><time>2026-05-02T15:00:02.486Z</time></trkpt><trkpt lat="46.089339" lon="13.486843"><ele>346.0</ele><time>2026-05-02T15:00:03.488Z</time></trkpt><trkpt lat="46.0893783" lon="13.487043"><ele>343.75</ele><time>2026-05-02T15:00:04.489Z</time></trkpt><trkpt lat="46.0894335" lon="13.4872357"><ele>341.5</ele><time>2026-05-02T15:00:05.481Z</time></trkpt><trkpt lat="46.0895073" lon="13.4874208"><ele>339.25</ele><time>2026-05-02T15:00:06.483Z</time></trkpt><trkpt lat="46.0895958" lon="13.4876003"><ele>337.0</ele><time>2026-05-02T15:00:07.482Z</time></trkpt><trkpt lat="46.0897018" lon="13.487775"><ele>334.25</ele><time>2026-05-02T15:00:08.483Z</time></trkpt><trkpt lat="46.089809" lon="13.4879338"><ele>331.5</ele><time>2026-05-02T15:00:09.48Z</time></trkpt><trkpt lat="46.0899035" lon="13.4880825"><ele>328.75</ele><time>2026-05-02T15:00:10.48Z</time></trkpt><trkpt lat="46.089986" lon="13.4882255"><ele>326.0</ele><time>2026-05-02T15:00:11.488Z</time></trkpt><trkpt lat="46.0900565" lon="13.4883578"><ele>331.4</ele><time>2026-05-02T15:00:12.498Z</time></trkpt><trkpt lat="46.0901183" lon="13.4884913"><ele>336.8</ele><time>2026-05-02T15:00:13.49Z</time></trkpt><trkpt lat="46.0901635" lon="13.4886308"><ele>342.2</ele><time>2026-05-02T15:00:14.474Z</time></trkpt><trkpt lat="46.0901863" lon="13.4887785"><ele>347.59999999999997</ele><time>2026-05-02T15:00:15.474Z</time></trkpt><trkpt lat="46.09019" lon="13.4889405"><ele>353.0</ele><time>2026-05-02T15:00:16.474Z</time></trkpt><trkpt lat="46.0901795" lon="13.4893533"><ele>354.6666666666667</ele><time>2026-05-02T15:00:18.474Z</time></trkpt><trkpt lat="46.0901647" lon="13.4895937"><ele>356.3333333333333</ele><time>2026-05-02T15:00:19.474Z</time></trkpt><trkpt lat="46.0901353" lon="13.4898522"><ele>358.0</ele><time>2026-05-02T15:00:20.478Z</time></trkpt><trkpt lat="46.090093" lon="13.4901175"><ele>358.0</ele><time>2026-05-02T15:00:21.475Z</time></trkpt><trkpt lat="46.0900468" lon="13.4903877"><ele>358.0</ele><time>2026-05-02T15:00:22.474Z</time></trkpt><trkpt lat="46.0900042" lon="13.4906672"><ele>358.0</ele><time>2026-05-02T15:00:23.472Z</time></trkpt><trkpt lat="46.0899722" lon="13.4909563"><ele>359.66666666666663</ele><time>2026-05-02T15:00:24.472Z</time></trkpt><trkpt lat="46.0899532" lon="13.491252"><ele>361.3333333333333</ele><time>2026-05-02T15:00:25.472Z</time></trkpt><trkpt lat="46.089943" lon="13.4915475"><ele>363.0</ele><time>2026-05-02T15:00:26.47Z</time></trkpt><trkpt lat="46.0899305" lon="13.491842"><ele>359.6666666666667</ele><time>2026-05-02T15:00:27.473Z</time></trkpt><trkpt lat="46.089915" lon="13.4921308"><ele>356.33333333333337</ele><time>2026-05-02T15:00:28.474Z</time></trkpt><trkpt lat="46.0898998" lon="13.492414"><ele>353.0</ele><time>2026-05-02T15:00:29.473Z</time></trkpt><trkpt lat="46.089892" lon="13.4926848"><ele>358.33333333333337</ele><time>2026-05-02T15:00:30.473Z</time></trkpt><trkpt lat="46.0898995" lon="13.492949"><ele>363.6666666666667</ele><time>2026-05-02T15:00:31.473Z</time></trkpt><trkpt lat="46.0899025" lon="13.493201"><ele>369.0</ele><time>2026-05-02T15:00:32.473Z</time></trkpt><trkpt lat="46.0898903" lon="13.4934467"><ele>369.0</ele><time>2026-05-02T15:00:33.475Z</time></trkpt><trkpt lat="46.089857" lon="13.4936838"><ele>369.0</ele><time>2026-05-02T15:00:34.471Z</time></trkpt><trkpt lat="46.0898117" lon="13.493901"><ele>369.0</ele><time>2026-05-02T15:00:35.473Z</time></trkpt><trkpt lat="46.0897637" lon="13.4940778"><ele>374.0</ele><time>2026-05-02T15:00:36.473Z</time></trkpt><trkpt lat="46.0897085" lon="13.494209"><ele>379.0</ele><time>2026-05-02T15:00:37.472Z</time></trkpt><trkpt lat="46.08954" lon="13.4943212"><ele>384.0</ele><time>2026-05-02T15:00:39.472Z</time></trkpt><trkpt lat="46.0894533" lon="13.4943338"><ele>389.0</ele><time>2026-05-02T15:00:40.472Z</time></trkpt><trkpt lat="46.0893803" lon="13.4943728"><ele>388.99999999999994</ele><time>2026-05-02T15:00:41.473Z</time></trkpt><trkpt lat="46.089334" lon="13.4944492"><ele>389.0</ele><time>2026-05-02T15:00:42.474Z</time></trkpt><trkpt lat="46.089311" lon="13.4945627"><ele>389.0</ele><time>2026-05-02T15:00:43.474Z</time></trkpt><trkpt lat="46.0892918" lon="13.4947043"><ele>389.0</ele><time>2026-05-02T15:00:44.475Z</time></trkpt><trkpt lat="46.0892793" lon="13.4948392"><ele>388.99999999999994</ele><time>2026-05-02T15:00:45.474Z</time></trkpt><trkpt lat="46.0892932" lon="13.4949453"><ele>389.0</ele><time>2026-05-02T15:00:46.472Z</time></trkpt><trkpt lat="46.0893973" lon="13.4950085"><ele>390.8333333333333</ele><time>2026-05-02T15:00:48.471Z</time></trkpt><trkpt lat="46.089482" lon="13.4948555"><ele>392.66666666666663</ele><time>2026-05-02T15:00:50.473Z</time></trkpt><trkpt lat="46.0895232" lon="13.4947818"><ele>394.5</ele><time>2026-05-02T15:00:51.474Z</time></trkpt><trkpt lat="46.0895847" lon="13.494758"><ele>396.33333333333337</ele><time>2026-05-02T15:00:52.474Z</time></trkpt><trkpt lat="46.0896623" lon="13.4947773"><ele>398.1666666666667</ele><time>2026-05-02T15:00:53.474Z</time></trkpt><trkpt lat="46.0897603" lon="13.4948222"><ele>400.0</ele><time>2026-05-02T15:00:54.474Z</time></trkpt><trkpt lat="46.0898648" lon="13.4948755"><ele>403.5</ele><time>2026-05-02T15:00:55.474Z</time></trkpt><trkpt lat="46.0899603" lon="13.4949573"><ele>407.0</ele><time>2026-05-02T15:00:56.474Z</time></trkpt><trkpt lat="46.090033" lon="13.4950805"><ele>410.5</ele><time>2026-05-02T15:00:57.475Z</time></trkpt><trkpt lat="46.0900852" lon="13.4952452"><ele>414.0</ele><time>2026-05-02T15:00:58.473Z</time></trkpt><trkpt lat="46.090151" lon="13.4956878"><ele>416.0</ele><time>2026-05-02T15:01:00.474Z</time></trkpt><trkpt lat="46.0901728" lon="13.4959402"><ele>418.0</ele><time>2026-05-02T15:01:01.474Z</time></trkpt><trkpt lat="46.0901915" lon="13.4962007"><ele>420.0</ele><time>2026-05-02T15:01:02.474Z</time></trkpt><trkpt lat="46.0902158" lon="13.4964665"><ele>420.0</ele><time>2026-05-02T15:01:03.474Z</time></trkpt><trkpt lat="46.0902443" lon="13.496724"><ele>420.0</ele><time>2026-05-02T15:01:04.472Z</time></trkpt><trkpt lat="46.0902828" lon="13.4969702"><ele>420.0</ele><time>2026-05-02T15:01:05.471Z</time></trkpt><trkpt lat="46.090332" lon="13.4972062"><ele>420.0</ele><time>2026-05-02T15:01:06.472Z</time></trkpt><trkpt lat="46.0903965" lon="13.497442"><ele>420.0</ele><time>2026-05-02T15:01:07.47Z</time></trkpt><trkpt lat="46.0904558" lon="13.4976882"><ele>420.0</ele><time>2026-05-02T15:01:08.474Z</time></trkpt><trkpt lat="46.0905175" lon="13.4979403"><ele>419.0</ele><time>2026-05-02T15:01:09.472Z</time></trkpt><trkpt lat="46.0905777" lon="13.4981973"><ele>418.0</ele><time>2026-05-02T15:01:10.471Z</time></trkpt><trkpt lat="46.090637" lon="13.4984633"><ele>417.0</ele><time>2026-05-02T15:01:11.472Z</time></trkpt><trkpt lat="46.0906933" lon="13.4987353"><ele>415.33333333333337</ele><time>2026-05-02T15:01:12.471Z</time></trkpt><trkpt lat="46.0907427" lon="13.4990047"><ele>413.6666666666667</ele><time>2026-05-02T15:01:13.471Z</time></trkpt><trkpt lat="46.0907972" lon="13.4992683"><ele>412.0</ele><time>2026-05-02T15:01:14.47Z</time></trkpt><trkpt lat="46.090857" lon="13.4995262"><ele>421.6666666666667</ele><time>2026-05-02T15:01:15.471Z</time></trkpt><trkpt lat="46.090922" lon="13.4997735"><ele>431.33333333333337</ele><time>2026-05-02T15:01:16.472Z</time></trkpt><trkpt lat="46.0909862" lon="13.5000037"><ele>441.0</ele><time>2026-05-02T15:01:17.472Z</time></trkpt><trkpt lat="46.0910437" lon="13.5002412"><ele>443.5</ele><time>2026-05-02T15:01:18.476Z</time></trkpt><trkpt lat="46.0910848" lon="13.500491"><ele>446.0</ele><time>2026-05-02T15:01:19.472Z</time></trkpt><trkpt lat="46.0911063" lon="13.501025"><ele>447.3333333333333</ele><time>2026-05-02T15:01:21.473Z</time></trkpt><trkpt lat="46.091104" lon="13.501304"><ele>448.66666666666663</ele><time>2026-05-02T15:01:22.473Z</time></trkpt><trkpt lat="46.0911003" lon="13.5015823"><ele>450.0</ele><time>2026-05-02T15:01:23.472Z</time></trkpt><trkpt lat="46.0910985" lon="13.5018515"><ele>451.33333333333337</ele><time>2026-05-02T15:01:24.474Z</time></trkpt><trkpt lat="46.0910937" lon="13.5020965"><ele>452.6666666666667</ele><time>2026-05-02T15:01:25.472Z</time></trkpt><trkpt lat="46.0910915" lon="13.5023253"><ele>454.0</ele><time>2026-05-02T15:01:26.472Z</time></trkpt><trkpt lat="46.0910838" lon="13.5025395"><ele>453.0</ele><time>2026-05-02T15:01:27.475Z</time></trkpt><trkpt lat="46.0911312" lon="13.5029422"><ele>452.0</ele><time>2026-05-02T15:01:29.472Z</time></trkpt><trkpt lat="46.0911942" lon="13.5031342"><ele>451.0</ele><time>2026-05-02T15:01:30.472Z</time></trkpt><trkpt lat="46.0912842" lon="13.5033207"><ele>451.0</ele><time>2026-05-02T15:01:31.472Z</time></trkpt><trkpt lat="46.0913915" lon="13.5034983"><ele>451.0</ele><time>2026-05-02T15:01:32.472Z</time></trkpt><trkpt lat="46.0915073" lon="13.5036785"><ele>451.0</ele><time>2026-05-02T15:01:33.473Z</time></trkpt><trkpt lat="46.0916245" lon="13.503866"><ele>459.0</ele><time>2026-05-02T15:01:34.471Z</time></trkpt><trkpt lat="46.0917413" lon="13.5040577"><ele>467.0</ele><time>2026-05-02T15:01:35.471Z</time></trkpt><trkpt lat="46.0918557" lon="13.5042493"><ele>475.0</ele><time>2026-05-02T15:01:36.471Z</time></trkpt><trkpt lat="46.0919597" lon="13.5044275"><ele>474.25</ele><time>2026-05-02T15:01:37.472Z</time></trkpt><trkpt lat="46.0920527" lon="13.5045858"><ele>473.5</ele><time>2026-05-02T15:01:38.471Z</time></trkpt><trkpt lat="46.0921378" lon="13.504723"><ele>472.75</ele><time>2026-05-02T15:01:39.471Z</time></trkpt><trkpt lat="46.0922202" lon="13.5048358"><ele>472.0</ele><time>2026-05-02T15:01:40.471Z</time></trkpt><trkpt lat="46.0924213" lon="13.5049555"><ele>477.0</ele><time>2026-05-02T15:01:42.473Z</time></trkpt><trkpt lat="46.0925462" lon="13.5049967"><ele>482.0</ele><time>2026-05-02T15:01:43.471Z</time></trkpt><trkpt lat="46.0926832" lon="13.5050342"><ele>487.0</ele><time>2026-05-02T15:01:44.473Z</time></trkpt><trkpt lat="46.0928288" lon="13.5050437"><ele>492.0</ele><time>2026-05-02T15:01:45.472Z</time></trkpt><trkpt lat="46.0929563" lon="13.5050237"><ele>492.0</ele><time>2026-05-02T15:01:46.473Z</time></trkpt><trkpt lat="46.0930555" lon="13.5049927"><ele>492.00000000000006</ele><time>2026-05-02T15:01:47.472Z</time></trkpt><trkpt lat="46.0931263" lon="13.5049913"><ele>492.00000000000006</ele><time>2026-05-02T15:01:48.472Z</time></trkpt><trkpt lat="46.0931715" lon="13.5050983"><ele>492.0</ele><time>2026-05-02T15:01:50.472Z</time></trkpt><trkpt lat="46.093098" lon="13.5052665"><ele>492.0</ele><time>2026-05-02T15:01:52.472Z</time></trkpt><trkpt lat="46.0930447" lon="13.5053793"><ele>492.5</ele><time>2026-05-02T15:01:53.47Z</time></trkpt><trkpt lat="46.0929883" lon="13.5055075"><ele>493.0</ele><time>2026-05-02T15:01:54.472Z</time></trkpt><trkpt lat="46.092956" lon="13.5056705"><ele>493.5</ele><time>2026-05-02T15:01:55.471Z</time></trkpt><trkpt lat="46.092944" lon="13.5058578"><ele>494.0</ele><time>2026-05-02T15:01:56.472Z</time></trkpt><trkpt lat="46.0929458" lon="13.5060245"><ele>494.0</ele><time>2026-05-02T15:01:57.472Z</time></trkpt><trkpt lat="46.0929573" lon="13.5061543"><ele>494.0</ele><time>2026-05-02T15:01:58.471Z</time></trkpt><trkpt lat="46.0929823" lon="13.506243"><ele>494.0</ele><time>2026-05-02T15:01:59.472Z</time></trkpt><trkpt lat="46.0930715" lon="13.5062643"><ele>494.0</ele><time>2026-05-02T15:02:01.469Z</time></trkpt><trkpt lat="46.093106" lon="13.5061243"><ele>494.0</ele><time>2026-05-02T15:02:03.47Z</time></trkpt><trkpt lat="46.0932062" lon="13.50596"><ele>493.99999999999994</ele><time>2026-05-02T15:02:07.471Z</time></trkpt><trkpt lat="46.0932545" lon="13.5060395"><ele>494.0</ele><time>2026-05-02T15:02:08.473Z</time></trkpt><trkpt lat="46.093304" lon="13.5061493"><ele>494.0</ele><time>2026-05-02T15:02:09.473Z</time></trkpt><trkpt lat="46.093351" lon="13.506255"><ele>494.0</ele><time>2026-05-02T15:02:10.473Z</time></trkpt><trkpt lat="46.0934025" lon="13.5063577"><ele>493.99999999999994</ele><time>2026-05-02T15:02:11.473Z</time></trkpt><trkpt lat="46.0934478" lon="13.5064543"><ele>494.0</ele><time>2026-05-02T15:02:12.474Z</time></trkpt><trkpt lat="46.0934813" lon="13.5065467"><ele>497.99999999999994</ele><time>2026-05-02T15:02:13.475Z</time></trkpt><trkpt lat="46.0935047" lon="13.5066502"><ele>502.0</ele><time>2026-05-02T15:02:14.474Z</time></trkpt><trkpt lat="46.0935148" lon="13.5067437"><ele>506.0</ele><time>2026-05-02T15:02:15.473Z</time></trkpt><trkpt lat="46.0935817" lon="13.5067333"><ele>510.0</ele><time>2026-05-02T15:02:19.474Z</time></trkpt><trkpt lat="46.093553" lon="13.5065667"><ele>514.0</ele><time>2026-05-02T15:02:21.474Z</time></trkpt><trkpt lat="46.093516" lon="13.5064593"><ele>518.0</ele><time>2026-05-02T15:02:22.473Z</time></trkpt><trkpt lat="46.0934625" lon="13.5063423"><ele>516.1999999999999</ele><time>2026-05-02T15:02:23.474Z</time></trkpt><trkpt lat="46.0934048" lon="13.5062268"><ele>514.4</ele><time>2026-05-02T15:02:24.474Z</time></trkpt><trkpt lat="46.0933028" lon="13.5060197"><ele>512.5999999999999</ele><time>2026-05-02T15:02:26.47Z</time></trkpt><trkpt lat="46.0932507" lon="13.505962"><ele>510.79999999999995</ele><time>2026-05-02T15:02:27.472Z</time></trkpt><trkpt lat="46.0931448" lon="13.5059967"><ele>509.0</ele><time>2026-05-02T15:02:29.471Z</time></trkpt><trkpt lat="46.0931067" lon="13.5061373"><ele>506.49999999999994</ele><time>2026-05-02T15:02:31.474Z</time></trkpt><trkpt lat="46.0930867" lon="13.5062693"><ele>504.0</ele><time>2026-05-02T15:02:33.472Z</time></trkpt><trkpt lat="46.0930535" lon="13.5063628"><ele>501.5</ele><time>2026-05-02T15:02:36.472Z</time></trkpt><trkpt lat="46.0930075" lon="13.5062833"><ele>499.0</ele><time>2026-05-02T15:02:41.471Z</time></trkpt><trkpt lat="46.0929885" lon="13.506116"><ele>496.49999999999994</ele><time>2026-05-02T15:02:43.471Z</time></trkpt><trkpt lat="46.0929773" lon="13.5059953"><ele>494.0</ele><time>2026-05-02T15:02:44.471Z</time></trkpt><trkpt lat="46.0929778" lon="13.5058687"><ele>494.0</ele><time>2026-05-02T15:02:45.473Z</time></trkpt><trkpt lat="46.0930005" lon="13.5056118"><ele>494.0</ele><time>2026-05-02T15:02:47.474Z</time></trkpt><trkpt lat="46.09303" lon="13.5054897"><ele>494.0</ele><time>2026-05-02T15:02:48.472Z</time></trkpt><trkpt lat="46.0930745" lon="13.505383"><ele>494.0</ele><time>2026-05-02T15:02:49.47Z</time></trkpt><trkpt lat="46.093123" lon="13.505303"><ele>494.0</ele><time>2026-05-02T15:02:50.47Z</time></trkpt><trkpt lat="46.0931978" lon="13.5051877"><ele>493.66666666666663</ele><time>2026-05-02T15:02:52.471Z</time></trkpt><trkpt lat="46.0931992" lon="13.5050867"><ele>493.3333333333333</ele><time>2026-05-02T15:02:54.474Z</time></trkpt><trkpt lat="46.093115" lon="13.5050255"><ele>493.0</ele><time>2026-05-02T15:02:56.474Z</time></trkpt><trkpt lat="46.0930448" lon="13.5050417"><ele>492.66666666666663</ele><time>2026-05-02T15:02:57.474Z</time></trkpt><trkpt lat="46.0929655" lon="13.5050728"><ele>492.3333333333333</ele><time>2026-05-02T15:02:58.473Z</time></trkpt><trkpt lat="46.0928763" lon="13.5050922"><ele>492.0</ele><time>2026-05-02T15:02:59.473Z</time></trkpt><trkpt lat="46.0927832" lon="13.5050963"><ele>492.0</ele><time>2026-05-02T15:03:00.473Z</time></trkpt><trkpt lat="46.0927002" lon="13.5050892"><ele>492.0</ele><time>2026-05-02T15:03:01.473Z</time></trkpt><trkpt lat="46.0926148" lon="13.5050338"><ele>492.0</ele><time>2026-05-02T15:03:03.473Z</time></trkpt><trkpt lat="46.0926677" lon="13.5048765"><ele>492.0</ele><time>2026-05-02T15:03:07.474Z</time></trkpt><trkpt lat="46.0929212" lon="13.5048063"><ele>492.0</ele><time>2026-05-02T15:03:11.473Z</time></trkpt><trkpt lat="46.093001" lon="13.5047915"><ele>492.0</ele><time>2026-05-02T15:03:12.472Z</time></trkpt><trkpt lat="46.0930687" lon="13.5047777"><ele>492.0</ele><time>2026-05-02T15:03:13.473Z</time></trkpt><trkpt lat="46.0931832" lon="13.5047752"><ele>492.0</ele><time>2026-05-02T15:03:15.471Z</time></trkpt><trkpt lat="46.0932512" lon="13.5048132"><ele>492.0</ele><time>2026-05-02T15:03:16.47Z</time></trkpt><trkpt lat="46.093326" lon="13.5048713"><ele>492.0</ele><time>2026-05-02T15:03:17.469Z</time></trkpt><trkpt lat="46.093412" lon="13.5049317"><ele>493.0</ele><time>2026-05-02T15:03:18.469Z</time></trkpt><trkpt lat="46.0935053" lon="13.5050043"><ele>494.00000000000006</ele><time>2026-05-02T15:03:19.47Z</time></trkpt><trkpt lat="46.0935977" lon="13.5050713"><ele>495.00000000000006</ele><time>2026-05-02T15:03:20.471Z</time></trkpt><trkpt lat="46.0936717" lon="13.5051362"><ele>496.0</ele><time>2026-05-02T15:03:21.471Z</time></trkpt><trkpt lat="46.0937467" lon="13.5051982"><ele>497.0</ele><time>2026-05-02T15:03:22.47Z</time></trkpt><trkpt lat="46.0938272" lon="13.5052643"><ele>497.0</ele><time>2026-05-02T15:03:23.47Z</time></trkpt><trkpt lat="46.0939465" lon="13.5053482"><ele>497.00000000000006</ele><time>2026-05-02T15:03:24.869Z</time></trkpt><trkpt lat="46.0940707" lon="13.5054135"><ele>497.00000000000006</ele><time>2026-05-02T15:03:26.276Z</time></trkpt><trkpt lat="46.0941538" lon="13.5054472"><ele>497.0</ele><time>2026-05-02T15:03:27.276Z</time></trkpt><trkpt lat="46.0942347" lon="13.5054752"><ele>497.0</ele><time>2026-05-02T15:03:28.278Z</time></trkpt><trkpt lat="46.0943083" lon="13.5054967"><ele>497.0</ele><time>2026-05-02T15:03:29.28Z</time></trkpt><trkpt lat="46.0944972" lon="13.5054317"><ele>497.0</ele><time>2026-05-02T15:03:32.28Z</time></trkpt><trkpt lat="46.094638" lon="13.5053193"><ele>497.0</ele><time>2026-05-02T15:03:34.28Z</time></trkpt><trkpt lat="46.0947565" lon="13.505217"><ele>493.8</ele><time>2026-05-02T15:03:36.28Z</time></trkpt><trkpt lat="46.0948542" lon="13.5051767"><ele>490.6</ele><time>2026-05-02T15:03:38.28Z</time></trkpt><trkpt lat="46.0949682" lon="13.5051773"><ele>487.40000000000003</ele><time>2026-05-02T15:03:40.278Z</time></trkpt><trkpt lat="46.0951043" lon="13.505153"><ele>484.20000000000005</ele><time>2026-05-02T15:03:42.278Z</time></trkpt><trkpt lat="46.0951767" lon="13.505126"><ele>481.0</ele><time>2026-05-02T15:03:43.278Z</time></trkpt><trkpt lat="46.0952438" lon="13.505082"><ele>478.83333333333337</ele><time>2026-05-02T15:03:44.278Z</time></trkpt><trkpt lat="46.0953152" lon="13.505023"><ele>476.6666666666667</ele><time>2026-05-02T15:03:45.278Z</time></trkpt><trkpt lat="46.0953823" lon="13.504947"><ele>474.5</ele><time>2026-05-02T15:03:46.277Z</time></trkpt><trkpt lat="46.0954428" lon="13.5048558"><ele>472.33333333333337</ele><time>2026-05-02T15:03:47.278Z</time></trkpt><trkpt lat="46.0955042" lon="13.5047688"><ele>470.1666666666667</ele><time>2026-05-02T15:03:48.277Z</time></trkpt><trkpt lat="46.0955603" lon="13.5046765"><ele>468.0</ele><time>2026-05-02T15:03:49.277Z</time></trkpt><trkpt lat="46.0956172" lon="13.5045852"><ele>464.5</ele><time>2026-05-02T15:03:50.275Z</time></trkpt><trkpt lat="46.0957453" lon="13.5044075"><ele>461.0</ele><time>2026-05-02T15:03:52.276Z</time></trkpt><trkpt lat="46.0958143" lon="13.5043238"><ele>457.5</ele><time>2026-05-02T15:03:53.28Z</time></trkpt><trkpt lat="46.0958873" lon="13.5042442"><ele>454.0</ele><time>2026-05-02T15:03:54.279Z</time></trkpt><trkpt lat="46.0959683" lon="13.5041718"><ele>454.0</ele><time>2026-05-02T15:03:55.28Z</time></trkpt><trkpt lat="46.0960497" lon="13.5040987"><ele>454.0</ele><time>2026-05-02T15:03:56.279Z</time></trkpt><trkpt lat="46.096131" lon="13.5040208"><ele>454.0</ele><time>2026-05-02T15:03:57.278Z</time></trkpt><trkpt lat="46.0962255" lon="13.503935"><ele>454.0</ele><time>2026-05-02T15:03:58.47Z</time></trkpt><trkpt lat="46.0963032" lon="13.5038588"><ele>454.0</ele><time>2026-05-02T15:03:59.47Z</time></trkpt><trkpt lat="46.0963853" lon="13.5037887"><ele>452.79999999999995</ele><time>2026-05-02T15:04:00.47Z</time></trkpt><trkpt lat="46.096463" lon="13.5037198"><ele>451.59999999999997</ele><time>2026-05-02T15:04:01.469Z</time></trkpt><trkpt lat="46.0965322" lon="13.5036408"><ele>450.4</ele><time>2026-05-02T15:04:02.469Z</time></trkpt><trkpt lat="46.096608" lon="13.5035678"><ele>449.2</ele><time>2026-05-02T15:04:03.469Z</time></trkpt><trkpt lat="46.0966808" lon="13.503488"><ele>448.0</ele><time>2026-05-02T15:04:04.468Z</time></trkpt><trkpt lat="46.0967675" lon="13.5034318"><ele>448.0</ele><time>2026-05-02T15:04:05.468Z</time></trkpt><trkpt lat="46.0968572" lon="13.5033665"><ele>447.99999999999994</ele><time>2026-05-02T15:04:06.469Z</time></trkpt><trkpt lat="46.0969458" lon="13.5033043"><ele>447.99999999999994</ele><time>2026-05-02T15:04:07.468Z</time></trkpt><trkpt lat="46.0970455" lon="13.5032403"><ele>448.0</ele><time>2026-05-02T15:04:08.47Z</time></trkpt><trkpt lat="46.0971585" lon="13.5031825"><ele>448.0</ele><time>2026-05-02T15:04:09.468Z</time></trkpt><trkpt lat="46.0972672" lon="13.5031243"><ele>448.0</ele><time>2026-05-02T15:04:10.468Z</time></trkpt><trkpt lat="46.0973665" lon="13.5030535"><ele>448.0</ele><time>2026-05-02T15:04:11.47Z</time></trkpt><trkpt lat="46.0976737" lon="13.5028422"><ele>447.0</ele><time>2026-05-02T15:04:14.471Z</time></trkpt><trkpt lat="46.0977778" lon="13.5027787"><ele>445.99999999999994</ele><time>2026-05-02T15:04:15.47Z</time></trkpt><trkpt lat="46.09787" lon="13.5027167"><ele>444.99999999999994</ele><time>2026-05-02T15:04:16.471Z</time></trkpt><trkpt lat="46.0979592" lon="13.5026663"><ele>444.0</ele><time>2026-05-02T15:04:17.469Z</time></trkpt><trkpt lat="46.098035" lon="13.5026123"><ele>443.0</ele><time>2026-05-02T15:04:18.469Z</time></trkpt><trkpt lat="46.0981007" lon="13.5025295"><ele>443.0</ele><time>2026-05-02T15:04:19.468Z</time></trkpt><trkpt lat="46.0981697" lon="13.502429"><ele>442.99999999999994</ele><time>2026-05-02T15:04:20.469Z</time></trkpt><trkpt lat="46.0982387" lon="13.5023182"><ele>442.99999999999994</ele><time>2026-05-02T15:04:21.47Z</time></trkpt><trkpt lat="46.0983148" lon="13.5021967"><ele>443.0</ele><time>2026-05-02T15:04:22.47Z</time></trkpt><trkpt lat="46.0983858" lon="13.5020512"><ele>443.0</ele><time>2026-05-02T15:04:23.471Z</time></trkpt><trkpt lat="46.0984715" lon="13.501919"><ele>439.79999999999995</ele><time>2026-05-02T15:04:24.47Z</time></trkpt><trkpt lat="46.0985573" lon="13.5017913"><ele>436.59999999999997</ele><time>2026-05-02T15:04:25.47Z</time></trkpt><trkpt lat="46.098639" lon="13.5016747"><ele>433.40000000000003</ele><time>2026-05-02T15:04:26.47Z</time></trkpt><trkpt lat="46.0987108" lon="13.5015677"><ele>430.20000000000005</ele><time>2026-05-02T15:04:27.47Z</time></trkpt><trkpt lat="46.0987915" lon="13.5014807"><ele>427.0</ele><time>2026-05-02T15:04:28.469Z</time></trkpt><trkpt lat="46.0988735" lon="13.5014047"><ele>427.0</ele><time>2026-05-02T15:04:29.468Z</time></trkpt><trkpt lat="46.098947" lon="13.5013257"><ele>427.00000000000006</ele><time>2026-05-02T15:04:30.47Z</time></trkpt><trkpt lat="46.0990372" lon="13.5012597"><ele>427.00000000000006</ele><time>2026-05-02T15:04:31.47Z</time></trkpt><trkpt lat="46.0990998" lon="13.5011543"><ele>427.0</ele><time>2026-05-02T15:04:32.472Z</time></trkpt><trkpt lat="46.0991453" lon="13.5010252"><ele>427.0</ele><time>2026-05-02T15:04:33.472Z</time></trkpt><trkpt lat="46.0992305" lon="13.5007225"><ele>425.25</ele><time>2026-05-02T15:04:35.471Z</time></trkpt><trkpt lat="46.0992667" lon="13.5005513"><ele>423.5</ele><time>2026-05-02T15:04:36.471Z</time></trkpt><trkpt lat="46.0993002" lon="13.5003913"><ele>421.75</ele><time>2026-05-02T15:04:37.47Z</time></trkpt><trkpt lat="46.0993352" lon="13.5002393"><ele>420.0</ele><time>2026-05-02T15:04:38.47Z</time></trkpt><trkpt lat="46.0993587" lon="13.5000745"><ele>418.6</ele><time>2026-05-02T15:04:39.47Z</time></trkpt><trkpt lat="46.0993792" lon="13.4999195"><ele>417.2</ele><time>2026-05-02T15:04:40.471Z</time></trkpt><trkpt lat="46.0993927" lon="13.4997665"><ele>415.79999999999995</ele><time>2026-05-02T15:04:41.47Z</time></trkpt><trkpt lat="46.0994122" lon="13.4996278"><ele>414.4</ele><time>2026-05-02T15:04:42.471Z</time></trkpt><trkpt lat="46.0994402" lon="13.4995007"><ele>413.0</ele><time>2026-05-02T15:04:43.472Z</time></trkpt><trkpt lat="46.0994778" lon="13.499372"><ele>411.25</ele><time>2026-05-02T15:04:44.471Z</time></trkpt><trkpt lat="46.0995243" lon="13.4992382"><ele>409.5</ele><time>2026-05-02T15:04:45.472Z</time></trkpt><trkpt lat="46.0995797" lon="13.4990972"><ele>407.75</ele><time>2026-05-02T15:04:46.472Z</time></trkpt><trkpt lat="46.0996378" lon="13.4989468"><ele>406.0</ele><time>2026-05-02T15:04:47.471Z</time></trkpt><trkpt lat="46.0997015" lon="13.4987937"><ele>402.75</ele><time>2026-05-02T15:04:48.472Z</time></trkpt><trkpt lat="46.0997652" lon="13.4986367"><ele>399.5</ele><time>2026-05-02T15:04:49.47Z</time></trkpt><trkpt lat="46.099824" lon="13.4984767"><ele>396.25</ele><time>2026-05-02T15:04:50.469Z</time></trkpt><trkpt lat="46.0998808" lon="13.4983157"><ele>393.0</ele><time>2026-05-02T15:04:51.471Z</time></trkpt><trkpt lat="46.0999345" lon="13.4981563"><ele>400.66666666666663</ele><time>2026-05-02T15:04:52.469Z</time></trkpt><trkpt lat="46.09999" lon="13.4979955"><ele>408.3333333333333</ele><time>2026-05-02T15:04:53.468Z</time></trkpt><trkpt lat="46.1000398" lon="13.497834"><ele>416.0</ele><time>2026-05-02T15:04:54.468Z</time></trkpt><trkpt lat="46.1001387" lon="13.4975173"><ele>416.0</ele><time>2026-05-02T15:04:56.469Z</time></trkpt><trkpt lat="46.1001783" lon="13.49735"><ele>416.0</ele><time>2026-05-02T15:04:57.47Z</time></trkpt><trkpt lat="46.10022" lon="13.4971892"><ele>416.0</ele><time>2026-05-02T15:04:58.469Z</time></trkpt><trkpt lat="46.100264" lon="13.497023"><ele>416.0</ele><time>2026-05-02T15:04:59.47Z</time></trkpt><trkpt lat="46.1003027" lon="13.4968628"><ele>414.4</ele><time>2026-05-02T15:05:00.47Z</time></trkpt><trkpt lat="46.1003413" lon="13.4967097"><ele>412.8</ele><time>2026-05-02T15:05:01.47Z</time></trkpt><trkpt lat="46.1003743" lon="13.4965653"><ele>411.2</ele><time>2026-05-02T15:05:02.469Z</time></trkpt><trkpt lat="46.100406" lon="13.4964137"><ele>409.59999999999997</ele><time>2026-05-02T15:05:03.469Z</time></trkpt><trkpt lat="46.1004302" lon="13.4962655"><ele>408.0</ele><time>2026-05-02T15:05:04.468Z</time></trkpt><trkpt lat="46.1004637" lon="13.4961282"><ele>405.4</ele><time>2026-05-02T15:05:05.469Z</time></trkpt><trkpt lat="46.1004977" lon="13.4959955"><ele>402.79999999999995</ele><time>2026-05-02T15:05:06.47Z</time></trkpt><trkpt lat="46.100536" lon="13.495868"><ele>400.2</ele><time>2026-05-02T15:05:07.47Z</time></trkpt><trkpt lat="46.1005788" lon="13.4957397"><ele>397.6</ele><time>2026-05-02T15:05:08.47Z</time></trkpt><trkpt lat="46.1006342" lon="13.4956127"><ele>395.0</ele><time>2026-05-02T15:05:09.47Z</time></trkpt><trkpt lat="46.1006955" lon="13.4954798"><ele>400.0</ele><time>2026-05-02T15:05:10.471Z</time></trkpt><trkpt lat="46.1007593" lon="13.4953412"><ele>405.0</ele><time>2026-05-02T15:05:11.47Z</time></trkpt><trkpt lat="46.1008208" lon="13.4951935"><ele>410.0</ele><time>2026-05-02T15:05:12.471Z</time></trkpt><trkpt lat="46.1008878" lon="13.4950418"><ele>415.0</ele><time>2026-05-02T15:05:13.471Z</time></trkpt><trkpt lat="46.10096" lon="13.494891"><ele>415.0</ele><time>2026-05-02T15:05:14.472Z</time></trkpt><trkpt lat="46.1010293" lon="13.4947435"><ele>415.0</ele><time>2026-05-02T15:05:15.472Z</time></trkpt><trkpt lat="46.1011692" lon="13.4944433"><ele>415.0</ele><time>2026-05-02T15:05:17.468Z</time></trkpt><trkpt lat="46.1012385" lon="13.4942952"><ele>412.4</ele><time>2026-05-02T15:05:18.468Z</time></trkpt><trkpt lat="46.101308" lon="13.4941533"><ele>409.8</ele><time>2026-05-02T15:05:19.468Z</time></trkpt><trkpt lat="46.1013732" lon="13.494021"><ele>407.20000000000005</ele><time>2026-05-02T15:05:20.468Z</time></trkpt><trkpt lat="46.1014327" lon="13.4939002"><ele>404.6</ele><time>2026-05-02T15:05:21.47Z</time></trkpt><trkpt lat="46.1014888" lon="13.4937902"><ele>402.0</ele><time>2026-05-02T15:05:22.47Z</time></trkpt><trkpt lat="46.1015478" lon="13.493688"><ele>402.0</ele><time>2026-05-02T15:05:23.47Z</time></trkpt><trkpt lat="46.1016118" lon="13.4935925"><ele>402.0</ele><time>2026-05-02T15:05:24.473Z</time></trkpt><trkpt lat="46.101683" lon="13.4935087"><ele>402.0</ele><time>2026-05-02T15:05:25.47Z</time></trkpt><trkpt lat="46.1017568" lon="13.4934342"><ele>402.0</ele><time>2026-05-02T15:05:26.472Z</time></trkpt><trkpt lat="46.1018235" lon="13.4933628"><ele>402.0</ele><time>2026-05-02T15:05:27.472Z</time></trkpt><trkpt lat="46.1018852" lon="13.4932867"><ele>402.0</ele><time>2026-05-02T15:05:28.472Z</time></trkpt><trkpt lat="46.1019433" lon="13.4931927"><ele>402.0</ele><time>2026-05-02T15:05:29.473Z</time></trkpt><trkpt lat="46.1019998" lon="13.4930757"><ele>402.0</ele><time>2026-05-02T15:05:30.474Z</time></trkpt><trkpt lat="46.1020608" lon="13.4929315"><ele>402.0</ele><time>2026-05-02T15:05:31.474Z</time></trkpt><trkpt lat="46.1021278" lon="13.4927678"><ele>402.0</ele><time>2026-05-02T15:05:32.475Z</time></trkpt><trkpt lat="46.1022005" lon="13.4925898"><ele>402.5</ele><time>2026-05-02T15:05:33.475Z</time></trkpt><trkpt lat="46.1022738" lon="13.4924047"><ele>403.0</ele><time>2026-05-02T15:05:34.473Z</time></trkpt><trkpt lat="46.10234" lon="13.492231"><ele>403.5</ele><time>2026-05-02T15:05:35.473Z</time></trkpt><trkpt lat="46.1024028" lon="13.492073"><ele>404.0</ele><time>2026-05-02T15:05:36.473Z</time></trkpt><trkpt lat="46.1025127" lon="13.491794"><ele>404.0</ele><time>2026-05-02T15:05:38.472Z</time></trkpt><trkpt lat="46.1025607" lon="13.491658"><ele>404.0</ele><time>2026-05-02T15:05:39.473Z</time></trkpt><trkpt lat="46.1026018" lon="13.4915242"><ele>404.0</ele><time>2026-05-02T15:05:40.471Z</time></trkpt><trkpt lat="46.1026422" lon="13.4913975"><ele>404.0</ele><time>2026-05-02T15:05:41.471Z</time></trkpt><trkpt lat="46.1026818" lon="13.491297"><ele>404.0</ele><time>2026-05-02T15:05:42.471Z</time></trkpt><trkpt lat="46.102724" lon="13.4912157"><ele>402.2</ele><time>2026-05-02T15:05:43.469Z</time></trkpt><trkpt lat="46.102806" lon="13.4910877"><ele>400.4</ele><time>2026-05-02T15:05:45.471Z</time></trkpt><trkpt lat="46.1029223" lon="13.4910443"><ele>398.6</ele><time>2026-05-02T15:05:47.471Z</time></trkpt><trkpt lat="46.1030108" lon="13.4910005"><ele>396.8</ele><time>2026-05-02T15:05:49.473Z</time></trkpt><trkpt lat="46.1029995" lon="13.4908645"><ele>395.0</ele><time>2026-05-02T15:05:51.473Z</time></trkpt><trkpt lat="46.1029525" lon="13.4907747"><ele>394.99999999999994</ele><time>2026-05-02T15:05:52.473Z</time></trkpt><trkpt lat="46.1028883" lon="13.4906698"><ele>395.0</ele><time>2026-05-02T15:05:53.472Z</time></trkpt><trkpt lat="46.1028273" lon="13.4905572"><ele>395.0</ele><time>2026-05-02T15:05:54.473Z</time></trkpt><trkpt lat="46.1027713" lon="13.490459"><ele>395.0</ele><time>2026-05-02T15:05:55.471Z</time></trkpt><trkpt lat="46.1027203" lon="13.490384"><ele>394.99999999999994</ele><time>2026-05-02T15:05:56.471Z</time></trkpt><trkpt lat="46.1026888" lon="13.4902633"><ele>395.0</ele><time>2026-05-02T15:05:58.471Z</time></trkpt><trkpt lat="46.1028463" lon="13.490193"><ele>392.3333333333333</ele><time>2026-05-02T15:06:01.47Z</time></trkpt><trkpt lat="46.1029212" lon="13.4901753"><ele>389.66666666666663</ele><time>2026-05-02T15:06:02.474Z</time></trkpt><trkpt lat="46.1029808" lon="13.4901142"><ele>387.0</ele><time>2026-05-02T15:06:03.471Z</time></trkpt><trkpt lat="46.1030225" lon="13.4900168"><ele>384.3333333333333</ele><time>2026-05-02T15:06:04.472Z</time></trkpt><trkpt lat="46.1030485" lon="13.4898938"><ele>381.66666666666663</ele><time>2026-05-02T15:06:05.472Z</time></trkpt><trkpt lat="46.103068" lon="13.4897588"><ele>379.0</ele><time>2026-05-02T15:06:06.471Z</time></trkpt><trkpt lat="46.1030755" lon="13.4896088"><ele>374.25</ele><time>2026-05-02T15:06:07.472Z</time></trkpt><trkpt lat="46.1030778" lon="13.4894487"><ele>369.5</ele><time>2026-05-02T15:06:08.468Z</time></trkpt><trkpt lat="46.1030758" lon="13.4892777"><ele>364.75</ele><time>2026-05-02T15:06:09.469Z</time></trkpt><trkpt lat="46.1030692" lon="13.4891012"><ele>360.0</ele><time>2026-05-02T15:06:10.47Z</time></trkpt><trkpt lat="46.103059" lon="13.4889302"><ele>360.0</ele><time>2026-05-02T15:06:11.47Z</time></trkpt><trkpt lat="46.1030508" lon="13.4887703"><ele>360.0</ele><time>2026-05-02T15:06:12.47Z</time></trkpt><trkpt lat="46.1030477" lon="13.4886165"><ele>360.0</ele><time>2026-05-02T15:06:13.469Z</time></trkpt><trkpt lat="46.1030545" lon="13.4884722"><ele>360.0</ele><time>2026-05-02T15:06:14.468Z</time></trkpt><trkpt lat="46.1030745" lon="13.4882248"><ele>358.4</ele><time>2026-05-02T15:06:16.469Z</time></trkpt><trkpt lat="46.1030748" lon="13.4881043"><ele>356.8</ele><time>2026-05-02T15:06:17.468Z</time></trkpt><trkpt lat="46.1030602" lon="13.4879838"><ele>355.20000000000005</ele><time>2026-05-02T15:06:18.469Z</time></trkpt><trkpt lat="46.1030383" lon="13.4878623"><ele>353.6</ele><time>2026-05-02T15:06:19.469Z</time></trkpt><trkpt lat="46.1030182" lon="13.4876233"><ele>352.0</ele><time>2026-05-02T15:06:21.471Z</time></trkpt><trkpt lat="46.1030235" lon="13.4875047"><ele>351.20000000000005</ele><time>2026-05-02T15:06:22.469Z</time></trkpt><trkpt lat="46.1030493" lon="13.4873753"><ele>350.4</ele><time>2026-05-02T15:06:23.47Z</time></trkpt><trkpt lat="46.103087" lon="13.4872408"><ele>349.6</ele><time>2026-05-02T15:06:24.472Z</time></trkpt><trkpt lat="46.1031277" lon="13.4871108"><ele>348.79999999999995</ele><time>2026-05-02T15:06:25.471Z</time></trkpt><trkpt lat="46.1031658" lon="13.486977"><ele>348.0</ele><time>2026-05-02T15:06:26.47Z</time></trkpt><trkpt lat="46.1031915" lon="13.4868302"><ele>346.2</ele><time>2026-05-02T15:06:27.47Z</time></trkpt><trkpt lat="46.103216" lon="13.4866933"><ele>344.4</ele><time>2026-05-02T15:06:28.469Z</time></trkpt><trkpt lat="46.1032338" lon="13.4865515"><ele>342.59999999999997</ele><time>2026-05-02T15:06:29.47Z</time></trkpt><trkpt lat="46.103248" lon="13.4864053"><ele>340.79999999999995</ele><time>2026-05-02T15:06:30.469Z</time></trkpt><trkpt lat="46.103255" lon="13.4862608"><ele>339.0</ele><time>2026-05-02T15:06:31.468Z</time></trkpt><trkpt lat="46.1032533" lon="13.4861103"><ele>337.2</ele><time>2026-05-02T15:06:32.467Z</time></trkpt><trkpt lat="46.103249" lon="13.485963"><ele>335.4</ele><time>2026-05-02T15:06:33.468Z</time></trkpt><trkpt lat="46.1032457" lon="13.4858205"><ele>333.6</ele><time>2026-05-02T15:06:34.469Z</time></trkpt><trkpt lat="46.1032477" lon="13.4856823"><ele>331.8</ele><time>2026-05-02T15:06:35.469Z</time></trkpt><trkpt lat="46.1032412" lon="13.4855383"><ele>330.0</ele><time>2026-05-02T15:06:36.471Z</time></trkpt><trkpt lat="46.1032487" lon="13.4853882"><ele>337.25</ele><time>2026-05-02T15:06:37.469Z</time></trkpt><trkpt lat="46.1032552" lon="13.4852445"><ele>344.5</ele><time>2026-05-02T15:06:38.468Z</time></trkpt><trkpt lat="46.1032613" lon="13.4851068"><ele>351.75</ele><time>2026-05-02T15:06:39.469Z</time></trkpt><trkpt lat="46.1032735" lon="13.4849742"><ele>359.0</ele><time>2026-05-02T15:06:40.469Z</time></trkpt><trkpt lat="46.1032855" lon="13.4847108"><ele>356.79999999999995</ele><time>2026-05-02T15:06:42.468Z</time></trkpt><trkpt lat="46.1033068" lon="13.4845723"><ele>354.59999999999997</ele><time>2026-05-02T15:06:43.468Z</time></trkpt><trkpt lat="46.1033267" lon="13.4844393"><ele>352.4</ele><time>2026-05-02T15:06:44.469Z</time></trkpt><trkpt lat="46.1033577" lon="13.484319"><ele>350.2</ele><time>2026-05-02T15:06:45.469Z</time></trkpt><trkpt lat="46.1033827" lon="13.4841922"><ele>348.0</ele><time>2026-05-02T15:06:46.468Z</time></trkpt><trkpt lat="46.1034023" lon="13.4840687"><ele>348.0</ele><time>2026-05-02T15:06:47.469Z</time></trkpt><trkpt lat="46.1034192" lon="13.483949"><ele>348.0</ele><time>2026-05-02T15:06:48.469Z</time></trkpt><trkpt lat="46.10344" lon="13.4838313"><ele>348.0</ele><time>2026-05-02T15:06:49.468Z</time></trkpt><trkpt lat="46.1034548" lon="13.4837105"><ele>348.0</ele><time>2026-05-02T15:06:50.469Z</time></trkpt><trkpt lat="46.1034715" lon="13.4835993"><ele>348.0</ele><time>2026-05-02T15:06:51.469Z</time></trkpt><trkpt lat="46.1034877" lon="13.4834953"><ele>348.0</ele><time>2026-05-02T15:06:52.468Z</time></trkpt><trkpt lat="46.1035113" lon="13.4833952"><ele>345.8333333333333</ele><time>2026-05-02T15:06:53.469Z</time></trkpt><trkpt lat="46.1035367" lon="13.4833007"><ele>343.6666666666667</ele><time>2026-05-02T15:06:54.469Z</time></trkpt><trkpt lat="46.1035633" lon="13.483214"><ele>341.5</ele><time>2026-05-02T15:06:55.469Z</time></trkpt><trkpt lat="46.1036065" lon="13.4831335"><ele>339.33333333333337</ele><time>2026-05-02T15:06:56.467Z</time></trkpt><trkpt lat="46.103681" lon="13.4830183"><ele>337.1666666666667</ele><time>2026-05-02T15:06:58.468Z</time></trkpt><trkpt lat="46.1037675" lon="13.4829467"><ele>335.0</ele><time>2026-05-02T15:07:00.47Z</time></trkpt><trkpt lat="46.103855" lon="13.4828997"><ele>335.8</ele><time>2026-05-02T15:07:02.469Z</time></trkpt><trkpt lat="46.1040117" lon="13.4827252"><ele>336.6</ele><time>2026-05-02T15:07:06.471Z</time></trkpt><trkpt lat="46.1040365" lon="13.482641"><ele>337.4</ele><time>2026-05-02T15:07:07.47Z</time></trkpt><trkpt lat="46.1040632" lon="13.4825357"><ele>338.2</ele><time>2026-05-02T15:07:08.471Z</time></trkpt><trkpt lat="46.1040992" lon="13.4824185"><ele>339.0</ele><time>2026-05-02T15:07:09.471Z</time></trkpt><trkpt lat="46.1041398" lon="13.4822933"><ele>339.0</ele><time>2026-05-02T15:07:10.47Z</time></trkpt><trkpt lat="46.1041813" lon="13.4821653"><ele>339.0</ele><time>2026-05-02T15:07:11.471Z</time></trkpt><trkpt lat="46.104224" lon="13.4820428"><ele>339.0</ele><time>2026-05-02T15:07:12.472Z</time></trkpt><trkpt lat="46.1042655" lon="13.4819305"><ele>339.0</ele><time>2026-05-02T15:07:13.472Z</time></trkpt><trkpt lat="46.1043107" lon="13.481829"><ele>339.0</ele><time>2026-05-02T15:07:14.472Z</time></trkpt><trkpt lat="46.104366" lon="13.481741"><ele>339.0</ele><time>2026-05-02T15:07:15.472Z</time></trkpt><trkpt lat="46.1044355" lon="13.4816708"><ele>335.6666666666667</ele><time>2026-05-02T15:07:16.471Z</time></trkpt><trkpt lat="46.1045168" lon="13.4816085"><ele>332.3333333333333</ele><time>2026-05-02T15:07:17.471Z</time></trkpt><trkpt lat="46.1045953" lon="13.4815598"><ele>329.0</ele><time>2026-05-02T15:07:18.472Z</time></trkpt><trkpt lat="46.1046663" lon="13.4815207"><ele>325.66666666666663</ele><time>2026-05-02T15:07:19.47Z</time></trkpt><trkpt lat="46.1047317" lon="13.4814962"><ele>322.3333333333333</ele><time>2026-05-02T15:07:20.47Z</time></trkpt><trkpt lat="46.1048472" lon="13.4815297"><ele>319.0</ele><time>2026-05-02T15:07:22.469Z</time></trkpt><trkpt lat="46.1049012" lon="13.4815952"><ele>320.25</ele><time>2026-05-02T15:07:23.469Z</time></trkpt><trkpt lat="46.105039" lon="13.4817902"><ele>321.5</ele><time>2026-05-02T15:07:25.47Z</time></trkpt><trkpt lat="46.1051157" lon="13.4818803"><ele>322.75</ele><time>2026-05-02T15:07:26.471Z</time></trkpt><trkpt lat="46.105183" lon="13.4819723"><ele>324.0</ele><time>2026-05-02T15:07:27.47Z</time></trkpt><trkpt lat="46.1052363" lon="13.4820507"><ele>324.0</ele><time>2026-05-02T15:07:28.469Z</time></trkpt><trkpt lat="46.1053068" lon="13.4820905"><ele>324.0</ele><time>2026-05-02T15:07:30.469Z</time></trkpt><trkpt lat="46.1053648" lon="13.4820035"><ele>324.0</ele><time>2026-05-02T15:07:32.47Z</time></trkpt><trkpt lat="46.105406" lon="13.4819048"><ele>324.0</ele><time>2026-05-02T15:07:33.47Z</time></trkpt><trkpt lat="46.1054577" lon="13.4817893"><ele>324.0</ele><time>2026-05-02T15:07:34.47Z</time></trkpt><trkpt lat="46.1055258" lon="13.4816618"><ele>324.0</ele><time>2026-05-02T15:07:35.47Z</time></trkpt><trkpt lat="46.1056092" lon="13.4815283"><ele>324.0</ele><time>2026-05-02T15:07:36.473Z</time></trkpt><trkpt lat="46.1056992" lon="13.4813992"><ele>324.0</ele><time>2026-05-02T15:07:37.47Z</time></trkpt><trkpt lat="46.1057872" lon="13.4812753"><ele>324.0</ele><time>2026-05-02T15:07:38.47Z</time></trkpt><trkpt lat="46.1058745" lon="13.481152"><ele>324.0</ele><time>2026-05-02T15:07:39.47Z</time></trkpt><trkpt lat="46.105961" lon="13.4810355"><ele>318.8</ele><time>2026-05-02T15:07:40.471Z</time></trkpt><trkpt lat="46.1060445" lon="13.4809242"><ele>313.59999999999997</ele><time>2026-05-02T15:07:41.471Z</time></trkpt><trkpt lat="46.1061213" lon="13.4808132"><ele>308.4</ele><time>2026-05-02T15:07:42.471Z</time></trkpt><trkpt lat="46.1061937" lon="13.4807093"><ele>303.2</ele><time>2026-05-02T15:07:43.471Z</time></trkpt><trkpt lat="46.1062647" lon="13.4806102"><ele>298.0</ele><time>2026-05-02T15:07:44.469Z</time></trkpt><trkpt lat="46.106398" lon="13.480436"><ele>296.3333333333333</ele><time>2026-05-02T15:07:46.468Z</time></trkpt><trkpt lat="46.1064593" lon="13.4803598"><ele>294.66666666666663</ele><time>2026-05-02T15:07:47.468Z</time></trkpt><trkpt lat="46.1065278" lon="13.480292"><ele>293.0</ele><time>2026-05-02T15:07:48.47Z</time></trkpt><trkpt lat="46.1066063" lon="13.480234"><ele>291.3333333333333</ele><time>2026-05-02T15:07:49.469Z</time></trkpt><trkpt lat="46.1066887" lon="13.4801798"><ele>289.6666666666667</ele><time>2026-05-02T15:07:50.47Z</time></trkpt><trkpt lat="46.1067733" lon="13.4801372"><ele>288.0</ele><time>2026-05-02T15:07:51.47Z</time></trkpt><trkpt lat="46.1068502" lon="13.4801013"><ele>288.0</ele><time>2026-05-02T15:07:52.47Z</time></trkpt><trkpt lat="46.106922" lon="13.4800833"><ele>288.0</ele><time>2026-05-02T15:07:53.471Z</time></trkpt><trkpt lat="46.1070378" lon="13.4800858"><ele>288.0</ele><time>2026-05-02T15:07:55.471Z</time></trkpt><trkpt lat="46.1071258" lon="13.4800998"><ele>288.0</ele><time>2026-05-02T15:07:57.47Z</time></trkpt><trkpt lat="46.1071865" lon="13.4800745"><ele>288.0</ele><time>2026-05-02T15:07:59.471Z</time></trkpt><trkpt lat="46.1072452" lon="13.4801848"><ele>288.0</ele><time>2026-05-02T15:08:05.472Z</time></trkpt><trkpt lat="46.1073213" lon="13.480481"><ele>289.8333333333333</ele><time>2026-05-02T15:08:09.47Z</time></trkpt><trkpt lat="46.107344" lon="13.4805878"><ele>291.6666666666667</ele><time>2026-05-02T15:08:10.468Z</time></trkpt><trkpt lat="46.1073692" lon="13.4806908"><ele>293.5</ele><time>2026-05-02T15:08:11.468Z</time></trkpt><trkpt lat="46.1074005" lon="13.4808022"><ele>295.33333333333337</ele><time>2026-05-02T15:08:12.469Z</time></trkpt><trkpt lat="46.1074448" lon="13.4809243"><ele>297.1666666666667</ele><time>2026-05-02T15:08:13.469Z</time></trkpt><trkpt lat="46.1074843" lon="13.481058"><ele>299.0</ele><time>2026-05-02T15:08:14.47Z</time></trkpt><trkpt lat="46.1075275" lon="13.4811962"><ele>303.0</ele><time>2026-05-02T15:08:15.472Z</time></trkpt><trkpt lat="46.1075758" lon="13.481335"><ele>307.0</ele><time>2026-05-02T15:08:16.472Z</time></trkpt><trkpt lat="46.1076335" lon="13.4814612"><ele>311.0</ele><time>2026-05-02T15:08:17.469Z</time></trkpt><trkpt lat="46.1076945" lon="13.4815592"><ele>315.0</ele><time>2026-05-02T15:08:18.47Z</time></trkpt><trkpt lat="46.1077522" lon="13.481649"><ele>319.0</ele><time>2026-05-02T15:08:19.47Z</time></trkpt><trkpt lat="46.1078122" lon="13.4817422"><ele>319.0</ele><time>2026-05-02T15:08:20.469Z</time></trkpt><trkpt lat="46.1078695" lon="13.4818222"><ele>319.0</ele><time>2026-05-02T15:08:21.469Z</time></trkpt><trkpt lat="46.1079197" lon="13.4819332"><ele>319.0</ele><time>2026-05-02T15:08:22.468Z</time></trkpt><trkpt lat="46.1079677" lon="13.4820507"><ele>319.0</ele><time>2026-05-02T15:08:23.47Z</time></trkpt><trkpt lat="46.1080248" lon="13.482146"><ele>319.0</ele><time>2026-05-02T15:08:24.471Z</time></trkpt><trkpt lat="46.1080463" lon="13.4822435"><ele>319.0</ele><time>2026-05-02T15:08:25.471Z</time></trkpt><trkpt lat="46.1080452" lon="13.4824445"><ele>323.5</ele><time>2026-05-02T15:08:27.471Z</time></trkpt><trkpt lat="46.1080478" lon="13.4827405"><ele>328.0</ele><time>2026-05-02T15:08:29.47Z</time></trkpt><trkpt lat="46.108055" lon="13.4828942"><ele>332.5</ele><time>2026-05-02T15:08:30.473Z</time></trkpt><trkpt lat="46.1080475" lon="13.4830438"><ele>337.0</ele><time>2026-05-02T15:08:31.47Z</time></trkpt><trkpt lat="46.1080295" lon="13.4831988"><ele>337.0</ele><time>2026-05-02T15:08:32.47Z</time></trkpt><trkpt lat="46.1079962" lon="13.4833483"><ele>337.0</ele><time>2026-05-02T15:08:33.469Z</time></trkpt><trkpt lat="46.1079583" lon="13.4834808"><ele>337.0</ele><time>2026-05-02T15:08:34.47Z</time></trkpt><trkpt lat="46.1079203" lon="13.4836063"><ele>337.0</ele><time>2026-05-02T15:08:35.469Z</time></trkpt><trkpt lat="46.1078877" lon="13.4837248"><ele>337.0</ele><time>2026-05-02T15:08:36.47Z</time></trkpt><trkpt lat="46.1078633" lon="13.4838415"><ele>337.0</ele><time>2026-05-02T15:08:37.471Z</time></trkpt><trkpt lat="46.1078598" lon="13.4839752"><ele>337.0</ele><time>2026-05-02T15:08:38.471Z</time></trkpt><trkpt lat="46.1078528" lon="13.4841182"><ele>337.0</ele><time>2026-05-02T15:08:39.471Z</time></trkpt><trkpt lat="46.107847" lon="13.4842648"><ele>337.0</ele><time>2026-05-02T15:08:40.472Z</time></trkpt><trkpt lat="46.1078417" lon="13.4844123"><ele>337.0</ele><time>2026-05-02T15:08:41.47Z</time></trkpt><trkpt lat="46.1078647" lon="13.484557"><ele>335.6</ele><time>2026-05-02T15:08:42.471Z</time></trkpt><trkpt lat="46.1078935" lon="13.484693"><ele>334.20000000000005</ele><time>2026-05-02T15:08:43.471Z</time></trkpt><trkpt lat="46.107926" lon="13.4848242"><ele>332.8</ele><time>2026-05-02T15:08:44.47Z</time></trkpt><trkpt lat="46.1079613" lon="13.4849548"><ele>331.4</ele><time>2026-05-02T15:08:45.472Z</time></trkpt><trkpt lat="46.1080008" lon="13.4850803"><ele>330.0</ele><time>2026-05-02T15:08:46.472Z</time></trkpt><trkpt lat="46.1080333" lon="13.4852108"><ele>330.0</ele><time>2026-05-02T15:08:47.47Z</time></trkpt><trkpt lat="46.1080743" lon="13.4853435"><ele>330.0</ele><time>2026-05-02T15:08:48.471Z</time></trkpt><trkpt lat="46.1081625" lon="13.48557"><ele>330.0</ele><time>2026-05-02T15:08:50.472Z</time></trkpt><trkpt lat="46.1082022" lon="13.4856767"><ele>330.0</ele><time>2026-05-02T15:08:51.472Z</time></trkpt><trkpt lat="46.1082343" lon="13.4857835"><ele>330.0</ele><time>2026-05-02T15:08:52.471Z</time></trkpt><trkpt lat="46.1082588" lon="13.4858955"><ele>324.1666666666667</ele><time>2026-05-02T15:08:53.471Z</time></trkpt><trkpt lat="46.108276" lon="13.4860095"><ele>318.3333333333333</ele><time>2026-05-02T15:08:54.472Z</time></trkpt><trkpt lat="46.1082897" lon="13.4861193"><ele>312.5</ele><time>2026-05-02T15:08:55.471Z</time></trkpt><trkpt lat="46.1083015" lon="13.4862497"><ele>306.66666666666663</ele><time>2026-05-02T15:08:56.471Z</time></trkpt><trkpt lat="46.1083177" lon="13.4863675"><ele>300.8333333333333</ele><time>2026-05-02T15:08:57.47Z</time></trkpt><trkpt lat="46.1083283" lon="13.4864978"><ele>295.0</ele><time>2026-05-02T15:08:58.473Z</time></trkpt><trkpt lat="46.1083502" lon="13.4866295"><ele>295.0</ele><time>2026-05-02T15:08:59.468Z</time></trkpt><trkpt lat="46.1083665" lon="13.4867713"><ele>295.0</ele><time>2026-05-02T15:09:00.469Z</time></trkpt><trkpt lat="46.1083855" lon="13.4869105"><ele>295.0</ele><time>2026-05-02T15:09:01.469Z</time></trkpt><trkpt lat="46.108413" lon="13.4870403"><ele>295.0</ele><time>2026-05-02T15:09:02.472Z</time></trkpt><trkpt lat="46.108425" lon="13.4871483"><ele>295.0</ele><time>2026-05-02T15:09:03.472Z</time></trkpt><trkpt lat="46.1084307" lon="13.487268"><ele>295.8</ele><time>2026-05-02T15:09:04.472Z</time></trkpt><trkpt lat="46.1084162" lon="13.4874002"><ele>296.6</ele><time>2026-05-02T15:09:05.471Z</time></trkpt><trkpt lat="46.1084125" lon="13.487548"><ele>297.4</ele><time>2026-05-02T15:09:06.472Z</time></trkpt><trkpt lat="46.1083845" lon="13.4876778"><ele>298.2</ele><time>2026-05-02T15:09:07.471Z</time></trkpt><trkpt lat="46.1083735" lon="13.4878133"><ele>299.0</ele><time>2026-05-02T15:09:08.47Z</time></trkpt><trkpt lat="46.1083888" lon="13.4879553"><ele>299.0</ele><time>2026-05-02T15:09:09.47Z</time></trkpt><trkpt lat="46.1083788" lon="13.488238"><ele>299.0</ele><time>2026-05-02T15:09:11.47Z</time></trkpt><trkpt lat="46.108386" lon="13.4883517"><ele>299.0</ele><time>2026-05-02T15:09:12.468Z</time></trkpt><trkpt lat="46.1083995" lon="13.4884658"><ele>299.0</ele><time>2026-05-02T15:09:13.469Z</time></trkpt><trkpt lat="46.1084193" lon="13.4885652"><ele>299.0</ele><time>2026-05-02T15:09:14.469Z</time></trkpt><trkpt lat="46.1084578" lon="13.4886643"><ele>299.0</ele><time>2026-05-02T15:09:15.469Z</time></trkpt><trkpt lat="46.1084983" lon="13.488748"><ele>299.0</ele><time>2026-05-02T15:09:16.469Z</time></trkpt><trkpt lat="46.108561" lon="13.4888078"><ele>299.0</ele><time>2026-05-02T15:09:17.47Z</time></trkpt><trkpt lat="46.1086213" lon="13.4888473"><ele>299.0</ele><time>2026-05-02T15:09:18.47Z</time></trkpt><trkpt lat="46.108696" lon="13.488876"><ele>299.0</ele><time>2026-05-02T15:09:19.47Z</time></trkpt><trkpt lat="46.1087737" lon="13.4889262"><ele>299.0</ele><time>2026-05-02T15:09:20.469Z</time></trkpt><trkpt lat="46.108857" lon="13.4889803"><ele>300.1666666666667</ele><time>2026-05-02T15:09:21.471Z</time></trkpt><trkpt lat="46.1089353" lon="13.4890445"><ele>301.33333333333337</ele><time>2026-05-02T15:09:22.468Z</time></trkpt><trkpt lat="46.1090093" lon="13.4891163"><ele>302.5</ele><time>2026-05-02T15:09:23.468Z</time></trkpt><trkpt lat="46.1090523" lon="13.4891995"><ele>303.6666666666667</ele><time>2026-05-02T15:09:24.469Z</time></trkpt><trkpt lat="46.1090875" lon="13.4892798"><ele>304.8333333333333</ele><time>2026-05-02T15:09:25.471Z</time></trkpt><trkpt lat="46.1091163" lon="13.4893723"><ele>306.0</ele><time>2026-05-02T15:09:26.47Z</time></trkpt><trkpt lat="46.1091438" lon="13.4894872"><ele>304.75</ele><time>2026-05-02T15:09:27.471Z</time></trkpt><trkpt lat="46.1091682" lon="13.4896058"><ele>303.5</ele><time>2026-05-02T15:09:28.47Z</time></trkpt><trkpt lat="46.1091912" lon="13.489742"><ele>302.25</ele><time>2026-05-02T15:09:29.47Z</time></trkpt><trkpt lat="46.1092005" lon="13.489879"><ele>301.0</ele><time>2026-05-02T15:09:30.471Z</time></trkpt><trkpt lat="46.1092317" lon="13.4902098"><ele>301.0</ele><time>2026-05-02T15:09:32.472Z</time></trkpt><trkpt lat="46.109249" lon="13.4903647"><ele>301.0</ele><time>2026-05-02T15:09:33.472Z</time></trkpt><trkpt lat="46.1092705" lon="13.4905017"><ele>301.0</ele><time>2026-05-02T15:09:34.47Z</time></trkpt><trkpt lat="46.1093057" lon="13.4906143"><ele>301.0</ele><time>2026-05-02T15:09:35.471Z</time></trkpt><trkpt lat="46.109348" lon="13.4907043"><ele>301.0</ele><time>2026-05-02T15:09:36.471Z</time></trkpt><trkpt lat="46.1094663" lon="13.4908565"><ele>303.40000000000003</ele><time>2026-05-02T15:09:38.47Z</time></trkpt><trkpt lat="46.1095302" lon="13.4909092"><ele>305.8</ele><time>2026-05-02T15:09:39.47Z</time></trkpt><trkpt lat="46.1095988" lon="13.4909415"><ele>308.20000000000005</ele><time>2026-05-02T15:09:40.469Z</time></trkpt><trkpt lat="46.1096663" lon="13.4909722"><ele>310.6</ele><time>2026-05-02T15:09:41.47Z</time></trkpt><trkpt lat="46.1097773" lon="13.4910213"><ele>313.0</ele><time>2026-05-02T15:09:43.47Z</time></trkpt><trkpt lat="46.109873" lon="13.4911238"><ele>313.0</ele><time>2026-05-02T15:09:45.471Z</time></trkpt><trkpt lat="46.1099057" lon="13.4912158"><ele>313.0</ele><time>2026-05-02T15:09:46.47Z</time></trkpt><trkpt lat="46.1099337" lon="13.4913417"><ele>313.0</ele><time>2026-05-02T15:09:47.469Z</time></trkpt><trkpt lat="46.1099428" lon="13.4914953"><ele>313.0</ele><time>2026-05-02T15:09:48.47Z</time></trkpt><trkpt lat="46.1099482" lon="13.49163"><ele>313.0</ele><time>2026-05-02T15:09:49.47Z</time></trkpt><trkpt lat="46.1099583" lon="13.4917692"><ele>309.5</ele><time>2026-05-02T15:09:50.469Z</time></trkpt><trkpt lat="46.1099623" lon="13.4919103"><ele>306.0</ele><time>2026-05-02T15:09:51.472Z</time></trkpt><trkpt lat="46.109941" lon="13.4921998"><ele>302.5</ele><time>2026-05-02T15:09:53.472Z</time></trkpt><trkpt lat="46.10992" lon="13.4923445"><ele>299.0</ele><time>2026-05-02T15:09:54.473Z</time></trkpt><trkpt lat="46.1099037" lon="13.492478"><ele>299.0</ele><time>2026-05-02T15:09:55.471Z</time></trkpt><trkpt lat="46.109887" lon="13.4925958"><ele>299.0</ele><time>2026-05-02T15:09:56.471Z</time></trkpt><trkpt lat="46.1098705" lon="13.4927032"><ele>299.0</ele><time>2026-05-02T15:09:57.47Z</time></trkpt><trkpt lat="46.1098395" lon="13.4928018"><ele>299.0</ele><time>2026-05-02T15:09:58.472Z</time></trkpt><trkpt lat="46.109792" lon="13.4928892"><ele>299.0</ele><time>2026-05-02T15:09:59.472Z</time></trkpt><trkpt lat="46.1097443" lon="13.4929648"><ele>299.0</ele><time>2026-05-02T15:10:00.472Z</time></trkpt><trkpt lat="46.1096912" lon="13.4930273"><ele>296.83333333333337</ele><time>2026-05-02T15:10:01.471Z</time></trkpt><trkpt lat="46.1096287" lon="13.4930757"><ele>294.6666666666667</ele><time>2026-05-02T15:10:02.472Z</time></trkpt><trkpt lat="46.1095492" lon="13.4931152"><ele>292.5</ele><time>2026-05-02T15:10:03.472Z</time></trkpt><trkpt lat="46.1094613" lon="13.4931535"><ele>290.3333333333333</ele><time>2026-05-02T15:10:04.472Z</time></trkpt><trkpt lat="46.1093828" lon="13.4931828"><ele>288.16666666666663</ele><time>2026-05-02T15:10:05.472Z</time></trkpt><trkpt lat="46.1093075" lon="13.4932065"><ele>286.0</ele><time>2026-05-02T15:10:06.473Z</time></trkpt><trkpt lat="46.109225" lon="13.493219"><ele>286.0</ele><time>2026-05-02T15:10:07.472Z</time></trkpt><trkpt lat="46.1091472" lon="13.493219"><ele>286.0</ele><time>2026-05-02T15:10:08.473Z</time></trkpt><trkpt lat="46.1090712" lon="13.4931968"><ele>286.0</ele><time>2026-05-02T15:10:09.472Z</time></trkpt><trkpt lat="46.109002" lon="13.4931567"><ele>286.0</ele><time>2026-05-02T15:10:10.471Z</time></trkpt><trkpt lat="46.1089213" lon="13.4931045"><ele>286.0</ele><time>2026-05-02T15:10:11.47Z</time></trkpt><trkpt lat="46.1088558" lon="13.493076"><ele>286.0</ele><time>2026-05-02T15:10:12.471Z</time></trkpt><trkpt lat="46.108708" lon="13.4929943"><ele>285.8333333333333</ele><time>2026-05-02T15:10:14.47Z</time></trkpt><trkpt lat="46.1086348" lon="13.4929308"><ele>285.66666666666663</ele><time>2026-05-02T15:10:15.472Z</time></trkpt><trkpt lat="46.1085625" lon="13.492862"><ele>285.5</ele><time>2026-05-02T15:10:16.472Z</time></trkpt><trkpt lat="46.1084963" lon="13.4928057"><ele>285.3333333333333</ele><time>2026-05-02T15:10:17.471Z</time></trkpt><trkpt lat="46.1084325" lon="13.4927785"><ele>285.1666666666667</ele><time>2026-05-02T15:10:18.474Z</time></trkpt><trkpt lat="46.1083195" lon="13.492816"><ele>285.0</ele><time>2026-05-02T15:10:20.472Z</time></trkpt><trkpt lat="46.1082635" lon="13.4928762"><ele>280.1666666666667</ele><time>2026-05-02T15:10:21.47Z</time></trkpt><trkpt lat="46.1082015" lon="13.4929522"><ele>275.3333333333333</ele><time>2026-05-02T15:10:22.47Z</time></trkpt><trkpt lat="46.1081322" lon="13.4930333"><ele>270.5</ele><time>2026-05-02T15:10:23.47Z</time></trkpt><trkpt lat="46.10807" lon="13.493107"><ele>265.66666666666663</ele><time>2026-05-02T15:10:24.471Z</time></trkpt><trkpt lat="46.1080033" lon="13.4931785"><ele>260.8333333333333</ele><time>2026-05-02T15:10:25.47Z</time></trkpt><trkpt lat="46.1079365" lon="13.4932385"><ele>256.0</ele><time>2026-05-02T15:10:26.47Z</time></trkpt><trkpt lat="46.1078618" lon="13.4932835"><ele>255.99999999999997</ele><time>2026-05-02T15:10:27.47Z</time></trkpt><trkpt lat="46.1077843" lon="13.4933158"><ele>256.0</ele><time>2026-05-02T15:10:28.47Z</time></trkpt><trkpt lat="46.1077037" lon="13.4933293"><ele>256.0</ele><time>2026-05-02T15:10:29.47Z</time></trkpt><trkpt lat="46.1076335" lon="13.4933367"><ele>256.0</ele><time>2026-05-02T15:10:30.47Z</time></trkpt><trkpt lat="46.1075708" lon="13.4933135"><ele>255.99999999999997</ele><time>2026-05-02T15:10:31.47Z</time></trkpt><trkpt lat="46.1074647" lon="13.4932208"><ele>256.0</ele><time>2026-05-02T15:10:33.472Z</time></trkpt><trkpt lat="46.1073422" lon="13.4931095"><ele>254.83333333333331</ele><time>2026-05-02T15:10:35.47Z</time></trkpt><trkpt lat="46.1072785" lon="13.4930833"><ele>253.66666666666666</ele><time>2026-05-02T15:10:36.469Z</time></trkpt><trkpt lat="46.1071708" lon="13.493064"><ele>252.5</ele><time>2026-05-02T15:10:38.469Z</time></trkpt><trkpt lat="46.1070732" lon="13.493006"><ele>251.33333333333331</ele><time>2026-05-02T15:10:40.47Z</time></trkpt><trkpt lat="46.106976" lon="13.4930238"><ele>250.16666666666666</ele><time>2026-05-02T15:10:42.471Z</time></trkpt><trkpt lat="46.1069238" lon="13.4930793"><ele>249.0</ele><time>2026-05-02T15:10:43.471Z</time></trkpt><trkpt lat="46.1068685" lon="13.4931563"><ele>249.0</ele><time>2026-05-02T15:10:44.47Z</time></trkpt><trkpt lat="46.1068107" lon="13.493254"><ele>249.0</ele><time>2026-05-02T15:10:45.472Z</time></trkpt><trkpt lat="46.1067465" lon="13.4933465"><ele>249.0</ele><time>2026-05-02T15:10:46.471Z</time></trkpt><trkpt lat="46.1066843" lon="13.4934277"><ele>249.0</ele><time>2026-05-02T15:10:47.472Z</time></trkpt><trkpt lat="46.106623" lon="13.4934947"><ele>249.0</ele><time>2026-05-02T15:10:48.472Z</time></trkpt><trkpt lat="46.1065607" lon="13.4935392"><ele>249.0</ele><time>2026-05-02T15:10:49.471Z</time></trkpt><trkpt lat="46.106463" lon="13.4935615"><ele>250.6</ele><time>2026-05-02T15:10:51.472Z</time></trkpt><trkpt lat="46.1063693" lon="13.4935205"><ele>252.2</ele><time>2026-05-02T15:10:53.47Z</time></trkpt><trkpt lat="46.1062728" lon="13.4934413"><ele>253.79999999999998</ele><time>2026-05-02T15:10:55.47Z</time></trkpt><trkpt lat="46.106179" lon="13.4932968"><ele>255.39999999999998</ele><time>2026-05-02T15:10:57.47Z</time></trkpt><trkpt lat="46.1061227" lon="13.493238"><ele>257.0</ele><time>2026-05-02T15:10:58.47Z</time></trkpt><trkpt lat="46.1060508" lon="13.4931762"><ele>257.0</ele><time>2026-05-02T15:10:59.47Z</time></trkpt><trkpt lat="46.1059782" lon="13.4931147"><ele>257.0</ele><time>2026-05-02T15:11:00.469Z</time></trkpt><trkpt lat="46.1059005" lon="13.4930595"><ele>257.0</ele><time>2026-05-02T15:11:01.469Z</time></trkpt><trkpt lat="46.1058262" lon="13.4930315"><ele>257.0</ele><time>2026-05-02T15:11:02.469Z</time></trkpt><trkpt lat="46.1057512" lon="13.4930203"><ele>257.0</ele><time>2026-05-02T15:11:03.469Z</time></trkpt><trkpt lat="46.1056505" lon="13.4930583"><ele>257.0</ele><time>2026-05-02T15:11:05.471Z</time></trkpt><trkpt lat="46.1056303" lon="13.4931798"><ele>257.0</ele><time>2026-05-02T15:11:07.47Z</time></trkpt><trkpt lat="46.1056847" lon="13.493344"><ele>257.0</ele><time>2026-05-02T15:11:09.47Z</time></trkpt><trkpt lat="46.1057283" lon="13.4935152"><ele>257.0</ele><time>2026-05-02T15:11:11.469Z</time></trkpt><trkpt lat="46.1057445" lon="13.4936143"><ele>257.0</ele><time>2026-05-02T15:11:12.468Z</time></trkpt><trkpt lat="46.1057517" lon="13.4937177"><ele>257.0</ele><time>2026-05-02T15:11:13.469Z</time></trkpt><trkpt lat="46.1057688" lon="13.493823"><ele>255.0</ele><time>2026-05-02T15:11:14.468Z</time></trkpt><trkpt lat="46.105773" lon="13.4939273"><ele>253.0</ele><time>2026-05-02T15:11:15.469Z</time></trkpt><trkpt lat="46.1057675" lon="13.494023"><ele>251.0</ele><time>2026-05-02T15:11:16.468Z</time></trkpt><trkpt lat="46.1057432" lon="13.4942557"><ele>249.0</ele><time>2026-05-02T15:11:18.47Z</time></trkpt><trkpt lat="46.1057188" lon="13.4943787"><ele>247.0</ele><time>2026-05-02T15:11:19.468Z</time></trkpt><trkpt lat="46.1057068" lon="13.4945015"><ele>244.66666666666666</ele><time>2026-05-02T15:11:20.468Z</time></trkpt><trkpt lat="46.1057197" lon="13.49461"><ele>242.33333333333331</ele><time>2026-05-02T15:11:21.469Z</time></trkpt><trkpt lat="46.105738" lon="13.4947267"><ele>240.0</ele><time>2026-05-02T15:11:22.469Z</time></trkpt><trkpt lat="46.1057425" lon="13.4948482"><ele>237.66666666666669</ele><time>2026-05-02T15:11:23.468Z</time></trkpt><trkpt lat="46.1057523" lon="13.4949475"><ele>235.33333333333334</ele><time>2026-05-02T15:11:24.469Z</time></trkpt><trkpt lat="46.1057187" lon="13.4951157"><ele>233.0</ele><time>2026-05-02T15:11:26.468Z</time></trkpt><trkpt lat="46.1056845" lon="13.4951985"><ele>238.16666666666669</ele><time>2026-05-02T15:11:27.468Z</time></trkpt><trkpt lat="46.1056515" lon="13.495285"><ele>243.33333333333334</ele><time>2026-05-02T15:11:28.468Z</time></trkpt><trkpt lat="46.1056073" lon="13.4953757"><ele>248.5</ele><time>2026-05-02T15:11:29.469Z</time></trkpt><trkpt lat="46.105553" lon="13.4954638"><ele>253.66666666666669</ele><time>2026-05-02T15:11:30.469Z</time></trkpt><trkpt lat="46.1054817" lon="13.4955547"><ele>258.8333333333333</ele><time>2026-05-02T15:11:31.469Z</time></trkpt><trkpt lat="46.1054067" lon="13.4956657"><ele>264.0</ele><time>2026-05-02T15:11:32.469Z</time></trkpt><trkpt lat="46.105347" lon="13.4957683"><ele>264.0</ele><time>2026-05-02T15:11:33.469Z</time></trkpt><trkpt lat="46.1052765" lon="13.49587"><ele>264.0</ele><time>2026-05-02T15:11:34.469Z</time></trkpt><trkpt lat="46.1052123" lon="13.4959577"><ele>264.0</ele><time>2026-05-02T15:11:35.468Z</time></trkpt><trkpt lat="46.10517" lon="13.4960263"><ele>264.0</ele><time>2026-05-02T15:11:36.47Z</time></trkpt><trkpt lat="46.105112" lon="13.4962012"><ele>264.0</ele><time>2026-05-02T15:11:38.468Z</time></trkpt><trkpt lat="46.1050913" lon="13.4963055"><ele>261.59999999999997</ele><time>2026-05-02T15:11:39.469Z</time></trkpt><trkpt lat="46.105043" lon="13.4964955"><ele>259.2</ele><time>2026-05-02T15:11:41.469Z</time></trkpt><trkpt lat="46.1050123" lon="13.496579"><ele>256.79999999999995</ele><time>2026-05-02T15:11:42.469Z</time></trkpt><trkpt lat="46.1049793" lon="13.4966632"><ele>254.39999999999998</ele><time>2026-05-02T15:11:43.468Z</time></trkpt><trkpt lat="46.1049707" lon="13.4968053"><ele>252.0</ele><time>2026-05-02T15:11:45.469Z</time></trkpt><trkpt lat="46.1050005" lon="13.4969393"><ele>252.0</ele><time>2026-05-02T15:11:47.466Z</time></trkpt><trkpt lat="46.1050905" lon="13.4970585"><ele>252.0</ele><time>2026-05-02T15:11:49.465Z</time></trkpt><trkpt lat="46.1051577" lon="13.4970873"><ele>252.0</ele><time>2026-05-02T15:11:50.465Z</time></trkpt><trkpt lat="46.1052202" lon="13.4971075"><ele>252.0</ele><time>2026-05-02T15:11:51.466Z</time></trkpt><trkpt lat="46.1053182" lon="13.4971365"><ele>252.0</ele><time>2026-05-02T15:11:53.471Z</time></trkpt><trkpt lat="46.105393" lon="13.4972305"><ele>254.0</ele><time>2026-05-02T15:11:55.467Z</time></trkpt><trkpt lat="46.1054595" lon="13.4973907"><ele>256.0</ele><time>2026-05-02T15:11:57.467Z</time></trkpt><trkpt lat="46.1055007" lon="13.4974668"><ele>258.0</ele><time>2026-05-02T15:11:58.468Z</time></trkpt><trkpt lat="46.1055472" lon="13.4975457"><ele>260.0</ele><time>2026-05-02T15:11:59.467Z</time></trkpt><trkpt lat="46.1055953" lon="13.4976305"><ele>262.0</ele><time>2026-05-02T15:12:00.467Z</time></trkpt><trkpt lat="46.1056773" lon="13.4978545"><ele>259.4</ele><time>2026-05-02T15:12:02.468Z</time></trkpt><trkpt lat="46.1057163" lon="13.4979932"><ele>256.79999999999995</ele><time>2026-05-02T15:12:03.467Z</time></trkpt><trkpt lat="46.1057568" lon="13.4981315"><ele>254.2</ele><time>2026-05-02T15:12:04.467Z</time></trkpt><trkpt lat="46.1058068" lon="13.4982633"><ele>251.6</ele><time>2026-05-02T15:12:05.468Z</time></trkpt><trkpt lat="46.1058728" lon="13.4983812"><ele>249.0</ele><time>2026-05-02T15:12:06.467Z</time></trkpt><trkpt lat="46.1059367" lon="13.4984868"><ele>249.0</ele><time>2026-05-02T15:12:07.467Z</time></trkpt><trkpt lat="46.1060087" lon="13.4985803"><ele>249.0</ele><time>2026-05-02T15:12:08.467Z</time></trkpt><trkpt lat="46.10608" lon="13.4986593"><ele>249.0</ele><time>2026-05-02T15:12:09.468Z</time></trkpt><trkpt lat="46.1061575" lon="13.4987258"><ele>249.0</ele><time>2026-05-02T15:12:10.467Z</time></trkpt><trkpt lat="46.10624" lon="13.4987765"><ele>249.0</ele><time>2026-05-02T15:12:11.468Z</time></trkpt><trkpt lat="46.1063043" lon="13.4988072"><ele>249.0</ele><time>2026-05-02T15:12:12.469Z</time></trkpt><trkpt lat="46.106412" lon="13.4988107"><ele>249.0</ele><time>2026-05-02T15:12:14.467Z</time></trkpt><trkpt lat="46.1064732" lon="13.4987728"><ele>248.99999999999997</ele><time>2026-05-02T15:12:15.467Z</time></trkpt><trkpt lat="46.1065433" lon="13.4986945"><ele>248.99999999999997</ele><time>2026-05-02T15:12:17.466Z</time></trkpt><trkpt lat="46.1066187" lon="13.4986587"><ele>249.0</ele><time>2026-05-02T15:12:19.468Z</time></trkpt><trkpt lat="46.1067518" lon="13.498671"><ele>249.0</ele><time>2026-05-02T15:12:21.47Z</time></trkpt><trkpt lat="46.1069207" lon="13.4987297"><ele>249.33333333333334</ele><time>2026-05-02T15:12:23.469Z</time></trkpt><trkpt lat="46.1069957" lon="13.4987363"><ele>249.66666666666669</ele><time>2026-05-02T15:12:24.471Z</time></trkpt><trkpt lat="46.1070775" lon="13.4987343"><ele>250.0</ele><time>2026-05-02T15:12:25.469Z</time></trkpt><trkpt lat="46.1071568" lon="13.4987368"><ele>250.33333333333334</ele><time>2026-05-02T15:12:26.471Z</time></trkpt><trkpt lat="46.1072295" lon="13.4987402"><ele>250.66666666666669</ele><time>2026-05-02T15:12:27.47Z</time></trkpt><trkpt lat="46.1072985" lon="13.4987597"><ele>251.0</ele><time>2026-05-02T15:12:28.471Z</time></trkpt><trkpt lat="46.107402" lon="13.498794"><ele>248.0</ele><time>2026-05-02T15:12:30.47Z</time></trkpt><trkpt lat="46.1075033" lon="13.49882"><ele>245.00000000000003</ele><time>2026-05-02T15:12:32.47Z</time></trkpt><trkpt lat="46.1076095" lon="13.4988493"><ele>242.00000000000003</ele><time>2026-05-02T15:12:34.471Z</time></trkpt><trkpt lat="46.1077032" lon="13.4988833"><ele>239.0</ele><time>2026-05-02T15:12:36.471Z</time></trkpt><trkpt lat="46.1078097" lon="13.4989365"><ele>236.0</ele><time>2026-05-02T15:12:38.468Z</time></trkpt><trkpt lat="46.107906" lon="13.4990493"><ele>236.0</ele><time>2026-05-02T15:12:40.469Z</time></trkpt><trkpt lat="46.1079678" lon="13.499217"><ele>236.0</ele><time>2026-05-02T15:12:42.471Z</time></trkpt><trkpt lat="46.1080195" lon="13.499456"><ele>236.0</ele><time>2026-05-02T15:12:44.469Z</time></trkpt><trkpt lat="46.1080238" lon="13.4995905"><ele>236.0</ele><time>2026-05-02T15:12:45.47Z</time></trkpt><trkpt lat="46.1080288" lon="13.4997193"><ele>237.0</ele><time>2026-05-02T15:12:46.471Z</time></trkpt><trkpt lat="46.1080397" lon="13.4998412"><ele>238.00000000000003</ele><time>2026-05-02T15:12:47.47Z</time></trkpt><trkpt lat="46.1080538" lon="13.499947"><ele>239.00000000000003</ele><time>2026-05-02T15:12:48.471Z</time></trkpt><trkpt lat="46.1081148" lon="13.5000732"><ele>240.0</ele><time>2026-05-02T15:12:50.471Z</time></trkpt><trkpt lat="46.1082448" lon="13.5001318"><ele>241.0</ele><time>2026-05-02T15:12:52.469Z</time></trkpt><trkpt lat="46.1083228" lon="13.5001478"><ele>237.0</ele><time>2026-05-02T15:12:53.469Z</time></trkpt><trkpt lat="46.1083903" lon="13.5001553"><ele>233.00000000000003</ele><time>2026-05-02T15:12:54.47Z</time></trkpt><trkpt lat="46.1084638" lon="13.5001618"><ele>229.0</ele><time>2026-05-02T15:12:55.47Z</time></trkpt><trkpt lat="46.10853" lon="13.5001535"><ele>225.0</ele><time>2026-05-02T15:12:56.471Z</time></trkpt><trkpt lat="46.1086117" lon="13.5001438"><ele>221.0</ele><time>2026-05-02T15:12:57.472Z</time></trkpt><trkpt lat="46.1086815" lon="13.5001053"><ele>217.0</ele><time>2026-05-02T15:12:58.469Z</time></trkpt><trkpt lat="46.1087503" lon="13.5000718"><ele>213.0</ele><time>2026-05-02T15:12:59.471Z</time></trkpt><trkpt lat="46.108819" lon="13.5000495"><ele>213.0</ele><time>2026-05-02T15:13:00.469Z</time></trkpt><trkpt lat="46.1089175" lon="13.5000015"><ele>213.0</ele><time>2026-05-02T15:13:02.469Z</time></trkpt><trkpt lat="46.1090473" lon="13.499978"><ele>213.0</ele><time>2026-05-02T15:13:04.468Z</time></trkpt><trkpt lat="46.1092037" lon="13.4999838"><ele>213.0</ele><time>2026-05-02T15:13:06.469Z</time></trkpt><trkpt lat="46.109281" lon="13.4999907"><ele>209.83333333333334</ele><time>2026-05-02T15:13:07.47Z</time></trkpt><trkpt lat="46.1093565" lon="13.5000178"><ele>206.66666666666669</ele><time>2026-05-02T15:13:08.47Z</time></trkpt><trkpt lat="46.1094302" lon="13.5000512"><ele>203.5</ele><time>2026-05-02T15:13:09.47Z</time></trkpt><trkpt lat="46.1094995" lon="13.5001138"><ele>200.33333333333334</ele><time>2026-05-02T15:13:10.469Z</time></trkpt><trkpt lat="46.1095712" lon="13.5001923"><ele>197.16666666666669</ele><time>2026-05-02T15:13:11.469Z</time></trkpt><trkpt lat="46.1096443" lon="13.5002828"><ele>194.0</ele><time>2026-05-02T15:13:12.469Z</time></trkpt><trkpt lat="46.1097252" lon="13.5003827"><ele>192.39999999999998</ele><time>2026-05-02T15:13:13.47Z</time></trkpt><trkpt lat="46.1097988" lon="13.500465"><ele>190.8</ele><time>2026-05-02T15:13:14.469Z</time></trkpt><trkpt lat="46.1098635" lon="13.5005325"><ele>189.2</ele><time>2026-05-02T15:13:15.469Z</time></trkpt><trkpt lat="46.1099368" lon="13.5006263"><ele>187.60000000000002</ele><time>2026-05-02T15:13:16.47Z</time></trkpt><trkpt lat="46.110017" lon="13.5007262"><ele>186.0</ele><time>2026-05-02T15:13:17.47Z</time></trkpt><trkpt lat="46.1100925" lon="13.5008167"><ele>185.33333333333334</ele><time>2026-05-02T15:13:18.469Z</time></trkpt><trkpt lat="46.1101575" lon="13.5009088"><ele>184.66666666666666</ele><time>2026-05-02T15:13:19.469Z</time></trkpt><trkpt lat="46.1102133" lon="13.501007"><ele>184.0</ele><time>2026-05-02T15:13:20.469Z</time></trkpt><trkpt lat="46.110261" lon="13.501092"><ele>183.33333333333331</ele><time>2026-05-02T15:13:21.47Z</time></trkpt><trkpt lat="46.1102998" lon="13.5011872"><ele>182.66666666666666</ele><time>2026-05-02T15:13:22.469Z</time></trkpt><trkpt lat="46.1103305" lon="13.5012878"><ele>182.0</ele><time>2026-05-02T15:13:23.468Z</time></trkpt><trkpt lat="46.110352" lon="13.5013975"><ele>180.2</ele><time>2026-05-02T15:13:24.469Z</time></trkpt><trkpt lat="46.1103847" lon="13.5014952"><ele>178.39999999999998</ele><time>2026-05-02T15:13:25.469Z</time></trkpt><trkpt lat="46.110466" lon="13.5016772"><ele>176.60000000000002</ele><time>2026-05-02T15:13:27.468Z</time></trkpt><trkpt lat="46.11051" lon="13.5017687"><ele>174.8</ele><time>2026-05-02T15:13:28.469Z</time></trkpt><trkpt lat="46.110566" lon="13.5018718"><ele>173.0</ele><time>2026-05-02T15:13:29.467Z</time></trkpt><trkpt lat="46.1106245" lon="13.501964"><ele>173.0</ele><time>2026-05-02T15:13:30.468Z</time></trkpt><trkpt lat="46.1106817" lon="13.5020562"><ele>173.0</ele><time>2026-05-02T15:13:31.468Z</time></trkpt><trkpt lat="46.1107318" lon="13.5021308"><ele>173.0</ele><time>2026-05-02T15:13:32.469Z</time></trkpt><trkpt lat="46.110783" lon="13.5021885"><ele>173.0</ele><time>2026-05-02T15:13:33.469Z</time></trkpt><trkpt lat="46.1108478" lon="13.5022408"><ele>173.0</ele><time>2026-05-02T15:13:34.469Z</time></trkpt><trkpt lat="46.1109245" lon="13.502303"><ele>173.0</ele><time>2026-05-02T15:13:35.468Z</time></trkpt><trkpt lat="46.1109937" lon="13.5023613"><ele>170.0</ele><time>2026-05-02T15:13:36.468Z</time></trkpt><trkpt lat="46.111099" lon="13.5024513"><ele>167.0</ele><time>2026-05-02T15:13:37.47Z</time></trkpt><trkpt lat="46.1111915" lon="13.5025383"><ele>164.0</ele><time>2026-05-02T15:13:38.469Z</time></trkpt><trkpt lat="46.1112907" lon="13.5026242"><ele>161.0</ele><time>2026-05-02T15:13:39.469Z</time></trkpt><trkpt lat="46.111405" lon="13.5026908"><ele>161.0</ele><time>2026-05-02T15:13:40.469Z</time></trkpt><trkpt lat="46.1115437" lon="13.502758"><ele>161.0</ele><time>2026-05-02T15:13:41.47Z</time></trkpt><trkpt lat="46.1116993" lon="13.5028265"><ele>161.0</ele><time>2026-05-02T15:13:42.47Z</time></trkpt><trkpt lat="46.1118438" lon="13.502886"><ele>159.20000000000002</ele><time>2026-05-02T15:13:43.469Z</time></trkpt><trkpt lat="46.1119587" lon="13.5029287"><ele>157.4</ele><time>2026-05-02T15:13:44.47Z</time></trkpt><trkpt lat="46.1120442" lon="13.5029655"><ele>155.6</ele><time>2026-05-02T15:13:45.471Z</time></trkpt><trkpt lat="46.1121072" lon="13.5030182"><ele>153.8</ele><time>2026-05-02T15:13:46.47Z</time></trkpt><trkpt lat="46.112158" lon="13.5031868"><ele>152.0</ele><time>2026-05-02T15:13:48.469Z</time></trkpt><trkpt lat="46.1121568" lon="13.5033077"><ele>152.0</ele><time>2026-05-02T15:13:49.469Z</time></trkpt><trkpt lat="46.112143" lon="13.503454"><ele>152.0</ele><time>2026-05-02T15:13:50.47Z</time></trkpt><trkpt lat="46.1121117" lon="13.5036238"><ele>152.0</ele><time>2026-05-02T15:13:51.469Z</time></trkpt><trkpt lat="46.1120735" lon="13.5038097"><ele>152.0</ele><time>2026-05-02T15:13:52.469Z</time></trkpt><trkpt lat="46.1120133" lon="13.5039958"><ele>151.33333333333331</ele><time>2026-05-02T15:13:53.469Z</time></trkpt><trkpt lat="46.1119558" lon="13.5041933"><ele>150.66666666666666</ele><time>2026-05-02T15:13:54.47Z</time></trkpt><trkpt lat="46.1119035" lon="13.5044028"><ele>150.0</ele><time>2026-05-02T15:13:55.472Z</time></trkpt><trkpt lat="46.1118548" lon="13.5046052"><ele>150.0</ele><time>2026-05-02T15:13:56.472Z</time></trkpt><trkpt lat="46.1118125" lon="13.5047717"><ele>150.0</ele><time>2026-05-02T15:13:57.474Z</time></trkpt><trkpt lat="46.111787" lon="13.504916"><ele>150.0</ele><time>2026-05-02T15:13:58.471Z</time></trkpt><trkpt lat="46.1117843" lon="13.5050505"><ele>150.0</ele><time>2026-05-02T15:13:59.471Z</time></trkpt><trkpt lat="46.1118107" lon="13.5051785"><ele>150.0</ele><time>2026-05-02T15:14:00.476Z</time></trkpt><trkpt lat="46.111863" lon="13.5053072"><ele>153.25</ele><time>2026-05-02T15:14:01.471Z</time></trkpt><trkpt lat="46.1119345" lon="13.5054387"><ele>156.5</ele><time>2026-05-02T15:14:02.472Z</time></trkpt><trkpt lat="46.1120227" lon="13.5055738"><ele>159.75</ele><time>2026-05-02T15:14:03.47Z</time></trkpt><trkpt lat="46.112117" lon="13.5057053"><ele>163.0</ele><time>2026-05-02T15:14:04.47Z</time></trkpt><trkpt lat="46.112209" lon="13.5058412"><ele>163.0</ele><time>2026-05-02T15:14:05.472Z</time></trkpt><trkpt lat="46.112297" lon="13.505978"><ele>163.0</ele><time>2026-05-02T15:14:06.472Z</time></trkpt><trkpt lat="46.11239" lon="13.506107"><ele>163.0</ele><time>2026-05-02T15:14:07.47Z</time></trkpt><trkpt lat="46.1125602" lon="13.506373"><ele>165.4</ele><time>2026-05-02T15:14:09.471Z</time></trkpt><trkpt lat="46.1126383" lon="13.5064813"><ele>167.8</ele><time>2026-05-02T15:14:10.47Z</time></trkpt><trkpt lat="46.1127332" lon="13.5065758"><ele>170.2</ele><time>2026-05-02T15:14:11.469Z</time></trkpt><trkpt lat="46.1128133" lon="13.5066373"><ele>172.6</ele><time>2026-05-02T15:14:12.47Z</time></trkpt><trkpt lat="46.1128857" lon="13.5066987"><ele>175.0</ele><time>2026-05-02T15:14:13.469Z</time></trkpt><trkpt lat="46.1129528" lon="13.5068232"><ele>175.0</ele><time>2026-05-02T15:14:14.469Z</time></trkpt><trkpt lat="46.1130162" lon="13.5069652"><ele>175.0</ele><time>2026-05-02T15:14:15.47Z</time></trkpt><trkpt lat="46.1130857" lon="13.507127"><ele>175.0</ele><time>2026-05-02T15:14:16.468Z</time></trkpt><trkpt lat="46.1131635" lon="13.5072785"><ele>175.0</ele><time>2026-05-02T15:14:17.468Z</time></trkpt><trkpt lat="46.1132218" lon="13.5074085"><ele>171.0</ele><time>2026-05-02T15:14:18.468Z</time></trkpt><trkpt lat="46.1132603" lon="13.507525"><ele>167.0</ele><time>2026-05-02T15:14:19.468Z</time></trkpt><trkpt lat="46.1132963" lon="13.5076548"><ele>163.0</ele><time>2026-05-02T15:14:20.47Z</time></trkpt><trkpt lat="46.1133272" lon="13.5077983"><ele>159.0</ele><time>2026-05-02T15:14:21.469Z</time></trkpt><trkpt lat="46.1133587" lon="13.5079323"><ele>155.0</ele><time>2026-05-02T15:14:22.469Z</time></trkpt><trkpt lat="46.1134015" lon="13.5080433"><ele>155.0</ele><time>2026-05-02T15:14:23.471Z</time></trkpt><trkpt lat="46.1134445" lon="13.5081267"><ele>155.0</ele><time>2026-05-02T15:14:24.47Z</time></trkpt><trkpt lat="46.1134832" lon="13.5081997"><ele>155.0</ele><time>2026-05-02T15:14:25.471Z</time></trkpt><trkpt lat="46.1135255" lon="13.5082787"><ele>155.0</ele><time>2026-05-02T15:14:26.471Z</time></trkpt><trkpt lat="46.1135755" lon="13.5083693"><ele>155.0</ele><time>2026-05-02T15:14:27.473Z</time></trkpt><trkpt lat="46.1136305" lon="13.5084705"><ele>155.0</ele><time>2026-05-02T15:14:28.473Z</time></trkpt><trkpt lat="46.11376" lon="13.5086928"><ele>155.5</ele><time>2026-05-02T15:14:30.472Z</time></trkpt><trkpt lat="46.1138247" lon="13.508802"><ele>156.0</ele><time>2026-05-02T15:14:31.472Z</time></trkpt><trkpt lat="46.1138792" lon="13.5089055"><ele>156.5</ele><time>2026-05-02T15:14:32.472Z</time></trkpt><trkpt lat="46.1139193" lon="13.5090017"><ele>157.0</ele><time>2026-05-02T15:14:33.472Z</time></trkpt><trkpt lat="46.1139398" lon="13.5091335"><ele>157.5</ele><time>2026-05-02T15:14:35.471Z</time></trkpt><trkpt lat="46.1138922" lon="13.5092162"><ele>158.0</ele><time>2026-05-02T15:14:37.471Z</time></trkpt><trkpt lat="46.1137988" lon="13.5093122"><ele>158.0</ele><time>2026-05-02T15:14:39.474Z</time></trkpt><trkpt lat="46.1137492" lon="13.5094398"><ele>158.0</ele><time>2026-05-02T15:14:41.471Z</time></trkpt><trkpt lat="46.11376" lon="13.5096145"><ele>158.0</ele><time>2026-05-02T15:14:43.469Z</time></trkpt><trkpt lat="46.113778" lon="13.50973"><ele>158.0</ele><time>2026-05-02T15:14:44.469Z</time></trkpt><trkpt lat="46.1137877" lon="13.5098583"><ele>158.0</ele><time>2026-05-02T15:14:45.472Z</time></trkpt><trkpt lat="46.1137962" lon="13.5099987"><ele>159.0</ele><time>2026-05-02T15:14:46.47Z</time></trkpt><trkpt lat="46.1138018" lon="13.5101518"><ele>160.0</ele><time>2026-05-02T15:14:47.472Z</time></trkpt><trkpt lat="46.1138162" lon="13.5103122"><ele>161.0</ele><time>2026-05-02T15:14:48.474Z</time></trkpt><trkpt lat="46.1138305" lon="13.5104655"><ele>162.0</ele><time>2026-05-02T15:14:49.472Z</time></trkpt><trkpt lat="46.1138542" lon="13.510761"><ele>162.0</ele><time>2026-05-02T15:14:51.472Z</time></trkpt><trkpt lat="46.1138607" lon="13.5109073"><ele>162.0</ele><time>2026-05-02T15:14:52.471Z</time></trkpt><trkpt lat="46.1138643" lon="13.5110555"><ele>162.0</ele><time>2026-05-02T15:14:53.471Z</time></trkpt><trkpt lat="46.1138662" lon="13.5112057"><ele>162.0</ele><time>2026-05-02T15:14:54.472Z</time></trkpt><trkpt lat="46.1138698" lon="13.5113527"><ele>162.0</ele><time>2026-05-02T15:14:55.472Z</time></trkpt><trkpt lat="46.1138678" lon="13.5114887"><ele>162.16666666666666</ele><time>2026-05-02T15:14:56.473Z</time></trkpt><trkpt lat="46.113858" lon="13.5116167"><ele>162.33333333333334</ele><time>2026-05-02T15:14:57.472Z</time></trkpt><trkpt lat="46.1138657" lon="13.511737"><ele>162.5</ele><time>2026-05-02T15:14:58.473Z</time></trkpt><trkpt lat="46.1138883" lon="13.5118568"><ele>162.66666666666669</ele><time>2026-05-02T15:14:59.471Z</time></trkpt><trkpt lat="46.1139175" lon="13.5119818"><ele>162.83333333333334</ele><time>2026-05-02T15:15:00.47Z</time></trkpt><trkpt lat="46.1139492" lon="13.5121133"><ele>163.0</ele><time>2026-05-02T15:15:01.469Z</time></trkpt><trkpt lat="46.1139787" lon="13.5122502"><ele>162.83333333333334</ele><time>2026-05-02T15:15:02.469Z</time></trkpt><trkpt lat="46.11401" lon="13.5123738"><ele>162.66666666666669</ele><time>2026-05-02T15:15:03.469Z</time></trkpt><trkpt lat="46.1140372" lon="13.5124898"><ele>162.5</ele><time>2026-05-02T15:15:04.469Z</time></trkpt><trkpt lat="46.1140578" lon="13.5126047"><ele>162.33333333333334</ele><time>2026-05-02T15:15:05.469Z</time></trkpt><trkpt lat="46.1140713" lon="13.5127273"><ele>162.16666666666666</ele><time>2026-05-02T15:15:06.468Z</time></trkpt><trkpt lat="46.1140813" lon="13.5128602"><ele>162.0</ele><time>2026-05-02T15:15:07.468Z</time></trkpt><trkpt lat="46.1140903" lon="13.5129943"><ele>162.0</ele><time>2026-05-02T15:15:08.468Z</time></trkpt><trkpt lat="46.1141108" lon="13.5131282"><ele>162.0</ele><time>2026-05-02T15:15:09.469Z</time></trkpt><trkpt lat="46.1141418" lon="13.5132617"><ele>162.0</ele><time>2026-05-02T15:15:10.469Z</time></trkpt><trkpt lat="46.1142088" lon="13.5135218"><ele>162.0</ele><time>2026-05-02T15:15:12.469Z</time></trkpt><trkpt lat="46.114254" lon="13.5136362"><ele>162.0</ele><time>2026-05-02T15:15:13.467Z</time></trkpt><trkpt lat="46.1142957" lon="13.5137365"><ele>162.0</ele><time>2026-05-02T15:15:14.468Z</time></trkpt><trkpt lat="46.1143203" lon="13.5138498"><ele>162.0</ele><time>2026-05-02T15:15:15.469Z</time></trkpt><trkpt lat="46.1143388" lon="13.5139647"><ele>162.0</ele><time>2026-05-02T15:15:16.468Z</time></trkpt><trkpt lat="46.1143485" lon="13.5141027"><ele>162.0</ele><time>2026-05-02T15:15:17.469Z</time></trkpt><trkpt lat="46.1143703" lon="13.5142347"><ele>162.0</ele><time>2026-05-02T15:15:18.469Z</time></trkpt><trkpt lat="46.1143965" lon="13.514376"><ele>162.6</ele><time>2026-05-02T15:15:19.469Z</time></trkpt><trkpt lat="46.1144142" lon="13.514523"><ele>163.2</ele><time>2026-05-02T15:15:20.468Z</time></trkpt><trkpt lat="46.1144332" lon="13.5146687"><ele>163.8</ele><time>2026-05-02T15:15:21.469Z</time></trkpt><trkpt lat="46.1144465" lon="13.5148113"><ele>164.4</ele><time>2026-05-02T15:15:22.468Z</time></trkpt><trkpt lat="46.1144668" lon="13.5149405"><ele>165.0</ele><time>2026-05-02T15:15:23.468Z</time></trkpt><trkpt lat="46.1144842" lon="13.5150785"><ele>165.66666666666666</ele><time>2026-05-02T15:15:24.468Z</time></trkpt><trkpt lat="46.1144885" lon="13.515208"><ele>166.33333333333334</ele><time>2026-05-02T15:15:25.468Z</time></trkpt><trkpt lat="46.114499" lon="13.5153338"><ele>167.0</ele><time>2026-05-02T15:15:26.468Z</time></trkpt><trkpt lat="46.1144845" lon="13.5154565"><ele>167.66666666666669</ele><time>2026-05-02T15:15:27.469Z</time></trkpt><trkpt lat="46.1144802" lon="13.5155553"><ele>168.33333333333334</ele><time>2026-05-02T15:15:28.468Z</time></trkpt><trkpt lat="46.1144938" lon="13.5156453"><ele>169.0</ele><time>2026-05-02T15:15:29.468Z</time></trkpt><trkpt lat="46.1145268" lon="13.5157358"><ele>169.5</ele><time>2026-05-02T15:15:30.468Z</time></trkpt><trkpt lat="46.1145557" lon="13.5158247"><ele>170.0</ele><time>2026-05-02T15:15:31.467Z</time></trkpt><trkpt lat="46.1145838" lon="13.5160295"><ele>170.5</ele><time>2026-05-02T15:15:33.467Z</time></trkpt><trkpt lat="46.1146013" lon="13.5161365"><ele>171.0</ele><time>2026-05-02T15:15:34.468Z</time></trkpt><trkpt lat="46.1146222" lon="13.5162285"><ele>171.5</ele><time>2026-05-02T15:15:35.469Z</time></trkpt><trkpt lat="46.1146665" lon="13.5163297"><ele>172.0</ele><time>2026-05-02T15:15:36.469Z</time></trkpt><trkpt lat="46.114707" lon="13.516432"><ele>172.0</ele><time>2026-05-02T15:15:37.469Z</time></trkpt><trkpt lat="46.1147577" lon="13.5165327"><ele>172.0</ele><time>2026-05-02T15:15:38.468Z</time></trkpt><trkpt lat="46.1148105" lon="13.5166353"><ele>172.0</ele><time>2026-05-02T15:15:39.47Z</time></trkpt><trkpt lat="46.1148683" lon="13.5167443"><ele>172.0</ele><time>2026-05-02T15:15:40.47Z</time></trkpt><trkpt lat="46.1149207" lon="13.516856"><ele>172.0</ele><time>2026-05-02T15:15:41.47Z</time></trkpt><trkpt lat="46.1149705" lon="13.5169647"><ele>168.66666666666669</ele><time>2026-05-02T15:15:42.47Z</time></trkpt><trkpt lat="46.1150223" lon="13.517059"><ele>165.33333333333334</ele><time>2026-05-02T15:15:43.468Z</time></trkpt><trkpt lat="46.115078" lon="13.5171465"><ele>162.0</ele><time>2026-05-02T15:15:44.469Z</time></trkpt><trkpt lat="46.1151342" lon="13.5172372"><ele>158.66666666666666</ele><time>2026-05-02T15:15:45.47Z</time></trkpt><trkpt lat="46.1151842" lon="13.5173293"><ele>155.33333333333331</ele><time>2026-05-02T15:15:46.469Z</time></trkpt><trkpt lat="46.1152327" lon="13.5174222"><ele>152.0</ele><time>2026-05-02T15:15:47.469Z</time></trkpt><trkpt lat="46.1152858" lon="13.5175062"><ele>152.0</ele><time>2026-05-02T15:15:48.47Z</time></trkpt><trkpt lat="46.1153425" lon="13.5175868"><ele>152.0</ele><time>2026-05-02T15:15:49.47Z</time></trkpt><trkpt lat="46.1154008" lon="13.5176588"><ele>152.0</ele><time>2026-05-02T15:15:50.47Z</time></trkpt><trkpt lat="46.115458" lon="13.5177223"><ele>152.0</ele><time>2026-05-02T15:15:51.47Z</time></trkpt><trkpt lat="46.1155198" lon="13.517787"><ele>152.0</ele><time>2026-05-02T15:15:52.47Z</time></trkpt><trkpt lat="46.1156373" lon="13.51789"><ele>152.0</ele><time>2026-05-02T15:15:54.469Z</time></trkpt><trkpt lat="46.1157005" lon="13.51794"><ele>151.83333333333331</ele><time>2026-05-02T15:15:55.469Z</time></trkpt><trkpt lat="46.1157562" lon="13.5179857"><ele>151.66666666666666</ele><time>2026-05-02T15:15:56.468Z</time></trkpt><trkpt lat="46.115828" lon="13.5180437"><ele>151.5</ele><time>2026-05-02T15:15:57.47Z</time></trkpt><trkpt lat="46.1159023" lon="13.5181255"><ele>151.33333333333334</ele><time>2026-05-02T15:15:58.47Z</time></trkpt><trkpt lat="46.1159825" lon="13.5182153"><ele>151.16666666666669</ele><time>2026-05-02T15:15:59.473Z</time></trkpt><trkpt lat="46.1160567" lon="13.5183133"><ele>151.0</ele><time>2026-05-02T15:16:00.47Z</time></trkpt><trkpt lat="46.1161315" lon="13.5184192"><ele>151.0</ele><time>2026-05-02T15:16:01.47Z</time></trkpt><trkpt lat="46.1162148" lon="13.5185138"><ele>151.0</ele><time>2026-05-02T15:16:02.468Z</time></trkpt><trkpt lat="46.1163003" lon="13.5185975"><ele>151.0</ele><time>2026-05-02T15:16:03.471Z</time></trkpt><trkpt lat="46.1163903" lon="13.5186807"><ele>151.0</ele><time>2026-05-02T15:16:04.471Z</time></trkpt><trkpt lat="46.1164742" lon="13.5187567"><ele>151.0</ele><time>2026-05-02T15:16:05.47Z</time></trkpt><trkpt lat="46.1165583" lon="13.5188287"><ele>151.6</ele><time>2026-05-02T15:16:06.47Z</time></trkpt><trkpt lat="46.116644" lon="13.5189118"><ele>152.2</ele><time>2026-05-02T15:16:07.469Z</time></trkpt><trkpt lat="46.1167325" lon="13.5190015"><ele>152.8</ele><time>2026-05-02T15:16:08.469Z</time></trkpt><trkpt lat="46.1168188" lon="13.5190935"><ele>153.4</ele><time>2026-05-02T15:16:09.468Z</time></trkpt><trkpt lat="46.1168987" lon="13.5191823"><ele>154.0</ele><time>2026-05-02T15:16:10.468Z</time></trkpt><trkpt lat="46.1169722" lon="13.5192567"><ele>154.0</ele><time>2026-05-02T15:16:11.469Z</time></trkpt><trkpt lat="46.1170305" lon="13.5193168"><ele>154.0</ele><time>2026-05-02T15:16:12.47Z</time></trkpt><trkpt lat="46.1171207" lon="13.5194647"><ele>154.0</ele><time>2026-05-02T15:16:14.471Z</time></trkpt><trkpt lat="46.1172298" lon="13.5197263"><ele>154.0</ele><time>2026-05-02T15:16:16.47Z</time></trkpt><trkpt lat="46.1172797" lon="13.519876"><ele>153.8</ele><time>2026-05-02T15:16:17.47Z</time></trkpt><trkpt lat="46.1173183" lon="13.5200143"><ele>153.60000000000002</ele><time>2026-05-02T15:16:18.469Z</time></trkpt><trkpt lat="46.1173588" lon="13.5201297"><ele>153.4</ele><time>2026-05-02T15:16:19.47Z</time></trkpt><trkpt lat="46.1174213" lon="13.5202373"><ele>153.20000000000002</ele><time>2026-05-02T15:16:20.468Z</time></trkpt><trkpt lat="46.1174855" lon="13.5203378"><ele>153.0</ele><time>2026-05-02T15:16:21.469Z</time></trkpt><trkpt lat="46.1175512" lon="13.520436"><ele>153.0</ele><time>2026-05-02T15:16:22.469Z</time></trkpt><trkpt lat="46.1176153" lon="13.5205258"><ele>153.0</ele><time>2026-05-02T15:16:23.473Z</time></trkpt><trkpt lat="46.117688" lon="13.5206023"><ele>153.0</ele><time>2026-05-02T15:16:24.47Z</time></trkpt><trkpt lat="46.117767" lon="13.5206727"><ele>153.0</ele><time>2026-05-02T15:16:25.47Z</time></trkpt><trkpt lat="46.117845" lon="13.52074"><ele>153.0</ele><time>2026-05-02T15:16:26.469Z</time></trkpt><trkpt lat="46.1179193" lon="13.5208048"><ele>153.0</ele><time>2026-05-02T15:16:27.47Z</time></trkpt><trkpt lat="46.1179812" lon="13.5208648"><ele>153.0</ele><time>2026-05-02T15:16:28.469Z</time></trkpt><trkpt lat="46.1180533" lon="13.5210092"><ele>153.0</ele><time>2026-05-02T15:16:30.47Z</time></trkpt><trkpt lat="46.1180648" lon="13.5211033"><ele>153.0</ele><time>2026-05-02T15:16:31.471Z</time></trkpt><trkpt lat="46.1180628" lon="13.5212078"><ele>153.0</ele><time>2026-05-02T15:16:32.469Z</time></trkpt><trkpt lat="46.1180488" lon="13.5213195"><ele>153.0</ele><time>2026-05-02T15:16:33.47Z</time></trkpt><trkpt lat="46.118029" lon="13.5214235"><ele>153.0</ele><time>2026-05-02T15:16:34.47Z</time></trkpt><trkpt lat="46.1180125" lon="13.5215152"><ele>153.0</ele><time>2026-05-02T15:16:35.47Z</time></trkpt><trkpt lat="46.1180665" lon="13.521694"><ele>153.0</ele><time>2026-05-02T15:16:39.47Z</time></trkpt><trkpt lat="46.118187" lon="13.5217185"><ele>153.0</ele><time>2026-05-02T15:16:41.47Z</time></trkpt><trkpt lat="46.1182663" lon="13.5217338"><ele>153.0</ele><time>2026-05-02T15:16:42.471Z</time></trkpt><trkpt lat="46.11835" lon="13.5217708"><ele>153.25</ele><time>2026-05-02T15:16:43.468Z</time></trkpt><trkpt lat="46.118444" lon="13.5218278"><ele>153.5</ele><time>2026-05-02T15:16:44.469Z</time></trkpt><trkpt lat="46.1185498" lon="13.5218932"><ele>153.75</ele><time>2026-05-02T15:16:45.469Z</time></trkpt><trkpt lat="46.1186668" lon="13.5219562"><ele>154.0</ele><time>2026-05-02T15:16:46.47Z</time></trkpt><trkpt lat="46.118792" lon="13.5220212"><ele>153.75</ele><time>2026-05-02T15:16:47.473Z</time></trkpt><trkpt lat="46.1189135" lon="13.5220855"><ele>153.5</ele><time>2026-05-02T15:16:48.473Z</time></trkpt><trkpt lat="46.1190288" lon="13.52214"><ele>153.25</ele><time>2026-05-02T15:16:49.471Z</time></trkpt><trkpt lat="46.1191467" lon="13.5221777"><ele>153.0</ele><time>2026-05-02T15:16:50.471Z</time></trkpt><trkpt lat="46.1192668" lon="13.5221908"><ele>153.4</ele><time>2026-05-02T15:16:51.473Z</time></trkpt><trkpt lat="46.1193803" lon="13.5221935"><ele>153.8</ele><time>2026-05-02T15:16:52.473Z</time></trkpt><trkpt lat="46.1194768" lon="13.5222088"><ele>154.2</ele><time>2026-05-02T15:16:53.472Z</time></trkpt><trkpt lat="46.1195563" lon="13.5222595"><ele>154.6</ele><time>2026-05-02T15:16:54.471Z</time></trkpt><trkpt lat="46.1196302" lon="13.5223458"><ele>155.0</ele><time>2026-05-02T15:16:55.474Z</time></trkpt><trkpt lat="46.1197057" lon="13.5224532"><ele>155.0</ele><time>2026-05-02T15:16:56.472Z</time></trkpt><trkpt lat="46.1198632" lon="13.522696"><ele>155.0</ele><time>2026-05-02T15:16:58.48Z</time></trkpt><trkpt lat="46.1199313" lon="13.5228258"><ele>155.0</ele><time>2026-05-02T15:16:59.472Z</time></trkpt><trkpt lat="46.1199935" lon="13.5229542"><ele>155.0</ele><time>2026-05-02T15:17:00.482Z</time></trkpt><trkpt lat="46.1200522" lon="13.5230782"><ele>155.0</ele><time>2026-05-02T15:17:01.484Z</time></trkpt><trkpt lat="46.1201058" lon="13.5231953"><ele>155.0</ele><time>2026-05-02T15:17:02.482Z</time></trkpt><trkpt lat="46.120155" lon="13.5232988"><ele>155.0</ele><time>2026-05-02T15:17:03.483Z</time></trkpt><trkpt lat="46.120234" lon="13.523473"><ele>155.0</ele><time>2026-05-02T15:17:05.482Z</time></trkpt><trkpt lat="46.1202743" lon="13.5236087"><ele>155.0</ele><time>2026-05-02T15:17:07.48Z</time></trkpt><trkpt lat="46.1202527" lon="13.5237145"><ele>155.0</ele><time>2026-05-02T15:17:09.479Z</time></trkpt><trkpt lat="46.1201832" lon="13.5237882"><ele>155.0</ele><time>2026-05-02T15:17:11.478Z</time></trkpt><trkpt lat="46.1201205" lon="13.5238588"><ele>155.0</ele><time>2026-05-02T15:17:13.481Z</time></trkpt><trkpt lat="46.1201068" lon="13.5239633"><ele>155.0</ele><time>2026-05-02T15:17:16.482Z</time></trkpt><trkpt lat="46.121188" lon="13.5222"><ele>155.33333333333331</ele><time>2026-05-02T16:27:25.274Z</time></trkpt><trkpt lat="46.1211122" lon="13.522095"><ele>155.66666666666666</ele><time>2026-05-02T16:27:26.273Z</time></trkpt><trkpt lat="46.1208712" lon="13.5218532"><ele>156.0</ele><time>2026-05-02T16:27:29.274Z</time></trkpt><trkpt lat="46.1207993" lon="13.5217507"><ele>156.0</ele><time>2026-05-02T16:27:30.276Z</time></trkpt><trkpt lat="46.1207243" lon="13.5216325"><ele>156.0</ele><time>2026-05-02T16:27:31.277Z</time></trkpt><trkpt lat="46.1206433" lon="13.5214963"><ele>156.0</ele><time>2026-05-02T16:27:32.278Z</time></trkpt><trkpt lat="46.120551" lon="13.5213513"><ele>156.0</ele><time>2026-05-02T16:27:33.28Z</time></trkpt><trkpt lat="46.1204558" lon="13.521193"><ele>156.0</ele><time>2026-05-02T16:27:34.279Z</time></trkpt><trkpt lat="46.1202587" lon="13.5208603"><ele>156.0</ele><time>2026-05-02T16:27:36.277Z</time></trkpt><trkpt lat="46.1201537" lon="13.5206842"><ele>156.0</ele><time>2026-05-02T16:27:37.278Z</time></trkpt><trkpt lat="46.1200443" lon="13.5205038"><ele>156.0</ele><time>2026-05-02T16:27:38.278Z</time></trkpt><trkpt lat="46.1199328" lon="13.5203225"><ele>156.0</ele><time>2026-05-02T16:27:39.279Z</time></trkpt><trkpt lat="46.1198228" lon="13.5201378"><ele>155.66666666666666</ele><time>2026-05-02T16:27:40.28Z</time></trkpt><trkpt lat="46.1197152" lon="13.5199525"><ele>155.33333333333331</ele><time>2026-05-02T16:27:41.279Z</time></trkpt><trkpt lat="46.1196102" lon="13.5197653"><ele>155.0</ele><time>2026-05-02T16:27:42.279Z</time></trkpt><trkpt lat="46.1195082" lon="13.5195772"><ele>155.33333333333331</ele><time>2026-05-02T16:27:43.28Z</time></trkpt><trkpt lat="46.1194108" lon="13.5193857"><ele>155.66666666666666</ele><time>2026-05-02T16:27:44.28Z</time></trkpt><trkpt lat="46.1193178" lon="13.5191885"><ele>156.0</ele><time>2026-05-02T16:27:45.279Z</time></trkpt><trkpt lat="46.1192297" lon="13.5189863"><ele>156.0</ele><time>2026-05-02T16:27:46.28Z</time></trkpt><trkpt lat="46.119149" lon="13.5187775"><ele>156.0</ele><time>2026-05-02T16:27:47.28Z</time></trkpt><trkpt lat="46.1190007" lon="13.5183553"><ele>156.0</ele><time>2026-05-02T16:27:49.281Z</time></trkpt><trkpt lat="46.1189297" lon="13.5181437"><ele>156.0</ele><time>2026-05-02T16:27:50.279Z</time></trkpt><trkpt lat="46.11886" lon="13.517932"><ele>156.0</ele><time>2026-05-02T16:27:51.277Z</time></trkpt><trkpt lat="46.1187902" lon="13.5177163"><ele>157.0</ele><time>2026-05-02T16:27:52.277Z</time></trkpt><trkpt lat="46.1187185" lon="13.5174965"><ele>158.0</ele><time>2026-05-02T16:27:53.277Z</time></trkpt><trkpt lat="46.118646" lon="13.5172723"><ele>159.0</ele><time>2026-05-02T16:27:54.278Z</time></trkpt><trkpt lat="46.1185738" lon="13.517046"><ele>159.0</ele><time>2026-05-02T16:27:55.279Z</time></trkpt><trkpt lat="46.1185017" lon="13.5168197"><ele>159.0</ele><time>2026-05-02T16:27:56.279Z</time></trkpt><trkpt lat="46.1184298" lon="13.5165935"><ele>159.0</ele><time>2026-05-02T16:27:57.28Z</time></trkpt><trkpt lat="46.1183413" lon="13.5163218"><ele>159.33333333333334</ele><time>2026-05-02T16:27:58.477Z</time></trkpt><trkpt lat="46.118267" lon="13.5160947"><ele>159.66666666666669</ele><time>2026-05-02T16:27:59.472Z</time></trkpt><trkpt lat="46.118193" lon="13.5158685"><ele>160.0</ele><time>2026-05-02T16:28:00.474Z</time></trkpt><trkpt lat="46.11812" lon="13.5156452"><ele>160.0</ele><time>2026-05-02T16:28:01.473Z</time></trkpt><trkpt lat="46.1180465" lon="13.5154242"><ele>160.0</ele><time>2026-05-02T16:28:02.473Z</time></trkpt><trkpt lat="46.1179725" lon="13.5152048"><ele>160.0</ele><time>2026-05-02T16:28:03.473Z</time></trkpt><trkpt lat="46.1179002" lon="13.5149858"><ele>159.66666666666669</ele><time>2026-05-02T16:28:04.476Z</time></trkpt><trkpt lat="46.117835" lon="13.5147625"><ele>159.33333333333334</ele><time>2026-05-02T16:28:05.471Z</time></trkpt><trkpt lat="46.1177845" lon="13.5145285"><ele>159.0</ele><time>2026-05-02T16:28:06.476Z</time></trkpt><trkpt lat="46.1177557" lon="13.5142853"><ele>159.0</ele><time>2026-05-02T16:28:07.471Z</time></trkpt><trkpt lat="46.1177612" lon="13.5137847"><ele>159.0</ele><time>2026-05-02T16:28:09.473Z</time></trkpt><trkpt lat="46.1177788" lon="13.5135303"><ele>158.66666666666666</ele><time>2026-05-02T16:28:10.473Z</time></trkpt><trkpt lat="46.1177957" lon="13.5132753"><ele>158.33333333333331</ele><time>2026-05-02T16:28:11.475Z</time></trkpt><trkpt lat="46.1178072" lon="13.5130245"><ele>158.0</ele><time>2026-05-02T16:28:12.474Z</time></trkpt><trkpt lat="46.1178097" lon="13.5127772"><ele>158.66666666666666</ele><time>2026-05-02T16:28:13.473Z</time></trkpt><trkpt lat="46.1177975" lon="13.5125317"><ele>159.33333333333334</ele><time>2026-05-02T16:28:14.472Z</time></trkpt><trkpt lat="46.1177655" lon="13.5122903"><ele>160.0</ele><time>2026-05-02T16:28:15.472Z</time></trkpt><trkpt lat="46.1177178" lon="13.512055"><ele>161.33333333333334</ele><time>2026-05-02T16:28:16.474Z</time></trkpt><trkpt lat="46.1176642" lon="13.5118227"><ele>162.66666666666666</ele><time>2026-05-02T16:28:17.473Z</time></trkpt><trkpt lat="46.1176103" lon="13.5115908"><ele>164.0</ele><time>2026-05-02T16:28:18.472Z</time></trkpt><trkpt lat="46.1175563" lon="13.5113602"><ele>164.0</ele><time>2026-05-02T16:28:19.473Z</time></trkpt><trkpt lat="46.117501" lon="13.5111302"><ele>164.0</ele><time>2026-05-02T16:28:20.473Z</time></trkpt><trkpt lat="46.1174437" lon="13.5108998"><ele>164.0</ele><time>2026-05-02T16:28:21.474Z</time></trkpt><trkpt lat="46.1173818" lon="13.510667"><ele>161.0</ele><time>2026-05-02T16:28:22.472Z</time></trkpt><trkpt lat="46.1173163" lon="13.5104332"><ele>158.0</ele><time>2026-05-02T16:28:23.472Z</time></trkpt><trkpt lat="46.1172495" lon="13.5102002"><ele>155.0</ele><time>2026-05-02T16:28:24.472Z</time></trkpt><trkpt lat="46.1171828" lon="13.5099682"><ele>155.0</ele><time>2026-05-02T16:28:25.473Z</time></trkpt><trkpt lat="46.1171162" lon="13.5097385"><ele>155.0</ele><time>2026-05-02T16:28:26.473Z</time></trkpt><trkpt lat="46.1170488" lon="13.509511"><ele>155.0</ele><time>2026-05-02T16:28:27.475Z</time></trkpt><trkpt lat="46.1169825" lon="13.5092835"><ele>154.5</ele><time>2026-05-02T16:28:28.473Z</time></trkpt><trkpt lat="46.1168608" lon="13.5088202"><ele>154.0</ele><time>2026-05-02T16:28:30.471Z</time></trkpt><trkpt lat="46.116808" lon="13.5085832"><ele>153.66666666666669</ele><time>2026-05-02T16:28:31.472Z</time></trkpt><trkpt lat="46.1167588" lon="13.5083458"><ele>153.33333333333334</ele><time>2026-05-02T16:28:32.471Z</time></trkpt><trkpt lat="46.116709" lon="13.5081137"><ele>153.0</ele><time>2026-05-02T16:28:33.471Z</time></trkpt><trkpt lat="46.1166493" lon="13.5078862"><ele>152.0</ele><time>2026-05-02T16:28:34.472Z</time></trkpt><trkpt lat="46.1165732" lon="13.507666"><ele>151.0</ele><time>2026-05-02T16:28:35.472Z</time></trkpt><trkpt lat="46.1164797" lon="13.5074553"><ele>150.0</ele><time>2026-05-02T16:28:36.471Z</time></trkpt><trkpt lat="46.1163702" lon="13.5072593"><ele>149.0</ele><time>2026-05-02T16:28:37.472Z</time></trkpt><trkpt lat="46.1162497" lon="13.5070803"><ele>148.0</ele><time>2026-05-02T16:28:38.471Z</time></trkpt><trkpt lat="46.1161243" lon="13.5069145"><ele>147.0</ele><time>2026-05-02T16:28:39.472Z</time></trkpt><trkpt lat="46.1160025" lon="13.5067535"><ele>147.0</ele><time>2026-05-02T16:28:40.475Z</time></trkpt><trkpt lat="46.115888" lon="13.5065858"><ele>147.0</ele><time>2026-05-02T16:28:41.474Z</time></trkpt><trkpt lat="46.1157855" lon="13.5064052"><ele>147.0</ele><time>2026-05-02T16:28:42.473Z</time></trkpt><trkpt lat="46.115698" lon="13.5062093"><ele>146.0</ele><time>2026-05-02T16:28:43.472Z</time></trkpt><trkpt lat="46.1156253" lon="13.5060023"><ele>145.0</ele><time>2026-05-02T16:28:44.473Z</time></trkpt><trkpt lat="46.1155708" lon="13.5057833"><ele>144.0</ele><time>2026-05-02T16:28:45.473Z</time></trkpt><trkpt lat="46.1155362" lon="13.505551"><ele>144.33333333333334</ele><time>2026-05-02T16:28:46.473Z</time></trkpt><trkpt lat="46.1155155" lon="13.5053093"><ele>144.66666666666669</ele><time>2026-05-02T16:28:47.473Z</time></trkpt><trkpt lat="46.1154985" lon="13.5050617"><ele>145.0</ele><time>2026-05-02T16:28:48.471Z</time></trkpt><trkpt lat="46.1154797" lon="13.5048083"><ele>144.0</ele><time>2026-05-02T16:28:49.472Z</time></trkpt><trkpt lat="46.1154292" lon="13.5042923"><ele>143.0</ele><time>2026-05-02T16:28:51.474Z</time></trkpt><trkpt lat="46.115397" lon="13.504035"><ele>143.0</ele><time>2026-05-02T16:28:52.472Z</time></trkpt><trkpt lat="46.1153572" lon="13.5037807"><ele>143.0</ele><time>2026-05-02T16:28:53.475Z</time></trkpt><trkpt lat="46.1153092" lon="13.5035305"><ele>143.0</ele><time>2026-05-02T16:28:54.474Z</time></trkpt><trkpt lat="46.115256" lon="13.5032838"><ele>143.0</ele><time>2026-05-02T16:28:55.472Z</time></trkpt><trkpt lat="46.1151998" lon="13.5030402"><ele>143.0</ele><time>2026-05-02T16:28:56.472Z</time></trkpt><trkpt lat="46.1151437" lon="13.5028015"><ele>143.0</ele><time>2026-05-02T16:28:57.472Z</time></trkpt><trkpt lat="46.1150893" lon="13.5025728"><ele>143.33333333333331</ele><time>2026-05-02T16:28:58.474Z</time></trkpt><trkpt lat="46.1150378" lon="13.5023528"><ele>143.66666666666666</ele><time>2026-05-02T16:28:59.474Z</time></trkpt><trkpt lat="46.1149905" lon="13.5021363"><ele>144.0</ele><time>2026-05-02T16:29:00.474Z</time></trkpt><trkpt lat="46.1149518" lon="13.5019187"><ele>144.0</ele><time>2026-05-02T16:29:01.475Z</time></trkpt><trkpt lat="46.1149327" lon="13.501697"><ele>144.0</ele><time>2026-05-02T16:29:02.477Z</time></trkpt><trkpt lat="46.1149392" lon="13.5014692"><ele>144.0</ele><time>2026-05-02T16:29:03.473Z</time></trkpt><trkpt lat="46.1149727" lon="13.5012378"><ele>144.33333333333334</ele><time>2026-05-02T16:29:04.474Z</time></trkpt><trkpt lat="46.1150317" lon="13.5010087"><ele>144.66666666666669</ele><time>2026-05-02T16:29:05.474Z</time></trkpt><trkpt lat="46.115111" lon="13.5007837"><ele>145.0</ele><time>2026-05-02T16:29:06.475Z</time></trkpt><trkpt lat="46.1152023" lon="13.5005598"><ele>145.33333333333334</ele><time>2026-05-02T16:29:07.475Z</time></trkpt><trkpt lat="46.1152985" lon="13.5003322"><ele>145.66666666666666</ele><time>2026-05-02T16:29:08.474Z</time></trkpt><trkpt lat="46.115395" lon="13.5001013"><ele>146.0</ele><time>2026-05-02T16:29:09.473Z</time></trkpt><trkpt lat="46.1154873" lon="13.499866"><ele>145.0</ele><time>2026-05-02T16:29:10.473Z</time></trkpt><trkpt lat="46.1156502" lon="13.4993747"><ele>144.0</ele><time>2026-05-02T16:29:12.473Z</time></trkpt><trkpt lat="46.1157242" lon="13.4991212"><ele>143.33333333333334</ele><time>2026-05-02T16:29:13.473Z</time></trkpt><trkpt lat="46.115796" lon="13.4988663"><ele>142.66666666666669</ele><time>2026-05-02T16:29:14.473Z</time></trkpt><trkpt lat="46.1158675" lon="13.498613"><ele>142.0</ele><time>2026-05-02T16:29:15.474Z</time></trkpt><trkpt lat="46.1159405" lon="13.4983632"><ele>142.0</ele><time>2026-05-02T16:29:16.474Z</time></trkpt><trkpt lat="46.116017" lon="13.4981188"><ele>142.0</ele><time>2026-05-02T16:29:17.472Z</time></trkpt><trkpt lat="46.1161022" lon="13.4978828"><ele>142.0</ele><time>2026-05-02T16:29:18.473Z</time></trkpt><trkpt lat="46.1235007" lon="13.3796668"><ele>133.5</ele><time>2026-05-02T16:39:54.87Z</time></trkpt><trkpt lat="46.1237077" lon="13.379255"><ele>125.0</ele><time>2026-05-02T16:39:56.269Z</time></trkpt><trkpt lat="46.1240275" lon="13.378625"><ele>124.0</ele><time>2026-05-02T16:39:58.47Z</time></trkpt><trkpt lat="46.1241573" lon="13.3783467"><ele>123.0</ele><time>2026-05-02T16:39:59.47Z</time></trkpt><trkpt lat="46.1242803" lon="13.3780753"><ele>122.5</ele><time>2026-05-02T16:40:00.47Z</time></trkpt><trkpt lat="46.1244022" lon="13.3777995"><ele>122.0</ele><time>2026-05-02T16:40:01.471Z</time></trkpt><trkpt lat="46.1245218" lon="13.3775253"><ele>122.0</ele><time>2026-05-02T16:40:02.471Z</time></trkpt><trkpt lat="46.1246428" lon="13.3772507"><ele>122.0</ele><time>2026-05-02T16:40:03.473Z</time></trkpt><trkpt lat="46.1247643" lon="13.3769748"><ele>122.0</ele><time>2026-05-02T16:40:04.47Z</time></trkpt><trkpt lat="46.1248845" lon="13.3767005"><ele>122.0</ele><time>2026-05-02T16:40:05.471Z</time></trkpt><trkpt lat="46.1250033" lon="13.3764287"><ele>122.0</ele><time>2026-05-02T16:40:06.472Z</time></trkpt><trkpt lat="46.1251213" lon="13.376158"><ele>122.0</ele><time>2026-05-02T16:40:07.471Z</time></trkpt><trkpt lat="46.1252392" lon="13.3758897"><ele>122.0</ele><time>2026-05-02T16:40:08.472Z</time></trkpt><trkpt lat="46.1253567" lon="13.3756233"><ele>122.0</ele><time>2026-05-02T16:40:09.473Z</time></trkpt><trkpt lat="46.1254722" lon="13.37536"><ele>123.0</ele><time>2026-05-02T16:40:10.474Z</time></trkpt><trkpt lat="46.1255832" lon="13.375108"><ele>124.0</ele><time>2026-05-02T16:40:11.474Z</time></trkpt><trkpt lat="46.1256892" lon="13.374862"><ele>125.0</ele><time>2026-05-02T16:40:12.479Z</time></trkpt><trkpt lat="46.125785" lon="13.3746145"><ele>125.66666666666666</ele><time>2026-05-02T16:40:13.474Z</time></trkpt><trkpt lat="46.1258598" lon="13.3743562"><ele>126.33333333333334</ele><time>2026-05-02T16:40:14.475Z</time></trkpt><trkpt lat="46.125908" lon="13.3740832"><ele>127.0</ele><time>2026-05-02T16:40:15.473Z</time></trkpt><trkpt lat="46.125934" lon="13.3737982"><ele>125.5</ele><time>2026-05-02T16:40:16.473Z</time></trkpt><trkpt lat="46.1259482" lon="13.3735047"><ele>124.0</ele><time>2026-05-02T16:40:17.473Z</time></trkpt><trkpt lat="46.1259655" lon="13.3729052"><ele>124.0</ele><time>2026-05-02T16:40:19.471Z</time></trkpt><trkpt lat="46.1259748" lon="13.3726048"><ele>124.0</ele><time>2026-05-02T16:40:20.474Z</time></trkpt><trkpt lat="46.1259822" lon="13.3723052"><ele>124.0</ele><time>2026-05-02T16:40:21.472Z</time></trkpt><trkpt lat="46.1259928" lon="13.3720087"><ele>124.33333333333334</ele><time>2026-05-02T16:40:22.474Z</time></trkpt><trkpt lat="46.126002" lon="13.3717133"><ele>124.66666666666666</ele><time>2026-05-02T16:40:23.473Z</time></trkpt><trkpt lat="46.1260122" lon="13.3714178"><ele>125.0</ele><time>2026-05-02T16:40:24.473Z</time></trkpt><trkpt lat="46.126023" lon="13.3711222"><ele>125.0</ele><time>2026-05-02T16:40:25.472Z</time></trkpt><trkpt lat="46.1260322" lon="13.3708268"><ele>125.0</ele><time>2026-05-02T16:40:26.473Z</time></trkpt><trkpt lat="46.1260398" lon="13.3705315"><ele>125.0</ele><time>2026-05-02T16:40:27.473Z</time></trkpt><trkpt lat="46.126047" lon="13.3702408"><ele>125.0</ele><time>2026-05-02T16:40:28.473Z</time></trkpt><trkpt lat="46.1260567" lon="13.3699662"><ele>125.0</ele><time>2026-05-02T16:40:29.473Z</time></trkpt><trkpt lat="46.1260707" lon="13.3697105"><ele>125.0</ele><time>2026-05-02T16:40:30.474Z</time></trkpt><trkpt lat="46.1260983" lon="13.369472"><ele>125.0</ele><time>2026-05-02T16:40:31.474Z</time></trkpt><trkpt lat="46.1261525" lon="13.3692433"><ele>125.0</ele><time>2026-05-02T16:40:32.479Z</time></trkpt><trkpt lat="46.1262322" lon="13.3690232"><ele>125.0</ele><time>2026-05-02T16:40:33.475Z</time></trkpt><trkpt lat="46.1263228" lon="13.3688"><ele>125.33333333333333</ele><time>2026-05-02T16:40:34.473Z</time></trkpt><trkpt lat="46.1264167" lon="13.3685708"><ele>125.66666666666666</ele><time>2026-05-02T16:40:35.474Z</time></trkpt><trkpt lat="46.1265118" lon="13.3683378"><ele>126.0</ele><time>2026-05-02T16:40:36.474Z</time></trkpt><trkpt lat="46.1266038" lon="13.368103"><ele>127.5</ele><time>2026-05-02T16:40:37.473Z</time></trkpt><trkpt lat="46.1266958" lon="13.3678712"><ele>129.0</ele><time>2026-05-02T16:40:38.473Z</time></trkpt><trkpt lat="46.1268712" lon="13.3674288"><ele>129.0</ele><time>2026-05-02T16:40:40.474Z</time></trkpt><trkpt lat="46.1269525" lon="13.367216"><ele>129.0</ele><time>2026-05-02T16:40:41.473Z</time></trkpt><trkpt lat="46.1270303" lon="13.3670135"><ele>129.0</ele><time>2026-05-02T16:40:42.475Z</time></trkpt><trkpt lat="46.1271048" lon="13.3668183"><ele>129.66666666666666</ele><time>2026-05-02T16:40:43.472Z</time></trkpt><trkpt lat="46.1271745" lon="13.3666217"><ele>130.33333333333331</ele><time>2026-05-02T16:40:44.472Z</time></trkpt><trkpt lat="46.1272368" lon="13.3664192"><ele>131.0</ele><time>2026-05-02T16:40:45.472Z</time></trkpt><trkpt lat="46.1272923" lon="13.3662098"><ele>131.0</ele><time>2026-05-02T16:40:46.472Z</time></trkpt><trkpt lat="46.1273437" lon="13.365996"><ele>131.0</ele><time>2026-05-02T16:40:47.474Z</time></trkpt><trkpt lat="46.1273937" lon="13.3657777"><ele>131.0</ele><time>2026-05-02T16:40:48.474Z</time></trkpt><trkpt lat="46.127441" lon="13.3655555"><ele>131.0</ele><time>2026-05-02T16:40:49.474Z</time></trkpt><trkpt lat="46.1274883" lon="13.3653312"><ele>131.0</ele><time>2026-05-02T16:40:50.474Z</time></trkpt><trkpt lat="46.1275383" lon="13.365107"><ele>131.0</ele><time>2026-05-02T16:40:51.475Z</time></trkpt><trkpt lat="46.1275895" lon="13.364884"><ele>131.66666666666666</ele><time>2026-05-02T16:40:52.474Z</time></trkpt><trkpt lat="46.1276405" lon="13.3646635"><ele>132.33333333333334</ele><time>2026-05-02T16:40:53.474Z</time></trkpt><trkpt lat="46.127692" lon="13.3644465"><ele>133.0</ele><time>2026-05-02T16:40:54.476Z</time></trkpt><trkpt lat="46.1277473" lon="13.364234"><ele>133.0</ele><time>2026-05-02T16:40:55.476Z</time></trkpt><trkpt lat="46.1278137" lon="13.3640282"><ele>133.0</ele><time>2026-05-02T16:40:56.474Z</time></trkpt><trkpt lat="46.1278928" lon="13.3638272"><ele>133.0</ele><time>2026-05-02T16:40:57.475Z</time></trkpt><trkpt lat="46.1279847" lon="13.3636323"><ele>132.0</ele><time>2026-05-02T16:40:58.473Z</time></trkpt><trkpt lat="46.1280858" lon="13.3634457"><ele>131.0</ele><time>2026-05-02T16:40:59.474Z</time></trkpt><trkpt lat="46.1282885" lon="13.363105"><ele>132.0</ele><time>2026-05-02T16:41:01.473Z</time></trkpt><trkpt lat="46.1283797" lon="13.3629495"><ele>133.0</ele><time>2026-05-02T16:41:02.474Z</time></trkpt><trkpt lat="46.1284552" lon="13.3627952"><ele>134.0</ele><time>2026-05-02T16:41:03.476Z</time></trkpt><trkpt lat="46.1285085" lon="13.3626303"><ele>135.0</ele><time>2026-05-02T16:41:04.473Z</time></trkpt><trkpt lat="46.1285383" lon="13.3624443"><ele>135.0</ele><time>2026-05-02T16:41:05.472Z</time></trkpt><trkpt lat="46.1285478" lon="13.3622405"><ele>135.0</ele><time>2026-05-02T16:41:06.474Z</time></trkpt><trkpt lat="46.1285543" lon="13.3620232"><ele>135.0</ele><time>2026-05-02T16:41:07.472Z</time></trkpt><trkpt lat="46.1285633" lon="13.3617947"><ele>134.0</ele><time>2026-05-02T16:41:08.471Z</time></trkpt><trkpt lat="46.1285745" lon="13.3615567"><ele>133.0</ele><time>2026-05-02T16:41:09.472Z</time></trkpt><trkpt lat="46.1285878" lon="13.3613108"><ele>132.0</ele><time>2026-05-02T16:41:10.47Z</time></trkpt><trkpt lat="46.1286017" lon="13.3610652"><ele>131.66666666666666</ele><time>2026-05-02T16:41:11.471Z</time></trkpt><trkpt lat="46.1286138" lon="13.3608237"><ele>131.33333333333331</ele><time>2026-05-02T16:41:12.473Z</time></trkpt><trkpt lat="46.1286253" lon="13.360591"><ele>131.0</ele><time>2026-05-02T16:41:13.473Z</time></trkpt><trkpt lat="46.1286372" lon="13.3603695"><ele>130.75</ele><time>2026-05-02T16:41:14.475Z</time></trkpt><trkpt lat="46.1286493" lon="13.3601533"><ele>130.5</ele><time>2026-05-02T16:41:15.473Z</time></trkpt><trkpt lat="46.1286618" lon="13.3599408"><ele>130.25</ele><time>2026-05-02T16:41:16.472Z</time></trkpt><trkpt lat="46.1286743" lon="13.359732"><ele>130.0</ele><time>2026-05-02T16:41:17.473Z</time></trkpt><trkpt lat="46.1286877" lon="13.3595283"><ele>129.33333333333334</ele><time>2026-05-02T16:41:18.473Z</time></trkpt><trkpt lat="46.1287037" lon="13.3593363"><ele>128.66666666666666</ele><time>2026-05-02T16:41:19.472Z</time></trkpt><trkpt lat="46.1287263" lon="13.359153"><ele>128.0</ele><time>2026-05-02T16:41:20.473Z</time></trkpt><trkpt lat="46.1287983" lon="13.3588155"><ele>128.0</ele><time>2026-05-02T16:41:22.472Z</time></trkpt><trkpt lat="46.1288422" lon="13.3586613"><ele>128.0</ele><time>2026-05-02T16:41:23.475Z</time></trkpt><trkpt lat="46.1288857" lon="13.3585165"><ele>128.0</ele><time>2026-05-02T16:41:24.472Z</time></trkpt><trkpt lat="46.1289307" lon="13.358373"><ele>128.0</ele><time>2026-05-02T16:41:25.474Z</time></trkpt><trkpt lat="46.1289758" lon="13.3582343"><ele>128.0</ele><time>2026-05-02T16:41:26.474Z</time></trkpt><trkpt lat="46.1290212" lon="13.3580975"><ele>128.8</ele><time>2026-05-02T16:41:27.474Z</time></trkpt><trkpt lat="46.129067" lon="13.357959"><ele>129.60000000000002</ele><time>2026-05-02T16:41:28.473Z</time></trkpt><trkpt lat="46.129112" lon="13.3578212"><ele>130.39999999999998</ele><time>2026-05-02T16:41:29.472Z</time></trkpt><trkpt lat="46.1291553" lon="13.357688"><ele>131.2</ele><time>2026-05-02T16:41:30.473Z</time></trkpt><trkpt lat="46.1291977" lon="13.357565"><ele>132.0</ele><time>2026-05-02T16:41:31.473Z</time></trkpt><trkpt lat="46.1292358" lon="13.3574555"><ele>132.0</ele><time>2026-05-02T16:41:32.472Z</time></trkpt><trkpt lat="46.1292678" lon="13.3573607"><ele>132.0</ele><time>2026-05-02T16:41:33.472Z</time></trkpt><trkpt lat="46.1292958" lon="13.3572788"><ele>132.0</ele><time>2026-05-02T16:41:34.471Z</time></trkpt><trkpt lat="46.1293433" lon="13.3571327"><ele>132.0</ele><time>2026-05-02T16:41:36.473Z</time></trkpt><trkpt lat="46.1293903" lon="13.3569628"><ele>132.0</ele><time>2026-05-02T16:41:38.474Z</time></trkpt><trkpt lat="46.1294235" lon="13.3568403"><ele>130.0</ele><time>2026-05-02T16:41:39.474Z</time></trkpt><trkpt lat="46.1294717" lon="13.3566935"><ele>130.0</ele><time>2026-05-02T16:41:40.474Z</time></trkpt><trkpt lat="46.129535" lon="13.3565285"><ele>130.0</ele><time>2026-05-02T16:41:41.474Z</time></trkpt></trkseg></trk></gpx>